<?xml version="1.0" encoding="UTF-8" standalone="no" ?>
<gpx xmlns="http://www.topografix.com/GPX/1/1" xmlns:xsi="http://www.w3.org/2001/XMLSchema-instance" xsi:schemaLocation="http://www.topografix.com/GPX/1/1 http://www.topografix.com/GPX/1/1/gpx.xsd" version="1.1" creator="VisuGPX - https://www.visugpx.com">
  <metadata>
    <name>Rando VTT du 17/10/2010 (Franck, Cédrik et Sam)</name>
    <desc><![CDATA[7°, pluie et vent...que du bonheur !!!]]></desc>
  </metadata>
  <trk>
    <name><![CDATA[Rando VTT du 17/10/2010 (Franck, Cédrik et Sam)_1]]></name>
    <trkseg>
      <trkpt lat="45.1146" lon="5.239">
        <ele>238.5</ele>
        <time>2010-10-17T06:34:53Z</time>
      </trkpt>
      <trkpt lat="45.11466" lon="5.23904">
        <ele>239.3</ele>
        <time>2010-10-17T06:34:54Z</time>
      </trkpt>
      <trkpt lat="45.11477" lon="5.23906">
        <ele>250.1</ele>
        <time>2010-10-17T06:34:56Z</time>
      </trkpt>
      <trkpt lat="45.11486" lon="5.23911">
        <ele>251.6</ele>
        <time>2010-10-17T06:34:58Z</time>
      </trkpt>
      <trkpt lat="45.11494" lon="5.23915">
        <ele>252.2</ele>
        <time>2010-10-17T06:35:00Z</time>
      </trkpt>
      <trkpt lat="45.11504" lon="5.2392">
        <ele>255.6</ele>
        <time>2010-10-17T06:35:02Z</time>
      </trkpt>
      <trkpt lat="45.11512" lon="5.23922">
        <ele>260.4</ele>
        <time>2010-10-17T06:35:04Z</time>
      </trkpt>
      <trkpt lat="45.1152" lon="5.23927">
        <ele>261.1</ele>
        <time>2010-10-17T06:35:06Z</time>
      </trkpt>
      <trkpt lat="45.11527" lon="5.23933">
        <ele>260.7</ele>
        <time>2010-10-17T06:35:08Z</time>
      </trkpt>
      <trkpt lat="45.11536" lon="5.23939">
        <ele>263.2</ele>
        <time>2010-10-17T06:35:10Z</time>
      </trkpt>
      <trkpt lat="45.11546" lon="5.23946">
        <ele>262.9</ele>
        <time>2010-10-17T06:35:12Z</time>
      </trkpt>
      <trkpt lat="45.11558" lon="5.23952">
        <ele>263.3</ele>
        <time>2010-10-17T06:35:14Z</time>
      </trkpt>
      <trkpt lat="45.11569" lon="5.23958">
        <ele>264.7</ele>
        <time>2010-10-17T06:35:16Z</time>
      </trkpt>
      <trkpt lat="45.1158" lon="5.23965">
        <ele>266.3</ele>
        <time>2010-10-17T06:35:18Z</time>
      </trkpt>
      <trkpt lat="45.11589" lon="5.23969">
        <ele>266.6</ele>
        <time>2010-10-17T06:35:20Z</time>
      </trkpt>
      <trkpt lat="45.11599" lon="5.23973">
        <ele>267.3</ele>
        <time>2010-10-17T06:35:22Z</time>
      </trkpt>
      <trkpt lat="45.1161" lon="5.23978">
        <ele>268</ele>
        <time>2010-10-17T06:35:24Z</time>
      </trkpt>
      <trkpt lat="45.11619" lon="5.23984">
        <ele>266.3</ele>
        <time>2010-10-17T06:35:26Z</time>
      </trkpt>
      <trkpt lat="45.11629" lon="5.23989">
        <ele>264.9</ele>
        <time>2010-10-17T06:35:28Z</time>
      </trkpt>
      <trkpt lat="45.11637" lon="5.23993">
        <ele>264.1</ele>
        <time>2010-10-17T06:35:30Z</time>
      </trkpt>
      <trkpt lat="45.11647" lon="5.23996">
        <ele>264.5</ele>
        <time>2010-10-17T06:35:32Z</time>
      </trkpt>
      <trkpt lat="45.11656" lon="5.23999">
        <ele>265</ele>
        <time>2010-10-17T06:35:34Z</time>
      </trkpt>
      <trkpt lat="45.11663" lon="5.24004">
        <ele>264.3</ele>
        <time>2010-10-17T06:35:36Z</time>
      </trkpt>
      <trkpt lat="45.1167" lon="5.24008">
        <ele>264.5</ele>
        <time>2010-10-17T06:35:38Z</time>
      </trkpt>
      <trkpt lat="45.11676" lon="5.24012">
        <ele>264.5</ele>
        <time>2010-10-17T06:35:40Z</time>
      </trkpt>
      <trkpt lat="45.11687" lon="5.24016">
        <ele>264.5</ele>
        <time>2010-10-17T06:35:42Z</time>
      </trkpt>
      <trkpt lat="45.11696" lon="5.24021">
        <ele>263.9</ele>
        <time>2010-10-17T06:35:44Z</time>
      </trkpt>
      <trkpt lat="45.11705" lon="5.24024">
        <ele>264.1</ele>
        <time>2010-10-17T06:35:46Z</time>
      </trkpt>
      <trkpt lat="45.11715" lon="5.24028">
        <ele>265.2</ele>
        <time>2010-10-17T06:35:48Z</time>
      </trkpt>
      <trkpt lat="45.11724" lon="5.24031">
        <ele>263.8</ele>
        <time>2010-10-17T06:35:50Z</time>
      </trkpt>
      <trkpt lat="45.11734" lon="5.24035">
        <ele>264.5</ele>
        <time>2010-10-17T06:35:52Z</time>
      </trkpt>
      <trkpt lat="45.11745" lon="5.24037">
        <ele>265.2</ele>
        <time>2010-10-17T06:35:54Z</time>
      </trkpt>
      <trkpt lat="45.11754" lon="5.24041">
        <ele>264.8</ele>
        <time>2010-10-17T06:35:56Z</time>
      </trkpt>
      <trkpt lat="45.11763" lon="5.24044">
        <ele>264</ele>
        <time>2010-10-17T06:35:58Z</time>
      </trkpt>
      <trkpt lat="45.11772" lon="5.24046">
        <ele>263.4</ele>
        <time>2010-10-17T06:36:00Z</time>
      </trkpt>
      <trkpt lat="45.11782" lon="5.24049">
        <ele>263.7</ele>
        <time>2010-10-17T06:36:02Z</time>
      </trkpt>
      <trkpt lat="45.11791" lon="5.24053">
        <ele>263.1</ele>
        <time>2010-10-17T06:36:04Z</time>
      </trkpt>
      <trkpt lat="45.11799" lon="5.24056">
        <ele>263.3</ele>
        <time>2010-10-17T06:36:06Z</time>
      </trkpt>
      <trkpt lat="45.11808" lon="5.24058">
        <ele>263.6</ele>
        <time>2010-10-17T06:36:08Z</time>
      </trkpt>
      <trkpt lat="45.11817" lon="5.2406">
        <ele>264.4</ele>
        <time>2010-10-17T06:36:10Z</time>
      </trkpt>
      <trkpt lat="45.11827" lon="5.24063">
        <ele>264.8</ele>
        <time>2010-10-17T06:36:12Z</time>
      </trkpt>
      <trkpt lat="45.11835" lon="5.24066">
        <ele>265.5</ele>
        <time>2010-10-17T06:36:14Z</time>
      </trkpt>
      <trkpt lat="45.11843" lon="5.2407">
        <ele>265.4</ele>
        <time>2010-10-17T06:36:16Z</time>
      </trkpt>
      <trkpt lat="45.11852" lon="5.24072">
        <ele>265.2</ele>
        <time>2010-10-17T06:36:18Z</time>
      </trkpt>
      <trkpt lat="45.11861" lon="5.24074">
        <ele>265.5</ele>
        <time>2010-10-17T06:36:20Z</time>
      </trkpt>
      <trkpt lat="45.1187" lon="5.24076">
        <ele>266.5</ele>
        <time>2010-10-17T06:36:22Z</time>
      </trkpt>
      <trkpt lat="45.11878" lon="5.24078">
        <ele>266.6</ele>
        <time>2010-10-17T06:36:24Z</time>
      </trkpt>
      <trkpt lat="45.11887" lon="5.2408">
        <ele>266.9</ele>
        <time>2010-10-17T06:36:26Z</time>
      </trkpt>
      <trkpt lat="45.11896" lon="5.24083">
        <ele>266.8</ele>
        <time>2010-10-17T06:36:28Z</time>
      </trkpt>
      <trkpt lat="45.11904" lon="5.24086">
        <ele>266.6</ele>
        <time>2010-10-17T06:36:30Z</time>
      </trkpt>
      <trkpt lat="45.11912" lon="5.24089">
        <ele>266.6</ele>
        <time>2010-10-17T06:36:32Z</time>
      </trkpt>
      <trkpt lat="45.1192" lon="5.24091">
        <ele>267</ele>
        <time>2010-10-17T06:36:34Z</time>
      </trkpt>
      <trkpt lat="45.11928" lon="5.24092">
        <ele>266.8</ele>
        <time>2010-10-17T06:36:36Z</time>
      </trkpt>
      <trkpt lat="45.11937" lon="5.24094">
        <ele>266.8</ele>
        <time>2010-10-17T06:36:38Z</time>
      </trkpt>
      <trkpt lat="45.11947" lon="5.24095">
        <ele>267.9</ele>
        <time>2010-10-17T06:36:40Z</time>
      </trkpt>
      <trkpt lat="45.11955" lon="5.24092">
        <ele>267.3</ele>
        <time>2010-10-17T06:36:42Z</time>
      </trkpt>
      <trkpt lat="45.11962" lon="5.24088">
        <ele>267.9</ele>
        <time>2010-10-17T06:36:44Z</time>
      </trkpt>
      <trkpt lat="45.11967" lon="5.24083">
        <ele>267.5</ele>
        <time>2010-10-17T06:36:46Z</time>
      </trkpt>
      <trkpt lat="45.1197" lon="5.24078">
        <ele>267.7</ele>
        <time>2010-10-17T06:36:48Z</time>
      </trkpt>
      <trkpt lat="45.11971" lon="5.24071">
        <ele>267</ele>
        <time>2010-10-17T06:36:50Z</time>
      </trkpt>
      <trkpt lat="45.11975" lon="5.24063">
        <ele>266.3</ele>
        <time>2010-10-17T06:36:52Z</time>
      </trkpt>
      <trkpt lat="45.11978" lon="5.24056">
        <ele>266</ele>
        <time>2010-10-17T06:36:54Z</time>
      </trkpt>
      <trkpt lat="45.11983" lon="5.24045">
        <ele>264.6</ele>
        <time>2010-10-17T06:36:56Z</time>
      </trkpt>
      <trkpt lat="45.11988" lon="5.24036">
        <ele>263.7</ele>
        <time>2010-10-17T06:36:58Z</time>
      </trkpt>
      <trkpt lat="45.11991" lon="5.24013">
        <ele>263.1</ele>
        <time>2010-10-17T06:37:00Z</time>
      </trkpt>
      <trkpt lat="45.1199" lon="5.23948">
        <ele>263.3</ele>
        <time>2010-10-17T06:37:02Z</time>
      </trkpt>
      <trkpt lat="45.11991" lon="5.2392">
        <ele>263.9</ele>
        <time>2010-10-17T06:37:04Z</time>
      </trkpt>
      <trkpt lat="45.11992" lon="5.23899">
        <ele>264.3</ele>
        <time>2010-10-17T06:37:06Z</time>
      </trkpt>
      <trkpt lat="45.11992" lon="5.23881">
        <ele>265.1</ele>
        <time>2010-10-17T06:37:08Z</time>
      </trkpt>
      <trkpt lat="45.11992" lon="5.23864">
        <ele>266</ele>
        <time>2010-10-17T06:37:10Z</time>
      </trkpt>
      <trkpt lat="45.11992" lon="5.23848">
        <ele>266.4</ele>
        <time>2010-10-17T06:37:12Z</time>
      </trkpt>
      <trkpt lat="45.11993" lon="5.23833">
        <ele>267.2</ele>
        <time>2010-10-17T06:37:14Z</time>
      </trkpt>
      <trkpt lat="45.11993" lon="5.2382">
        <ele>268.1</ele>
        <time>2010-10-17T06:37:16Z</time>
      </trkpt>
      <trkpt lat="45.11993" lon="5.23808">
        <ele>268.7</ele>
        <time>2010-10-17T06:37:18Z</time>
      </trkpt>
      <trkpt lat="45.11993" lon="5.23796">
        <ele>270.5</ele>
        <time>2010-10-17T06:37:20Z</time>
      </trkpt>
      <trkpt lat="45.11993" lon="5.23788">
        <ele>271.4</ele>
        <time>2010-10-17T06:37:22Z</time>
      </trkpt>
      <trkpt lat="45.11993" lon="5.2378">
        <ele>272.3</ele>
        <time>2010-10-17T06:37:24Z</time>
      </trkpt>
      <trkpt lat="45.11994" lon="5.23769">
        <ele>273.9</ele>
        <time>2010-10-17T06:37:26Z</time>
      </trkpt>
      <trkpt lat="45.11994" lon="5.2376">
        <ele>274.8</ele>
        <time>2010-10-17T06:37:28Z</time>
      </trkpt>
      <trkpt lat="45.11994" lon="5.23753">
        <ele>274.8</ele>
        <time>2010-10-17T06:37:30Z</time>
      </trkpt>
      <trkpt lat="45.11995" lon="5.23747">
        <ele>274.9</ele>
        <time>2010-10-17T06:37:32Z</time>
      </trkpt>
      <trkpt lat="45.11995" lon="5.2374">
        <ele>275.3</ele>
        <time>2010-10-17T06:37:34Z</time>
      </trkpt>
      <trkpt lat="45.11995" lon="5.23734">
        <ele>275.2</ele>
        <time>2010-10-17T06:37:36Z</time>
      </trkpt>
      <trkpt lat="45.11995" lon="5.23726">
        <ele>275.3</ele>
        <time>2010-10-17T06:37:38Z</time>
      </trkpt>
      <trkpt lat="45.11994" lon="5.23721">
        <ele>275.2</ele>
        <time>2010-10-17T06:37:40Z</time>
      </trkpt>
      <trkpt lat="45.11994" lon="5.23714">
        <ele>275.4</ele>
        <time>2010-10-17T06:37:42Z</time>
      </trkpt>
      <trkpt lat="45.11994" lon="5.23709">
        <ele>275.4</ele>
        <time>2010-10-17T06:37:44Z</time>
      </trkpt>
      <trkpt lat="45.11993" lon="5.23704">
        <ele>275.6</ele>
        <time>2010-10-17T06:37:46Z</time>
      </trkpt>
      <trkpt lat="45.11993" lon="5.23697">
        <ele>276.4</ele>
        <time>2010-10-17T06:37:48Z</time>
      </trkpt>
      <trkpt lat="45.11993" lon="5.23691">
        <ele>277.5</ele>
        <time>2010-10-17T06:37:50Z</time>
      </trkpt>
      <trkpt lat="45.11991" lon="5.23685">
        <ele>277.7</ele>
        <time>2010-10-17T06:37:52Z</time>
      </trkpt>
      <trkpt lat="45.11989" lon="5.23678">
        <ele>277.1</ele>
        <time>2010-10-17T06:37:54Z</time>
      </trkpt>
      <trkpt lat="45.11987" lon="5.23672">
        <ele>276.4</ele>
        <time>2010-10-17T06:37:56Z</time>
      </trkpt>
      <trkpt lat="45.11986" lon="5.23665">
        <ele>276.5</ele>
        <time>2010-10-17T06:37:58Z</time>
      </trkpt>
      <trkpt lat="45.11982" lon="5.2366">
        <ele>277.4</ele>
        <time>2010-10-17T06:38:00Z</time>
      </trkpt>
      <trkpt lat="45.11981" lon="5.23654">
        <ele>277.2</ele>
        <time>2010-10-17T06:38:02Z</time>
      </trkpt>
      <trkpt lat="45.1198" lon="5.23646">
        <ele>277.4</ele>
        <time>2010-10-17T06:38:04Z</time>
      </trkpt>
      <trkpt lat="45.1198" lon="5.23637">
        <ele>276.8</ele>
        <time>2010-10-17T06:38:06Z</time>
      </trkpt>
      <trkpt lat="45.1198" lon="5.2363">
        <ele>277</ele>
        <time>2010-10-17T06:38:08Z</time>
      </trkpt>
      <trkpt lat="45.11978" lon="5.23622">
        <ele>277.3</ele>
        <time>2010-10-17T06:38:10Z</time>
      </trkpt>
      <trkpt lat="45.11976" lon="5.23614">
        <ele>276.9</ele>
        <time>2010-10-17T06:38:12Z</time>
      </trkpt>
      <trkpt lat="45.11972" lon="5.23606">
        <ele>277.7</ele>
        <time>2010-10-17T06:38:14Z</time>
      </trkpt>
      <trkpt lat="45.11969" lon="5.23598">
        <ele>278</ele>
        <time>2010-10-17T06:38:16Z</time>
      </trkpt>
      <trkpt lat="45.11966" lon="5.2359">
        <ele>277.5</ele>
        <time>2010-10-17T06:38:18Z</time>
      </trkpt>
      <trkpt lat="45.1196" lon="5.23583">
        <ele>278.2</ele>
        <time>2010-10-17T06:38:20Z</time>
      </trkpt>
      <trkpt lat="45.11955" lon="5.23575">
        <ele>278.5</ele>
        <time>2010-10-17T06:38:22Z</time>
      </trkpt>
      <trkpt lat="45.11951" lon="5.23567">
        <ele>278.4</ele>
        <time>2010-10-17T06:38:24Z</time>
      </trkpt>
      <trkpt lat="45.11946" lon="5.23558">
        <ele>278.3</ele>
        <time>2010-10-17T06:38:26Z</time>
      </trkpt>
      <trkpt lat="45.11942" lon="5.23548">
        <ele>279.1</ele>
        <time>2010-10-17T06:38:28Z</time>
      </trkpt>
      <trkpt lat="45.11935" lon="5.23539">
        <ele>280</ele>
        <time>2010-10-17T06:38:30Z</time>
      </trkpt>
      <trkpt lat="45.11929" lon="5.2353">
        <ele>280.6</ele>
        <time>2010-10-17T06:38:32Z</time>
      </trkpt>
      <trkpt lat="45.11924" lon="5.23524">
        <ele>281</ele>
        <time>2010-10-17T06:38:34Z</time>
      </trkpt>
      <trkpt lat="45.11919" lon="5.23517">
        <ele>280.6</ele>
        <time>2010-10-17T06:38:36Z</time>
      </trkpt>
      <trkpt lat="45.11915" lon="5.2351">
        <ele>280.8</ele>
        <time>2010-10-17T06:38:38Z</time>
      </trkpt>
      <trkpt lat="45.11912" lon="5.23502">
        <ele>280.5</ele>
        <time>2010-10-17T06:38:40Z</time>
      </trkpt>
      <trkpt lat="45.11911" lon="5.23495">
        <ele>280.8</ele>
        <time>2010-10-17T06:38:42Z</time>
      </trkpt>
      <trkpt lat="45.1191" lon="5.23489">
        <ele>280.5</ele>
        <time>2010-10-17T06:38:44Z</time>
      </trkpt>
      <trkpt lat="45.1191" lon="5.23482">
        <ele>280.6</ele>
        <time>2010-10-17T06:38:46Z</time>
      </trkpt>
      <trkpt lat="45.1191" lon="5.23475">
        <ele>281.6</ele>
        <time>2010-10-17T06:38:48Z</time>
      </trkpt>
      <trkpt lat="45.1191" lon="5.23468">
        <ele>280.8</ele>
        <time>2010-10-17T06:38:50Z</time>
      </trkpt>
      <trkpt lat="45.11912" lon="5.23461">
        <ele>281.6</ele>
        <time>2010-10-17T06:38:52Z</time>
      </trkpt>
      <trkpt lat="45.11914" lon="5.23454">
        <ele>282.1</ele>
        <time>2010-10-17T06:38:54Z</time>
      </trkpt>
      <trkpt lat="45.11916" lon="5.23449">
        <ele>282.5</ele>
        <time>2010-10-17T06:38:56Z</time>
      </trkpt>
      <trkpt lat="45.11915" lon="5.23445">
        <ele>282.9</ele>
        <time>2010-10-17T06:38:58Z</time>
      </trkpt>
      <trkpt lat="45.11915" lon="5.23439">
        <ele>283.3</ele>
        <time>2010-10-17T06:39:00Z</time>
      </trkpt>
      <trkpt lat="45.11914" lon="5.23435">
        <ele>283.8</ele>
        <time>2010-10-17T06:39:02Z</time>
      </trkpt>
      <trkpt lat="45.11913" lon="5.23431">
        <ele>284.6</ele>
        <time>2010-10-17T06:39:05Z</time>
      </trkpt>
      <trkpt lat="45.11913" lon="5.23427">
        <ele>285.3</ele>
        <time>2010-10-17T06:39:08Z</time>
      </trkpt>
      <trkpt lat="45.11914" lon="5.23422">
        <ele>285</ele>
        <time>2010-10-17T06:39:10Z</time>
      </trkpt>
      <trkpt lat="45.11916" lon="5.23416">
        <ele>284.9</ele>
        <time>2010-10-17T06:39:13Z</time>
      </trkpt>
      <trkpt lat="45.11916" lon="5.2341">
        <ele>285.3</ele>
        <time>2010-10-17T06:39:15Z</time>
      </trkpt>
      <trkpt lat="45.11916" lon="5.23405">
        <ele>285.7</ele>
        <time>2010-10-17T06:39:17Z</time>
      </trkpt>
      <trkpt lat="45.11915" lon="5.23402">
        <ele>285.8</ele>
        <time>2010-10-17T06:39:19Z</time>
      </trkpt>
      <trkpt lat="45.11914" lon="5.23398">
        <ele>286.8</ele>
        <time>2010-10-17T06:39:21Z</time>
      </trkpt>
      <trkpt lat="45.11914" lon="5.23393">
        <ele>287.2</ele>
        <time>2010-10-17T06:39:23Z</time>
      </trkpt>
      <trkpt lat="45.11915" lon="5.23389">
        <ele>287.3</ele>
        <time>2010-10-17T06:39:25Z</time>
      </trkpt>
      <trkpt lat="45.11916" lon="5.23384">
        <ele>288.4</ele>
        <time>2010-10-17T06:39:27Z</time>
      </trkpt>
      <trkpt lat="45.11917" lon="5.23379">
        <ele>289</ele>
        <time>2010-10-17T06:39:29Z</time>
      </trkpt>
      <trkpt lat="45.11917" lon="5.23373">
        <ele>289.1</ele>
        <time>2010-10-17T06:39:31Z</time>
      </trkpt>
      <trkpt lat="45.11917" lon="5.23368">
        <ele>289</ele>
        <time>2010-10-17T06:39:33Z</time>
      </trkpt>
      <trkpt lat="45.11917" lon="5.23363">
        <ele>289.8</ele>
        <time>2010-10-17T06:39:35Z</time>
      </trkpt>
      <trkpt lat="45.11916" lon="5.23358">
        <ele>290.2</ele>
        <time>2010-10-17T06:39:38Z</time>
      </trkpt>
      <trkpt lat="45.11913" lon="5.23355">
        <ele>290.8</ele>
        <time>2010-10-17T06:39:40Z</time>
      </trkpt>
      <trkpt lat="45.11915" lon="5.2335">
        <ele>291</ele>
        <time>2010-10-17T06:39:42Z</time>
      </trkpt>
      <trkpt lat="45.11915" lon="5.23344">
        <ele>291.5</ele>
        <time>2010-10-17T06:39:44Z</time>
      </trkpt>
      <trkpt lat="45.11915" lon="5.2334">
        <ele>292.5</ele>
        <time>2010-10-17T06:39:46Z</time>
      </trkpt>
      <trkpt lat="45.11918" lon="5.23334">
        <ele>293</ele>
        <time>2010-10-17T06:39:48Z</time>
      </trkpt>
      <trkpt lat="45.11918" lon="5.23328">
        <ele>292.5</ele>
        <time>2010-10-17T06:39:50Z</time>
      </trkpt>
      <trkpt lat="45.11918" lon="5.23322">
        <ele>293.2</ele>
        <time>2010-10-17T06:39:52Z</time>
      </trkpt>
      <trkpt lat="45.11921" lon="5.23314">
        <ele>293.5</ele>
        <time>2010-10-17T06:39:54Z</time>
      </trkpt>
      <trkpt lat="45.11921" lon="5.2331">
        <ele>293.8</ele>
        <time>2010-10-17T06:39:56Z</time>
      </trkpt>
      <trkpt lat="45.11925" lon="5.23302">
        <ele>294</ele>
        <time>2010-10-17T06:39:58Z</time>
      </trkpt>
      <trkpt lat="45.11924" lon="5.23295">
        <ele>294.5</ele>
        <time>2010-10-17T06:40:00Z</time>
      </trkpt>
      <trkpt lat="45.11924" lon="5.23288">
        <ele>294.5</ele>
        <time>2010-10-17T06:40:03Z</time>
      </trkpt>
      <trkpt lat="45.11923" lon="5.23283">
        <ele>294.9</ele>
        <time>2010-10-17T06:40:05Z</time>
      </trkpt>
      <trkpt lat="45.11923" lon="5.23279">
        <ele>294.9</ele>
        <time>2010-10-17T06:40:07Z</time>
      </trkpt>
      <trkpt lat="45.11924" lon="5.23275">
        <ele>293.6</ele>
        <time>2010-10-17T06:40:09Z</time>
      </trkpt>
      <trkpt lat="45.11923" lon="5.23271">
        <ele>294.5</ele>
        <time>2010-10-17T06:40:11Z</time>
      </trkpt>
      <trkpt lat="45.11924" lon="5.23265">
        <ele>295.2</ele>
        <time>2010-10-17T06:40:13Z</time>
      </trkpt>
      <trkpt lat="45.11924" lon="5.23258">
        <ele>295.8</ele>
        <time>2010-10-17T06:40:15Z</time>
      </trkpt>
      <trkpt lat="45.11924" lon="5.23253">
        <ele>296.5</ele>
        <time>2010-10-17T06:40:17Z</time>
      </trkpt>
      <trkpt lat="45.11924" lon="5.23244">
        <ele>297.5</ele>
        <time>2010-10-17T06:40:19Z</time>
      </trkpt>
      <trkpt lat="45.11925" lon="5.23238">
        <ele>298.7</ele>
        <time>2010-10-17T06:40:21Z</time>
      </trkpt>
      <trkpt lat="45.11925" lon="5.23232">
        <ele>299.3</ele>
        <time>2010-10-17T06:40:23Z</time>
      </trkpt>
      <trkpt lat="45.11926" lon="5.23226">
        <ele>299.5</ele>
        <time>2010-10-17T06:40:25Z</time>
      </trkpt>
      <trkpt lat="45.11926" lon="5.23221">
        <ele>299.3</ele>
        <time>2010-10-17T06:40:27Z</time>
      </trkpt>
      <trkpt lat="45.11925" lon="5.23217">
        <ele>299</ele>
        <time>2010-10-17T06:40:29Z</time>
      </trkpt>
      <trkpt lat="45.11925" lon="5.23213">
        <ele>299</ele>
        <time>2010-10-17T06:40:31Z</time>
      </trkpt>
      <trkpt lat="45.11925" lon="5.23209">
        <ele>299</ele>
        <time>2010-10-17T06:40:33Z</time>
      </trkpt>
      <trkpt lat="45.11925" lon="5.23205">
        <ele>299.1</ele>
        <time>2010-10-17T06:40:35Z</time>
      </trkpt>
      <trkpt lat="45.11926" lon="5.23199">
        <ele>300</ele>
        <time>2010-10-17T06:40:37Z</time>
      </trkpt>
      <trkpt lat="45.11926" lon="5.23192">
        <ele>301</ele>
        <time>2010-10-17T06:40:39Z</time>
      </trkpt>
      <trkpt lat="45.11927" lon="5.23187">
        <ele>300.7</ele>
        <time>2010-10-17T06:40:41Z</time>
      </trkpt>
      <trkpt lat="45.11927" lon="5.23182">
        <ele>300.4</ele>
        <time>2010-10-17T06:40:43Z</time>
      </trkpt>
      <trkpt lat="45.11928" lon="5.23177">
        <ele>299.7</ele>
        <time>2010-10-17T06:40:45Z</time>
      </trkpt>
      <trkpt lat="45.11927" lon="5.23172">
        <ele>299</ele>
        <time>2010-10-17T06:40:47Z</time>
      </trkpt>
      <trkpt lat="45.11927" lon="5.23166">
        <ele>299.5</ele>
        <time>2010-10-17T06:40:49Z</time>
      </trkpt>
      <trkpt lat="45.11927" lon="5.23161">
        <ele>299.8</ele>
        <time>2010-10-17T06:40:51Z</time>
      </trkpt>
      <trkpt lat="45.11928" lon="5.23154">
        <ele>299.8</ele>
        <time>2010-10-17T06:40:53Z</time>
      </trkpt>
      <trkpt lat="45.11929" lon="5.2315">
        <ele>299.5</ele>
        <time>2010-10-17T06:40:55Z</time>
      </trkpt>
      <trkpt lat="45.11928" lon="5.23146">
        <ele>299.3</ele>
        <time>2010-10-17T06:40:57Z</time>
      </trkpt>
      <trkpt lat="45.11928" lon="5.23142">
        <ele>299.8</ele>
        <time>2010-10-17T06:40:59Z</time>
      </trkpt>
      <trkpt lat="45.11929" lon="5.23138">
        <ele>300.5</ele>
        <time>2010-10-17T06:41:01Z</time>
      </trkpt>
      <trkpt lat="45.11929" lon="5.23133">
        <ele>300.6</ele>
        <time>2010-10-17T06:41:03Z</time>
      </trkpt>
      <trkpt lat="45.11931" lon="5.23126">
        <ele>300.9</ele>
        <time>2010-10-17T06:41:05Z</time>
      </trkpt>
      <trkpt lat="45.11931" lon="5.23121">
        <ele>300.9</ele>
        <time>2010-10-17T06:41:07Z</time>
      </trkpt>
      <trkpt lat="45.11932" lon="5.23115">
        <ele>301.8</ele>
        <time>2010-10-17T06:41:09Z</time>
      </trkpt>
      <trkpt lat="45.11931" lon="5.23109">
        <ele>302.7</ele>
        <time>2010-10-17T06:41:11Z</time>
      </trkpt>
      <trkpt lat="45.11931" lon="5.23104">
        <ele>303.5</ele>
        <time>2010-10-17T06:41:13Z</time>
      </trkpt>
      <trkpt lat="45.11931" lon="5.231">
        <ele>304.6</ele>
        <time>2010-10-17T06:41:15Z</time>
      </trkpt>
      <trkpt lat="45.11931" lon="5.23095">
        <ele>305.8</ele>
        <time>2010-10-17T06:41:17Z</time>
      </trkpt>
      <trkpt lat="45.11932" lon="5.2309">
        <ele>307</ele>
        <time>2010-10-17T06:41:20Z</time>
      </trkpt>
      <trkpt lat="45.11932" lon="5.23084">
        <ele>308</ele>
        <time>2010-10-17T06:41:22Z</time>
      </trkpt>
      <trkpt lat="45.11933" lon="5.23078">
        <ele>309.2</ele>
        <time>2010-10-17T06:41:24Z</time>
      </trkpt>
      <trkpt lat="45.11934" lon="5.23073">
        <ele>309.3</ele>
        <time>2010-10-17T06:41:26Z</time>
      </trkpt>
      <trkpt lat="45.11935" lon="5.23067">
        <ele>310</ele>
        <time>2010-10-17T06:41:28Z</time>
      </trkpt>
      <trkpt lat="45.11936" lon="5.23062">
        <ele>310.8</ele>
        <time>2010-10-17T06:41:30Z</time>
      </trkpt>
      <trkpt lat="45.11937" lon="5.23057">
        <ele>310.8</ele>
        <time>2010-10-17T06:41:32Z</time>
      </trkpt>
      <trkpt lat="45.11939" lon="5.23052">
        <ele>310.5</ele>
        <time>2010-10-17T06:41:34Z</time>
      </trkpt>
      <trkpt lat="45.11943" lon="5.23049">
        <ele>309.9</ele>
        <time>2010-10-17T06:41:36Z</time>
      </trkpt>
      <trkpt lat="45.11947" lon="5.2305">
        <ele>310</ele>
        <time>2010-10-17T06:41:38Z</time>
      </trkpt>
      <trkpt lat="45.11952" lon="5.23051">
        <ele>309.7</ele>
        <time>2010-10-17T06:41:40Z</time>
      </trkpt>
      <trkpt lat="45.1196" lon="5.23052">
        <ele>309.5</ele>
        <time>2010-10-17T06:41:42Z</time>
      </trkpt>
      <trkpt lat="45.11967" lon="5.23054">
        <ele>309.6</ele>
        <time>2010-10-17T06:41:44Z</time>
      </trkpt>
      <trkpt lat="45.11974" lon="5.23057">
        <ele>309.5</ele>
        <time>2010-10-17T06:41:46Z</time>
      </trkpt>
      <trkpt lat="45.11981" lon="5.2306">
        <ele>309.4</ele>
        <time>2010-10-17T06:41:48Z</time>
      </trkpt>
      <trkpt lat="45.11987" lon="5.23064">
        <ele>308.5</ele>
        <time>2010-10-17T06:41:50Z</time>
      </trkpt>
      <trkpt lat="45.11996" lon="5.23065">
        <ele>308.3</ele>
        <time>2010-10-17T06:41:52Z</time>
      </trkpt>
      <trkpt lat="45.12005" lon="5.23068">
        <ele>308.1</ele>
        <time>2010-10-17T06:41:54Z</time>
      </trkpt>
      <trkpt lat="45.12018" lon="5.23071">
        <ele>308.4</ele>
        <time>2010-10-17T06:41:56Z</time>
      </trkpt>
      <trkpt lat="45.12031" lon="5.23074">
        <ele>308.8</ele>
        <time>2010-10-17T06:41:58Z</time>
      </trkpt>
      <trkpt lat="45.12045" lon="5.23078">
        <ele>308.5</ele>
        <time>2010-10-17T06:42:00Z</time>
      </trkpt>
      <trkpt lat="45.1206" lon="5.23081">
        <ele>308.2</ele>
        <time>2010-10-17T06:42:02Z</time>
      </trkpt>
      <trkpt lat="45.12076" lon="5.23085">
        <ele>306.8</ele>
        <time>2010-10-17T06:42:04Z</time>
      </trkpt>
      <trkpt lat="45.1209" lon="5.2309">
        <ele>306.3</ele>
        <time>2010-10-17T06:42:06Z</time>
      </trkpt>
      <trkpt lat="45.12103" lon="5.23096">
        <ele>306.2</ele>
        <time>2010-10-17T06:42:08Z</time>
      </trkpt>
      <trkpt lat="45.12115" lon="5.23101">
        <ele>305.8</ele>
        <time>2010-10-17T06:42:10Z</time>
      </trkpt>
      <trkpt lat="45.12126" lon="5.23106">
        <ele>306</ele>
        <time>2010-10-17T06:42:12Z</time>
      </trkpt>
      <trkpt lat="45.12138" lon="5.2311">
        <ele>306.4</ele>
        <time>2010-10-17T06:42:14Z</time>
      </trkpt>
      <trkpt lat="45.12149" lon="5.23114">
        <ele>307.1</ele>
        <time>2010-10-17T06:42:16Z</time>
      </trkpt>
      <trkpt lat="45.1216" lon="5.23115">
        <ele>307</ele>
        <time>2010-10-17T06:42:18Z</time>
      </trkpt>
      <trkpt lat="45.12169" lon="5.23114">
        <ele>306.7</ele>
        <time>2010-10-17T06:42:20Z</time>
      </trkpt>
      <trkpt lat="45.12178" lon="5.23114">
        <ele>308.5</ele>
        <time>2010-10-17T06:42:22Z</time>
      </trkpt>
      <trkpt lat="45.12186" lon="5.23112">
        <ele>309</ele>
        <time>2010-10-17T06:42:24Z</time>
      </trkpt>
      <trkpt lat="45.12195" lon="5.23111">
        <ele>308.8</ele>
        <time>2010-10-17T06:42:26Z</time>
      </trkpt>
      <trkpt lat="45.12202" lon="5.23111">
        <ele>308.8</ele>
        <time>2010-10-17T06:42:28Z</time>
      </trkpt>
      <trkpt lat="45.12208" lon="5.23109">
        <ele>308.8</ele>
        <time>2010-10-17T06:42:30Z</time>
      </trkpt>
      <trkpt lat="45.12216" lon="5.23107">
        <ele>309.5</ele>
        <time>2010-10-17T06:42:32Z</time>
      </trkpt>
      <trkpt lat="45.12221" lon="5.23104">
        <ele>309.5</ele>
        <time>2010-10-17T06:42:34Z</time>
      </trkpt>
      <trkpt lat="45.12227" lon="5.23103">
        <ele>309.3</ele>
        <time>2010-10-17T06:42:36Z</time>
      </trkpt>
      <trkpt lat="45.12232" lon="5.23102">
        <ele>310.1</ele>
        <time>2010-10-17T06:42:38Z</time>
      </trkpt>
      <trkpt lat="45.12239" lon="5.23101">
        <ele>311.4</ele>
        <time>2010-10-17T06:42:40Z</time>
      </trkpt>
      <trkpt lat="45.12249" lon="5.23099">
        <ele>311.3</ele>
        <time>2010-10-17T06:42:42Z</time>
      </trkpt>
      <trkpt lat="45.12256" lon="5.23098">
        <ele>311.8</ele>
        <time>2010-10-17T06:42:44Z</time>
      </trkpt>
      <trkpt lat="45.12264" lon="5.23097">
        <ele>312.5</ele>
        <time>2010-10-17T06:42:46Z</time>
      </trkpt>
      <trkpt lat="45.12272" lon="5.23097">
        <ele>312.8</ele>
        <time>2010-10-17T06:42:48Z</time>
      </trkpt>
      <trkpt lat="45.12278" lon="5.23097">
        <ele>313</ele>
        <time>2010-10-17T06:42:50Z</time>
      </trkpt>
      <trkpt lat="45.12285" lon="5.23097">
        <ele>314.1</ele>
        <time>2010-10-17T06:42:52Z</time>
      </trkpt>
      <trkpt lat="45.12292" lon="5.23098">
        <ele>314.3</ele>
        <time>2010-10-17T06:42:54Z</time>
      </trkpt>
      <trkpt lat="45.12298" lon="5.23099">
        <ele>314.2</ele>
        <time>2010-10-17T06:42:56Z</time>
      </trkpt>
      <trkpt lat="45.12304" lon="5.23099">
        <ele>314.2</ele>
        <time>2010-10-17T06:42:58Z</time>
      </trkpt>
      <trkpt lat="45.1231" lon="5.231">
        <ele>314.5</ele>
        <time>2010-10-17T06:43:00Z</time>
      </trkpt>
      <trkpt lat="45.12316" lon="5.23101">
        <ele>315.1</ele>
        <time>2010-10-17T06:43:02Z</time>
      </trkpt>
      <trkpt lat="45.12321" lon="5.23102">
        <ele>315.7</ele>
        <time>2010-10-17T06:43:04Z</time>
      </trkpt>
      <trkpt lat="45.12326" lon="5.23103">
        <ele>315.9</ele>
        <time>2010-10-17T06:43:06Z</time>
      </trkpt>
      <trkpt lat="45.12329" lon="5.23103">
        <ele>316.1</ele>
        <time>2010-10-17T06:43:08Z</time>
      </trkpt>
      <trkpt lat="45.12334" lon="5.23103">
        <ele>315.8</ele>
        <time>2010-10-17T06:43:10Z</time>
      </trkpt>
      <trkpt lat="45.12339" lon="5.23103">
        <ele>317</ele>
        <time>2010-10-17T06:43:12Z</time>
      </trkpt>
      <trkpt lat="45.12343" lon="5.23104">
        <ele>317.5</ele>
        <time>2010-10-17T06:43:14Z</time>
      </trkpt>
      <trkpt lat="45.12349" lon="5.23106">
        <ele>318.4</ele>
        <time>2010-10-17T06:43:16Z</time>
      </trkpt>
      <trkpt lat="45.12353" lon="5.23106">
        <ele>318.8</ele>
        <time>2010-10-17T06:43:18Z</time>
      </trkpt>
      <trkpt lat="45.12356" lon="5.23107">
        <ele>319</ele>
        <time>2010-10-17T06:43:20Z</time>
      </trkpt>
      <trkpt lat="45.12362" lon="5.23109">
        <ele>318.8</ele>
        <time>2010-10-17T06:43:22Z</time>
      </trkpt>
      <trkpt lat="45.12368" lon="5.2311">
        <ele>319.3</ele>
        <time>2010-10-17T06:43:24Z</time>
      </trkpt>
      <trkpt lat="45.12375" lon="5.23112">
        <ele>319.3</ele>
        <time>2010-10-17T06:43:26Z</time>
      </trkpt>
      <trkpt lat="45.12384" lon="5.23114">
        <ele>319</ele>
        <time>2010-10-17T06:43:28Z</time>
      </trkpt>
      <trkpt lat="45.12391" lon="5.23115">
        <ele>319</ele>
        <time>2010-10-17T06:43:30Z</time>
      </trkpt>
      <trkpt lat="45.12399" lon="5.23115">
        <ele>319.1</ele>
        <time>2010-10-17T06:43:32Z</time>
      </trkpt>
      <trkpt lat="45.12407" lon="5.23117">
        <ele>318.9</ele>
        <time>2010-10-17T06:43:34Z</time>
      </trkpt>
      <trkpt lat="45.12415" lon="5.23118">
        <ele>318.6</ele>
        <time>2010-10-17T06:43:36Z</time>
      </trkpt>
      <trkpt lat="45.12424" lon="5.23119">
        <ele>318.2</ele>
        <time>2010-10-17T06:43:38Z</time>
      </trkpt>
      <trkpt lat="45.12434" lon="5.23119">
        <ele>318</ele>
        <time>2010-10-17T06:43:40Z</time>
      </trkpt>
      <trkpt lat="45.12444" lon="5.23122">
        <ele>316.9</ele>
        <time>2010-10-17T06:43:42Z</time>
      </trkpt>
      <trkpt lat="45.12454" lon="5.23126">
        <ele>316.3</ele>
        <time>2010-10-17T06:43:44Z</time>
      </trkpt>
      <trkpt lat="45.12465" lon="5.23125">
        <ele>316.6</ele>
        <time>2010-10-17T06:43:46Z</time>
      </trkpt>
      <trkpt lat="45.12474" lon="5.23126">
        <ele>317.5</ele>
        <time>2010-10-17T06:43:48Z</time>
      </trkpt>
      <trkpt lat="45.12483" lon="5.23125">
        <ele>317.8</ele>
        <time>2010-10-17T06:43:50Z</time>
      </trkpt>
      <trkpt lat="45.12493" lon="5.23123">
        <ele>317.7</ele>
        <time>2010-10-17T06:43:52Z</time>
      </trkpt>
      <trkpt lat="45.125" lon="5.23123">
        <ele>316.8</ele>
        <time>2010-10-17T06:43:54Z</time>
      </trkpt>
      <trkpt lat="45.12509" lon="5.23119">
        <ele>316.7</ele>
        <time>2010-10-17T06:43:56Z</time>
      </trkpt>
      <trkpt lat="45.12518" lon="5.23118">
        <ele>317.3</ele>
        <time>2010-10-17T06:43:58Z</time>
      </trkpt>
      <trkpt lat="45.12527" lon="5.23117">
        <ele>317.8</ele>
        <time>2010-10-17T06:44:00Z</time>
      </trkpt>
      <trkpt lat="45.12534" lon="5.23116">
        <ele>318.1</ele>
        <time>2010-10-17T06:44:02Z</time>
      </trkpt>
      <trkpt lat="45.1254" lon="5.23114">
        <ele>318.7</ele>
        <time>2010-10-17T06:44:04Z</time>
      </trkpt>
      <trkpt lat="45.12546" lon="5.23113">
        <ele>319</ele>
        <time>2010-10-17T06:44:06Z</time>
      </trkpt>
      <trkpt lat="45.12553" lon="5.2311">
        <ele>319.4</ele>
        <time>2010-10-17T06:44:08Z</time>
      </trkpt>
      <trkpt lat="45.1256" lon="5.23108">
        <ele>319</ele>
        <time>2010-10-17T06:44:10Z</time>
      </trkpt>
      <trkpt lat="45.12567" lon="5.23105">
        <ele>320.2</ele>
        <time>2010-10-17T06:44:12Z</time>
      </trkpt>
      <trkpt lat="45.12573" lon="5.23106">
        <ele>321.6</ele>
        <time>2010-10-17T06:44:14Z</time>
      </trkpt>
      <trkpt lat="45.1258" lon="5.23102">
        <ele>322.5</ele>
        <time>2010-10-17T06:44:16Z</time>
      </trkpt>
      <trkpt lat="45.12583" lon="5.23099">
        <ele>322.5</ele>
        <time>2010-10-17T06:44:18Z</time>
      </trkpt>
      <trkpt lat="45.12584" lon="5.23095">
        <ele>322.8</ele>
        <time>2010-10-17T06:44:20Z</time>
      </trkpt>
      <trkpt lat="45.12589" lon="5.23096">
        <ele>322.4</ele>
        <time>2010-10-17T06:44:22Z</time>
      </trkpt>
      <trkpt lat="45.12593" lon="5.23097">
        <ele>322.4</ele>
        <time>2010-10-17T06:44:24Z</time>
      </trkpt>
      <trkpt lat="45.12597" lon="5.231">
        <ele>322.4</ele>
        <time>2010-10-17T06:44:26Z</time>
      </trkpt>
      <trkpt lat="45.126" lon="5.23102">
        <ele>322.9</ele>
        <time>2010-10-17T06:44:28Z</time>
      </trkpt>
      <trkpt lat="45.12605" lon="5.23101">
        <ele>323.5</ele>
        <time>2010-10-17T06:44:30Z</time>
      </trkpt>
      <trkpt lat="45.12608" lon="5.23099">
        <ele>323.5</ele>
        <time>2010-10-17T06:44:32Z</time>
      </trkpt>
      <trkpt lat="45.12608" lon="5.23095">
        <ele>323.2</ele>
        <time>2010-10-17T06:44:34Z</time>
      </trkpt>
      <trkpt lat="45.12604" lon="5.23091">
        <ele>323.4</ele>
        <time>2010-10-17T06:44:36Z</time>
      </trkpt>
      <trkpt lat="45.12601" lon="5.23089">
        <ele>324.5</ele>
        <time>2010-10-17T06:44:38Z</time>
      </trkpt>
      <trkpt lat="45.12597" lon="5.2309">
        <ele>325.4</ele>
        <time>2010-10-17T06:44:40Z</time>
      </trkpt>
      <trkpt lat="45.12593" lon="5.23091">
        <ele>325.4</ele>
        <time>2010-10-17T06:44:42Z</time>
      </trkpt>
      <trkpt lat="45.12587" lon="5.23092">
        <ele>325.6</ele>
        <time>2010-10-17T06:44:44Z</time>
      </trkpt>
      <trkpt lat="45.12582" lon="5.23093">
        <ele>326.2</ele>
        <time>2010-10-17T06:44:46Z</time>
      </trkpt>
      <trkpt lat="45.12575" lon="5.23096">
        <ele>326</ele>
        <time>2010-10-17T06:44:48Z</time>
      </trkpt>
      <trkpt lat="45.12574" lon="5.23101">
        <ele>327</ele>
        <time>2010-10-17T06:44:50Z</time>
      </trkpt>
      <trkpt lat="45.12574" lon="5.23102">
        <ele>327.2</ele>
        <time>2010-10-17T06:44:52Z</time>
      </trkpt>
      <trkpt lat="45.12576" lon="5.23097">
        <ele>327.8</ele>
        <time>2010-10-17T06:44:54Z</time>
      </trkpt>
      <trkpt lat="45.12577" lon="5.23093">
        <ele>328.1</ele>
        <time>2010-10-17T06:44:56Z</time>
      </trkpt>
      <trkpt lat="45.1258" lon="5.2309">
        <ele>328.5</ele>
        <time>2010-10-17T06:44:58Z</time>
      </trkpt>
      <trkpt lat="45.12582" lon="5.23086">
        <ele>328.3</ele>
        <time>2010-10-17T06:45:00Z</time>
      </trkpt>
      <trkpt lat="45.12584" lon="5.23081">
        <ele>329.1</ele>
        <time>2010-10-17T06:45:02Z</time>
      </trkpt>
      <trkpt lat="45.12586" lon="5.23079">
        <ele>330.3</ele>
        <time>2010-10-17T06:45:05Z</time>
      </trkpt>
      <trkpt lat="45.12586" lon="5.23081">
        <ele>330.8</ele>
        <time>2010-10-17T06:45:07Z</time>
      </trkpt>
      <trkpt lat="45.12588" lon="5.23085">
        <ele>332.6</ele>
        <time>2010-10-17T06:45:09Z</time>
      </trkpt>
      <trkpt lat="45.12591" lon="5.23089">
        <ele>333.9</ele>
        <time>2010-10-17T06:45:11Z</time>
      </trkpt>
      <trkpt lat="45.12593" lon="5.23092">
        <ele>334.8</ele>
        <time>2010-10-17T06:45:14Z</time>
      </trkpt>
      <trkpt lat="45.12594" lon="5.23093">
        <ele>336.2</ele>
        <time>2010-10-17T06:45:17Z</time>
      </trkpt>
      <trkpt lat="45.12594" lon="5.23094">
        <ele>337.2</ele>
        <time>2010-10-17T06:48:29Z</time>
      </trkpt>
      <trkpt lat="45.12599" lon="5.23091">
        <ele>352</ele>
        <time>2010-10-17T06:51:40Z</time>
      </trkpt>
      <trkpt lat="45.12607" lon="5.23089">
        <ele>346.7</ele>
        <time>2010-10-17T06:51:42Z</time>
      </trkpt>
      <trkpt lat="45.12613" lon="5.23089">
        <ele>345.9</ele>
        <time>2010-10-17T06:51:44Z</time>
      </trkpt>
      <trkpt lat="45.12619" lon="5.2309">
        <ele>344.5</ele>
        <time>2010-10-17T06:51:46Z</time>
      </trkpt>
      <trkpt lat="45.12623" lon="5.23092">
        <ele>342.8</ele>
        <time>2010-10-17T06:51:48Z</time>
      </trkpt>
      <trkpt lat="45.12632" lon="5.2309">
        <ele>343.5</ele>
        <time>2010-10-17T06:51:50Z</time>
      </trkpt>
      <trkpt lat="45.1264" lon="5.23087">
        <ele>344.5</ele>
        <time>2010-10-17T06:51:52Z</time>
      </trkpt>
      <trkpt lat="45.12648" lon="5.23086">
        <ele>343.8</ele>
        <time>2010-10-17T06:51:54Z</time>
      </trkpt>
      <trkpt lat="45.12656" lon="5.23085">
        <ele>343.4</ele>
        <time>2010-10-17T06:51:56Z</time>
      </trkpt>
      <trkpt lat="45.12664" lon="5.23086">
        <ele>342.3</ele>
        <time>2010-10-17T06:51:58Z</time>
      </trkpt>
      <trkpt lat="45.12669" lon="5.23092">
        <ele>341.6</ele>
        <time>2010-10-17T06:52:00Z</time>
      </trkpt>
      <trkpt lat="45.12673" lon="5.23097">
        <ele>340.5</ele>
        <time>2010-10-17T06:52:02Z</time>
      </trkpt>
      <trkpt lat="45.12672" lon="5.23104">
        <ele>340.2</ele>
        <time>2010-10-17T06:52:04Z</time>
      </trkpt>
      <trkpt lat="45.12671" lon="5.23111">
        <ele>340.4</ele>
        <time>2010-10-17T06:52:06Z</time>
      </trkpt>
      <trkpt lat="45.12672" lon="5.23121">
        <ele>340.3</ele>
        <time>2010-10-17T06:52:08Z</time>
      </trkpt>
      <trkpt lat="45.12673" lon="5.23133">
        <ele>340.3</ele>
        <time>2010-10-17T06:52:10Z</time>
      </trkpt>
      <trkpt lat="45.12673" lon="5.23144">
        <ele>339.4</ele>
        <time>2010-10-17T06:52:12Z</time>
      </trkpt>
      <trkpt lat="45.12675" lon="5.23154">
        <ele>339.1</ele>
        <time>2010-10-17T06:52:14Z</time>
      </trkpt>
      <trkpt lat="45.12677" lon="5.23164">
        <ele>338.4</ele>
        <time>2010-10-17T06:52:16Z</time>
      </trkpt>
      <trkpt lat="45.1268" lon="5.23174">
        <ele>337.5</ele>
        <time>2010-10-17T06:52:18Z</time>
      </trkpt>
      <trkpt lat="45.12679" lon="5.23186">
        <ele>336.5</ele>
        <time>2010-10-17T06:52:20Z</time>
      </trkpt>
      <trkpt lat="45.12676" lon="5.23197">
        <ele>337</ele>
        <time>2010-10-17T06:52:22Z</time>
      </trkpt>
      <trkpt lat="45.12674" lon="5.23208">
        <ele>337</ele>
        <time>2010-10-17T06:52:24Z</time>
      </trkpt>
      <trkpt lat="45.12671" lon="5.23218">
        <ele>336.5</ele>
        <time>2010-10-17T06:52:26Z</time>
      </trkpt>
      <trkpt lat="45.12667" lon="5.23227">
        <ele>335.8</ele>
        <time>2010-10-17T06:52:28Z</time>
      </trkpt>
      <trkpt lat="45.12664" lon="5.23237">
        <ele>335</ele>
        <time>2010-10-17T06:52:30Z</time>
      </trkpt>
      <trkpt lat="45.12663" lon="5.23246">
        <ele>334.4</ele>
        <time>2010-10-17T06:52:32Z</time>
      </trkpt>
      <trkpt lat="45.12663" lon="5.23255">
        <ele>333.9</ele>
        <time>2010-10-17T06:52:34Z</time>
      </trkpt>
      <trkpt lat="45.12667" lon="5.2326">
        <ele>333.9</ele>
        <time>2010-10-17T06:52:36Z</time>
      </trkpt>
      <trkpt lat="45.12672" lon="5.23262">
        <ele>333</ele>
        <time>2010-10-17T06:52:38Z</time>
      </trkpt>
      <trkpt lat="45.12678" lon="5.23261">
        <ele>334.5</ele>
        <time>2010-10-17T06:52:40Z</time>
      </trkpt>
      <trkpt lat="45.12683" lon="5.2326">
        <ele>334.3</ele>
        <time>2010-10-17T06:52:42Z</time>
      </trkpt>
      <trkpt lat="45.12687" lon="5.23257">
        <ele>334.1</ele>
        <time>2010-10-17T06:52:44Z</time>
      </trkpt>
      <trkpt lat="45.1269" lon="5.23252">
        <ele>334</ele>
        <time>2010-10-17T06:52:46Z</time>
      </trkpt>
      <trkpt lat="45.12694" lon="5.23247">
        <ele>333.7</ele>
        <time>2010-10-17T06:52:48Z</time>
      </trkpt>
      <trkpt lat="45.12696" lon="5.23241">
        <ele>334.1</ele>
        <time>2010-10-17T06:52:50Z</time>
      </trkpt>
      <trkpt lat="45.12698" lon="5.23236">
        <ele>334.6</ele>
        <time>2010-10-17T06:52:52Z</time>
      </trkpt>
      <trkpt lat="45.127" lon="5.2323">
        <ele>334.7</ele>
        <time>2010-10-17T06:52:54Z</time>
      </trkpt>
      <trkpt lat="45.12701" lon="5.23223">
        <ele>334.7</ele>
        <time>2010-10-17T06:52:56Z</time>
      </trkpt>
      <trkpt lat="45.12704" lon="5.23216">
        <ele>335.1</ele>
        <time>2010-10-17T06:52:58Z</time>
      </trkpt>
      <trkpt lat="45.12706" lon="5.23209">
        <ele>335.8</ele>
        <time>2010-10-17T06:53:00Z</time>
      </trkpt>
      <trkpt lat="45.12708" lon="5.23202">
        <ele>336.3</ele>
        <time>2010-10-17T06:53:02Z</time>
      </trkpt>
      <trkpt lat="45.1271" lon="5.23195">
        <ele>336.3</ele>
        <time>2010-10-17T06:53:04Z</time>
      </trkpt>
      <trkpt lat="45.12712" lon="5.23188">
        <ele>337</ele>
        <time>2010-10-17T06:53:06Z</time>
      </trkpt>
      <trkpt lat="45.12713" lon="5.23182">
        <ele>337.6</ele>
        <time>2010-10-17T06:53:08Z</time>
      </trkpt>
      <trkpt lat="45.12717" lon="5.23176">
        <ele>338.7</ele>
        <time>2010-10-17T06:53:10Z</time>
      </trkpt>
      <trkpt lat="45.12721" lon="5.23173">
        <ele>339</ele>
        <time>2010-10-17T06:53:12Z</time>
      </trkpt>
      <trkpt lat="45.12725" lon="5.23171">
        <ele>339.7</ele>
        <time>2010-10-17T06:53:14Z</time>
      </trkpt>
      <trkpt lat="45.12729" lon="5.2317">
        <ele>339.8</ele>
        <time>2010-10-17T06:53:16Z</time>
      </trkpt>
      <trkpt lat="45.12732" lon="5.23171">
        <ele>340.3</ele>
        <time>2010-10-17T06:53:18Z</time>
      </trkpt>
      <trkpt lat="45.12736" lon="5.23172">
        <ele>339.8</ele>
        <time>2010-10-17T06:53:20Z</time>
      </trkpt>
      <trkpt lat="45.12739" lon="5.23175">
        <ele>339.5</ele>
        <time>2010-10-17T06:53:22Z</time>
      </trkpt>
      <trkpt lat="45.12742" lon="5.23177">
        <ele>338.5</ele>
        <time>2010-10-17T06:53:24Z</time>
      </trkpt>
      <trkpt lat="45.12746" lon="5.2318">
        <ele>338.5</ele>
        <time>2010-10-17T06:53:26Z</time>
      </trkpt>
      <trkpt lat="45.12748" lon="5.23184">
        <ele>338.5</ele>
        <time>2010-10-17T06:53:28Z</time>
      </trkpt>
      <trkpt lat="45.12751" lon="5.23186">
        <ele>338.8</ele>
        <time>2010-10-17T06:53:30Z</time>
      </trkpt>
      <trkpt lat="45.12755" lon="5.23188">
        <ele>338.9</ele>
        <time>2010-10-17T06:53:32Z</time>
      </trkpt>
      <trkpt lat="45.12758" lon="5.23187">
        <ele>339</ele>
        <time>2010-10-17T06:53:35Z</time>
      </trkpt>
      <trkpt lat="45.1276" lon="5.23185">
        <ele>339.2</ele>
        <time>2010-10-17T06:53:38Z</time>
      </trkpt>
      <trkpt lat="45.12763" lon="5.23184">
        <ele>339.8</ele>
        <time>2010-10-17T06:53:41Z</time>
      </trkpt>
      <trkpt lat="45.12765" lon="5.23184">
        <ele>342.5</ele>
        <time>2010-10-17T06:53:43Z</time>
      </trkpt>
      <trkpt lat="45.12765" lon="5.23183">
        <ele>344</ele>
        <time>2010-10-17T06:53:48Z</time>
      </trkpt>
      <trkpt lat="45.12766" lon="5.23183">
        <ele>344.8</ele>
        <time>2010-10-17T06:54:06Z</time>
      </trkpt>
      <trkpt lat="45.12765" lon="5.23184">
        <ele>344.8</ele>
        <time>2010-10-17T06:54:17Z</time>
      </trkpt>
      <trkpt lat="45.12764" lon="5.23183">
        <ele>344</ele>
        <time>2010-10-17T06:54:22Z</time>
      </trkpt>
      <trkpt lat="45.12761" lon="5.23184">
        <ele>344.3</ele>
        <time>2010-10-17T06:54:25Z</time>
      </trkpt>
      <trkpt lat="45.12761" lon="5.23183">
        <ele>344.6</ele>
        <time>2010-10-17T06:54:30Z</time>
      </trkpt>
      <trkpt lat="45.12762" lon="5.23183">
        <ele>345.1</ele>
        <time>2010-10-17T06:55:03Z</time>
      </trkpt>
      <trkpt lat="45.12762" lon="5.23183">
        <ele>345</ele>
        <time>2010-10-17T06:55:13Z</time>
      </trkpt>
      <trkpt lat="45.12761" lon="5.23184">
        <ele>344.6</ele>
        <time>2010-10-17T06:55:32Z</time>
      </trkpt>
      <trkpt lat="45.1276" lon="5.23184">
        <ele>344.9</ele>
        <time>2010-10-17T06:55:48Z</time>
      </trkpt>
      <trkpt lat="45.12761" lon="5.23184">
        <ele>345.5</ele>
        <time>2010-10-17T06:55:53Z</time>
      </trkpt>
      <trkpt lat="45.12761" lon="5.23186">
        <ele>344</ele>
        <time>2010-10-17T06:55:57Z</time>
      </trkpt>
      <trkpt lat="45.12763" lon="5.23186">
        <ele>343.5</ele>
        <time>2010-10-17T06:56:01Z</time>
      </trkpt>
      <trkpt lat="45.12762" lon="5.23185">
        <ele>343.9</ele>
        <time>2010-10-17T06:56:12Z</time>
      </trkpt>
      <trkpt lat="45.12762" lon="5.23185">
        <ele>347.3</ele>
        <time>2010-10-17T06:56:42Z</time>
      </trkpt>
      <trkpt lat="45.12763" lon="5.23184">
        <ele>347.5</ele>
        <time>2010-10-17T06:56:45Z</time>
      </trkpt>
      <trkpt lat="45.12764" lon="5.23182">
        <ele>347.5</ele>
        <time>2010-10-17T06:57:02Z</time>
      </trkpt>
      <trkpt lat="45.12763" lon="5.23183">
        <ele>346.5</ele>
        <time>2010-10-17T06:57:50Z</time>
      </trkpt>
      <trkpt lat="45.12762" lon="5.23184">
        <ele>343.8</ele>
        <time>2010-10-17T06:57:52Z</time>
      </trkpt>
      <trkpt lat="45.12762" lon="5.23184">
        <ele>342.9</ele>
        <time>2010-10-17T06:58:16Z</time>
      </trkpt>
      <trkpt lat="45.12762" lon="5.23183">
        <ele>343.5</ele>
        <time>2010-10-17T06:58:25Z</time>
      </trkpt>
      <trkpt lat="45.12761" lon="5.23183">
        <ele>343</ele>
        <time>2010-10-17T06:58:46Z</time>
      </trkpt>
      <trkpt lat="45.12762" lon="5.23183">
        <ele>343.4</ele>
        <time>2010-10-17T06:58:54Z</time>
      </trkpt>
      <trkpt lat="45.12762" lon="5.23183">
        <ele>343.9</ele>
        <time>2010-10-17T06:59:22Z</time>
      </trkpt>
      <trkpt lat="45.12763" lon="5.23183">
        <ele>343.8</ele>
        <time>2010-10-17T07:01:51Z</time>
      </trkpt>
      <trkpt lat="45.12764" lon="5.23182">
        <ele>342.8</ele>
        <time>2010-10-17T07:02:07Z</time>
      </trkpt>
      <trkpt lat="45.12765" lon="5.23182">
        <ele>342.3</ele>
        <time>2010-10-17T07:02:11Z</time>
      </trkpt>
      <trkpt lat="45.12764" lon="5.23182">
        <ele>342.8</ele>
        <time>2010-10-17T07:02:16Z</time>
      </trkpt>
      <trkpt lat="45.12764" lon="5.23182">
        <ele>343</ele>
        <time>2010-10-17T07:02:41Z</time>
      </trkpt>
      <trkpt lat="45.12762" lon="5.23182">
        <ele>343.5</ele>
        <time>2010-10-17T07:02:51Z</time>
      </trkpt>
      <trkpt lat="45.12762" lon="5.23181">
        <ele>344.9</ele>
        <time>2010-10-17T07:02:53Z</time>
      </trkpt>
      <trkpt lat="45.12762" lon="5.23181">
        <ele>345.6</ele>
        <time>2010-10-17T07:03:00Z</time>
      </trkpt>
      <trkpt lat="45.12761" lon="5.23181">
        <ele>346.4</ele>
        <time>2010-10-17T07:03:26Z</time>
      </trkpt>
      <trkpt lat="45.1276" lon="5.2318">
        <ele>345.8</ele>
        <time>2010-10-17T07:03:49Z</time>
      </trkpt>
      <trkpt lat="45.1276" lon="5.23182">
        <ele>344.5</ele>
        <time>2010-10-17T07:04:00Z</time>
      </trkpt>
      <trkpt lat="45.12762" lon="5.23183">
        <ele>345.6</ele>
        <time>2010-10-17T07:04:12Z</time>
      </trkpt>
      <trkpt lat="45.12762" lon="5.23184">
        <ele>345.4</ele>
        <time>2010-10-17T07:04:54Z</time>
      </trkpt>
      <trkpt lat="45.12762" lon="5.23186">
        <ele>345.3</ele>
        <time>2010-10-17T07:04:59Z</time>
      </trkpt>
      <trkpt lat="45.12762" lon="5.23186">
        <ele>345.8</ele>
        <time>2010-10-17T07:05:48Z</time>
      </trkpt>
      <trkpt lat="45.12762" lon="5.23188">
        <ele>346.6</ele>
        <time>2010-10-17T07:05:50Z</time>
      </trkpt>
      <trkpt lat="45.12761" lon="5.23186">
        <ele>346.2</ele>
        <time>2010-10-17T07:05:53Z</time>
      </trkpt>
      <trkpt lat="45.12762" lon="5.23183">
        <ele>346.3</ele>
        <time>2010-10-17T07:05:56Z</time>
      </trkpt>
      <trkpt lat="45.12762" lon="5.23182">
        <ele>345.8</ele>
        <time>2010-10-17T07:06:10Z</time>
      </trkpt>
      <trkpt lat="45.12761" lon="5.23185">
        <ele>345.5</ele>
        <time>2010-10-17T07:06:23Z</time>
      </trkpt>
      <trkpt lat="45.12759" lon="5.23187">
        <ele>345.2</ele>
        <time>2010-10-17T07:06:25Z</time>
      </trkpt>
      <trkpt lat="45.12755" lon="5.23188">
        <ele>344.8</ele>
        <time>2010-10-17T07:06:27Z</time>
      </trkpt>
      <trkpt lat="45.1275" lon="5.23187">
        <ele>346.6</ele>
        <time>2010-10-17T07:06:29Z</time>
      </trkpt>
      <trkpt lat="45.12745" lon="5.23184">
        <ele>347.5</ele>
        <time>2010-10-17T07:06:31Z</time>
      </trkpt>
      <trkpt lat="45.12739" lon="5.23176">
        <ele>347.5</ele>
        <time>2010-10-17T07:06:33Z</time>
      </trkpt>
      <trkpt lat="45.12732" lon="5.23169">
        <ele>346.6</ele>
        <time>2010-10-17T07:06:35Z</time>
      </trkpt>
      <trkpt lat="45.1272" lon="5.23163">
        <ele>344.6</ele>
        <time>2010-10-17T07:06:37Z</time>
      </trkpt>
      <trkpt lat="45.1271" lon="5.23155">
        <ele>342.5</ele>
        <time>2010-10-17T07:06:39Z</time>
      </trkpt>
      <trkpt lat="45.12701" lon="5.23154">
        <ele>340.5</ele>
        <time>2010-10-17T07:06:41Z</time>
      </trkpt>
      <trkpt lat="45.12693" lon="5.23154">
        <ele>339.5</ele>
        <time>2010-10-17T07:06:43Z</time>
      </trkpt>
      <trkpt lat="45.12684" lon="5.23153">
        <ele>339.2</ele>
        <time>2010-10-17T07:06:45Z</time>
      </trkpt>
      <trkpt lat="45.12675" lon="5.23148">
        <ele>338.7</ele>
        <time>2010-10-17T07:06:47Z</time>
      </trkpt>
      <trkpt lat="45.12669" lon="5.2314">
        <ele>337.3</ele>
        <time>2010-10-17T07:06:49Z</time>
      </trkpt>
      <trkpt lat="45.12666" lon="5.23131">
        <ele>333.9</ele>
        <time>2010-10-17T07:06:51Z</time>
      </trkpt>
      <trkpt lat="45.12663" lon="5.2312">
        <ele>332.8</ele>
        <time>2010-10-17T07:06:53Z</time>
      </trkpt>
      <trkpt lat="45.12664" lon="5.23107">
        <ele>332</ele>
        <time>2010-10-17T07:06:55Z</time>
      </trkpt>
      <trkpt lat="45.12667" lon="5.2309">
        <ele>332.3</ele>
        <time>2010-10-17T07:06:58Z</time>
      </trkpt>
      <trkpt lat="45.12665" lon="5.23083">
        <ele>330.9</ele>
        <time>2010-10-17T07:07:00Z</time>
      </trkpt>
      <trkpt lat="45.12657" lon="5.23085">
        <ele>329.3</ele>
        <time>2010-10-17T07:07:02Z</time>
      </trkpt>
      <trkpt lat="45.12648" lon="5.23085">
        <ele>328.4</ele>
        <time>2010-10-17T07:07:04Z</time>
      </trkpt>
      <trkpt lat="45.12643" lon="5.23082">
        <ele>328.3</ele>
        <time>2010-10-17T07:07:06Z</time>
      </trkpt>
      <trkpt lat="45.12646" lon="5.2308">
        <ele>327.3</ele>
        <time>2010-10-17T07:07:08Z</time>
      </trkpt>
      <trkpt lat="45.12656" lon="5.23077">
        <ele>325.5</ele>
        <time>2010-10-17T07:07:10Z</time>
      </trkpt>
      <trkpt lat="45.12665" lon="5.23074">
        <ele>324</ele>
        <time>2010-10-17T07:07:12Z</time>
      </trkpt>
      <trkpt lat="45.12675" lon="5.23067">
        <ele>323</ele>
        <time>2010-10-17T07:07:14Z</time>
      </trkpt>
      <trkpt lat="45.12683" lon="5.23053">
        <ele>321.7</ele>
        <time>2010-10-17T07:07:16Z</time>
      </trkpt>
      <trkpt lat="45.12689" lon="5.23036">
        <ele>321.3</ele>
        <time>2010-10-17T07:07:18Z</time>
      </trkpt>
      <trkpt lat="45.12693" lon="5.23019">
        <ele>320.2</ele>
        <time>2010-10-17T07:07:20Z</time>
      </trkpt>
      <trkpt lat="45.12693" lon="5.23003">
        <ele>321.4</ele>
        <time>2010-10-17T07:07:22Z</time>
      </trkpt>
      <trkpt lat="45.12692" lon="5.22988">
        <ele>321.8</ele>
        <time>2010-10-17T07:07:24Z</time>
      </trkpt>
      <trkpt lat="45.12687" lon="5.22973">
        <ele>320.5</ele>
        <time>2010-10-17T07:07:26Z</time>
      </trkpt>
      <trkpt lat="45.12678" lon="5.22961">
        <ele>319.5</ele>
        <time>2010-10-17T07:07:28Z</time>
      </trkpt>
      <trkpt lat="45.12666" lon="5.22944">
        <ele>318.7</ele>
        <time>2010-10-17T07:07:30Z</time>
      </trkpt>
      <trkpt lat="45.12651" lon="5.22926">
        <ele>317.3</ele>
        <time>2010-10-17T07:07:32Z</time>
      </trkpt>
      <trkpt lat="45.12638" lon="5.2291">
        <ele>316.3</ele>
        <time>2010-10-17T07:07:34Z</time>
      </trkpt>
      <trkpt lat="45.12627" lon="5.22899">
        <ele>316</ele>
        <time>2010-10-17T07:07:36Z</time>
      </trkpt>
      <trkpt lat="45.12619" lon="5.22892">
        <ele>315.5</ele>
        <time>2010-10-17T07:07:38Z</time>
      </trkpt>
      <trkpt lat="45.12612" lon="5.22887">
        <ele>315</ele>
        <time>2010-10-17T07:07:40Z</time>
      </trkpt>
      <trkpt lat="45.12605" lon="5.2288">
        <ele>314.5</ele>
        <time>2010-10-17T07:07:42Z</time>
      </trkpt>
      <trkpt lat="45.12596" lon="5.22878">
        <ele>313.3</ele>
        <time>2010-10-17T07:07:44Z</time>
      </trkpt>
      <trkpt lat="45.12588" lon="5.22879">
        <ele>312</ele>
        <time>2010-10-17T07:07:46Z</time>
      </trkpt>
      <trkpt lat="45.12579" lon="5.22882">
        <ele>309.8</ele>
        <time>2010-10-17T07:07:48Z</time>
      </trkpt>
      <trkpt lat="45.12571" lon="5.22883">
        <ele>307.8</ele>
        <time>2010-10-17T07:07:50Z</time>
      </trkpt>
      <trkpt lat="45.12566" lon="5.22882">
        <ele>306.2</ele>
        <time>2010-10-17T07:07:52Z</time>
      </trkpt>
      <trkpt lat="45.1256" lon="5.22877">
        <ele>304.3</ele>
        <time>2010-10-17T07:07:54Z</time>
      </trkpt>
      <trkpt lat="45.12554" lon="5.2287">
        <ele>301.5</ele>
        <time>2010-10-17T07:07:56Z</time>
      </trkpt>
      <trkpt lat="45.12548" lon="5.2286">
        <ele>299.6</ele>
        <time>2010-10-17T07:07:58Z</time>
      </trkpt>
      <trkpt lat="45.12542" lon="5.22849">
        <ele>298.2</ele>
        <time>2010-10-17T07:08:00Z</time>
      </trkpt>
      <trkpt lat="45.12537" lon="5.22837">
        <ele>297</ele>
        <time>2010-10-17T07:08:02Z</time>
      </trkpt>
      <trkpt lat="45.12528" lon="5.22824">
        <ele>296.3</ele>
        <time>2010-10-17T07:08:04Z</time>
      </trkpt>
      <trkpt lat="45.12518" lon="5.22806">
        <ele>295.2</ele>
        <time>2010-10-17T07:08:06Z</time>
      </trkpt>
      <trkpt lat="45.12508" lon="5.22785">
        <ele>292.2</ele>
        <time>2010-10-17T07:08:08Z</time>
      </trkpt>
      <trkpt lat="45.125" lon="5.22764">
        <ele>289.5</ele>
        <time>2010-10-17T07:08:10Z</time>
      </trkpt>
      <trkpt lat="45.12494" lon="5.22742">
        <ele>287.3</ele>
        <time>2010-10-17T07:08:12Z</time>
      </trkpt>
      <trkpt lat="45.12488" lon="5.22722">
        <ele>285.3</ele>
        <time>2010-10-17T07:08:14Z</time>
      </trkpt>
      <trkpt lat="45.12485" lon="5.22711">
        <ele>281.5</ele>
        <time>2010-10-17T07:08:16Z</time>
      </trkpt>
      <trkpt lat="45.12479" lon="5.22697">
        <ele>279</ele>
        <time>2010-10-17T07:08:18Z</time>
      </trkpt>
      <trkpt lat="45.12472" lon="5.22688">
        <ele>277.9</ele>
        <time>2010-10-17T07:08:20Z</time>
      </trkpt>
      <trkpt lat="45.12468" lon="5.22684">
        <ele>276</ele>
        <time>2010-10-17T07:08:22Z</time>
      </trkpt>
      <trkpt lat="45.12465" lon="5.22681">
        <ele>275.6</ele>
        <time>2010-10-17T07:08:24Z</time>
      </trkpt>
      <trkpt lat="45.12464" lon="5.22682">
        <ele>276</ele>
        <time>2010-10-17T07:08:30Z</time>
      </trkpt>
      <trkpt lat="45.12465" lon="5.22684">
        <ele>275.8</ele>
        <time>2010-10-17T07:08:35Z</time>
      </trkpt>
      <trkpt lat="45.12468" lon="5.22688">
        <ele>271.5</ele>
        <time>2010-10-17T07:08:40Z</time>
      </trkpt>
      <trkpt lat="45.12469" lon="5.22691">
        <ele>271.7</ele>
        <time>2010-10-17T07:08:42Z</time>
      </trkpt>
      <trkpt lat="45.1247" lon="5.22692">
        <ele>270.6</ele>
        <time>2010-10-17T07:08:44Z</time>
      </trkpt>
      <trkpt lat="45.12473" lon="5.22695">
        <ele>269.8</ele>
        <time>2010-10-17T07:08:46Z</time>
      </trkpt>
      <trkpt lat="45.12476" lon="5.22697">
        <ele>269.3</ele>
        <time>2010-10-17T07:08:48Z</time>
      </trkpt>
      <trkpt lat="45.12479" lon="5.22699">
        <ele>268.5</ele>
        <time>2010-10-17T07:08:50Z</time>
      </trkpt>
      <trkpt lat="45.12483" lon="5.22702">
        <ele>267.6</ele>
        <time>2010-10-17T07:08:52Z</time>
      </trkpt>
      <trkpt lat="45.12485" lon="5.22707">
        <ele>266.2</ele>
        <time>2010-10-17T07:08:54Z</time>
      </trkpt>
      <trkpt lat="45.12486" lon="5.22713">
        <ele>264.3</ele>
        <time>2010-10-17T07:08:56Z</time>
      </trkpt>
      <trkpt lat="45.12487" lon="5.22719">
        <ele>262.5</ele>
        <time>2010-10-17T07:08:58Z</time>
      </trkpt>
      <trkpt lat="45.12484" lon="5.22724">
        <ele>261.1</ele>
        <time>2010-10-17T07:09:00Z</time>
      </trkpt>
      <trkpt lat="45.12481" lon="5.22729">
        <ele>259.8</ele>
        <time>2010-10-17T07:09:02Z</time>
      </trkpt>
      <trkpt lat="45.12478" lon="5.22733">
        <ele>259</ele>
        <time>2010-10-17T07:09:04Z</time>
      </trkpt>
      <trkpt lat="45.12474" lon="5.22737">
        <ele>258.3</ele>
        <time>2010-10-17T07:09:06Z</time>
      </trkpt>
      <trkpt lat="45.12469" lon="5.22741">
        <ele>260</ele>
        <time>2010-10-17T07:09:08Z</time>
      </trkpt>
      <trkpt lat="45.12464" lon="5.22745">
        <ele>260</ele>
        <time>2010-10-17T07:09:10Z</time>
      </trkpt>
      <trkpt lat="45.12459" lon="5.2275">
        <ele>261</ele>
        <time>2010-10-17T07:09:12Z</time>
      </trkpt>
      <trkpt lat="45.12454" lon="5.22755">
        <ele>261.5</ele>
        <time>2010-10-17T07:09:14Z</time>
      </trkpt>
      <trkpt lat="45.12448" lon="5.22761">
        <ele>260.8</ele>
        <time>2010-10-17T07:09:16Z</time>
      </trkpt>
      <trkpt lat="45.12442" lon="5.22766">
        <ele>260</ele>
        <time>2010-10-17T07:09:18Z</time>
      </trkpt>
      <trkpt lat="45.12436" lon="5.22772">
        <ele>259.7</ele>
        <time>2010-10-17T07:09:20Z</time>
      </trkpt>
      <trkpt lat="45.12431" lon="5.22777">
        <ele>259.5</ele>
        <time>2010-10-17T07:09:22Z</time>
      </trkpt>
      <trkpt lat="45.12425" lon="5.22783">
        <ele>259.5</ele>
        <time>2010-10-17T07:09:24Z</time>
      </trkpt>
      <trkpt lat="45.12419" lon="5.22788">
        <ele>259.5</ele>
        <time>2010-10-17T07:09:26Z</time>
      </trkpt>
      <trkpt lat="45.12413" lon="5.22795">
        <ele>259.6</ele>
        <time>2010-10-17T07:09:28Z</time>
      </trkpt>
      <trkpt lat="45.12407" lon="5.22801">
        <ele>260</ele>
        <time>2010-10-17T07:09:30Z</time>
      </trkpt>
      <trkpt lat="45.12402" lon="5.22807">
        <ele>259.5</ele>
        <time>2010-10-17T07:09:32Z</time>
      </trkpt>
      <trkpt lat="45.12395" lon="5.22812">
        <ele>259.8</ele>
        <time>2010-10-17T07:09:34Z</time>
      </trkpt>
      <trkpt lat="45.12389" lon="5.22818">
        <ele>259.8</ele>
        <time>2010-10-17T07:09:36Z</time>
      </trkpt>
      <trkpt lat="45.12382" lon="5.22825">
        <ele>259.3</ele>
        <time>2010-10-17T07:09:38Z</time>
      </trkpt>
      <trkpt lat="45.12376" lon="5.2283">
        <ele>258.8</ele>
        <time>2010-10-17T07:09:40Z</time>
      </trkpt>
      <trkpt lat="45.1237" lon="5.22836">
        <ele>258.5</ele>
        <time>2010-10-17T07:09:42Z</time>
      </trkpt>
      <trkpt lat="45.12365" lon="5.22843">
        <ele>257.9</ele>
        <time>2010-10-17T07:09:44Z</time>
      </trkpt>
      <trkpt lat="45.12357" lon="5.2285">
        <ele>259.6</ele>
        <time>2010-10-17T07:09:46Z</time>
      </trkpt>
      <trkpt lat="45.12351" lon="5.22857">
        <ele>259.8</ele>
        <time>2010-10-17T07:09:48Z</time>
      </trkpt>
      <trkpt lat="45.12345" lon="5.22862">
        <ele>259.9</ele>
        <time>2010-10-17T07:09:50Z</time>
      </trkpt>
      <trkpt lat="45.12339" lon="5.22866">
        <ele>259.8</ele>
        <time>2010-10-17T07:09:52Z</time>
      </trkpt>
      <trkpt lat="45.12333" lon="5.2287">
        <ele>259.8</ele>
        <time>2010-10-17T07:09:54Z</time>
      </trkpt>
      <trkpt lat="45.12327" lon="5.22876">
        <ele>260.3</ele>
        <time>2010-10-17T07:09:56Z</time>
      </trkpt>
      <trkpt lat="45.12321" lon="5.2288">
        <ele>260.4</ele>
        <time>2010-10-17T07:09:58Z</time>
      </trkpt>
      <trkpt lat="45.12314" lon="5.22884">
        <ele>260.3</ele>
        <time>2010-10-17T07:10:00Z</time>
      </trkpt>
      <trkpt lat="45.12304" lon="5.22884">
        <ele>260.4</ele>
        <time>2010-10-17T07:10:02Z</time>
      </trkpt>
      <trkpt lat="45.12296" lon="5.22887">
        <ele>260.7</ele>
        <time>2010-10-17T07:10:04Z</time>
      </trkpt>
      <trkpt lat="45.12288" lon="5.22888">
        <ele>260.8</ele>
        <time>2010-10-17T07:10:06Z</time>
      </trkpt>
      <trkpt lat="45.1228" lon="5.22889">
        <ele>261.6</ele>
        <time>2010-10-17T07:10:08Z</time>
      </trkpt>
      <trkpt lat="45.12271" lon="5.22891">
        <ele>261.9</ele>
        <time>2010-10-17T07:10:10Z</time>
      </trkpt>
      <trkpt lat="45.12264" lon="5.22893">
        <ele>261.3</ele>
        <time>2010-10-17T07:10:12Z</time>
      </trkpt>
      <trkpt lat="45.12256" lon="5.22895">
        <ele>261.2</ele>
        <time>2010-10-17T07:10:14Z</time>
      </trkpt>
      <trkpt lat="45.12247" lon="5.22895">
        <ele>260.8</ele>
        <time>2010-10-17T07:10:16Z</time>
      </trkpt>
      <trkpt lat="45.1224" lon="5.22897">
        <ele>260.5</ele>
        <time>2010-10-17T07:10:18Z</time>
      </trkpt>
      <trkpt lat="45.12234" lon="5.22899">
        <ele>259.5</ele>
        <time>2010-10-17T07:10:20Z</time>
      </trkpt>
      <trkpt lat="45.12229" lon="5.22901">
        <ele>258.9</ele>
        <time>2010-10-17T07:10:22Z</time>
      </trkpt>
      <trkpt lat="45.12224" lon="5.22901">
        <ele>258.8</ele>
        <time>2010-10-17T07:10:24Z</time>
      </trkpt>
      <trkpt lat="45.1222" lon="5.22902">
        <ele>258.3</ele>
        <time>2010-10-17T07:10:26Z</time>
      </trkpt>
      <trkpt lat="45.12216" lon="5.22905">
        <ele>258.4</ele>
        <time>2010-10-17T07:10:28Z</time>
      </trkpt>
      <trkpt lat="45.12211" lon="5.22905">
        <ele>258.5</ele>
        <time>2010-10-17T07:10:30Z</time>
      </trkpt>
      <trkpt lat="45.12205" lon="5.22906">
        <ele>258</ele>
        <time>2010-10-17T07:10:32Z</time>
      </trkpt>
      <trkpt lat="45.12199" lon="5.22908">
        <ele>257.3</ele>
        <time>2010-10-17T07:10:34Z</time>
      </trkpt>
      <trkpt lat="45.12193" lon="5.22912">
        <ele>257.1</ele>
        <time>2010-10-17T07:10:36Z</time>
      </trkpt>
      <trkpt lat="45.12186" lon="5.22914">
        <ele>256.8</ele>
        <time>2010-10-17T07:10:38Z</time>
      </trkpt>
      <trkpt lat="45.12178" lon="5.22918">
        <ele>256</ele>
        <time>2010-10-17T07:10:40Z</time>
      </trkpt>
      <trkpt lat="45.1217" lon="5.22919">
        <ele>255.8</ele>
        <time>2010-10-17T07:10:42Z</time>
      </trkpt>
      <trkpt lat="45.1216" lon="5.22919">
        <ele>255.2</ele>
        <time>2010-10-17T07:10:44Z</time>
      </trkpt>
      <trkpt lat="45.12151" lon="5.2292">
        <ele>254.3</ele>
        <time>2010-10-17T07:10:46Z</time>
      </trkpt>
      <trkpt lat="45.12137" lon="5.22917">
        <ele>254.7</ele>
        <time>2010-10-17T07:10:48Z</time>
      </trkpt>
      <trkpt lat="45.12127" lon="5.22916">
        <ele>254.4</ele>
        <time>2010-10-17T07:10:50Z</time>
      </trkpt>
      <trkpt lat="45.1212" lon="5.22916">
        <ele>254.4</ele>
        <time>2010-10-17T07:10:52Z</time>
      </trkpt>
      <trkpt lat="45.12111" lon="5.22913">
        <ele>254.5</ele>
        <time>2010-10-17T07:10:54Z</time>
      </trkpt>
      <trkpt lat="45.12102" lon="5.22912">
        <ele>253.7</ele>
        <time>2010-10-17T07:10:56Z</time>
      </trkpt>
      <trkpt lat="45.12092" lon="5.2291">
        <ele>253.5</ele>
        <time>2010-10-17T07:10:58Z</time>
      </trkpt>
      <trkpt lat="45.12082" lon="5.22907">
        <ele>252.6</ele>
        <time>2010-10-17T07:11:00Z</time>
      </trkpt>
      <trkpt lat="45.12072" lon="5.22904">
        <ele>251.8</ele>
        <time>2010-10-17T07:11:02Z</time>
      </trkpt>
      <trkpt lat="45.12064" lon="5.22901">
        <ele>251.6</ele>
        <time>2010-10-17T07:11:04Z</time>
      </trkpt>
      <trkpt lat="45.12055" lon="5.22897">
        <ele>251.6</ele>
        <time>2010-10-17T07:11:06Z</time>
      </trkpt>
      <trkpt lat="45.12044" lon="5.22893">
        <ele>251.2</ele>
        <time>2010-10-17T07:11:08Z</time>
      </trkpt>
      <trkpt lat="45.12032" lon="5.22891">
        <ele>251.5</ele>
        <time>2010-10-17T07:11:10Z</time>
      </trkpt>
      <trkpt lat="45.12021" lon="5.2289">
        <ele>251.1</ele>
        <time>2010-10-17T07:11:12Z</time>
      </trkpt>
      <trkpt lat="45.12013" lon="5.22889">
        <ele>250.3</ele>
        <time>2010-10-17T07:11:14Z</time>
      </trkpt>
      <trkpt lat="45.12005" lon="5.22889">
        <ele>250.8</ele>
        <time>2010-10-17T07:11:16Z</time>
      </trkpt>
      <trkpt lat="45.11993" lon="5.22888">
        <ele>252.8</ele>
        <time>2010-10-17T07:11:18Z</time>
      </trkpt>
      <trkpt lat="45.11984" lon="5.2289">
        <ele>252.6</ele>
        <time>2010-10-17T07:11:20Z</time>
      </trkpt>
      <trkpt lat="45.11973" lon="5.2289">
        <ele>253.4</ele>
        <time>2010-10-17T07:11:22Z</time>
      </trkpt>
      <trkpt lat="45.11964" lon="5.22889">
        <ele>252.4</ele>
        <time>2010-10-17T07:11:24Z</time>
      </trkpt>
      <trkpt lat="45.11954" lon="5.2289">
        <ele>252.6</ele>
        <time>2010-10-17T07:11:26Z</time>
      </trkpt>
      <trkpt lat="45.11945" lon="5.22889">
        <ele>252.5</ele>
        <time>2010-10-17T07:11:28Z</time>
      </trkpt>
      <trkpt lat="45.11935" lon="5.22886">
        <ele>252.7</ele>
        <time>2010-10-17T07:11:30Z</time>
      </trkpt>
      <trkpt lat="45.11927" lon="5.22887">
        <ele>251.6</ele>
        <time>2010-10-17T07:11:32Z</time>
      </trkpt>
      <trkpt lat="45.11918" lon="5.22887">
        <ele>251.1</ele>
        <time>2010-10-17T07:11:34Z</time>
      </trkpt>
      <trkpt lat="45.1191" lon="5.22885">
        <ele>251.5</ele>
        <time>2010-10-17T07:11:36Z</time>
      </trkpt>
      <trkpt lat="45.11901" lon="5.22882">
        <ele>252.5</ele>
        <time>2010-10-17T07:11:38Z</time>
      </trkpt>
      <trkpt lat="45.11894" lon="5.22878">
        <ele>252.9</ele>
        <time>2010-10-17T07:11:40Z</time>
      </trkpt>
      <trkpt lat="45.11884" lon="5.22874">
        <ele>253.3</ele>
        <time>2010-10-17T07:11:42Z</time>
      </trkpt>
      <trkpt lat="45.11875" lon="5.22869">
        <ele>252.9</ele>
        <time>2010-10-17T07:11:44Z</time>
      </trkpt>
      <trkpt lat="45.11867" lon="5.22866">
        <ele>252.4</ele>
        <time>2010-10-17T07:11:46Z</time>
      </trkpt>
      <trkpt lat="45.1186" lon="5.2286">
        <ele>251.8</ele>
        <time>2010-10-17T07:11:48Z</time>
      </trkpt>
      <trkpt lat="45.11852" lon="5.22849">
        <ele>251.8</ele>
        <time>2010-10-17T07:11:50Z</time>
      </trkpt>
      <trkpt lat="45.11846" lon="5.22838">
        <ele>251.8</ele>
        <time>2010-10-17T07:11:52Z</time>
      </trkpt>
      <trkpt lat="45.11839" lon="5.22826">
        <ele>250.9</ele>
        <time>2010-10-17T07:11:54Z</time>
      </trkpt>
      <trkpt lat="45.1183" lon="5.22811">
        <ele>251</ele>
        <time>2010-10-17T07:11:56Z</time>
      </trkpt>
      <trkpt lat="45.11822" lon="5.22798">
        <ele>250.9</ele>
        <time>2010-10-17T07:11:58Z</time>
      </trkpt>
      <trkpt lat="45.11812" lon="5.22791">
        <ele>250.6</ele>
        <time>2010-10-17T07:12:00Z</time>
      </trkpt>
      <trkpt lat="45.11801" lon="5.22792">
        <ele>249.8</ele>
        <time>2010-10-17T07:12:02Z</time>
      </trkpt>
      <trkpt lat="45.1179" lon="5.22793">
        <ele>249.4</ele>
        <time>2010-10-17T07:12:04Z</time>
      </trkpt>
      <trkpt lat="45.11778" lon="5.22794">
        <ele>249.1</ele>
        <time>2010-10-17T07:12:06Z</time>
      </trkpt>
      <trkpt lat="45.1177" lon="5.22791">
        <ele>248.9</ele>
        <time>2010-10-17T07:12:08Z</time>
      </trkpt>
      <trkpt lat="45.11761" lon="5.2279">
        <ele>249</ele>
        <time>2010-10-17T07:12:10Z</time>
      </trkpt>
      <trkpt lat="45.11753" lon="5.22788">
        <ele>249.1</ele>
        <time>2010-10-17T07:12:12Z</time>
      </trkpt>
      <trkpt lat="45.11745" lon="5.22783">
        <ele>249.8</ele>
        <time>2010-10-17T07:12:14Z</time>
      </trkpt>
      <trkpt lat="45.11735" lon="5.22778">
        <ele>249.8</ele>
        <time>2010-10-17T07:12:16Z</time>
      </trkpt>
      <trkpt lat="45.11725" lon="5.22773">
        <ele>249.6</ele>
        <time>2010-10-17T07:12:18Z</time>
      </trkpt>
      <trkpt lat="45.11718" lon="5.22766">
        <ele>249.6</ele>
        <time>2010-10-17T07:12:20Z</time>
      </trkpt>
      <trkpt lat="45.11712" lon="5.22759">
        <ele>249.6</ele>
        <time>2010-10-17T07:12:22Z</time>
      </trkpt>
      <trkpt lat="45.11705" lon="5.22752">
        <ele>249.3</ele>
        <time>2010-10-17T07:12:24Z</time>
      </trkpt>
      <trkpt lat="45.11699" lon="5.22742">
        <ele>249.3</ele>
        <time>2010-10-17T07:12:26Z</time>
      </trkpt>
      <trkpt lat="45.11695" lon="5.22734">
        <ele>249.6</ele>
        <time>2010-10-17T07:12:28Z</time>
      </trkpt>
      <trkpt lat="45.11691" lon="5.22726">
        <ele>250</ele>
        <time>2010-10-17T07:12:30Z</time>
      </trkpt>
      <trkpt lat="45.11684" lon="5.2272">
        <ele>249.6</ele>
        <time>2010-10-17T07:12:32Z</time>
      </trkpt>
      <trkpt lat="45.11679" lon="5.22713">
        <ele>248.9</ele>
        <time>2010-10-17T07:12:34Z</time>
      </trkpt>
      <trkpt lat="45.11673" lon="5.22707">
        <ele>248.1</ele>
        <time>2010-10-17T07:12:36Z</time>
      </trkpt>
      <trkpt lat="45.11664" lon="5.22699">
        <ele>247.8</ele>
        <time>2010-10-17T07:12:38Z</time>
      </trkpt>
      <trkpt lat="45.11656" lon="5.22694">
        <ele>247.4</ele>
        <time>2010-10-17T07:12:40Z</time>
      </trkpt>
      <trkpt lat="45.11648" lon="5.22689">
        <ele>246.8</ele>
        <time>2010-10-17T07:12:42Z</time>
      </trkpt>
      <trkpt lat="45.11638" lon="5.22683">
        <ele>246.1</ele>
        <time>2010-10-17T07:12:44Z</time>
      </trkpt>
      <trkpt lat="45.11631" lon="5.22677">
        <ele>245.5</ele>
        <time>2010-10-17T07:12:46Z</time>
      </trkpt>
      <trkpt lat="45.11623" lon="5.22669">
        <ele>244.6</ele>
        <time>2010-10-17T07:12:48Z</time>
      </trkpt>
      <trkpt lat="45.11616" lon="5.2266">
        <ele>241.8</ele>
        <time>2010-10-17T07:12:50Z</time>
      </trkpt>
      <trkpt lat="45.11611" lon="5.22653">
        <ele>240.1</ele>
        <time>2010-10-17T07:12:52Z</time>
      </trkpt>
      <trkpt lat="45.11606" lon="5.22646">
        <ele>238.9</ele>
        <time>2010-10-17T07:12:54Z</time>
      </trkpt>
      <trkpt lat="45.11604" lon="5.22631">
        <ele>238.8</ele>
        <time>2010-10-17T07:12:56Z</time>
      </trkpt>
      <trkpt lat="45.11604" lon="5.22613">
        <ele>238.2</ele>
        <time>2010-10-17T07:12:58Z</time>
      </trkpt>
      <trkpt lat="45.11604" lon="5.22601">
        <ele>237.8</ele>
        <time>2010-10-17T07:13:00Z</time>
      </trkpt>
      <trkpt lat="45.11608" lon="5.22591">
        <ele>237.7</ele>
        <time>2010-10-17T07:13:02Z</time>
      </trkpt>
      <trkpt lat="45.11612" lon="5.22583">
        <ele>237.7</ele>
        <time>2010-10-17T07:13:04Z</time>
      </trkpt>
      <trkpt lat="45.11614" lon="5.22575">
        <ele>237.6</ele>
        <time>2010-10-17T07:13:06Z</time>
      </trkpt>
      <trkpt lat="45.11612" lon="5.22567">
        <ele>237.3</ele>
        <time>2010-10-17T07:13:08Z</time>
      </trkpt>
      <trkpt lat="45.1161" lon="5.22561">
        <ele>236.3</ele>
        <time>2010-10-17T07:13:10Z</time>
      </trkpt>
      <trkpt lat="45.11605" lon="5.22555">
        <ele>235.5</ele>
        <time>2010-10-17T07:13:12Z</time>
      </trkpt>
      <trkpt lat="45.116" lon="5.22548">
        <ele>234.9</ele>
        <time>2010-10-17T07:13:14Z</time>
      </trkpt>
      <trkpt lat="45.11598" lon="5.22543">
        <ele>234.6</ele>
        <time>2010-10-17T07:13:16Z</time>
      </trkpt>
      <trkpt lat="45.11595" lon="5.22536">
        <ele>234.8</ele>
        <time>2010-10-17T07:13:18Z</time>
      </trkpt>
      <trkpt lat="45.1159" lon="5.22527">
        <ele>234.6</ele>
        <time>2010-10-17T07:13:20Z</time>
      </trkpt>
      <trkpt lat="45.11591" lon="5.22523">
        <ele>234.5</ele>
        <time>2010-10-17T07:13:23Z</time>
      </trkpt>
      <trkpt lat="45.11593" lon="5.22524">
        <ele>234.5</ele>
        <time>2010-10-17T07:13:25Z</time>
      </trkpt>
      <trkpt lat="45.11597" lon="5.22524">
        <ele>234</ele>
        <time>2010-10-17T07:13:27Z</time>
      </trkpt>
      <trkpt lat="45.11606" lon="5.2252">
        <ele>233.8</ele>
        <time>2010-10-17T07:13:29Z</time>
      </trkpt>
      <trkpt lat="45.11617" lon="5.22514">
        <ele>232.8</ele>
        <time>2010-10-17T07:13:31Z</time>
      </trkpt>
      <trkpt lat="45.11626" lon="5.22507">
        <ele>232.4</ele>
        <time>2010-10-17T07:13:33Z</time>
      </trkpt>
      <trkpt lat="45.1163" lon="5.22498">
        <ele>232.7</ele>
        <time>2010-10-17T07:13:35Z</time>
      </trkpt>
      <trkpt lat="45.11632" lon="5.22488">
        <ele>232.7</ele>
        <time>2010-10-17T07:13:37Z</time>
      </trkpt>
      <trkpt lat="45.11635" lon="5.22479">
        <ele>232.6</ele>
        <time>2010-10-17T07:13:39Z</time>
      </trkpt>
      <trkpt lat="45.11636" lon="5.2247">
        <ele>232.5</ele>
        <time>2010-10-17T07:13:41Z</time>
      </trkpt>
      <trkpt lat="45.11638" lon="5.2246">
        <ele>232.3</ele>
        <time>2010-10-17T07:13:43Z</time>
      </trkpt>
      <trkpt lat="45.1164" lon="5.22448">
        <ele>234</ele>
        <time>2010-10-17T07:13:45Z</time>
      </trkpt>
      <trkpt lat="45.1164" lon="5.22438">
        <ele>234.6</ele>
        <time>2010-10-17T07:13:47Z</time>
      </trkpt>
      <trkpt lat="45.1164" lon="5.2243">
        <ele>235.3</ele>
        <time>2010-10-17T07:13:49Z</time>
      </trkpt>
      <trkpt lat="45.11642" lon="5.22422">
        <ele>235.3</ele>
        <time>2010-10-17T07:13:51Z</time>
      </trkpt>
      <trkpt lat="45.11644" lon="5.22415">
        <ele>234.9</ele>
        <time>2010-10-17T07:13:53Z</time>
      </trkpt>
      <trkpt lat="45.11647" lon="5.22407">
        <ele>234.6</ele>
        <time>2010-10-17T07:13:55Z</time>
      </trkpt>
      <trkpt lat="45.11649" lon="5.224">
        <ele>234.6</ele>
        <time>2010-10-17T07:13:57Z</time>
      </trkpt>
      <trkpt lat="45.11652" lon="5.22394">
        <ele>235.1</ele>
        <time>2010-10-17T07:13:59Z</time>
      </trkpt>
      <trkpt lat="45.11655" lon="5.22388">
        <ele>235.4</ele>
        <time>2010-10-17T07:14:01Z</time>
      </trkpt>
      <trkpt lat="45.11659" lon="5.22381">
        <ele>235.6</ele>
        <time>2010-10-17T07:14:03Z</time>
      </trkpt>
      <trkpt lat="45.11662" lon="5.22375">
        <ele>234.9</ele>
        <time>2010-10-17T07:14:05Z</time>
      </trkpt>
      <trkpt lat="45.11668" lon="5.22368">
        <ele>235.8</ele>
        <time>2010-10-17T07:14:07Z</time>
      </trkpt>
      <trkpt lat="45.11673" lon="5.22361">
        <ele>236.1</ele>
        <time>2010-10-17T07:14:09Z</time>
      </trkpt>
      <trkpt lat="45.11676" lon="5.22354">
        <ele>236.5</ele>
        <time>2010-10-17T07:14:11Z</time>
      </trkpt>
      <trkpt lat="45.11678" lon="5.22348">
        <ele>236.7</ele>
        <time>2010-10-17T07:14:13Z</time>
      </trkpt>
      <trkpt lat="45.11679" lon="5.22342">
        <ele>236.9</ele>
        <time>2010-10-17T07:14:15Z</time>
      </trkpt>
      <trkpt lat="45.11678" lon="5.22334">
        <ele>235.4</ele>
        <time>2010-10-17T07:14:17Z</time>
      </trkpt>
      <trkpt lat="45.11676" lon="5.22326">
        <ele>234</ele>
        <time>2010-10-17T07:14:19Z</time>
      </trkpt>
      <trkpt lat="45.11675" lon="5.22321">
        <ele>233.7</ele>
        <time>2010-10-17T07:14:21Z</time>
      </trkpt>
      <trkpt lat="45.11672" lon="5.22317">
        <ele>233.9</ele>
        <time>2010-10-17T07:14:23Z</time>
      </trkpt>
      <trkpt lat="45.11668" lon="5.22312">
        <ele>234.4</ele>
        <time>2010-10-17T07:14:25Z</time>
      </trkpt>
      <trkpt lat="45.11664" lon="5.22308">
        <ele>235.4</ele>
        <time>2010-10-17T07:14:27Z</time>
      </trkpt>
      <trkpt lat="45.1166" lon="5.22304">
        <ele>235.1</ele>
        <time>2010-10-17T07:14:29Z</time>
      </trkpt>
      <trkpt lat="45.11655" lon="5.22299">
        <ele>235.5</ele>
        <time>2010-10-17T07:14:31Z</time>
      </trkpt>
      <trkpt lat="45.1165" lon="5.22294">
        <ele>235.2</ele>
        <time>2010-10-17T07:14:33Z</time>
      </trkpt>
      <trkpt lat="45.11645" lon="5.2229">
        <ele>235.4</ele>
        <time>2010-10-17T07:14:35Z</time>
      </trkpt>
      <trkpt lat="45.11639" lon="5.22288">
        <ele>235.2</ele>
        <time>2010-10-17T07:14:37Z</time>
      </trkpt>
      <trkpt lat="45.11635" lon="5.22283">
        <ele>234.9</ele>
        <time>2010-10-17T07:14:39Z</time>
      </trkpt>
      <trkpt lat="45.11628" lon="5.22279">
        <ele>234.2</ele>
        <time>2010-10-17T07:14:41Z</time>
      </trkpt>
      <trkpt lat="45.11623" lon="5.22273">
        <ele>234.9</ele>
        <time>2010-10-17T07:14:43Z</time>
      </trkpt>
      <trkpt lat="45.11618" lon="5.22267">
        <ele>234.8</ele>
        <time>2010-10-17T07:14:45Z</time>
      </trkpt>
      <trkpt lat="45.11611" lon="5.22259">
        <ele>236.4</ele>
        <time>2010-10-17T07:14:47Z</time>
      </trkpt>
      <trkpt lat="45.11606" lon="5.22253">
        <ele>237.2</ele>
        <time>2010-10-17T07:14:49Z</time>
      </trkpt>
      <trkpt lat="45.116" lon="5.22247">
        <ele>237.9</ele>
        <time>2010-10-17T07:14:51Z</time>
      </trkpt>
      <trkpt lat="45.11593" lon="5.22239">
        <ele>239.4</ele>
        <time>2010-10-17T07:14:53Z</time>
      </trkpt>
      <trkpt lat="45.11588" lon="5.22234">
        <ele>240.5</ele>
        <time>2010-10-17T07:14:55Z</time>
      </trkpt>
      <trkpt lat="45.11584" lon="5.22228">
        <ele>240.9</ele>
        <time>2010-10-17T07:14:57Z</time>
      </trkpt>
      <trkpt lat="45.11579" lon="5.22223">
        <ele>241.4</ele>
        <time>2010-10-17T07:14:59Z</time>
      </trkpt>
      <trkpt lat="45.1158" lon="5.22217">
        <ele>241</ele>
        <time>2010-10-17T07:15:01Z</time>
      </trkpt>
      <trkpt lat="45.11582" lon="5.22211">
        <ele>239.9</ele>
        <time>2010-10-17T07:15:03Z</time>
      </trkpt>
      <trkpt lat="45.11584" lon="5.22208">
        <ele>240.3</ele>
        <time>2010-10-17T07:15:05Z</time>
      </trkpt>
      <trkpt lat="45.11587" lon="5.22204">
        <ele>240.5</ele>
        <time>2010-10-17T07:15:07Z</time>
      </trkpt>
      <trkpt lat="45.11589" lon="5.22201">
        <ele>240.6</ele>
        <time>2010-10-17T07:15:09Z</time>
      </trkpt>
      <trkpt lat="45.11591" lon="5.22194">
        <ele>240.7</ele>
        <time>2010-10-17T07:15:11Z</time>
      </trkpt>
      <trkpt lat="45.11593" lon="5.22187">
        <ele>241.1</ele>
        <time>2010-10-17T07:15:13Z</time>
      </trkpt>
      <trkpt lat="45.11595" lon="5.2218">
        <ele>242.3</ele>
        <time>2010-10-17T07:15:15Z</time>
      </trkpt>
      <trkpt lat="45.11597" lon="5.22173">
        <ele>243.1</ele>
        <time>2010-10-17T07:15:17Z</time>
      </trkpt>
      <trkpt lat="45.11598" lon="5.22166">
        <ele>244.8</ele>
        <time>2010-10-17T07:15:19Z</time>
      </trkpt>
      <trkpt lat="45.116" lon="5.22159">
        <ele>246.8</ele>
        <time>2010-10-17T07:15:21Z</time>
      </trkpt>
      <trkpt lat="45.11602" lon="5.22151">
        <ele>248.4</ele>
        <time>2010-10-17T07:15:23Z</time>
      </trkpt>
      <trkpt lat="45.11603" lon="5.22143">
        <ele>248.8</ele>
        <time>2010-10-17T07:15:25Z</time>
      </trkpt>
      <trkpt lat="45.11604" lon="5.22136">
        <ele>248.3</ele>
        <time>2010-10-17T07:15:27Z</time>
      </trkpt>
      <trkpt lat="45.11606" lon="5.22129">
        <ele>248.4</ele>
        <time>2010-10-17T07:15:29Z</time>
      </trkpt>
      <trkpt lat="45.11608" lon="5.22121">
        <ele>249.3</ele>
        <time>2010-10-17T07:15:31Z</time>
      </trkpt>
      <trkpt lat="45.1161" lon="5.22112">
        <ele>250.4</ele>
        <time>2010-10-17T07:15:33Z</time>
      </trkpt>
      <trkpt lat="45.11611" lon="5.22104">
        <ele>250.9</ele>
        <time>2010-10-17T07:15:35Z</time>
      </trkpt>
      <trkpt lat="45.11613" lon="5.22096">
        <ele>251.4</ele>
        <time>2010-10-17T07:15:37Z</time>
      </trkpt>
      <trkpt lat="45.11616" lon="5.22088">
        <ele>251.9</ele>
        <time>2010-10-17T07:15:39Z</time>
      </trkpt>
      <trkpt lat="45.11619" lon="5.22081">
        <ele>251.3</ele>
        <time>2010-10-17T07:15:41Z</time>
      </trkpt>
      <trkpt lat="45.11622" lon="5.22075">
        <ele>251.3</ele>
        <time>2010-10-17T07:15:43Z</time>
      </trkpt>
      <trkpt lat="45.11625" lon="5.22073">
        <ele>251.4</ele>
        <time>2010-10-17T07:15:45Z</time>
      </trkpt>
      <trkpt lat="45.11627" lon="5.2207">
        <ele>252.3</ele>
        <time>2010-10-17T07:15:47Z</time>
      </trkpt>
      <trkpt lat="45.11628" lon="5.22066">
        <ele>252.3</ele>
        <time>2010-10-17T07:15:49Z</time>
      </trkpt>
      <trkpt lat="45.1163" lon="5.22061">
        <ele>252.3</ele>
        <time>2010-10-17T07:15:51Z</time>
      </trkpt>
      <trkpt lat="45.11629" lon="5.22055">
        <ele>252.1</ele>
        <time>2010-10-17T07:15:53Z</time>
      </trkpt>
      <trkpt lat="45.11626" lon="5.22046">
        <ele>251.6</ele>
        <time>2010-10-17T07:15:55Z</time>
      </trkpt>
      <trkpt lat="45.1162" lon="5.22038">
        <ele>251.3</ele>
        <time>2010-10-17T07:15:57Z</time>
      </trkpt>
      <trkpt lat="45.11614" lon="5.2203">
        <ele>251.1</ele>
        <time>2010-10-17T07:15:59Z</time>
      </trkpt>
      <trkpt lat="45.11607" lon="5.22023">
        <ele>250.8</ele>
        <time>2010-10-17T07:16:01Z</time>
      </trkpt>
      <trkpt lat="45.116" lon="5.22014">
        <ele>251.3</ele>
        <time>2010-10-17T07:16:03Z</time>
      </trkpt>
      <trkpt lat="45.11593" lon="5.22006">
        <ele>251.5</ele>
        <time>2010-10-17T07:16:05Z</time>
      </trkpt>
      <trkpt lat="45.11586" lon="5.21999">
        <ele>251.5</ele>
        <time>2010-10-17T07:16:07Z</time>
      </trkpt>
      <trkpt lat="45.11581" lon="5.21991">
        <ele>251</ele>
        <time>2010-10-17T07:16:09Z</time>
      </trkpt>
      <trkpt lat="45.11576" lon="5.21982">
        <ele>249.4</ele>
        <time>2010-10-17T07:16:11Z</time>
      </trkpt>
      <trkpt lat="45.11574" lon="5.21974">
        <ele>248.4</ele>
        <time>2010-10-17T07:16:13Z</time>
      </trkpt>
      <trkpt lat="45.11577" lon="5.21967">
        <ele>247</ele>
        <time>2010-10-17T07:16:15Z</time>
      </trkpt>
      <trkpt lat="45.1158" lon="5.21959">
        <ele>245.1</ele>
        <time>2010-10-17T07:16:17Z</time>
      </trkpt>
      <trkpt lat="45.11581" lon="5.21952">
        <ele>244.1</ele>
        <time>2010-10-17T07:16:19Z</time>
      </trkpt>
      <trkpt lat="45.11582" lon="5.21946">
        <ele>244.1</ele>
        <time>2010-10-17T07:16:21Z</time>
      </trkpt>
      <trkpt lat="45.11582" lon="5.21942">
        <ele>243.8</ele>
        <time>2010-10-17T07:16:23Z</time>
      </trkpt>
      <trkpt lat="45.1158" lon="5.21939">
        <ele>243.4</ele>
        <time>2010-10-17T07:16:25Z</time>
      </trkpt>
      <trkpt lat="45.11579" lon="5.21938">
        <ele>242.9</ele>
        <time>2010-10-17T07:16:28Z</time>
      </trkpt>
      <trkpt lat="45.11579" lon="5.21938">
        <ele>242.2</ele>
        <time>2010-10-17T07:16:33Z</time>
      </trkpt>
      <trkpt lat="45.11578" lon="5.21938">
        <ele>242.2</ele>
        <time>2010-10-17T07:16:41Z</time>
      </trkpt>
      <trkpt lat="45.11578" lon="5.21935">
        <ele>242.5</ele>
        <time>2010-10-17T07:16:48Z</time>
      </trkpt>
      <trkpt lat="45.11578" lon="5.21932">
        <ele>242.4</ele>
        <time>2010-10-17T07:16:50Z</time>
      </trkpt>
      <trkpt lat="45.11578" lon="5.21926">
        <ele>241.8</ele>
        <time>2010-10-17T07:16:52Z</time>
      </trkpt>
      <trkpt lat="45.11578" lon="5.21919">
        <ele>241.3</ele>
        <time>2010-10-17T07:16:54Z</time>
      </trkpt>
      <trkpt lat="45.11579" lon="5.21909">
        <ele>242.3</ele>
        <time>2010-10-17T07:16:56Z</time>
      </trkpt>
      <trkpt lat="45.11579" lon="5.21899">
        <ele>243</ele>
        <time>2010-10-17T07:16:58Z</time>
      </trkpt>
      <trkpt lat="45.11578" lon="5.21892">
        <ele>243.4</ele>
        <time>2010-10-17T07:17:00Z</time>
      </trkpt>
      <trkpt lat="45.11578" lon="5.21886">
        <ele>243.7</ele>
        <time>2010-10-17T07:17:02Z</time>
      </trkpt>
      <trkpt lat="45.11579" lon="5.21881">
        <ele>243.8</ele>
        <time>2010-10-17T07:17:04Z</time>
      </trkpt>
      <trkpt lat="45.11579" lon="5.21875">
        <ele>243.6</ele>
        <time>2010-10-17T07:17:06Z</time>
      </trkpt>
      <trkpt lat="45.11578" lon="5.21868">
        <ele>243.3</ele>
        <time>2010-10-17T07:17:08Z</time>
      </trkpt>
      <trkpt lat="45.11577" lon="5.2186">
        <ele>243.8</ele>
        <time>2010-10-17T07:17:10Z</time>
      </trkpt>
      <trkpt lat="45.11576" lon="5.21851">
        <ele>243.3</ele>
        <time>2010-10-17T07:17:12Z</time>
      </trkpt>
      <trkpt lat="45.11574" lon="5.2184">
        <ele>243.4</ele>
        <time>2010-10-17T07:17:14Z</time>
      </trkpt>
      <trkpt lat="45.11572" lon="5.21828">
        <ele>243</ele>
        <time>2010-10-17T07:17:16Z</time>
      </trkpt>
      <trkpt lat="45.11572" lon="5.21816">
        <ele>242.6</ele>
        <time>2010-10-17T07:17:18Z</time>
      </trkpt>
      <trkpt lat="45.11576" lon="5.21807">
        <ele>242.3</ele>
        <time>2010-10-17T07:17:20Z</time>
      </trkpt>
      <trkpt lat="45.11581" lon="5.21799">
        <ele>242.6</ele>
        <time>2010-10-17T07:17:22Z</time>
      </trkpt>
      <trkpt lat="45.11586" lon="5.21793">
        <ele>242.5</ele>
        <time>2010-10-17T07:17:24Z</time>
      </trkpt>
      <trkpt lat="45.11592" lon="5.21787">
        <ele>242.6</ele>
        <time>2010-10-17T07:17:26Z</time>
      </trkpt>
      <trkpt lat="45.11596" lon="5.21781">
        <ele>242.6</ele>
        <time>2010-10-17T07:17:28Z</time>
      </trkpt>
      <trkpt lat="45.11599" lon="5.21777">
        <ele>242.8</ele>
        <time>2010-10-17T07:17:30Z</time>
      </trkpt>
      <trkpt lat="45.11602" lon="5.21773">
        <ele>242.7</ele>
        <time>2010-10-17T07:17:32Z</time>
      </trkpt>
      <trkpt lat="45.11604" lon="5.2177">
        <ele>242.6</ele>
        <time>2010-10-17T07:17:34Z</time>
      </trkpt>
      <trkpt lat="45.11605" lon="5.21768">
        <ele>242.6</ele>
        <time>2010-10-17T07:17:36Z</time>
      </trkpt>
      <trkpt lat="45.11602" lon="5.21766">
        <ele>242.6</ele>
        <time>2010-10-17T07:17:38Z</time>
      </trkpt>
      <trkpt lat="45.11596" lon="5.21767">
        <ele>241.9</ele>
        <time>2010-10-17T07:17:40Z</time>
      </trkpt>
      <trkpt lat="45.11588" lon="5.21768">
        <ele>241.3</ele>
        <time>2010-10-17T07:17:42Z</time>
      </trkpt>
      <trkpt lat="45.11576" lon="5.21769">
        <ele>241.1</ele>
        <time>2010-10-17T07:17:44Z</time>
      </trkpt>
      <trkpt lat="45.11564" lon="5.21767">
        <ele>240.9</ele>
        <time>2010-10-17T07:17:46Z</time>
      </trkpt>
      <trkpt lat="45.11552" lon="5.21768">
        <ele>242.1</ele>
        <time>2010-10-17T07:17:48Z</time>
      </trkpt>
      <trkpt lat="45.11538" lon="5.21769">
        <ele>243.5</ele>
        <time>2010-10-17T07:17:50Z</time>
      </trkpt>
      <trkpt lat="45.11526" lon="5.21775">
        <ele>244.5</ele>
        <time>2010-10-17T07:17:52Z</time>
      </trkpt>
      <trkpt lat="45.11515" lon="5.21781">
        <ele>245.2</ele>
        <time>2010-10-17T07:17:54Z</time>
      </trkpt>
      <trkpt lat="45.11508" lon="5.2179">
        <ele>245</ele>
        <time>2010-10-17T07:17:56Z</time>
      </trkpt>
      <trkpt lat="45.11501" lon="5.218">
        <ele>244.9</ele>
        <time>2010-10-17T07:17:58Z</time>
      </trkpt>
      <trkpt lat="45.11491" lon="5.21808">
        <ele>242.8</ele>
        <time>2010-10-17T07:18:00Z</time>
      </trkpt>
      <trkpt lat="45.11483" lon="5.21813">
        <ele>240.8</ele>
        <time>2010-10-17T07:18:02Z</time>
      </trkpt>
      <trkpt lat="45.11478" lon="5.21812">
        <ele>239.6</ele>
        <time>2010-10-17T07:18:04Z</time>
      </trkpt>
      <trkpt lat="45.11474" lon="5.21809">
        <ele>239</ele>
        <time>2010-10-17T07:18:06Z</time>
      </trkpt>
      <trkpt lat="45.11469" lon="5.21805">
        <ele>238.6</ele>
        <time>2010-10-17T07:18:08Z</time>
      </trkpt>
      <trkpt lat="45.11461" lon="5.218">
        <ele>238.3</ele>
        <time>2010-10-17T07:18:10Z</time>
      </trkpt>
      <trkpt lat="45.11453" lon="5.21795">
        <ele>238.4</ele>
        <time>2010-10-17T07:18:12Z</time>
      </trkpt>
      <trkpt lat="45.11444" lon="5.21784">
        <ele>238.5</ele>
        <time>2010-10-17T07:18:14Z</time>
      </trkpt>
      <trkpt lat="45.11434" lon="5.2177">
        <ele>236.8</ele>
        <time>2010-10-17T07:18:16Z</time>
      </trkpt>
      <trkpt lat="45.11419" lon="5.21752">
        <ele>236.2</ele>
        <time>2010-10-17T07:18:18Z</time>
      </trkpt>
      <trkpt lat="45.11408" lon="5.21738">
        <ele>235.7</ele>
        <time>2010-10-17T07:18:20Z</time>
      </trkpt>
      <trkpt lat="45.11399" lon="5.21727">
        <ele>235.2</ele>
        <time>2010-10-17T07:18:22Z</time>
      </trkpt>
      <trkpt lat="45.11389" lon="5.21718">
        <ele>235.6</ele>
        <time>2010-10-17T07:18:24Z</time>
      </trkpt>
      <trkpt lat="45.11379" lon="5.21709">
        <ele>235.8</ele>
        <time>2010-10-17T07:18:26Z</time>
      </trkpt>
      <trkpt lat="45.11368" lon="5.21703">
        <ele>235.9</ele>
        <time>2010-10-17T07:18:28Z</time>
      </trkpt>
      <trkpt lat="45.11357" lon="5.21698">
        <ele>237.4</ele>
        <time>2010-10-17T07:18:30Z</time>
      </trkpt>
      <trkpt lat="45.11346" lon="5.21694">
        <ele>237.9</ele>
        <time>2010-10-17T07:18:32Z</time>
      </trkpt>
      <trkpt lat="45.11335" lon="5.21691">
        <ele>238.8</ele>
        <time>2010-10-17T07:18:34Z</time>
      </trkpt>
      <trkpt lat="45.11325" lon="5.2169">
        <ele>239.3</ele>
        <time>2010-10-17T07:18:36Z</time>
      </trkpt>
      <trkpt lat="45.11317" lon="5.21689">
        <ele>239.8</ele>
        <time>2010-10-17T07:18:38Z</time>
      </trkpt>
      <trkpt lat="45.11308" lon="5.21688">
        <ele>240.3</ele>
        <time>2010-10-17T07:18:40Z</time>
      </trkpt>
      <trkpt lat="45.11298" lon="5.21688">
        <ele>240.3</ele>
        <time>2010-10-17T07:18:42Z</time>
      </trkpt>
      <trkpt lat="45.1129" lon="5.21688">
        <ele>240.3</ele>
        <time>2010-10-17T07:18:44Z</time>
      </trkpt>
      <trkpt lat="45.1128" lon="5.21688">
        <ele>240.3</ele>
        <time>2010-10-17T07:18:46Z</time>
      </trkpt>
      <trkpt lat="45.11271" lon="5.21689">
        <ele>240.4</ele>
        <time>2010-10-17T07:18:48Z</time>
      </trkpt>
      <trkpt lat="45.11263" lon="5.2169">
        <ele>240.9</ele>
        <time>2010-10-17T07:18:50Z</time>
      </trkpt>
      <trkpt lat="45.11255" lon="5.2169">
        <ele>241.1</ele>
        <time>2010-10-17T07:18:52Z</time>
      </trkpt>
      <trkpt lat="45.11246" lon="5.21691">
        <ele>241.3</ele>
        <time>2010-10-17T07:18:54Z</time>
      </trkpt>
      <trkpt lat="45.11237" lon="5.21693">
        <ele>242.1</ele>
        <time>2010-10-17T07:18:56Z</time>
      </trkpt>
      <trkpt lat="45.11231" lon="5.21691">
        <ele>241.8</ele>
        <time>2010-10-17T07:18:58Z</time>
      </trkpt>
      <trkpt lat="45.11224" lon="5.21691">
        <ele>241.6</ele>
        <time>2010-10-17T07:19:00Z</time>
      </trkpt>
      <trkpt lat="45.11216" lon="5.2169">
        <ele>240.8</ele>
        <time>2010-10-17T07:19:02Z</time>
      </trkpt>
      <trkpt lat="45.11209" lon="5.21688">
        <ele>240.8</ele>
        <time>2010-10-17T07:19:04Z</time>
      </trkpt>
      <trkpt lat="45.11202" lon="5.21686">
        <ele>240.7</ele>
        <time>2010-10-17T07:19:06Z</time>
      </trkpt>
      <trkpt lat="45.11194" lon="5.21684">
        <ele>240.9</ele>
        <time>2010-10-17T07:19:08Z</time>
      </trkpt>
      <trkpt lat="45.11188" lon="5.21678">
        <ele>241.2</ele>
        <time>2010-10-17T07:19:10Z</time>
      </trkpt>
      <trkpt lat="45.11183" lon="5.21671">
        <ele>241.8</ele>
        <time>2010-10-17T07:19:12Z</time>
      </trkpt>
      <trkpt lat="45.11177" lon="5.21665">
        <ele>241.9</ele>
        <time>2010-10-17T07:19:14Z</time>
      </trkpt>
      <trkpt lat="45.1117" lon="5.21658">
        <ele>240.6</ele>
        <time>2010-10-17T07:19:16Z</time>
      </trkpt>
      <trkpt lat="45.11162" lon="5.2165">
        <ele>241.1</ele>
        <time>2010-10-17T07:19:18Z</time>
      </trkpt>
      <trkpt lat="45.11155" lon="5.2164">
        <ele>240.1</ele>
        <time>2010-10-17T07:19:20Z</time>
      </trkpt>
      <trkpt lat="45.11149" lon="5.21632">
        <ele>238.1</ele>
        <time>2010-10-17T07:19:22Z</time>
      </trkpt>
      <trkpt lat="45.11144" lon="5.21625">
        <ele>237.2</ele>
        <time>2010-10-17T07:19:24Z</time>
      </trkpt>
      <trkpt lat="45.11138" lon="5.21619">
        <ele>236.8</ele>
        <time>2010-10-17T07:19:26Z</time>
      </trkpt>
      <trkpt lat="45.11132" lon="5.21612">
        <ele>237.9</ele>
        <time>2010-10-17T07:19:28Z</time>
      </trkpt>
      <trkpt lat="45.11126" lon="5.21603">
        <ele>237.9</ele>
        <time>2010-10-17T07:19:30Z</time>
      </trkpt>
      <trkpt lat="45.11121" lon="5.21594">
        <ele>237.9</ele>
        <time>2010-10-17T07:19:32Z</time>
      </trkpt>
      <trkpt lat="45.11115" lon="5.21584">
        <ele>239.1</ele>
        <time>2010-10-17T07:19:34Z</time>
      </trkpt>
      <trkpt lat="45.1111" lon="5.21573">
        <ele>240.6</ele>
        <time>2010-10-17T07:19:36Z</time>
      </trkpt>
      <trkpt lat="45.11104" lon="5.21563">
        <ele>240.2</ele>
        <time>2010-10-17T07:19:38Z</time>
      </trkpt>
      <trkpt lat="45.11099" lon="5.21553">
        <ele>239.2</ele>
        <time>2010-10-17T07:19:40Z</time>
      </trkpt>
      <trkpt lat="45.11094" lon="5.21544">
        <ele>239.1</ele>
        <time>2010-10-17T07:19:42Z</time>
      </trkpt>
      <trkpt lat="45.11089" lon="5.21534">
        <ele>239.4</ele>
        <time>2010-10-17T07:19:44Z</time>
      </trkpt>
      <trkpt lat="45.11084" lon="5.21523">
        <ele>239.9</ele>
        <time>2010-10-17T07:19:46Z</time>
      </trkpt>
      <trkpt lat="45.11079" lon="5.21514">
        <ele>240.8</ele>
        <time>2010-10-17T07:19:48Z</time>
      </trkpt>
      <trkpt lat="45.11075" lon="5.21504">
        <ele>240.7</ele>
        <time>2010-10-17T07:19:50Z</time>
      </trkpt>
      <trkpt lat="45.1107" lon="5.21493">
        <ele>240.6</ele>
        <time>2010-10-17T07:19:52Z</time>
      </trkpt>
      <trkpt lat="45.1107" lon="5.21481">
        <ele>240.3</ele>
        <time>2010-10-17T07:19:54Z</time>
      </trkpt>
      <trkpt lat="45.11074" lon="5.2147">
        <ele>240.1</ele>
        <time>2010-10-17T07:19:56Z</time>
      </trkpt>
      <trkpt lat="45.11076" lon="5.21459">
        <ele>240.8</ele>
        <time>2010-10-17T07:19:58Z</time>
      </trkpt>
      <trkpt lat="45.11078" lon="5.21448">
        <ele>241.1</ele>
        <time>2010-10-17T07:20:00Z</time>
      </trkpt>
      <trkpt lat="45.1108" lon="5.21437">
        <ele>241.1</ele>
        <time>2010-10-17T07:20:02Z</time>
      </trkpt>
      <trkpt lat="45.11081" lon="5.21426">
        <ele>240.6</ele>
        <time>2010-10-17T07:20:04Z</time>
      </trkpt>
      <trkpt lat="45.11082" lon="5.21415">
        <ele>241.4</ele>
        <time>2010-10-17T07:20:06Z</time>
      </trkpt>
      <trkpt lat="45.11083" lon="5.21404">
        <ele>242.2</ele>
        <time>2010-10-17T07:20:08Z</time>
      </trkpt>
      <trkpt lat="45.11083" lon="5.21392">
        <ele>242.4</ele>
        <time>2010-10-17T07:20:10Z</time>
      </trkpt>
      <trkpt lat="45.11084" lon="5.21381">
        <ele>243.1</ele>
        <time>2010-10-17T07:20:12Z</time>
      </trkpt>
      <trkpt lat="45.11085" lon="5.2137">
        <ele>242.8</ele>
        <time>2010-10-17T07:20:14Z</time>
      </trkpt>
      <trkpt lat="45.11084" lon="5.2136">
        <ele>242.9</ele>
        <time>2010-10-17T07:20:16Z</time>
      </trkpt>
      <trkpt lat="45.11083" lon="5.2135">
        <ele>243.1</ele>
        <time>2010-10-17T07:20:18Z</time>
      </trkpt>
      <trkpt lat="45.11083" lon="5.21338">
        <ele>243.1</ele>
        <time>2010-10-17T07:20:20Z</time>
      </trkpt>
      <trkpt lat="45.11082" lon="5.21327">
        <ele>243</ele>
        <time>2010-10-17T07:20:22Z</time>
      </trkpt>
      <trkpt lat="45.11081" lon="5.21316">
        <ele>244</ele>
        <time>2010-10-17T07:20:24Z</time>
      </trkpt>
      <trkpt lat="45.1108" lon="5.21307">
        <ele>244.4</ele>
        <time>2010-10-17T07:20:26Z</time>
      </trkpt>
      <trkpt lat="45.1108" lon="5.21297">
        <ele>245.1</ele>
        <time>2010-10-17T07:20:28Z</time>
      </trkpt>
      <trkpt lat="45.11079" lon="5.21288">
        <ele>245.4</ele>
        <time>2010-10-17T07:20:30Z</time>
      </trkpt>
      <trkpt lat="45.11078" lon="5.21278">
        <ele>244.9</ele>
        <time>2010-10-17T07:20:32Z</time>
      </trkpt>
      <trkpt lat="45.11076" lon="5.21268">
        <ele>244</ele>
        <time>2010-10-17T07:20:34Z</time>
      </trkpt>
      <trkpt lat="45.11074" lon="5.21259">
        <ele>243.6</ele>
        <time>2010-10-17T07:20:36Z</time>
      </trkpt>
      <trkpt lat="45.11073" lon="5.21251">
        <ele>244</ele>
        <time>2010-10-17T07:20:38Z</time>
      </trkpt>
      <trkpt lat="45.11072" lon="5.21244">
        <ele>244.5</ele>
        <time>2010-10-17T07:20:40Z</time>
      </trkpt>
      <trkpt lat="45.1107" lon="5.21235">
        <ele>244.3</ele>
        <time>2010-10-17T07:20:42Z</time>
      </trkpt>
      <trkpt lat="45.11066" lon="5.21226">
        <ele>243.8</ele>
        <time>2010-10-17T07:20:44Z</time>
      </trkpt>
      <trkpt lat="45.11064" lon="5.21217">
        <ele>244</ele>
        <time>2010-10-17T07:20:46Z</time>
      </trkpt>
      <trkpt lat="45.11062" lon="5.2121">
        <ele>243.4</ele>
        <time>2010-10-17T07:20:48Z</time>
      </trkpt>
      <trkpt lat="45.1106" lon="5.21202">
        <ele>242.8</ele>
        <time>2010-10-17T07:20:50Z</time>
      </trkpt>
      <trkpt lat="45.11055" lon="5.21191">
        <ele>243.3</ele>
        <time>2010-10-17T07:20:52Z</time>
      </trkpt>
      <trkpt lat="45.11053" lon="5.21184">
        <ele>243.3</ele>
        <time>2010-10-17T07:20:54Z</time>
      </trkpt>
      <trkpt lat="45.11051" lon="5.21174">
        <ele>242.3</ele>
        <time>2010-10-17T07:20:56Z</time>
      </trkpt>
      <trkpt lat="45.11049" lon="5.21166">
        <ele>241.7</ele>
        <time>2010-10-17T07:20:58Z</time>
      </trkpt>
      <trkpt lat="45.11048" lon="5.21158">
        <ele>241.6</ele>
        <time>2010-10-17T07:21:00Z</time>
      </trkpt>
      <trkpt lat="45.11045" lon="5.2115">
        <ele>241.3</ele>
        <time>2010-10-17T07:21:02Z</time>
      </trkpt>
      <trkpt lat="45.11044" lon="5.21142">
        <ele>241.4</ele>
        <time>2010-10-17T07:21:04Z</time>
      </trkpt>
      <trkpt lat="45.11043" lon="5.21134">
        <ele>240.4</ele>
        <time>2010-10-17T07:21:06Z</time>
      </trkpt>
      <trkpt lat="45.11041" lon="5.21127">
        <ele>240.3</ele>
        <time>2010-10-17T07:21:08Z</time>
      </trkpt>
      <trkpt lat="45.1104" lon="5.21121">
        <ele>240.6</ele>
        <time>2010-10-17T07:21:10Z</time>
      </trkpt>
      <trkpt lat="45.11037" lon="5.21114">
        <ele>241.4</ele>
        <time>2010-10-17T07:21:12Z</time>
      </trkpt>
      <trkpt lat="45.11036" lon="5.21106">
        <ele>240.9</ele>
        <time>2010-10-17T07:21:14Z</time>
      </trkpt>
      <trkpt lat="45.11034" lon="5.21098">
        <ele>240.4</ele>
        <time>2010-10-17T07:21:16Z</time>
      </trkpt>
      <trkpt lat="45.11031" lon="5.21092">
        <ele>240.9</ele>
        <time>2010-10-17T07:21:18Z</time>
      </trkpt>
      <trkpt lat="45.11028" lon="5.21085">
        <ele>240.9</ele>
        <time>2010-10-17T07:21:20Z</time>
      </trkpt>
      <trkpt lat="45.11027" lon="5.21078">
        <ele>241.1</ele>
        <time>2010-10-17T07:21:22Z</time>
      </trkpt>
      <trkpt lat="45.11025" lon="5.21071">
        <ele>241.3</ele>
        <time>2010-10-17T07:21:24Z</time>
      </trkpt>
      <trkpt lat="45.11023" lon="5.21064">
        <ele>241.4</ele>
        <time>2010-10-17T07:21:26Z</time>
      </trkpt>
      <trkpt lat="45.11023" lon="5.21056">
        <ele>241.3</ele>
        <time>2010-10-17T07:21:28Z</time>
      </trkpt>
      <trkpt lat="45.11023" lon="5.21049">
        <ele>241.5</ele>
        <time>2010-10-17T07:21:30Z</time>
      </trkpt>
      <trkpt lat="45.11021" lon="5.21039">
        <ele>242.9</ele>
        <time>2010-10-17T07:21:32Z</time>
      </trkpt>
      <trkpt lat="45.11021" lon="5.2103">
        <ele>242.7</ele>
        <time>2010-10-17T07:21:34Z</time>
      </trkpt>
      <trkpt lat="45.1102" lon="5.21022">
        <ele>243.4</ele>
        <time>2010-10-17T07:21:36Z</time>
      </trkpt>
      <trkpt lat="45.11017" lon="5.21014">
        <ele>243.5</ele>
        <time>2010-10-17T07:21:38Z</time>
      </trkpt>
      <trkpt lat="45.11016" lon="5.21007">
        <ele>243.4</ele>
        <time>2010-10-17T07:21:40Z</time>
      </trkpt>
      <trkpt lat="45.11016" lon="5.20999">
        <ele>243.9</ele>
        <time>2010-10-17T07:21:42Z</time>
      </trkpt>
      <trkpt lat="45.11014" lon="5.20991">
        <ele>244.2</ele>
        <time>2010-10-17T07:21:44Z</time>
      </trkpt>
      <trkpt lat="45.11014" lon="5.20984">
        <ele>245</ele>
        <time>2010-10-17T07:21:46Z</time>
      </trkpt>
      <trkpt lat="45.11013" lon="5.20978">
        <ele>244.9</ele>
        <time>2010-10-17T07:21:48Z</time>
      </trkpt>
      <trkpt lat="45.1101" lon="5.20971">
        <ele>245.3</ele>
        <time>2010-10-17T07:21:50Z</time>
      </trkpt>
      <trkpt lat="45.11011" lon="5.20966">
        <ele>246.3</ele>
        <time>2010-10-17T07:21:52Z</time>
      </trkpt>
      <trkpt lat="45.11014" lon="5.20963">
        <ele>246.3</ele>
        <time>2010-10-17T07:21:54Z</time>
      </trkpt>
      <trkpt lat="45.11019" lon="5.20962">
        <ele>246.6</ele>
        <time>2010-10-17T07:21:56Z</time>
      </trkpt>
      <trkpt lat="45.11024" lon="5.2096">
        <ele>248</ele>
        <time>2010-10-17T07:21:58Z</time>
      </trkpt>
      <trkpt lat="45.11028" lon="5.20958">
        <ele>248.7</ele>
        <time>2010-10-17T07:22:00Z</time>
      </trkpt>
      <trkpt lat="45.11033" lon="5.20956">
        <ele>249.8</ele>
        <time>2010-10-17T07:22:02Z</time>
      </trkpt>
      <trkpt lat="45.11038" lon="5.20956">
        <ele>250.3</ele>
        <time>2010-10-17T07:22:04Z</time>
      </trkpt>
      <trkpt lat="45.11044" lon="5.20954">
        <ele>250.2</ele>
        <time>2010-10-17T07:22:06Z</time>
      </trkpt>
      <trkpt lat="45.11049" lon="5.20952">
        <ele>250.3</ele>
        <time>2010-10-17T07:22:08Z</time>
      </trkpt>
      <trkpt lat="45.11054" lon="5.20951">
        <ele>250.3</ele>
        <time>2010-10-17T07:22:10Z</time>
      </trkpt>
      <trkpt lat="45.11058" lon="5.2095">
        <ele>250.6</ele>
        <time>2010-10-17T07:22:12Z</time>
      </trkpt>
      <trkpt lat="45.11063" lon="5.20948">
        <ele>250</ele>
        <time>2010-10-17T07:22:14Z</time>
      </trkpt>
      <trkpt lat="45.11067" lon="5.20947">
        <ele>250.4</ele>
        <time>2010-10-17T07:22:16Z</time>
      </trkpt>
      <trkpt lat="45.11072" lon="5.20945">
        <ele>251.1</ele>
        <time>2010-10-17T07:22:18Z</time>
      </trkpt>
      <trkpt lat="45.11077" lon="5.20942">
        <ele>251.7</ele>
        <time>2010-10-17T07:22:20Z</time>
      </trkpt>
      <trkpt lat="45.11082" lon="5.20941">
        <ele>251.7</ele>
        <time>2010-10-17T07:22:22Z</time>
      </trkpt>
      <trkpt lat="45.11089" lon="5.20939">
        <ele>251.7</ele>
        <time>2010-10-17T07:22:24Z</time>
      </trkpt>
      <trkpt lat="45.11096" lon="5.20938">
        <ele>252</ele>
        <time>2010-10-17T07:22:26Z</time>
      </trkpt>
      <trkpt lat="45.11103" lon="5.20936">
        <ele>252.3</ele>
        <time>2010-10-17T07:22:28Z</time>
      </trkpt>
      <trkpt lat="45.11112" lon="5.20934">
        <ele>252</ele>
        <time>2010-10-17T07:22:30Z</time>
      </trkpt>
      <trkpt lat="45.1112" lon="5.20931">
        <ele>252.7</ele>
        <time>2010-10-17T07:22:32Z</time>
      </trkpt>
      <trkpt lat="45.11127" lon="5.20926">
        <ele>253.2</ele>
        <time>2010-10-17T07:22:34Z</time>
      </trkpt>
      <trkpt lat="45.11136" lon="5.20923">
        <ele>253.6</ele>
        <time>2010-10-17T07:22:36Z</time>
      </trkpt>
      <trkpt lat="45.11145" lon="5.20916">
        <ele>254.3</ele>
        <time>2010-10-17T07:22:38Z</time>
      </trkpt>
      <trkpt lat="45.11156" lon="5.20911">
        <ele>254.6</ele>
        <time>2010-10-17T07:22:40Z</time>
      </trkpt>
      <trkpt lat="45.11166" lon="5.20904">
        <ele>254</ele>
        <time>2010-10-17T07:22:42Z</time>
      </trkpt>
      <trkpt lat="45.11179" lon="5.209">
        <ele>253</ele>
        <time>2010-10-17T07:22:44Z</time>
      </trkpt>
      <trkpt lat="45.11191" lon="5.209">
        <ele>252.8</ele>
        <time>2010-10-17T07:22:46Z</time>
      </trkpt>
      <trkpt lat="45.11202" lon="5.20899">
        <ele>252.8</ele>
        <time>2010-10-17T07:22:48Z</time>
      </trkpt>
      <trkpt lat="45.11213" lon="5.20899">
        <ele>253.8</ele>
        <time>2010-10-17T07:22:50Z</time>
      </trkpt>
      <trkpt lat="45.11223" lon="5.20898">
        <ele>253.8</ele>
        <time>2010-10-17T07:22:52Z</time>
      </trkpt>
      <trkpt lat="45.11234" lon="5.209">
        <ele>254.1</ele>
        <time>2010-10-17T07:22:54Z</time>
      </trkpt>
      <trkpt lat="45.1124" lon="5.209">
        <ele>254.2</ele>
        <time>2010-10-17T07:22:56Z</time>
      </trkpt>
      <trkpt lat="45.11247" lon="5.20897">
        <ele>253.7</ele>
        <time>2010-10-17T07:22:58Z</time>
      </trkpt>
      <trkpt lat="45.11255" lon="5.20892">
        <ele>252.1</ele>
        <time>2010-10-17T07:23:00Z</time>
      </trkpt>
      <trkpt lat="45.11263" lon="5.20889">
        <ele>251.4</ele>
        <time>2010-10-17T07:23:02Z</time>
      </trkpt>
      <trkpt lat="45.11268" lon="5.20885">
        <ele>250.7</ele>
        <time>2010-10-17T07:23:04Z</time>
      </trkpt>
      <trkpt lat="45.11272" lon="5.20879">
        <ele>250</ele>
        <time>2010-10-17T07:23:06Z</time>
      </trkpt>
      <trkpt lat="45.11277" lon="5.20874">
        <ele>249</ele>
        <time>2010-10-17T07:23:08Z</time>
      </trkpt>
      <trkpt lat="45.11281" lon="5.20868">
        <ele>247.8</ele>
        <time>2010-10-17T07:23:10Z</time>
      </trkpt>
      <trkpt lat="45.11283" lon="5.20862">
        <ele>247.5</ele>
        <time>2010-10-17T07:23:12Z</time>
      </trkpt>
      <trkpt lat="45.11285" lon="5.2086">
        <ele>247.1</ele>
        <time>2010-10-17T07:23:14Z</time>
      </trkpt>
      <trkpt lat="45.11287" lon="5.20856">
        <ele>246.8</ele>
        <time>2010-10-17T07:23:16Z</time>
      </trkpt>
      <trkpt lat="45.11289" lon="5.20853">
        <ele>246.6</ele>
        <time>2010-10-17T07:23:18Z</time>
      </trkpt>
      <trkpt lat="45.11292" lon="5.20852">
        <ele>246.5</ele>
        <time>2010-10-17T07:23:20Z</time>
      </trkpt>
      <trkpt lat="45.11297" lon="5.20849">
        <ele>246.3</ele>
        <time>2010-10-17T07:23:22Z</time>
      </trkpt>
      <trkpt lat="45.11301" lon="5.20847">
        <ele>246.3</ele>
        <time>2010-10-17T07:23:24Z</time>
      </trkpt>
      <trkpt lat="45.11303" lon="5.20846">
        <ele>246.4</ele>
        <time>2010-10-17T07:23:26Z</time>
      </trkpt>
      <trkpt lat="45.11306" lon="5.20844">
        <ele>246.9</ele>
        <time>2010-10-17T07:23:28Z</time>
      </trkpt>
      <trkpt lat="45.1131" lon="5.20844">
        <ele>246.5</ele>
        <time>2010-10-17T07:23:30Z</time>
      </trkpt>
      <trkpt lat="45.11314" lon="5.20844">
        <ele>246.8</ele>
        <time>2010-10-17T07:23:32Z</time>
      </trkpt>
      <trkpt lat="45.11316" lon="5.20843">
        <ele>246.6</ele>
        <time>2010-10-17T07:23:34Z</time>
      </trkpt>
      <trkpt lat="45.11317" lon="5.20841">
        <ele>247.1</ele>
        <time>2010-10-17T07:23:36Z</time>
      </trkpt>
      <trkpt lat="45.11321" lon="5.20841">
        <ele>247.3</ele>
        <time>2010-10-17T07:23:38Z</time>
      </trkpt>
      <trkpt lat="45.11325" lon="5.20841">
        <ele>248.3</ele>
        <time>2010-10-17T07:23:40Z</time>
      </trkpt>
      <trkpt lat="45.11328" lon="5.20841">
        <ele>248.9</ele>
        <time>2010-10-17T07:23:44Z</time>
      </trkpt>
      <trkpt lat="45.11332" lon="5.20843">
        <ele>248.7</ele>
        <time>2010-10-17T07:23:46Z</time>
      </trkpt>
      <trkpt lat="45.11335" lon="5.20842">
        <ele>249.2</ele>
        <time>2010-10-17T07:23:49Z</time>
      </trkpt>
      <trkpt lat="45.11339" lon="5.20843">
        <ele>249.9</ele>
        <time>2010-10-17T07:23:52Z</time>
      </trkpt>
      <trkpt lat="45.11342" lon="5.20845">
        <ele>249.6</ele>
        <time>2010-10-17T07:23:54Z</time>
      </trkpt>
      <trkpt lat="45.11344" lon="5.20847">
        <ele>249.4</ele>
        <time>2010-10-17T07:23:56Z</time>
      </trkpt>
      <trkpt lat="45.11346" lon="5.20848">
        <ele>249.1</ele>
        <time>2010-10-17T07:23:58Z</time>
      </trkpt>
      <trkpt lat="45.11349" lon="5.20849">
        <ele>248.9</ele>
        <time>2010-10-17T07:24:00Z</time>
      </trkpt>
      <trkpt lat="45.11352" lon="5.2085">
        <ele>248.3</ele>
        <time>2010-10-17T07:24:02Z</time>
      </trkpt>
      <trkpt lat="45.11354" lon="5.20851">
        <ele>248.3</ele>
        <time>2010-10-17T07:24:04Z</time>
      </trkpt>
      <trkpt lat="45.11357" lon="5.20852">
        <ele>248.4</ele>
        <time>2010-10-17T07:24:06Z</time>
      </trkpt>
      <trkpt lat="45.1136" lon="5.20853">
        <ele>248</ele>
        <time>2010-10-17T07:24:08Z</time>
      </trkpt>
      <trkpt lat="45.11362" lon="5.20853">
        <ele>247.8</ele>
        <time>2010-10-17T07:24:10Z</time>
      </trkpt>
      <trkpt lat="45.11365" lon="5.20853">
        <ele>247.5</ele>
        <time>2010-10-17T07:24:12Z</time>
      </trkpt>
      <trkpt lat="45.11369" lon="5.20854">
        <ele>247.1</ele>
        <time>2010-10-17T07:24:16Z</time>
      </trkpt>
      <trkpt lat="45.11371" lon="5.20855">
        <ele>247.4</ele>
        <time>2010-10-17T07:24:18Z</time>
      </trkpt>
      <trkpt lat="45.11375" lon="5.20856">
        <ele>247.9</ele>
        <time>2010-10-17T07:24:21Z</time>
      </trkpt>
      <trkpt lat="45.11381" lon="5.20855">
        <ele>249</ele>
        <time>2010-10-17T07:24:23Z</time>
      </trkpt>
      <trkpt lat="45.11385" lon="5.20856">
        <ele>249.3</ele>
        <time>2010-10-17T07:24:25Z</time>
      </trkpt>
      <trkpt lat="45.1139" lon="5.20858">
        <ele>249.3</ele>
        <time>2010-10-17T07:24:27Z</time>
      </trkpt>
      <trkpt lat="45.11393" lon="5.20859">
        <ele>249.6</ele>
        <time>2010-10-17T07:24:30Z</time>
      </trkpt>
      <trkpt lat="45.11396" lon="5.20857">
        <ele>250.3</ele>
        <time>2010-10-17T07:24:32Z</time>
      </trkpt>
      <trkpt lat="45.11401" lon="5.20856">
        <ele>251.4</ele>
        <time>2010-10-17T07:24:34Z</time>
      </trkpt>
      <trkpt lat="45.11405" lon="5.20857">
        <ele>252.7</ele>
        <time>2010-10-17T07:24:37Z</time>
      </trkpt>
      <trkpt lat="45.11408" lon="5.20858">
        <ele>252.7</ele>
        <time>2010-10-17T07:24:41Z</time>
      </trkpt>
      <trkpt lat="45.11411" lon="5.20858">
        <ele>253.1</ele>
        <time>2010-10-17T07:24:44Z</time>
      </trkpt>
      <trkpt lat="45.11416" lon="5.20857">
        <ele>255</ele>
        <time>2010-10-17T07:24:48Z</time>
      </trkpt>
      <trkpt lat="45.11421" lon="5.20857">
        <ele>255.4</ele>
        <time>2010-10-17T07:24:51Z</time>
      </trkpt>
      <trkpt lat="45.11423" lon="5.20857">
        <ele>255.4</ele>
        <time>2010-10-17T07:24:53Z</time>
      </trkpt>
      <trkpt lat="45.11427" lon="5.20858">
        <ele>256.2</ele>
        <time>2010-10-17T07:24:56Z</time>
      </trkpt>
      <trkpt lat="45.11431" lon="5.20857">
        <ele>256.7</ele>
        <time>2010-10-17T07:24:59Z</time>
      </trkpt>
      <trkpt lat="45.11434" lon="5.20857">
        <ele>256.9</ele>
        <time>2010-10-17T07:25:02Z</time>
      </trkpt>
      <trkpt lat="45.11437" lon="5.20858">
        <ele>256.9</ele>
        <time>2010-10-17T07:25:04Z</time>
      </trkpt>
      <trkpt lat="45.1144" lon="5.20858">
        <ele>256.4</ele>
        <time>2010-10-17T07:25:06Z</time>
      </trkpt>
      <trkpt lat="45.11445" lon="5.20857">
        <ele>257.4</ele>
        <time>2010-10-17T07:25:08Z</time>
      </trkpt>
      <trkpt lat="45.11449" lon="5.20858">
        <ele>258</ele>
        <time>2010-10-17T07:25:10Z</time>
      </trkpt>
      <trkpt lat="45.11452" lon="5.20857">
        <ele>260</ele>
        <time>2010-10-17T07:25:13Z</time>
      </trkpt>
      <trkpt lat="45.11455" lon="5.20857">
        <ele>261</ele>
        <time>2010-10-17T07:25:17Z</time>
      </trkpt>
      <trkpt lat="45.11457" lon="5.20858">
        <ele>262</ele>
        <time>2010-10-17T07:25:20Z</time>
      </trkpt>
      <trkpt lat="45.11462" lon="5.20858">
        <ele>263.3</ele>
        <time>2010-10-17T07:25:23Z</time>
      </trkpt>
      <trkpt lat="45.11465" lon="5.20856">
        <ele>265.7</ele>
        <time>2010-10-17T07:25:26Z</time>
      </trkpt>
      <trkpt lat="45.11467" lon="5.20855">
        <ele>266.7</ele>
        <time>2010-10-17T07:25:28Z</time>
      </trkpt>
      <trkpt lat="45.1147" lon="5.20856">
        <ele>267.3</ele>
        <time>2010-10-17T07:25:30Z</time>
      </trkpt>
      <trkpt lat="45.11473" lon="5.20856">
        <ele>267.3</ele>
        <time>2010-10-17T07:25:33Z</time>
      </trkpt>
      <trkpt lat="45.11475" lon="5.20855">
        <ele>267.8</ele>
        <time>2010-10-17T07:25:35Z</time>
      </trkpt>
      <trkpt lat="45.11476" lon="5.20855">
        <ele>268.2</ele>
        <time>2010-10-17T07:25:39Z</time>
      </trkpt>
      <trkpt lat="45.11477" lon="5.20855">
        <ele>268</ele>
        <time>2010-10-17T07:25:43Z</time>
      </trkpt>
      <trkpt lat="45.11482" lon="5.20855">
        <ele>267.5</ele>
        <time>2010-10-17T07:25:48Z</time>
      </trkpt>
      <trkpt lat="45.11488" lon="5.20854">
        <ele>267.1</ele>
        <time>2010-10-17T07:25:50Z</time>
      </trkpt>
      <trkpt lat="45.11493" lon="5.20854">
        <ele>267.3</ele>
        <time>2010-10-17T07:25:52Z</time>
      </trkpt>
      <trkpt lat="45.11498" lon="5.20853">
        <ele>267.9</ele>
        <time>2010-10-17T07:25:54Z</time>
      </trkpt>
      <trkpt lat="45.11505" lon="5.20852">
        <ele>267.3</ele>
        <time>2010-10-17T07:25:56Z</time>
      </trkpt>
      <trkpt lat="45.1151" lon="5.2085">
        <ele>267.4</ele>
        <time>2010-10-17T07:25:58Z</time>
      </trkpt>
      <trkpt lat="45.11514" lon="5.20849">
        <ele>268</ele>
        <time>2010-10-17T07:26:00Z</time>
      </trkpt>
      <trkpt lat="45.11515" lon="5.20849">
        <ele>269.6</ele>
        <time>2010-10-17T07:26:03Z</time>
      </trkpt>
      <trkpt lat="45.11517" lon="5.2085">
        <ele>270.5</ele>
        <time>2010-10-17T07:26:08Z</time>
      </trkpt>
      <trkpt lat="45.11518" lon="5.2085">
        <ele>270.5</ele>
        <time>2010-10-17T07:26:39Z</time>
      </trkpt>
      <trkpt lat="45.11522" lon="5.20848">
        <ele>270.3</ele>
        <time>2010-10-17T07:26:41Z</time>
      </trkpt>
      <trkpt lat="45.11525" lon="5.20846">
        <ele>270.3</ele>
        <time>2010-10-17T07:26:43Z</time>
      </trkpt>
      <trkpt lat="45.11527" lon="5.20843">
        <ele>270.3</ele>
        <time>2010-10-17T07:26:45Z</time>
      </trkpt>
      <trkpt lat="45.1153" lon="5.20842">
        <ele>270.7</ele>
        <time>2010-10-17T07:26:47Z</time>
      </trkpt>
      <trkpt lat="45.11534" lon="5.2084">
        <ele>270.8</ele>
        <time>2010-10-17T07:26:49Z</time>
      </trkpt>
      <trkpt lat="45.11537" lon="5.20837">
        <ele>271.2</ele>
        <time>2010-10-17T07:26:51Z</time>
      </trkpt>
      <trkpt lat="45.11541" lon="5.20833">
        <ele>271.3</ele>
        <time>2010-10-17T07:26:53Z</time>
      </trkpt>
      <trkpt lat="45.11544" lon="5.2083">
        <ele>272</ele>
        <time>2010-10-17T07:26:55Z</time>
      </trkpt>
      <trkpt lat="45.11545" lon="5.20826">
        <ele>271.5</ele>
        <time>2010-10-17T07:26:57Z</time>
      </trkpt>
      <trkpt lat="45.11545" lon="5.2082">
        <ele>271.9</ele>
        <time>2010-10-17T07:26:59Z</time>
      </trkpt>
      <trkpt lat="45.11545" lon="5.20816">
        <ele>271.6</ele>
        <time>2010-10-17T07:27:01Z</time>
      </trkpt>
      <trkpt lat="45.11548" lon="5.20812">
        <ele>271.5</ele>
        <time>2010-10-17T07:27:03Z</time>
      </trkpt>
      <trkpt lat="45.11551" lon="5.20808">
        <ele>271.5</ele>
        <time>2010-10-17T07:27:05Z</time>
      </trkpt>
      <trkpt lat="45.11552" lon="5.20806">
        <ele>271.2</ele>
        <time>2010-10-17T07:27:07Z</time>
      </trkpt>
      <trkpt lat="45.11552" lon="5.20802">
        <ele>271.7</ele>
        <time>2010-10-17T07:27:09Z</time>
      </trkpt>
      <trkpt lat="45.11553" lon="5.20797">
        <ele>272.5</ele>
        <time>2010-10-17T07:27:11Z</time>
      </trkpt>
      <trkpt lat="45.11555" lon="5.20792">
        <ele>272.5</ele>
        <time>2010-10-17T07:27:13Z</time>
      </trkpt>
      <trkpt lat="45.11556" lon="5.20788">
        <ele>272.9</ele>
        <time>2010-10-17T07:27:15Z</time>
      </trkpt>
      <trkpt lat="45.11556" lon="5.20784">
        <ele>272.5</ele>
        <time>2010-10-17T07:27:17Z</time>
      </trkpt>
      <trkpt lat="45.11558" lon="5.2078">
        <ele>271.9</ele>
        <time>2010-10-17T07:27:19Z</time>
      </trkpt>
      <trkpt lat="45.1156" lon="5.20776">
        <ele>272.2</ele>
        <time>2010-10-17T07:27:22Z</time>
      </trkpt>
      <trkpt lat="45.11561" lon="5.20774">
        <ele>272.4</ele>
        <time>2010-10-17T07:27:25Z</time>
      </trkpt>
      <trkpt lat="45.11564" lon="5.20768">
        <ele>272.5</ele>
        <time>2010-10-17T07:27:28Z</time>
      </trkpt>
      <trkpt lat="45.11565" lon="5.2076">
        <ele>273</ele>
        <time>2010-10-17T07:27:30Z</time>
      </trkpt>
      <trkpt lat="45.11567" lon="5.20752">
        <ele>274.1</ele>
        <time>2010-10-17T07:27:32Z</time>
      </trkpt>
      <trkpt lat="45.11571" lon="5.20746">
        <ele>274.8</ele>
        <time>2010-10-17T07:27:34Z</time>
      </trkpt>
      <trkpt lat="45.11573" lon="5.20739">
        <ele>276.3</ele>
        <time>2010-10-17T07:27:36Z</time>
      </trkpt>
      <trkpt lat="45.11575" lon="5.20732">
        <ele>277.7</ele>
        <time>2010-10-17T07:27:38Z</time>
      </trkpt>
      <trkpt lat="45.11576" lon="5.20726">
        <ele>278.3</ele>
        <time>2010-10-17T07:27:40Z</time>
      </trkpt>
      <trkpt lat="45.11576" lon="5.20721">
        <ele>278.6</ele>
        <time>2010-10-17T07:27:42Z</time>
      </trkpt>
      <trkpt lat="45.11576" lon="5.20717">
        <ele>278.5</ele>
        <time>2010-10-17T07:27:44Z</time>
      </trkpt>
      <trkpt lat="45.11576" lon="5.20711">
        <ele>278.4</ele>
        <time>2010-10-17T07:27:46Z</time>
      </trkpt>
      <trkpt lat="45.11578" lon="5.20706">
        <ele>279.8</ele>
        <time>2010-10-17T07:27:48Z</time>
      </trkpt>
      <trkpt lat="45.11579" lon="5.20702">
        <ele>279.9</ele>
        <time>2010-10-17T07:27:50Z</time>
      </trkpt>
      <trkpt lat="45.1158" lon="5.20696">
        <ele>280.5</ele>
        <time>2010-10-17T07:27:52Z</time>
      </trkpt>
      <trkpt lat="45.11581" lon="5.20692">
        <ele>280.6</ele>
        <time>2010-10-17T07:27:54Z</time>
      </trkpt>
      <trkpt lat="45.11582" lon="5.20687">
        <ele>281.1</ele>
        <time>2010-10-17T07:27:56Z</time>
      </trkpt>
      <trkpt lat="45.11581" lon="5.20682">
        <ele>282.9</ele>
        <time>2010-10-17T07:27:58Z</time>
      </trkpt>
      <trkpt lat="45.1158" lon="5.20677">
        <ele>284</ele>
        <time>2010-10-17T07:28:00Z</time>
      </trkpt>
      <trkpt lat="45.11581" lon="5.20673">
        <ele>285</ele>
        <time>2010-10-17T07:28:02Z</time>
      </trkpt>
      <trkpt lat="45.11583" lon="5.2067">
        <ele>286</ele>
        <time>2010-10-17T07:28:05Z</time>
      </trkpt>
      <trkpt lat="45.11586" lon="5.2067">
        <ele>286</ele>
        <time>2010-10-17T07:28:07Z</time>
      </trkpt>
      <trkpt lat="45.11589" lon="5.2067">
        <ele>285.5</ele>
        <time>2010-10-17T07:28:09Z</time>
      </trkpt>
      <trkpt lat="45.11593" lon="5.2067">
        <ele>284.7</ele>
        <time>2010-10-17T07:28:12Z</time>
      </trkpt>
      <trkpt lat="45.11597" lon="5.20668">
        <ele>285.7</ele>
        <time>2010-10-17T07:28:15Z</time>
      </trkpt>
      <trkpt lat="45.116" lon="5.20667">
        <ele>286.3</ele>
        <time>2010-10-17T07:28:17Z</time>
      </trkpt>
      <trkpt lat="45.11603" lon="5.20666">
        <ele>286.4</ele>
        <time>2010-10-17T07:28:19Z</time>
      </trkpt>
      <trkpt lat="45.11607" lon="5.20665">
        <ele>286.8</ele>
        <time>2010-10-17T07:28:21Z</time>
      </trkpt>
      <trkpt lat="45.1161" lon="5.20664">
        <ele>287.4</ele>
        <time>2010-10-17T07:28:23Z</time>
      </trkpt>
      <trkpt lat="45.11614" lon="5.20665">
        <ele>287.4</ele>
        <time>2010-10-17T07:28:25Z</time>
      </trkpt>
      <trkpt lat="45.11616" lon="5.20665">
        <ele>287</ele>
        <time>2010-10-17T07:28:27Z</time>
      </trkpt>
      <trkpt lat="45.11622" lon="5.20665">
        <ele>286.9</ele>
        <time>2010-10-17T07:28:29Z</time>
      </trkpt>
      <trkpt lat="45.11625" lon="5.20665">
        <ele>285.7</ele>
        <time>2010-10-17T07:28:31Z</time>
      </trkpt>
      <trkpt lat="45.11627" lon="5.20664">
        <ele>284.8</ele>
        <time>2010-10-17T07:28:35Z</time>
      </trkpt>
      <trkpt lat="45.11629" lon="5.20661">
        <ele>285.5</ele>
        <time>2010-10-17T07:28:38Z</time>
      </trkpt>
      <trkpt lat="45.1163" lon="5.20657">
        <ele>286</ele>
        <time>2010-10-17T07:28:40Z</time>
      </trkpt>
      <trkpt lat="45.1163" lon="5.20654">
        <ele>286.5</ele>
        <time>2010-10-17T07:28:42Z</time>
      </trkpt>
      <trkpt lat="45.11631" lon="5.2065">
        <ele>286.4</ele>
        <time>2010-10-17T07:28:44Z</time>
      </trkpt>
      <trkpt lat="45.1163" lon="5.20646">
        <ele>285.9</ele>
        <time>2010-10-17T07:28:46Z</time>
      </trkpt>
      <trkpt lat="45.11633" lon="5.20642">
        <ele>286</ele>
        <time>2010-10-17T07:28:48Z</time>
      </trkpt>
      <trkpt lat="45.11634" lon="5.20639">
        <ele>285.3</ele>
        <time>2010-10-17T07:28:50Z</time>
      </trkpt>
      <trkpt lat="45.11637" lon="5.20634">
        <ele>284.1</ele>
        <time>2010-10-17T07:28:52Z</time>
      </trkpt>
      <trkpt lat="45.11638" lon="5.20629">
        <ele>284</ele>
        <time>2010-10-17T07:28:54Z</time>
      </trkpt>
      <trkpt lat="45.11639" lon="5.20624">
        <ele>283.5</ele>
        <time>2010-10-17T07:28:56Z</time>
      </trkpt>
      <trkpt lat="45.11638" lon="5.20621">
        <ele>283</ele>
        <time>2010-10-17T07:28:58Z</time>
      </trkpt>
      <trkpt lat="45.11638" lon="5.20618">
        <ele>283</ele>
        <time>2010-10-17T07:29:00Z</time>
      </trkpt>
      <trkpt lat="45.11637" lon="5.20613">
        <ele>283</ele>
        <time>2010-10-17T07:29:02Z</time>
      </trkpt>
      <trkpt lat="45.1164" lon="5.20608">
        <ele>283.5</ele>
        <time>2010-10-17T07:29:04Z</time>
      </trkpt>
      <trkpt lat="45.1164" lon="5.20603">
        <ele>283.8</ele>
        <time>2010-10-17T07:29:06Z</time>
      </trkpt>
      <trkpt lat="45.11641" lon="5.20597">
        <ele>284.8</ele>
        <time>2010-10-17T07:29:08Z</time>
      </trkpt>
      <trkpt lat="45.11644" lon="5.20591">
        <ele>286.9</ele>
        <time>2010-10-17T07:29:10Z</time>
      </trkpt>
      <trkpt lat="45.11645" lon="5.20587">
        <ele>287.2</ele>
        <time>2010-10-17T07:29:12Z</time>
      </trkpt>
      <trkpt lat="45.11644" lon="5.20582">
        <ele>287.7</ele>
        <time>2010-10-17T07:29:14Z</time>
      </trkpt>
      <trkpt lat="45.11644" lon="5.20577">
        <ele>288.8</ele>
        <time>2010-10-17T07:29:16Z</time>
      </trkpt>
      <trkpt lat="45.11645" lon="5.20571">
        <ele>289</ele>
        <time>2010-10-17T07:29:18Z</time>
      </trkpt>
      <trkpt lat="45.11643" lon="5.20566">
        <ele>290</ele>
        <time>2010-10-17T07:29:20Z</time>
      </trkpt>
      <trkpt lat="45.11643" lon="5.20559">
        <ele>291.5</ele>
        <time>2010-10-17T07:29:22Z</time>
      </trkpt>
      <trkpt lat="45.11645" lon="5.20553">
        <ele>291</ele>
        <time>2010-10-17T07:29:24Z</time>
      </trkpt>
      <trkpt lat="45.11645" lon="5.20549">
        <ele>290.8</ele>
        <time>2010-10-17T07:29:26Z</time>
      </trkpt>
      <trkpt lat="45.11646" lon="5.20545">
        <ele>290.7</ele>
        <time>2010-10-17T07:29:31Z</time>
      </trkpt>
      <trkpt lat="45.11646" lon="5.20538">
        <ele>290.8</ele>
        <time>2010-10-17T07:29:33Z</time>
      </trkpt>
      <trkpt lat="45.11648" lon="5.20534">
        <ele>290.4</ele>
        <time>2010-10-17T07:29:35Z</time>
      </trkpt>
      <trkpt lat="45.11649" lon="5.20529">
        <ele>289.7</ele>
        <time>2010-10-17T07:29:37Z</time>
      </trkpt>
      <trkpt lat="45.11651" lon="5.20524">
        <ele>289.5</ele>
        <time>2010-10-17T07:29:39Z</time>
      </trkpt>
      <trkpt lat="45.11652" lon="5.20519">
        <ele>289.7</ele>
        <time>2010-10-17T07:29:41Z</time>
      </trkpt>
      <trkpt lat="45.11654" lon="5.20514">
        <ele>289.4</ele>
        <time>2010-10-17T07:29:43Z</time>
      </trkpt>
      <trkpt lat="45.11655" lon="5.20508">
        <ele>289.6</ele>
        <time>2010-10-17T07:29:45Z</time>
      </trkpt>
      <trkpt lat="45.11655" lon="5.20502">
        <ele>289.5</ele>
        <time>2010-10-17T07:29:47Z</time>
      </trkpt>
      <trkpt lat="45.11657" lon="5.20497">
        <ele>289.5</ele>
        <time>2010-10-17T07:29:49Z</time>
      </trkpt>
      <trkpt lat="45.11658" lon="5.20492">
        <ele>289.5</ele>
        <time>2010-10-17T07:29:51Z</time>
      </trkpt>
      <trkpt lat="45.11659" lon="5.20488">
        <ele>289.8</ele>
        <time>2010-10-17T07:29:53Z</time>
      </trkpt>
      <trkpt lat="45.1166" lon="5.20483">
        <ele>290.8</ele>
        <time>2010-10-17T07:29:55Z</time>
      </trkpt>
      <trkpt lat="45.11661" lon="5.20478">
        <ele>290.7</ele>
        <time>2010-10-17T07:29:57Z</time>
      </trkpt>
      <trkpt lat="45.11661" lon="5.20473">
        <ele>290.3</ele>
        <time>2010-10-17T07:29:59Z</time>
      </trkpt>
      <trkpt lat="45.1166" lon="5.20466">
        <ele>290.1</ele>
        <time>2010-10-17T07:30:01Z</time>
      </trkpt>
      <trkpt lat="45.11661" lon="5.20461">
        <ele>290.9</ele>
        <time>2010-10-17T07:30:03Z</time>
      </trkpt>
      <trkpt lat="45.11663" lon="5.20456">
        <ele>291.1</ele>
        <time>2010-10-17T07:30:05Z</time>
      </trkpt>
      <trkpt lat="45.11663" lon="5.20451">
        <ele>291.1</ele>
        <time>2010-10-17T07:30:07Z</time>
      </trkpt>
      <trkpt lat="45.11663" lon="5.20446">
        <ele>291</ele>
        <time>2010-10-17T07:30:09Z</time>
      </trkpt>
      <trkpt lat="45.11664" lon="5.2044">
        <ele>291</ele>
        <time>2010-10-17T07:30:11Z</time>
      </trkpt>
      <trkpt lat="45.11664" lon="5.20435">
        <ele>291.8</ele>
        <time>2010-10-17T07:30:13Z</time>
      </trkpt>
      <trkpt lat="45.11666" lon="5.2043">
        <ele>292.1</ele>
        <time>2010-10-17T07:30:15Z</time>
      </trkpt>
      <trkpt lat="45.11667" lon="5.20424">
        <ele>292.5</ele>
        <time>2010-10-17T07:30:17Z</time>
      </trkpt>
      <trkpt lat="45.11669" lon="5.20419">
        <ele>292.7</ele>
        <time>2010-10-17T07:30:19Z</time>
      </trkpt>
      <trkpt lat="45.11671" lon="5.20414">
        <ele>292.4</ele>
        <time>2010-10-17T07:30:21Z</time>
      </trkpt>
      <trkpt lat="45.11674" lon="5.2041">
        <ele>292.5</ele>
        <time>2010-10-17T07:30:23Z</time>
      </trkpt>
      <trkpt lat="45.11677" lon="5.20406">
        <ele>292.9</ele>
        <time>2010-10-17T07:30:25Z</time>
      </trkpt>
      <trkpt lat="45.11682" lon="5.20405">
        <ele>293.8</ele>
        <time>2010-10-17T07:30:27Z</time>
      </trkpt>
      <trkpt lat="45.11685" lon="5.20403">
        <ele>294.7</ele>
        <time>2010-10-17T07:30:29Z</time>
      </trkpt>
      <trkpt lat="45.11688" lon="5.20401">
        <ele>295.9</ele>
        <time>2010-10-17T07:30:31Z</time>
      </trkpt>
      <trkpt lat="45.11691" lon="5.20401">
        <ele>296.3</ele>
        <time>2010-10-17T07:30:33Z</time>
      </trkpt>
      <trkpt lat="45.11695" lon="5.20404">
        <ele>297.5</ele>
        <time>2010-10-17T07:30:35Z</time>
      </trkpt>
      <trkpt lat="45.11698" lon="5.20406">
        <ele>298.4</ele>
        <time>2010-10-17T07:30:37Z</time>
      </trkpt>
      <trkpt lat="45.11699" lon="5.20409">
        <ele>298.5</ele>
        <time>2010-10-17T07:30:40Z</time>
      </trkpt>
      <trkpt lat="45.11699" lon="5.20411">
        <ele>298.6</ele>
        <time>2010-10-17T07:30:43Z</time>
      </trkpt>
      <trkpt lat="45.11701" lon="5.20414">
        <ele>299.1</ele>
        <time>2010-10-17T07:30:45Z</time>
      </trkpt>
      <trkpt lat="45.11704" lon="5.20417">
        <ele>299.5</ele>
        <time>2010-10-17T07:30:47Z</time>
      </trkpt>
      <trkpt lat="45.11707" lon="5.20419">
        <ele>300.2</ele>
        <time>2010-10-17T07:30:49Z</time>
      </trkpt>
      <trkpt lat="45.11708" lon="5.20421">
        <ele>299.9</ele>
        <time>2010-10-17T07:30:52Z</time>
      </trkpt>
      <trkpt lat="45.11709" lon="5.20423">
        <ele>299.7</ele>
        <time>2010-10-17T07:30:54Z</time>
      </trkpt>
      <trkpt lat="45.11713" lon="5.20425">
        <ele>300.3</ele>
        <time>2010-10-17T07:30:56Z</time>
      </trkpt>
      <trkpt lat="45.11716" lon="5.20427">
        <ele>300.2</ele>
        <time>2010-10-17T07:30:59Z</time>
      </trkpt>
      <trkpt lat="45.11719" lon="5.20429">
        <ele>300.6</ele>
        <time>2010-10-17T07:31:01Z</time>
      </trkpt>
      <trkpt lat="45.11722" lon="5.20431">
        <ele>300.7</ele>
        <time>2010-10-17T07:31:03Z</time>
      </trkpt>
      <trkpt lat="45.11727" lon="5.20433">
        <ele>299.7</ele>
        <time>2010-10-17T07:31:05Z</time>
      </trkpt>
      <trkpt lat="45.1173" lon="5.20433">
        <ele>299.8</ele>
        <time>2010-10-17T07:31:08Z</time>
      </trkpt>
      <trkpt lat="45.11733" lon="5.20434">
        <ele>300.5</ele>
        <time>2010-10-17T07:31:11Z</time>
      </trkpt>
      <trkpt lat="45.11736" lon="5.20434">
        <ele>302.3</ele>
        <time>2010-10-17T07:31:14Z</time>
      </trkpt>
      <trkpt lat="45.11739" lon="5.20434">
        <ele>302.6</ele>
        <time>2010-10-17T07:31:16Z</time>
      </trkpt>
      <trkpt lat="45.11742" lon="5.20435">
        <ele>303.4</ele>
        <time>2010-10-17T07:31:19Z</time>
      </trkpt>
      <trkpt lat="45.11746" lon="5.20437">
        <ele>303.3</ele>
        <time>2010-10-17T07:31:22Z</time>
      </trkpt>
      <trkpt lat="45.11749" lon="5.20437">
        <ele>305.6</ele>
        <time>2010-10-17T07:31:26Z</time>
      </trkpt>
      <trkpt lat="45.11752" lon="5.20434">
        <ele>306.7</ele>
        <time>2010-10-17T07:31:29Z</time>
      </trkpt>
      <trkpt lat="45.11755" lon="5.20432">
        <ele>307.7</ele>
        <time>2010-10-17T07:31:31Z</time>
      </trkpt>
      <trkpt lat="45.11758" lon="5.20429">
        <ele>308.7</ele>
        <time>2010-10-17T07:31:34Z</time>
      </trkpt>
      <trkpt lat="45.11764" lon="5.2043">
        <ele>309.3</ele>
        <time>2010-10-17T07:31:36Z</time>
      </trkpt>
      <trkpt lat="45.11768" lon="5.20428">
        <ele>308.8</ele>
        <time>2010-10-17T07:31:39Z</time>
      </trkpt>
      <trkpt lat="45.1177" lon="5.20427">
        <ele>308.7</ele>
        <time>2010-10-17T07:31:43Z</time>
      </trkpt>
      <trkpt lat="45.11772" lon="5.20425">
        <ele>308.3</ele>
        <time>2010-10-17T07:31:46Z</time>
      </trkpt>
      <trkpt lat="45.11776" lon="5.20423">
        <ele>309.3</ele>
        <time>2010-10-17T07:31:49Z</time>
      </trkpt>
      <trkpt lat="45.11779" lon="5.20421">
        <ele>310.4</ele>
        <time>2010-10-17T07:31:52Z</time>
      </trkpt>
      <trkpt lat="45.11783" lon="5.20421">
        <ele>310.6</ele>
        <time>2010-10-17T07:31:54Z</time>
      </trkpt>
      <trkpt lat="45.11788" lon="5.20422">
        <ele>311.9</ele>
        <time>2010-10-17T07:31:56Z</time>
      </trkpt>
      <trkpt lat="45.11793" lon="5.20421">
        <ele>312.1</ele>
        <time>2010-10-17T07:31:58Z</time>
      </trkpt>
      <trkpt lat="45.11798" lon="5.20421">
        <ele>311.5</ele>
        <time>2010-10-17T07:32:00Z</time>
      </trkpt>
      <trkpt lat="45.11801" lon="5.20421">
        <ele>311</ele>
        <time>2010-10-17T07:32:02Z</time>
      </trkpt>
      <trkpt lat="45.11804" lon="5.20422">
        <ele>310.7</ele>
        <time>2010-10-17T07:32:04Z</time>
      </trkpt>
      <trkpt lat="45.11807" lon="5.20423">
        <ele>310.1</ele>
        <time>2010-10-17T07:32:07Z</time>
      </trkpt>
      <trkpt lat="45.1181" lon="5.20423">
        <ele>309.5</ele>
        <time>2010-10-17T07:32:09Z</time>
      </trkpt>
      <trkpt lat="45.11814" lon="5.20424">
        <ele>310.1</ele>
        <time>2010-10-17T07:32:11Z</time>
      </trkpt>
      <trkpt lat="45.1182" lon="5.20424">
        <ele>310.7</ele>
        <time>2010-10-17T07:32:13Z</time>
      </trkpt>
      <trkpt lat="45.11823" lon="5.20425">
        <ele>311</ele>
        <time>2010-10-17T07:32:15Z</time>
      </trkpt>
      <trkpt lat="45.11826" lon="5.20423">
        <ele>311.7</ele>
        <time>2010-10-17T07:32:17Z</time>
      </trkpt>
      <trkpt lat="45.11829" lon="5.20422">
        <ele>311.5</ele>
        <time>2010-10-17T07:32:20Z</time>
      </trkpt>
      <trkpt lat="45.11831" lon="5.20421">
        <ele>312.3</ele>
        <time>2010-10-17T07:32:22Z</time>
      </trkpt>
      <trkpt lat="45.11835" lon="5.2042">
        <ele>312.2</ele>
        <time>2010-10-17T07:32:26Z</time>
      </trkpt>
      <trkpt lat="45.11838" lon="5.20422">
        <ele>313.1</ele>
        <time>2010-10-17T07:32:28Z</time>
      </trkpt>
      <trkpt lat="45.11842" lon="5.20422">
        <ele>314.1</ele>
        <time>2010-10-17T07:32:31Z</time>
      </trkpt>
      <trkpt lat="45.11846" lon="5.20422">
        <ele>314.7</ele>
        <time>2010-10-17T07:32:34Z</time>
      </trkpt>
      <trkpt lat="45.1185" lon="5.2042">
        <ele>315.5</ele>
        <time>2010-10-17T07:32:36Z</time>
      </trkpt>
      <trkpt lat="45.11853" lon="5.20419">
        <ele>315.3</ele>
        <time>2010-10-17T07:32:39Z</time>
      </trkpt>
      <trkpt lat="45.11855" lon="5.20418">
        <ele>315.6</ele>
        <time>2010-10-17T07:32:42Z</time>
      </trkpt>
      <trkpt lat="45.11858" lon="5.20417">
        <ele>318</ele>
        <time>2010-10-17T07:32:45Z</time>
      </trkpt>
      <trkpt lat="45.11861" lon="5.20417">
        <ele>319.5</ele>
        <time>2010-10-17T07:32:47Z</time>
      </trkpt>
      <trkpt lat="45.11865" lon="5.20416">
        <ele>320.3</ele>
        <time>2010-10-17T07:32:49Z</time>
      </trkpt>
      <trkpt lat="45.11868" lon="5.20416">
        <ele>320.2</ele>
        <time>2010-10-17T07:32:51Z</time>
      </trkpt>
      <trkpt lat="45.11871" lon="5.20415">
        <ele>320.2</ele>
        <time>2010-10-17T07:32:53Z</time>
      </trkpt>
      <trkpt lat="45.11874" lon="5.20415">
        <ele>320.5</ele>
        <time>2010-10-17T07:32:55Z</time>
      </trkpt>
      <trkpt lat="45.11878" lon="5.20414">
        <ele>319.6</ele>
        <time>2010-10-17T07:32:58Z</time>
      </trkpt>
      <trkpt lat="45.11881" lon="5.20413">
        <ele>319</ele>
        <time>2010-10-17T07:33:00Z</time>
      </trkpt>
      <trkpt lat="45.11885" lon="5.20412">
        <ele>318.4</ele>
        <time>2010-10-17T07:33:03Z</time>
      </trkpt>
      <trkpt lat="45.11887" lon="5.20413">
        <ele>316.8</ele>
        <time>2010-10-17T07:33:06Z</time>
      </trkpt>
      <trkpt lat="45.11888" lon="5.20415">
        <ele>316.9</ele>
        <time>2010-10-17T07:33:09Z</time>
      </trkpt>
      <trkpt lat="45.11891" lon="5.20415">
        <ele>317.1</ele>
        <time>2010-10-17T07:33:18Z</time>
      </trkpt>
      <trkpt lat="45.11894" lon="5.20413">
        <ele>316.7</ele>
        <time>2010-10-17T07:33:20Z</time>
      </trkpt>
      <trkpt lat="45.11898" lon="5.20413">
        <ele>316.8</ele>
        <time>2010-10-17T07:33:23Z</time>
      </trkpt>
      <trkpt lat="45.119" lon="5.20414">
        <ele>318</ele>
        <time>2010-10-17T07:33:25Z</time>
      </trkpt>
      <trkpt lat="45.11903" lon="5.20415">
        <ele>319.2</ele>
        <time>2010-10-17T07:33:28Z</time>
      </trkpt>
      <trkpt lat="45.11905" lon="5.20417">
        <ele>319.8</ele>
        <time>2010-10-17T07:33:30Z</time>
      </trkpt>
      <trkpt lat="45.11907" lon="5.20419">
        <ele>319.7</ele>
        <time>2010-10-17T07:33:32Z</time>
      </trkpt>
      <trkpt lat="45.11909" lon="5.20421">
        <ele>320</ele>
        <time>2010-10-17T07:33:34Z</time>
      </trkpt>
      <trkpt lat="45.11912" lon="5.20423">
        <ele>319.8</ele>
        <time>2010-10-17T07:33:37Z</time>
      </trkpt>
      <trkpt lat="45.11914" lon="5.20424">
        <ele>320</ele>
        <time>2010-10-17T07:33:39Z</time>
      </trkpt>
      <trkpt lat="45.11917" lon="5.20425">
        <ele>320.5</ele>
        <time>2010-10-17T07:33:41Z</time>
      </trkpt>
      <trkpt lat="45.11919" lon="5.20426">
        <ele>320.2</ele>
        <time>2010-10-17T07:33:43Z</time>
      </trkpt>
      <trkpt lat="45.11921" lon="5.20428">
        <ele>320</ele>
        <time>2010-10-17T07:33:45Z</time>
      </trkpt>
      <trkpt lat="45.11924" lon="5.20431">
        <ele>320.1</ele>
        <time>2010-10-17T07:33:47Z</time>
      </trkpt>
      <trkpt lat="45.11928" lon="5.20433">
        <ele>320.2</ele>
        <time>2010-10-17T07:33:50Z</time>
      </trkpt>
      <trkpt lat="45.1193" lon="5.20434">
        <ele>320.7</ele>
        <time>2010-10-17T07:33:52Z</time>
      </trkpt>
      <trkpt lat="45.11933" lon="5.20435">
        <ele>320.6</ele>
        <time>2010-10-17T07:33:54Z</time>
      </trkpt>
      <trkpt lat="45.11936" lon="5.20436">
        <ele>320</ele>
        <time>2010-10-17T07:33:56Z</time>
      </trkpt>
      <trkpt lat="45.1194" lon="5.20438">
        <ele>321.4</ele>
        <time>2010-10-17T07:33:58Z</time>
      </trkpt>
      <trkpt lat="45.11944" lon="5.20439">
        <ele>321.5</ele>
        <time>2010-10-17T07:34:00Z</time>
      </trkpt>
      <trkpt lat="45.11947" lon="5.2044">
        <ele>320.1</ele>
        <time>2010-10-17T07:34:02Z</time>
      </trkpt>
      <trkpt lat="45.11949" lon="5.20441">
        <ele>319.5</ele>
        <time>2010-10-17T07:34:04Z</time>
      </trkpt>
      <trkpt lat="45.11952" lon="5.20441">
        <ele>319.6</ele>
        <time>2010-10-17T07:34:06Z</time>
      </trkpt>
      <trkpt lat="45.11955" lon="5.20442">
        <ele>319.5</ele>
        <time>2010-10-17T07:34:08Z</time>
      </trkpt>
      <trkpt lat="45.11958" lon="5.20443">
        <ele>319.3</ele>
        <time>2010-10-17T07:34:10Z</time>
      </trkpt>
      <trkpt lat="45.11961" lon="5.20444">
        <ele>319</ele>
        <time>2010-10-17T07:34:12Z</time>
      </trkpt>
      <trkpt lat="45.11964" lon="5.20445">
        <ele>318.8</ele>
        <time>2010-10-17T07:34:14Z</time>
      </trkpt>
      <trkpt lat="45.11967" lon="5.20446">
        <ele>319.4</ele>
        <time>2010-10-17T07:34:16Z</time>
      </trkpt>
      <trkpt lat="45.1197" lon="5.20448">
        <ele>319.5</ele>
        <time>2010-10-17T07:34:18Z</time>
      </trkpt>
      <trkpt lat="45.11974" lon="5.20451">
        <ele>320</ele>
        <time>2010-10-17T07:34:20Z</time>
      </trkpt>
      <trkpt lat="45.11977" lon="5.20453">
        <ele>320.4</ele>
        <time>2010-10-17T07:34:22Z</time>
      </trkpt>
      <trkpt lat="45.11979" lon="5.20454">
        <ele>320.5</ele>
        <time>2010-10-17T07:34:24Z</time>
      </trkpt>
      <trkpt lat="45.11981" lon="5.20456">
        <ele>320.1</ele>
        <time>2010-10-17T07:34:26Z</time>
      </trkpt>
      <trkpt lat="45.11984" lon="5.20457">
        <ele>319.5</ele>
        <time>2010-10-17T07:34:28Z</time>
      </trkpt>
      <trkpt lat="45.11988" lon="5.20459">
        <ele>319.7</ele>
        <time>2010-10-17T07:34:30Z</time>
      </trkpt>
      <trkpt lat="45.1199" lon="5.20461">
        <ele>320.8</ele>
        <time>2010-10-17T07:34:33Z</time>
      </trkpt>
      <trkpt lat="45.11993" lon="5.20464">
        <ele>322.3</ele>
        <time>2010-10-17T07:34:35Z</time>
      </trkpt>
      <trkpt lat="45.11995" lon="5.20467">
        <ele>323.5</ele>
        <time>2010-10-17T07:34:37Z</time>
      </trkpt>
      <trkpt lat="45.11998" lon="5.20469">
        <ele>323.3</ele>
        <time>2010-10-17T07:34:39Z</time>
      </trkpt>
      <trkpt lat="45.12001" lon="5.20471">
        <ele>323.7</ele>
        <time>2010-10-17T07:34:41Z</time>
      </trkpt>
      <trkpt lat="45.12005" lon="5.20473">
        <ele>324.5</ele>
        <time>2010-10-17T07:34:43Z</time>
      </trkpt>
      <trkpt lat="45.12008" lon="5.20475">
        <ele>324.8</ele>
        <time>2010-10-17T07:34:45Z</time>
      </trkpt>
      <trkpt lat="45.12012" lon="5.20477">
        <ele>325.2</ele>
        <time>2010-10-17T07:34:47Z</time>
      </trkpt>
      <trkpt lat="45.12016" lon="5.2048">
        <ele>325.5</ele>
        <time>2010-10-17T07:34:49Z</time>
      </trkpt>
      <trkpt lat="45.12021" lon="5.20483">
        <ele>325.3</ele>
        <time>2010-10-17T07:34:51Z</time>
      </trkpt>
      <trkpt lat="45.12027" lon="5.20487">
        <ele>324.5</ele>
        <time>2010-10-17T07:34:53Z</time>
      </trkpt>
      <trkpt lat="45.12032" lon="5.20491">
        <ele>324.2</ele>
        <time>2010-10-17T07:34:55Z</time>
      </trkpt>
      <trkpt lat="45.12037" lon="5.20495">
        <ele>323.8</ele>
        <time>2010-10-17T07:34:57Z</time>
      </trkpt>
      <trkpt lat="45.12042" lon="5.20501">
        <ele>323.8</ele>
        <time>2010-10-17T07:34:59Z</time>
      </trkpt>
      <trkpt lat="45.12047" lon="5.20505">
        <ele>323.8</ele>
        <time>2010-10-17T07:35:01Z</time>
      </trkpt>
      <trkpt lat="45.12053" lon="5.2051">
        <ele>323.4</ele>
        <time>2010-10-17T07:35:03Z</time>
      </trkpt>
      <trkpt lat="45.12059" lon="5.20517">
        <ele>323</ele>
        <time>2010-10-17T07:35:05Z</time>
      </trkpt>
      <trkpt lat="45.12064" lon="5.20523">
        <ele>323.2</ele>
        <time>2010-10-17T07:35:07Z</time>
      </trkpt>
      <trkpt lat="45.12068" lon="5.20531">
        <ele>322.5</ele>
        <time>2010-10-17T07:35:09Z</time>
      </trkpt>
      <trkpt lat="45.12073" lon="5.20537">
        <ele>322.2</ele>
        <time>2010-10-17T07:35:11Z</time>
      </trkpt>
      <trkpt lat="45.12076" lon="5.20544">
        <ele>322</ele>
        <time>2010-10-17T07:35:13Z</time>
      </trkpt>
      <trkpt lat="45.12082" lon="5.20552">
        <ele>322</ele>
        <time>2010-10-17T07:35:15Z</time>
      </trkpt>
      <trkpt lat="45.12088" lon="5.20559">
        <ele>322.3</ele>
        <time>2010-10-17T07:35:17Z</time>
      </trkpt>
      <trkpt lat="45.12094" lon="5.20568">
        <ele>324</ele>
        <time>2010-10-17T07:35:19Z</time>
      </trkpt>
      <trkpt lat="45.12098" lon="5.20577">
        <ele>323.3</ele>
        <time>2010-10-17T07:35:21Z</time>
      </trkpt>
      <trkpt lat="45.12102" lon="5.20584">
        <ele>322.3</ele>
        <time>2010-10-17T07:35:23Z</time>
      </trkpt>
      <trkpt lat="45.12106" lon="5.2059">
        <ele>322.1</ele>
        <time>2010-10-17T07:35:25Z</time>
      </trkpt>
      <trkpt lat="45.1211" lon="5.20597">
        <ele>323</ele>
        <time>2010-10-17T07:35:27Z</time>
      </trkpt>
      <trkpt lat="45.12115" lon="5.20604">
        <ele>323.6</ele>
        <time>2010-10-17T07:35:29Z</time>
      </trkpt>
      <trkpt lat="45.1212" lon="5.2061">
        <ele>323.9</ele>
        <time>2010-10-17T07:35:31Z</time>
      </trkpt>
      <trkpt lat="45.12124" lon="5.20617">
        <ele>325</ele>
        <time>2010-10-17T07:35:33Z</time>
      </trkpt>
      <trkpt lat="45.12128" lon="5.20624">
        <ele>326.4</ele>
        <time>2010-10-17T07:35:35Z</time>
      </trkpt>
      <trkpt lat="45.12133" lon="5.2063">
        <ele>328.2</ele>
        <time>2010-10-17T07:35:37Z</time>
      </trkpt>
      <trkpt lat="45.12138" lon="5.20637">
        <ele>329</ele>
        <time>2010-10-17T07:35:39Z</time>
      </trkpt>
      <trkpt lat="45.12143" lon="5.20645">
        <ele>328.4</ele>
        <time>2010-10-17T07:35:41Z</time>
      </trkpt>
      <trkpt lat="45.12148" lon="5.20652">
        <ele>327.8</ele>
        <time>2010-10-17T07:35:43Z</time>
      </trkpt>
      <trkpt lat="45.12152" lon="5.2066">
        <ele>327.4</ele>
        <time>2010-10-17T07:35:45Z</time>
      </trkpt>
      <trkpt lat="45.12156" lon="5.20668">
        <ele>327.5</ele>
        <time>2010-10-17T07:35:47Z</time>
      </trkpt>
      <trkpt lat="45.1216" lon="5.20675">
        <ele>328.2</ele>
        <time>2010-10-17T07:35:49Z</time>
      </trkpt>
      <trkpt lat="45.12164" lon="5.20682">
        <ele>329.2</ele>
        <time>2010-10-17T07:35:51Z</time>
      </trkpt>
      <trkpt lat="45.12167" lon="5.20688">
        <ele>329.1</ele>
        <time>2010-10-17T07:35:53Z</time>
      </trkpt>
      <trkpt lat="45.12172" lon="5.20691">
        <ele>330</ele>
        <time>2010-10-17T07:35:55Z</time>
      </trkpt>
      <trkpt lat="45.12176" lon="5.2069">
        <ele>330</ele>
        <time>2010-10-17T07:35:57Z</time>
      </trkpt>
      <trkpt lat="45.12179" lon="5.20685">
        <ele>329.5</ele>
        <time>2010-10-17T07:35:59Z</time>
      </trkpt>
      <trkpt lat="45.12182" lon="5.20679">
        <ele>328.5</ele>
        <time>2010-10-17T07:36:01Z</time>
      </trkpt>
      <trkpt lat="45.12187" lon="5.20674">
        <ele>327.7</ele>
        <time>2010-10-17T07:36:03Z</time>
      </trkpt>
      <trkpt lat="45.12189" lon="5.20669">
        <ele>326.5</ele>
        <time>2010-10-17T07:36:05Z</time>
      </trkpt>
      <trkpt lat="45.12192" lon="5.20665">
        <ele>326.5</ele>
        <time>2010-10-17T07:36:07Z</time>
      </trkpt>
      <trkpt lat="45.12195" lon="5.20662">
        <ele>326.4</ele>
        <time>2010-10-17T07:36:09Z</time>
      </trkpt>
      <trkpt lat="45.12197" lon="5.20659">
        <ele>326</ele>
        <time>2010-10-17T07:36:11Z</time>
      </trkpt>
      <trkpt lat="45.122" lon="5.20656">
        <ele>325.3</ele>
        <time>2010-10-17T07:36:13Z</time>
      </trkpt>
      <trkpt lat="45.12204" lon="5.20652">
        <ele>324.6</ele>
        <time>2010-10-17T07:36:15Z</time>
      </trkpt>
      <trkpt lat="45.12208" lon="5.20648">
        <ele>324</ele>
        <time>2010-10-17T07:36:17Z</time>
      </trkpt>
      <trkpt lat="45.12212" lon="5.20644">
        <ele>323.6</ele>
        <time>2010-10-17T07:36:19Z</time>
      </trkpt>
      <trkpt lat="45.12216" lon="5.20641">
        <ele>323.4</ele>
        <time>2010-10-17T07:36:21Z</time>
      </trkpt>
      <trkpt lat="45.12221" lon="5.20636">
        <ele>323.2</ele>
        <time>2010-10-17T07:36:23Z</time>
      </trkpt>
      <trkpt lat="45.12226" lon="5.20632">
        <ele>323.1</ele>
        <time>2010-10-17T07:36:25Z</time>
      </trkpt>
      <trkpt lat="45.12232" lon="5.20627">
        <ele>323.4</ele>
        <time>2010-10-17T07:36:27Z</time>
      </trkpt>
      <trkpt lat="45.12238" lon="5.20622">
        <ele>323.7</ele>
        <time>2010-10-17T07:36:29Z</time>
      </trkpt>
      <trkpt lat="45.12247" lon="5.20617">
        <ele>323.9</ele>
        <time>2010-10-17T07:36:31Z</time>
      </trkpt>
      <trkpt lat="45.12254" lon="5.20613">
        <ele>323.8</ele>
        <time>2010-10-17T07:36:33Z</time>
      </trkpt>
      <trkpt lat="45.12261" lon="5.20609">
        <ele>324</ele>
        <time>2010-10-17T07:36:35Z</time>
      </trkpt>
      <trkpt lat="45.12269" lon="5.20606">
        <ele>324.3</ele>
        <time>2010-10-17T07:36:37Z</time>
      </trkpt>
      <trkpt lat="45.12275" lon="5.20599">
        <ele>324.9</ele>
        <time>2010-10-17T07:36:39Z</time>
      </trkpt>
      <trkpt lat="45.12281" lon="5.20593">
        <ele>325</ele>
        <time>2010-10-17T07:36:41Z</time>
      </trkpt>
      <trkpt lat="45.12288" lon="5.20584">
        <ele>325</ele>
        <time>2010-10-17T07:36:43Z</time>
      </trkpt>
      <trkpt lat="45.12293" lon="5.20572">
        <ele>325.1</ele>
        <time>2010-10-17T07:36:45Z</time>
      </trkpt>
      <trkpt lat="45.12296" lon="5.20558">
        <ele>325.2</ele>
        <time>2010-10-17T07:36:47Z</time>
      </trkpt>
      <trkpt lat="45.12299" lon="5.20541">
        <ele>325.9</ele>
        <time>2010-10-17T07:36:49Z</time>
      </trkpt>
      <trkpt lat="45.12304" lon="5.20529">
        <ele>326.5</ele>
        <time>2010-10-17T07:36:51Z</time>
      </trkpt>
      <trkpt lat="45.1231" lon="5.20519">
        <ele>327.8</ele>
        <time>2010-10-17T07:36:53Z</time>
      </trkpt>
      <trkpt lat="45.12316" lon="5.20509">
        <ele>327.1</ele>
        <time>2010-10-17T07:36:55Z</time>
      </trkpt>
      <trkpt lat="45.12321" lon="5.20498">
        <ele>327.7</ele>
        <time>2010-10-17T07:36:57Z</time>
      </trkpt>
      <trkpt lat="45.12327" lon="5.20491">
        <ele>327.5</ele>
        <time>2010-10-17T07:36:59Z</time>
      </trkpt>
      <trkpt lat="45.12332" lon="5.20482">
        <ele>327.6</ele>
        <time>2010-10-17T07:37:01Z</time>
      </trkpt>
      <trkpt lat="45.12338" lon="5.20474">
        <ele>326.7</ele>
        <time>2010-10-17T07:37:03Z</time>
      </trkpt>
      <trkpt lat="45.12344" lon="5.20467">
        <ele>326.8</ele>
        <time>2010-10-17T07:37:05Z</time>
      </trkpt>
      <trkpt lat="45.12349" lon="5.2046">
        <ele>326.6</ele>
        <time>2010-10-17T07:37:07Z</time>
      </trkpt>
      <trkpt lat="45.12354" lon="5.20455">
        <ele>326.4</ele>
        <time>2010-10-17T07:37:09Z</time>
      </trkpt>
      <trkpt lat="45.12357" lon="5.20447">
        <ele>325.5</ele>
        <time>2010-10-17T07:37:11Z</time>
      </trkpt>
      <trkpt lat="45.12363" lon="5.20441">
        <ele>324.8</ele>
        <time>2010-10-17T07:37:13Z</time>
      </trkpt>
      <trkpt lat="45.12368" lon="5.20433">
        <ele>324.1</ele>
        <time>2010-10-17T07:37:15Z</time>
      </trkpt>
      <trkpt lat="45.12373" lon="5.20426">
        <ele>323.8</ele>
        <time>2010-10-17T07:37:17Z</time>
      </trkpt>
      <trkpt lat="45.12376" lon="5.20416">
        <ele>322.7</ele>
        <time>2010-10-17T07:37:19Z</time>
      </trkpt>
      <trkpt lat="45.12382" lon="5.20411">
        <ele>323</ele>
        <time>2010-10-17T07:37:21Z</time>
      </trkpt>
      <trkpt lat="45.12389" lon="5.20403">
        <ele>322.3</ele>
        <time>2010-10-17T07:37:23Z</time>
      </trkpt>
      <trkpt lat="45.12396" lon="5.20394">
        <ele>321.7</ele>
        <time>2010-10-17T07:37:25Z</time>
      </trkpt>
      <trkpt lat="45.124" lon="5.20384">
        <ele>321.5</ele>
        <time>2010-10-17T07:37:27Z</time>
      </trkpt>
      <trkpt lat="45.12404" lon="5.20375">
        <ele>320.9</ele>
        <time>2010-10-17T07:37:29Z</time>
      </trkpt>
      <trkpt lat="45.12411" lon="5.20366">
        <ele>320.4</ele>
        <time>2010-10-17T07:37:31Z</time>
      </trkpt>
      <trkpt lat="45.12418" lon="5.20358">
        <ele>320.1</ele>
        <time>2010-10-17T07:37:33Z</time>
      </trkpt>
      <trkpt lat="45.12424" lon="5.20349">
        <ele>319.9</ele>
        <time>2010-10-17T07:37:35Z</time>
      </trkpt>
      <trkpt lat="45.12429" lon="5.20341">
        <ele>319.5</ele>
        <time>2010-10-17T07:37:37Z</time>
      </trkpt>
      <trkpt lat="45.12435" lon="5.20333">
        <ele>318.9</ele>
        <time>2010-10-17T07:37:39Z</time>
      </trkpt>
      <trkpt lat="45.12442" lon="5.20324">
        <ele>317.8</ele>
        <time>2010-10-17T07:37:41Z</time>
      </trkpt>
      <trkpt lat="45.12449" lon="5.20315">
        <ele>317.2</ele>
        <time>2010-10-17T07:37:43Z</time>
      </trkpt>
      <trkpt lat="45.12457" lon="5.20304">
        <ele>316.9</ele>
        <time>2010-10-17T07:37:45Z</time>
      </trkpt>
      <trkpt lat="45.12467" lon="5.20291">
        <ele>316.7</ele>
        <time>2010-10-17T07:37:47Z</time>
      </trkpt>
      <trkpt lat="45.12476" lon="5.20277">
        <ele>316.4</ele>
        <time>2010-10-17T07:37:49Z</time>
      </trkpt>
      <trkpt lat="45.12489" lon="5.20267">
        <ele>316</ele>
        <time>2010-10-17T07:37:51Z</time>
      </trkpt>
      <trkpt lat="45.12499" lon="5.20259">
        <ele>315.5</ele>
        <time>2010-10-17T07:37:53Z</time>
      </trkpt>
      <trkpt lat="45.12507" lon="5.20257">
        <ele>314.5</ele>
        <time>2010-10-17T07:37:55Z</time>
      </trkpt>
      <trkpt lat="45.12515" lon="5.20261">
        <ele>313.5</ele>
        <time>2010-10-17T07:37:57Z</time>
      </trkpt>
      <trkpt lat="45.1252" lon="5.20263">
        <ele>312.5</ele>
        <time>2010-10-17T07:37:59Z</time>
      </trkpt>
      <trkpt lat="45.12524" lon="5.20268">
        <ele>310.4</ele>
        <time>2010-10-17T07:38:01Z</time>
      </trkpt>
      <trkpt lat="45.12529" lon="5.20275">
        <ele>309.9</ele>
        <time>2010-10-17T07:38:03Z</time>
      </trkpt>
      <trkpt lat="45.12534" lon="5.20286">
        <ele>309.3</ele>
        <time>2010-10-17T07:38:05Z</time>
      </trkpt>
      <trkpt lat="45.12541" lon="5.20296">
        <ele>308.4</ele>
        <time>2010-10-17T07:38:07Z</time>
      </trkpt>
      <trkpt lat="45.12548" lon="5.20305">
        <ele>309</ele>
        <time>2010-10-17T07:38:09Z</time>
      </trkpt>
      <trkpt lat="45.12554" lon="5.20314">
        <ele>309.1</ele>
        <time>2010-10-17T07:38:11Z</time>
      </trkpt>
      <trkpt lat="45.1256" lon="5.20324">
        <ele>310</ele>
        <time>2010-10-17T07:38:13Z</time>
      </trkpt>
      <trkpt lat="45.12567" lon="5.20331">
        <ele>312.8</ele>
        <time>2010-10-17T07:38:15Z</time>
      </trkpt>
      <trkpt lat="45.12574" lon="5.20339">
        <ele>314.2</ele>
        <time>2010-10-17T07:38:17Z</time>
      </trkpt>
      <trkpt lat="45.12578" lon="5.20347">
        <ele>313.7</ele>
        <time>2010-10-17T07:38:19Z</time>
      </trkpt>
      <trkpt lat="45.1258" lon="5.20354">
        <ele>314.5</ele>
        <time>2010-10-17T07:38:21Z</time>
      </trkpt>
      <trkpt lat="45.12585" lon="5.20362">
        <ele>315</ele>
        <time>2010-10-17T07:38:23Z</time>
      </trkpt>
      <trkpt lat="45.1259" lon="5.20371">
        <ele>314.3</ele>
        <time>2010-10-17T07:38:25Z</time>
      </trkpt>
      <trkpt lat="45.12594" lon="5.20382">
        <ele>314.5</ele>
        <time>2010-10-17T07:38:27Z</time>
      </trkpt>
      <trkpt lat="45.12596" lon="5.20393">
        <ele>311.1</ele>
        <time>2010-10-17T07:38:29Z</time>
      </trkpt>
      <trkpt lat="45.12601" lon="5.20402">
        <ele>308.3</ele>
        <time>2010-10-17T07:38:31Z</time>
      </trkpt>
      <trkpt lat="45.12607" lon="5.20413">
        <ele>307.2</ele>
        <time>2010-10-17T07:38:33Z</time>
      </trkpt>
      <trkpt lat="45.12613" lon="5.20423">
        <ele>305.1</ele>
        <time>2010-10-17T07:38:35Z</time>
      </trkpt>
      <trkpt lat="45.12621" lon="5.20435">
        <ele>302.7</ele>
        <time>2010-10-17T07:38:37Z</time>
      </trkpt>
      <trkpt lat="45.12628" lon="5.20448">
        <ele>304.6</ele>
        <time>2010-10-17T07:38:39Z</time>
      </trkpt>
      <trkpt lat="45.12636" lon="5.2046">
        <ele>306.9</ele>
        <time>2010-10-17T07:38:41Z</time>
      </trkpt>
      <trkpt lat="45.12643" lon="5.20472">
        <ele>307</ele>
        <time>2010-10-17T07:38:43Z</time>
      </trkpt>
      <trkpt lat="45.12651" lon="5.20483">
        <ele>306.4</ele>
        <time>2010-10-17T07:38:45Z</time>
      </trkpt>
      <trkpt lat="45.12658" lon="5.20495">
        <ele>306.1</ele>
        <time>2010-10-17T07:38:47Z</time>
      </trkpt>
      <trkpt lat="45.12666" lon="5.20507">
        <ele>307.5</ele>
        <time>2010-10-17T07:38:49Z</time>
      </trkpt>
      <trkpt lat="45.12674" lon="5.20519">
        <ele>308.3</ele>
        <time>2010-10-17T07:38:51Z</time>
      </trkpt>
      <trkpt lat="45.12681" lon="5.20529">
        <ele>308.2</ele>
        <time>2010-10-17T07:38:53Z</time>
      </trkpt>
      <trkpt lat="45.12687" lon="5.2054">
        <ele>308.3</ele>
        <time>2010-10-17T07:38:55Z</time>
      </trkpt>
      <trkpt lat="45.12696" lon="5.20554">
        <ele>307.2</ele>
        <time>2010-10-17T07:38:57Z</time>
      </trkpt>
      <trkpt lat="45.12702" lon="5.20565">
        <ele>307</ele>
        <time>2010-10-17T07:38:59Z</time>
      </trkpt>
      <trkpt lat="45.12706" lon="5.20574">
        <ele>306.9</ele>
        <time>2010-10-17T07:39:01Z</time>
      </trkpt>
      <trkpt lat="45.12707" lon="5.20583">
        <ele>306.7</ele>
        <time>2010-10-17T07:39:03Z</time>
      </trkpt>
      <trkpt lat="45.12705" lon="5.20592">
        <ele>305.9</ele>
        <time>2010-10-17T07:39:05Z</time>
      </trkpt>
      <trkpt lat="45.12702" lon="5.206">
        <ele>304.3</ele>
        <time>2010-10-17T07:39:07Z</time>
      </trkpt>
      <trkpt lat="45.12699" lon="5.20609">
        <ele>303.7</ele>
        <time>2010-10-17T07:39:09Z</time>
      </trkpt>
      <trkpt lat="45.12695" lon="5.20618">
        <ele>303.1</ele>
        <time>2010-10-17T07:39:11Z</time>
      </trkpt>
      <trkpt lat="45.1269" lon="5.20629">
        <ele>302</ele>
        <time>2010-10-17T07:39:13Z</time>
      </trkpt>
      <trkpt lat="45.12687" lon="5.20636">
        <ele>301.3</ele>
        <time>2010-10-17T07:39:15Z</time>
      </trkpt>
      <trkpt lat="45.12684" lon="5.20644">
        <ele>300.5</ele>
        <time>2010-10-17T07:39:17Z</time>
      </trkpt>
      <trkpt lat="45.1268" lon="5.20652">
        <ele>300.2</ele>
        <time>2010-10-17T07:39:19Z</time>
      </trkpt>
      <trkpt lat="45.12676" lon="5.2066">
        <ele>300.3</ele>
        <time>2010-10-17T07:39:21Z</time>
      </trkpt>
      <trkpt lat="45.12671" lon="5.20667">
        <ele>299.8</ele>
        <time>2010-10-17T07:39:23Z</time>
      </trkpt>
      <trkpt lat="45.12668" lon="5.20675">
        <ele>299.5</ele>
        <time>2010-10-17T07:39:25Z</time>
      </trkpt>
      <trkpt lat="45.12664" lon="5.20684">
        <ele>299</ele>
        <time>2010-10-17T07:39:27Z</time>
      </trkpt>
      <trkpt lat="45.1266" lon="5.20693">
        <ele>298.5</ele>
        <time>2010-10-17T07:39:29Z</time>
      </trkpt>
      <trkpt lat="45.12658" lon="5.20708">
        <ele>299.9</ele>
        <time>2010-10-17T07:39:31Z</time>
      </trkpt>
      <trkpt lat="45.12656" lon="5.20728">
        <ele>302</ele>
        <time>2010-10-17T07:39:33Z</time>
      </trkpt>
      <trkpt lat="45.12657" lon="5.2073">
        <ele>301.6</ele>
        <time>2010-10-17T07:39:35Z</time>
      </trkpt>
      <trkpt lat="45.12659" lon="5.20731">
        <ele>301.1</ele>
        <time>2010-10-17T07:39:37Z</time>
      </trkpt>
      <trkpt lat="45.12657" lon="5.20741">
        <ele>302.3</ele>
        <time>2010-10-17T07:39:39Z</time>
      </trkpt>
      <trkpt lat="45.12656" lon="5.20751">
        <ele>303.9</ele>
        <time>2010-10-17T07:39:41Z</time>
      </trkpt>
      <trkpt lat="45.12654" lon="5.2076">
        <ele>304.5</ele>
        <time>2010-10-17T07:39:43Z</time>
      </trkpt>
      <trkpt lat="45.12653" lon="5.20767">
        <ele>305.3</ele>
        <time>2010-10-17T07:39:45Z</time>
      </trkpt>
      <trkpt lat="45.12651" lon="5.20773">
        <ele>305.3</ele>
        <time>2010-10-17T07:39:47Z</time>
      </trkpt>
      <trkpt lat="45.12648" lon="5.20781">
        <ele>305.8</ele>
        <time>2010-10-17T07:39:49Z</time>
      </trkpt>
      <trkpt lat="45.12645" lon="5.2079">
        <ele>305.1</ele>
        <time>2010-10-17T07:39:51Z</time>
      </trkpt>
      <trkpt lat="45.12642" lon="5.20798">
        <ele>304.9</ele>
        <time>2010-10-17T07:39:53Z</time>
      </trkpt>
      <trkpt lat="45.12638" lon="5.20805">
        <ele>304.3</ele>
        <time>2010-10-17T07:39:55Z</time>
      </trkpt>
      <trkpt lat="45.12636" lon="5.20812">
        <ele>304</ele>
        <time>2010-10-17T07:39:57Z</time>
      </trkpt>
      <trkpt lat="45.12634" lon="5.20819">
        <ele>303.7</ele>
        <time>2010-10-17T07:39:59Z</time>
      </trkpt>
      <trkpt lat="45.12633" lon="5.20826">
        <ele>303.3</ele>
        <time>2010-10-17T07:40:01Z</time>
      </trkpt>
      <trkpt lat="45.12632" lon="5.20833">
        <ele>302.7</ele>
        <time>2010-10-17T07:40:03Z</time>
      </trkpt>
      <trkpt lat="45.12631" lon="5.2084">
        <ele>302.5</ele>
        <time>2010-10-17T07:40:05Z</time>
      </trkpt>
      <trkpt lat="45.1263" lon="5.20847">
        <ele>303</ele>
        <time>2010-10-17T07:40:07Z</time>
      </trkpt>
      <trkpt lat="45.1263" lon="5.20854">
        <ele>303.6</ele>
        <time>2010-10-17T07:40:09Z</time>
      </trkpt>
      <trkpt lat="45.12628" lon="5.2086">
        <ele>304.3</ele>
        <time>2010-10-17T07:40:11Z</time>
      </trkpt>
      <trkpt lat="45.12628" lon="5.20865">
        <ele>304.5</ele>
        <time>2010-10-17T07:40:13Z</time>
      </trkpt>
      <trkpt lat="45.12628" lon="5.2087">
        <ele>304.7</ele>
        <time>2010-10-17T07:40:15Z</time>
      </trkpt>
      <trkpt lat="45.12629" lon="5.20874">
        <ele>304</ele>
        <time>2010-10-17T07:40:17Z</time>
      </trkpt>
      <trkpt lat="45.12626" lon="5.20882">
        <ele>303.2</ele>
        <time>2010-10-17T07:40:19Z</time>
      </trkpt>
      <trkpt lat="45.12625" lon="5.20888">
        <ele>301.7</ele>
        <time>2010-10-17T07:40:21Z</time>
      </trkpt>
      <trkpt lat="45.12623" lon="5.20894">
        <ele>301</ele>
        <time>2010-10-17T07:40:23Z</time>
      </trkpt>
      <trkpt lat="45.12623" lon="5.209">
        <ele>299.8</ele>
        <time>2010-10-17T07:40:25Z</time>
      </trkpt>
      <trkpt lat="45.12624" lon="5.20907">
        <ele>300.4</ele>
        <time>2010-10-17T07:40:27Z</time>
      </trkpt>
      <trkpt lat="45.12625" lon="5.20914">
        <ele>300.9</ele>
        <time>2010-10-17T07:40:29Z</time>
      </trkpt>
      <trkpt lat="45.12625" lon="5.20922">
        <ele>301.8</ele>
        <time>2010-10-17T07:40:31Z</time>
      </trkpt>
      <trkpt lat="45.12626" lon="5.20931">
        <ele>303</ele>
        <time>2010-10-17T07:40:33Z</time>
      </trkpt>
      <trkpt lat="45.12627" lon="5.20938">
        <ele>303</ele>
        <time>2010-10-17T07:40:35Z</time>
      </trkpt>
      <trkpt lat="45.12628" lon="5.20946">
        <ele>302.7</ele>
        <time>2010-10-17T07:40:37Z</time>
      </trkpt>
      <trkpt lat="45.12629" lon="5.20954">
        <ele>302.8</ele>
        <time>2010-10-17T07:40:39Z</time>
      </trkpt>
      <trkpt lat="45.12629" lon="5.20963">
        <ele>301.8</ele>
        <time>2010-10-17T07:40:41Z</time>
      </trkpt>
      <trkpt lat="45.12631" lon="5.20972">
        <ele>301.1</ele>
        <time>2010-10-17T07:40:43Z</time>
      </trkpt>
      <trkpt lat="45.12634" lon="5.20982">
        <ele>301.6</ele>
        <time>2010-10-17T07:40:45Z</time>
      </trkpt>
      <trkpt lat="45.12636" lon="5.20993">
        <ele>302.3</ele>
        <time>2010-10-17T07:40:47Z</time>
      </trkpt>
      <trkpt lat="45.12638" lon="5.21002">
        <ele>303</ele>
        <time>2010-10-17T07:40:49Z</time>
      </trkpt>
      <trkpt lat="45.1264" lon="5.2101">
        <ele>304.5</ele>
        <time>2010-10-17T07:40:51Z</time>
      </trkpt>
      <trkpt lat="45.12645" lon="5.21017">
        <ele>305.8</ele>
        <time>2010-10-17T07:40:53Z</time>
      </trkpt>
      <trkpt lat="45.12646" lon="5.21024">
        <ele>304.9</ele>
        <time>2010-10-17T07:40:55Z</time>
      </trkpt>
      <trkpt lat="45.12643" lon="5.21033">
        <ele>306.5</ele>
        <time>2010-10-17T07:40:57Z</time>
      </trkpt>
      <trkpt lat="45.12641" lon="5.2104">
        <ele>307.5</ele>
        <time>2010-10-17T07:40:59Z</time>
      </trkpt>
      <trkpt lat="45.12642" lon="5.21045">
        <ele>307.8</ele>
        <time>2010-10-17T07:41:01Z</time>
      </trkpt>
      <trkpt lat="45.12645" lon="5.21049">
        <ele>305.9</ele>
        <time>2010-10-17T07:41:03Z</time>
      </trkpt>
      <trkpt lat="45.12655" lon="5.21054">
        <ele>305.5</ele>
        <time>2010-10-17T07:41:05Z</time>
      </trkpt>
      <trkpt lat="45.12661" lon="5.2106">
        <ele>305</ele>
        <time>2010-10-17T07:41:07Z</time>
      </trkpt>
      <trkpt lat="45.12665" lon="5.21068">
        <ele>305.2</ele>
        <time>2010-10-17T07:41:09Z</time>
      </trkpt>
      <trkpt lat="45.12666" lon="5.21078">
        <ele>304.8</ele>
        <time>2010-10-17T07:41:11Z</time>
      </trkpt>
      <trkpt lat="45.12663" lon="5.21091">
        <ele>303.3</ele>
        <time>2010-10-17T07:41:13Z</time>
      </trkpt>
      <trkpt lat="45.1266" lon="5.21101">
        <ele>302.2</ele>
        <time>2010-10-17T07:41:15Z</time>
      </trkpt>
      <trkpt lat="45.12657" lon="5.21111">
        <ele>301.1</ele>
        <time>2010-10-17T07:41:17Z</time>
      </trkpt>
      <trkpt lat="45.12653" lon="5.21121">
        <ele>299.1</ele>
        <time>2010-10-17T07:41:19Z</time>
      </trkpt>
      <trkpt lat="45.1265" lon="5.2113">
        <ele>297.8</ele>
        <time>2010-10-17T07:41:21Z</time>
      </trkpt>
      <trkpt lat="45.12647" lon="5.21141">
        <ele>297.6</ele>
        <time>2010-10-17T07:41:23Z</time>
      </trkpt>
      <trkpt lat="45.12643" lon="5.21154">
        <ele>297</ele>
        <time>2010-10-17T07:41:25Z</time>
      </trkpt>
      <trkpt lat="45.12639" lon="5.21167">
        <ele>296.1</ele>
        <time>2010-10-17T07:41:27Z</time>
      </trkpt>
      <trkpt lat="45.12636" lon="5.21178">
        <ele>296.3</ele>
        <time>2010-10-17T07:41:29Z</time>
      </trkpt>
      <trkpt lat="45.12633" lon="5.2119">
        <ele>296.6</ele>
        <time>2010-10-17T07:41:31Z</time>
      </trkpt>
      <trkpt lat="45.12632" lon="5.21202">
        <ele>296</ele>
        <time>2010-10-17T07:41:33Z</time>
      </trkpt>
      <trkpt lat="45.12631" lon="5.21214">
        <ele>295.3</ele>
        <time>2010-10-17T07:41:35Z</time>
      </trkpt>
      <trkpt lat="45.12629" lon="5.21226">
        <ele>293.1</ele>
        <time>2010-10-17T07:41:37Z</time>
      </trkpt>
      <trkpt lat="45.12627" lon="5.21237">
        <ele>293.1</ele>
        <time>2010-10-17T07:41:39Z</time>
      </trkpt>
      <trkpt lat="45.12626" lon="5.21246">
        <ele>292.3</ele>
        <time>2010-10-17T07:41:41Z</time>
      </trkpt>
      <trkpt lat="45.12625" lon="5.21257">
        <ele>291.8</ele>
        <time>2010-10-17T07:41:43Z</time>
      </trkpt>
      <trkpt lat="45.12624" lon="5.21269">
        <ele>290.6</ele>
        <time>2010-10-17T07:41:45Z</time>
      </trkpt>
      <trkpt lat="45.12622" lon="5.2128">
        <ele>289</ele>
        <time>2010-10-17T07:41:47Z</time>
      </trkpt>
      <trkpt lat="45.12621" lon="5.21292">
        <ele>288</ele>
        <time>2010-10-17T07:41:49Z</time>
      </trkpt>
      <trkpt lat="45.1262" lon="5.21303">
        <ele>287</ele>
        <time>2010-10-17T07:41:51Z</time>
      </trkpt>
      <trkpt lat="45.12618" lon="5.21316">
        <ele>286.8</ele>
        <time>2010-10-17T07:41:53Z</time>
      </trkpt>
      <trkpt lat="45.12616" lon="5.21329">
        <ele>286.3</ele>
        <time>2010-10-17T07:41:55Z</time>
      </trkpt>
      <trkpt lat="45.12615" lon="5.21342">
        <ele>286.6</ele>
        <time>2010-10-17T07:41:57Z</time>
      </trkpt>
      <trkpt lat="45.12615" lon="5.21355">
        <ele>286.5</ele>
        <time>2010-10-17T07:41:59Z</time>
      </trkpt>
      <trkpt lat="45.12616" lon="5.21367">
        <ele>287.5</ele>
        <time>2010-10-17T07:42:01Z</time>
      </trkpt>
      <trkpt lat="45.12618" lon="5.21377">
        <ele>287.9</ele>
        <time>2010-10-17T07:42:03Z</time>
      </trkpt>
      <trkpt lat="45.12619" lon="5.21386">
        <ele>288</ele>
        <time>2010-10-17T07:42:05Z</time>
      </trkpt>
      <trkpt lat="45.1262" lon="5.21396">
        <ele>289.6</ele>
        <time>2010-10-17T07:42:07Z</time>
      </trkpt>
      <trkpt lat="45.12622" lon="5.21409">
        <ele>292.8</ele>
        <time>2010-10-17T07:42:09Z</time>
      </trkpt>
      <trkpt lat="45.12619" lon="5.2142">
        <ele>294.1</ele>
        <time>2010-10-17T07:42:11Z</time>
      </trkpt>
      <trkpt lat="45.12615" lon="5.21427">
        <ele>294.4</ele>
        <time>2010-10-17T07:42:13Z</time>
      </trkpt>
      <trkpt lat="45.12608" lon="5.21435">
        <ele>294.4</ele>
        <time>2010-10-17T07:42:15Z</time>
      </trkpt>
      <trkpt lat="45.12602" lon="5.21443">
        <ele>294.6</ele>
        <time>2010-10-17T07:42:17Z</time>
      </trkpt>
      <trkpt lat="45.12597" lon="5.21453">
        <ele>296</ele>
        <time>2010-10-17T07:42:19Z</time>
      </trkpt>
      <trkpt lat="45.1259" lon="5.21463">
        <ele>295.8</ele>
        <time>2010-10-17T07:42:21Z</time>
      </trkpt>
      <trkpt lat="45.12584" lon="5.21473">
        <ele>294.7</ele>
        <time>2010-10-17T07:42:23Z</time>
      </trkpt>
      <trkpt lat="45.12579" lon="5.21483">
        <ele>292.8</ele>
        <time>2010-10-17T07:42:25Z</time>
      </trkpt>
      <trkpt lat="45.12574" lon="5.21493">
        <ele>293.1</ele>
        <time>2010-10-17T07:42:27Z</time>
      </trkpt>
      <trkpt lat="45.12568" lon="5.21502">
        <ele>292.8</ele>
        <time>2010-10-17T07:42:29Z</time>
      </trkpt>
      <trkpt lat="45.1256" lon="5.21511">
        <ele>292.8</ele>
        <time>2010-10-17T07:42:31Z</time>
      </trkpt>
      <trkpt lat="45.12551" lon="5.2152">
        <ele>292.6</ele>
        <time>2010-10-17T07:42:33Z</time>
      </trkpt>
      <trkpt lat="45.12541" lon="5.21528">
        <ele>292.7</ele>
        <time>2010-10-17T07:42:35Z</time>
      </trkpt>
      <trkpt lat="45.12535" lon="5.21535">
        <ele>292.5</ele>
        <time>2010-10-17T07:42:37Z</time>
      </trkpt>
      <trkpt lat="45.12531" lon="5.21539">
        <ele>291.7</ele>
        <time>2010-10-17T07:42:39Z</time>
      </trkpt>
      <trkpt lat="45.12528" lon="5.21542">
        <ele>289.6</ele>
        <time>2010-10-17T07:42:41Z</time>
      </trkpt>
      <trkpt lat="45.12526" lon="5.21545">
        <ele>288.1</ele>
        <time>2010-10-17T07:42:43Z</time>
      </trkpt>
      <trkpt lat="45.12523" lon="5.21548">
        <ele>287.7</ele>
        <time>2010-10-17T07:42:45Z</time>
      </trkpt>
      <trkpt lat="45.12519" lon="5.2155">
        <ele>286.8</ele>
        <time>2010-10-17T07:42:47Z</time>
      </trkpt>
      <trkpt lat="45.12514" lon="5.21552">
        <ele>286.1</ele>
        <time>2010-10-17T07:42:49Z</time>
      </trkpt>
      <trkpt lat="45.12507" lon="5.21554">
        <ele>285.4</ele>
        <time>2010-10-17T07:42:51Z</time>
      </trkpt>
      <trkpt lat="45.125" lon="5.21555">
        <ele>285.8</ele>
        <time>2010-10-17T07:42:53Z</time>
      </trkpt>
      <trkpt lat="45.12493" lon="5.21557">
        <ele>286.3</ele>
        <time>2010-10-17T07:42:55Z</time>
      </trkpt>
      <trkpt lat="45.12488" lon="5.21559">
        <ele>286.1</ele>
        <time>2010-10-17T07:42:57Z</time>
      </trkpt>
      <trkpt lat="45.12482" lon="5.21559">
        <ele>285.6</ele>
        <time>2010-10-17T07:42:59Z</time>
      </trkpt>
      <trkpt lat="45.12476" lon="5.21559">
        <ele>285.5</ele>
        <time>2010-10-17T07:43:01Z</time>
      </trkpt>
      <trkpt lat="45.1247" lon="5.21559">
        <ele>285.4</ele>
        <time>2010-10-17T07:43:03Z</time>
      </trkpt>
      <trkpt lat="45.12467" lon="5.21562">
        <ele>284.4</ele>
        <time>2010-10-17T07:43:05Z</time>
      </trkpt>
      <trkpt lat="45.12467" lon="5.21566">
        <ele>283</ele>
        <time>2010-10-17T07:43:08Z</time>
      </trkpt>
      <trkpt lat="45.12469" lon="5.2157">
        <ele>282.4</ele>
        <time>2010-10-17T07:43:10Z</time>
      </trkpt>
      <trkpt lat="45.12471" lon="5.21576">
        <ele>283.5</ele>
        <time>2010-10-17T07:43:12Z</time>
      </trkpt>
      <trkpt lat="45.12471" lon="5.21581">
        <ele>283.5</ele>
        <time>2010-10-17T07:43:14Z</time>
      </trkpt>
      <trkpt lat="45.12472" lon="5.21586">
        <ele>284</ele>
        <time>2010-10-17T07:43:16Z</time>
      </trkpt>
      <trkpt lat="45.12473" lon="5.21591">
        <ele>284</ele>
        <time>2010-10-17T07:43:18Z</time>
      </trkpt>
      <trkpt lat="45.12474" lon="5.21595">
        <ele>284</ele>
        <time>2010-10-17T07:43:20Z</time>
      </trkpt>
      <trkpt lat="45.12475" lon="5.21599">
        <ele>284</ele>
        <time>2010-10-17T07:43:22Z</time>
      </trkpt>
      <trkpt lat="45.12476" lon="5.21604">
        <ele>283.8</ele>
        <time>2010-10-17T07:43:24Z</time>
      </trkpt>
      <trkpt lat="45.12476" lon="5.2161">
        <ele>283.7</ele>
        <time>2010-10-17T07:43:26Z</time>
      </trkpt>
      <trkpt lat="45.12477" lon="5.21616">
        <ele>283.7</ele>
        <time>2010-10-17T07:43:28Z</time>
      </trkpt>
      <trkpt lat="45.12478" lon="5.21626">
        <ele>283</ele>
        <time>2010-10-17T07:43:30Z</time>
      </trkpt>
      <trkpt lat="45.12479" lon="5.21635">
        <ele>282.6</ele>
        <time>2010-10-17T07:43:32Z</time>
      </trkpt>
      <trkpt lat="45.12485" lon="5.21651">
        <ele>279</ele>
        <time>2010-10-17T07:43:34Z</time>
      </trkpt>
      <trkpt lat="45.12486" lon="5.21659">
        <ele>278.6</ele>
        <time>2010-10-17T07:43:36Z</time>
      </trkpt>
      <trkpt lat="45.12489" lon="5.21667">
        <ele>277.7</ele>
        <time>2010-10-17T07:43:38Z</time>
      </trkpt>
      <trkpt lat="45.12494" lon="5.21673">
        <ele>277</ele>
        <time>2010-10-17T07:43:40Z</time>
      </trkpt>
      <trkpt lat="45.12498" lon="5.21679">
        <ele>277</ele>
        <time>2010-10-17T07:43:42Z</time>
      </trkpt>
      <trkpt lat="45.12497" lon="5.21685">
        <ele>277.5</ele>
        <time>2010-10-17T07:43:44Z</time>
      </trkpt>
      <trkpt lat="45.12493" lon="5.2169">
        <ele>276.4</ele>
        <time>2010-10-17T07:43:46Z</time>
      </trkpt>
      <trkpt lat="45.12488" lon="5.21696">
        <ele>275.9</ele>
        <time>2010-10-17T07:43:48Z</time>
      </trkpt>
      <trkpt lat="45.1248" lon="5.21702">
        <ele>276.3</ele>
        <time>2010-10-17T07:43:50Z</time>
      </trkpt>
      <trkpt lat="45.12475" lon="5.2171">
        <ele>276.3</ele>
        <time>2010-10-17T07:43:52Z</time>
      </trkpt>
      <trkpt lat="45.12465" lon="5.21717">
        <ele>276.4</ele>
        <time>2010-10-17T07:43:54Z</time>
      </trkpt>
      <trkpt lat="45.12454" lon="5.21725">
        <ele>276.3</ele>
        <time>2010-10-17T07:43:56Z</time>
      </trkpt>
      <trkpt lat="45.12445" lon="5.21738">
        <ele>276.5</ele>
        <time>2010-10-17T07:43:58Z</time>
      </trkpt>
      <trkpt lat="45.12433" lon="5.21757">
        <ele>277</ele>
        <time>2010-10-17T07:44:00Z</time>
      </trkpt>
      <trkpt lat="45.12418" lon="5.21774">
        <ele>275.9</ele>
        <time>2010-10-17T07:44:02Z</time>
      </trkpt>
      <trkpt lat="45.12406" lon="5.21788">
        <ele>275.7</ele>
        <time>2010-10-17T07:44:04Z</time>
      </trkpt>
      <trkpt lat="45.12395" lon="5.21803">
        <ele>275.5</ele>
        <time>2010-10-17T07:44:06Z</time>
      </trkpt>
      <trkpt lat="45.12385" lon="5.21818">
        <ele>275.4</ele>
        <time>2010-10-17T07:44:08Z</time>
      </trkpt>
      <trkpt lat="45.12374" lon="5.2183">
        <ele>274.3</ele>
        <time>2010-10-17T07:44:10Z</time>
      </trkpt>
      <trkpt lat="45.12363" lon="5.21843">
        <ele>274.3</ele>
        <time>2010-10-17T07:44:12Z</time>
      </trkpt>
      <trkpt lat="45.12354" lon="5.21858">
        <ele>273.9</ele>
        <time>2010-10-17T07:44:14Z</time>
      </trkpt>
      <trkpt lat="45.12347" lon="5.21872">
        <ele>273.7</ele>
        <time>2010-10-17T07:44:16Z</time>
      </trkpt>
      <trkpt lat="45.1234" lon="5.21886">
        <ele>274.7</ele>
        <time>2010-10-17T07:44:18Z</time>
      </trkpt>
      <trkpt lat="45.12333" lon="5.21899">
        <ele>274.9</ele>
        <time>2010-10-17T07:44:20Z</time>
      </trkpt>
      <trkpt lat="45.12328" lon="5.21913">
        <ele>274.8</ele>
        <time>2010-10-17T07:44:22Z</time>
      </trkpt>
      <trkpt lat="45.12325" lon="5.21928">
        <ele>274.8</ele>
        <time>2010-10-17T07:44:24Z</time>
      </trkpt>
      <trkpt lat="45.12322" lon="5.21943">
        <ele>274.5</ele>
        <time>2010-10-17T07:44:26Z</time>
      </trkpt>
      <trkpt lat="45.1232" lon="5.21956">
        <ele>274.6</ele>
        <time>2010-10-17T07:44:28Z</time>
      </trkpt>
      <trkpt lat="45.12318" lon="5.21969">
        <ele>274.2</ele>
        <time>2010-10-17T07:44:30Z</time>
      </trkpt>
      <trkpt lat="45.12316" lon="5.21979">
        <ele>273.3</ele>
        <time>2010-10-17T07:44:32Z</time>
      </trkpt>
      <trkpt lat="45.12315" lon="5.2199">
        <ele>273.5</ele>
        <time>2010-10-17T07:44:34Z</time>
      </trkpt>
      <trkpt lat="45.12317" lon="5.22001">
        <ele>274</ele>
        <time>2010-10-17T07:44:36Z</time>
      </trkpt>
      <trkpt lat="45.12312" lon="5.22012">
        <ele>275.5</ele>
        <time>2010-10-17T07:44:38Z</time>
      </trkpt>
      <trkpt lat="45.1231" lon="5.22022">
        <ele>276.5</ele>
        <time>2010-10-17T07:44:40Z</time>
      </trkpt>
      <trkpt lat="45.12309" lon="5.2203">
        <ele>277.2</ele>
        <time>2010-10-17T07:44:42Z</time>
      </trkpt>
      <trkpt lat="45.12307" lon="5.22036">
        <ele>277.3</ele>
        <time>2010-10-17T07:44:44Z</time>
      </trkpt>
      <trkpt lat="45.12305" lon="5.22043">
        <ele>277.5</ele>
        <time>2010-10-17T07:44:46Z</time>
      </trkpt>
      <trkpt lat="45.12304" lon="5.22048">
        <ele>277</ele>
        <time>2010-10-17T07:44:48Z</time>
      </trkpt>
      <trkpt lat="45.12303" lon="5.22053">
        <ele>276.7</ele>
        <time>2010-10-17T07:44:50Z</time>
      </trkpt>
      <trkpt lat="45.12302" lon="5.22058">
        <ele>275.5</ele>
        <time>2010-10-17T07:44:53Z</time>
      </trkpt>
      <trkpt lat="45.12301" lon="5.22063">
        <ele>274.5</ele>
        <time>2010-10-17T07:44:56Z</time>
      </trkpt>
      <trkpt lat="45.12299" lon="5.22063">
        <ele>275</ele>
        <time>2010-10-17T07:44:59Z</time>
      </trkpt>
      <trkpt lat="45.12298" lon="5.22065">
        <ele>275.1</ele>
        <time>2010-10-17T07:45:26Z</time>
      </trkpt>
      <trkpt lat="45.12298" lon="5.22066">
        <ele>275.1</ele>
        <time>2010-10-17T07:45:31Z</time>
      </trkpt>
      <trkpt lat="45.12299" lon="5.22068">
        <ele>274.5</ele>
        <time>2010-10-17T07:45:35Z</time>
      </trkpt>
      <trkpt lat="45.12298" lon="5.22074">
        <ele>273.4</ele>
        <time>2010-10-17T07:45:37Z</time>
      </trkpt>
      <trkpt lat="45.12298" lon="5.22083">
        <ele>272.3</ele>
        <time>2010-10-17T07:45:39Z</time>
      </trkpt>
      <trkpt lat="45.12295" lon="5.22094">
        <ele>271.6</ele>
        <time>2010-10-17T07:45:41Z</time>
      </trkpt>
      <trkpt lat="45.12289" lon="5.22107">
        <ele>271.7</ele>
        <time>2010-10-17T07:45:43Z</time>
      </trkpt>
      <trkpt lat="45.1228" lon="5.22123">
        <ele>271.7</ele>
        <time>2010-10-17T07:45:45Z</time>
      </trkpt>
      <trkpt lat="45.1227" lon="5.22141">
        <ele>271.8</ele>
        <time>2010-10-17T07:45:47Z</time>
      </trkpt>
      <trkpt lat="45.12261" lon="5.22163">
        <ele>269.9</ele>
        <time>2010-10-17T07:45:49Z</time>
      </trkpt>
      <trkpt lat="45.12255" lon="5.22187">
        <ele>268.5</ele>
        <time>2010-10-17T07:45:51Z</time>
      </trkpt>
      <trkpt lat="45.12249" lon="5.2221">
        <ele>266.6</ele>
        <time>2010-10-17T07:45:53Z</time>
      </trkpt>
      <trkpt lat="45.12242" lon="5.2223">
        <ele>266.4</ele>
        <time>2010-10-17T07:45:55Z</time>
      </trkpt>
      <trkpt lat="45.12233" lon="5.22248">
        <ele>266</ele>
        <time>2010-10-17T07:45:57Z</time>
      </trkpt>
      <trkpt lat="45.12226" lon="5.22262">
        <ele>265.1</ele>
        <time>2010-10-17T07:45:59Z</time>
      </trkpt>
      <trkpt lat="45.12218" lon="5.22276">
        <ele>264.7</ele>
        <time>2010-10-17T07:46:01Z</time>
      </trkpt>
      <trkpt lat="45.12208" lon="5.22288">
        <ele>264.8</ele>
        <time>2010-10-17T07:46:03Z</time>
      </trkpt>
      <trkpt lat="45.12205" lon="5.22296">
        <ele>263.9</ele>
        <time>2010-10-17T07:46:05Z</time>
      </trkpt>
      <trkpt lat="45.12205" lon="5.22296">
        <ele>263.2</ele>
        <time>2010-10-17T07:46:07Z</time>
      </trkpt>
      <trkpt lat="45.12208" lon="5.22294">
        <ele>263</ele>
        <time>2010-10-17T07:46:12Z</time>
      </trkpt>
      <trkpt lat="45.1221" lon="5.22296">
        <ele>263.2</ele>
        <time>2010-10-17T07:46:16Z</time>
      </trkpt>
      <trkpt lat="45.12213" lon="5.22297">
        <ele>262.6</ele>
        <time>2010-10-17T07:46:18Z</time>
      </trkpt>
      <trkpt lat="45.12217" lon="5.22299">
        <ele>260.4</ele>
        <time>2010-10-17T07:46:20Z</time>
      </trkpt>
      <trkpt lat="45.12222" lon="5.22303">
        <ele>258.3</ele>
        <time>2010-10-17T07:46:22Z</time>
      </trkpt>
      <trkpt lat="45.12231" lon="5.2231">
        <ele>257.5</ele>
        <time>2010-10-17T07:46:24Z</time>
      </trkpt>
      <trkpt lat="45.12243" lon="5.22318">
        <ele>257.7</ele>
        <time>2010-10-17T07:46:26Z</time>
      </trkpt>
      <trkpt lat="45.12257" lon="5.22325">
        <ele>257.3</ele>
        <time>2010-10-17T07:46:28Z</time>
      </trkpt>
      <trkpt lat="45.12271" lon="5.22331">
        <ele>256.2</ele>
        <time>2010-10-17T07:46:30Z</time>
      </trkpt>
      <trkpt lat="45.12285" lon="5.22338">
        <ele>254.8</ele>
        <time>2010-10-17T07:46:32Z</time>
      </trkpt>
      <trkpt lat="45.12298" lon="5.22345">
        <ele>254.4</ele>
        <time>2010-10-17T07:46:34Z</time>
      </trkpt>
      <trkpt lat="45.12307" lon="5.22355">
        <ele>253.8</ele>
        <time>2010-10-17T07:46:36Z</time>
      </trkpt>
      <trkpt lat="45.12315" lon="5.22364">
        <ele>253.5</ele>
        <time>2010-10-17T07:46:38Z</time>
      </trkpt>
      <trkpt lat="45.12323" lon="5.22372">
        <ele>253.2</ele>
        <time>2010-10-17T07:46:40Z</time>
      </trkpt>
      <trkpt lat="45.12329" lon="5.2238">
        <ele>252.9</ele>
        <time>2010-10-17T07:46:42Z</time>
      </trkpt>
      <trkpt lat="45.12334" lon="5.22387">
        <ele>252.5</ele>
        <time>2010-10-17T07:46:44Z</time>
      </trkpt>
      <trkpt lat="45.12337" lon="5.22393">
        <ele>252.2</ele>
        <time>2010-10-17T07:46:46Z</time>
      </trkpt>
      <trkpt lat="45.1234" lon="5.22402">
        <ele>251.1</ele>
        <time>2010-10-17T07:46:48Z</time>
      </trkpt>
      <trkpt lat="45.12343" lon="5.22409">
        <ele>250.1</ele>
        <time>2010-10-17T07:46:50Z</time>
      </trkpt>
      <trkpt lat="45.12347" lon="5.22417">
        <ele>249.8</ele>
        <time>2010-10-17T07:46:52Z</time>
      </trkpt>
      <trkpt lat="45.1235" lon="5.22424">
        <ele>249.2</ele>
        <time>2010-10-17T07:46:54Z</time>
      </trkpt>
      <trkpt lat="45.12354" lon="5.22433">
        <ele>249.2</ele>
        <time>2010-10-17T07:46:56Z</time>
      </trkpt>
      <trkpt lat="45.12359" lon="5.22443">
        <ele>248.6</ele>
        <time>2010-10-17T07:46:58Z</time>
      </trkpt>
      <trkpt lat="45.12371" lon="5.22456">
        <ele>246.6</ele>
        <time>2010-10-17T07:47:00Z</time>
      </trkpt>
      <trkpt lat="45.12379" lon="5.22468">
        <ele>246.3</ele>
        <time>2010-10-17T07:47:02Z</time>
      </trkpt>
      <trkpt lat="45.12383" lon="5.22477">
        <ele>247.4</ele>
        <time>2010-10-17T07:47:04Z</time>
      </trkpt>
      <trkpt lat="45.12386" lon="5.22486">
        <ele>248.2</ele>
        <time>2010-10-17T07:47:06Z</time>
      </trkpt>
      <trkpt lat="45.12392" lon="5.22496">
        <ele>247.3</ele>
        <time>2010-10-17T07:47:08Z</time>
      </trkpt>
      <trkpt lat="45.12396" lon="5.22508">
        <ele>246.5</ele>
        <time>2010-10-17T07:47:10Z</time>
      </trkpt>
      <trkpt lat="45.12403" lon="5.22523">
        <ele>247.4</ele>
        <time>2010-10-17T07:47:12Z</time>
      </trkpt>
      <trkpt lat="45.12409" lon="5.22534">
        <ele>249.5</ele>
        <time>2010-10-17T07:47:14Z</time>
      </trkpt>
      <trkpt lat="45.12414" lon="5.22543">
        <ele>250.9</ele>
        <time>2010-10-17T07:47:16Z</time>
      </trkpt>
      <trkpt lat="45.12418" lon="5.22553">
        <ele>251.6</ele>
        <time>2010-10-17T07:47:18Z</time>
      </trkpt>
      <trkpt lat="45.12422" lon="5.22564">
        <ele>252.7</ele>
        <time>2010-10-17T07:47:20Z</time>
      </trkpt>
      <trkpt lat="45.12424" lon="5.22574">
        <ele>253.4</ele>
        <time>2010-10-17T07:47:22Z</time>
      </trkpt>
      <trkpt lat="45.12427" lon="5.22583">
        <ele>253.4</ele>
        <time>2010-10-17T07:47:24Z</time>
      </trkpt>
      <trkpt lat="45.12431" lon="5.22591">
        <ele>252</ele>
        <time>2010-10-17T07:47:26Z</time>
      </trkpt>
      <trkpt lat="45.12433" lon="5.22598">
        <ele>251.2</ele>
        <time>2010-10-17T07:47:28Z</time>
      </trkpt>
      <trkpt lat="45.12433" lon="5.22607">
        <ele>250.9</ele>
        <time>2010-10-17T07:47:30Z</time>
      </trkpt>
      <trkpt lat="45.12435" lon="5.22613">
        <ele>250.9</ele>
        <time>2010-10-17T07:47:32Z</time>
      </trkpt>
      <trkpt lat="45.12435" lon="5.22618">
        <ele>250.9</ele>
        <time>2010-10-17T07:47:34Z</time>
      </trkpt>
      <trkpt lat="45.12435" lon="5.22625">
        <ele>250.1</ele>
        <time>2010-10-17T07:47:36Z</time>
      </trkpt>
      <trkpt lat="45.12435" lon="5.22631">
        <ele>248.3</ele>
        <time>2010-10-17T07:47:38Z</time>
      </trkpt>
      <trkpt lat="45.12434" lon="5.22639">
        <ele>247.5</ele>
        <time>2010-10-17T07:47:40Z</time>
      </trkpt>
      <trkpt lat="45.12436" lon="5.22645">
        <ele>247.1</ele>
        <time>2010-10-17T07:47:42Z</time>
      </trkpt>
      <trkpt lat="45.12438" lon="5.22649">
        <ele>246.6</ele>
        <time>2010-10-17T07:47:44Z</time>
      </trkpt>
      <trkpt lat="45.1244" lon="5.22655">
        <ele>246.6</ele>
        <time>2010-10-17T07:47:46Z</time>
      </trkpt>
      <trkpt lat="45.12443" lon="5.22661">
        <ele>246.5</ele>
        <time>2010-10-17T07:47:48Z</time>
      </trkpt>
      <trkpt lat="45.12446" lon="5.22666">
        <ele>247.8</ele>
        <time>2010-10-17T07:47:50Z</time>
      </trkpt>
      <trkpt lat="45.12449" lon="5.22671">
        <ele>247.9</ele>
        <time>2010-10-17T07:47:52Z</time>
      </trkpt>
      <trkpt lat="45.12452" lon="5.22676">
        <ele>247.6</ele>
        <time>2010-10-17T07:47:54Z</time>
      </trkpt>
      <trkpt lat="45.12454" lon="5.2268">
        <ele>247.5</ele>
        <time>2010-10-17T07:47:56Z</time>
      </trkpt>
      <trkpt lat="45.12457" lon="5.22684">
        <ele>248.1</ele>
        <time>2010-10-17T07:47:58Z</time>
      </trkpt>
      <trkpt lat="45.12461" lon="5.22687">
        <ele>247.5</ele>
        <time>2010-10-17T07:48:00Z</time>
      </trkpt>
      <trkpt lat="45.12464" lon="5.22689">
        <ele>247.3</ele>
        <time>2010-10-17T07:48:02Z</time>
      </trkpt>
      <trkpt lat="45.12466" lon="5.22693">
        <ele>248.3</ele>
        <time>2010-10-17T07:48:04Z</time>
      </trkpt>
      <trkpt lat="45.12469" lon="5.22696">
        <ele>248.8</ele>
        <time>2010-10-17T07:48:06Z</time>
      </trkpt>
      <trkpt lat="45.12472" lon="5.22696">
        <ele>248.7</ele>
        <time>2010-10-17T07:48:08Z</time>
      </trkpt>
      <trkpt lat="45.12476" lon="5.22696">
        <ele>249.3</ele>
        <time>2010-10-17T07:48:10Z</time>
      </trkpt>
      <trkpt lat="45.1248" lon="5.22696">
        <ele>249.3</ele>
        <time>2010-10-17T07:48:12Z</time>
      </trkpt>
      <trkpt lat="45.12484" lon="5.22695">
        <ele>249.4</ele>
        <time>2010-10-17T07:48:14Z</time>
      </trkpt>
      <trkpt lat="45.1249" lon="5.22694">
        <ele>249.4</ele>
        <time>2010-10-17T07:48:16Z</time>
      </trkpt>
      <trkpt lat="45.12494" lon="5.22693">
        <ele>249.3</ele>
        <time>2010-10-17T07:48:18Z</time>
      </trkpt>
      <trkpt lat="45.12499" lon="5.22689">
        <ele>249.4</ele>
        <time>2010-10-17T07:48:20Z</time>
      </trkpt>
      <trkpt lat="45.12504" lon="5.22688">
        <ele>249.3</ele>
        <time>2010-10-17T07:48:22Z</time>
      </trkpt>
      <trkpt lat="45.12509" lon="5.22686">
        <ele>248.8</ele>
        <time>2010-10-17T07:48:24Z</time>
      </trkpt>
      <trkpt lat="45.12514" lon="5.22685">
        <ele>249.4</ele>
        <time>2010-10-17T07:48:26Z</time>
      </trkpt>
      <trkpt lat="45.12518" lon="5.22686">
        <ele>249.9</ele>
        <time>2010-10-17T07:48:28Z</time>
      </trkpt>
      <trkpt lat="45.12521" lon="5.22684">
        <ele>251.2</ele>
        <time>2010-10-17T07:48:30Z</time>
      </trkpt>
      <trkpt lat="45.12525" lon="5.22683">
        <ele>252.6</ele>
        <time>2010-10-17T07:48:32Z</time>
      </trkpt>
      <trkpt lat="45.1253" lon="5.22683">
        <ele>253.2</ele>
        <time>2010-10-17T07:48:34Z</time>
      </trkpt>
      <trkpt lat="45.12534" lon="5.22683">
        <ele>253.9</ele>
        <time>2010-10-17T07:48:36Z</time>
      </trkpt>
      <trkpt lat="45.12538" lon="5.22681">
        <ele>254.6</ele>
        <time>2010-10-17T07:48:38Z</time>
      </trkpt>
      <trkpt lat="45.12539" lon="5.22678">
        <ele>255.8</ele>
        <time>2010-10-17T07:48:40Z</time>
      </trkpt>
      <trkpt lat="45.12541" lon="5.22675">
        <ele>255.6</ele>
        <time>2010-10-17T07:48:42Z</time>
      </trkpt>
      <trkpt lat="45.12543" lon="5.22673">
        <ele>255.4</ele>
        <time>2010-10-17T07:48:44Z</time>
      </trkpt>
      <trkpt lat="45.12545" lon="5.22671">
        <ele>255.2</ele>
        <time>2010-10-17T07:48:46Z</time>
      </trkpt>
      <trkpt lat="45.12547" lon="5.22667">
        <ele>255.5</ele>
        <time>2010-10-17T07:48:48Z</time>
      </trkpt>
      <trkpt lat="45.12548" lon="5.22664">
        <ele>255.9</ele>
        <time>2010-10-17T07:48:50Z</time>
      </trkpt>
      <trkpt lat="45.12551" lon="5.2266">
        <ele>255.9</ele>
        <time>2010-10-17T07:48:52Z</time>
      </trkpt>
      <trkpt lat="45.12552" lon="5.22657">
        <ele>254.9</ele>
        <time>2010-10-17T07:48:54Z</time>
      </trkpt>
      <trkpt lat="45.12555" lon="5.22654">
        <ele>255.1</ele>
        <time>2010-10-17T07:48:57Z</time>
      </trkpt>
      <trkpt lat="45.12557" lon="5.22651">
        <ele>255.3</ele>
        <time>2010-10-17T07:48:59Z</time>
      </trkpt>
      <trkpt lat="45.1256" lon="5.22649">
        <ele>255.3</ele>
        <time>2010-10-17T07:49:01Z</time>
      </trkpt>
      <trkpt lat="45.12563" lon="5.22648">
        <ele>255.6</ele>
        <time>2010-10-17T07:49:04Z</time>
      </trkpt>
      <trkpt lat="45.12566" lon="5.22647">
        <ele>256.1</ele>
        <time>2010-10-17T07:49:06Z</time>
      </trkpt>
      <trkpt lat="45.12569" lon="5.22646">
        <ele>256.8</ele>
        <time>2010-10-17T07:49:08Z</time>
      </trkpt>
      <trkpt lat="45.12573" lon="5.22646">
        <ele>257.1</ele>
        <time>2010-10-17T07:49:10Z</time>
      </trkpt>
      <trkpt lat="45.12576" lon="5.22646">
        <ele>257.4</ele>
        <time>2010-10-17T07:49:12Z</time>
      </trkpt>
      <trkpt lat="45.12579" lon="5.22647">
        <ele>258.3</ele>
        <time>2010-10-17T07:49:14Z</time>
      </trkpt>
      <trkpt lat="45.12582" lon="5.22647">
        <ele>258.7</ele>
        <time>2010-10-17T07:49:16Z</time>
      </trkpt>
      <trkpt lat="45.12586" lon="5.22647">
        <ele>259.1</ele>
        <time>2010-10-17T07:49:19Z</time>
      </trkpt>
      <trkpt lat="45.12589" lon="5.22646">
        <ele>259.4</ele>
        <time>2010-10-17T07:49:22Z</time>
      </trkpt>
      <trkpt lat="45.12592" lon="5.22647">
        <ele>259.7</ele>
        <time>2010-10-17T07:49:24Z</time>
      </trkpt>
      <trkpt lat="45.12596" lon="5.22647">
        <ele>259.8</ele>
        <time>2010-10-17T07:49:26Z</time>
      </trkpt>
      <trkpt lat="45.12599" lon="5.22647">
        <ele>259.9</ele>
        <time>2010-10-17T07:49:29Z</time>
      </trkpt>
      <trkpt lat="45.12602" lon="5.22648">
        <ele>260</ele>
        <time>2010-10-17T07:49:33Z</time>
      </trkpt>
      <trkpt lat="45.12606" lon="5.22649">
        <ele>259.8</ele>
        <time>2010-10-17T07:49:36Z</time>
      </trkpt>
      <trkpt lat="45.12608" lon="5.2265">
        <ele>260.2</ele>
        <time>2010-10-17T07:49:38Z</time>
      </trkpt>
      <trkpt lat="45.12611" lon="5.22651">
        <ele>260.3</ele>
        <time>2010-10-17T07:49:40Z</time>
      </trkpt>
      <trkpt lat="45.12616" lon="5.22652">
        <ele>260</ele>
        <time>2010-10-17T07:49:42Z</time>
      </trkpt>
      <trkpt lat="45.12619" lon="5.22652">
        <ele>260.5</ele>
        <time>2010-10-17T07:49:44Z</time>
      </trkpt>
      <trkpt lat="45.12621" lon="5.22651">
        <ele>261</ele>
        <time>2010-10-17T07:49:46Z</time>
      </trkpt>
      <trkpt lat="45.12623" lon="5.22651">
        <ele>260.9</ele>
        <time>2010-10-17T07:49:48Z</time>
      </trkpt>
      <trkpt lat="45.12628" lon="5.2265">
        <ele>261.6</ele>
        <time>2010-10-17T07:49:50Z</time>
      </trkpt>
      <trkpt lat="45.12631" lon="5.22648">
        <ele>262</ele>
        <time>2010-10-17T07:49:52Z</time>
      </trkpt>
      <trkpt lat="45.12633" lon="5.22647">
        <ele>262.2</ele>
        <time>2010-10-17T07:49:54Z</time>
      </trkpt>
      <trkpt lat="45.12636" lon="5.22648">
        <ele>262.7</ele>
        <time>2010-10-17T07:49:56Z</time>
      </trkpt>
      <trkpt lat="45.1264" lon="5.22649">
        <ele>262.8</ele>
        <time>2010-10-17T07:49:58Z</time>
      </trkpt>
      <trkpt lat="45.12642" lon="5.22647">
        <ele>263</ele>
        <time>2010-10-17T07:50:00Z</time>
      </trkpt>
      <trkpt lat="45.12645" lon="5.22645">
        <ele>263</ele>
        <time>2010-10-17T07:50:03Z</time>
      </trkpt>
      <trkpt lat="45.12648" lon="5.22645">
        <ele>264</ele>
        <time>2010-10-17T07:50:06Z</time>
      </trkpt>
      <trkpt lat="45.12651" lon="5.22644">
        <ele>263.9</ele>
        <time>2010-10-17T07:50:08Z</time>
      </trkpt>
      <trkpt lat="45.12654" lon="5.22644">
        <ele>264.3</ele>
        <time>2010-10-17T07:50:10Z</time>
      </trkpt>
      <trkpt lat="45.12656" lon="5.22644">
        <ele>264.5</ele>
        <time>2010-10-17T07:50:12Z</time>
      </trkpt>
      <trkpt lat="45.1266" lon="5.22646">
        <ele>263.9</ele>
        <time>2010-10-17T07:50:15Z</time>
      </trkpt>
      <trkpt lat="45.12665" lon="5.22647">
        <ele>264</ele>
        <time>2010-10-17T07:50:18Z</time>
      </trkpt>
      <trkpt lat="45.12669" lon="5.22648">
        <ele>263.7</ele>
        <time>2010-10-17T07:50:20Z</time>
      </trkpt>
      <trkpt lat="45.12674" lon="5.22649">
        <ele>263.8</ele>
        <time>2010-10-17T07:50:22Z</time>
      </trkpt>
      <trkpt lat="45.12677" lon="5.22648">
        <ele>263.4</ele>
        <time>2010-10-17T07:50:24Z</time>
      </trkpt>
      <trkpt lat="45.12681" lon="5.22647">
        <ele>263.2</ele>
        <time>2010-10-17T07:50:26Z</time>
      </trkpt>
      <trkpt lat="45.12684" lon="5.22645">
        <ele>262.7</ele>
        <time>2010-10-17T07:50:28Z</time>
      </trkpt>
      <trkpt lat="45.12687" lon="5.22644">
        <ele>263</ele>
        <time>2010-10-17T07:50:30Z</time>
      </trkpt>
      <trkpt lat="45.1269" lon="5.22643">
        <ele>263.4</ele>
        <time>2010-10-17T07:50:32Z</time>
      </trkpt>
      <trkpt lat="45.12693" lon="5.22644">
        <ele>264.2</ele>
        <time>2010-10-17T07:50:34Z</time>
      </trkpt>
      <trkpt lat="45.12694" lon="5.2264">
        <ele>267</ele>
        <time>2010-10-17T07:50:37Z</time>
      </trkpt>
      <trkpt lat="45.12693" lon="5.22634">
        <ele>268.4</ele>
        <time>2010-10-17T07:50:39Z</time>
      </trkpt>
      <trkpt lat="45.12688" lon="5.22622">
        <ele>271.7</ele>
        <time>2010-10-17T07:50:41Z</time>
      </trkpt>
      <trkpt lat="45.12681" lon="5.22609">
        <ele>271.9</ele>
        <time>2010-10-17T07:50:43Z</time>
      </trkpt>
      <trkpt lat="45.1268" lon="5.22598">
        <ele>272.3</ele>
        <time>2010-10-17T07:50:45Z</time>
      </trkpt>
      <trkpt lat="45.12683" lon="5.22586">
        <ele>272.5</ele>
        <time>2010-10-17T07:50:47Z</time>
      </trkpt>
      <trkpt lat="45.12687" lon="5.22575">
        <ele>272.5</ele>
        <time>2010-10-17T07:50:49Z</time>
      </trkpt>
      <trkpt lat="45.12692" lon="5.22567">
        <ele>271.3</ele>
        <time>2010-10-17T07:50:51Z</time>
      </trkpt>
      <trkpt lat="45.12698" lon="5.22562">
        <ele>268.8</ele>
        <time>2010-10-17T07:50:53Z</time>
      </trkpt>
      <trkpt lat="45.12703" lon="5.22559">
        <ele>267</ele>
        <time>2010-10-17T07:50:55Z</time>
      </trkpt>
      <trkpt lat="45.12708" lon="5.22558">
        <ele>266.2</ele>
        <time>2010-10-17T07:50:57Z</time>
      </trkpt>
      <trkpt lat="45.12711" lon="5.22559">
        <ele>265.5</ele>
        <time>2010-10-17T07:50:59Z</time>
      </trkpt>
      <trkpt lat="45.12715" lon="5.2256">
        <ele>265</ele>
        <time>2010-10-17T07:51:01Z</time>
      </trkpt>
      <trkpt lat="45.12718" lon="5.22561">
        <ele>264</ele>
        <time>2010-10-17T07:51:03Z</time>
      </trkpt>
      <trkpt lat="45.12721" lon="5.22565">
        <ele>264</ele>
        <time>2010-10-17T07:51:05Z</time>
      </trkpt>
      <trkpt lat="45.12722" lon="5.22567">
        <ele>264.8</ele>
        <time>2010-10-17T07:51:07Z</time>
      </trkpt>
      <trkpt lat="45.1272" lon="5.22566">
        <ele>264.6</ele>
        <time>2010-10-17T07:51:10Z</time>
      </trkpt>
      <trkpt lat="45.12716" lon="5.22564">
        <ele>264.9</ele>
        <time>2010-10-17T07:51:12Z</time>
      </trkpt>
      <trkpt lat="45.12712" lon="5.22563">
        <ele>264.8</ele>
        <time>2010-10-17T07:51:14Z</time>
      </trkpt>
      <trkpt lat="45.12708" lon="5.22562">
        <ele>264.9</ele>
        <time>2010-10-17T07:51:16Z</time>
      </trkpt>
      <trkpt lat="45.12702" lon="5.2256">
        <ele>264</ele>
        <time>2010-10-17T07:51:18Z</time>
      </trkpt>
      <trkpt lat="45.12697" lon="5.22556">
        <ele>264.5</ele>
        <time>2010-10-17T07:51:20Z</time>
      </trkpt>
      <trkpt lat="45.12693" lon="5.22551">
        <ele>265</ele>
        <time>2010-10-17T07:51:22Z</time>
      </trkpt>
      <trkpt lat="45.12692" lon="5.22543">
        <ele>265.2</ele>
        <time>2010-10-17T07:51:24Z</time>
      </trkpt>
      <trkpt lat="45.12693" lon="5.22531">
        <ele>264.8</ele>
        <time>2010-10-17T07:51:26Z</time>
      </trkpt>
      <trkpt lat="45.12696" lon="5.22516">
        <ele>264.5</ele>
        <time>2010-10-17T07:51:28Z</time>
      </trkpt>
      <trkpt lat="45.12697" lon="5.22503">
        <ele>264</ele>
        <time>2010-10-17T07:51:30Z</time>
      </trkpt>
      <trkpt lat="45.12696" lon="5.22494">
        <ele>263.5</ele>
        <time>2010-10-17T07:51:32Z</time>
      </trkpt>
      <trkpt lat="45.12695" lon="5.22487">
        <ele>263.5</ele>
        <time>2010-10-17T07:51:34Z</time>
      </trkpt>
      <trkpt lat="45.12693" lon="5.22478">
        <ele>262.9</ele>
        <time>2010-10-17T07:51:36Z</time>
      </trkpt>
      <trkpt lat="45.12692" lon="5.22468">
        <ele>262</ele>
        <time>2010-10-17T07:51:38Z</time>
      </trkpt>
      <trkpt lat="45.12697" lon="5.22457">
        <ele>261.7</ele>
        <time>2010-10-17T07:51:40Z</time>
      </trkpt>
      <trkpt lat="45.12699" lon="5.22447">
        <ele>261</ele>
        <time>2010-10-17T07:51:42Z</time>
      </trkpt>
      <trkpt lat="45.12701" lon="5.22438">
        <ele>260.5</ele>
        <time>2010-10-17T07:51:44Z</time>
      </trkpt>
      <trkpt lat="45.12702" lon="5.22428">
        <ele>260.8</ele>
        <time>2010-10-17T07:51:46Z</time>
      </trkpt>
      <trkpt lat="45.12705" lon="5.22419">
        <ele>261</ele>
        <time>2010-10-17T07:51:48Z</time>
      </trkpt>
      <trkpt lat="45.12709" lon="5.2241">
        <ele>261</ele>
        <time>2010-10-17T07:51:50Z</time>
      </trkpt>
      <trkpt lat="45.1271" lon="5.22401">
        <ele>261.3</ele>
        <time>2010-10-17T07:51:52Z</time>
      </trkpt>
      <trkpt lat="45.12714" lon="5.22393">
        <ele>261.3</ele>
        <time>2010-10-17T07:51:54Z</time>
      </trkpt>
      <trkpt lat="45.12719" lon="5.22384">
        <ele>261.6</ele>
        <time>2010-10-17T07:51:56Z</time>
      </trkpt>
      <trkpt lat="45.12722" lon="5.22375">
        <ele>261.5</ele>
        <time>2010-10-17T07:51:58Z</time>
      </trkpt>
      <trkpt lat="45.12723" lon="5.22366">
        <ele>261.5</ele>
        <time>2010-10-17T07:52:00Z</time>
      </trkpt>
      <trkpt lat="45.12727" lon="5.22359">
        <ele>261.5</ele>
        <time>2010-10-17T07:52:02Z</time>
      </trkpt>
      <trkpt lat="45.12729" lon="5.22352">
        <ele>260.7</ele>
        <time>2010-10-17T07:52:04Z</time>
      </trkpt>
      <trkpt lat="45.1273" lon="5.22347">
        <ele>260.3</ele>
        <time>2010-10-17T07:52:06Z</time>
      </trkpt>
      <trkpt lat="45.12733" lon="5.22342">
        <ele>259.5</ele>
        <time>2010-10-17T07:52:08Z</time>
      </trkpt>
      <trkpt lat="45.12736" lon="5.22342">
        <ele>258.8</ele>
        <time>2010-10-17T07:52:10Z</time>
      </trkpt>
      <trkpt lat="45.12737" lon="5.22343">
        <ele>258.1</ele>
        <time>2010-10-17T07:52:13Z</time>
      </trkpt>
      <trkpt lat="45.1274" lon="5.22344">
        <ele>257.2</ele>
        <time>2010-10-17T07:52:16Z</time>
      </trkpt>
      <trkpt lat="45.12748" lon="5.22346">
        <ele>257</ele>
        <time>2010-10-17T07:52:18Z</time>
      </trkpt>
      <trkpt lat="45.12754" lon="5.22347">
        <ele>258</ele>
        <time>2010-10-17T07:52:20Z</time>
      </trkpt>
      <trkpt lat="45.1276" lon="5.22352">
        <ele>258.6</ele>
        <time>2010-10-17T07:52:22Z</time>
      </trkpt>
      <trkpt lat="45.12765" lon="5.22356">
        <ele>259.1</ele>
        <time>2010-10-17T07:52:24Z</time>
      </trkpt>
      <trkpt lat="45.12769" lon="5.22358">
        <ele>259.7</ele>
        <time>2010-10-17T07:52:26Z</time>
      </trkpt>
      <trkpt lat="45.12773" lon="5.22361">
        <ele>259.6</ele>
        <time>2010-10-17T07:52:29Z</time>
      </trkpt>
      <trkpt lat="45.12778" lon="5.22362">
        <ele>259.3</ele>
        <time>2010-10-17T07:52:32Z</time>
      </trkpt>
      <trkpt lat="45.12784" lon="5.22366">
        <ele>260.4</ele>
        <time>2010-10-17T07:52:34Z</time>
      </trkpt>
      <trkpt lat="45.12788" lon="5.2237">
        <ele>261</ele>
        <time>2010-10-17T07:52:36Z</time>
      </trkpt>
      <trkpt lat="45.12792" lon="5.22373">
        <ele>260.2</ele>
        <time>2010-10-17T07:52:38Z</time>
      </trkpt>
      <trkpt lat="45.12795" lon="5.22377">
        <ele>260</ele>
        <time>2010-10-17T07:52:40Z</time>
      </trkpt>
      <trkpt lat="45.12801" lon="5.22381">
        <ele>259.6</ele>
        <time>2010-10-17T07:52:42Z</time>
      </trkpt>
      <trkpt lat="45.12804" lon="5.22384">
        <ele>259.8</ele>
        <time>2010-10-17T07:52:44Z</time>
      </trkpt>
      <trkpt lat="45.12807" lon="5.22386">
        <ele>260.2</ele>
        <time>2010-10-17T07:52:46Z</time>
      </trkpt>
      <trkpt lat="45.12812" lon="5.22387">
        <ele>259.8</ele>
        <time>2010-10-17T07:52:48Z</time>
      </trkpt>
      <trkpt lat="45.12816" lon="5.22388">
        <ele>259.6</ele>
        <time>2010-10-17T07:52:50Z</time>
      </trkpt>
      <trkpt lat="45.1282" lon="5.22389">
        <ele>259.1</ele>
        <time>2010-10-17T07:52:52Z</time>
      </trkpt>
      <trkpt lat="45.12823" lon="5.22391">
        <ele>259.4</ele>
        <time>2010-10-17T07:52:54Z</time>
      </trkpt>
      <trkpt lat="45.12826" lon="5.22392">
        <ele>259.5</ele>
        <time>2010-10-17T07:52:56Z</time>
      </trkpt>
      <trkpt lat="45.1283" lon="5.22393">
        <ele>259.1</ele>
        <time>2010-10-17T07:52:58Z</time>
      </trkpt>
      <trkpt lat="45.12834" lon="5.22394">
        <ele>259.3</ele>
        <time>2010-10-17T07:53:00Z</time>
      </trkpt>
      <trkpt lat="45.12838" lon="5.22396">
        <ele>259.1</ele>
        <time>2010-10-17T07:53:02Z</time>
      </trkpt>
      <trkpt lat="45.12842" lon="5.22399">
        <ele>258.7</ele>
        <time>2010-10-17T07:53:04Z</time>
      </trkpt>
      <trkpt lat="45.12845" lon="5.22403">
        <ele>259.1</ele>
        <time>2010-10-17T07:53:06Z</time>
      </trkpt>
      <trkpt lat="45.1285" lon="5.22407">
        <ele>258.8</ele>
        <time>2010-10-17T07:53:08Z</time>
      </trkpt>
      <trkpt lat="45.12854" lon="5.22411">
        <ele>258.4</ele>
        <time>2010-10-17T07:53:10Z</time>
      </trkpt>
      <trkpt lat="45.12858" lon="5.22418">
        <ele>259.8</ele>
        <time>2010-10-17T07:53:12Z</time>
      </trkpt>
      <trkpt lat="45.12863" lon="5.22423">
        <ele>260.8</ele>
        <time>2010-10-17T07:53:14Z</time>
      </trkpt>
      <trkpt lat="45.12867" lon="5.22428">
        <ele>260.9</ele>
        <time>2010-10-17T07:53:16Z</time>
      </trkpt>
      <trkpt lat="45.12871" lon="5.22432">
        <ele>260.6</ele>
        <time>2010-10-17T07:53:18Z</time>
      </trkpt>
      <trkpt lat="45.12876" lon="5.22434">
        <ele>260.3</ele>
        <time>2010-10-17T07:53:20Z</time>
      </trkpt>
      <trkpt lat="45.12881" lon="5.22437">
        <ele>260</ele>
        <time>2010-10-17T07:53:22Z</time>
      </trkpt>
      <trkpt lat="45.12885" lon="5.22441">
        <ele>259.3</ele>
        <time>2010-10-17T07:53:24Z</time>
      </trkpt>
      <trkpt lat="45.1289" lon="5.22445">
        <ele>257.9</ele>
        <time>2010-10-17T07:53:26Z</time>
      </trkpt>
      <trkpt lat="45.12893" lon="5.2245">
        <ele>256.8</ele>
        <time>2010-10-17T07:53:28Z</time>
      </trkpt>
      <trkpt lat="45.12898" lon="5.22456">
        <ele>259</ele>
        <time>2010-10-17T07:53:30Z</time>
      </trkpt>
      <trkpt lat="45.12901" lon="5.22462">
        <ele>260.5</ele>
        <time>2010-10-17T07:53:32Z</time>
      </trkpt>
      <trkpt lat="45.12904" lon="5.22467">
        <ele>260.8</ele>
        <time>2010-10-17T07:53:34Z</time>
      </trkpt>
      <trkpt lat="45.12906" lon="5.22473">
        <ele>260.3</ele>
        <time>2010-10-17T07:53:36Z</time>
      </trkpt>
      <trkpt lat="45.12909" lon="5.22478">
        <ele>260.8</ele>
        <time>2010-10-17T07:53:38Z</time>
      </trkpt>
      <trkpt lat="45.12911" lon="5.22483">
        <ele>261.2</ele>
        <time>2010-10-17T07:53:40Z</time>
      </trkpt>
      <trkpt lat="45.12913" lon="5.2249">
        <ele>261.3</ele>
        <time>2010-10-17T07:53:42Z</time>
      </trkpt>
      <trkpt lat="45.12914" lon="5.22496">
        <ele>261.5</ele>
        <time>2010-10-17T07:53:44Z</time>
      </trkpt>
      <trkpt lat="45.12916" lon="5.22501">
        <ele>262.1</ele>
        <time>2010-10-17T07:53:46Z</time>
      </trkpt>
      <trkpt lat="45.12919" lon="5.22506">
        <ele>262.5</ele>
        <time>2010-10-17T07:53:48Z</time>
      </trkpt>
      <trkpt lat="45.12921" lon="5.22512">
        <ele>263</ele>
        <time>2010-10-17T07:53:50Z</time>
      </trkpt>
      <trkpt lat="45.12923" lon="5.22518">
        <ele>263.4</ele>
        <time>2010-10-17T07:53:52Z</time>
      </trkpt>
      <trkpt lat="45.12924" lon="5.22525">
        <ele>263.5</ele>
        <time>2010-10-17T07:53:54Z</time>
      </trkpt>
      <trkpt lat="45.12924" lon="5.22531">
        <ele>263.5</ele>
        <time>2010-10-17T07:53:56Z</time>
      </trkpt>
      <trkpt lat="45.12921" lon="5.22539">
        <ele>263.7</ele>
        <time>2010-10-17T07:53:58Z</time>
      </trkpt>
      <trkpt lat="45.12918" lon="5.22546">
        <ele>263.8</ele>
        <time>2010-10-17T07:54:00Z</time>
      </trkpt>
      <trkpt lat="45.12916" lon="5.22553">
        <ele>264</ele>
        <time>2010-10-17T07:54:02Z</time>
      </trkpt>
      <trkpt lat="45.12913" lon="5.22559">
        <ele>264</ele>
        <time>2010-10-17T07:54:04Z</time>
      </trkpt>
      <trkpt lat="45.1291" lon="5.22567">
        <ele>263.2</ele>
        <time>2010-10-17T07:54:06Z</time>
      </trkpt>
      <trkpt lat="45.12907" lon="5.22571">
        <ele>263.3</ele>
        <time>2010-10-17T07:54:08Z</time>
      </trkpt>
      <trkpt lat="45.12903" lon="5.22574">
        <ele>262.9</ele>
        <time>2010-10-17T07:54:10Z</time>
      </trkpt>
      <trkpt lat="45.12898" lon="5.22576">
        <ele>262.2</ele>
        <time>2010-10-17T07:54:12Z</time>
      </trkpt>
      <trkpt lat="45.12893" lon="5.22575">
        <ele>261.6</ele>
        <time>2010-10-17T07:54:14Z</time>
      </trkpt>
      <trkpt lat="45.12888" lon="5.22574">
        <ele>260.9</ele>
        <time>2010-10-17T07:54:16Z</time>
      </trkpt>
      <trkpt lat="45.12883" lon="5.22574">
        <ele>260.3</ele>
        <time>2010-10-17T07:54:18Z</time>
      </trkpt>
      <trkpt lat="45.12879" lon="5.22573">
        <ele>260.3</ele>
        <time>2010-10-17T07:54:20Z</time>
      </trkpt>
      <trkpt lat="45.12874" lon="5.22572">
        <ele>260</ele>
        <time>2010-10-17T07:54:22Z</time>
      </trkpt>
      <trkpt lat="45.1287" lon="5.22573">
        <ele>260</ele>
        <time>2010-10-17T07:54:24Z</time>
      </trkpt>
      <trkpt lat="45.12868" lon="5.22577">
        <ele>259.3</ele>
        <time>2010-10-17T07:54:26Z</time>
      </trkpt>
      <trkpt lat="45.12866" lon="5.22582">
        <ele>258.5</ele>
        <time>2010-10-17T07:54:28Z</time>
      </trkpt>
      <trkpt lat="45.12863" lon="5.22584">
        <ele>258</ele>
        <time>2010-10-17T07:54:30Z</time>
      </trkpt>
      <trkpt lat="45.12859" lon="5.22585">
        <ele>257.8</ele>
        <time>2010-10-17T07:54:32Z</time>
      </trkpt>
      <trkpt lat="45.12855" lon="5.22586">
        <ele>257.5</ele>
        <time>2010-10-17T07:54:34Z</time>
      </trkpt>
      <trkpt lat="45.12851" lon="5.22586">
        <ele>257.8</ele>
        <time>2010-10-17T07:54:36Z</time>
      </trkpt>
      <trkpt lat="45.12846" lon="5.22584">
        <ele>257.8</ele>
        <time>2010-10-17T07:54:38Z</time>
      </trkpt>
      <trkpt lat="45.12841" lon="5.22582">
        <ele>258</ele>
        <time>2010-10-17T07:54:40Z</time>
      </trkpt>
      <trkpt lat="45.12836" lon="5.2258">
        <ele>257.7</ele>
        <time>2010-10-17T07:54:43Z</time>
      </trkpt>
      <trkpt lat="45.12833" lon="5.2258">
        <ele>257.3</ele>
        <time>2010-10-17T07:54:45Z</time>
      </trkpt>
      <trkpt lat="45.12828" lon="5.22579">
        <ele>257</ele>
        <time>2010-10-17T07:54:47Z</time>
      </trkpt>
      <trkpt lat="45.12824" lon="5.22579">
        <ele>256</ele>
        <time>2010-10-17T07:54:49Z</time>
      </trkpt>
      <trkpt lat="45.12819" lon="5.22577">
        <ele>256.6</ele>
        <time>2010-10-17T07:54:51Z</time>
      </trkpt>
      <trkpt lat="45.12815" lon="5.22576">
        <ele>257.1</ele>
        <time>2010-10-17T07:54:53Z</time>
      </trkpt>
      <trkpt lat="45.12813" lon="5.22575">
        <ele>257.5</ele>
        <time>2010-10-17T07:54:55Z</time>
      </trkpt>
      <trkpt lat="45.1281" lon="5.22576">
        <ele>259</ele>
        <time>2010-10-17T07:54:57Z</time>
      </trkpt>
      <trkpt lat="45.12808" lon="5.22579">
        <ele>261.2</ele>
        <time>2010-10-17T07:54:59Z</time>
      </trkpt>
      <trkpt lat="45.12807" lon="5.22584">
        <ele>260.8</ele>
        <time>2010-10-17T07:55:01Z</time>
      </trkpt>
      <trkpt lat="45.12807" lon="5.22587">
        <ele>259.8</ele>
        <time>2010-10-17T07:55:03Z</time>
      </trkpt>
      <trkpt lat="45.12809" lon="5.22591">
        <ele>259</ele>
        <time>2010-10-17T07:55:05Z</time>
      </trkpt>
      <trkpt lat="45.12811" lon="5.22595">
        <ele>259.3</ele>
        <time>2010-10-17T07:55:07Z</time>
      </trkpt>
      <trkpt lat="45.12813" lon="5.22598">
        <ele>259.6</ele>
        <time>2010-10-17T07:55:09Z</time>
      </trkpt>
      <trkpt lat="45.12816" lon="5.22599">
        <ele>259.9</ele>
        <time>2010-10-17T07:55:12Z</time>
      </trkpt>
      <trkpt lat="45.12818" lon="5.22602">
        <ele>260</ele>
        <time>2010-10-17T07:55:14Z</time>
      </trkpt>
      <trkpt lat="45.1282" lon="5.22606">
        <ele>260.4</ele>
        <time>2010-10-17T07:55:16Z</time>
      </trkpt>
      <trkpt lat="45.12822" lon="5.22608">
        <ele>261.2</ele>
        <time>2010-10-17T07:55:18Z</time>
      </trkpt>
      <trkpt lat="45.12825" lon="5.2261">
        <ele>261.3</ele>
        <time>2010-10-17T07:55:20Z</time>
      </trkpt>
      <trkpt lat="45.1283" lon="5.22613">
        <ele>261.7</ele>
        <time>2010-10-17T07:55:22Z</time>
      </trkpt>
      <trkpt lat="45.12833" lon="5.22615">
        <ele>261.5</ele>
        <time>2010-10-17T07:55:24Z</time>
      </trkpt>
      <trkpt lat="45.12836" lon="5.22618">
        <ele>261.8</ele>
        <time>2010-10-17T07:55:26Z</time>
      </trkpt>
      <trkpt lat="45.12838" lon="5.22619">
        <ele>261.3</ele>
        <time>2010-10-17T07:55:28Z</time>
      </trkpt>
      <trkpt lat="45.12842" lon="5.22621">
        <ele>261</ele>
        <time>2010-10-17T07:55:30Z</time>
      </trkpt>
      <trkpt lat="45.12846" lon="5.22622">
        <ele>261</ele>
        <time>2010-10-17T07:55:32Z</time>
      </trkpt>
      <trkpt lat="45.1285" lon="5.22623">
        <ele>260.8</ele>
        <time>2010-10-17T07:55:34Z</time>
      </trkpt>
      <trkpt lat="45.12854" lon="5.22624">
        <ele>260.8</ele>
        <time>2010-10-17T07:55:37Z</time>
      </trkpt>
      <trkpt lat="45.12858" lon="5.22626">
        <ele>260.9</ele>
        <time>2010-10-17T07:55:39Z</time>
      </trkpt>
      <trkpt lat="45.12862" lon="5.22626">
        <ele>261.7</ele>
        <time>2010-10-17T07:55:42Z</time>
      </trkpt>
      <trkpt lat="45.12867" lon="5.22628">
        <ele>262.1</ele>
        <time>2010-10-17T07:55:44Z</time>
      </trkpt>
      <trkpt lat="45.12871" lon="5.22629">
        <ele>262.4</ele>
        <time>2010-10-17T07:55:46Z</time>
      </trkpt>
      <trkpt lat="45.12875" lon="5.22631">
        <ele>262.5</ele>
        <time>2010-10-17T07:55:48Z</time>
      </trkpt>
      <trkpt lat="45.12879" lon="5.22634">
        <ele>263.4</ele>
        <time>2010-10-17T07:55:51Z</time>
      </trkpt>
      <trkpt lat="45.1288" lon="5.22637">
        <ele>264.4</ele>
        <time>2010-10-17T07:55:53Z</time>
      </trkpt>
      <trkpt lat="45.12883" lon="5.22641">
        <ele>264.8</ele>
        <time>2010-10-17T07:55:56Z</time>
      </trkpt>
      <trkpt lat="45.12886" lon="5.22644">
        <ele>265.1</ele>
        <time>2010-10-17T07:55:58Z</time>
      </trkpt>
      <trkpt lat="45.12889" lon="5.22648">
        <ele>265.6</ele>
        <time>2010-10-17T07:56:01Z</time>
      </trkpt>
      <trkpt lat="45.12891" lon="5.22651">
        <ele>266.2</ele>
        <time>2010-10-17T07:56:03Z</time>
      </trkpt>
      <trkpt lat="45.12893" lon="5.22654">
        <ele>266.4</ele>
        <time>2010-10-17T07:56:05Z</time>
      </trkpt>
      <trkpt lat="45.12893" lon="5.22658">
        <ele>266.8</ele>
        <time>2010-10-17T07:56:08Z</time>
      </trkpt>
      <trkpt lat="45.12896" lon="5.22662">
        <ele>266.9</ele>
        <time>2010-10-17T07:56:10Z</time>
      </trkpt>
      <trkpt lat="45.129" lon="5.22666">
        <ele>267.4</ele>
        <time>2010-10-17T07:56:12Z</time>
      </trkpt>
      <trkpt lat="45.12905" lon="5.2267">
        <ele>267.5</ele>
        <time>2010-10-17T07:56:14Z</time>
      </trkpt>
      <trkpt lat="45.12911" lon="5.22677">
        <ele>268.3</ele>
        <time>2010-10-17T07:56:16Z</time>
      </trkpt>
      <trkpt lat="45.12916" lon="5.22681">
        <ele>269</ele>
        <time>2010-10-17T07:56:18Z</time>
      </trkpt>
      <trkpt lat="45.12923" lon="5.22686">
        <ele>269.2</ele>
        <time>2010-10-17T07:56:20Z</time>
      </trkpt>
      <trkpt lat="45.12929" lon="5.22691">
        <ele>270</ele>
        <time>2010-10-17T07:56:22Z</time>
      </trkpt>
      <trkpt lat="45.12936" lon="5.22693">
        <ele>270.8</ele>
        <time>2010-10-17T07:56:24Z</time>
      </trkpt>
      <trkpt lat="45.12943" lon="5.22697">
        <ele>271.6</ele>
        <time>2010-10-17T07:56:26Z</time>
      </trkpt>
      <trkpt lat="45.12951" lon="5.22701">
        <ele>273</ele>
        <time>2010-10-17T07:56:28Z</time>
      </trkpt>
      <trkpt lat="45.12956" lon="5.22704">
        <ele>273.2</ele>
        <time>2010-10-17T07:56:30Z</time>
      </trkpt>
      <trkpt lat="45.12961" lon="5.22707">
        <ele>272.9</ele>
        <time>2010-10-17T07:56:32Z</time>
      </trkpt>
      <trkpt lat="45.12964" lon="5.22711">
        <ele>273.2</ele>
        <time>2010-10-17T07:56:34Z</time>
      </trkpt>
      <trkpt lat="45.12968" lon="5.22714">
        <ele>274.4</ele>
        <time>2010-10-17T07:56:36Z</time>
      </trkpt>
      <trkpt lat="45.12973" lon="5.22717">
        <ele>275.1</ele>
        <time>2010-10-17T07:56:38Z</time>
      </trkpt>
      <trkpt lat="45.12979" lon="5.22719">
        <ele>275.9</ele>
        <time>2010-10-17T07:56:41Z</time>
      </trkpt>
      <trkpt lat="45.12981" lon="5.22722">
        <ele>275.9</ele>
        <time>2010-10-17T07:56:43Z</time>
      </trkpt>
      <trkpt lat="45.12985" lon="5.22725">
        <ele>276.5</ele>
        <time>2010-10-17T07:56:45Z</time>
      </trkpt>
      <trkpt lat="45.12987" lon="5.22729">
        <ele>277.5</ele>
        <time>2010-10-17T07:56:47Z</time>
      </trkpt>
      <trkpt lat="45.12987" lon="5.22734">
        <ele>279.2</ele>
        <time>2010-10-17T07:56:49Z</time>
      </trkpt>
      <trkpt lat="45.12986" lon="5.22734">
        <ele>279.9</ele>
        <time>2010-10-17T07:56:51Z</time>
      </trkpt>
      <trkpt lat="45.12989" lon="5.22735">
        <ele>280.7</ele>
        <time>2010-10-17T07:56:53Z</time>
      </trkpt>
      <trkpt lat="45.12996" lon="5.22738">
        <ele>281.5</ele>
        <time>2010-10-17T07:56:56Z</time>
      </trkpt>
      <trkpt lat="45.13009" lon="5.2274">
        <ele>279.7</ele>
        <time>2010-10-17T07:56:58Z</time>
      </trkpt>
      <trkpt lat="45.1302" lon="5.22738">
        <ele>279</ele>
        <time>2010-10-17T07:57:00Z</time>
      </trkpt>
      <trkpt lat="45.13029" lon="5.22734">
        <ele>277.9</ele>
        <time>2010-10-17T07:57:02Z</time>
      </trkpt>
      <trkpt lat="45.13039" lon="5.22728">
        <ele>276.5</ele>
        <time>2010-10-17T07:57:04Z</time>
      </trkpt>
      <trkpt lat="45.13048" lon="5.2272">
        <ele>275</ele>
        <time>2010-10-17T07:57:06Z</time>
      </trkpt>
      <trkpt lat="45.13052" lon="5.22712">
        <ele>271.8</ele>
        <time>2010-10-17T07:57:08Z</time>
      </trkpt>
      <trkpt lat="45.13056" lon="5.22701">
        <ele>271.1</ele>
        <time>2010-10-17T07:57:10Z</time>
      </trkpt>
      <trkpt lat="45.13058" lon="5.22691">
        <ele>271.1</ele>
        <time>2010-10-17T07:57:12Z</time>
      </trkpt>
      <trkpt lat="45.13062" lon="5.22681">
        <ele>270.8</ele>
        <time>2010-10-17T07:57:14Z</time>
      </trkpt>
      <trkpt lat="45.13068" lon="5.22671">
        <ele>270.3</ele>
        <time>2010-10-17T07:57:16Z</time>
      </trkpt>
      <trkpt lat="45.13073" lon="5.22663">
        <ele>269.8</ele>
        <time>2010-10-17T07:57:18Z</time>
      </trkpt>
      <trkpt lat="45.13078" lon="5.22657">
        <ele>269</ele>
        <time>2010-10-17T07:57:20Z</time>
      </trkpt>
      <trkpt lat="45.13082" lon="5.22652">
        <ele>269</ele>
        <time>2010-10-17T07:57:22Z</time>
      </trkpt>
      <trkpt lat="45.13088" lon="5.22648">
        <ele>268.1</ele>
        <time>2010-10-17T07:57:24Z</time>
      </trkpt>
      <trkpt lat="45.13094" lon="5.22644">
        <ele>266.5</ele>
        <time>2010-10-17T07:57:26Z</time>
      </trkpt>
      <trkpt lat="45.13102" lon="5.22639">
        <ele>264.7</ele>
        <time>2010-10-17T07:57:28Z</time>
      </trkpt>
      <trkpt lat="45.13109" lon="5.22637">
        <ele>264</ele>
        <time>2010-10-17T07:57:30Z</time>
      </trkpt>
      <trkpt lat="45.13116" lon="5.22637">
        <ele>263.5</ele>
        <time>2010-10-17T07:57:32Z</time>
      </trkpt>
      <trkpt lat="45.13122" lon="5.22638">
        <ele>264</ele>
        <time>2010-10-17T07:57:34Z</time>
      </trkpt>
      <trkpt lat="45.13129" lon="5.22639">
        <ele>264.5</ele>
        <time>2010-10-17T07:57:36Z</time>
      </trkpt>
      <trkpt lat="45.13136" lon="5.22641">
        <ele>264.3</ele>
        <time>2010-10-17T07:57:38Z</time>
      </trkpt>
      <trkpt lat="45.13143" lon="5.22644">
        <ele>264.8</ele>
        <time>2010-10-17T07:57:40Z</time>
      </trkpt>
      <trkpt lat="45.13149" lon="5.22646">
        <ele>264.3</ele>
        <time>2010-10-17T07:57:42Z</time>
      </trkpt>
      <trkpt lat="45.13155" lon="5.22646">
        <ele>264.5</ele>
        <time>2010-10-17T07:57:44Z</time>
      </trkpt>
      <trkpt lat="45.13161" lon="5.22646">
        <ele>264.8</ele>
        <time>2010-10-17T07:57:46Z</time>
      </trkpt>
      <trkpt lat="45.13167" lon="5.22647">
        <ele>264.5</ele>
        <time>2010-10-17T07:57:48Z</time>
      </trkpt>
      <trkpt lat="45.13174" lon="5.22649">
        <ele>264.8</ele>
        <time>2010-10-17T07:57:50Z</time>
      </trkpt>
      <trkpt lat="45.13181" lon="5.22651">
        <ele>265.4</ele>
        <time>2010-10-17T07:57:52Z</time>
      </trkpt>
      <trkpt lat="45.13186" lon="5.22655">
        <ele>265.3</ele>
        <time>2010-10-17T07:57:54Z</time>
      </trkpt>
      <trkpt lat="45.13192" lon="5.22658">
        <ele>265.3</ele>
        <time>2010-10-17T07:57:56Z</time>
      </trkpt>
      <trkpt lat="45.132" lon="5.22662">
        <ele>265.8</ele>
        <time>2010-10-17T07:57:58Z</time>
      </trkpt>
      <trkpt lat="45.13207" lon="5.22664">
        <ele>266.2</ele>
        <time>2010-10-17T07:58:00Z</time>
      </trkpt>
      <trkpt lat="45.13214" lon="5.22666">
        <ele>266.1</ele>
        <time>2010-10-17T07:58:02Z</time>
      </trkpt>
      <trkpt lat="45.13219" lon="5.22668">
        <ele>265.9</ele>
        <time>2010-10-17T07:58:04Z</time>
      </trkpt>
      <trkpt lat="45.13222" lon="5.22671">
        <ele>266.1</ele>
        <time>2010-10-17T07:58:06Z</time>
      </trkpt>
      <trkpt lat="45.13227" lon="5.22674">
        <ele>266.1</ele>
        <time>2010-10-17T07:58:08Z</time>
      </trkpt>
      <trkpt lat="45.1323" lon="5.22677">
        <ele>265.4</ele>
        <time>2010-10-17T07:58:10Z</time>
      </trkpt>
      <trkpt lat="45.13234" lon="5.22679">
        <ele>264.8</ele>
        <time>2010-10-17T07:58:12Z</time>
      </trkpt>
      <trkpt lat="45.13237" lon="5.22684">
        <ele>265.2</ele>
        <time>2010-10-17T07:58:14Z</time>
      </trkpt>
      <trkpt lat="45.13239" lon="5.22687">
        <ele>265.3</ele>
        <time>2010-10-17T07:58:16Z</time>
      </trkpt>
      <trkpt lat="45.13242" lon="5.2269">
        <ele>265.6</ele>
        <time>2010-10-17T07:58:18Z</time>
      </trkpt>
      <trkpt lat="45.13247" lon="5.22695">
        <ele>265.1</ele>
        <time>2010-10-17T07:58:20Z</time>
      </trkpt>
      <trkpt lat="45.13251" lon="5.22701">
        <ele>264.8</ele>
        <time>2010-10-17T07:58:22Z</time>
      </trkpt>
      <trkpt lat="45.13255" lon="5.22706">
        <ele>264.6</ele>
        <time>2010-10-17T07:58:24Z</time>
      </trkpt>
      <trkpt lat="45.1326" lon="5.22711">
        <ele>264.4</ele>
        <time>2010-10-17T07:58:26Z</time>
      </trkpt>
      <trkpt lat="45.13264" lon="5.22717">
        <ele>265</ele>
        <time>2010-10-17T07:58:28Z</time>
      </trkpt>
      <trkpt lat="45.13268" lon="5.22721">
        <ele>265.7</ele>
        <time>2010-10-17T07:58:30Z</time>
      </trkpt>
      <trkpt lat="45.13269" lon="5.22729">
        <ele>266.6</ele>
        <time>2010-10-17T07:58:33Z</time>
      </trkpt>
      <trkpt lat="45.13272" lon="5.22734">
        <ele>268.3</ele>
        <time>2010-10-17T07:58:35Z</time>
      </trkpt>
      <trkpt lat="45.13274" lon="5.22738">
        <ele>268.2</ele>
        <time>2010-10-17T07:58:37Z</time>
      </trkpt>
      <trkpt lat="45.13275" lon="5.22742">
        <ele>269</ele>
        <time>2010-10-17T07:58:39Z</time>
      </trkpt>
      <trkpt lat="45.1328" lon="5.22748">
        <ele>270</ele>
        <time>2010-10-17T07:58:41Z</time>
      </trkpt>
      <trkpt lat="45.13285" lon="5.22753">
        <ele>269.1</ele>
        <time>2010-10-17T07:58:43Z</time>
      </trkpt>
      <trkpt lat="45.1329" lon="5.2276">
        <ele>268.4</ele>
        <time>2010-10-17T07:58:45Z</time>
      </trkpt>
      <trkpt lat="45.13292" lon="5.22764">
        <ele>268.5</ele>
        <time>2010-10-17T07:58:47Z</time>
      </trkpt>
      <trkpt lat="45.13295" lon="5.22769">
        <ele>268.8</ele>
        <time>2010-10-17T07:58:49Z</time>
      </trkpt>
      <trkpt lat="45.13297" lon="5.22773">
        <ele>268.5</ele>
        <time>2010-10-17T07:58:51Z</time>
      </trkpt>
      <trkpt lat="45.13298" lon="5.22778">
        <ele>267</ele>
        <time>2010-10-17T07:58:53Z</time>
      </trkpt>
      <trkpt lat="45.13302" lon="5.22784">
        <ele>266</ele>
        <time>2010-10-17T07:58:55Z</time>
      </trkpt>
      <trkpt lat="45.13303" lon="5.2279">
        <ele>265.5</ele>
        <time>2010-10-17T07:58:57Z</time>
      </trkpt>
      <trkpt lat="45.13305" lon="5.22795">
        <ele>264.5</ele>
        <time>2010-10-17T07:58:59Z</time>
      </trkpt>
      <trkpt lat="45.13305" lon="5.22801">
        <ele>264.4</ele>
        <time>2010-10-17T07:59:01Z</time>
      </trkpt>
      <trkpt lat="45.13305" lon="5.22806">
        <ele>265.3</ele>
        <time>2010-10-17T07:59:03Z</time>
      </trkpt>
      <trkpt lat="45.13306" lon="5.22809">
        <ele>265.6</ele>
        <time>2010-10-17T07:59:05Z</time>
      </trkpt>
      <trkpt lat="45.13307" lon="5.22813">
        <ele>266.5</ele>
        <time>2010-10-17T07:59:07Z</time>
      </trkpt>
      <trkpt lat="45.13307" lon="5.22818">
        <ele>266.7</ele>
        <time>2010-10-17T07:59:09Z</time>
      </trkpt>
      <trkpt lat="45.13308" lon="5.22822">
        <ele>267.8</ele>
        <time>2010-10-17T07:59:11Z</time>
      </trkpt>
      <trkpt lat="45.13308" lon="5.22826">
        <ele>268.6</ele>
        <time>2010-10-17T07:59:13Z</time>
      </trkpt>
      <trkpt lat="45.13308" lon="5.2283">
        <ele>269.4</ele>
        <time>2010-10-17T07:59:15Z</time>
      </trkpt>
      <trkpt lat="45.13308" lon="5.22834">
        <ele>268.4</ele>
        <time>2010-10-17T07:59:17Z</time>
      </trkpt>
      <trkpt lat="45.13308" lon="5.22838">
        <ele>268.2</ele>
        <time>2010-10-17T07:59:19Z</time>
      </trkpt>
      <trkpt lat="45.1331" lon="5.2284">
        <ele>268.2</ele>
        <time>2010-10-17T07:59:21Z</time>
      </trkpt>
      <trkpt lat="45.13313" lon="5.22841">
        <ele>268.3</ele>
        <time>2010-10-17T07:59:23Z</time>
      </trkpt>
      <trkpt lat="45.13315" lon="5.22843">
        <ele>268.7</ele>
        <time>2010-10-17T07:59:25Z</time>
      </trkpt>
      <trkpt lat="45.13318" lon="5.22846">
        <ele>269</ele>
        <time>2010-10-17T07:59:27Z</time>
      </trkpt>
      <trkpt lat="45.1332" lon="5.22847">
        <ele>269.3</ele>
        <time>2010-10-17T07:59:29Z</time>
      </trkpt>
      <trkpt lat="45.13322" lon="5.22849">
        <ele>269.3</ele>
        <time>2010-10-17T07:59:31Z</time>
      </trkpt>
      <trkpt lat="45.13325" lon="5.2285">
        <ele>269.3</ele>
        <time>2010-10-17T07:59:33Z</time>
      </trkpt>
      <trkpt lat="45.13328" lon="5.22854">
        <ele>269.5</ele>
        <time>2010-10-17T07:59:35Z</time>
      </trkpt>
      <trkpt lat="45.13331" lon="5.22857">
        <ele>269.7</ele>
        <time>2010-10-17T07:59:38Z</time>
      </trkpt>
      <trkpt lat="45.13333" lon="5.22859">
        <ele>269.9</ele>
        <time>2010-10-17T07:59:40Z</time>
      </trkpt>
      <trkpt lat="45.13335" lon="5.2286">
        <ele>270.5</ele>
        <time>2010-10-17T07:59:42Z</time>
      </trkpt>
      <trkpt lat="45.1334" lon="5.22864">
        <ele>270.4</ele>
        <time>2010-10-17T07:59:44Z</time>
      </trkpt>
      <trkpt lat="45.13343" lon="5.22868">
        <ele>270.5</ele>
        <time>2010-10-17T07:59:46Z</time>
      </trkpt>
      <trkpt lat="45.13345" lon="5.22871">
        <ele>270.2</ele>
        <time>2010-10-17T07:59:48Z</time>
      </trkpt>
      <trkpt lat="45.13349" lon="5.22875">
        <ele>270.5</ele>
        <time>2010-10-17T07:59:50Z</time>
      </trkpt>
      <trkpt lat="45.13352" lon="5.22877">
        <ele>270.5</ele>
        <time>2010-10-17T07:59:52Z</time>
      </trkpt>
      <trkpt lat="45.13356" lon="5.2288">
        <ele>270.7</ele>
        <time>2010-10-17T07:59:55Z</time>
      </trkpt>
      <trkpt lat="45.13359" lon="5.22883">
        <ele>270.8</ele>
        <time>2010-10-17T07:59:57Z</time>
      </trkpt>
      <trkpt lat="45.13362" lon="5.22885">
        <ele>271.1</ele>
        <time>2010-10-17T07:59:59Z</time>
      </trkpt>
      <trkpt lat="45.13365" lon="5.22887">
        <ele>271.3</ele>
        <time>2010-10-17T08:00:01Z</time>
      </trkpt>
      <trkpt lat="45.13369" lon="5.2289">
        <ele>270.7</ele>
        <time>2010-10-17T08:00:04Z</time>
      </trkpt>
      <trkpt lat="45.13374" lon="5.22894">
        <ele>270.8</ele>
        <time>2010-10-17T08:00:07Z</time>
      </trkpt>
      <trkpt lat="45.13381" lon="5.22899">
        <ele>271.5</ele>
        <time>2010-10-17T08:00:09Z</time>
      </trkpt>
      <trkpt lat="45.13389" lon="5.22903">
        <ele>271.5</ele>
        <time>2010-10-17T08:00:11Z</time>
      </trkpt>
      <trkpt lat="45.13388" lon="5.22905">
        <ele>271.5</ele>
        <time>2010-10-17T08:00:14Z</time>
      </trkpt>
      <trkpt lat="45.13393" lon="5.22909">
        <ele>271</ele>
        <time>2010-10-17T08:00:16Z</time>
      </trkpt>
      <trkpt lat="45.13399" lon="5.22912">
        <ele>270.4</ele>
        <time>2010-10-17T08:00:19Z</time>
      </trkpt>
      <trkpt lat="45.13405" lon="5.22916">
        <ele>270.2</ele>
        <time>2010-10-17T08:00:21Z</time>
      </trkpt>
      <trkpt lat="45.13406" lon="5.22916">
        <ele>270.6</ele>
        <time>2010-10-17T08:00:23Z</time>
      </trkpt>
      <trkpt lat="45.13409" lon="5.22919">
        <ele>270.6</ele>
        <time>2010-10-17T08:00:25Z</time>
      </trkpt>
      <trkpt lat="45.1341" lon="5.22921">
        <ele>270.8</ele>
        <time>2010-10-17T08:00:27Z</time>
      </trkpt>
      <trkpt lat="45.13412" lon="5.22924">
        <ele>270.3</ele>
        <time>2010-10-17T08:00:29Z</time>
      </trkpt>
      <trkpt lat="45.13417" lon="5.22928">
        <ele>270</ele>
        <time>2010-10-17T08:00:31Z</time>
      </trkpt>
      <trkpt lat="45.13421" lon="5.22931">
        <ele>269.9</ele>
        <time>2010-10-17T08:00:34Z</time>
      </trkpt>
      <trkpt lat="45.13423" lon="5.22931">
        <ele>269.9</ele>
        <time>2010-10-17T08:00:36Z</time>
      </trkpt>
      <trkpt lat="45.13426" lon="5.2293">
        <ele>269.8</ele>
        <time>2010-10-17T08:00:38Z</time>
      </trkpt>
      <trkpt lat="45.13431" lon="5.22931">
        <ele>270.4</ele>
        <time>2010-10-17T08:00:40Z</time>
      </trkpt>
      <trkpt lat="45.13434" lon="5.2293">
        <ele>270.7</ele>
        <time>2010-10-17T08:00:42Z</time>
      </trkpt>
      <trkpt lat="45.13438" lon="5.22932">
        <ele>271</ele>
        <time>2010-10-17T08:00:45Z</time>
      </trkpt>
      <trkpt lat="45.13446" lon="5.22937">
        <ele>270.8</ele>
        <time>2010-10-17T08:00:47Z</time>
      </trkpt>
      <trkpt lat="45.13452" lon="5.22941">
        <ele>271</ele>
        <time>2010-10-17T08:00:49Z</time>
      </trkpt>
      <trkpt lat="45.13458" lon="5.22939">
        <ele>271.1</ele>
        <time>2010-10-17T08:00:51Z</time>
      </trkpt>
      <trkpt lat="45.13463" lon="5.22941">
        <ele>270.8</ele>
        <time>2010-10-17T08:00:53Z</time>
      </trkpt>
      <trkpt lat="45.13468" lon="5.22942">
        <ele>271.1</ele>
        <time>2010-10-17T08:00:55Z</time>
      </trkpt>
      <trkpt lat="45.13473" lon="5.2294">
        <ele>271.6</ele>
        <time>2010-10-17T08:00:57Z</time>
      </trkpt>
      <trkpt lat="45.13478" lon="5.22942">
        <ele>272.3</ele>
        <time>2010-10-17T08:01:00Z</time>
      </trkpt>
      <trkpt lat="45.13483" lon="5.22944">
        <ele>273.2</ele>
        <time>2010-10-17T08:01:02Z</time>
      </trkpt>
      <trkpt lat="45.13486" lon="5.22944">
        <ele>274</ele>
        <time>2010-10-17T08:01:04Z</time>
      </trkpt>
      <trkpt lat="45.1349" lon="5.22946">
        <ele>274.5</ele>
        <time>2010-10-17T08:01:06Z</time>
      </trkpt>
      <trkpt lat="45.13495" lon="5.22948">
        <ele>273.8</ele>
        <time>2010-10-17T08:01:08Z</time>
      </trkpt>
      <trkpt lat="45.13502" lon="5.2295">
        <ele>273.4</ele>
        <time>2010-10-17T08:01:10Z</time>
      </trkpt>
      <trkpt lat="45.13506" lon="5.22952">
        <ele>273.3</ele>
        <time>2010-10-17T08:01:12Z</time>
      </trkpt>
      <trkpt lat="45.13511" lon="5.22953">
        <ele>274.3</ele>
        <time>2010-10-17T08:01:14Z</time>
      </trkpt>
      <trkpt lat="45.13513" lon="5.22955">
        <ele>274.4</ele>
        <time>2010-10-17T08:01:17Z</time>
      </trkpt>
      <trkpt lat="45.13514" lon="5.22954">
        <ele>275</ele>
        <time>2010-10-17T08:01:20Z</time>
      </trkpt>
      <trkpt lat="45.13519" lon="5.22956">
        <ele>275.8</ele>
        <time>2010-10-17T08:01:23Z</time>
      </trkpt>
      <trkpt lat="45.13524" lon="5.22956">
        <ele>276.5</ele>
        <time>2010-10-17T08:01:25Z</time>
      </trkpt>
      <trkpt lat="45.13528" lon="5.22957">
        <ele>275.9</ele>
        <time>2010-10-17T08:01:27Z</time>
      </trkpt>
      <trkpt lat="45.13533" lon="5.22957">
        <ele>274.5</ele>
        <time>2010-10-17T08:01:29Z</time>
      </trkpt>
      <trkpt lat="45.13537" lon="5.22957">
        <ele>273.5</ele>
        <time>2010-10-17T08:01:31Z</time>
      </trkpt>
      <trkpt lat="45.13542" lon="5.22957">
        <ele>273.5</ele>
        <time>2010-10-17T08:01:33Z</time>
      </trkpt>
      <trkpt lat="45.13545" lon="5.22956">
        <ele>273.5</ele>
        <time>2010-10-17T08:01:35Z</time>
      </trkpt>
      <trkpt lat="45.13548" lon="5.22957">
        <ele>273.5</ele>
        <time>2010-10-17T08:01:37Z</time>
      </trkpt>
      <trkpt lat="45.13551" lon="5.22958">
        <ele>273</ele>
        <time>2010-10-17T08:01:39Z</time>
      </trkpt>
      <trkpt lat="45.13556" lon="5.22959">
        <ele>273.4</ele>
        <time>2010-10-17T08:01:41Z</time>
      </trkpt>
      <trkpt lat="45.13561" lon="5.22959">
        <ele>272.8</ele>
        <time>2010-10-17T08:01:43Z</time>
      </trkpt>
      <trkpt lat="45.13564" lon="5.22961">
        <ele>273.4</ele>
        <time>2010-10-17T08:01:46Z</time>
      </trkpt>
      <trkpt lat="45.13569" lon="5.22964">
        <ele>274.7</ele>
        <time>2010-10-17T08:01:49Z</time>
      </trkpt>
      <trkpt lat="45.13574" lon="5.22967">
        <ele>274.7</ele>
        <time>2010-10-17T08:01:51Z</time>
      </trkpt>
      <trkpt lat="45.13579" lon="5.2297">
        <ele>274.7</ele>
        <time>2010-10-17T08:01:53Z</time>
      </trkpt>
      <trkpt lat="45.13582" lon="5.22971">
        <ele>274.8</ele>
        <time>2010-10-17T08:01:55Z</time>
      </trkpt>
      <trkpt lat="45.13586" lon="5.22971">
        <ele>275</ele>
        <time>2010-10-17T08:01:57Z</time>
      </trkpt>
      <trkpt lat="45.13589" lon="5.22971">
        <ele>275.5</ele>
        <time>2010-10-17T08:01:59Z</time>
      </trkpt>
      <trkpt lat="45.13593" lon="5.22971">
        <ele>276</ele>
        <time>2010-10-17T08:02:01Z</time>
      </trkpt>
      <trkpt lat="45.13595" lon="5.22969">
        <ele>276</ele>
        <time>2010-10-17T08:02:03Z</time>
      </trkpt>
      <trkpt lat="45.13598" lon="5.22968">
        <ele>276</ele>
        <time>2010-10-17T08:02:05Z</time>
      </trkpt>
      <trkpt lat="45.13602" lon="5.22969">
        <ele>275.8</ele>
        <time>2010-10-17T08:02:07Z</time>
      </trkpt>
      <trkpt lat="45.13606" lon="5.2297">
        <ele>275.7</ele>
        <time>2010-10-17T08:02:09Z</time>
      </trkpt>
      <trkpt lat="45.13611" lon="5.22972">
        <ele>276.2</ele>
        <time>2010-10-17T08:02:11Z</time>
      </trkpt>
      <trkpt lat="45.13617" lon="5.22972">
        <ele>275.3</ele>
        <time>2010-10-17T08:02:13Z</time>
      </trkpt>
      <trkpt lat="45.13621" lon="5.22973">
        <ele>275.8</ele>
        <time>2010-10-17T08:02:15Z</time>
      </trkpt>
      <trkpt lat="45.13627" lon="5.22975">
        <ele>276.2</ele>
        <time>2010-10-17T08:02:17Z</time>
      </trkpt>
      <trkpt lat="45.13632" lon="5.22977">
        <ele>276.8</ele>
        <time>2010-10-17T08:02:19Z</time>
      </trkpt>
      <trkpt lat="45.13637" lon="5.22979">
        <ele>276.3</ele>
        <time>2010-10-17T08:02:21Z</time>
      </trkpt>
      <trkpt lat="45.13644" lon="5.22983">
        <ele>277.2</ele>
        <time>2010-10-17T08:02:24Z</time>
      </trkpt>
      <trkpt lat="45.13649" lon="5.22984">
        <ele>277.5</ele>
        <time>2010-10-17T08:02:26Z</time>
      </trkpt>
      <trkpt lat="45.13653" lon="5.22985">
        <ele>277.4</ele>
        <time>2010-10-17T08:02:28Z</time>
      </trkpt>
      <trkpt lat="45.13656" lon="5.22986">
        <ele>277.6</ele>
        <time>2010-10-17T08:02:30Z</time>
      </trkpt>
      <trkpt lat="45.13659" lon="5.22987">
        <ele>277.3</ele>
        <time>2010-10-17T08:02:32Z</time>
      </trkpt>
      <trkpt lat="45.13662" lon="5.22989">
        <ele>277.3</ele>
        <time>2010-10-17T08:02:34Z</time>
      </trkpt>
      <trkpt lat="45.13665" lon="5.22991">
        <ele>277.3</ele>
        <time>2010-10-17T08:02:37Z</time>
      </trkpt>
      <trkpt lat="45.13671" lon="5.22994">
        <ele>277</ele>
        <time>2010-10-17T08:02:39Z</time>
      </trkpt>
      <trkpt lat="45.13675" lon="5.22997">
        <ele>276.9</ele>
        <time>2010-10-17T08:02:42Z</time>
      </trkpt>
      <trkpt lat="45.13683" lon="5.22999">
        <ele>276.9</ele>
        <time>2010-10-17T08:02:45Z</time>
      </trkpt>
      <trkpt lat="45.13687" lon="5.22999">
        <ele>276.6</ele>
        <time>2010-10-17T08:02:47Z</time>
      </trkpt>
      <trkpt lat="45.13691" lon="5.22999">
        <ele>276.3</ele>
        <time>2010-10-17T08:02:50Z</time>
      </trkpt>
      <trkpt lat="45.13694" lon="5.22997">
        <ele>278</ele>
        <time>2010-10-17T08:02:52Z</time>
      </trkpt>
      <trkpt lat="45.13697" lon="5.22997">
        <ele>278.7</ele>
        <time>2010-10-17T08:02:54Z</time>
      </trkpt>
      <trkpt lat="45.13704" lon="5.23">
        <ele>278.7</ele>
        <time>2010-10-17T08:02:56Z</time>
      </trkpt>
      <trkpt lat="45.13709" lon="5.23003">
        <ele>279.9</ele>
        <time>2010-10-17T08:02:59Z</time>
      </trkpt>
      <trkpt lat="45.13714" lon="5.23005">
        <ele>281.1</ele>
        <time>2010-10-17T08:03:01Z</time>
      </trkpt>
      <trkpt lat="45.13718" lon="5.23006">
        <ele>281.6</ele>
        <time>2010-10-17T08:03:03Z</time>
      </trkpt>
      <trkpt lat="45.13722" lon="5.23008">
        <ele>283.6</ele>
        <time>2010-10-17T08:03:05Z</time>
      </trkpt>
      <trkpt lat="45.13726" lon="5.23011">
        <ele>285.1</ele>
        <time>2010-10-17T08:03:07Z</time>
      </trkpt>
      <trkpt lat="45.1373" lon="5.23013">
        <ele>286.1</ele>
        <time>2010-10-17T08:03:09Z</time>
      </trkpt>
      <trkpt lat="45.13733" lon="5.23015">
        <ele>286.7</ele>
        <time>2010-10-17T08:03:11Z</time>
      </trkpt>
      <trkpt lat="45.13737" lon="5.23017">
        <ele>286.3</ele>
        <time>2010-10-17T08:03:13Z</time>
      </trkpt>
      <trkpt lat="45.13741" lon="5.23019">
        <ele>286.5</ele>
        <time>2010-10-17T08:03:16Z</time>
      </trkpt>
      <trkpt lat="45.13744" lon="5.23021">
        <ele>286</ele>
        <time>2010-10-17T08:03:18Z</time>
      </trkpt>
      <trkpt lat="45.13748" lon="5.23022">
        <ele>286.4</ele>
        <time>2010-10-17T08:03:20Z</time>
      </trkpt>
      <trkpt lat="45.13752" lon="5.23024">
        <ele>286.9</ele>
        <time>2010-10-17T08:03:22Z</time>
      </trkpt>
      <trkpt lat="45.13755" lon="5.23026">
        <ele>286.8</ele>
        <time>2010-10-17T08:03:24Z</time>
      </trkpt>
      <trkpt lat="45.13758" lon="5.23027">
        <ele>287.6</ele>
        <time>2010-10-17T08:03:26Z</time>
      </trkpt>
      <trkpt lat="45.13761" lon="5.23028">
        <ele>287.3</ele>
        <time>2010-10-17T08:03:28Z</time>
      </trkpt>
      <trkpt lat="45.13765" lon="5.2303">
        <ele>287.5</ele>
        <time>2010-10-17T08:03:30Z</time>
      </trkpt>
      <trkpt lat="45.13768" lon="5.23032">
        <ele>288</ele>
        <time>2010-10-17T08:03:33Z</time>
      </trkpt>
      <trkpt lat="45.13773" lon="5.23034">
        <ele>287.1</ele>
        <time>2010-10-17T08:03:35Z</time>
      </trkpt>
      <trkpt lat="45.13775" lon="5.23036">
        <ele>287.4</ele>
        <time>2010-10-17T08:03:37Z</time>
      </trkpt>
      <trkpt lat="45.13777" lon="5.23037">
        <ele>285.5</ele>
        <time>2010-10-17T08:03:41Z</time>
      </trkpt>
      <trkpt lat="45.13782" lon="5.23041">
        <ele>282.6</ele>
        <time>2010-10-17T08:03:43Z</time>
      </trkpt>
      <trkpt lat="45.13786" lon="5.23042">
        <ele>281.8</ele>
        <time>2010-10-17T08:03:45Z</time>
      </trkpt>
      <trkpt lat="45.13789" lon="5.23044">
        <ele>281</ele>
        <time>2010-10-17T08:03:47Z</time>
      </trkpt>
      <trkpt lat="45.13792" lon="5.23045">
        <ele>281</ele>
        <time>2010-10-17T08:03:49Z</time>
      </trkpt>
      <trkpt lat="45.13794" lon="5.23047">
        <ele>279.8</ele>
        <time>2010-10-17T08:03:51Z</time>
      </trkpt>
      <trkpt lat="45.13797" lon="5.23049">
        <ele>280.4</ele>
        <time>2010-10-17T08:03:53Z</time>
      </trkpt>
      <trkpt lat="45.13801" lon="5.2305">
        <ele>281</ele>
        <time>2010-10-17T08:03:55Z</time>
      </trkpt>
      <trkpt lat="45.13805" lon="5.23051">
        <ele>282.1</ele>
        <time>2010-10-17T08:03:57Z</time>
      </trkpt>
      <trkpt lat="45.13809" lon="5.23053">
        <ele>282.5</ele>
        <time>2010-10-17T08:03:59Z</time>
      </trkpt>
      <trkpt lat="45.13813" lon="5.23055">
        <ele>282</ele>
        <time>2010-10-17T08:04:01Z</time>
      </trkpt>
      <trkpt lat="45.13817" lon="5.23056">
        <ele>282.4</ele>
        <time>2010-10-17T08:04:03Z</time>
      </trkpt>
      <trkpt lat="45.1382" lon="5.23059">
        <ele>283.9</ele>
        <time>2010-10-17T08:04:05Z</time>
      </trkpt>
      <trkpt lat="45.13822" lon="5.23061">
        <ele>283.8</ele>
        <time>2010-10-17T08:04:07Z</time>
      </trkpt>
      <trkpt lat="45.13825" lon="5.23062">
        <ele>283.3</ele>
        <time>2010-10-17T08:04:09Z</time>
      </trkpt>
      <trkpt lat="45.13828" lon="5.23065">
        <ele>283.5</ele>
        <time>2010-10-17T08:04:11Z</time>
      </trkpt>
      <trkpt lat="45.13831" lon="5.23067">
        <ele>283.8</ele>
        <time>2010-10-17T08:04:13Z</time>
      </trkpt>
      <trkpt lat="45.13835" lon="5.23068">
        <ele>284.7</ele>
        <time>2010-10-17T08:04:15Z</time>
      </trkpt>
      <trkpt lat="45.13839" lon="5.2307">
        <ele>285.1</ele>
        <time>2010-10-17T08:04:17Z</time>
      </trkpt>
      <trkpt lat="45.13843" lon="5.23071">
        <ele>285.3</ele>
        <time>2010-10-17T08:04:19Z</time>
      </trkpt>
      <trkpt lat="45.13847" lon="5.23074">
        <ele>285.5</ele>
        <time>2010-10-17T08:04:22Z</time>
      </trkpt>
      <trkpt lat="45.1385" lon="5.23076">
        <ele>286.8</ele>
        <time>2010-10-17T08:04:24Z</time>
      </trkpt>
      <trkpt lat="45.13855" lon="5.23079">
        <ele>287.2</ele>
        <time>2010-10-17T08:04:26Z</time>
      </trkpt>
      <trkpt lat="45.13859" lon="5.2308">
        <ele>287.6</ele>
        <time>2010-10-17T08:04:28Z</time>
      </trkpt>
      <trkpt lat="45.13863" lon="5.2308">
        <ele>288.7</ele>
        <time>2010-10-17T08:04:30Z</time>
      </trkpt>
      <trkpt lat="45.13867" lon="5.2308">
        <ele>289.3</ele>
        <time>2010-10-17T08:04:32Z</time>
      </trkpt>
      <trkpt lat="45.13871" lon="5.23079">
        <ele>289.6</ele>
        <time>2010-10-17T08:04:34Z</time>
      </trkpt>
      <trkpt lat="45.13874" lon="5.23078">
        <ele>289.6</ele>
        <time>2010-10-17T08:04:36Z</time>
      </trkpt>
      <trkpt lat="45.13878" lon="5.23075">
        <ele>289.5</ele>
        <time>2010-10-17T08:04:38Z</time>
      </trkpt>
      <trkpt lat="45.13882" lon="5.23074">
        <ele>290.1</ele>
        <time>2010-10-17T08:04:40Z</time>
      </trkpt>
      <trkpt lat="45.13885" lon="5.23073">
        <ele>290.2</ele>
        <time>2010-10-17T08:04:42Z</time>
      </trkpt>
      <trkpt lat="45.13889" lon="5.23073">
        <ele>290.3</ele>
        <time>2010-10-17T08:04:44Z</time>
      </trkpt>
      <trkpt lat="45.13893" lon="5.23073">
        <ele>290.5</ele>
        <time>2010-10-17T08:04:46Z</time>
      </trkpt>
      <trkpt lat="45.13897" lon="5.23073">
        <ele>290.8</ele>
        <time>2010-10-17T08:04:48Z</time>
      </trkpt>
      <trkpt lat="45.139" lon="5.23073">
        <ele>290.6</ele>
        <time>2010-10-17T08:04:50Z</time>
      </trkpt>
      <trkpt lat="45.13904" lon="5.23075">
        <ele>291.2</ele>
        <time>2010-10-17T08:04:54Z</time>
      </trkpt>
      <trkpt lat="45.13907" lon="5.23078">
        <ele>291.3</ele>
        <time>2010-10-17T08:04:56Z</time>
      </trkpt>
      <trkpt lat="45.13909" lon="5.23081">
        <ele>291.5</ele>
        <time>2010-10-17T08:04:58Z</time>
      </trkpt>
      <trkpt lat="45.13912" lon="5.23083">
        <ele>291.3</ele>
        <time>2010-10-17T08:05:00Z</time>
      </trkpt>
      <trkpt lat="45.13915" lon="5.23086">
        <ele>291.8</ele>
        <time>2010-10-17T08:05:02Z</time>
      </trkpt>
      <trkpt lat="45.13919" lon="5.23089">
        <ele>293.5</ele>
        <time>2010-10-17T08:05:04Z</time>
      </trkpt>
      <trkpt lat="45.13922" lon="5.23092">
        <ele>294</ele>
        <time>2010-10-17T08:05:06Z</time>
      </trkpt>
      <trkpt lat="45.13924" lon="5.23094">
        <ele>294.3</ele>
        <time>2010-10-17T08:05:08Z</time>
      </trkpt>
      <trkpt lat="45.13926" lon="5.23098">
        <ele>293.8</ele>
        <time>2010-10-17T08:05:10Z</time>
      </trkpt>
      <trkpt lat="45.13929" lon="5.23101">
        <ele>293.8</ele>
        <time>2010-10-17T08:05:12Z</time>
      </trkpt>
      <trkpt lat="45.13933" lon="5.23104">
        <ele>294</ele>
        <time>2010-10-17T08:05:14Z</time>
      </trkpt>
      <trkpt lat="45.13936" lon="5.23107">
        <ele>294.5</ele>
        <time>2010-10-17T08:05:16Z</time>
      </trkpt>
      <trkpt lat="45.13939" lon="5.2311">
        <ele>296.3</ele>
        <time>2010-10-17T08:05:18Z</time>
      </trkpt>
      <trkpt lat="45.13942" lon="5.23112">
        <ele>296.5</ele>
        <time>2010-10-17T08:05:20Z</time>
      </trkpt>
      <trkpt lat="45.13945" lon="5.23114">
        <ele>296.8</ele>
        <time>2010-10-17T08:05:22Z</time>
      </trkpt>
      <trkpt lat="45.13948" lon="5.23116">
        <ele>295.7</ele>
        <time>2010-10-17T08:05:24Z</time>
      </trkpt>
      <trkpt lat="45.13951" lon="5.23118">
        <ele>295</ele>
        <time>2010-10-17T08:05:26Z</time>
      </trkpt>
      <trkpt lat="45.13954" lon="5.23121">
        <ele>294.8</ele>
        <time>2010-10-17T08:05:28Z</time>
      </trkpt>
      <trkpt lat="45.13957" lon="5.23122">
        <ele>295</ele>
        <time>2010-10-17T08:05:30Z</time>
      </trkpt>
      <trkpt lat="45.13958" lon="5.23125">
        <ele>295.8</ele>
        <time>2010-10-17T08:05:32Z</time>
      </trkpt>
      <trkpt lat="45.13959" lon="5.23129">
        <ele>297</ele>
        <time>2010-10-17T08:05:34Z</time>
      </trkpt>
      <trkpt lat="45.13962" lon="5.23131">
        <ele>297.8</ele>
        <time>2010-10-17T08:05:36Z</time>
      </trkpt>
      <trkpt lat="45.13966" lon="5.2313">
        <ele>298.1</ele>
        <time>2010-10-17T08:05:38Z</time>
      </trkpt>
      <trkpt lat="45.1397" lon="5.23128">
        <ele>298.7</ele>
        <time>2010-10-17T08:05:40Z</time>
      </trkpt>
      <trkpt lat="45.13973" lon="5.23126">
        <ele>298.9</ele>
        <time>2010-10-17T08:05:42Z</time>
      </trkpt>
      <trkpt lat="45.13976" lon="5.23123">
        <ele>299.1</ele>
        <time>2010-10-17T08:05:44Z</time>
      </trkpt>
      <trkpt lat="45.13978" lon="5.2312">
        <ele>298.9</ele>
        <time>2010-10-17T08:05:46Z</time>
      </trkpt>
      <trkpt lat="45.13983" lon="5.23117">
        <ele>299</ele>
        <time>2010-10-17T08:05:48Z</time>
      </trkpt>
      <trkpt lat="45.13986" lon="5.23112">
        <ele>298.9</ele>
        <time>2010-10-17T08:05:50Z</time>
      </trkpt>
      <trkpt lat="45.1399" lon="5.23108">
        <ele>298.8</ele>
        <time>2010-10-17T08:05:52Z</time>
      </trkpt>
      <trkpt lat="45.13996" lon="5.23103">
        <ele>299</ele>
        <time>2010-10-17T08:05:54Z</time>
      </trkpt>
      <trkpt lat="45.14" lon="5.23099">
        <ele>298.8</ele>
        <time>2010-10-17T08:05:56Z</time>
      </trkpt>
      <trkpt lat="45.14003" lon="5.23095">
        <ele>299</ele>
        <time>2010-10-17T08:05:58Z</time>
      </trkpt>
      <trkpt lat="45.14009" lon="5.2309">
        <ele>298.5</ele>
        <time>2010-10-17T08:06:00Z</time>
      </trkpt>
      <trkpt lat="45.14013" lon="5.23084">
        <ele>298.2</ele>
        <time>2010-10-17T08:06:02Z</time>
      </trkpt>
      <trkpt lat="45.14017" lon="5.23078">
        <ele>299</ele>
        <time>2010-10-17T08:06:04Z</time>
      </trkpt>
      <trkpt lat="45.1402" lon="5.23073">
        <ele>298.8</ele>
        <time>2010-10-17T08:06:06Z</time>
      </trkpt>
      <trkpt lat="45.14022" lon="5.23066">
        <ele>299.4</ele>
        <time>2010-10-17T08:06:08Z</time>
      </trkpt>
      <trkpt lat="45.14025" lon="5.23061">
        <ele>300.8</ele>
        <time>2010-10-17T08:06:10Z</time>
      </trkpt>
      <trkpt lat="45.14029" lon="5.23055">
        <ele>301.4</ele>
        <time>2010-10-17T08:06:12Z</time>
      </trkpt>
      <trkpt lat="45.14036" lon="5.23048">
        <ele>300.5</ele>
        <time>2010-10-17T08:06:14Z</time>
      </trkpt>
      <trkpt lat="45.1404" lon="5.23042">
        <ele>299.8</ele>
        <time>2010-10-17T08:06:16Z</time>
      </trkpt>
      <trkpt lat="45.14044" lon="5.23037">
        <ele>299.4</ele>
        <time>2010-10-17T08:06:18Z</time>
      </trkpt>
      <trkpt lat="45.14049" lon="5.23032">
        <ele>299.3</ele>
        <time>2010-10-17T08:06:20Z</time>
      </trkpt>
      <trkpt lat="45.14053" lon="5.23026">
        <ele>299.3</ele>
        <time>2010-10-17T08:06:22Z</time>
      </trkpt>
      <trkpt lat="45.14056" lon="5.2302">
        <ele>299.3</ele>
        <time>2010-10-17T08:06:24Z</time>
      </trkpt>
      <trkpt lat="45.1406" lon="5.23014">
        <ele>299.5</ele>
        <time>2010-10-17T08:06:26Z</time>
      </trkpt>
      <trkpt lat="45.14063" lon="5.23009">
        <ele>299.5</ele>
        <time>2010-10-17T08:06:28Z</time>
      </trkpt>
      <trkpt lat="45.14067" lon="5.23003">
        <ele>299.4</ele>
        <time>2010-10-17T08:06:30Z</time>
      </trkpt>
      <trkpt lat="45.1407" lon="5.22998">
        <ele>299.3</ele>
        <time>2010-10-17T08:06:32Z</time>
      </trkpt>
      <trkpt lat="45.14074" lon="5.22992">
        <ele>299.6</ele>
        <time>2010-10-17T08:06:34Z</time>
      </trkpt>
      <trkpt lat="45.14076" lon="5.22987">
        <ele>300.3</ele>
        <time>2010-10-17T08:06:36Z</time>
      </trkpt>
      <trkpt lat="45.14078" lon="5.22981">
        <ele>301.2</ele>
        <time>2010-10-17T08:06:38Z</time>
      </trkpt>
      <trkpt lat="45.1408" lon="5.22976">
        <ele>301.6</ele>
        <time>2010-10-17T08:06:40Z</time>
      </trkpt>
      <trkpt lat="45.14083" lon="5.22972">
        <ele>302.3</ele>
        <time>2010-10-17T08:06:42Z</time>
      </trkpt>
      <trkpt lat="45.14085" lon="5.22968">
        <ele>303.8</ele>
        <time>2010-10-17T08:06:44Z</time>
      </trkpt>
      <trkpt lat="45.14087" lon="5.22964">
        <ele>303.6</ele>
        <time>2010-10-17T08:06:46Z</time>
      </trkpt>
      <trkpt lat="45.14089" lon="5.22959">
        <ele>303.5</ele>
        <time>2010-10-17T08:06:48Z</time>
      </trkpt>
      <trkpt lat="45.14092" lon="5.22955">
        <ele>303.4</ele>
        <time>2010-10-17T08:06:50Z</time>
      </trkpt>
      <trkpt lat="45.14095" lon="5.22951">
        <ele>303.8</ele>
        <time>2010-10-17T08:06:52Z</time>
      </trkpt>
      <trkpt lat="45.14097" lon="5.22946">
        <ele>305.2</ele>
        <time>2010-10-17T08:06:54Z</time>
      </trkpt>
      <trkpt lat="45.14099" lon="5.22942">
        <ele>305.9</ele>
        <time>2010-10-17T08:06:56Z</time>
      </trkpt>
      <trkpt lat="45.14101" lon="5.22939">
        <ele>306.3</ele>
        <time>2010-10-17T08:06:58Z</time>
      </trkpt>
      <trkpt lat="45.14102" lon="5.22936">
        <ele>306.7</ele>
        <time>2010-10-17T08:07:00Z</time>
      </trkpt>
      <trkpt lat="45.14105" lon="5.22933">
        <ele>306</ele>
        <time>2010-10-17T08:07:02Z</time>
      </trkpt>
      <trkpt lat="45.14107" lon="5.2293">
        <ele>305.5</ele>
        <time>2010-10-17T08:07:04Z</time>
      </trkpt>
      <trkpt lat="45.14109" lon="5.22927">
        <ele>305.6</ele>
        <time>2010-10-17T08:07:06Z</time>
      </trkpt>
      <trkpt lat="45.1411" lon="5.22924">
        <ele>306</ele>
        <time>2010-10-17T08:07:08Z</time>
      </trkpt>
      <trkpt lat="45.14112" lon="5.2292">
        <ele>306.8</ele>
        <time>2010-10-17T08:07:10Z</time>
      </trkpt>
      <trkpt lat="45.14115" lon="5.22915">
        <ele>308.3</ele>
        <time>2010-10-17T08:07:12Z</time>
      </trkpt>
      <trkpt lat="45.14119" lon="5.2291">
        <ele>310.4</ele>
        <time>2010-10-17T08:07:14Z</time>
      </trkpt>
      <trkpt lat="45.14121" lon="5.22906">
        <ele>310.5</ele>
        <time>2010-10-17T08:07:16Z</time>
      </trkpt>
      <trkpt lat="45.14123" lon="5.22903">
        <ele>310.5</ele>
        <time>2010-10-17T08:07:18Z</time>
      </trkpt>
      <trkpt lat="45.14126" lon="5.22901">
        <ele>309.8</ele>
        <time>2010-10-17T08:07:20Z</time>
      </trkpt>
      <trkpt lat="45.14128" lon="5.22899">
        <ele>309.6</ele>
        <time>2010-10-17T08:07:22Z</time>
      </trkpt>
      <trkpt lat="45.14132" lon="5.22897">
        <ele>309.5</ele>
        <time>2010-10-17T08:07:24Z</time>
      </trkpt>
      <trkpt lat="45.14134" lon="5.22893">
        <ele>309.7</ele>
        <time>2010-10-17T08:07:26Z</time>
      </trkpt>
      <trkpt lat="45.14137" lon="5.2289">
        <ele>309.8</ele>
        <time>2010-10-17T08:07:28Z</time>
      </trkpt>
      <trkpt lat="45.14139" lon="5.22886">
        <ele>309.5</ele>
        <time>2010-10-17T08:07:30Z</time>
      </trkpt>
      <trkpt lat="45.14142" lon="5.22884">
        <ele>309.3</ele>
        <time>2010-10-17T08:07:32Z</time>
      </trkpt>
      <trkpt lat="45.14145" lon="5.2288">
        <ele>309.6</ele>
        <time>2010-10-17T08:07:34Z</time>
      </trkpt>
      <trkpt lat="45.14149" lon="5.22876">
        <ele>309.8</ele>
        <time>2010-10-17T08:07:36Z</time>
      </trkpt>
      <trkpt lat="45.14153" lon="5.22872">
        <ele>310.3</ele>
        <time>2010-10-17T08:07:38Z</time>
      </trkpt>
      <trkpt lat="45.14157" lon="5.22869">
        <ele>310.6</ele>
        <time>2010-10-17T08:07:40Z</time>
      </trkpt>
      <trkpt lat="45.14159" lon="5.22865">
        <ele>311.3</ele>
        <time>2010-10-17T08:07:42Z</time>
      </trkpt>
      <trkpt lat="45.14163" lon="5.22862">
        <ele>311.7</ele>
        <time>2010-10-17T08:07:44Z</time>
      </trkpt>
      <trkpt lat="45.14166" lon="5.22858">
        <ele>311.2</ele>
        <time>2010-10-17T08:07:46Z</time>
      </trkpt>
      <trkpt lat="45.1417" lon="5.22855">
        <ele>310.5</ele>
        <time>2010-10-17T08:07:48Z</time>
      </trkpt>
      <trkpt lat="45.14175" lon="5.22852">
        <ele>310</ele>
        <time>2010-10-17T08:07:50Z</time>
      </trkpt>
      <trkpt lat="45.14178" lon="5.2285">
        <ele>310.5</ele>
        <time>2010-10-17T08:07:52Z</time>
      </trkpt>
      <trkpt lat="45.14181" lon="5.22847">
        <ele>310.6</ele>
        <time>2010-10-17T08:07:54Z</time>
      </trkpt>
      <trkpt lat="45.14184" lon="5.22845">
        <ele>310.5</ele>
        <time>2010-10-17T08:07:56Z</time>
      </trkpt>
      <trkpt lat="45.14189" lon="5.22842">
        <ele>311.6</ele>
        <time>2010-10-17T08:07:58Z</time>
      </trkpt>
      <trkpt lat="45.14193" lon="5.22838">
        <ele>311.4</ele>
        <time>2010-10-17T08:08:00Z</time>
      </trkpt>
      <trkpt lat="45.14196" lon="5.22837">
        <ele>309.8</ele>
        <time>2010-10-17T08:08:02Z</time>
      </trkpt>
      <trkpt lat="45.142" lon="5.22836">
        <ele>309.4</ele>
        <time>2010-10-17T08:08:04Z</time>
      </trkpt>
      <trkpt lat="45.14205" lon="5.22835">
        <ele>309.5</ele>
        <time>2010-10-17T08:08:06Z</time>
      </trkpt>
      <trkpt lat="45.14208" lon="5.22834">
        <ele>309.9</ele>
        <time>2010-10-17T08:08:08Z</time>
      </trkpt>
      <trkpt lat="45.14212" lon="5.22833">
        <ele>310.3</ele>
        <time>2010-10-17T08:08:10Z</time>
      </trkpt>
      <trkpt lat="45.14217" lon="5.22832">
        <ele>309.6</ele>
        <time>2010-10-17T08:08:12Z</time>
      </trkpt>
      <trkpt lat="45.14221" lon="5.22831">
        <ele>310.5</ele>
        <time>2010-10-17T08:08:14Z</time>
      </trkpt>
      <trkpt lat="45.14225" lon="5.2283">
        <ele>311.2</ele>
        <time>2010-10-17T08:08:16Z</time>
      </trkpt>
      <trkpt lat="45.14229" lon="5.22829">
        <ele>311</ele>
        <time>2010-10-17T08:08:18Z</time>
      </trkpt>
      <trkpt lat="45.14234" lon="5.22828">
        <ele>310.5</ele>
        <time>2010-10-17T08:08:20Z</time>
      </trkpt>
      <trkpt lat="45.14239" lon="5.22827">
        <ele>310</ele>
        <time>2010-10-17T08:08:22Z</time>
      </trkpt>
      <trkpt lat="45.14243" lon="5.22826">
        <ele>310</ele>
        <time>2010-10-17T08:08:24Z</time>
      </trkpt>
      <trkpt lat="45.14247" lon="5.22824">
        <ele>310.3</ele>
        <time>2010-10-17T08:08:26Z</time>
      </trkpt>
      <trkpt lat="45.14251" lon="5.22824">
        <ele>310.6</ele>
        <time>2010-10-17T08:08:28Z</time>
      </trkpt>
      <trkpt lat="45.14255" lon="5.22825">
        <ele>310.8</ele>
        <time>2010-10-17T08:08:30Z</time>
      </trkpt>
      <trkpt lat="45.14262" lon="5.22824">
        <ele>310.5</ele>
        <time>2010-10-17T08:08:32Z</time>
      </trkpt>
      <trkpt lat="45.14267" lon="5.22825">
        <ele>310.7</ele>
        <time>2010-10-17T08:08:34Z</time>
      </trkpt>
      <trkpt lat="45.14271" lon="5.22825">
        <ele>310.7</ele>
        <time>2010-10-17T08:08:36Z</time>
      </trkpt>
      <trkpt lat="45.14275" lon="5.22825">
        <ele>310.8</ele>
        <time>2010-10-17T08:08:38Z</time>
      </trkpt>
      <trkpt lat="45.14279" lon="5.22825">
        <ele>311.1</ele>
        <time>2010-10-17T08:08:40Z</time>
      </trkpt>
      <trkpt lat="45.14283" lon="5.22825">
        <ele>311</ele>
        <time>2010-10-17T08:08:42Z</time>
      </trkpt>
      <trkpt lat="45.14288" lon="5.22824">
        <ele>311.4</ele>
        <time>2010-10-17T08:08:44Z</time>
      </trkpt>
      <trkpt lat="45.14293" lon="5.22824">
        <ele>311</ele>
        <time>2010-10-17T08:08:46Z</time>
      </trkpt>
      <trkpt lat="45.14298" lon="5.22824">
        <ele>310.9</ele>
        <time>2010-10-17T08:08:48Z</time>
      </trkpt>
      <trkpt lat="45.14303" lon="5.22825">
        <ele>310</ele>
        <time>2010-10-17T08:08:50Z</time>
      </trkpt>
      <trkpt lat="45.14308" lon="5.22825">
        <ele>309.3</ele>
        <time>2010-10-17T08:08:52Z</time>
      </trkpt>
      <trkpt lat="45.14315" lon="5.22825">
        <ele>309.5</ele>
        <time>2010-10-17T08:08:54Z</time>
      </trkpt>
      <trkpt lat="45.1432" lon="5.22826">
        <ele>312.5</ele>
        <time>2010-10-17T08:08:56Z</time>
      </trkpt>
      <trkpt lat="45.14325" lon="5.22828">
        <ele>313.8</ele>
        <time>2010-10-17T08:08:58Z</time>
      </trkpt>
      <trkpt lat="45.1433" lon="5.22828">
        <ele>314.4</ele>
        <time>2010-10-17T08:09:00Z</time>
      </trkpt>
      <trkpt lat="45.14336" lon="5.22829">
        <ele>315.9</ele>
        <time>2010-10-17T08:09:02Z</time>
      </trkpt>
      <trkpt lat="45.14341" lon="5.2283">
        <ele>315.8</ele>
        <time>2010-10-17T08:09:04Z</time>
      </trkpt>
      <trkpt lat="45.14347" lon="5.2283">
        <ele>315.5</ele>
        <time>2010-10-17T08:09:06Z</time>
      </trkpt>
      <trkpt lat="45.14352" lon="5.22829">
        <ele>316.4</ele>
        <time>2010-10-17T08:09:08Z</time>
      </trkpt>
      <trkpt lat="45.14356" lon="5.22829">
        <ele>316.8</ele>
        <time>2010-10-17T08:09:10Z</time>
      </trkpt>
      <trkpt lat="45.14362" lon="5.2283">
        <ele>317.5</ele>
        <time>2010-10-17T08:09:12Z</time>
      </trkpt>
      <trkpt lat="45.14366" lon="5.22831">
        <ele>316.3</ele>
        <time>2010-10-17T08:09:14Z</time>
      </trkpt>
      <trkpt lat="45.14371" lon="5.22831">
        <ele>315.8</ele>
        <time>2010-10-17T08:09:16Z</time>
      </trkpt>
      <trkpt lat="45.14376" lon="5.22831">
        <ele>315.5</ele>
        <time>2010-10-17T08:09:18Z</time>
      </trkpt>
      <trkpt lat="45.1438" lon="5.22832">
        <ele>315</ele>
        <time>2010-10-17T08:09:20Z</time>
      </trkpt>
      <trkpt lat="45.14385" lon="5.22832">
        <ele>314.8</ele>
        <time>2010-10-17T08:09:22Z</time>
      </trkpt>
      <trkpt lat="45.1439" lon="5.22832">
        <ele>315.6</ele>
        <time>2010-10-17T08:09:24Z</time>
      </trkpt>
      <trkpt lat="45.14397" lon="5.22834">
        <ele>316.4</ele>
        <time>2010-10-17T08:09:26Z</time>
      </trkpt>
      <trkpt lat="45.14404" lon="5.22834">
        <ele>316.6</ele>
        <time>2010-10-17T08:09:28Z</time>
      </trkpt>
      <trkpt lat="45.14408" lon="5.22834">
        <ele>316.8</ele>
        <time>2010-10-17T08:09:30Z</time>
      </trkpt>
      <trkpt lat="45.14413" lon="5.22834">
        <ele>316.9</ele>
        <time>2010-10-17T08:09:32Z</time>
      </trkpt>
      <trkpt lat="45.14418" lon="5.22833">
        <ele>317.1</ele>
        <time>2010-10-17T08:09:34Z</time>
      </trkpt>
      <trkpt lat="45.14423" lon="5.22832">
        <ele>317.5</ele>
        <time>2010-10-17T08:09:36Z</time>
      </trkpt>
      <trkpt lat="45.14428" lon="5.22831">
        <ele>317.3</ele>
        <time>2010-10-17T08:09:38Z</time>
      </trkpt>
      <trkpt lat="45.14432" lon="5.22829">
        <ele>317</ele>
        <time>2010-10-17T08:09:40Z</time>
      </trkpt>
      <trkpt lat="45.14437" lon="5.22826">
        <ele>316.5</ele>
        <time>2010-10-17T08:09:42Z</time>
      </trkpt>
      <trkpt lat="45.14441" lon="5.22824">
        <ele>317</ele>
        <time>2010-10-17T08:09:44Z</time>
      </trkpt>
      <trkpt lat="45.14446" lon="5.22818">
        <ele>316.8</ele>
        <time>2010-10-17T08:09:46Z</time>
      </trkpt>
      <trkpt lat="45.14451" lon="5.22815">
        <ele>317.6</ele>
        <time>2010-10-17T08:09:48Z</time>
      </trkpt>
      <trkpt lat="45.14453" lon="5.2281">
        <ele>317.6</ele>
        <time>2010-10-17T08:09:50Z</time>
      </trkpt>
      <trkpt lat="45.14457" lon="5.22807">
        <ele>319.1</ele>
        <time>2010-10-17T08:09:52Z</time>
      </trkpt>
      <trkpt lat="45.14462" lon="5.22806">
        <ele>319.7</ele>
        <time>2010-10-17T08:09:54Z</time>
      </trkpt>
      <trkpt lat="45.14468" lon="5.22806">
        <ele>319.8</ele>
        <time>2010-10-17T08:09:56Z</time>
      </trkpt>
      <trkpt lat="45.14474" lon="5.22805">
        <ele>320</ele>
        <time>2010-10-17T08:09:58Z</time>
      </trkpt>
      <trkpt lat="45.1448" lon="5.22802">
        <ele>320.4</ele>
        <time>2010-10-17T08:10:00Z</time>
      </trkpt>
      <trkpt lat="45.14487" lon="5.22801">
        <ele>320.7</ele>
        <time>2010-10-17T08:10:02Z</time>
      </trkpt>
      <trkpt lat="45.14491" lon="5.228">
        <ele>320.7</ele>
        <time>2010-10-17T08:10:04Z</time>
      </trkpt>
      <trkpt lat="45.14496" lon="5.22799">
        <ele>321.2</ele>
        <time>2010-10-17T08:10:06Z</time>
      </trkpt>
      <trkpt lat="45.14502" lon="5.22797">
        <ele>321.1</ele>
        <time>2010-10-17T08:10:08Z</time>
      </trkpt>
      <trkpt lat="45.14505" lon="5.22795">
        <ele>321</ele>
        <time>2010-10-17T08:10:10Z</time>
      </trkpt>
      <trkpt lat="45.1451" lon="5.22794">
        <ele>320.8</ele>
        <time>2010-10-17T08:10:12Z</time>
      </trkpt>
      <trkpt lat="45.14514" lon="5.22792">
        <ele>320.8</ele>
        <time>2010-10-17T08:10:14Z</time>
      </trkpt>
      <trkpt lat="45.14516" lon="5.22789">
        <ele>320.7</ele>
        <time>2010-10-17T08:10:16Z</time>
      </trkpt>
      <trkpt lat="45.14517" lon="5.22788">
        <ele>321</ele>
        <time>2010-10-17T08:10:18Z</time>
      </trkpt>
      <trkpt lat="45.1452" lon="5.22787">
        <ele>321</ele>
        <time>2010-10-17T08:10:20Z</time>
      </trkpt>
      <trkpt lat="45.14524" lon="5.22786">
        <ele>321</ele>
        <time>2010-10-17T08:10:22Z</time>
      </trkpt>
      <trkpt lat="45.14527" lon="5.22785">
        <ele>321.1</ele>
        <time>2010-10-17T08:10:24Z</time>
      </trkpt>
      <trkpt lat="45.14531" lon="5.22784">
        <ele>321.5</ele>
        <time>2010-10-17T08:10:26Z</time>
      </trkpt>
      <trkpt lat="45.14535" lon="5.22782">
        <ele>322</ele>
        <time>2010-10-17T08:10:28Z</time>
      </trkpt>
      <trkpt lat="45.14538" lon="5.2278">
        <ele>321.9</ele>
        <time>2010-10-17T08:10:30Z</time>
      </trkpt>
      <trkpt lat="45.14542" lon="5.22779">
        <ele>322.5</ele>
        <time>2010-10-17T08:10:32Z</time>
      </trkpt>
      <trkpt lat="45.14546" lon="5.22776">
        <ele>323.3</ele>
        <time>2010-10-17T08:10:35Z</time>
      </trkpt>
      <trkpt lat="45.14549" lon="5.22774">
        <ele>323.3</ele>
        <time>2010-10-17T08:10:37Z</time>
      </trkpt>
      <trkpt lat="45.14553" lon="5.22772">
        <ele>323.3</ele>
        <time>2010-10-17T08:10:39Z</time>
      </trkpt>
      <trkpt lat="45.14557" lon="5.2277">
        <ele>322.8</ele>
        <time>2010-10-17T08:10:41Z</time>
      </trkpt>
      <trkpt lat="45.14559" lon="5.22768">
        <ele>322.9</ele>
        <time>2010-10-17T08:10:43Z</time>
      </trkpt>
      <trkpt lat="45.14564" lon="5.22768">
        <ele>322.7</ele>
        <time>2010-10-17T08:10:45Z</time>
      </trkpt>
      <trkpt lat="45.14569" lon="5.22768">
        <ele>322.7</ele>
        <time>2010-10-17T08:10:47Z</time>
      </trkpt>
      <trkpt lat="45.14574" lon="5.22769">
        <ele>322.7</ele>
        <time>2010-10-17T08:10:49Z</time>
      </trkpt>
      <trkpt lat="45.14579" lon="5.22769">
        <ele>323.9</ele>
        <time>2010-10-17T08:10:51Z</time>
      </trkpt>
      <trkpt lat="45.14584" lon="5.22769">
        <ele>324.5</ele>
        <time>2010-10-17T08:10:53Z</time>
      </trkpt>
      <trkpt lat="45.14589" lon="5.22767">
        <ele>325.6</ele>
        <time>2010-10-17T08:10:55Z</time>
      </trkpt>
      <trkpt lat="45.14594" lon="5.22765">
        <ele>326</ele>
        <time>2010-10-17T08:10:57Z</time>
      </trkpt>
      <trkpt lat="45.14598" lon="5.22764">
        <ele>326.9</ele>
        <time>2010-10-17T08:10:59Z</time>
      </trkpt>
      <trkpt lat="45.14603" lon="5.22763">
        <ele>326.6</ele>
        <time>2010-10-17T08:11:01Z</time>
      </trkpt>
      <trkpt lat="45.14607" lon="5.22763">
        <ele>327.3</ele>
        <time>2010-10-17T08:11:03Z</time>
      </trkpt>
      <trkpt lat="45.1461" lon="5.22763">
        <ele>328.2</ele>
        <time>2010-10-17T08:11:05Z</time>
      </trkpt>
      <trkpt lat="45.14614" lon="5.22764">
        <ele>329.1</ele>
        <time>2010-10-17T08:11:07Z</time>
      </trkpt>
      <trkpt lat="45.14619" lon="5.22762">
        <ele>328.8</ele>
        <time>2010-10-17T08:11:09Z</time>
      </trkpt>
      <trkpt lat="45.14624" lon="5.2276">
        <ele>328.8</ele>
        <time>2010-10-17T08:11:11Z</time>
      </trkpt>
      <trkpt lat="45.14627" lon="5.22759">
        <ele>329.3</ele>
        <time>2010-10-17T08:11:13Z</time>
      </trkpt>
      <trkpt lat="45.14631" lon="5.22757">
        <ele>329.5</ele>
        <time>2010-10-17T08:11:15Z</time>
      </trkpt>
      <trkpt lat="45.14634" lon="5.22757">
        <ele>329.7</ele>
        <time>2010-10-17T08:11:17Z</time>
      </trkpt>
      <trkpt lat="45.14638" lon="5.22755">
        <ele>329.6</ele>
        <time>2010-10-17T08:11:19Z</time>
      </trkpt>
      <trkpt lat="45.14642" lon="5.22753">
        <ele>328.9</ele>
        <time>2010-10-17T08:11:21Z</time>
      </trkpt>
      <trkpt lat="45.14646" lon="5.22751">
        <ele>328.7</ele>
        <time>2010-10-17T08:11:23Z</time>
      </trkpt>
      <trkpt lat="45.1465" lon="5.22749">
        <ele>327.7</ele>
        <time>2010-10-17T08:11:25Z</time>
      </trkpt>
      <trkpt lat="45.14653" lon="5.22748">
        <ele>327.3</ele>
        <time>2010-10-17T08:11:27Z</time>
      </trkpt>
      <trkpt lat="45.14657" lon="5.22745">
        <ele>327.8</ele>
        <time>2010-10-17T08:11:29Z</time>
      </trkpt>
      <trkpt lat="45.14661" lon="5.22744">
        <ele>328.7</ele>
        <time>2010-10-17T08:11:31Z</time>
      </trkpt>
      <trkpt lat="45.14666" lon="5.22745">
        <ele>328.4</ele>
        <time>2010-10-17T08:11:33Z</time>
      </trkpt>
      <trkpt lat="45.14672" lon="5.22747">
        <ele>327.3</ele>
        <time>2010-10-17T08:11:35Z</time>
      </trkpt>
      <trkpt lat="45.14676" lon="5.2275">
        <ele>325.5</ele>
        <time>2010-10-17T08:11:37Z</time>
      </trkpt>
      <trkpt lat="45.14681" lon="5.22753">
        <ele>324.1</ele>
        <time>2010-10-17T08:11:39Z</time>
      </trkpt>
      <trkpt lat="45.14684" lon="5.22756">
        <ele>323.1</ele>
        <time>2010-10-17T08:11:41Z</time>
      </trkpt>
      <trkpt lat="45.14688" lon="5.22761">
        <ele>322.5</ele>
        <time>2010-10-17T08:11:43Z</time>
      </trkpt>
      <trkpt lat="45.14692" lon="5.22765">
        <ele>322.1</ele>
        <time>2010-10-17T08:11:45Z</time>
      </trkpt>
      <trkpt lat="45.14695" lon="5.22769">
        <ele>322.8</ele>
        <time>2010-10-17T08:11:47Z</time>
      </trkpt>
      <trkpt lat="45.14698" lon="5.22773">
        <ele>322.8</ele>
        <time>2010-10-17T08:11:49Z</time>
      </trkpt>
      <trkpt lat="45.147" lon="5.22777">
        <ele>322.7</ele>
        <time>2010-10-17T08:11:51Z</time>
      </trkpt>
      <trkpt lat="45.14702" lon="5.22781">
        <ele>322.6</ele>
        <time>2010-10-17T08:11:53Z</time>
      </trkpt>
      <trkpt lat="45.14705" lon="5.22786">
        <ele>322.7</ele>
        <time>2010-10-17T08:11:55Z</time>
      </trkpt>
      <trkpt lat="45.14707" lon="5.22791">
        <ele>323</ele>
        <time>2010-10-17T08:11:57Z</time>
      </trkpt>
      <trkpt lat="45.1471" lon="5.22799">
        <ele>325.8</ele>
        <time>2010-10-17T08:11:59Z</time>
      </trkpt>
      <trkpt lat="45.14713" lon="5.22805">
        <ele>327.8</ele>
        <time>2010-10-17T08:12:01Z</time>
      </trkpt>
      <trkpt lat="45.14716" lon="5.22808">
        <ele>328</ele>
        <time>2010-10-17T08:12:03Z</time>
      </trkpt>
      <trkpt lat="45.14717" lon="5.22812">
        <ele>327.9</ele>
        <time>2010-10-17T08:12:05Z</time>
      </trkpt>
      <trkpt lat="45.14718" lon="5.22816">
        <ele>327.3</ele>
        <time>2010-10-17T08:12:07Z</time>
      </trkpt>
      <trkpt lat="45.14721" lon="5.2282">
        <ele>326.9</ele>
        <time>2010-10-17T08:12:09Z</time>
      </trkpt>
      <trkpt lat="45.14723" lon="5.22822">
        <ele>326.3</ele>
        <time>2010-10-17T08:12:11Z</time>
      </trkpt>
      <trkpt lat="45.14725" lon="5.22825">
        <ele>326.2</ele>
        <time>2010-10-17T08:12:13Z</time>
      </trkpt>
      <trkpt lat="45.14727" lon="5.22829">
        <ele>325.6</ele>
        <time>2010-10-17T08:12:15Z</time>
      </trkpt>
      <trkpt lat="45.14729" lon="5.22833">
        <ele>324.5</ele>
        <time>2010-10-17T08:12:16Z</time>
      </trkpt>
      <trkpt lat="45.14731" lon="5.22837">
        <ele>324</ele>
        <time>2010-10-17T08:12:19Z</time>
      </trkpt>
      <trkpt lat="45.14734" lon="5.22842">
        <ele>324.5</ele>
        <time>2010-10-17T08:12:21Z</time>
      </trkpt>
      <trkpt lat="45.14735" lon="5.22845">
        <ele>325.2</ele>
        <time>2010-10-17T08:12:24Z</time>
      </trkpt>
      <trkpt lat="45.14739" lon="5.2285">
        <ele>327</ele>
        <time>2010-10-17T08:12:26Z</time>
      </trkpt>
      <trkpt lat="45.14743" lon="5.22854">
        <ele>328.5</ele>
        <time>2010-10-17T08:12:28Z</time>
      </trkpt>
      <trkpt lat="45.14745" lon="5.22858">
        <ele>329</ele>
        <time>2010-10-17T08:12:30Z</time>
      </trkpt>
      <trkpt lat="45.14747" lon="5.22861">
        <ele>329.9</ele>
        <time>2010-10-17T08:12:32Z</time>
      </trkpt>
      <trkpt lat="45.14751" lon="5.22865">
        <ele>330.8</ele>
        <time>2010-10-17T08:12:34Z</time>
      </trkpt>
      <trkpt lat="45.14756" lon="5.22868">
        <ele>331.5</ele>
        <time>2010-10-17T08:12:36Z</time>
      </trkpt>
      <trkpt lat="45.14762" lon="5.22871">
        <ele>332.1</ele>
        <time>2010-10-17T08:12:38Z</time>
      </trkpt>
      <trkpt lat="45.14766" lon="5.22874">
        <ele>332.6</ele>
        <time>2010-10-17T08:12:40Z</time>
      </trkpt>
      <trkpt lat="45.1477" lon="5.22877">
        <ele>332.5</ele>
        <time>2010-10-17T08:12:42Z</time>
      </trkpt>
      <trkpt lat="45.14773" lon="5.2288">
        <ele>332.6</ele>
        <time>2010-10-17T08:12:44Z</time>
      </trkpt>
      <trkpt lat="45.14776" lon="5.22882">
        <ele>332.7</ele>
        <time>2010-10-17T08:12:46Z</time>
      </trkpt>
      <trkpt lat="45.1478" lon="5.22884">
        <ele>332.8</ele>
        <time>2010-10-17T08:12:50Z</time>
      </trkpt>
      <trkpt lat="45.14782" lon="5.22886">
        <ele>332.7</ele>
        <time>2010-10-17T08:12:53Z</time>
      </trkpt>
      <trkpt lat="45.14786" lon="5.22889">
        <ele>332.7</ele>
        <time>2010-10-17T08:12:56Z</time>
      </trkpt>
      <trkpt lat="45.1479" lon="5.2289">
        <ele>332.5</ele>
        <time>2010-10-17T08:12:58Z</time>
      </trkpt>
      <trkpt lat="45.14793" lon="5.22892">
        <ele>333.1</ele>
        <time>2010-10-17T08:13:02Z</time>
      </trkpt>
      <trkpt lat="45.14797" lon="5.22892">
        <ele>333.5</ele>
        <time>2010-10-17T08:13:06Z</time>
      </trkpt>
      <trkpt lat="45.14801" lon="5.22892">
        <ele>333.5</ele>
        <time>2010-10-17T08:13:08Z</time>
      </trkpt>
      <trkpt lat="45.14804" lon="5.22893">
        <ele>333.1</ele>
        <time>2010-10-17T08:13:10Z</time>
      </trkpt>
      <trkpt lat="45.14809" lon="5.22896">
        <ele>333.5</ele>
        <time>2010-10-17T08:13:12Z</time>
      </trkpt>
      <trkpt lat="45.14813" lon="5.229">
        <ele>334.1</ele>
        <time>2010-10-17T08:13:14Z</time>
      </trkpt>
      <trkpt lat="45.14815" lon="5.22903">
        <ele>334.3</ele>
        <time>2010-10-17T08:13:15Z</time>
      </trkpt>
      <trkpt lat="45.14818" lon="5.22905">
        <ele>334</ele>
        <time>2010-10-17T08:13:18Z</time>
      </trkpt>
      <trkpt lat="45.1482" lon="5.22908">
        <ele>334.3</ele>
        <time>2010-10-17T08:13:20Z</time>
      </trkpt>
      <trkpt lat="45.14821" lon="5.22911">
        <ele>334.1</ele>
        <time>2010-10-17T08:13:22Z</time>
      </trkpt>
      <trkpt lat="45.14824" lon="5.22914">
        <ele>333.5</ele>
        <time>2010-10-17T08:13:24Z</time>
      </trkpt>
      <trkpt lat="45.14827" lon="5.22914">
        <ele>333.9</ele>
        <time>2010-10-17T08:13:27Z</time>
      </trkpt>
      <trkpt lat="45.14831" lon="5.22914">
        <ele>334.3</ele>
        <time>2010-10-17T08:13:30Z</time>
      </trkpt>
      <trkpt lat="45.14835" lon="5.22915">
        <ele>335</ele>
        <time>2010-10-17T08:13:33Z</time>
      </trkpt>
      <trkpt lat="45.14838" lon="5.22914">
        <ele>335</ele>
        <time>2010-10-17T08:13:35Z</time>
      </trkpt>
      <trkpt lat="45.14842" lon="5.22914">
        <ele>335.6</ele>
        <time>2010-10-17T08:13:37Z</time>
      </trkpt>
      <trkpt lat="45.14844" lon="5.22911">
        <ele>337.1</ele>
        <time>2010-10-17T08:13:39Z</time>
      </trkpt>
      <trkpt lat="45.14848" lon="5.2291">
        <ele>338.3</ele>
        <time>2010-10-17T08:13:42Z</time>
      </trkpt>
      <trkpt lat="45.14851" lon="5.2291">
        <ele>339.8</ele>
        <time>2010-10-17T08:13:44Z</time>
      </trkpt>
      <trkpt lat="45.14854" lon="5.2291">
        <ele>341.4</ele>
        <time>2010-10-17T08:13:46Z</time>
      </trkpt>
      <trkpt lat="45.14856" lon="5.2291">
        <ele>342</ele>
        <time>2010-10-17T08:13:48Z</time>
      </trkpt>
      <trkpt lat="45.14859" lon="5.2291">
        <ele>342.8</ele>
        <time>2010-10-17T08:13:51Z</time>
      </trkpt>
      <trkpt lat="45.14862" lon="5.2291">
        <ele>343.6</ele>
        <time>2010-10-17T08:13:54Z</time>
      </trkpt>
      <trkpt lat="45.14865" lon="5.22909">
        <ele>344.8</ele>
        <time>2010-10-17T08:13:57Z</time>
      </trkpt>
      <trkpt lat="45.14866" lon="5.22907">
        <ele>345.9</ele>
        <time>2010-10-17T08:14:00Z</time>
      </trkpt>
      <trkpt lat="45.1487" lon="5.22909">
        <ele>346</ele>
        <time>2010-10-17T08:14:05Z</time>
      </trkpt>
      <trkpt lat="45.14871" lon="5.2291">
        <ele>347.4</ele>
        <time>2010-10-17T08:14:15Z</time>
      </trkpt>
      <trkpt lat="45.14874" lon="5.22912">
        <ele>348.2</ele>
        <time>2010-10-17T08:14:22Z</time>
      </trkpt>
      <trkpt lat="45.14876" lon="5.22913">
        <ele>348.3</ele>
        <time>2010-10-17T08:14:24Z</time>
      </trkpt>
      <trkpt lat="45.14879" lon="5.22914">
        <ele>348.5</ele>
        <time>2010-10-17T08:14:28Z</time>
      </trkpt>
      <trkpt lat="45.14881" lon="5.22913">
        <ele>349.2</ele>
        <time>2010-10-17T08:14:30Z</time>
      </trkpt>
      <trkpt lat="45.14883" lon="5.22913">
        <ele>349.5</ele>
        <time>2010-10-17T08:14:33Z</time>
      </trkpt>
      <trkpt lat="45.14885" lon="5.22913">
        <ele>349.7</ele>
        <time>2010-10-17T08:14:37Z</time>
      </trkpt>
      <trkpt lat="45.14886" lon="5.22913">
        <ele>350.5</ele>
        <time>2010-10-17T08:14:45Z</time>
      </trkpt>
      <trkpt lat="45.14893" lon="5.22916">
        <ele>350.7</ele>
        <time>2010-10-17T08:14:51Z</time>
      </trkpt>
      <trkpt lat="45.149" lon="5.22918">
        <ele>350.8</ele>
        <time>2010-10-17T08:14:53Z</time>
      </trkpt>
      <trkpt lat="45.14904" lon="5.22921">
        <ele>350.8</ele>
        <time>2010-10-17T08:14:55Z</time>
      </trkpt>
      <trkpt lat="45.14907" lon="5.22923">
        <ele>351.6</ele>
        <time>2010-10-17T08:14:57Z</time>
      </trkpt>
      <trkpt lat="45.14911" lon="5.22924">
        <ele>353</ele>
        <time>2010-10-17T08:15:00Z</time>
      </trkpt>
      <trkpt lat="45.14913" lon="5.22924">
        <ele>354.9</ele>
        <time>2010-10-17T08:15:02Z</time>
      </trkpt>
      <trkpt lat="45.14915" lon="5.22925">
        <ele>355.3</ele>
        <time>2010-10-17T08:15:04Z</time>
      </trkpt>
      <trkpt lat="45.14917" lon="5.22925">
        <ele>356</ele>
        <time>2010-10-17T08:15:08Z</time>
      </trkpt>
      <trkpt lat="45.14917" lon="5.22925">
        <ele>356.5</ele>
        <time>2010-10-17T08:15:26Z</time>
      </trkpt>
      <trkpt lat="45.14917" lon="5.22923">
        <ele>357.9</ele>
        <time>2010-10-17T08:15:39Z</time>
      </trkpt>
      <trkpt lat="45.14921" lon="5.2292">
        <ele>358.5</ele>
        <time>2010-10-17T08:15:42Z</time>
      </trkpt>
      <trkpt lat="45.14924" lon="5.22915">
        <ele>358.3</ele>
        <time>2010-10-17T08:15:44Z</time>
      </trkpt>
      <trkpt lat="45.14925" lon="5.22909">
        <ele>358.6</ele>
        <time>2010-10-17T08:15:46Z</time>
      </trkpt>
      <trkpt lat="45.14925" lon="5.22905">
        <ele>359.7</ele>
        <time>2010-10-17T08:15:48Z</time>
      </trkpt>
      <trkpt lat="45.14926" lon="5.22903">
        <ele>360.3</ele>
        <time>2010-10-17T08:15:50Z</time>
      </trkpt>
      <trkpt lat="45.14926" lon="5.22899">
        <ele>360.1</ele>
        <time>2010-10-17T08:15:52Z</time>
      </trkpt>
      <trkpt lat="45.14925" lon="5.22895">
        <ele>360.2</ele>
        <time>2010-10-17T08:15:54Z</time>
      </trkpt>
      <trkpt lat="45.14927" lon="5.22892">
        <ele>360</ele>
        <time>2010-10-17T08:15:56Z</time>
      </trkpt>
      <trkpt lat="45.14927" lon="5.2289">
        <ele>359.4</ele>
        <time>2010-10-17T08:15:58Z</time>
      </trkpt>
      <trkpt lat="45.14928" lon="5.22885">
        <ele>359.7</ele>
        <time>2010-10-17T08:16:00Z</time>
      </trkpt>
      <trkpt lat="45.14928" lon="5.22881">
        <ele>360.8</ele>
        <time>2010-10-17T08:16:02Z</time>
      </trkpt>
      <trkpt lat="45.14928" lon="5.22877">
        <ele>361.3</ele>
        <time>2010-10-17T08:16:04Z</time>
      </trkpt>
      <trkpt lat="45.14929" lon="5.22873">
        <ele>362.3</ele>
        <time>2010-10-17T08:16:06Z</time>
      </trkpt>
      <trkpt lat="45.14929" lon="5.22868">
        <ele>362.4</ele>
        <time>2010-10-17T08:16:08Z</time>
      </trkpt>
      <trkpt lat="45.1493" lon="5.22864">
        <ele>362.5</ele>
        <time>2010-10-17T08:16:10Z</time>
      </trkpt>
      <trkpt lat="45.14931" lon="5.2286">
        <ele>362.9</ele>
        <time>2010-10-17T08:16:12Z</time>
      </trkpt>
      <trkpt lat="45.14932" lon="5.22856">
        <ele>363.9</ele>
        <time>2010-10-17T08:16:14Z</time>
      </trkpt>
      <trkpt lat="45.14934" lon="5.22854">
        <ele>364.2</ele>
        <time>2010-10-17T08:16:16Z</time>
      </trkpt>
      <trkpt lat="45.14935" lon="5.22849">
        <ele>363.9</ele>
        <time>2010-10-17T08:16:18Z</time>
      </trkpt>
      <trkpt lat="45.14938" lon="5.22846">
        <ele>364.3</ele>
        <time>2010-10-17T08:16:20Z</time>
      </trkpt>
      <trkpt lat="45.14941" lon="5.22845">
        <ele>364</ele>
        <time>2010-10-17T08:16:24Z</time>
      </trkpt>
      <trkpt lat="45.14944" lon="5.22843">
        <ele>364.6</ele>
        <time>2010-10-17T08:16:27Z</time>
      </trkpt>
      <trkpt lat="45.14946" lon="5.22842">
        <ele>364.3</ele>
        <time>2010-10-17T08:16:29Z</time>
      </trkpt>
      <trkpt lat="45.14949" lon="5.2284">
        <ele>364.5</ele>
        <time>2010-10-17T08:16:31Z</time>
      </trkpt>
      <trkpt lat="45.14951" lon="5.22838">
        <ele>364.6</ele>
        <time>2010-10-17T08:16:33Z</time>
      </trkpt>
      <trkpt lat="45.14953" lon="5.22834">
        <ele>364.7</ele>
        <time>2010-10-17T08:16:35Z</time>
      </trkpt>
      <trkpt lat="45.14955" lon="5.22832">
        <ele>364.8</ele>
        <time>2010-10-17T08:16:37Z</time>
      </trkpt>
      <trkpt lat="45.14957" lon="5.22831">
        <ele>364.9</ele>
        <time>2010-10-17T08:16:39Z</time>
      </trkpt>
      <trkpt lat="45.14962" lon="5.22829">
        <ele>365.5</ele>
        <time>2010-10-17T08:16:42Z</time>
      </trkpt>
      <trkpt lat="45.14965" lon="5.22826">
        <ele>365</ele>
        <time>2010-10-17T08:16:44Z</time>
      </trkpt>
      <trkpt lat="45.1497" lon="5.22823">
        <ele>365</ele>
        <time>2010-10-17T08:16:46Z</time>
      </trkpt>
      <trkpt lat="45.14974" lon="5.2282">
        <ele>364.9</ele>
        <time>2010-10-17T08:16:48Z</time>
      </trkpt>
      <trkpt lat="45.14977" lon="5.22817">
        <ele>365.4</ele>
        <time>2010-10-17T08:16:50Z</time>
      </trkpt>
      <trkpt lat="45.14979" lon="5.22814">
        <ele>365</ele>
        <time>2010-10-17T08:16:52Z</time>
      </trkpt>
      <trkpt lat="45.14979" lon="5.22811">
        <ele>364.9</ele>
        <time>2010-10-17T08:16:54Z</time>
      </trkpt>
      <trkpt lat="45.14982" lon="5.22807">
        <ele>365.9</ele>
        <time>2010-10-17T08:16:57Z</time>
      </trkpt>
      <trkpt lat="45.14986" lon="5.22802">
        <ele>366.4</ele>
        <time>2010-10-17T08:16:59Z</time>
      </trkpt>
      <trkpt lat="45.14987" lon="5.22798">
        <ele>366.3</ele>
        <time>2010-10-17T08:17:01Z</time>
      </trkpt>
      <trkpt lat="45.14987" lon="5.22794">
        <ele>367</ele>
        <time>2010-10-17T08:17:03Z</time>
      </trkpt>
      <trkpt lat="45.14988" lon="5.2279">
        <ele>366.7</ele>
        <time>2010-10-17T08:17:05Z</time>
      </trkpt>
      <trkpt lat="45.14988" lon="5.22787">
        <ele>367</ele>
        <time>2010-10-17T08:17:07Z</time>
      </trkpt>
      <trkpt lat="45.1499" lon="5.22783">
        <ele>367</ele>
        <time>2010-10-17T08:17:09Z</time>
      </trkpt>
      <trkpt lat="45.14991" lon="5.22779">
        <ele>366.9</ele>
        <time>2010-10-17T08:17:11Z</time>
      </trkpt>
      <trkpt lat="45.14993" lon="5.22774">
        <ele>366.4</ele>
        <time>2010-10-17T08:17:13Z</time>
      </trkpt>
      <trkpt lat="45.14995" lon="5.2277">
        <ele>366.2</ele>
        <time>2010-10-17T08:17:15Z</time>
      </trkpt>
      <trkpt lat="45.14997" lon="5.22768">
        <ele>366</ele>
        <time>2010-10-17T08:17:17Z</time>
      </trkpt>
      <trkpt lat="45.15" lon="5.22766">
        <ele>366.1</ele>
        <time>2010-10-17T08:17:20Z</time>
      </trkpt>
      <trkpt lat="45.15002" lon="5.22763">
        <ele>365.6</ele>
        <time>2010-10-17T08:17:22Z</time>
      </trkpt>
      <trkpt lat="45.15004" lon="5.2276">
        <ele>365.3</ele>
        <time>2010-10-17T08:17:24Z</time>
      </trkpt>
      <trkpt lat="45.15004" lon="5.22754">
        <ele>366.6</ele>
        <time>2010-10-17T08:17:26Z</time>
      </trkpt>
      <trkpt lat="45.15006" lon="5.22751">
        <ele>367.8</ele>
        <time>2010-10-17T08:17:29Z</time>
      </trkpt>
      <trkpt lat="45.15007" lon="5.22747">
        <ele>368.3</ele>
        <time>2010-10-17T08:17:31Z</time>
      </trkpt>
      <trkpt lat="45.15009" lon="5.22743">
        <ele>368.9</ele>
        <time>2010-10-17T08:17:33Z</time>
      </trkpt>
      <trkpt lat="45.1501" lon="5.22738">
        <ele>369.5</ele>
        <time>2010-10-17T08:17:35Z</time>
      </trkpt>
      <trkpt lat="45.15013" lon="5.22735">
        <ele>369.9</ele>
        <time>2010-10-17T08:17:39Z</time>
      </trkpt>
      <trkpt lat="45.15015" lon="5.22732">
        <ele>371.1</ele>
        <time>2010-10-17T08:17:41Z</time>
      </trkpt>
      <trkpt lat="45.15016" lon="5.2273">
        <ele>371.8</ele>
        <time>2010-10-17T08:17:43Z</time>
      </trkpt>
      <trkpt lat="45.15019" lon="5.22729">
        <ele>371.3</ele>
        <time>2010-10-17T08:17:45Z</time>
      </trkpt>
      <trkpt lat="45.15021" lon="5.22728">
        <ele>371.2</ele>
        <time>2010-10-17T08:17:47Z</time>
      </trkpt>
      <trkpt lat="45.15023" lon="5.22726">
        <ele>371.4</ele>
        <time>2010-10-17T08:17:49Z</time>
      </trkpt>
      <trkpt lat="45.15024" lon="5.22725">
        <ele>372.3</ele>
        <time>2010-10-17T08:17:52Z</time>
      </trkpt>
      <trkpt lat="45.15026" lon="5.22724">
        <ele>372.5</ele>
        <time>2010-10-17T08:17:55Z</time>
      </trkpt>
      <trkpt lat="45.15027" lon="5.22723">
        <ele>373</ele>
        <time>2010-10-17T08:18:01Z</time>
      </trkpt>
      <trkpt lat="45.15033" lon="5.22719">
        <ele>373.4</ele>
        <time>2010-10-17T08:18:06Z</time>
      </trkpt>
      <trkpt lat="45.15038" lon="5.22714">
        <ele>373.8</ele>
        <time>2010-10-17T08:18:08Z</time>
      </trkpt>
      <trkpt lat="45.15044" lon="5.22709">
        <ele>374.3</ele>
        <time>2010-10-17T08:18:10Z</time>
      </trkpt>
      <trkpt lat="45.15048" lon="5.22705">
        <ele>374.2</ele>
        <time>2010-10-17T08:18:12Z</time>
      </trkpt>
      <trkpt lat="45.15051" lon="5.22702">
        <ele>374.1</ele>
        <time>2010-10-17T08:18:14Z</time>
      </trkpt>
      <trkpt lat="45.15053" lon="5.22699">
        <ele>373.9</ele>
        <time>2010-10-17T08:18:16Z</time>
      </trkpt>
      <trkpt lat="45.15055" lon="5.22696">
        <ele>374.4</ele>
        <time>2010-10-17T08:18:18Z</time>
      </trkpt>
      <trkpt lat="45.15058" lon="5.22694">
        <ele>374.5</ele>
        <time>2010-10-17T08:18:21Z</time>
      </trkpt>
      <trkpt lat="45.15061" lon="5.22693">
        <ele>375.2</ele>
        <time>2010-10-17T08:18:23Z</time>
      </trkpt>
      <trkpt lat="45.15065" lon="5.22692">
        <ele>376</ele>
        <time>2010-10-17T08:18:25Z</time>
      </trkpt>
      <trkpt lat="45.15067" lon="5.22692">
        <ele>378.9</ele>
        <time>2010-10-17T08:18:29Z</time>
      </trkpt>
      <trkpt lat="45.15069" lon="5.22693">
        <ele>381.7</ele>
        <time>2010-10-17T08:18:32Z</time>
      </trkpt>
      <trkpt lat="45.15071" lon="5.22692">
        <ele>382.7</ele>
        <time>2010-10-17T08:19:19Z</time>
      </trkpt>
      <trkpt lat="45.15074" lon="5.22691">
        <ele>382.5</ele>
        <time>2010-10-17T08:19:21Z</time>
      </trkpt>
      <trkpt lat="45.15077" lon="5.22692">
        <ele>382.1</ele>
        <time>2010-10-17T08:19:23Z</time>
      </trkpt>
      <trkpt lat="45.15081" lon="5.22693">
        <ele>381.8</ele>
        <time>2010-10-17T08:19:25Z</time>
      </trkpt>
      <trkpt lat="45.15084" lon="5.22692">
        <ele>381.8</ele>
        <time>2010-10-17T08:19:27Z</time>
      </trkpt>
      <trkpt lat="45.15087" lon="5.22691">
        <ele>381.6</ele>
        <time>2010-10-17T08:19:29Z</time>
      </trkpt>
      <trkpt lat="45.1509" lon="5.2269">
        <ele>381.4</ele>
        <time>2010-10-17T08:19:31Z</time>
      </trkpt>
      <trkpt lat="45.15093" lon="5.2269">
        <ele>381</ele>
        <time>2010-10-17T08:19:33Z</time>
      </trkpt>
      <trkpt lat="45.15097" lon="5.2269">
        <ele>381.3</ele>
        <time>2010-10-17T08:19:35Z</time>
      </trkpt>
      <trkpt lat="45.151" lon="5.22688">
        <ele>382.1</ele>
        <time>2010-10-17T08:19:37Z</time>
      </trkpt>
      <trkpt lat="45.15103" lon="5.22687">
        <ele>382.4</ele>
        <time>2010-10-17T08:19:39Z</time>
      </trkpt>
      <trkpt lat="45.15107" lon="5.22685">
        <ele>382.5</ele>
        <time>2010-10-17T08:19:41Z</time>
      </trkpt>
      <trkpt lat="45.15109" lon="5.22684">
        <ele>382.4</ele>
        <time>2010-10-17T08:19:43Z</time>
      </trkpt>
      <trkpt lat="45.15112" lon="5.22683">
        <ele>382.2</ele>
        <time>2010-10-17T08:19:45Z</time>
      </trkpt>
      <trkpt lat="45.15115" lon="5.22683">
        <ele>382.5</ele>
        <time>2010-10-17T08:19:47Z</time>
      </trkpt>
      <trkpt lat="45.15119" lon="5.22681">
        <ele>382.8</ele>
        <time>2010-10-17T08:19:49Z</time>
      </trkpt>
      <trkpt lat="45.15123" lon="5.22678">
        <ele>382.9</ele>
        <time>2010-10-17T08:19:51Z</time>
      </trkpt>
      <trkpt lat="45.15129" lon="5.22677">
        <ele>384.1</ele>
        <time>2010-10-17T08:19:53Z</time>
      </trkpt>
      <trkpt lat="45.15133" lon="5.22676">
        <ele>384.9</ele>
        <time>2010-10-17T08:19:55Z</time>
      </trkpt>
      <trkpt lat="45.15138" lon="5.22673">
        <ele>385.3</ele>
        <time>2010-10-17T08:19:57Z</time>
      </trkpt>
      <trkpt lat="45.15143" lon="5.22669">
        <ele>386.2</ele>
        <time>2010-10-17T08:19:59Z</time>
      </trkpt>
      <trkpt lat="45.15145" lon="5.22665">
        <ele>386.8</ele>
        <time>2010-10-17T08:20:01Z</time>
      </trkpt>
      <trkpt lat="45.15148" lon="5.22663">
        <ele>387.3</ele>
        <time>2010-10-17T08:20:03Z</time>
      </trkpt>
      <trkpt lat="45.1515" lon="5.22661">
        <ele>387.4</ele>
        <time>2010-10-17T08:20:05Z</time>
      </trkpt>
      <trkpt lat="45.15151" lon="5.22658">
        <ele>388.1</ele>
        <time>2010-10-17T08:20:07Z</time>
      </trkpt>
      <trkpt lat="45.15155" lon="5.22654">
        <ele>388.8</ele>
        <time>2010-10-17T08:20:10Z</time>
      </trkpt>
      <trkpt lat="45.15158" lon="5.22651">
        <ele>389</ele>
        <time>2010-10-17T08:20:12Z</time>
      </trkpt>
      <trkpt lat="45.1516" lon="5.22648">
        <ele>388.5</ele>
        <time>2010-10-17T08:20:14Z</time>
      </trkpt>
      <trkpt lat="45.15162" lon="5.22644">
        <ele>388.6</ele>
        <time>2010-10-17T08:20:16Z</time>
      </trkpt>
      <trkpt lat="45.15163" lon="5.2264">
        <ele>389</ele>
        <time>2010-10-17T08:20:19Z</time>
      </trkpt>
      <trkpt lat="45.15164" lon="5.22639">
        <ele>389.8</ele>
        <time>2010-10-17T08:20:22Z</time>
      </trkpt>
      <trkpt lat="45.15166" lon="5.22636">
        <ele>389.6</ele>
        <time>2010-10-17T08:20:46Z</time>
      </trkpt>
      <trkpt lat="45.15174" lon="5.22628">
        <ele>389.7</ele>
        <time>2010-10-17T08:20:48Z</time>
      </trkpt>
      <trkpt lat="45.15181" lon="5.22619">
        <ele>390.7</ele>
        <time>2010-10-17T08:20:50Z</time>
      </trkpt>
      <trkpt lat="45.15186" lon="5.22614">
        <ele>391.3</ele>
        <time>2010-10-17T08:20:52Z</time>
      </trkpt>
      <trkpt lat="45.15191" lon="5.22607">
        <ele>391.8</ele>
        <time>2010-10-17T08:20:54Z</time>
      </trkpt>
      <trkpt lat="45.15195" lon="5.22601">
        <ele>392</ele>
        <time>2010-10-17T08:20:57Z</time>
      </trkpt>
      <trkpt lat="45.15197" lon="5.22596">
        <ele>392</ele>
        <time>2010-10-17T08:20:59Z</time>
      </trkpt>
      <trkpt lat="45.15201" lon="5.22592">
        <ele>391.5</ele>
        <time>2010-10-17T08:21:01Z</time>
      </trkpt>
      <trkpt lat="45.15203" lon="5.22589">
        <ele>391.5</ele>
        <time>2010-10-17T08:21:03Z</time>
      </trkpt>
      <trkpt lat="45.15205" lon="5.22586">
        <ele>391</ele>
        <time>2010-10-17T08:21:05Z</time>
      </trkpt>
      <trkpt lat="45.15206" lon="5.22581">
        <ele>390</ele>
        <time>2010-10-17T08:21:07Z</time>
      </trkpt>
      <trkpt lat="45.1521" lon="5.22576">
        <ele>389.3</ele>
        <time>2010-10-17T08:21:09Z</time>
      </trkpt>
      <trkpt lat="45.15213" lon="5.22572">
        <ele>388.5</ele>
        <time>2010-10-17T08:21:11Z</time>
      </trkpt>
      <trkpt lat="45.15216" lon="5.22569">
        <ele>388.9</ele>
        <time>2010-10-17T08:21:13Z</time>
      </trkpt>
      <trkpt lat="45.15219" lon="5.22564">
        <ele>389</ele>
        <time>2010-10-17T08:21:15Z</time>
      </trkpt>
      <trkpt lat="45.1522" lon="5.22557">
        <ele>387.6</ele>
        <time>2010-10-17T08:21:17Z</time>
      </trkpt>
      <trkpt lat="45.15221" lon="5.22551">
        <ele>388.8</ele>
        <time>2010-10-17T08:21:19Z</time>
      </trkpt>
      <trkpt lat="45.15221" lon="5.22543">
        <ele>389.8</ele>
        <time>2010-10-17T08:21:21Z</time>
      </trkpt>
      <trkpt lat="45.15221" lon="5.22536">
        <ele>391.9</ele>
        <time>2010-10-17T08:21:23Z</time>
      </trkpt>
      <trkpt lat="45.15221" lon="5.22528">
        <ele>395.1</ele>
        <time>2010-10-17T08:21:25Z</time>
      </trkpt>
      <trkpt lat="45.15221" lon="5.22523">
        <ele>396.1</ele>
        <time>2010-10-17T08:21:27Z</time>
      </trkpt>
      <trkpt lat="45.15221" lon="5.22519">
        <ele>397.4</ele>
        <time>2010-10-17T08:21:29Z</time>
      </trkpt>
      <trkpt lat="45.15222" lon="5.22517">
        <ele>398.2</ele>
        <time>2010-10-17T08:21:32Z</time>
      </trkpt>
      <trkpt lat="45.15224" lon="5.22511">
        <ele>399.9</ele>
        <time>2010-10-17T08:21:35Z</time>
      </trkpt>
      <trkpt lat="45.15225" lon="5.22507">
        <ele>400.3</ele>
        <time>2010-10-17T08:21:37Z</time>
      </trkpt>
      <trkpt lat="45.15226" lon="5.22504">
        <ele>400</ele>
        <time>2010-10-17T08:21:39Z</time>
      </trkpt>
      <trkpt lat="45.15228" lon="5.22499">
        <ele>399.9</ele>
        <time>2010-10-17T08:21:41Z</time>
      </trkpt>
      <trkpt lat="45.15233" lon="5.22496">
        <ele>400</ele>
        <time>2010-10-17T08:21:43Z</time>
      </trkpt>
      <trkpt lat="45.15234" lon="5.22493">
        <ele>401.7</ele>
        <time>2010-10-17T08:21:45Z</time>
      </trkpt>
      <trkpt lat="45.15237" lon="5.22489">
        <ele>401.8</ele>
        <time>2010-10-17T08:21:47Z</time>
      </trkpt>
      <trkpt lat="45.1524" lon="5.22485">
        <ele>400.7</ele>
        <time>2010-10-17T08:21:49Z</time>
      </trkpt>
      <trkpt lat="45.15241" lon="5.22482">
        <ele>400.7</ele>
        <time>2010-10-17T08:21:51Z</time>
      </trkpt>
      <trkpt lat="45.15243" lon="5.2248">
        <ele>400.8</ele>
        <time>2010-10-17T08:21:56Z</time>
      </trkpt>
      <trkpt lat="45.15244" lon="5.22477">
        <ele>401</ele>
        <time>2010-10-17T08:22:06Z</time>
      </trkpt>
      <trkpt lat="45.15246" lon="5.22472">
        <ele>400.3</ele>
        <time>2010-10-17T08:22:08Z</time>
      </trkpt>
      <trkpt lat="45.15247" lon="5.22466">
        <ele>400.2</ele>
        <time>2010-10-17T08:22:10Z</time>
      </trkpt>
      <trkpt lat="45.15247" lon="5.22462">
        <ele>400</ele>
        <time>2010-10-17T08:22:12Z</time>
      </trkpt>
      <trkpt lat="45.15248" lon="5.2246">
        <ele>399.8</ele>
        <time>2010-10-17T08:22:15Z</time>
      </trkpt>
      <trkpt lat="45.1525" lon="5.22458">
        <ele>399.9</ele>
        <time>2010-10-17T08:22:17Z</time>
      </trkpt>
      <trkpt lat="45.15254" lon="5.22457">
        <ele>399.8</ele>
        <time>2010-10-17T08:22:19Z</time>
      </trkpt>
      <trkpt lat="45.15258" lon="5.22453">
        <ele>399.5</ele>
        <time>2010-10-17T08:22:21Z</time>
      </trkpt>
      <trkpt lat="45.15262" lon="5.22449">
        <ele>399.3</ele>
        <time>2010-10-17T08:22:23Z</time>
      </trkpt>
      <trkpt lat="45.15265" lon="5.22442">
        <ele>400</ele>
        <time>2010-10-17T08:22:25Z</time>
      </trkpt>
      <trkpt lat="45.15266" lon="5.22433">
        <ele>401.9</ele>
        <time>2010-10-17T08:22:27Z</time>
      </trkpt>
      <trkpt lat="45.15269" lon="5.22425">
        <ele>400.3</ele>
        <time>2010-10-17T08:22:29Z</time>
      </trkpt>
      <trkpt lat="45.15273" lon="5.22419">
        <ele>399.8</ele>
        <time>2010-10-17T08:22:31Z</time>
      </trkpt>
      <trkpt lat="45.15274" lon="5.22418">
        <ele>400</ele>
        <time>2010-10-17T08:22:34Z</time>
      </trkpt>
      <trkpt lat="45.15275" lon="5.22415">
        <ele>400</ele>
        <time>2010-10-17T08:22:37Z</time>
      </trkpt>
      <trkpt lat="45.15283" lon="5.22411">
        <ele>400.7</ele>
        <time>2010-10-17T08:22:39Z</time>
      </trkpt>
      <trkpt lat="45.15287" lon="5.22409">
        <ele>400.6</ele>
        <time>2010-10-17T08:22:41Z</time>
      </trkpt>
      <trkpt lat="45.15292" lon="5.22406">
        <ele>400.5</ele>
        <time>2010-10-17T08:22:43Z</time>
      </trkpt>
      <trkpt lat="45.15295" lon="5.22402">
        <ele>400.5</ele>
        <time>2010-10-17T08:22:45Z</time>
      </trkpt>
      <trkpt lat="45.15298" lon="5.22399">
        <ele>400.6</ele>
        <time>2010-10-17T08:22:47Z</time>
      </trkpt>
      <trkpt lat="45.15301" lon="5.22396">
        <ele>400.6</ele>
        <time>2010-10-17T08:22:49Z</time>
      </trkpt>
      <trkpt lat="45.15303" lon="5.22394">
        <ele>400.5</ele>
        <time>2010-10-17T08:22:51Z</time>
      </trkpt>
      <trkpt lat="45.15305" lon="5.22392">
        <ele>400.5</ele>
        <time>2010-10-17T08:22:52Z</time>
      </trkpt>
      <trkpt lat="45.15308" lon="5.2239">
        <ele>400.3</ele>
        <time>2010-10-17T08:22:55Z</time>
      </trkpt>
      <trkpt lat="45.15311" lon="5.22387">
        <ele>401.4</ele>
        <time>2010-10-17T08:22:57Z</time>
      </trkpt>
      <trkpt lat="45.15314" lon="5.22385">
        <ele>402.6</ele>
        <time>2010-10-17T08:22:59Z</time>
      </trkpt>
      <trkpt lat="45.15317" lon="5.22382">
        <ele>402.9</ele>
        <time>2010-10-17T08:23:01Z</time>
      </trkpt>
      <trkpt lat="45.15322" lon="5.2238">
        <ele>402.5</ele>
        <time>2010-10-17T08:23:03Z</time>
      </trkpt>
      <trkpt lat="45.15325" lon="5.22378">
        <ele>403.3</ele>
        <time>2010-10-17T08:23:06Z</time>
      </trkpt>
      <trkpt lat="45.15328" lon="5.22375">
        <ele>403.3</ele>
        <time>2010-10-17T08:23:08Z</time>
      </trkpt>
      <trkpt lat="45.15331" lon="5.22373">
        <ele>403.5</ele>
        <time>2010-10-17T08:23:10Z</time>
      </trkpt>
      <trkpt lat="45.15335" lon="5.2237">
        <ele>404.1</ele>
        <time>2010-10-17T08:23:12Z</time>
      </trkpt>
      <trkpt lat="45.15338" lon="5.22368">
        <ele>404.2</ele>
        <time>2010-10-17T08:23:15Z</time>
      </trkpt>
      <trkpt lat="45.15342" lon="5.22367">
        <ele>404.7</ele>
        <time>2010-10-17T08:23:17Z</time>
      </trkpt>
      <trkpt lat="45.15345" lon="5.22364">
        <ele>405.7</ele>
        <time>2010-10-17T08:23:20Z</time>
      </trkpt>
      <trkpt lat="45.15349" lon="5.22363">
        <ele>405.9</ele>
        <time>2010-10-17T08:23:23Z</time>
      </trkpt>
      <trkpt lat="45.1535" lon="5.2236">
        <ele>407.5</ele>
        <time>2010-10-17T08:23:25Z</time>
      </trkpt>
      <trkpt lat="45.15349" lon="5.22357">
        <ele>409.8</ele>
        <time>2010-10-17T08:23:29Z</time>
      </trkpt>
      <trkpt lat="45.15349" lon="5.2236">
        <ele>408.5</ele>
        <time>2010-10-17T08:23:31Z</time>
      </trkpt>
      <trkpt lat="45.15349" lon="5.22363">
        <ele>407.7</ele>
        <time>2010-10-17T08:23:34Z</time>
      </trkpt>
      <trkpt lat="45.1535" lon="5.22364">
        <ele>408.2</ele>
        <time>2010-10-17T08:23:36Z</time>
      </trkpt>
      <trkpt lat="45.15353" lon="5.22363">
        <ele>409.2</ele>
        <time>2010-10-17T08:23:38Z</time>
      </trkpt>
      <trkpt lat="45.15354" lon="5.22363">
        <ele>409.4</ele>
        <time>2010-10-17T08:23:41Z</time>
      </trkpt>
      <trkpt lat="45.15355" lon="5.22363">
        <ele>411.7</ele>
        <time>2010-10-17T08:24:29Z</time>
      </trkpt>
      <trkpt lat="45.15355" lon="5.22362">
        <ele>415</ele>
        <time>2010-10-17T08:24:38Z</time>
      </trkpt>
      <trkpt lat="45.15355" lon="5.22361">
        <ele>415.3</ele>
        <time>2010-10-17T08:24:43Z</time>
      </trkpt>
      <trkpt lat="45.15354" lon="5.22362">
        <ele>415.8</ele>
        <time>2010-10-17T08:24:47Z</time>
      </trkpt>
      <trkpt lat="45.15354" lon="5.22361">
        <ele>416.3</ele>
        <time>2010-10-17T08:24:58Z</time>
      </trkpt>
      <trkpt lat="45.15353" lon="5.22361">
        <ele>416</ele>
        <time>2010-10-17T08:26:25Z</time>
      </trkpt>
      <trkpt lat="45.15352" lon="5.22362">
        <ele>415.8</ele>
        <time>2010-10-17T08:26:29Z</time>
      </trkpt>
      <trkpt lat="45.15351" lon="5.22362">
        <ele>415</ele>
        <time>2010-10-17T08:26:36Z</time>
      </trkpt>
      <trkpt lat="45.15351" lon="5.22362">
        <ele>414.4</ele>
        <time>2010-10-17T08:27:25Z</time>
      </trkpt>
      <trkpt lat="45.15349" lon="5.22366">
        <ele>414.6</ele>
        <time>2010-10-17T08:27:27Z</time>
      </trkpt>
      <trkpt lat="45.15346" lon="5.22368">
        <ele>414.7</ele>
        <time>2010-10-17T08:27:29Z</time>
      </trkpt>
      <trkpt lat="45.15343" lon="5.22369">
        <ele>414.9</ele>
        <time>2010-10-17T08:27:31Z</time>
      </trkpt>
      <trkpt lat="45.15339" lon="5.22373">
        <ele>414.7</ele>
        <time>2010-10-17T08:27:33Z</time>
      </trkpt>
      <trkpt lat="45.15332" lon="5.22377">
        <ele>414.5</ele>
        <time>2010-10-17T08:27:35Z</time>
      </trkpt>
      <trkpt lat="45.15324" lon="5.22382">
        <ele>414.3</ele>
        <time>2010-10-17T08:27:37Z</time>
      </trkpt>
      <trkpt lat="45.15318" lon="5.22387">
        <ele>413.5</ele>
        <time>2010-10-17T08:27:39Z</time>
      </trkpt>
      <trkpt lat="45.1531" lon="5.22393">
        <ele>412.8</ele>
        <time>2010-10-17T08:27:41Z</time>
      </trkpt>
      <trkpt lat="45.15301" lon="5.22399">
        <ele>412.4</ele>
        <time>2010-10-17T08:27:43Z</time>
      </trkpt>
      <trkpt lat="45.15294" lon="5.22403">
        <ele>412.3</ele>
        <time>2010-10-17T08:27:45Z</time>
      </trkpt>
      <trkpt lat="45.15288" lon="5.22402">
        <ele>411.9</ele>
        <time>2010-10-17T08:27:47Z</time>
      </trkpt>
      <trkpt lat="45.15282" lon="5.22396">
        <ele>412</ele>
        <time>2010-10-17T08:27:49Z</time>
      </trkpt>
      <trkpt lat="45.15278" lon="5.22387">
        <ele>411.5</ele>
        <time>2010-10-17T08:27:51Z</time>
      </trkpt>
      <trkpt lat="45.15273" lon="5.22378">
        <ele>410.9</ele>
        <time>2010-10-17T08:27:53Z</time>
      </trkpt>
      <trkpt lat="45.15277" lon="5.22365">
        <ele>410.3</ele>
        <time>2010-10-17T08:27:55Z</time>
      </trkpt>
      <trkpt lat="45.15283" lon="5.22352">
        <ele>409.8</ele>
        <time>2010-10-17T08:27:57Z</time>
      </trkpt>
      <trkpt lat="45.15289" lon="5.2234">
        <ele>409.2</ele>
        <time>2010-10-17T08:27:59Z</time>
      </trkpt>
      <trkpt lat="45.15295" lon="5.22326">
        <ele>408.8</ele>
        <time>2010-10-17T08:28:01Z</time>
      </trkpt>
      <trkpt lat="45.153" lon="5.22312">
        <ele>408.3</ele>
        <time>2010-10-17T08:28:03Z</time>
      </trkpt>
      <trkpt lat="45.15302" lon="5.223">
        <ele>408</ele>
        <time>2010-10-17T08:28:05Z</time>
      </trkpt>
      <trkpt lat="45.15306" lon="5.22292">
        <ele>407.1</ele>
        <time>2010-10-17T08:28:07Z</time>
      </trkpt>
      <trkpt lat="45.15313" lon="5.22283">
        <ele>406.5</ele>
        <time>2010-10-17T08:28:09Z</time>
      </trkpt>
      <trkpt lat="45.15318" lon="5.22274">
        <ele>406.3</ele>
        <time>2010-10-17T08:28:11Z</time>
      </trkpt>
      <trkpt lat="45.15324" lon="5.22264">
        <ele>405.5</ele>
        <time>2010-10-17T08:28:13Z</time>
      </trkpt>
      <trkpt lat="45.15328" lon="5.22256">
        <ele>405</ele>
        <time>2010-10-17T08:28:15Z</time>
      </trkpt>
      <trkpt lat="45.15334" lon="5.22249">
        <ele>404.8</ele>
        <time>2010-10-17T08:28:17Z</time>
      </trkpt>
      <trkpt lat="45.15337" lon="5.22241">
        <ele>403.9</ele>
        <time>2010-10-17T08:28:19Z</time>
      </trkpt>
      <trkpt lat="45.15339" lon="5.22232">
        <ele>403</ele>
        <time>2010-10-17T08:28:21Z</time>
      </trkpt>
      <trkpt lat="45.1534" lon="5.22224">
        <ele>402.8</ele>
        <time>2010-10-17T08:28:23Z</time>
      </trkpt>
      <trkpt lat="45.15342" lon="5.22215">
        <ele>402.2</ele>
        <time>2010-10-17T08:28:25Z</time>
      </trkpt>
      <trkpt lat="45.15344" lon="5.22209">
        <ele>401.7</ele>
        <time>2010-10-17T08:28:27Z</time>
      </trkpt>
      <trkpt lat="45.15348" lon="5.22201">
        <ele>402.1</ele>
        <time>2010-10-17T08:28:29Z</time>
      </trkpt>
      <trkpt lat="45.15355" lon="5.22195">
        <ele>401.6</ele>
        <time>2010-10-17T08:28:31Z</time>
      </trkpt>
      <trkpt lat="45.15361" lon="5.22189">
        <ele>401</ele>
        <time>2010-10-17T08:28:33Z</time>
      </trkpt>
      <trkpt lat="45.15369" lon="5.22186">
        <ele>400.1</ele>
        <time>2010-10-17T08:28:35Z</time>
      </trkpt>
      <trkpt lat="45.15379" lon="5.22184">
        <ele>397.1</ele>
        <time>2010-10-17T08:28:37Z</time>
      </trkpt>
      <trkpt lat="45.15386" lon="5.22179">
        <ele>395.8</ele>
        <time>2010-10-17T08:28:39Z</time>
      </trkpt>
      <trkpt lat="45.15393" lon="5.22175">
        <ele>395.3</ele>
        <time>2010-10-17T08:28:41Z</time>
      </trkpt>
      <trkpt lat="45.15401" lon="5.22173">
        <ele>394.3</ele>
        <time>2010-10-17T08:28:43Z</time>
      </trkpt>
      <trkpt lat="45.15407" lon="5.22167">
        <ele>393.9</ele>
        <time>2010-10-17T08:28:45Z</time>
      </trkpt>
      <trkpt lat="45.15408" lon="5.22162">
        <ele>393.1</ele>
        <time>2010-10-17T08:28:47Z</time>
      </trkpt>
      <trkpt lat="45.15406" lon="5.22154">
        <ele>392</ele>
        <time>2010-10-17T08:28:49Z</time>
      </trkpt>
      <trkpt lat="45.15402" lon="5.22143">
        <ele>390.8</ele>
        <time>2010-10-17T08:28:51Z</time>
      </trkpt>
      <trkpt lat="45.15398" lon="5.22128">
        <ele>389.5</ele>
        <time>2010-10-17T08:28:53Z</time>
      </trkpt>
      <trkpt lat="45.15392" lon="5.22112">
        <ele>389</ele>
        <time>2010-10-17T08:28:55Z</time>
      </trkpt>
      <trkpt lat="45.15388" lon="5.22098">
        <ele>388.9</ele>
        <time>2010-10-17T08:28:57Z</time>
      </trkpt>
      <trkpt lat="45.15389" lon="5.22087">
        <ele>387.8</ele>
        <time>2010-10-17T08:28:59Z</time>
      </trkpt>
      <trkpt lat="45.15391" lon="5.2208">
        <ele>388</ele>
        <time>2010-10-17T08:29:01Z</time>
      </trkpt>
      <trkpt lat="45.15397" lon="5.22076">
        <ele>387.5</ele>
        <time>2010-10-17T08:29:03Z</time>
      </trkpt>
      <trkpt lat="45.15404" lon="5.22072">
        <ele>387.1</ele>
        <time>2010-10-17T08:29:05Z</time>
      </trkpt>
      <trkpt lat="45.15411" lon="5.2207">
        <ele>387.8</ele>
        <time>2010-10-17T08:29:07Z</time>
      </trkpt>
      <trkpt lat="45.15417" lon="5.22067">
        <ele>387.4</ele>
        <time>2010-10-17T08:29:09Z</time>
      </trkpt>
      <trkpt lat="45.15422" lon="5.22063">
        <ele>386.5</ele>
        <time>2010-10-17T08:29:11Z</time>
      </trkpt>
      <trkpt lat="45.15427" lon="5.22059">
        <ele>385</ele>
        <time>2010-10-17T08:29:13Z</time>
      </trkpt>
      <trkpt lat="45.15431" lon="5.22056">
        <ele>384.5</ele>
        <time>2010-10-17T08:29:15Z</time>
      </trkpt>
      <trkpt lat="45.15435" lon="5.22054">
        <ele>383.6</ele>
        <time>2010-10-17T08:29:17Z</time>
      </trkpt>
      <trkpt lat="45.1544" lon="5.22052">
        <ele>383.8</ele>
        <time>2010-10-17T08:29:19Z</time>
      </trkpt>
      <trkpt lat="45.15445" lon="5.2205">
        <ele>383.8</ele>
        <time>2010-10-17T08:29:21Z</time>
      </trkpt>
      <trkpt lat="45.1545" lon="5.22047">
        <ele>384</ele>
        <time>2010-10-17T08:29:23Z</time>
      </trkpt>
      <trkpt lat="45.15459" lon="5.22042">
        <ele>383.6</ele>
        <time>2010-10-17T08:29:25Z</time>
      </trkpt>
      <trkpt lat="45.15469" lon="5.22036">
        <ele>382.5</ele>
        <time>2010-10-17T08:29:27Z</time>
      </trkpt>
      <trkpt lat="45.1548" lon="5.22028">
        <ele>381.5</ele>
        <time>2010-10-17T08:29:29Z</time>
      </trkpt>
      <trkpt lat="45.15495" lon="5.2202">
        <ele>380.9</ele>
        <time>2010-10-17T08:29:31Z</time>
      </trkpt>
      <trkpt lat="45.15509" lon="5.22011">
        <ele>380.4</ele>
        <time>2010-10-17T08:29:33Z</time>
      </trkpt>
      <trkpt lat="45.15523" lon="5.22003">
        <ele>379.7</ele>
        <time>2010-10-17T08:29:35Z</time>
      </trkpt>
      <trkpt lat="45.15534" lon="5.21998">
        <ele>377.5</ele>
        <time>2010-10-17T08:29:37Z</time>
      </trkpt>
      <trkpt lat="45.1554" lon="5.21995">
        <ele>376.4</ele>
        <time>2010-10-17T08:29:39Z</time>
      </trkpt>
      <trkpt lat="45.15544" lon="5.21992">
        <ele>376.1</ele>
        <time>2010-10-17T08:29:41Z</time>
      </trkpt>
      <trkpt lat="45.15546" lon="5.21991">
        <ele>374.6</ele>
        <time>2010-10-17T08:29:45Z</time>
      </trkpt>
      <trkpt lat="45.15548" lon="5.2199">
        <ele>373.1</ele>
        <time>2010-10-17T08:29:47Z</time>
      </trkpt>
      <trkpt lat="45.15547" lon="5.21988">
        <ele>371</ele>
        <time>2010-10-17T08:30:06Z</time>
      </trkpt>
      <trkpt lat="45.15551" lon="5.21986">
        <ele>370.5</ele>
        <time>2010-10-17T08:30:25Z</time>
      </trkpt>
      <trkpt lat="45.15554" lon="5.21983">
        <ele>370</ele>
        <time>2010-10-17T08:30:27Z</time>
      </trkpt>
      <trkpt lat="45.15561" lon="5.21984">
        <ele>369.6</ele>
        <time>2010-10-17T08:30:29Z</time>
      </trkpt>
      <trkpt lat="45.15572" lon="5.21985">
        <ele>369</ele>
        <time>2010-10-17T08:30:31Z</time>
      </trkpt>
      <trkpt lat="45.15579" lon="5.21987">
        <ele>368.5</ele>
        <time>2010-10-17T08:30:33Z</time>
      </trkpt>
      <trkpt lat="45.15586" lon="5.21988">
        <ele>367.9</ele>
        <time>2010-10-17T08:30:35Z</time>
      </trkpt>
      <trkpt lat="45.15589" lon="5.21991">
        <ele>367.9</ele>
        <time>2010-10-17T08:30:37Z</time>
      </trkpt>
      <trkpt lat="45.15593" lon="5.21994">
        <ele>368</ele>
        <time>2010-10-17T08:30:39Z</time>
      </trkpt>
      <trkpt lat="45.15596" lon="5.21997">
        <ele>368.1</ele>
        <time>2010-10-17T08:30:41Z</time>
      </trkpt>
      <trkpt lat="45.15599" lon="5.22">
        <ele>368.3</ele>
        <time>2010-10-17T08:30:43Z</time>
      </trkpt>
      <trkpt lat="45.15604" lon="5.22005">
        <ele>368.6</ele>
        <time>2010-10-17T08:30:45Z</time>
      </trkpt>
      <trkpt lat="45.1561" lon="5.2201">
        <ele>369</ele>
        <time>2010-10-17T08:30:47Z</time>
      </trkpt>
      <trkpt lat="45.15615" lon="5.22014">
        <ele>369.3</ele>
        <time>2010-10-17T08:30:49Z</time>
      </trkpt>
      <trkpt lat="45.15621" lon="5.22017">
        <ele>369.9</ele>
        <time>2010-10-17T08:30:51Z</time>
      </trkpt>
      <trkpt lat="45.15624" lon="5.22018">
        <ele>370.4</ele>
        <time>2010-10-17T08:30:54Z</time>
      </trkpt>
      <trkpt lat="45.15628" lon="5.22021">
        <ele>369.1</ele>
        <time>2010-10-17T08:30:56Z</time>
      </trkpt>
      <trkpt lat="45.15633" lon="5.22023">
        <ele>366.9</ele>
        <time>2010-10-17T08:30:58Z</time>
      </trkpt>
      <trkpt lat="45.15635" lon="5.22024">
        <ele>366.2</ele>
        <time>2010-10-17T08:31:01Z</time>
      </trkpt>
      <trkpt lat="45.15639" lon="5.2202">
        <ele>366</ele>
        <time>2010-10-17T08:31:03Z</time>
      </trkpt>
      <trkpt lat="45.15641" lon="5.22019">
        <ele>365.5</ele>
        <time>2010-10-17T08:31:06Z</time>
      </trkpt>
      <trkpt lat="45.15643" lon="5.22018">
        <ele>364.8</ele>
        <time>2010-10-17T08:31:09Z</time>
      </trkpt>
      <trkpt lat="45.15644" lon="5.22018">
        <ele>364.5</ele>
        <time>2010-10-17T08:31:15Z</time>
      </trkpt>
      <trkpt lat="45.15646" lon="5.22018">
        <ele>364.5</ele>
        <time>2010-10-17T08:31:22Z</time>
      </trkpt>
      <trkpt lat="45.15655" lon="5.22028">
        <ele>360</ele>
        <time>2010-10-17T08:31:25Z</time>
      </trkpt>
      <trkpt lat="45.15662" lon="5.22041">
        <ele>354</ele>
        <time>2010-10-17T08:31:27Z</time>
      </trkpt>
      <trkpt lat="45.15669" lon="5.22051">
        <ele>350.5</ele>
        <time>2010-10-17T08:31:29Z</time>
      </trkpt>
      <trkpt lat="45.15678" lon="5.22062">
        <ele>345.5</ele>
        <time>2010-10-17T08:31:31Z</time>
      </trkpt>
      <trkpt lat="45.15693" lon="5.22073">
        <ele>338.8</ele>
        <time>2010-10-17T08:31:33Z</time>
      </trkpt>
      <trkpt lat="45.15707" lon="5.22082">
        <ele>334.5</ele>
        <time>2010-10-17T08:31:35Z</time>
      </trkpt>
      <trkpt lat="45.15718" lon="5.22091">
        <ele>332.6</ele>
        <time>2010-10-17T08:31:37Z</time>
      </trkpt>
      <trkpt lat="45.15727" lon="5.22098">
        <ele>331.9</ele>
        <time>2010-10-17T08:31:39Z</time>
      </trkpt>
      <trkpt lat="45.15734" lon="5.22103">
        <ele>330.9</ele>
        <time>2010-10-17T08:31:41Z</time>
      </trkpt>
      <trkpt lat="45.15739" lon="5.22106">
        <ele>330.3</ele>
        <time>2010-10-17T08:31:43Z</time>
      </trkpt>
      <trkpt lat="45.15742" lon="5.22114">
        <ele>329.8</ele>
        <time>2010-10-17T08:31:45Z</time>
      </trkpt>
      <trkpt lat="45.15744" lon="5.22123">
        <ele>329.8</ele>
        <time>2010-10-17T08:31:47Z</time>
      </trkpt>
      <trkpt lat="45.15742" lon="5.22136">
        <ele>329.4</ele>
        <time>2010-10-17T08:31:49Z</time>
      </trkpt>
      <trkpt lat="45.15741" lon="5.22151">
        <ele>330.5</ele>
        <time>2010-10-17T08:31:51Z</time>
      </trkpt>
      <trkpt lat="45.15741" lon="5.22159">
        <ele>330.3</ele>
        <time>2010-10-17T08:31:54Z</time>
      </trkpt>
      <trkpt lat="45.15733" lon="5.22163">
        <ele>329.3</ele>
        <time>2010-10-17T08:31:56Z</time>
      </trkpt>
      <trkpt lat="45.1573" lon="5.22164">
        <ele>328.5</ele>
        <time>2010-10-17T08:32:00Z</time>
      </trkpt>
      <trkpt lat="45.15729" lon="5.22165">
        <ele>328.5</ele>
        <time>2010-10-17T08:32:03Z</time>
      </trkpt>
      <trkpt lat="45.1573" lon="5.22168">
        <ele>328.4</ele>
        <time>2010-10-17T08:32:08Z</time>
      </trkpt>
      <trkpt lat="45.15733" lon="5.2217">
        <ele>328.5</ele>
        <time>2010-10-17T08:32:10Z</time>
      </trkpt>
      <trkpt lat="45.15734" lon="5.22171">
        <ele>328.3</ele>
        <time>2010-10-17T08:32:14Z</time>
      </trkpt>
      <trkpt lat="45.15733" lon="5.22173">
        <ele>328.2</ele>
        <time>2010-10-17T08:32:18Z</time>
      </trkpt>
      <trkpt lat="45.15732" lon="5.22174">
        <ele>327.6</ele>
        <time>2010-10-17T08:32:23Z</time>
      </trkpt>
      <trkpt lat="45.15738" lon="5.22186">
        <ele>325.8</ele>
        <time>2010-10-17T08:32:26Z</time>
      </trkpt>
      <trkpt lat="45.15743" lon="5.22199">
        <ele>324.2</ele>
        <time>2010-10-17T08:32:28Z</time>
      </trkpt>
      <trkpt lat="45.15748" lon="5.22218">
        <ele>321.9</ele>
        <time>2010-10-17T08:32:31Z</time>
      </trkpt>
      <trkpt lat="45.1575" lon="5.22234">
        <ele>320.5</ele>
        <time>2010-10-17T08:32:33Z</time>
      </trkpt>
      <trkpt lat="45.15748" lon="5.22246">
        <ele>321.6</ele>
        <time>2010-10-17T08:32:35Z</time>
      </trkpt>
      <trkpt lat="45.15746" lon="5.22256">
        <ele>321.4</ele>
        <time>2010-10-17T08:32:37Z</time>
      </trkpt>
      <trkpt lat="45.15745" lon="5.22256">
        <ele>321.2</ele>
        <time>2010-10-17T08:32:39Z</time>
      </trkpt>
      <trkpt lat="45.15744" lon="5.22257">
        <ele>318.7</ele>
        <time>2010-10-17T08:32:44Z</time>
      </trkpt>
      <trkpt lat="45.15742" lon="5.22258">
        <ele>318.3</ele>
        <time>2010-10-17T08:32:49Z</time>
      </trkpt>
      <trkpt lat="45.15741" lon="5.2226">
        <ele>317.5</ele>
        <time>2010-10-17T08:32:56Z</time>
      </trkpt>
      <trkpt lat="45.1574" lon="5.22262">
        <ele>316.5</ele>
        <time>2010-10-17T08:33:01Z</time>
      </trkpt>
      <trkpt lat="45.1574" lon="5.22264">
        <ele>316</ele>
        <time>2010-10-17T08:33:06Z</time>
      </trkpt>
      <trkpt lat="45.15739" lon="5.22266">
        <ele>316</ele>
        <time>2010-10-17T08:33:09Z</time>
      </trkpt>
      <trkpt lat="45.15739" lon="5.2227">
        <ele>316.5</ele>
        <time>2010-10-17T08:33:11Z</time>
      </trkpt>
      <trkpt lat="45.15739" lon="5.22273">
        <ele>316.8</ele>
        <time>2010-10-17T08:33:14Z</time>
      </trkpt>
      <trkpt lat="45.15737" lon="5.22275">
        <ele>316.8</ele>
        <time>2010-10-17T08:33:17Z</time>
      </trkpt>
      <trkpt lat="45.15738" lon="5.2228">
        <ele>317</ele>
        <time>2010-10-17T08:33:19Z</time>
      </trkpt>
      <trkpt lat="45.15739" lon="5.22285">
        <ele>316.5</ele>
        <time>2010-10-17T08:33:21Z</time>
      </trkpt>
      <trkpt lat="45.15739" lon="5.22288">
        <ele>316.4</ele>
        <time>2010-10-17T08:33:24Z</time>
      </trkpt>
      <trkpt lat="45.15739" lon="5.22292">
        <ele>316.1</ele>
        <time>2010-10-17T08:33:27Z</time>
      </trkpt>
      <trkpt lat="45.15741" lon="5.22295">
        <ele>317</ele>
        <time>2010-10-17T08:33:30Z</time>
      </trkpt>
      <trkpt lat="45.15744" lon="5.22297">
        <ele>317.6</ele>
        <time>2010-10-17T08:33:33Z</time>
      </trkpt>
      <trkpt lat="45.15745" lon="5.223">
        <ele>319.3</ele>
        <time>2010-10-17T08:33:37Z</time>
      </trkpt>
      <trkpt lat="45.15747" lon="5.223">
        <ele>320.8</ele>
        <time>2010-10-17T08:33:45Z</time>
      </trkpt>
      <trkpt lat="45.15748" lon="5.22299">
        <ele>320.3</ele>
        <time>2010-10-17T08:33:53Z</time>
      </trkpt>
      <trkpt lat="45.15751" lon="5.223">
        <ele>321</ele>
        <time>2010-10-17T08:33:57Z</time>
      </trkpt>
      <trkpt lat="45.15756" lon="5.22298">
        <ele>322.9</ele>
        <time>2010-10-17T08:34:00Z</time>
      </trkpt>
      <trkpt lat="45.15758" lon="5.22296">
        <ele>323.2</ele>
        <time>2010-10-17T08:34:04Z</time>
      </trkpt>
      <trkpt lat="45.15761" lon="5.22293">
        <ele>323.2</ele>
        <time>2010-10-17T08:34:07Z</time>
      </trkpt>
      <trkpt lat="45.15763" lon="5.22292">
        <ele>323</ele>
        <time>2010-10-17T08:34:10Z</time>
      </trkpt>
      <trkpt lat="45.15765" lon="5.22292">
        <ele>323.5</ele>
        <time>2010-10-17T08:34:12Z</time>
      </trkpt>
      <trkpt lat="45.15768" lon="5.22292">
        <ele>324.3</ele>
        <time>2010-10-17T08:34:14Z</time>
      </trkpt>
      <trkpt lat="45.1577" lon="5.22291">
        <ele>324.5</ele>
        <time>2010-10-17T08:34:18Z</time>
      </trkpt>
      <trkpt lat="45.15774" lon="5.2229">
        <ele>325.7</ele>
        <time>2010-10-17T08:34:25Z</time>
      </trkpt>
      <trkpt lat="45.15777" lon="5.22291">
        <ele>326.6</ele>
        <time>2010-10-17T08:34:27Z</time>
      </trkpt>
      <trkpt lat="45.15778" lon="5.22293">
        <ele>328</ele>
        <time>2010-10-17T08:34:32Z</time>
      </trkpt>
      <trkpt lat="45.1578" lon="5.22295">
        <ele>328.6</ele>
        <time>2010-10-17T08:34:41Z</time>
      </trkpt>
      <trkpt lat="45.15782" lon="5.22295">
        <ele>329.4</ele>
        <time>2010-10-17T08:34:43Z</time>
      </trkpt>
      <trkpt lat="45.15784" lon="5.22298">
        <ele>329.6</ele>
        <time>2010-10-17T08:34:45Z</time>
      </trkpt>
      <trkpt lat="45.15788" lon="5.22302">
        <ele>329.5</ele>
        <time>2010-10-17T08:34:47Z</time>
      </trkpt>
      <trkpt lat="45.15792" lon="5.22302">
        <ele>329</ele>
        <time>2010-10-17T08:34:49Z</time>
      </trkpt>
      <trkpt lat="45.15797" lon="5.22303">
        <ele>328.8</ele>
        <time>2010-10-17T08:34:51Z</time>
      </trkpt>
      <trkpt lat="45.15801" lon="5.22304">
        <ele>328.6</ele>
        <time>2010-10-17T08:34:53Z</time>
      </trkpt>
      <trkpt lat="45.15809" lon="5.22305">
        <ele>328.5</ele>
        <time>2010-10-17T08:34:55Z</time>
      </trkpt>
      <trkpt lat="45.15816" lon="5.22305">
        <ele>328.5</ele>
        <time>2010-10-17T08:34:57Z</time>
      </trkpt>
      <trkpt lat="45.15823" lon="5.22305">
        <ele>328</ele>
        <time>2010-10-17T08:34:59Z</time>
      </trkpt>
      <trkpt lat="45.15833" lon="5.22307">
        <ele>328</ele>
        <time>2010-10-17T08:35:01Z</time>
      </trkpt>
      <trkpt lat="45.15843" lon="5.22308">
        <ele>327.3</ele>
        <time>2010-10-17T08:35:03Z</time>
      </trkpt>
      <trkpt lat="45.15855" lon="5.22316">
        <ele>326.9</ele>
        <time>2010-10-17T08:35:05Z</time>
      </trkpt>
      <trkpt lat="45.15865" lon="5.22328">
        <ele>326.4</ele>
        <time>2010-10-17T08:35:07Z</time>
      </trkpt>
      <trkpt lat="45.15872" lon="5.22333">
        <ele>326.3</ele>
        <time>2010-10-17T08:35:09Z</time>
      </trkpt>
      <trkpt lat="45.15878" lon="5.22335">
        <ele>326.3</ele>
        <time>2010-10-17T08:35:11Z</time>
      </trkpt>
      <trkpt lat="45.15882" lon="5.22336">
        <ele>326.2</ele>
        <time>2010-10-17T08:35:13Z</time>
      </trkpt>
      <trkpt lat="45.15886" lon="5.22337">
        <ele>326.1</ele>
        <time>2010-10-17T08:35:15Z</time>
      </trkpt>
      <trkpt lat="45.1589" lon="5.22339">
        <ele>326.4</ele>
        <time>2010-10-17T08:35:17Z</time>
      </trkpt>
      <trkpt lat="45.15893" lon="5.22339">
        <ele>325.8</ele>
        <time>2010-10-17T08:35:19Z</time>
      </trkpt>
      <trkpt lat="45.15893" lon="5.22341">
        <ele>324.4</ele>
        <time>2010-10-17T08:35:22Z</time>
      </trkpt>
      <trkpt lat="45.15896" lon="5.22341">
        <ele>323.3</ele>
        <time>2010-10-17T08:35:24Z</time>
      </trkpt>
      <trkpt lat="45.15896" lon="5.22342">
        <ele>323.6</ele>
        <time>2010-10-17T08:35:26Z</time>
      </trkpt>
      <trkpt lat="45.15898" lon="5.22344">
        <ele>323.1</ele>
        <time>2010-10-17T08:35:30Z</time>
      </trkpt>
      <trkpt lat="45.15901" lon="5.22345">
        <ele>321.7</ele>
        <time>2010-10-17T08:35:32Z</time>
      </trkpt>
      <trkpt lat="45.15903" lon="5.22348">
        <ele>321.7</ele>
        <time>2010-10-17T08:35:34Z</time>
      </trkpt>
      <trkpt lat="45.15904" lon="5.22351">
        <ele>321.6</ele>
        <time>2010-10-17T08:35:36Z</time>
      </trkpt>
      <trkpt lat="45.15905" lon="5.22354">
        <ele>320.9</ele>
        <time>2010-10-17T08:35:38Z</time>
      </trkpt>
      <trkpt lat="45.15907" lon="5.22356">
        <ele>320.3</ele>
        <time>2010-10-17T08:35:42Z</time>
      </trkpt>
      <trkpt lat="45.15908" lon="5.2236">
        <ele>320</ele>
        <time>2010-10-17T08:35:45Z</time>
      </trkpt>
      <trkpt lat="45.15907" lon="5.22363">
        <ele>319</ele>
        <time>2010-10-17T08:35:48Z</time>
      </trkpt>
      <trkpt lat="45.15907" lon="5.22364">
        <ele>319.6</ele>
        <time>2010-10-17T08:35:52Z</time>
      </trkpt>
      <trkpt lat="45.15909" lon="5.22367">
        <ele>319.3</ele>
        <time>2010-10-17T08:35:55Z</time>
      </trkpt>
      <trkpt lat="45.15911" lon="5.22369">
        <ele>319.1</ele>
        <time>2010-10-17T08:35:59Z</time>
      </trkpt>
      <trkpt lat="45.15913" lon="5.22371">
        <ele>319</ele>
        <time>2010-10-17T08:36:03Z</time>
      </trkpt>
      <trkpt lat="45.15911" lon="5.22374">
        <ele>319.3</ele>
        <time>2010-10-17T08:36:06Z</time>
      </trkpt>
      <trkpt lat="45.15913" lon="5.22374">
        <ele>318.7</ele>
        <time>2010-10-17T08:36:11Z</time>
      </trkpt>
      <trkpt lat="45.15913" lon="5.22377">
        <ele>318.5</ele>
        <time>2010-10-17T08:36:13Z</time>
      </trkpt>
      <trkpt lat="45.15912" lon="5.2238">
        <ele>318.6</ele>
        <time>2010-10-17T08:36:15Z</time>
      </trkpt>
      <trkpt lat="45.1591" lon="5.22384">
        <ele>318.5</ele>
        <time>2010-10-17T08:36:17Z</time>
      </trkpt>
      <trkpt lat="45.15909" lon="5.22388">
        <ele>318.7</ele>
        <time>2010-10-17T08:36:19Z</time>
      </trkpt>
      <trkpt lat="45.15909" lon="5.22392">
        <ele>318.3</ele>
        <time>2010-10-17T08:36:23Z</time>
      </trkpt>
      <trkpt lat="45.15909" lon="5.22395">
        <ele>318</ele>
        <time>2010-10-17T08:36:25Z</time>
      </trkpt>
      <trkpt lat="45.15911" lon="5.22398">
        <ele>318.2</ele>
        <time>2010-10-17T08:36:27Z</time>
      </trkpt>
      <trkpt lat="45.15914" lon="5.22401">
        <ele>318.4</ele>
        <time>2010-10-17T08:36:29Z</time>
      </trkpt>
      <trkpt lat="45.15916" lon="5.22402">
        <ele>318.5</ele>
        <time>2010-10-17T08:36:31Z</time>
      </trkpt>
      <trkpt lat="45.15919" lon="5.22405">
        <ele>318.5</ele>
        <time>2010-10-17T08:36:35Z</time>
      </trkpt>
      <trkpt lat="45.15921" lon="5.22404">
        <ele>318.2</ele>
        <time>2010-10-17T08:36:37Z</time>
      </trkpt>
      <trkpt lat="45.15924" lon="5.22404">
        <ele>317.9</ele>
        <time>2010-10-17T08:36:41Z</time>
      </trkpt>
      <trkpt lat="45.15926" lon="5.22407">
        <ele>318.2</ele>
        <time>2010-10-17T08:36:45Z</time>
      </trkpt>
      <trkpt lat="45.15927" lon="5.22408">
        <ele>318.1</ele>
        <time>2010-10-17T08:36:48Z</time>
      </trkpt>
      <trkpt lat="45.15928" lon="5.22411">
        <ele>318</ele>
        <time>2010-10-17T08:36:50Z</time>
      </trkpt>
      <trkpt lat="45.15928" lon="5.22413">
        <ele>317.8</ele>
        <time>2010-10-17T08:36:53Z</time>
      </trkpt>
      <trkpt lat="45.15929" lon="5.22412">
        <ele>318.1</ele>
        <time>2010-10-17T08:36:57Z</time>
      </trkpt>
      <trkpt lat="45.15931" lon="5.22412">
        <ele>318.3</ele>
        <time>2010-10-17T08:37:02Z</time>
      </trkpt>
      <trkpt lat="45.15937" lon="5.22412">
        <ele>319.7</ele>
        <time>2010-10-17T08:37:06Z</time>
      </trkpt>
      <trkpt lat="45.1594" lon="5.22412">
        <ele>322.1</ele>
        <time>2010-10-17T08:37:08Z</time>
      </trkpt>
      <trkpt lat="45.15943" lon="5.22412">
        <ele>322.5</ele>
        <time>2010-10-17T08:37:11Z</time>
      </trkpt>
      <trkpt lat="45.15947" lon="5.22413">
        <ele>323</ele>
        <time>2010-10-17T08:37:13Z</time>
      </trkpt>
      <trkpt lat="45.15948" lon="5.22413">
        <ele>322.6</ele>
        <time>2010-10-17T08:37:16Z</time>
      </trkpt>
      <trkpt lat="45.15951" lon="5.22413">
        <ele>323.2</ele>
        <time>2010-10-17T08:37:20Z</time>
      </trkpt>
      <trkpt lat="45.15952" lon="5.22414">
        <ele>323</ele>
        <time>2010-10-17T08:37:24Z</time>
      </trkpt>
      <trkpt lat="45.15953" lon="5.22415">
        <ele>323.2</ele>
        <time>2010-10-17T08:37:27Z</time>
      </trkpt>
      <trkpt lat="45.15954" lon="5.22414">
        <ele>323.5</ele>
        <time>2010-10-17T08:37:30Z</time>
      </trkpt>
      <trkpt lat="45.15955" lon="5.22416">
        <ele>323.2</ele>
        <time>2010-10-17T08:37:34Z</time>
      </trkpt>
      <trkpt lat="45.15956" lon="5.22417">
        <ele>323</ele>
        <time>2010-10-17T08:37:38Z</time>
      </trkpt>
      <trkpt lat="45.1596" lon="5.22418">
        <ele>323.2</ele>
        <time>2010-10-17T08:37:41Z</time>
      </trkpt>
      <trkpt lat="45.15963" lon="5.22417">
        <ele>323.5</ele>
        <time>2010-10-17T08:37:44Z</time>
      </trkpt>
      <trkpt lat="45.15965" lon="5.22418">
        <ele>324.3</ele>
        <time>2010-10-17T08:37:47Z</time>
      </trkpt>
      <trkpt lat="45.15966" lon="5.2242">
        <ele>324.6</ele>
        <time>2010-10-17T08:37:49Z</time>
      </trkpt>
      <trkpt lat="45.15966" lon="5.22422">
        <ele>325.4</ele>
        <time>2010-10-17T08:37:52Z</time>
      </trkpt>
      <trkpt lat="45.15969" lon="5.22422">
        <ele>324.8</ele>
        <time>2010-10-17T08:37:56Z</time>
      </trkpt>
      <trkpt lat="45.15971" lon="5.22423">
        <ele>325.1</ele>
        <time>2010-10-17T08:38:01Z</time>
      </trkpt>
      <trkpt lat="45.15973" lon="5.22424">
        <ele>324.8</ele>
        <time>2010-10-17T08:38:03Z</time>
      </trkpt>
      <trkpt lat="45.15974" lon="5.22423">
        <ele>324</ele>
        <time>2010-10-17T08:38:05Z</time>
      </trkpt>
      <trkpt lat="45.15974" lon="5.22424">
        <ele>324.4</ele>
        <time>2010-10-17T08:38:07Z</time>
      </trkpt>
      <trkpt lat="45.15975" lon="5.22423">
        <ele>324.5</ele>
        <time>2010-10-17T08:38:21Z</time>
      </trkpt>
      <trkpt lat="45.15979" lon="5.22423">
        <ele>325</ele>
        <time>2010-10-17T08:38:23Z</time>
      </trkpt>
      <trkpt lat="45.15981" lon="5.22426">
        <ele>325.4</ele>
        <time>2010-10-17T08:38:25Z</time>
      </trkpt>
      <trkpt lat="45.15983" lon="5.22426">
        <ele>327</ele>
        <time>2010-10-17T08:38:27Z</time>
      </trkpt>
      <trkpt lat="45.15984" lon="5.22424">
        <ele>327.5</ele>
        <time>2010-10-17T08:38:29Z</time>
      </trkpt>
      <trkpt lat="45.15984" lon="5.22424">
        <ele>327.9</ele>
        <time>2010-10-17T08:38:33Z</time>
      </trkpt>
      <trkpt lat="45.15985" lon="5.22423">
        <ele>328.2</ele>
        <time>2010-10-17T08:38:36Z</time>
      </trkpt>
      <trkpt lat="45.15985" lon="5.22425">
        <ele>328.9</ele>
        <time>2010-10-17T08:38:41Z</time>
      </trkpt>
      <trkpt lat="45.15983" lon="5.22426">
        <ele>329.1</ele>
        <time>2010-10-17T08:38:43Z</time>
      </trkpt>
      <trkpt lat="45.15983" lon="5.22425">
        <ele>327.8</ele>
        <time>2010-10-17T08:38:45Z</time>
      </trkpt>
      <trkpt lat="45.15985" lon="5.22424">
        <ele>325.7</ele>
        <time>2010-10-17T08:38:49Z</time>
      </trkpt>
      <trkpt lat="45.15984" lon="5.22424">
        <ele>326.4</ele>
        <time>2010-10-17T08:39:21Z</time>
      </trkpt>
      <trkpt lat="45.15987" lon="5.22424">
        <ele>323.9</ele>
        <time>2010-10-17T08:39:53Z</time>
      </trkpt>
      <trkpt lat="45.15986" lon="5.22425">
        <ele>323.1</ele>
        <time>2010-10-17T08:39:55Z</time>
      </trkpt>
      <trkpt lat="45.15986" lon="5.22426">
        <ele>323.4</ele>
        <time>2010-10-17T08:39:58Z</time>
      </trkpt>
      <trkpt lat="45.15988" lon="5.22427">
        <ele>322.5</ele>
        <time>2010-10-17T08:40:00Z</time>
      </trkpt>
      <trkpt lat="45.1599" lon="5.22428">
        <ele>322.3</ele>
        <time>2010-10-17T08:40:03Z</time>
      </trkpt>
      <trkpt lat="45.15993" lon="5.22427">
        <ele>325.5</ele>
        <time>2010-10-17T08:40:05Z</time>
      </trkpt>
      <trkpt lat="45.15995" lon="5.22426">
        <ele>326.8</ele>
        <time>2010-10-17T08:40:10Z</time>
      </trkpt>
      <trkpt lat="45.15996" lon="5.22425">
        <ele>327.5</ele>
        <time>2010-10-17T08:40:14Z</time>
      </trkpt>
      <trkpt lat="45.15997" lon="5.22425">
        <ele>327.6</ele>
        <time>2010-10-17T08:40:38Z</time>
      </trkpt>
      <trkpt lat="45.16003" lon="5.22422">
        <ele>327</ele>
        <time>2010-10-17T08:40:40Z</time>
      </trkpt>
      <trkpt lat="45.16013" lon="5.22418">
        <ele>327.3</ele>
        <time>2010-10-17T08:40:42Z</time>
      </trkpt>
      <trkpt lat="45.16023" lon="5.22418">
        <ele>327</ele>
        <time>2010-10-17T08:40:44Z</time>
      </trkpt>
      <trkpt lat="45.1603" lon="5.22419">
        <ele>325.9</ele>
        <time>2010-10-17T08:40:46Z</time>
      </trkpt>
      <trkpt lat="45.16036" lon="5.22419">
        <ele>325.5</ele>
        <time>2010-10-17T08:40:48Z</time>
      </trkpt>
      <trkpt lat="45.1604" lon="5.22418">
        <ele>325.3</ele>
        <time>2010-10-17T08:40:50Z</time>
      </trkpt>
      <trkpt lat="45.16044" lon="5.22418">
        <ele>325.1</ele>
        <time>2010-10-17T08:40:52Z</time>
      </trkpt>
      <trkpt lat="45.16047" lon="5.22421">
        <ele>325.1</ele>
        <time>2010-10-17T08:40:54Z</time>
      </trkpt>
      <trkpt lat="45.16051" lon="5.22427">
        <ele>324.9</ele>
        <time>2010-10-17T08:40:56Z</time>
      </trkpt>
      <trkpt lat="45.16052" lon="5.22432">
        <ele>324.5</ele>
        <time>2010-10-17T08:40:58Z</time>
      </trkpt>
      <trkpt lat="45.16049" lon="5.22432">
        <ele>324.6</ele>
        <time>2010-10-17T08:41:01Z</time>
      </trkpt>
      <trkpt lat="45.16046" lon="5.22435">
        <ele>324.6</ele>
        <time>2010-10-17T08:41:03Z</time>
      </trkpt>
      <trkpt lat="45.16044" lon="5.22436">
        <ele>324.5</ele>
        <time>2010-10-17T08:41:05Z</time>
      </trkpt>
      <trkpt lat="45.16042" lon="5.22437">
        <ele>324.7</ele>
        <time>2010-10-17T08:41:07Z</time>
      </trkpt>
      <trkpt lat="45.16039" lon="5.22438">
        <ele>325.3</ele>
        <time>2010-10-17T08:41:09Z</time>
      </trkpt>
      <trkpt lat="45.16035" lon="5.22439">
        <ele>326</ele>
        <time>2010-10-17T08:41:11Z</time>
      </trkpt>
      <trkpt lat="45.16031" lon="5.22439">
        <ele>326</ele>
        <time>2010-10-17T08:41:14Z</time>
      </trkpt>
      <trkpt lat="45.16027" lon="5.22437">
        <ele>326.3</ele>
        <time>2010-10-17T08:41:16Z</time>
      </trkpt>
      <trkpt lat="45.16024" lon="5.22439">
        <ele>325.8</ele>
        <time>2010-10-17T08:41:19Z</time>
      </trkpt>
      <trkpt lat="45.16021" lon="5.22439">
        <ele>326</ele>
        <time>2010-10-17T08:41:21Z</time>
      </trkpt>
      <trkpt lat="45.16021" lon="5.22442">
        <ele>326.3</ele>
        <time>2010-10-17T08:41:23Z</time>
      </trkpt>
      <trkpt lat="45.16018" lon="5.22443">
        <ele>326.3</ele>
        <time>2010-10-17T08:41:25Z</time>
      </trkpt>
      <trkpt lat="45.16013" lon="5.22443">
        <ele>326.6</ele>
        <time>2010-10-17T08:41:28Z</time>
      </trkpt>
      <trkpt lat="45.1601" lon="5.22443">
        <ele>326.5</ele>
        <time>2010-10-17T08:41:30Z</time>
      </trkpt>
      <trkpt lat="45.16007" lon="5.22445">
        <ele>327</ele>
        <time>2010-10-17T08:41:33Z</time>
      </trkpt>
      <trkpt lat="45.16006" lon="5.22448">
        <ele>327.1</ele>
        <time>2010-10-17T08:41:35Z</time>
      </trkpt>
      <trkpt lat="45.16003" lon="5.22448">
        <ele>327</ele>
        <time>2010-10-17T08:41:36Z</time>
      </trkpt>
      <trkpt lat="45.16001" lon="5.22448">
        <ele>327.2</ele>
        <time>2010-10-17T08:41:37Z</time>
      </trkpt>
      <trkpt lat="45.15999" lon="5.22449">
        <ele>327.3</ele>
        <time>2010-10-17T08:41:38Z</time>
      </trkpt>
      <trkpt lat="45.15997" lon="5.22449">
        <ele>327.1</ele>
        <time>2010-10-17T08:41:39Z</time>
      </trkpt>
      <trkpt lat="45.15995" lon="5.22448">
        <ele>326.9</ele>
        <time>2010-10-17T08:41:40Z</time>
      </trkpt>
      <trkpt lat="45.15994" lon="5.22449">
        <ele>326.7</ele>
        <time>2010-10-17T08:41:41Z</time>
      </trkpt>
      <trkpt lat="45.15991" lon="5.22448">
        <ele>326.5</ele>
        <time>2010-10-17T08:41:42Z</time>
      </trkpt>
      <trkpt lat="45.15991" lon="5.2245">
        <ele>326.8</ele>
        <time>2010-10-17T08:41:43Z</time>
      </trkpt>
      <trkpt lat="45.1599" lon="5.22451">
        <ele>327.2</ele>
        <time>2010-10-17T08:41:43Z</time>
      </trkpt>
      <trkpt lat="45.15988" lon="5.22454">
        <ele>328.2</ele>
        <time>2010-10-17T08:41:46Z</time>
      </trkpt>
      <trkpt lat="45.15988" lon="5.22455">
        <ele>328.8</ele>
        <time>2010-10-17T08:41:47Z</time>
      </trkpt>
      <trkpt lat="45.15988" lon="5.22456">
        <ele>329.5</ele>
        <time>2010-10-17T08:41:50Z</time>
      </trkpt>
      <trkpt lat="45.15989" lon="5.22456">
        <ele>330.5</ele>
        <time>2010-10-17T08:41:51Z</time>
      </trkpt>
      <trkpt lat="45.15989" lon="5.22456">
        <ele>330.9</ele>
        <time>2010-10-17T08:41:58Z</time>
      </trkpt>
      <trkpt lat="45.15989" lon="5.22458">
        <ele>331.9</ele>
        <time>2010-10-17T08:41:59Z</time>
      </trkpt>
      <trkpt lat="45.15989" lon="5.2246">
        <ele>332.6</ele>
        <time>2010-10-17T08:42:00Z</time>
      </trkpt>
      <trkpt lat="45.15989" lon="5.22462">
        <ele>333.5</ele>
        <time>2010-10-17T08:42:01Z</time>
      </trkpt>
      <trkpt lat="45.15989" lon="5.22463">
        <ele>333.5</ele>
        <time>2010-10-17T08:42:02Z</time>
      </trkpt>
      <trkpt lat="45.15988" lon="5.22464">
        <ele>334.1</ele>
        <time>2010-10-17T08:42:03Z</time>
      </trkpt>
      <trkpt lat="45.15989" lon="5.22464">
        <ele>333.7</ele>
        <time>2010-10-17T08:42:03Z</time>
      </trkpt>
      <trkpt lat="45.15989" lon="5.22465">
        <ele>333.7</ele>
        <time>2010-10-17T08:42:05Z</time>
      </trkpt>
      <trkpt lat="45.1599" lon="5.22466">
        <ele>333.8</ele>
        <time>2010-10-17T08:42:06Z</time>
      </trkpt>
      <trkpt lat="45.1599" lon="5.22466">
        <ele>333.8</ele>
        <time>2010-10-17T08:42:09Z</time>
      </trkpt>
      <trkpt lat="45.1599" lon="5.22468">
        <ele>334</ele>
        <time>2010-10-17T08:42:10Z</time>
      </trkpt>
      <trkpt lat="45.15991" lon="5.22469">
        <ele>334.7</ele>
        <time>2010-10-17T08:42:11Z</time>
      </trkpt>
      <trkpt lat="45.15991" lon="5.22469">
        <ele>334.9</ele>
        <time>2010-10-17T08:42:23Z</time>
      </trkpt>
      <trkpt lat="45.15992" lon="5.22471">
        <ele>335.1</ele>
        <time>2010-10-17T08:42:23Z</time>
      </trkpt>
      <trkpt lat="45.15994" lon="5.22473">
        <ele>336.3</ele>
        <time>2010-10-17T08:42:25Z</time>
      </trkpt>
      <trkpt lat="45.15997" lon="5.22476">
        <ele>336.3</ele>
        <time>2010-10-17T08:42:26Z</time>
      </trkpt>
      <trkpt lat="45.16" lon="5.22478">
        <ele>337</ele>
        <time>2010-10-17T08:42:27Z</time>
      </trkpt>
      <trkpt lat="45.16001" lon="5.22481">
        <ele>336.2</ele>
        <time>2010-10-17T08:42:28Z</time>
      </trkpt>
      <trkpt lat="45.16002" lon="5.22483">
        <ele>336.6</ele>
        <time>2010-10-17T08:42:29Z</time>
      </trkpt>
      <trkpt lat="45.16003" lon="5.22485">
        <ele>336.8</ele>
        <time>2010-10-17T08:42:30Z</time>
      </trkpt>
      <trkpt lat="45.16004" lon="5.22487">
        <ele>336.8</ele>
        <time>2010-10-17T08:42:31Z</time>
      </trkpt>
      <trkpt lat="45.16004" lon="5.22489">
        <ele>337</ele>
        <time>2010-10-17T08:42:32Z</time>
      </trkpt>
      <trkpt lat="45.16004" lon="5.22491">
        <ele>336.9</ele>
        <time>2010-10-17T08:42:33Z</time>
      </trkpt>
      <trkpt lat="45.16006" lon="5.22493">
        <ele>337.4</ele>
        <time>2010-10-17T08:42:35Z</time>
      </trkpt>
      <trkpt lat="45.16006" lon="5.22494">
        <ele>337.5</ele>
        <time>2010-10-17T08:42:36Z</time>
      </trkpt>
      <trkpt lat="45.16005" lon="5.22493">
        <ele>337.7</ele>
        <time>2010-10-17T08:42:37Z</time>
      </trkpt>
      <trkpt lat="45.16006" lon="5.22494">
        <ele>338.1</ele>
        <time>2010-10-17T08:42:39Z</time>
      </trkpt>
      <trkpt lat="45.16006" lon="5.22496">
        <ele>339</ele>
        <time>2010-10-17T08:42:40Z</time>
      </trkpt>
      <trkpt lat="45.16007" lon="5.22498">
        <ele>340.5</ele>
        <time>2010-10-17T08:42:42Z</time>
      </trkpt>
      <trkpt lat="45.16008" lon="5.225">
        <ele>340.3</ele>
        <time>2010-10-17T08:42:42Z</time>
      </trkpt>
      <trkpt lat="45.16008" lon="5.22501">
        <ele>340.7</ele>
        <time>2010-10-17T08:42:45Z</time>
      </trkpt>
      <trkpt lat="45.16009" lon="5.22503">
        <ele>341</ele>
        <time>2010-10-17T08:42:47Z</time>
      </trkpt>
      <trkpt lat="45.1601" lon="5.22504">
        <ele>340.9</ele>
        <time>2010-10-17T08:42:48Z</time>
      </trkpt>
      <trkpt lat="45.1601" lon="5.22504">
        <ele>340.8</ele>
        <time>2010-10-17T08:44:31Z</time>
      </trkpt>
      <trkpt lat="45.16008" lon="5.22503">
        <ele>341.2</ele>
        <time>2010-10-17T08:44:32Z</time>
      </trkpt>
      <trkpt lat="45.16007" lon="5.22505">
        <ele>341.2</ele>
        <time>2010-10-17T08:44:33Z</time>
      </trkpt>
      <trkpt lat="45.16006" lon="5.22506">
        <ele>341.1</ele>
        <time>2010-10-17T08:44:34Z</time>
      </trkpt>
      <trkpt lat="45.16006" lon="5.22509">
        <ele>341.7</ele>
        <time>2010-10-17T08:44:35Z</time>
      </trkpt>
      <trkpt lat="45.16006" lon="5.22512">
        <ele>341.5</ele>
        <time>2010-10-17T08:44:36Z</time>
      </trkpt>
      <trkpt lat="45.16005" lon="5.22515">
        <ele>342.2</ele>
        <time>2010-10-17T08:44:37Z</time>
      </trkpt>
      <trkpt lat="45.16005" lon="5.22519">
        <ele>342.2</ele>
        <time>2010-10-17T08:44:38Z</time>
      </trkpt>
      <trkpt lat="45.16004" lon="5.2252">
        <ele>341.6</ele>
        <time>2010-10-17T08:44:39Z</time>
      </trkpt>
      <trkpt lat="45.16003" lon="5.22522">
        <ele>341.5</ele>
        <time>2010-10-17T08:44:40Z</time>
      </trkpt>
      <trkpt lat="45.16002" lon="5.22526">
        <ele>341.8</ele>
        <time>2010-10-17T08:44:41Z</time>
      </trkpt>
      <trkpt lat="45.16002" lon="5.22529">
        <ele>341.4</ele>
        <time>2010-10-17T08:44:41Z</time>
      </trkpt>
      <trkpt lat="45.16002" lon="5.22531">
        <ele>341.4</ele>
        <time>2010-10-17T08:44:42Z</time>
      </trkpt>
      <trkpt lat="45.16" lon="5.22535">
        <ele>341.4</ele>
        <time>2010-10-17T08:44:44Z</time>
      </trkpt>
      <trkpt lat="45.15999" lon="5.22538">
        <ele>341.8</ele>
        <time>2010-10-17T08:44:45Z</time>
      </trkpt>
      <trkpt lat="45.15996" lon="5.22541">
        <ele>342</ele>
        <time>2010-10-17T08:44:46Z</time>
      </trkpt>
      <trkpt lat="45.15995" lon="5.22544">
        <ele>342.1</ele>
        <time>2010-10-17T08:44:47Z</time>
      </trkpt>
      <trkpt lat="45.15994" lon="5.22547">
        <ele>341.8</ele>
        <time>2010-10-17T08:44:48Z</time>
      </trkpt>
      <trkpt lat="45.15993" lon="5.2255">
        <ele>341.6</ele>
        <time>2010-10-17T08:44:49Z</time>
      </trkpt>
      <trkpt lat="45.15992" lon="5.22555">
        <ele>341.7</ele>
        <time>2010-10-17T08:44:50Z</time>
      </trkpt>
      <trkpt lat="45.15994" lon="5.2256">
        <ele>341.5</ele>
        <time>2010-10-17T08:44:51Z</time>
      </trkpt>
      <trkpt lat="45.15993" lon="5.22566">
        <ele>341.8</ele>
        <time>2010-10-17T08:44:52Z</time>
      </trkpt>
      <trkpt lat="45.15994" lon="5.22573">
        <ele>341.8</ele>
        <time>2010-10-17T08:44:53Z</time>
      </trkpt>
      <trkpt lat="45.15995" lon="5.2258">
        <ele>341.4</ele>
        <time>2010-10-17T08:44:54Z</time>
      </trkpt>
      <trkpt lat="45.15996" lon="5.22589">
        <ele>341.6</ele>
        <time>2010-10-17T08:44:55Z</time>
      </trkpt>
      <trkpt lat="45.15996" lon="5.226">
        <ele>341.6</ele>
        <time>2010-10-17T08:44:56Z</time>
      </trkpt>
      <trkpt lat="45.15996" lon="5.22612">
        <ele>341.9</ele>
        <time>2010-10-17T08:44:57Z</time>
      </trkpt>
      <trkpt lat="45.15997" lon="5.22624">
        <ele>342.2</ele>
        <time>2010-10-17T08:44:58Z</time>
      </trkpt>
      <trkpt lat="45.15998" lon="5.22635">
        <ele>342.2</ele>
        <time>2010-10-17T08:44:59Z</time>
      </trkpt>
      <trkpt lat="45.15998" lon="5.22647">
        <ele>341.8</ele>
        <time>2010-10-17T08:45:00Z</time>
      </trkpt>
      <trkpt lat="45.15999" lon="5.22659">
        <ele>342.1</ele>
        <time>2010-10-17T08:45:01Z</time>
      </trkpt>
      <trkpt lat="45.15999" lon="5.22671">
        <ele>341.7</ele>
        <time>2010-10-17T08:45:01Z</time>
      </trkpt>
      <trkpt lat="45.15999" lon="5.22684">
        <ele>341.9</ele>
        <time>2010-10-17T08:45:02Z</time>
      </trkpt>
      <trkpt lat="45.15998" lon="5.22699">
        <ele>341.6</ele>
        <time>2010-10-17T08:45:04Z</time>
      </trkpt>
      <trkpt lat="45.15997" lon="5.22713">
        <ele>341.5</ele>
        <time>2010-10-17T08:45:05Z</time>
      </trkpt>
      <trkpt lat="45.15995" lon="5.22727">
        <ele>340.9</ele>
        <time>2010-10-17T08:45:06Z</time>
      </trkpt>
      <trkpt lat="45.15993" lon="5.2274">
        <ele>340.4</ele>
        <time>2010-10-17T08:45:07Z</time>
      </trkpt>
      <trkpt lat="45.15991" lon="5.22752">
        <ele>339.8</ele>
        <time>2010-10-17T08:45:08Z</time>
      </trkpt>
      <trkpt lat="45.15989" lon="5.22765">
        <ele>340</ele>
        <time>2010-10-17T08:45:09Z</time>
      </trkpt>
      <trkpt lat="45.15987" lon="5.22776">
        <ele>340.2</ele>
        <time>2010-10-17T08:45:10Z</time>
      </trkpt>
      <trkpt lat="45.15985" lon="5.22788">
        <ele>340.3</ele>
        <time>2010-10-17T08:45:11Z</time>
      </trkpt>
      <trkpt lat="45.15982" lon="5.22801">
        <ele>339.9</ele>
        <time>2010-10-17T08:45:12Z</time>
      </trkpt>
      <trkpt lat="45.15979" lon="5.22811">
        <ele>338.9</ele>
        <time>2010-10-17T08:45:13Z</time>
      </trkpt>
      <trkpt lat="45.15979" lon="5.2282">
        <ele>338.7</ele>
        <time>2010-10-17T08:45:14Z</time>
      </trkpt>
      <trkpt lat="45.15977" lon="5.22828">
        <ele>338.8</ele>
        <time>2010-10-17T08:45:15Z</time>
      </trkpt>
      <trkpt lat="45.15976" lon="5.22837">
        <ele>338.7</ele>
        <time>2010-10-17T08:45:16Z</time>
      </trkpt>
      <trkpt lat="45.15974" lon="5.22845">
        <ele>338.8</ele>
        <time>2010-10-17T08:45:17Z</time>
      </trkpt>
      <trkpt lat="45.15972" lon="5.22853">
        <ele>339</ele>
        <time>2010-10-17T08:45:18Z</time>
      </trkpt>
      <trkpt lat="45.15972" lon="5.2286">
        <ele>339.3</ele>
        <time>2010-10-17T08:45:19Z</time>
      </trkpt>
      <trkpt lat="45.1597" lon="5.22869">
        <ele>339.9</ele>
        <time>2010-10-17T08:45:20Z</time>
      </trkpt>
      <trkpt lat="45.15969" lon="5.22878">
        <ele>340</ele>
        <time>2010-10-17T08:45:21Z</time>
      </trkpt>
      <trkpt lat="45.15967" lon="5.22886">
        <ele>338.9</ele>
        <time>2010-10-17T08:45:21Z</time>
      </trkpt>
      <trkpt lat="45.15964" lon="5.22895">
        <ele>338.3</ele>
        <time>2010-10-17T08:45:22Z</time>
      </trkpt>
      <trkpt lat="45.15962" lon="5.22903">
        <ele>338.1</ele>
        <time>2010-10-17T08:45:24Z</time>
      </trkpt>
      <trkpt lat="45.15959" lon="5.22909">
        <ele>337.9</ele>
        <time>2010-10-17T08:45:25Z</time>
      </trkpt>
      <trkpt lat="45.15956" lon="5.22916">
        <ele>337.9</ele>
        <time>2010-10-17T08:45:26Z</time>
      </trkpt>
      <trkpt lat="45.15953" lon="5.22923">
        <ele>337.5</ele>
        <time>2010-10-17T08:45:27Z</time>
      </trkpt>
      <trkpt lat="45.15949" lon="5.22929">
        <ele>337.4</ele>
        <time>2010-10-17T08:45:28Z</time>
      </trkpt>
      <trkpt lat="45.15946" lon="5.22936">
        <ele>337.2</ele>
        <time>2010-10-17T08:45:29Z</time>
      </trkpt>
      <trkpt lat="45.15943" lon="5.22943">
        <ele>337.3</ele>
        <time>2010-10-17T08:45:30Z</time>
      </trkpt>
      <trkpt lat="45.15939" lon="5.2295">
        <ele>336.8</ele>
        <time>2010-10-17T08:45:31Z</time>
      </trkpt>
      <trkpt lat="45.15936" lon="5.22958">
        <ele>336.9</ele>
        <time>2010-10-17T08:45:32Z</time>
      </trkpt>
      <trkpt lat="45.15932" lon="5.22965">
        <ele>337</ele>
        <time>2010-10-17T08:45:33Z</time>
      </trkpt>
      <trkpt lat="45.15929" lon="5.22972">
        <ele>337</ele>
        <time>2010-10-17T08:45:34Z</time>
      </trkpt>
      <trkpt lat="45.15926" lon="5.22979">
        <ele>336.9</ele>
        <time>2010-10-17T08:45:35Z</time>
      </trkpt>
      <trkpt lat="45.15923" lon="5.22985">
        <ele>337.1</ele>
        <time>2010-10-17T08:45:36Z</time>
      </trkpt>
      <trkpt lat="45.15921" lon="5.22991">
        <ele>337.2</ele>
        <time>2010-10-17T08:45:37Z</time>
      </trkpt>
      <trkpt lat="45.15919" lon="5.22998">
        <ele>337.5</ele>
        <time>2010-10-17T08:45:38Z</time>
      </trkpt>
      <trkpt lat="45.15916" lon="5.23003">
        <ele>337.5</ele>
        <time>2010-10-17T08:45:39Z</time>
      </trkpt>
      <trkpt lat="45.15913" lon="5.23009">
        <ele>337.9</ele>
        <time>2010-10-17T08:45:40Z</time>
      </trkpt>
      <trkpt lat="45.15911" lon="5.23015">
        <ele>337.8</ele>
        <time>2010-10-17T08:45:41Z</time>
      </trkpt>
      <trkpt lat="45.15908" lon="5.23019">
        <ele>337.6</ele>
        <time>2010-10-17T08:45:41Z</time>
      </trkpt>
      <trkpt lat="45.15905" lon="5.23024">
        <ele>337.6</ele>
        <time>2010-10-17T08:45:42Z</time>
      </trkpt>
      <trkpt lat="45.15903" lon="5.23028">
        <ele>337.5</ele>
        <time>2010-10-17T08:45:44Z</time>
      </trkpt>
      <trkpt lat="45.15901" lon="5.23033">
        <ele>337.7</ele>
        <time>2010-10-17T08:45:45Z</time>
      </trkpt>
      <trkpt lat="45.15898" lon="5.23037">
        <ele>337.6</ele>
        <time>2010-10-17T08:45:46Z</time>
      </trkpt>
      <trkpt lat="45.15896" lon="5.23041">
        <ele>337.8</ele>
        <time>2010-10-17T08:45:47Z</time>
      </trkpt>
      <trkpt lat="45.15894" lon="5.23045">
        <ele>337.8</ele>
        <time>2010-10-17T08:45:48Z</time>
      </trkpt>
      <trkpt lat="45.15892" lon="5.23047">
        <ele>338</ele>
        <time>2010-10-17T08:45:49Z</time>
      </trkpt>
      <trkpt lat="45.1589" lon="5.2305">
        <ele>337.7</ele>
        <time>2010-10-17T08:45:50Z</time>
      </trkpt>
      <trkpt lat="45.15888" lon="5.23053">
        <ele>337.6</ele>
        <time>2010-10-17T08:45:51Z</time>
      </trkpt>
      <trkpt lat="45.15885" lon="5.23056">
        <ele>337.2</ele>
        <time>2010-10-17T08:45:52Z</time>
      </trkpt>
      <trkpt lat="45.15884" lon="5.2306">
        <ele>336.9</ele>
        <time>2010-10-17T08:45:53Z</time>
      </trkpt>
      <trkpt lat="45.15881" lon="5.23061">
        <ele>336.3</ele>
        <time>2010-10-17T08:45:54Z</time>
      </trkpt>
      <trkpt lat="45.15879" lon="5.23064">
        <ele>336.4</ele>
        <time>2010-10-17T08:45:55Z</time>
      </trkpt>
      <trkpt lat="45.15877" lon="5.23067">
        <ele>336.3</ele>
        <time>2010-10-17T08:45:56Z</time>
      </trkpt>
      <trkpt lat="45.15875" lon="5.23069">
        <ele>336.5</ele>
        <time>2010-10-17T08:45:57Z</time>
      </trkpt>
      <trkpt lat="45.15873" lon="5.23072">
        <ele>336.3</ele>
        <time>2010-10-17T08:45:58Z</time>
      </trkpt>
      <trkpt lat="45.1587" lon="5.23075">
        <ele>336.4</ele>
        <time>2010-10-17T08:45:59Z</time>
      </trkpt>
      <trkpt lat="45.15866" lon="5.23078">
        <ele>336</ele>
        <time>2010-10-17T08:46:00Z</time>
      </trkpt>
      <trkpt lat="45.15864" lon="5.23083">
        <ele>336.1</ele>
        <time>2010-10-17T08:46:01Z</time>
      </trkpt>
      <trkpt lat="45.1586" lon="5.23087">
        <ele>335.7</ele>
        <time>2010-10-17T08:46:01Z</time>
      </trkpt>
      <trkpt lat="45.15857" lon="5.23092">
        <ele>335.6</ele>
        <time>2010-10-17T08:46:03Z</time>
      </trkpt>
      <trkpt lat="45.15854" lon="5.23096">
        <ele>335.4</ele>
        <time>2010-10-17T08:46:04Z</time>
      </trkpt>
      <trkpt lat="45.15852" lon="5.23101">
        <ele>335.4</ele>
        <time>2010-10-17T08:46:05Z</time>
      </trkpt>
      <trkpt lat="45.15849" lon="5.23105">
        <ele>335.6</ele>
        <time>2010-10-17T08:46:06Z</time>
      </trkpt>
      <trkpt lat="45.15847" lon="5.23109">
        <ele>334.9</ele>
        <time>2010-10-17T08:46:07Z</time>
      </trkpt>
      <trkpt lat="45.15845" lon="5.23112">
        <ele>335</ele>
        <time>2010-10-17T08:46:08Z</time>
      </trkpt>
      <trkpt lat="45.15842" lon="5.23116">
        <ele>334.7</ele>
        <time>2010-10-17T08:46:09Z</time>
      </trkpt>
      <trkpt lat="45.15839" lon="5.23119">
        <ele>334.4</ele>
        <time>2010-10-17T08:46:10Z</time>
      </trkpt>
      <trkpt lat="45.15836" lon="5.23125">
        <ele>334.2</ele>
        <time>2010-10-17T08:46:11Z</time>
      </trkpt>
      <trkpt lat="45.15833" lon="5.23129">
        <ele>334.1</ele>
        <time>2010-10-17T08:46:12Z</time>
      </trkpt>
      <trkpt lat="45.15831" lon="5.23134">
        <ele>334.4</ele>
        <time>2010-10-17T08:46:13Z</time>
      </trkpt>
      <trkpt lat="45.15828" lon="5.23139">
        <ele>334.4</ele>
        <time>2010-10-17T08:46:14Z</time>
      </trkpt>
      <trkpt lat="45.15826" lon="5.23142">
        <ele>334.3</ele>
        <time>2010-10-17T08:46:15Z</time>
      </trkpt>
      <trkpt lat="45.15824" lon="5.23146">
        <ele>334.4</ele>
        <time>2010-10-17T08:46:16Z</time>
      </trkpt>
      <trkpt lat="45.15823" lon="5.2315">
        <ele>334.4</ele>
        <time>2010-10-17T08:46:17Z</time>
      </trkpt>
      <trkpt lat="45.15821" lon="5.23154">
        <ele>334.4</ele>
        <time>2010-10-17T08:46:18Z</time>
      </trkpt>
      <trkpt lat="45.15819" lon="5.2316">
        <ele>334.4</ele>
        <time>2010-10-17T08:46:19Z</time>
      </trkpt>
      <trkpt lat="45.15818" lon="5.23165">
        <ele>334.7</ele>
        <time>2010-10-17T08:46:20Z</time>
      </trkpt>
      <trkpt lat="45.15816" lon="5.2317">
        <ele>335</ele>
        <time>2010-10-17T08:46:21Z</time>
      </trkpt>
      <trkpt lat="45.15814" lon="5.23173">
        <ele>335</ele>
        <time>2010-10-17T08:46:21Z</time>
      </trkpt>
      <trkpt lat="45.15812" lon="5.23177">
        <ele>335</ele>
        <time>2010-10-17T08:46:23Z</time>
      </trkpt>
      <trkpt lat="45.1581" lon="5.23181">
        <ele>335.1</ele>
        <time>2010-10-17T08:46:24Z</time>
      </trkpt>
      <trkpt lat="45.15807" lon="5.23185">
        <ele>334</ele>
        <time>2010-10-17T08:46:25Z</time>
      </trkpt>
      <trkpt lat="45.15806" lon="5.23188">
        <ele>334.8</ele>
        <time>2010-10-17T08:46:26Z</time>
      </trkpt>
      <trkpt lat="45.15804" lon="5.23192">
        <ele>335</ele>
        <time>2010-10-17T08:46:27Z</time>
      </trkpt>
      <trkpt lat="45.15802" lon="5.23195">
        <ele>334.9</ele>
        <time>2010-10-17T08:46:28Z</time>
      </trkpt>
      <trkpt lat="45.15799" lon="5.23199">
        <ele>335</ele>
        <time>2010-10-17T08:46:29Z</time>
      </trkpt>
      <trkpt lat="45.15798" lon="5.23203">
        <ele>335</ele>
        <time>2010-10-17T08:46:30Z</time>
      </trkpt>
      <trkpt lat="45.15796" lon="5.23207">
        <ele>334.9</ele>
        <time>2010-10-17T08:46:31Z</time>
      </trkpt>
      <trkpt lat="45.15793" lon="5.23211">
        <ele>335.2</ele>
        <time>2010-10-17T08:46:32Z</time>
      </trkpt>
      <trkpt lat="45.15791" lon="5.23215">
        <ele>335.6</ele>
        <time>2010-10-17T08:46:33Z</time>
      </trkpt>
      <trkpt lat="45.15789" lon="5.23219">
        <ele>335.3</ele>
        <time>2010-10-17T08:46:34Z</time>
      </trkpt>
      <trkpt lat="45.15787" lon="5.23223">
        <ele>335.5</ele>
        <time>2010-10-17T08:46:35Z</time>
      </trkpt>
      <trkpt lat="45.15785" lon="5.23227">
        <ele>335.5</ele>
        <time>2010-10-17T08:46:36Z</time>
      </trkpt>
      <trkpt lat="45.15783" lon="5.23231">
        <ele>335.3</ele>
        <time>2010-10-17T08:46:37Z</time>
      </trkpt>
      <trkpt lat="45.1578" lon="5.23235">
        <ele>335.5</ele>
        <time>2010-10-17T08:46:38Z</time>
      </trkpt>
      <trkpt lat="45.15779" lon="5.23239">
        <ele>334.6</ele>
        <time>2010-10-17T08:46:39Z</time>
      </trkpt>
      <trkpt lat="45.15777" lon="5.23243">
        <ele>335.2</ele>
        <time>2010-10-17T08:46:40Z</time>
      </trkpt>
      <trkpt lat="45.15775" lon="5.23248">
        <ele>335.1</ele>
        <time>2010-10-17T08:46:41Z</time>
      </trkpt>
      <trkpt lat="45.15774" lon="5.23254">
        <ele>335.5</ele>
        <time>2010-10-17T08:46:41Z</time>
      </trkpt>
      <trkpt lat="45.15771" lon="5.23257">
        <ele>335.4</ele>
        <time>2010-10-17T08:46:43Z</time>
      </trkpt>
      <trkpt lat="45.1577" lon="5.23263">
        <ele>335.9</ele>
        <time>2010-10-17T08:46:44Z</time>
      </trkpt>
      <trkpt lat="45.15769" lon="5.23267">
        <ele>336.3</ele>
        <time>2010-10-17T08:46:45Z</time>
      </trkpt>
      <trkpt lat="45.15767" lon="5.23272">
        <ele>336.2</ele>
        <time>2010-10-17T08:46:46Z</time>
      </trkpt>
      <trkpt lat="45.15764" lon="5.23278">
        <ele>335</ele>
        <time>2010-10-17T08:46:47Z</time>
      </trkpt>
      <trkpt lat="45.15761" lon="5.23284">
        <ele>335.4</ele>
        <time>2010-10-17T08:46:48Z</time>
      </trkpt>
      <trkpt lat="45.15759" lon="5.23292">
        <ele>334.6</ele>
        <time>2010-10-17T08:46:49Z</time>
      </trkpt>
      <trkpt lat="45.15756" lon="5.23299">
        <ele>334.8</ele>
        <time>2010-10-17T08:46:50Z</time>
      </trkpt>
      <trkpt lat="45.15753" lon="5.23307">
        <ele>335.2</ele>
        <time>2010-10-17T08:46:51Z</time>
      </trkpt>
      <trkpt lat="45.1575" lon="5.23314">
        <ele>335.5</ele>
        <time>2010-10-17T08:46:52Z</time>
      </trkpt>
      <trkpt lat="45.15747" lon="5.2332">
        <ele>335</ele>
        <time>2010-10-17T08:46:53Z</time>
      </trkpt>
      <trkpt lat="45.15744" lon="5.23327">
        <ele>334.2</ele>
        <time>2010-10-17T08:46:54Z</time>
      </trkpt>
      <trkpt lat="45.1574" lon="5.23334">
        <ele>334.5</ele>
        <time>2010-10-17T08:46:55Z</time>
      </trkpt>
      <trkpt lat="45.15737" lon="5.2334">
        <ele>334.6</ele>
        <time>2010-10-17T08:46:56Z</time>
      </trkpt>
      <trkpt lat="45.15734" lon="5.23344">
        <ele>334.3</ele>
        <time>2010-10-17T08:46:57Z</time>
      </trkpt>
      <trkpt lat="45.15731" lon="5.2335">
        <ele>334.6</ele>
        <time>2010-10-17T08:46:58Z</time>
      </trkpt>
      <trkpt lat="45.1573" lon="5.23356">
        <ele>333.8</ele>
        <time>2010-10-17T08:46:59Z</time>
      </trkpt>
      <trkpt lat="45.15727" lon="5.23361">
        <ele>333.9</ele>
        <time>2010-10-17T08:47:00Z</time>
      </trkpt>
      <trkpt lat="45.15725" lon="5.23367">
        <ele>333.4</ele>
        <time>2010-10-17T08:47:00Z</time>
      </trkpt>
      <trkpt lat="45.15723" lon="5.23372">
        <ele>333</ele>
        <time>2010-10-17T08:47:01Z</time>
      </trkpt>
      <trkpt lat="45.15722" lon="5.23376">
        <ele>332.7</ele>
        <time>2010-10-17T08:47:03Z</time>
      </trkpt>
      <trkpt lat="45.1572" lon="5.23381">
        <ele>332.6</ele>
        <time>2010-10-17T08:47:04Z</time>
      </trkpt>
      <trkpt lat="45.15719" lon="5.23386">
        <ele>332.5</ele>
        <time>2010-10-17T08:47:05Z</time>
      </trkpt>
      <trkpt lat="45.15718" lon="5.23392">
        <ele>332.3</ele>
        <time>2010-10-17T08:47:06Z</time>
      </trkpt>
      <trkpt lat="45.15716" lon="5.23398">
        <ele>332.4</ele>
        <time>2010-10-17T08:47:07Z</time>
      </trkpt>
      <trkpt lat="45.15714" lon="5.23404">
        <ele>331.6</ele>
        <time>2010-10-17T08:47:08Z</time>
      </trkpt>
      <trkpt lat="45.15713" lon="5.23412">
        <ele>331.6</ele>
        <time>2010-10-17T08:47:09Z</time>
      </trkpt>
      <trkpt lat="45.15714" lon="5.23419">
        <ele>331.5</ele>
        <time>2010-10-17T08:47:10Z</time>
      </trkpt>
      <trkpt lat="45.15714" lon="5.23425">
        <ele>331.5</ele>
        <time>2010-10-17T08:47:11Z</time>
      </trkpt>
      <trkpt lat="45.15714" lon="5.23432">
        <ele>331.3</ele>
        <time>2010-10-17T08:47:12Z</time>
      </trkpt>
      <trkpt lat="45.15715" lon="5.23438">
        <ele>331.2</ele>
        <time>2010-10-17T08:47:13Z</time>
      </trkpt>
      <trkpt lat="45.15716" lon="5.23444">
        <ele>331.2</ele>
        <time>2010-10-17T08:47:14Z</time>
      </trkpt>
      <trkpt lat="45.15716" lon="5.2345">
        <ele>331</ele>
        <time>2010-10-17T08:47:15Z</time>
      </trkpt>
      <trkpt lat="45.15717" lon="5.23456">
        <ele>330.9</ele>
        <time>2010-10-17T08:47:16Z</time>
      </trkpt>
      <trkpt lat="45.15718" lon="5.23461">
        <ele>331.2</ele>
        <time>2010-10-17T08:47:17Z</time>
      </trkpt>
      <trkpt lat="45.15719" lon="5.23465">
        <ele>330.9</ele>
        <time>2010-10-17T08:47:18Z</time>
      </trkpt>
      <trkpt lat="45.1572" lon="5.2347">
        <ele>330.3</ele>
        <time>2010-10-17T08:47:19Z</time>
      </trkpt>
      <trkpt lat="45.15722" lon="5.23474">
        <ele>330.8</ele>
        <time>2010-10-17T08:47:20Z</time>
      </trkpt>
      <trkpt lat="45.15725" lon="5.2348">
        <ele>330.8</ele>
        <time>2010-10-17T08:47:20Z</time>
      </trkpt>
      <trkpt lat="45.15727" lon="5.23488">
        <ele>331.1</ele>
        <time>2010-10-17T08:47:21Z</time>
      </trkpt>
      <trkpt lat="45.15728" lon="5.23497">
        <ele>332.1</ele>
        <time>2010-10-17T08:47:23Z</time>
      </trkpt>
      <trkpt lat="45.1573" lon="5.23505">
        <ele>332</ele>
        <time>2010-10-17T08:47:24Z</time>
      </trkpt>
      <trkpt lat="45.15731" lon="5.2351">
        <ele>332.1</ele>
        <time>2010-10-17T08:47:25Z</time>
      </trkpt>
      <trkpt lat="45.15733" lon="5.23513">
        <ele>332.4</ele>
        <time>2010-10-17T08:47:26Z</time>
      </trkpt>
      <trkpt lat="45.15734" lon="5.23515">
        <ele>330.4</ele>
        <time>2010-10-17T08:47:27Z</time>
      </trkpt>
      <trkpt lat="45.15736" lon="5.23512">
        <ele>330.8</ele>
        <time>2010-10-17T08:47:28Z</time>
      </trkpt>
      <trkpt lat="45.15737" lon="5.23509">
        <ele>330.3</ele>
        <time>2010-10-17T08:47:29Z</time>
      </trkpt>
      <trkpt lat="45.15738" lon="5.23506">
        <ele>330.2</ele>
        <time>2010-10-17T08:47:30Z</time>
      </trkpt>
      <trkpt lat="45.15739" lon="5.23503">
        <ele>330.1</ele>
        <time>2010-10-17T08:47:31Z</time>
      </trkpt>
      <trkpt lat="45.1574" lon="5.23502">
        <ele>330</ele>
        <time>2010-10-17T08:47:32Z</time>
      </trkpt>
      <trkpt lat="45.15741" lon="5.23498">
        <ele>329.7</ele>
        <time>2010-10-17T08:47:33Z</time>
      </trkpt>
      <trkpt lat="45.15743" lon="5.23496">
        <ele>329.7</ele>
        <time>2010-10-17T08:47:34Z</time>
      </trkpt>
      <trkpt lat="45.15744" lon="5.23495">
        <ele>330</ele>
        <time>2010-10-17T08:47:35Z</time>
      </trkpt>
      <trkpt lat="45.15746" lon="5.23492">
        <ele>330</ele>
        <time>2010-10-17T08:47:36Z</time>
      </trkpt>
      <trkpt lat="45.15747" lon="5.2349">
        <ele>330.2</ele>
        <time>2010-10-17T08:47:37Z</time>
      </trkpt>
      <trkpt lat="45.15748" lon="5.23487">
        <ele>330.1</ele>
        <time>2010-10-17T08:47:38Z</time>
      </trkpt>
      <trkpt lat="45.1575" lon="5.23484">
        <ele>330.1</ele>
        <time>2010-10-17T08:47:39Z</time>
      </trkpt>
      <trkpt lat="45.15751" lon="5.23481">
        <ele>329.7</ele>
        <time>2010-10-17T08:47:40Z</time>
      </trkpt>
      <trkpt lat="45.15751" lon="5.23478">
        <ele>329.3</ele>
        <time>2010-10-17T08:47:40Z</time>
      </trkpt>
      <trkpt lat="45.15753" lon="5.23475">
        <ele>329.7</ele>
        <time>2010-10-17T08:47:41Z</time>
      </trkpt>
      <trkpt lat="45.15753" lon="5.23473">
        <ele>329.6</ele>
        <time>2010-10-17T08:47:43Z</time>
      </trkpt>
      <trkpt lat="45.15754" lon="5.23471">
        <ele>329.6</ele>
        <time>2010-10-17T08:47:44Z</time>
      </trkpt>
      <trkpt lat="45.15755" lon="5.23469">
        <ele>329.7</ele>
        <time>2010-10-17T08:47:45Z</time>
      </trkpt>
      <trkpt lat="45.15756" lon="5.23466">
        <ele>330</ele>
        <time>2010-10-17T08:47:46Z</time>
      </trkpt>
      <trkpt lat="45.15757" lon="5.23464">
        <ele>330.5</ele>
        <time>2010-10-17T08:47:47Z</time>
      </trkpt>
      <trkpt lat="45.15759" lon="5.23462">
        <ele>331.2</ele>
        <time>2010-10-17T08:47:48Z</time>
      </trkpt>
      <trkpt lat="45.1576" lon="5.2346">
        <ele>330.9</ele>
        <time>2010-10-17T08:47:49Z</time>
      </trkpt>
      <trkpt lat="45.15761" lon="5.23459">
        <ele>330.9</ele>
        <time>2010-10-17T08:47:50Z</time>
      </trkpt>
      <trkpt lat="45.15762" lon="5.23456">
        <ele>331</ele>
        <time>2010-10-17T08:47:51Z</time>
      </trkpt>
      <trkpt lat="45.15764" lon="5.23454">
        <ele>331.9</ele>
        <time>2010-10-17T08:47:52Z</time>
      </trkpt>
      <trkpt lat="45.15766" lon="5.23453">
        <ele>332.1</ele>
        <time>2010-10-17T08:47:53Z</time>
      </trkpt>
      <trkpt lat="45.15767" lon="5.2345">
        <ele>332.1</ele>
        <time>2010-10-17T08:47:54Z</time>
      </trkpt>
      <trkpt lat="45.15768" lon="5.23448">
        <ele>332.5</ele>
        <time>2010-10-17T08:47:55Z</time>
      </trkpt>
      <trkpt lat="45.1577" lon="5.23447">
        <ele>332.6</ele>
        <time>2010-10-17T08:47:56Z</time>
      </trkpt>
      <trkpt lat="45.15771" lon="5.23446">
        <ele>332.5</ele>
        <time>2010-10-17T08:47:57Z</time>
      </trkpt>
      <trkpt lat="45.15773" lon="5.23446">
        <ele>332.9</ele>
        <time>2010-10-17T08:47:58Z</time>
      </trkpt>
      <trkpt lat="45.15774" lon="5.23445">
        <ele>332.6</ele>
        <time>2010-10-17T08:47:59Z</time>
      </trkpt>
      <trkpt lat="45.15776" lon="5.23445">
        <ele>333.3</ele>
        <time>2010-10-17T08:48:00Z</time>
      </trkpt>
      <trkpt lat="45.15777" lon="5.23445">
        <ele>333.9</ele>
        <time>2010-10-17T08:48:00Z</time>
      </trkpt>
      <trkpt lat="45.15779" lon="5.23444">
        <ele>334.4</ele>
        <time>2010-10-17T08:48:02Z</time>
      </trkpt>
      <trkpt lat="45.1578" lon="5.23444">
        <ele>334.3</ele>
        <time>2010-10-17T08:48:03Z</time>
      </trkpt>
      <trkpt lat="45.15782" lon="5.23444">
        <ele>334.2</ele>
        <time>2010-10-17T08:48:04Z</time>
      </trkpt>
      <trkpt lat="45.15784" lon="5.23443">
        <ele>334.6</ele>
        <time>2010-10-17T08:48:05Z</time>
      </trkpt>
      <trkpt lat="45.15786" lon="5.23442">
        <ele>334.8</ele>
        <time>2010-10-17T08:48:06Z</time>
      </trkpt>
      <trkpt lat="45.15789" lon="5.23442">
        <ele>334.8</ele>
        <time>2010-10-17T08:48:07Z</time>
      </trkpt>
      <trkpt lat="45.1579" lon="5.23441">
        <ele>334.7</ele>
        <time>2010-10-17T08:48:08Z</time>
      </trkpt>
      <trkpt lat="45.15792" lon="5.23441">
        <ele>334.5</ele>
        <time>2010-10-17T08:48:09Z</time>
      </trkpt>
      <trkpt lat="45.15793" lon="5.2344">
        <ele>334.3</ele>
        <time>2010-10-17T08:48:10Z</time>
      </trkpt>
      <trkpt lat="45.15795" lon="5.2344">
        <ele>334.7</ele>
        <time>2010-10-17T08:48:11Z</time>
      </trkpt>
      <trkpt lat="45.15797" lon="5.23438">
        <ele>335.2</ele>
        <time>2010-10-17T08:48:12Z</time>
      </trkpt>
      <trkpt lat="45.15798" lon="5.23437">
        <ele>334.9</ele>
        <time>2010-10-17T08:48:13Z</time>
      </trkpt>
      <trkpt lat="45.158" lon="5.23437">
        <ele>335.5</ele>
        <time>2010-10-17T08:48:14Z</time>
      </trkpt>
      <trkpt lat="45.15802" lon="5.23436">
        <ele>335.3</ele>
        <time>2010-10-17T08:48:15Z</time>
      </trkpt>
      <trkpt lat="45.15804" lon="5.23435">
        <ele>335</ele>
        <time>2010-10-17T08:48:16Z</time>
      </trkpt>
      <trkpt lat="45.15806" lon="5.23434">
        <ele>335.3</ele>
        <time>2010-10-17T08:48:17Z</time>
      </trkpt>
      <trkpt lat="45.15808" lon="5.23433">
        <ele>335.4</ele>
        <time>2010-10-17T08:48:18Z</time>
      </trkpt>
      <trkpt lat="45.1581" lon="5.23432">
        <ele>335.4</ele>
        <time>2010-10-17T08:48:19Z</time>
      </trkpt>
      <trkpt lat="45.15812" lon="5.23432">
        <ele>335.3</ele>
        <time>2010-10-17T08:48:20Z</time>
      </trkpt>
      <trkpt lat="45.15814" lon="5.23431">
        <ele>335.3</ele>
        <time>2010-10-17T08:48:20Z</time>
      </trkpt>
      <trkpt lat="45.15816" lon="5.23431">
        <ele>335.7</ele>
        <time>2010-10-17T08:48:22Z</time>
      </trkpt>
      <trkpt lat="45.15818" lon="5.23431">
        <ele>336.1</ele>
        <time>2010-10-17T08:48:23Z</time>
      </trkpt>
      <trkpt lat="45.15819" lon="5.2343">
        <ele>336.3</ele>
        <time>2010-10-17T08:48:24Z</time>
      </trkpt>
      <trkpt lat="45.15821" lon="5.2343">
        <ele>336.7</ele>
        <time>2010-10-17T08:48:25Z</time>
      </trkpt>
      <trkpt lat="45.15823" lon="5.23429">
        <ele>336.8</ele>
        <time>2010-10-17T08:48:26Z</time>
      </trkpt>
      <trkpt lat="45.15825" lon="5.23429">
        <ele>337.2</ele>
        <time>2010-10-17T08:48:27Z</time>
      </trkpt>
      <trkpt lat="45.15827" lon="5.23427">
        <ele>337.3</ele>
        <time>2010-10-17T08:48:29Z</time>
      </trkpt>
      <trkpt lat="45.15829" lon="5.23428">
        <ele>337.6</ele>
        <time>2010-10-17T08:48:30Z</time>
      </trkpt>
      <trkpt lat="45.15831" lon="5.23427">
        <ele>337</ele>
        <time>2010-10-17T08:48:31Z</time>
      </trkpt>
      <trkpt lat="45.15833" lon="5.23427">
        <ele>337</ele>
        <time>2010-10-17T08:48:32Z</time>
      </trkpt>
      <trkpt lat="45.15834" lon="5.23426">
        <ele>337.1</ele>
        <time>2010-10-17T08:48:33Z</time>
      </trkpt>
      <trkpt lat="45.15835" lon="5.23425">
        <ele>337.2</ele>
        <time>2010-10-17T08:48:34Z</time>
      </trkpt>
      <trkpt lat="45.15837" lon="5.23425">
        <ele>338</ele>
        <time>2010-10-17T08:48:36Z</time>
      </trkpt>
      <trkpt lat="45.15839" lon="5.23424">
        <ele>338.2</ele>
        <time>2010-10-17T08:48:37Z</time>
      </trkpt>
      <trkpt lat="45.1584" lon="5.23424">
        <ele>338.4</ele>
        <time>2010-10-17T08:48:38Z</time>
      </trkpt>
      <trkpt lat="45.15842" lon="5.23423">
        <ele>338.4</ele>
        <time>2010-10-17T08:48:39Z</time>
      </trkpt>
      <trkpt lat="45.15845" lon="5.23423">
        <ele>338.8</ele>
        <time>2010-10-17T08:48:40Z</time>
      </trkpt>
      <trkpt lat="45.15847" lon="5.23422">
        <ele>339.8</ele>
        <time>2010-10-17T08:48:40Z</time>
      </trkpt>
      <trkpt lat="45.15849" lon="5.23423">
        <ele>339.6</ele>
        <time>2010-10-17T08:48:42Z</time>
      </trkpt>
      <trkpt lat="45.1585" lon="5.23423">
        <ele>339.7</ele>
        <time>2010-10-17T08:48:43Z</time>
      </trkpt>
      <trkpt lat="45.15853" lon="5.23423">
        <ele>339.6</ele>
        <time>2010-10-17T08:48:44Z</time>
      </trkpt>
      <trkpt lat="45.15855" lon="5.23423">
        <ele>339.8</ele>
        <time>2010-10-17T08:48:45Z</time>
      </trkpt>
      <trkpt lat="45.15857" lon="5.23423">
        <ele>339.8</ele>
        <time>2010-10-17T08:48:46Z</time>
      </trkpt>
      <trkpt lat="45.15859" lon="5.23422">
        <ele>339.8</ele>
        <time>2010-10-17T08:48:47Z</time>
      </trkpt>
      <trkpt lat="45.1586" lon="5.23423">
        <ele>340</ele>
        <time>2010-10-17T08:48:48Z</time>
      </trkpt>
      <trkpt lat="45.15861" lon="5.23423">
        <ele>340</ele>
        <time>2010-10-17T08:48:49Z</time>
      </trkpt>
      <trkpt lat="45.15863" lon="5.23424">
        <ele>340.6</ele>
        <time>2010-10-17T08:48:50Z</time>
      </trkpt>
      <trkpt lat="45.15866" lon="5.23423">
        <ele>340.5</ele>
        <time>2010-10-17T08:48:51Z</time>
      </trkpt>
      <trkpt lat="45.15867" lon="5.23423">
        <ele>340.6</ele>
        <time>2010-10-17T08:48:52Z</time>
      </trkpt>
      <trkpt lat="45.15869" lon="5.23422">
        <ele>340.6</ele>
        <time>2010-10-17T08:48:53Z</time>
      </trkpt>
      <trkpt lat="45.1587" lon="5.23422">
        <ele>340.6</ele>
        <time>2010-10-17T08:48:54Z</time>
      </trkpt>
      <trkpt lat="45.15872" lon="5.23421">
        <ele>340.5</ele>
        <time>2010-10-17T08:48:55Z</time>
      </trkpt>
      <trkpt lat="45.15875" lon="5.23421">
        <ele>341.1</ele>
        <time>2010-10-17T08:48:56Z</time>
      </trkpt>
      <trkpt lat="45.15877" lon="5.23422">
        <ele>341.1</ele>
        <time>2010-10-17T08:48:57Z</time>
      </trkpt>
      <trkpt lat="45.15878" lon="5.23422">
        <ele>341.9</ele>
        <time>2010-10-17T08:48:58Z</time>
      </trkpt>
      <trkpt lat="45.15879" lon="5.23422">
        <ele>341.7</ele>
        <time>2010-10-17T08:48:59Z</time>
      </trkpt>
      <trkpt lat="45.15881" lon="5.23422">
        <ele>341.8</ele>
        <time>2010-10-17T08:49:00Z</time>
      </trkpt>
      <trkpt lat="45.15883" lon="5.23421">
        <ele>342.2</ele>
        <time>2010-10-17T08:49:00Z</time>
      </trkpt>
      <trkpt lat="45.15886" lon="5.23421">
        <ele>341.6</ele>
        <time>2010-10-17T08:49:02Z</time>
      </trkpt>
      <trkpt lat="45.15888" lon="5.23422">
        <ele>341.1</ele>
        <time>2010-10-17T08:49:03Z</time>
      </trkpt>
      <trkpt lat="45.1589" lon="5.23421">
        <ele>341.1</ele>
        <time>2010-10-17T08:49:04Z</time>
      </trkpt>
      <trkpt lat="45.15892" lon="5.23421">
        <ele>341.3</ele>
        <time>2010-10-17T08:49:05Z</time>
      </trkpt>
      <trkpt lat="45.15894" lon="5.23422">
        <ele>341.4</ele>
        <time>2010-10-17T08:49:06Z</time>
      </trkpt>
      <trkpt lat="45.15896" lon="5.23422">
        <ele>341.9</ele>
        <time>2010-10-17T08:49:07Z</time>
      </trkpt>
      <trkpt lat="45.15898" lon="5.23421">
        <ele>341.8</ele>
        <time>2010-10-17T08:49:08Z</time>
      </trkpt>
      <trkpt lat="45.15901" lon="5.23421">
        <ele>341.8</ele>
        <time>2010-10-17T08:49:09Z</time>
      </trkpt>
      <trkpt lat="45.15903" lon="5.23422">
        <ele>342</ele>
        <time>2010-10-17T08:49:10Z</time>
      </trkpt>
      <trkpt lat="45.15905" lon="5.23422">
        <ele>342.1</ele>
        <time>2010-10-17T08:49:11Z</time>
      </trkpt>
      <trkpt lat="45.15908" lon="5.23421">
        <ele>342</ele>
        <time>2010-10-17T08:49:13Z</time>
      </trkpt>
      <trkpt lat="45.1591" lon="5.23422">
        <ele>341.9</ele>
        <time>2010-10-17T08:49:14Z</time>
      </trkpt>
      <trkpt lat="45.15912" lon="5.23422">
        <ele>341.6</ele>
        <time>2010-10-17T08:49:15Z</time>
      </trkpt>
      <trkpt lat="45.15913" lon="5.23422">
        <ele>341.4</ele>
        <time>2010-10-17T08:49:16Z</time>
      </trkpt>
      <trkpt lat="45.15916" lon="5.23422">
        <ele>341.3</ele>
        <time>2010-10-17T08:49:17Z</time>
      </trkpt>
      <trkpt lat="45.15919" lon="5.23421">
        <ele>340.6</ele>
        <time>2010-10-17T08:49:18Z</time>
      </trkpt>
      <trkpt lat="45.15921" lon="5.23421">
        <ele>340.6</ele>
        <time>2010-10-17T08:49:19Z</time>
      </trkpt>
      <trkpt lat="45.15924" lon="5.23421">
        <ele>341</ele>
        <time>2010-10-17T08:49:19Z</time>
      </trkpt>
      <trkpt lat="45.15926" lon="5.2342">
        <ele>341.3</ele>
        <time>2010-10-17T08:49:20Z</time>
      </trkpt>
      <trkpt lat="45.15928" lon="5.2342">
        <ele>341.4</ele>
        <time>2010-10-17T08:49:22Z</time>
      </trkpt>
      <trkpt lat="45.1593" lon="5.2342">
        <ele>341</ele>
        <time>2010-10-17T08:49:23Z</time>
      </trkpt>
      <trkpt lat="45.15932" lon="5.23419">
        <ele>340.9</ele>
        <time>2010-10-17T08:49:24Z</time>
      </trkpt>
      <trkpt lat="45.15934" lon="5.23418">
        <ele>341.4</ele>
        <time>2010-10-17T08:49:25Z</time>
      </trkpt>
      <trkpt lat="45.15936" lon="5.23417">
        <ele>341</ele>
        <time>2010-10-17T08:49:26Z</time>
      </trkpt>
      <trkpt lat="45.15938" lon="5.23417">
        <ele>340.6</ele>
        <time>2010-10-17T08:49:27Z</time>
      </trkpt>
      <trkpt lat="45.1594" lon="5.23417">
        <ele>340.9</ele>
        <time>2010-10-17T08:49:28Z</time>
      </trkpt>
      <trkpt lat="45.15942" lon="5.23416">
        <ele>341.5</ele>
        <time>2010-10-17T08:49:29Z</time>
      </trkpt>
      <trkpt lat="45.15944" lon="5.23416">
        <ele>341.7</ele>
        <time>2010-10-17T08:49:30Z</time>
      </trkpt>
      <trkpt lat="45.15945" lon="5.23415">
        <ele>341.6</ele>
        <time>2010-10-17T08:49:31Z</time>
      </trkpt>
      <trkpt lat="45.15947" lon="5.23414">
        <ele>341.2</ele>
        <time>2010-10-17T08:49:32Z</time>
      </trkpt>
      <trkpt lat="45.15949" lon="5.23414">
        <ele>340.8</ele>
        <time>2010-10-17T08:49:33Z</time>
      </trkpt>
      <trkpt lat="45.15951" lon="5.23413">
        <ele>340.2</ele>
        <time>2010-10-17T08:49:34Z</time>
      </trkpt>
      <trkpt lat="45.15953" lon="5.23413">
        <ele>339.8</ele>
        <time>2010-10-17T08:49:35Z</time>
      </trkpt>
      <trkpt lat="45.15956" lon="5.23411">
        <ele>339.3</ele>
        <time>2010-10-17T08:49:36Z</time>
      </trkpt>
      <trkpt lat="45.15957" lon="5.23409">
        <ele>339</ele>
        <time>2010-10-17T08:49:37Z</time>
      </trkpt>
      <trkpt lat="45.15959" lon="5.23409">
        <ele>339.3</ele>
        <time>2010-10-17T08:49:38Z</time>
      </trkpt>
      <trkpt lat="45.15961" lon="5.23408">
        <ele>339</ele>
        <time>2010-10-17T08:49:39Z</time>
      </trkpt>
      <trkpt lat="45.15964" lon="5.23407">
        <ele>339.5</ele>
        <time>2010-10-17T08:49:39Z</time>
      </trkpt>
      <trkpt lat="45.15965" lon="5.23406">
        <ele>339.5</ele>
        <time>2010-10-17T08:49:40Z</time>
      </trkpt>
      <trkpt lat="45.15968" lon="5.23405">
        <ele>339.4</ele>
        <time>2010-10-17T08:49:42Z</time>
      </trkpt>
      <trkpt lat="45.15969" lon="5.23404">
        <ele>339.5</ele>
        <time>2010-10-17T08:49:43Z</time>
      </trkpt>
      <trkpt lat="45.15971" lon="5.23402">
        <ele>339.6</ele>
        <time>2010-10-17T08:49:44Z</time>
      </trkpt>
      <trkpt lat="45.15974" lon="5.23401">
        <ele>340</ele>
        <time>2010-10-17T08:49:45Z</time>
      </trkpt>
      <trkpt lat="45.15977" lon="5.234">
        <ele>339.9</ele>
        <time>2010-10-17T08:49:46Z</time>
      </trkpt>
      <trkpt lat="45.15979" lon="5.23398">
        <ele>340</ele>
        <time>2010-10-17T08:49:47Z</time>
      </trkpt>
      <trkpt lat="45.1598" lon="5.23398">
        <ele>340.2</ele>
        <time>2010-10-17T08:49:48Z</time>
      </trkpt>
      <trkpt lat="45.15982" lon="5.23396">
        <ele>340.3</ele>
        <time>2010-10-17T08:49:49Z</time>
      </trkpt>
      <trkpt lat="45.15984" lon="5.23394">
        <ele>340.4</ele>
        <time>2010-10-17T08:49:50Z</time>
      </trkpt>
      <trkpt lat="45.15985" lon="5.23393">
        <ele>340</ele>
        <time>2010-10-17T08:49:51Z</time>
      </trkpt>
      <trkpt lat="45.15987" lon="5.23392">
        <ele>340</ele>
        <time>2010-10-17T08:49:52Z</time>
      </trkpt>
      <trkpt lat="45.15989" lon="5.23392">
        <ele>340</ele>
        <time>2010-10-17T08:49:53Z</time>
      </trkpt>
      <trkpt lat="45.1599" lon="5.2339">
        <ele>339.5</ele>
        <time>2010-10-17T08:49:54Z</time>
      </trkpt>
      <trkpt lat="45.15991" lon="5.23389">
        <ele>339.7</ele>
        <time>2010-10-17T08:49:55Z</time>
      </trkpt>
      <trkpt lat="45.15994" lon="5.23389">
        <ele>340</ele>
        <time>2010-10-17T08:49:56Z</time>
      </trkpt>
      <trkpt lat="45.15995" lon="5.23388">
        <ele>340</ele>
        <time>2010-10-17T08:49:57Z</time>
      </trkpt>
      <trkpt lat="45.15996" lon="5.23387">
        <ele>340.5</ele>
        <time>2010-10-17T08:49:58Z</time>
      </trkpt>
      <trkpt lat="45.15998" lon="5.23387">
        <ele>340.6</ele>
        <time>2010-10-17T08:49:59Z</time>
      </trkpt>
      <trkpt lat="45.16" lon="5.23386">
        <ele>341.2</ele>
        <time>2010-10-17T08:49:59Z</time>
      </trkpt>
      <trkpt lat="45.16002" lon="5.23386">
        <ele>342</ele>
        <time>2010-10-17T08:50:00Z</time>
      </trkpt>
      <trkpt lat="45.16004" lon="5.23385">
        <ele>342.4</ele>
        <time>2010-10-17T08:50:02Z</time>
      </trkpt>
      <trkpt lat="45.16005" lon="5.23385">
        <ele>342.7</ele>
        <time>2010-10-17T08:50:03Z</time>
      </trkpt>
      <trkpt lat="45.16007" lon="5.23384">
        <ele>342.9</ele>
        <time>2010-10-17T08:50:04Z</time>
      </trkpt>
      <trkpt lat="45.16009" lon="5.23384">
        <ele>343.3</ele>
        <time>2010-10-17T08:50:05Z</time>
      </trkpt>
      <trkpt lat="45.16011" lon="5.23382">
        <ele>343.4</ele>
        <time>2010-10-17T08:50:06Z</time>
      </trkpt>
      <trkpt lat="45.16013" lon="5.23382">
        <ele>343.7</ele>
        <time>2010-10-17T08:50:07Z</time>
      </trkpt>
      <trkpt lat="45.16014" lon="5.2338">
        <ele>343.6</ele>
        <time>2010-10-17T08:50:08Z</time>
      </trkpt>
      <trkpt lat="45.16016" lon="5.23379">
        <ele>343.6</ele>
        <time>2010-10-17T08:50:09Z</time>
      </trkpt>
      <trkpt lat="45.16018" lon="5.23379">
        <ele>343.5</ele>
        <time>2010-10-17T08:50:10Z</time>
      </trkpt>
      <trkpt lat="45.1602" lon="5.23378">
        <ele>343.6</ele>
        <time>2010-10-17T08:50:11Z</time>
      </trkpt>
      <trkpt lat="45.16022" lon="5.23378">
        <ele>343.8</ele>
        <time>2010-10-17T08:50:12Z</time>
      </trkpt>
      <trkpt lat="45.16023" lon="5.23378">
        <ele>344.1</ele>
        <time>2010-10-17T08:50:13Z</time>
      </trkpt>
      <trkpt lat="45.16025" lon="5.23377">
        <ele>344.4</ele>
        <time>2010-10-17T08:50:15Z</time>
      </trkpt>
      <trkpt lat="45.16026" lon="5.23378">
        <ele>344.4</ele>
        <time>2010-10-17T08:50:16Z</time>
      </trkpt>
      <trkpt lat="45.16028" lon="5.23377">
        <ele>344.5</ele>
        <time>2010-10-17T08:50:17Z</time>
      </trkpt>
      <trkpt lat="45.16029" lon="5.23377">
        <ele>344.3</ele>
        <time>2010-10-17T08:50:18Z</time>
      </trkpt>
      <trkpt lat="45.16031" lon="5.23377">
        <ele>344.7</ele>
        <time>2010-10-17T08:50:19Z</time>
      </trkpt>
      <trkpt lat="45.16032" lon="5.23377">
        <ele>344.9</ele>
        <time>2010-10-17T08:50:19Z</time>
      </trkpt>
      <trkpt lat="45.16034" lon="5.23377">
        <ele>345</ele>
        <time>2010-10-17T08:50:21Z</time>
      </trkpt>
      <trkpt lat="45.16035" lon="5.23377">
        <ele>345.1</ele>
        <time>2010-10-17T08:50:22Z</time>
      </trkpt>
      <trkpt lat="45.16037" lon="5.23376">
        <ele>345.1</ele>
        <time>2010-10-17T08:50:23Z</time>
      </trkpt>
      <trkpt lat="45.16038" lon="5.23376">
        <ele>345.1</ele>
        <time>2010-10-17T08:50:24Z</time>
      </trkpt>
      <trkpt lat="45.16039" lon="5.23375">
        <ele>344.9</ele>
        <time>2010-10-17T08:50:25Z</time>
      </trkpt>
      <trkpt lat="45.16041" lon="5.23374">
        <ele>345.4</ele>
        <time>2010-10-17T08:50:27Z</time>
      </trkpt>
      <trkpt lat="45.16042" lon="5.23373">
        <ele>345.6</ele>
        <time>2010-10-17T08:50:28Z</time>
      </trkpt>
      <trkpt lat="45.16044" lon="5.23373">
        <ele>345.6</ele>
        <time>2010-10-17T08:50:29Z</time>
      </trkpt>
      <trkpt lat="45.16046" lon="5.23372">
        <ele>345.1</ele>
        <time>2010-10-17T08:50:30Z</time>
      </trkpt>
      <trkpt lat="45.16047" lon="5.23372">
        <ele>345.7</ele>
        <time>2010-10-17T08:50:31Z</time>
      </trkpt>
      <trkpt lat="45.16049" lon="5.23371">
        <ele>345.7</ele>
        <time>2010-10-17T08:50:32Z</time>
      </trkpt>
      <trkpt lat="45.16051" lon="5.2337">
        <ele>345</ele>
        <time>2010-10-17T08:50:34Z</time>
      </trkpt>
      <trkpt lat="45.16051" lon="5.23371">
        <ele>345.2</ele>
        <time>2010-10-17T08:50:35Z</time>
      </trkpt>
      <trkpt lat="45.16053" lon="5.23371">
        <ele>345.5</ele>
        <time>2010-10-17T08:50:36Z</time>
      </trkpt>
      <trkpt lat="45.16054" lon="5.2337">
        <ele>345.7</ele>
        <time>2010-10-17T08:50:37Z</time>
      </trkpt>
      <trkpt lat="45.16055" lon="5.23371">
        <ele>345.7</ele>
        <time>2010-10-17T08:50:38Z</time>
      </trkpt>
      <trkpt lat="45.16056" lon="5.2337">
        <ele>345.9</ele>
        <time>2010-10-17T08:50:39Z</time>
      </trkpt>
      <trkpt lat="45.16059" lon="5.23371">
        <ele>346.4</ele>
        <time>2010-10-17T08:50:39Z</time>
      </trkpt>
      <trkpt lat="45.1606" lon="5.23371">
        <ele>346.6</ele>
        <time>2010-10-17T08:50:41Z</time>
      </trkpt>
      <trkpt lat="45.16063" lon="5.23371">
        <ele>347</ele>
        <time>2010-10-17T08:50:42Z</time>
      </trkpt>
      <trkpt lat="45.16065" lon="5.23373">
        <ele>347.4</ele>
        <time>2010-10-17T08:50:43Z</time>
      </trkpt>
      <trkpt lat="45.16067" lon="5.23374">
        <ele>347</ele>
        <time>2010-10-17T08:50:44Z</time>
      </trkpt>
      <trkpt lat="45.16069" lon="5.23374">
        <ele>346.9</ele>
        <time>2010-10-17T08:50:46Z</time>
      </trkpt>
      <trkpt lat="45.16072" lon="5.23375">
        <ele>347.2</ele>
        <time>2010-10-17T08:50:48Z</time>
      </trkpt>
      <trkpt lat="45.16073" lon="5.23377">
        <ele>347.4</ele>
        <time>2010-10-17T08:50:49Z</time>
      </trkpt>
      <trkpt lat="45.16075" lon="5.23378">
        <ele>347.9</ele>
        <time>2010-10-17T08:50:50Z</time>
      </trkpt>
      <trkpt lat="45.16076" lon="5.23379">
        <ele>348.2</ele>
        <time>2010-10-17T08:50:51Z</time>
      </trkpt>
      <trkpt lat="45.16077" lon="5.2338">
        <ele>348.4</ele>
        <time>2010-10-17T08:50:52Z</time>
      </trkpt>
      <trkpt lat="45.16078" lon="5.23382">
        <ele>349.1</ele>
        <time>2010-10-17T08:50:53Z</time>
      </trkpt>
      <trkpt lat="45.16079" lon="5.23383">
        <ele>348.9</ele>
        <time>2010-10-17T08:50:54Z</time>
      </trkpt>
      <trkpt lat="45.16081" lon="5.23384">
        <ele>348.8</ele>
        <time>2010-10-17T08:50:55Z</time>
      </trkpt>
      <trkpt lat="45.16081" lon="5.23386">
        <ele>348.4</ele>
        <time>2010-10-17T08:50:56Z</time>
      </trkpt>
      <trkpt lat="45.16082" lon="5.23388">
        <ele>348.2</ele>
        <time>2010-10-17T08:50:57Z</time>
      </trkpt>
      <trkpt lat="45.16082" lon="5.23389">
        <ele>348.7</ele>
        <time>2010-10-17T08:50:58Z</time>
      </trkpt>
      <trkpt lat="45.16084" lon="5.2339">
        <ele>348.8</ele>
        <time>2010-10-17T08:50:59Z</time>
      </trkpt>
      <trkpt lat="45.16085" lon="5.23392">
        <ele>349.3</ele>
        <time>2010-10-17T08:50:59Z</time>
      </trkpt>
      <trkpt lat="45.16087" lon="5.23394">
        <ele>349.7</ele>
        <time>2010-10-17T08:51:01Z</time>
      </trkpt>
      <trkpt lat="45.16089" lon="5.23395">
        <ele>350.2</ele>
        <time>2010-10-17T08:51:02Z</time>
      </trkpt>
      <trkpt lat="45.16091" lon="5.23398">
        <ele>350.4</ele>
        <time>2010-10-17T08:51:04Z</time>
      </trkpt>
      <trkpt lat="45.16093" lon="5.23399">
        <ele>350.4</ele>
        <time>2010-10-17T08:51:05Z</time>
      </trkpt>
      <trkpt lat="45.16094" lon="5.23399">
        <ele>351</ele>
        <time>2010-10-17T08:51:07Z</time>
      </trkpt>
      <trkpt lat="45.16096" lon="5.234">
        <ele>351.1</ele>
        <time>2010-10-17T08:51:08Z</time>
      </trkpt>
      <trkpt lat="45.16097" lon="5.234">
        <ele>351.2</ele>
        <time>2010-10-17T08:51:10Z</time>
      </trkpt>
      <trkpt lat="45.16098" lon="5.23399">
        <ele>351.1</ele>
        <time>2010-10-17T08:51:11Z</time>
      </trkpt>
      <trkpt lat="45.161" lon="5.234">
        <ele>350.8</ele>
        <time>2010-10-17T08:51:12Z</time>
      </trkpt>
      <trkpt lat="45.16101" lon="5.234">
        <ele>351.3</ele>
        <time>2010-10-17T08:51:13Z</time>
      </trkpt>
      <trkpt lat="45.16104" lon="5.234">
        <ele>351.4</ele>
        <time>2010-10-17T08:51:14Z</time>
      </trkpt>
      <trkpt lat="45.16107" lon="5.234">
        <ele>351.5</ele>
        <time>2010-10-17T08:51:16Z</time>
      </trkpt>
      <trkpt lat="45.16109" lon="5.23399">
        <ele>351.8</ele>
        <time>2010-10-17T08:51:18Z</time>
      </trkpt>
      <trkpt lat="45.16111" lon="5.23399">
        <ele>352.6</ele>
        <time>2010-10-17T08:51:19Z</time>
      </trkpt>
      <trkpt lat="45.16112" lon="5.23398">
        <ele>353</ele>
        <time>2010-10-17T08:51:19Z</time>
      </trkpt>
      <trkpt lat="45.16114" lon="5.23398">
        <ele>352.9</ele>
        <time>2010-10-17T08:51:21Z</time>
      </trkpt>
      <trkpt lat="45.16115" lon="5.23399">
        <ele>352.2</ele>
        <time>2010-10-17T08:51:22Z</time>
      </trkpt>
      <trkpt lat="45.16116" lon="5.23399">
        <ele>352.6</ele>
        <time>2010-10-17T08:51:23Z</time>
      </trkpt>
      <trkpt lat="45.16118" lon="5.23399">
        <ele>352.7</ele>
        <time>2010-10-17T08:51:24Z</time>
      </trkpt>
      <trkpt lat="45.1612" lon="5.23399">
        <ele>353.1</ele>
        <time>2010-10-17T08:51:25Z</time>
      </trkpt>
      <trkpt lat="45.16121" lon="5.23399">
        <ele>353.3</ele>
        <time>2010-10-17T08:51:26Z</time>
      </trkpt>
      <trkpt lat="45.16124" lon="5.23399">
        <ele>353.4</ele>
        <time>2010-10-17T08:51:27Z</time>
      </trkpt>
      <trkpt lat="45.16125" lon="5.234">
        <ele>353.8</ele>
        <time>2010-10-17T08:51:28Z</time>
      </trkpt>
      <trkpt lat="45.16127" lon="5.234">
        <ele>353.9</ele>
        <time>2010-10-17T08:51:29Z</time>
      </trkpt>
      <trkpt lat="45.16129" lon="5.234">
        <ele>353.8</ele>
        <time>2010-10-17T08:51:30Z</time>
      </trkpt>
      <trkpt lat="45.1613" lon="5.23401">
        <ele>354.3</ele>
        <time>2010-10-17T08:51:31Z</time>
      </trkpt>
      <trkpt lat="45.16132" lon="5.234">
        <ele>354.4</ele>
        <time>2010-10-17T08:51:32Z</time>
      </trkpt>
      <trkpt lat="45.16134" lon="5.234">
        <ele>354.3</ele>
        <time>2010-10-17T08:51:33Z</time>
      </trkpt>
      <trkpt lat="45.16136" lon="5.23401">
        <ele>354.5</ele>
        <time>2010-10-17T08:51:34Z</time>
      </trkpt>
      <trkpt lat="45.16138" lon="5.23401">
        <ele>354.3</ele>
        <time>2010-10-17T08:51:35Z</time>
      </trkpt>
      <trkpt lat="45.1614" lon="5.23401">
        <ele>354.7</ele>
        <time>2010-10-17T08:51:36Z</time>
      </trkpt>
      <trkpt lat="45.16142" lon="5.23402">
        <ele>354.3</ele>
        <time>2010-10-17T08:51:37Z</time>
      </trkpt>
      <trkpt lat="45.16143" lon="5.23402">
        <ele>354.5</ele>
        <time>2010-10-17T08:51:38Z</time>
      </trkpt>
      <trkpt lat="45.16146" lon="5.23401">
        <ele>354</ele>
        <time>2010-10-17T08:51:39Z</time>
      </trkpt>
      <trkpt lat="45.16147" lon="5.23402">
        <ele>354.1</ele>
        <time>2010-10-17T08:51:41Z</time>
      </trkpt>
      <trkpt lat="45.16149" lon="5.23402">
        <ele>354.6</ele>
        <time>2010-10-17T08:51:42Z</time>
      </trkpt>
      <trkpt lat="45.1615" lon="5.23402">
        <ele>354.1</ele>
        <time>2010-10-17T08:51:43Z</time>
      </trkpt>
      <trkpt lat="45.16152" lon="5.23403">
        <ele>354.5</ele>
        <time>2010-10-17T08:51:44Z</time>
      </trkpt>
      <trkpt lat="45.16153" lon="5.23403">
        <ele>354.7</ele>
        <time>2010-10-17T08:51:45Z</time>
      </trkpt>
      <trkpt lat="45.16155" lon="5.23404">
        <ele>355.9</ele>
        <time>2010-10-17T08:51:46Z</time>
      </trkpt>
      <trkpt lat="45.16156" lon="5.23404">
        <ele>356</ele>
        <time>2010-10-17T08:51:47Z</time>
      </trkpt>
      <trkpt lat="45.16158" lon="5.23404">
        <ele>355.7</ele>
        <time>2010-10-17T08:51:48Z</time>
      </trkpt>
      <trkpt lat="45.1616" lon="5.23404">
        <ele>355.2</ele>
        <time>2010-10-17T08:51:49Z</time>
      </trkpt>
      <trkpt lat="45.16162" lon="5.23405">
        <ele>355.6</ele>
        <time>2010-10-17T08:51:50Z</time>
      </trkpt>
      <trkpt lat="45.16164" lon="5.23406">
        <ele>355.7</ele>
        <time>2010-10-17T08:51:51Z</time>
      </trkpt>
      <trkpt lat="45.16165" lon="5.23407">
        <ele>355.8</ele>
        <time>2010-10-17T08:51:52Z</time>
      </trkpt>
      <trkpt lat="45.16168" lon="5.23407">
        <ele>355.6</ele>
        <time>2010-10-17T08:51:53Z</time>
      </trkpt>
      <trkpt lat="45.16169" lon="5.23408">
        <ele>355.4</ele>
        <time>2010-10-17T08:51:54Z</time>
      </trkpt>
      <trkpt lat="45.16171" lon="5.23408">
        <ele>355.5</ele>
        <time>2010-10-17T08:51:55Z</time>
      </trkpt>
      <trkpt lat="45.16172" lon="5.23409">
        <ele>355.9</ele>
        <time>2010-10-17T08:51:56Z</time>
      </trkpt>
      <trkpt lat="45.16174" lon="5.23408">
        <ele>355.6</ele>
        <time>2010-10-17T08:51:57Z</time>
      </trkpt>
      <trkpt lat="45.16175" lon="5.23409">
        <ele>355.8</ele>
        <time>2010-10-17T08:51:58Z</time>
      </trkpt>
      <trkpt lat="45.16177" lon="5.2341">
        <ele>355.6</ele>
        <time>2010-10-17T08:51:58Z</time>
      </trkpt>
      <trkpt lat="45.1618" lon="5.2341">
        <ele>356.2</ele>
        <time>2010-10-17T08:51:59Z</time>
      </trkpt>
      <trkpt lat="45.16182" lon="5.2341">
        <ele>356.5</ele>
        <time>2010-10-17T08:52:01Z</time>
      </trkpt>
      <trkpt lat="45.16184" lon="5.2341">
        <ele>356.8</ele>
        <time>2010-10-17T08:52:02Z</time>
      </trkpt>
      <trkpt lat="45.16186" lon="5.23412">
        <ele>356.7</ele>
        <time>2010-10-17T08:52:03Z</time>
      </trkpt>
      <trkpt lat="45.16188" lon="5.23412">
        <ele>357.1</ele>
        <time>2010-10-17T08:52:04Z</time>
      </trkpt>
      <trkpt lat="45.1619" lon="5.23413">
        <ele>357.4</ele>
        <time>2010-10-17T08:52:05Z</time>
      </trkpt>
      <trkpt lat="45.16191" lon="5.23414">
        <ele>357.2</ele>
        <time>2010-10-17T08:52:06Z</time>
      </trkpt>
      <trkpt lat="45.16194" lon="5.23414">
        <ele>357.2</ele>
        <time>2010-10-17T08:52:07Z</time>
      </trkpt>
      <trkpt lat="45.16195" lon="5.23415">
        <ele>357.3</ele>
        <time>2010-10-17T08:52:08Z</time>
      </trkpt>
      <trkpt lat="45.16197" lon="5.23416">
        <ele>357.4</ele>
        <time>2010-10-17T08:52:09Z</time>
      </trkpt>
      <trkpt lat="45.16199" lon="5.23417">
        <ele>357.7</ele>
        <time>2010-10-17T08:52:11Z</time>
      </trkpt>
      <trkpt lat="45.16201" lon="5.23418">
        <ele>358</ele>
        <time>2010-10-17T08:52:12Z</time>
      </trkpt>
      <trkpt lat="45.16203" lon="5.23419">
        <ele>358.2</ele>
        <time>2010-10-17T08:52:13Z</time>
      </trkpt>
      <trkpt lat="45.16205" lon="5.2342">
        <ele>358.2</ele>
        <time>2010-10-17T08:52:14Z</time>
      </trkpt>
      <trkpt lat="45.16206" lon="5.23421">
        <ele>358.4</ele>
        <time>2010-10-17T08:52:15Z</time>
      </trkpt>
      <trkpt lat="45.16209" lon="5.23422">
        <ele>358.9</ele>
        <time>2010-10-17T08:52:16Z</time>
      </trkpt>
      <trkpt lat="45.1621" lon="5.23423">
        <ele>359.8</ele>
        <time>2010-10-17T08:52:17Z</time>
      </trkpt>
      <trkpt lat="45.16212" lon="5.23423">
        <ele>360.1</ele>
        <time>2010-10-17T08:52:18Z</time>
      </trkpt>
      <trkpt lat="45.16214" lon="5.23423">
        <ele>359.5</ele>
        <time>2010-10-17T08:52:18Z</time>
      </trkpt>
      <trkpt lat="45.16216" lon="5.23424">
        <ele>359.8</ele>
        <time>2010-10-17T08:52:19Z</time>
      </trkpt>
      <trkpt lat="45.16217" lon="5.23425">
        <ele>359.7</ele>
        <time>2010-10-17T08:52:21Z</time>
      </trkpt>
      <trkpt lat="45.16219" lon="5.23426">
        <ele>359.9</ele>
        <time>2010-10-17T08:52:22Z</time>
      </trkpt>
      <trkpt lat="45.16222" lon="5.23427">
        <ele>360.7</ele>
        <time>2010-10-17T08:52:23Z</time>
      </trkpt>
      <trkpt lat="45.16224" lon="5.23427">
        <ele>360.7</ele>
        <time>2010-10-17T08:52:24Z</time>
      </trkpt>
      <trkpt lat="45.16226" lon="5.23428">
        <ele>360.7</ele>
        <time>2010-10-17T08:52:25Z</time>
      </trkpt>
      <trkpt lat="45.16228" lon="5.23428">
        <ele>360.4</ele>
        <time>2010-10-17T08:52:26Z</time>
      </trkpt>
      <trkpt lat="45.1623" lon="5.23429">
        <ele>360.4</ele>
        <time>2010-10-17T08:52:27Z</time>
      </trkpt>
      <trkpt lat="45.16233" lon="5.23429">
        <ele>360.1</ele>
        <time>2010-10-17T08:52:28Z</time>
      </trkpt>
      <trkpt lat="45.16235" lon="5.23429">
        <ele>359.7</ele>
        <time>2010-10-17T08:52:29Z</time>
      </trkpt>
      <trkpt lat="45.16238" lon="5.23428">
        <ele>358.8</ele>
        <time>2010-10-17T08:52:30Z</time>
      </trkpt>
      <trkpt lat="45.1624" lon="5.23427">
        <ele>358.5</ele>
        <time>2010-10-17T08:52:31Z</time>
      </trkpt>
      <trkpt lat="45.16243" lon="5.23427">
        <ele>359</ele>
        <time>2010-10-17T08:52:32Z</time>
      </trkpt>
      <trkpt lat="45.16245" lon="5.23426">
        <ele>358.7</ele>
        <time>2010-10-17T08:52:33Z</time>
      </trkpt>
      <trkpt lat="45.16248" lon="5.23426">
        <ele>358.8</ele>
        <time>2010-10-17T08:52:34Z</time>
      </trkpt>
      <trkpt lat="45.1625" lon="5.23426">
        <ele>358.5</ele>
        <time>2010-10-17T08:52:35Z</time>
      </trkpt>
      <trkpt lat="45.16252" lon="5.23426">
        <ele>358.8</ele>
        <time>2010-10-17T08:52:36Z</time>
      </trkpt>
      <trkpt lat="45.16254" lon="5.23425">
        <ele>358.6</ele>
        <time>2010-10-17T08:52:37Z</time>
      </trkpt>
      <trkpt lat="45.16257" lon="5.23426">
        <ele>358.6</ele>
        <time>2010-10-17T08:52:38Z</time>
      </trkpt>
      <trkpt lat="45.16259" lon="5.23426">
        <ele>358.7</ele>
        <time>2010-10-17T08:52:38Z</time>
      </trkpt>
      <trkpt lat="45.16261" lon="5.23426">
        <ele>358.6</ele>
        <time>2010-10-17T08:52:40Z</time>
      </trkpt>
      <trkpt lat="45.16264" lon="5.23426">
        <ele>358.9</ele>
        <time>2010-10-17T08:52:41Z</time>
      </trkpt>
      <trkpt lat="45.16265" lon="5.23427">
        <ele>358.9</ele>
        <time>2010-10-17T08:52:42Z</time>
      </trkpt>
      <trkpt lat="45.16269" lon="5.23427">
        <ele>359.3</ele>
        <time>2010-10-17T08:52:43Z</time>
      </trkpt>
      <trkpt lat="45.16271" lon="5.23427">
        <ele>359.5</ele>
        <time>2010-10-17T08:52:44Z</time>
      </trkpt>
      <trkpt lat="45.16273" lon="5.23427">
        <ele>359.2</ele>
        <time>2010-10-17T08:52:45Z</time>
      </trkpt>
      <trkpt lat="45.16275" lon="5.23428">
        <ele>359.1</ele>
        <time>2010-10-17T08:52:46Z</time>
      </trkpt>
      <trkpt lat="45.16277" lon="5.23428">
        <ele>359.4</ele>
        <time>2010-10-17T08:52:47Z</time>
      </trkpt>
      <trkpt lat="45.16279" lon="5.23428">
        <ele>359.3</ele>
        <time>2010-10-17T08:52:48Z</time>
      </trkpt>
      <trkpt lat="45.16281" lon="5.23428">
        <ele>358.9</ele>
        <time>2010-10-17T08:52:49Z</time>
      </trkpt>
      <trkpt lat="45.16284" lon="5.23428">
        <ele>358.3</ele>
        <time>2010-10-17T08:52:50Z</time>
      </trkpt>
      <trkpt lat="45.16286" lon="5.23427">
        <ele>358.4</ele>
        <time>2010-10-17T08:52:51Z</time>
      </trkpt>
      <trkpt lat="45.16288" lon="5.23428">
        <ele>358.2</ele>
        <time>2010-10-17T08:52:52Z</time>
      </trkpt>
      <trkpt lat="45.1629" lon="5.23428">
        <ele>357.7</ele>
        <time>2010-10-17T08:52:53Z</time>
      </trkpt>
      <trkpt lat="45.16292" lon="5.23428">
        <ele>357.7</ele>
        <time>2010-10-17T08:52:54Z</time>
      </trkpt>
      <trkpt lat="45.16293" lon="5.23428">
        <ele>358.4</ele>
        <time>2010-10-17T08:52:55Z</time>
      </trkpt>
      <trkpt lat="45.16295" lon="5.23427">
        <ele>358.9</ele>
        <time>2010-10-17T08:52:56Z</time>
      </trkpt>
      <trkpt lat="45.16297" lon="5.23427">
        <ele>358.8</ele>
        <time>2010-10-17T08:52:57Z</time>
      </trkpt>
      <trkpt lat="45.16299" lon="5.23427">
        <ele>359.3</ele>
        <time>2010-10-17T08:52:58Z</time>
      </trkpt>
      <trkpt lat="45.163" lon="5.23427">
        <ele>359.2</ele>
        <time>2010-10-17T08:52:58Z</time>
      </trkpt>
      <trkpt lat="45.16301" lon="5.23428">
        <ele>359.3</ele>
        <time>2010-10-17T08:53:00Z</time>
      </trkpt>
      <trkpt lat="45.16303" lon="5.23427">
        <ele>359.8</ele>
        <time>2010-10-17T08:53:01Z</time>
      </trkpt>
      <trkpt lat="45.16305" lon="5.23427">
        <ele>359.6</ele>
        <time>2010-10-17T08:53:02Z</time>
      </trkpt>
      <trkpt lat="45.16307" lon="5.23425">
        <ele>359.9</ele>
        <time>2010-10-17T08:53:03Z</time>
      </trkpt>
      <trkpt lat="45.16309" lon="5.23424">
        <ele>360.5</ele>
        <time>2010-10-17T08:53:04Z</time>
      </trkpt>
      <trkpt lat="45.16312" lon="5.23422">
        <ele>360.7</ele>
        <time>2010-10-17T08:53:05Z</time>
      </trkpt>
      <trkpt lat="45.16314" lon="5.23422">
        <ele>360.7</ele>
        <time>2010-10-17T08:53:06Z</time>
      </trkpt>
      <trkpt lat="45.16316" lon="5.2342">
        <ele>360.6</ele>
        <time>2010-10-17T08:53:07Z</time>
      </trkpt>
      <trkpt lat="45.16318" lon="5.23418">
        <ele>360.7</ele>
        <time>2010-10-17T08:53:08Z</time>
      </trkpt>
      <trkpt lat="45.1632" lon="5.23416">
        <ele>360.8</ele>
        <time>2010-10-17T08:53:09Z</time>
      </trkpt>
      <trkpt lat="45.16322" lon="5.23415">
        <ele>360.5</ele>
        <time>2010-10-17T08:53:10Z</time>
      </trkpt>
      <trkpt lat="45.16325" lon="5.23413">
        <ele>360.7</ele>
        <time>2010-10-17T08:53:11Z</time>
      </trkpt>
      <trkpt lat="45.16327" lon="5.23412">
        <ele>360.9</ele>
        <time>2010-10-17T08:53:12Z</time>
      </trkpt>
      <trkpt lat="45.16329" lon="5.2341">
        <ele>360.5</ele>
        <time>2010-10-17T08:53:13Z</time>
      </trkpt>
      <trkpt lat="45.16331" lon="5.23409">
        <ele>360.5</ele>
        <time>2010-10-17T08:53:14Z</time>
      </trkpt>
      <trkpt lat="45.16333" lon="5.23407">
        <ele>361</ele>
        <time>2010-10-17T08:53:15Z</time>
      </trkpt>
      <trkpt lat="45.16335" lon="5.23407">
        <ele>361.4</ele>
        <time>2010-10-17T08:53:16Z</time>
      </trkpt>
      <trkpt lat="45.16337" lon="5.23405">
        <ele>360.9</ele>
        <time>2010-10-17T08:53:17Z</time>
      </trkpt>
      <trkpt lat="45.16339" lon="5.23403">
        <ele>361.2</ele>
        <time>2010-10-17T08:53:18Z</time>
      </trkpt>
      <trkpt lat="45.16341" lon="5.23402">
        <ele>361.1</ele>
        <time>2010-10-17T08:53:18Z</time>
      </trkpt>
      <trkpt lat="45.16343" lon="5.234">
        <ele>361.3</ele>
        <time>2010-10-17T08:53:20Z</time>
      </trkpt>
      <trkpt lat="45.16346" lon="5.23399">
        <ele>360.8</ele>
        <time>2010-10-17T08:53:21Z</time>
      </trkpt>
      <trkpt lat="45.16347" lon="5.23397">
        <ele>361.3</ele>
        <time>2010-10-17T08:53:22Z</time>
      </trkpt>
      <trkpt lat="45.1635" lon="5.23396">
        <ele>361.6</ele>
        <time>2010-10-17T08:53:23Z</time>
      </trkpt>
      <trkpt lat="45.16352" lon="5.23395">
        <ele>361.5</ele>
        <time>2010-10-17T08:53:24Z</time>
      </trkpt>
      <trkpt lat="45.16355" lon="5.23394">
        <ele>361.2</ele>
        <time>2010-10-17T08:53:25Z</time>
      </trkpt>
      <trkpt lat="45.16356" lon="5.23392">
        <ele>361.5</ele>
        <time>2010-10-17T08:53:26Z</time>
      </trkpt>
      <trkpt lat="45.16359" lon="5.23392">
        <ele>361.6</ele>
        <time>2010-10-17T08:53:27Z</time>
      </trkpt>
      <trkpt lat="45.16361" lon="5.2339">
        <ele>361.4</ele>
        <time>2010-10-17T08:53:28Z</time>
      </trkpt>
      <trkpt lat="45.16363" lon="5.23388">
        <ele>361</ele>
        <time>2010-10-17T08:53:29Z</time>
      </trkpt>
      <trkpt lat="45.16365" lon="5.23386">
        <ele>361.1</ele>
        <time>2010-10-17T08:53:30Z</time>
      </trkpt>
      <trkpt lat="45.16368" lon="5.23384">
        <ele>361.5</ele>
        <time>2010-10-17T08:53:31Z</time>
      </trkpt>
      <trkpt lat="45.1637" lon="5.23382">
        <ele>361.5</ele>
        <time>2010-10-17T08:53:32Z</time>
      </trkpt>
      <trkpt lat="45.16372" lon="5.2338">
        <ele>361.4</ele>
        <time>2010-10-17T08:53:33Z</time>
      </trkpt>
      <trkpt lat="45.16375" lon="5.2338">
        <ele>361.2</ele>
        <time>2010-10-17T08:53:34Z</time>
      </trkpt>
      <trkpt lat="45.16377" lon="5.23378">
        <ele>361.9</ele>
        <time>2010-10-17T08:53:35Z</time>
      </trkpt>
      <trkpt lat="45.16379" lon="5.23376">
        <ele>362.3</ele>
        <time>2010-10-17T08:53:36Z</time>
      </trkpt>
      <trkpt lat="45.16381" lon="5.23374">
        <ele>362.2</ele>
        <time>2010-10-17T08:53:37Z</time>
      </trkpt>
      <trkpt lat="45.16383" lon="5.23372">
        <ele>361.4</ele>
        <time>2010-10-17T08:53:38Z</time>
      </trkpt>
      <trkpt lat="45.16384" lon="5.23369">
        <ele>361.7</ele>
        <time>2010-10-17T08:53:38Z</time>
      </trkpt>
      <trkpt lat="45.16386" lon="5.23366">
        <ele>361.3</ele>
        <time>2010-10-17T08:53:40Z</time>
      </trkpt>
      <trkpt lat="45.16387" lon="5.23365">
        <ele>361.5</ele>
        <time>2010-10-17T08:53:41Z</time>
      </trkpt>
      <trkpt lat="45.16388" lon="5.23363">
        <ele>361.3</ele>
        <time>2010-10-17T08:53:42Z</time>
      </trkpt>
      <trkpt lat="45.1639" lon="5.23361">
        <ele>361.7</ele>
        <time>2010-10-17T08:53:43Z</time>
      </trkpt>
      <trkpt lat="45.16392" lon="5.2336">
        <ele>362</ele>
        <time>2010-10-17T08:53:44Z</time>
      </trkpt>
      <trkpt lat="45.16394" lon="5.23359">
        <ele>361.7</ele>
        <time>2010-10-17T08:53:45Z</time>
      </trkpt>
      <trkpt lat="45.16397" lon="5.23358">
        <ele>361.7</ele>
        <time>2010-10-17T08:53:46Z</time>
      </trkpt>
      <trkpt lat="45.164" lon="5.23357">
        <ele>361.5</ele>
        <time>2010-10-17T08:53:47Z</time>
      </trkpt>
      <trkpt lat="45.16403" lon="5.23355">
        <ele>361.3</ele>
        <time>2010-10-17T08:53:48Z</time>
      </trkpt>
      <trkpt lat="45.16405" lon="5.23354">
        <ele>361.1</ele>
        <time>2010-10-17T08:53:49Z</time>
      </trkpt>
      <trkpt lat="45.16407" lon="5.23354">
        <ele>361.2</ele>
        <time>2010-10-17T08:53:50Z</time>
      </trkpt>
      <trkpt lat="45.16409" lon="5.23352">
        <ele>360.7</ele>
        <time>2010-10-17T08:53:51Z</time>
      </trkpt>
      <trkpt lat="45.16412" lon="5.23351">
        <ele>360.7</ele>
        <time>2010-10-17T08:53:52Z</time>
      </trkpt>
      <trkpt lat="45.16414" lon="5.23349">
        <ele>361.7</ele>
        <time>2010-10-17T08:53:53Z</time>
      </trkpt>
      <trkpt lat="45.16417" lon="5.23348">
        <ele>361.9</ele>
        <time>2010-10-17T08:53:54Z</time>
      </trkpt>
      <trkpt lat="45.1642" lon="5.23346">
        <ele>361.9</ele>
        <time>2010-10-17T08:53:55Z</time>
      </trkpt>
      <trkpt lat="45.16422" lon="5.23344">
        <ele>361.8</ele>
        <time>2010-10-17T08:53:56Z</time>
      </trkpt>
      <trkpt lat="45.16425" lon="5.23342">
        <ele>361.5</ele>
        <time>2010-10-17T08:53:57Z</time>
      </trkpt>
      <trkpt lat="45.16427" lon="5.2334">
        <ele>361.7</ele>
        <time>2010-10-17T08:53:57Z</time>
      </trkpt>
      <trkpt lat="45.16429" lon="5.2334">
        <ele>361.9</ele>
        <time>2010-10-17T08:53:58Z</time>
      </trkpt>
      <trkpt lat="45.16431" lon="5.23338">
        <ele>361.7</ele>
        <time>2010-10-17T08:54:00Z</time>
      </trkpt>
      <trkpt lat="45.16433" lon="5.23336">
        <ele>362</ele>
        <time>2010-10-17T08:54:01Z</time>
      </trkpt>
      <trkpt lat="45.16435" lon="5.23334">
        <ele>362.1</ele>
        <time>2010-10-17T08:54:02Z</time>
      </trkpt>
      <trkpt lat="45.16437" lon="5.23332">
        <ele>361.8</ele>
        <time>2010-10-17T08:54:03Z</time>
      </trkpt>
      <trkpt lat="45.16438" lon="5.23331">
        <ele>361.8</ele>
        <time>2010-10-17T08:54:04Z</time>
      </trkpt>
      <trkpt lat="45.16441" lon="5.2333">
        <ele>362.3</ele>
        <time>2010-10-17T08:54:05Z</time>
      </trkpt>
      <trkpt lat="45.16444" lon="5.23329">
        <ele>362.7</ele>
        <time>2010-10-17T08:54:06Z</time>
      </trkpt>
      <trkpt lat="45.16446" lon="5.23328">
        <ele>363.2</ele>
        <time>2010-10-17T08:54:07Z</time>
      </trkpt>
      <trkpt lat="45.16448" lon="5.23328">
        <ele>363.1</ele>
        <time>2010-10-17T08:54:08Z</time>
      </trkpt>
      <trkpt lat="45.1645" lon="5.23327">
        <ele>363</ele>
        <time>2010-10-17T08:54:09Z</time>
      </trkpt>
      <trkpt lat="45.16451" lon="5.23326">
        <ele>363.2</ele>
        <time>2010-10-17T08:54:10Z</time>
      </trkpt>
      <trkpt lat="45.16453" lon="5.23325">
        <ele>363.4</ele>
        <time>2010-10-17T08:54:11Z</time>
      </trkpt>
      <trkpt lat="45.16456" lon="5.23324">
        <ele>363.9</ele>
        <time>2010-10-17T08:54:12Z</time>
      </trkpt>
      <trkpt lat="45.16458" lon="5.23322">
        <ele>363.7</ele>
        <time>2010-10-17T08:54:13Z</time>
      </trkpt>
      <trkpt lat="45.1646" lon="5.23321">
        <ele>364.1</ele>
        <time>2010-10-17T08:54:14Z</time>
      </trkpt>
      <trkpt lat="45.16462" lon="5.2332">
        <ele>364.2</ele>
        <time>2010-10-17T08:54:15Z</time>
      </trkpt>
      <trkpt lat="45.16464" lon="5.23319">
        <ele>364.2</ele>
        <time>2010-10-17T08:54:16Z</time>
      </trkpt>
      <trkpt lat="45.16466" lon="5.23318">
        <ele>364.9</ele>
        <time>2010-10-17T08:54:17Z</time>
      </trkpt>
      <trkpt lat="45.16469" lon="5.23317">
        <ele>364.6</ele>
        <time>2010-10-17T08:54:17Z</time>
      </trkpt>
      <trkpt lat="45.1647" lon="5.23316">
        <ele>364.8</ele>
        <time>2010-10-17T08:54:18Z</time>
      </trkpt>
      <trkpt lat="45.16474" lon="5.23315">
        <ele>365</ele>
        <time>2010-10-17T08:54:20Z</time>
      </trkpt>
      <trkpt lat="45.16476" lon="5.23315">
        <ele>365.4</ele>
        <time>2010-10-17T08:54:21Z</time>
      </trkpt>
      <trkpt lat="45.16479" lon="5.23313">
        <ele>365.6</ele>
        <time>2010-10-17T08:54:22Z</time>
      </trkpt>
      <trkpt lat="45.16481" lon="5.23312">
        <ele>365.9</ele>
        <time>2010-10-17T08:54:23Z</time>
      </trkpt>
      <trkpt lat="45.16482" lon="5.23311">
        <ele>365.9</ele>
        <time>2010-10-17T08:54:24Z</time>
      </trkpt>
      <trkpt lat="45.16484" lon="5.2331">
        <ele>366.1</ele>
        <time>2010-10-17T08:54:25Z</time>
      </trkpt>
      <trkpt lat="45.16488" lon="5.23311">
        <ele>366</ele>
        <time>2010-10-17T08:54:26Z</time>
      </trkpt>
      <trkpt lat="45.16491" lon="5.23312">
        <ele>365.9</ele>
        <time>2010-10-17T08:54:27Z</time>
      </trkpt>
      <trkpt lat="45.16494" lon="5.23313">
        <ele>366.5</ele>
        <time>2010-10-17T08:54:28Z</time>
      </trkpt>
      <trkpt lat="45.16495" lon="5.23314">
        <ele>366.7</ele>
        <time>2010-10-17T08:54:29Z</time>
      </trkpt>
      <trkpt lat="45.16497" lon="5.23313">
        <ele>367</ele>
        <time>2010-10-17T08:54:30Z</time>
      </trkpt>
      <trkpt lat="45.16499" lon="5.23312">
        <ele>367.2</ele>
        <time>2010-10-17T08:54:31Z</time>
      </trkpt>
      <trkpt lat="45.16501" lon="5.23311">
        <ele>367.4</ele>
        <time>2010-10-17T08:54:32Z</time>
      </trkpt>
      <trkpt lat="45.16502" lon="5.23309">
        <ele>367.6</ele>
        <time>2010-10-17T08:54:33Z</time>
      </trkpt>
      <trkpt lat="45.16505" lon="5.23308">
        <ele>367.3</ele>
        <time>2010-10-17T08:54:34Z</time>
      </trkpt>
      <trkpt lat="45.16506" lon="5.23307">
        <ele>367.9</ele>
        <time>2010-10-17T08:54:35Z</time>
      </trkpt>
      <trkpt lat="45.16508" lon="5.23306">
        <ele>368.3</ele>
        <time>2010-10-17T08:54:36Z</time>
      </trkpt>
      <trkpt lat="45.16509" lon="5.23304">
        <ele>368.7</ele>
        <time>2010-10-17T08:54:37Z</time>
      </trkpt>
      <trkpt lat="45.16511" lon="5.23302">
        <ele>368.6</ele>
        <time>2010-10-17T08:54:37Z</time>
      </trkpt>
      <trkpt lat="45.16512" lon="5.23301">
        <ele>368.9</ele>
        <time>2010-10-17T08:54:38Z</time>
      </trkpt>
      <trkpt lat="45.16513" lon="5.23299">
        <ele>368.6</ele>
        <time>2010-10-17T08:54:40Z</time>
      </trkpt>
      <trkpt lat="45.16515" lon="5.23298">
        <ele>369.1</ele>
        <time>2010-10-17T08:54:41Z</time>
      </trkpt>
      <trkpt lat="45.16517" lon="5.23297">
        <ele>369.6</ele>
        <time>2010-10-17T08:54:42Z</time>
      </trkpt>
      <trkpt lat="45.16519" lon="5.23296">
        <ele>369.8</ele>
        <time>2010-10-17T08:54:43Z</time>
      </trkpt>
      <trkpt lat="45.1652" lon="5.23294">
        <ele>370.1</ele>
        <time>2010-10-17T08:54:44Z</time>
      </trkpt>
      <trkpt lat="45.16521" lon="5.23293">
        <ele>370.5</ele>
        <time>2010-10-17T08:54:45Z</time>
      </trkpt>
      <trkpt lat="45.16522" lon="5.23291">
        <ele>370</ele>
        <time>2010-10-17T08:54:46Z</time>
      </trkpt>
      <trkpt lat="45.16523" lon="5.23289">
        <ele>369.8</ele>
        <time>2010-10-17T08:54:47Z</time>
      </trkpt>
      <trkpt lat="45.16524" lon="5.23287">
        <ele>369.9</ele>
        <time>2010-10-17T08:54:48Z</time>
      </trkpt>
      <trkpt lat="45.16526" lon="5.23285">
        <ele>370.1</ele>
        <time>2010-10-17T08:54:49Z</time>
      </trkpt>
      <trkpt lat="45.16527" lon="5.23285">
        <ele>370.3</ele>
        <time>2010-10-17T08:54:50Z</time>
      </trkpt>
      <trkpt lat="45.1653" lon="5.23283">
        <ele>370.5</ele>
        <time>2010-10-17T08:54:51Z</time>
      </trkpt>
      <trkpt lat="45.16531" lon="5.23282">
        <ele>371</ele>
        <time>2010-10-17T08:54:52Z</time>
      </trkpt>
      <trkpt lat="45.16533" lon="5.23279">
        <ele>370.9</ele>
        <time>2010-10-17T08:54:53Z</time>
      </trkpt>
      <trkpt lat="45.16534" lon="5.23277">
        <ele>370.9</ele>
        <time>2010-10-17T08:54:54Z</time>
      </trkpt>
      <trkpt lat="45.16535" lon="5.23276">
        <ele>370.8</ele>
        <time>2010-10-17T08:54:55Z</time>
      </trkpt>
      <trkpt lat="45.16538" lon="5.23275">
        <ele>370.7</ele>
        <time>2010-10-17T08:54:56Z</time>
      </trkpt>
      <trkpt lat="45.16539" lon="5.23274">
        <ele>370.6</ele>
        <time>2010-10-17T08:54:57Z</time>
      </trkpt>
      <trkpt lat="45.1654" lon="5.23272">
        <ele>370.9</ele>
        <time>2010-10-17T08:54:57Z</time>
      </trkpt>
      <trkpt lat="45.16542" lon="5.23272">
        <ele>371.9</ele>
        <time>2010-10-17T08:54:59Z</time>
      </trkpt>
      <trkpt lat="45.16543" lon="5.23271">
        <ele>371.4</ele>
        <time>2010-10-17T08:55:00Z</time>
      </trkpt>
      <trkpt lat="45.16545" lon="5.2327">
        <ele>370.6</ele>
        <time>2010-10-17T08:55:01Z</time>
      </trkpt>
      <trkpt lat="45.16547" lon="5.23269">
        <ele>370.6</ele>
        <time>2010-10-17T08:55:02Z</time>
      </trkpt>
      <trkpt lat="45.16549" lon="5.23267">
        <ele>369.9</ele>
        <time>2010-10-17T08:55:03Z</time>
      </trkpt>
      <trkpt lat="45.16551" lon="5.23265">
        <ele>369.5</ele>
        <time>2010-10-17T08:55:04Z</time>
      </trkpt>
      <trkpt lat="45.16554" lon="5.23266">
        <ele>369.4</ele>
        <time>2010-10-17T08:55:05Z</time>
      </trkpt>
      <trkpt lat="45.16555" lon="5.23265">
        <ele>369.3</ele>
        <time>2010-10-17T08:55:06Z</time>
      </trkpt>
      <trkpt lat="45.16557" lon="5.23262">
        <ele>369.5</ele>
        <time>2010-10-17T08:55:07Z</time>
      </trkpt>
      <trkpt lat="45.1656" lon="5.23262">
        <ele>369.6</ele>
        <time>2010-10-17T08:55:08Z</time>
      </trkpt>
      <trkpt lat="45.16562" lon="5.2326">
        <ele>369.8</ele>
        <time>2010-10-17T08:55:09Z</time>
      </trkpt>
      <trkpt lat="45.16564" lon="5.23258">
        <ele>369.9</ele>
        <time>2010-10-17T08:55:10Z</time>
      </trkpt>
      <trkpt lat="45.16567" lon="5.23258">
        <ele>370.1</ele>
        <time>2010-10-17T08:55:11Z</time>
      </trkpt>
      <trkpt lat="45.1657" lon="5.23256">
        <ele>370.9</ele>
        <time>2010-10-17T08:55:12Z</time>
      </trkpt>
      <trkpt lat="45.16572" lon="5.23254">
        <ele>371.4</ele>
        <time>2010-10-17T08:55:13Z</time>
      </trkpt>
      <trkpt lat="45.16575" lon="5.23252">
        <ele>371.2</ele>
        <time>2010-10-17T08:55:14Z</time>
      </trkpt>
      <trkpt lat="45.16577" lon="5.23251">
        <ele>370.8</ele>
        <time>2010-10-17T08:55:15Z</time>
      </trkpt>
      <trkpt lat="45.16578" lon="5.2325">
        <ele>371</ele>
        <time>2010-10-17T08:55:16Z</time>
      </trkpt>
      <trkpt lat="45.16581" lon="5.23249">
        <ele>371.4</ele>
        <time>2010-10-17T08:55:17Z</time>
      </trkpt>
      <trkpt lat="45.16583" lon="5.23247">
        <ele>371.6</ele>
        <time>2010-10-17T08:55:17Z</time>
      </trkpt>
      <trkpt lat="45.16584" lon="5.23245">
        <ele>372.4</ele>
        <time>2010-10-17T08:55:19Z</time>
      </trkpt>
      <trkpt lat="45.16586" lon="5.23244">
        <ele>372.2</ele>
        <time>2010-10-17T08:55:20Z</time>
      </trkpt>
      <trkpt lat="45.16588" lon="5.23243">
        <ele>372.1</ele>
        <time>2010-10-17T08:55:21Z</time>
      </trkpt>
      <trkpt lat="45.1659" lon="5.23241">
        <ele>372.3</ele>
        <time>2010-10-17T08:55:22Z</time>
      </trkpt>
      <trkpt lat="45.16593" lon="5.23239">
        <ele>372.1</ele>
        <time>2010-10-17T08:55:23Z</time>
      </trkpt>
      <trkpt lat="45.16595" lon="5.23238">
        <ele>372.1</ele>
        <time>2010-10-17T08:55:24Z</time>
      </trkpt>
      <trkpt lat="45.16597" lon="5.23236">
        <ele>372.7</ele>
        <time>2010-10-17T08:55:25Z</time>
      </trkpt>
      <trkpt lat="45.16599" lon="5.23233">
        <ele>373.3</ele>
        <time>2010-10-17T08:55:26Z</time>
      </trkpt>
      <trkpt lat="45.16602" lon="5.23231">
        <ele>373.3</ele>
        <time>2010-10-17T08:55:27Z</time>
      </trkpt>
      <trkpt lat="45.16604" lon="5.23229">
        <ele>373.1</ele>
        <time>2010-10-17T08:55:28Z</time>
      </trkpt>
      <trkpt lat="45.16606" lon="5.23227">
        <ele>373.7</ele>
        <time>2010-10-17T08:55:29Z</time>
      </trkpt>
      <trkpt lat="45.16609" lon="5.23225">
        <ele>373.2</ele>
        <time>2010-10-17T08:55:30Z</time>
      </trkpt>
      <trkpt lat="45.16612" lon="5.23224">
        <ele>373.1</ele>
        <time>2010-10-17T08:55:31Z</time>
      </trkpt>
      <trkpt lat="45.16614" lon="5.23222">
        <ele>373</ele>
        <time>2010-10-17T08:55:32Z</time>
      </trkpt>
      <trkpt lat="45.16617" lon="5.2322">
        <ele>372.8</ele>
        <time>2010-10-17T08:55:33Z</time>
      </trkpt>
      <trkpt lat="45.16619" lon="5.2322">
        <ele>372.6</ele>
        <time>2010-10-17T08:55:34Z</time>
      </trkpt>
      <trkpt lat="45.16621" lon="5.23218">
        <ele>373.1</ele>
        <time>2010-10-17T08:55:35Z</time>
      </trkpt>
      <trkpt lat="45.16623" lon="5.23217">
        <ele>373.3</ele>
        <time>2010-10-17T08:55:36Z</time>
      </trkpt>
      <trkpt lat="45.16625" lon="5.23216">
        <ele>373.2</ele>
        <time>2010-10-17T08:55:37Z</time>
      </trkpt>
      <trkpt lat="45.16627" lon="5.23215">
        <ele>373.2</ele>
        <time>2010-10-17T08:55:37Z</time>
      </trkpt>
      <trkpt lat="45.16629" lon="5.23213">
        <ele>371.7</ele>
        <time>2010-10-17T08:55:39Z</time>
      </trkpt>
      <trkpt lat="45.16631" lon="5.23211">
        <ele>371.7</ele>
        <time>2010-10-17T08:55:40Z</time>
      </trkpt>
      <trkpt lat="45.16633" lon="5.23209">
        <ele>371.4</ele>
        <time>2010-10-17T08:55:41Z</time>
      </trkpt>
      <trkpt lat="45.16636" lon="5.23208">
        <ele>371.1</ele>
        <time>2010-10-17T08:55:42Z</time>
      </trkpt>
      <trkpt lat="45.16639" lon="5.23207">
        <ele>371.5</ele>
        <time>2010-10-17T08:55:43Z</time>
      </trkpt>
      <trkpt lat="45.16641" lon="5.23205">
        <ele>370.4</ele>
        <time>2010-10-17T08:55:44Z</time>
      </trkpt>
      <trkpt lat="45.16643" lon="5.23203">
        <ele>370.1</ele>
        <time>2010-10-17T08:55:45Z</time>
      </trkpt>
      <trkpt lat="45.16645" lon="5.23202">
        <ele>369.7</ele>
        <time>2010-10-17T08:55:46Z</time>
      </trkpt>
      <trkpt lat="45.16647" lon="5.232">
        <ele>369.9</ele>
        <time>2010-10-17T08:55:47Z</time>
      </trkpt>
      <trkpt lat="45.1665" lon="5.23199">
        <ele>369.9</ele>
        <time>2010-10-17T08:55:48Z</time>
      </trkpt>
      <trkpt lat="45.16652" lon="5.23198">
        <ele>370.1</ele>
        <time>2010-10-17T08:55:49Z</time>
      </trkpt>
      <trkpt lat="45.16654" lon="5.23196">
        <ele>369.9</ele>
        <time>2010-10-17T08:55:50Z</time>
      </trkpt>
      <trkpt lat="45.16657" lon="5.23195">
        <ele>370.1</ele>
        <time>2010-10-17T08:55:51Z</time>
      </trkpt>
      <trkpt lat="45.16659" lon="5.23193">
        <ele>370.3</ele>
        <time>2010-10-17T08:55:52Z</time>
      </trkpt>
      <trkpt lat="45.16661" lon="5.23192">
        <ele>370.6</ele>
        <time>2010-10-17T08:55:53Z</time>
      </trkpt>
      <trkpt lat="45.16664" lon="5.23191">
        <ele>370.8</ele>
        <time>2010-10-17T08:55:54Z</time>
      </trkpt>
      <trkpt lat="45.16667" lon="5.23189">
        <ele>371.2</ele>
        <time>2010-10-17T08:55:55Z</time>
      </trkpt>
      <trkpt lat="45.16669" lon="5.23188">
        <ele>371.3</ele>
        <time>2010-10-17T08:55:56Z</time>
      </trkpt>
      <trkpt lat="45.16672" lon="5.23187">
        <ele>371.6</ele>
        <time>2010-10-17T08:55:56Z</time>
      </trkpt>
      <trkpt lat="45.16673" lon="5.23184">
        <ele>371.6</ele>
        <time>2010-10-17T08:55:57Z</time>
      </trkpt>
      <trkpt lat="45.16676" lon="5.23184">
        <ele>371.2</ele>
        <time>2010-10-17T08:55:59Z</time>
      </trkpt>
      <trkpt lat="45.16678" lon="5.23182">
        <ele>371.4</ele>
        <time>2010-10-17T08:56:00Z</time>
      </trkpt>
      <trkpt lat="45.16681" lon="5.23181">
        <ele>371.7</ele>
        <time>2010-10-17T08:56:01Z</time>
      </trkpt>
      <trkpt lat="45.16683" lon="5.23179">
        <ele>372</ele>
        <time>2010-10-17T08:56:02Z</time>
      </trkpt>
      <trkpt lat="45.16685" lon="5.23178">
        <ele>372.2</ele>
        <time>2010-10-17T08:56:03Z</time>
      </trkpt>
      <trkpt lat="45.16687" lon="5.23176">
        <ele>372.2</ele>
        <time>2010-10-17T08:56:04Z</time>
      </trkpt>
      <trkpt lat="45.1669" lon="5.23174">
        <ele>372.3</ele>
        <time>2010-10-17T08:56:05Z</time>
      </trkpt>
      <trkpt lat="45.16691" lon="5.23172">
        <ele>372.9</ele>
        <time>2010-10-17T08:56:06Z</time>
      </trkpt>
      <trkpt lat="45.16693" lon="5.2317">
        <ele>372.5</ele>
        <time>2010-10-17T08:56:07Z</time>
      </trkpt>
      <trkpt lat="45.16696" lon="5.23169">
        <ele>373.1</ele>
        <time>2010-10-17T08:56:08Z</time>
      </trkpt>
      <trkpt lat="45.16698" lon="5.23167">
        <ele>373.3</ele>
        <time>2010-10-17T08:56:09Z</time>
      </trkpt>
      <trkpt lat="45.16701" lon="5.23166">
        <ele>373.2</ele>
        <time>2010-10-17T08:56:10Z</time>
      </trkpt>
      <trkpt lat="45.16703" lon="5.23164">
        <ele>372.9</ele>
        <time>2010-10-17T08:56:11Z</time>
      </trkpt>
      <trkpt lat="45.16705" lon="5.23163">
        <ele>373</ele>
        <time>2010-10-17T08:56:12Z</time>
      </trkpt>
      <trkpt lat="45.16709" lon="5.2316">
        <ele>372.5</ele>
        <time>2010-10-17T08:56:13Z</time>
      </trkpt>
      <trkpt lat="45.16711" lon="5.23157">
        <ele>372.2</ele>
        <time>2010-10-17T08:56:14Z</time>
      </trkpt>
      <trkpt lat="45.16713" lon="5.23156">
        <ele>372.4</ele>
        <time>2010-10-17T08:56:15Z</time>
      </trkpt>
      <trkpt lat="45.16715" lon="5.23154">
        <ele>372.1</ele>
        <time>2010-10-17T08:56:16Z</time>
      </trkpt>
      <trkpt lat="45.16718" lon="5.23152">
        <ele>372.1</ele>
        <time>2010-10-17T08:56:16Z</time>
      </trkpt>
      <trkpt lat="45.16721" lon="5.23151">
        <ele>372.1</ele>
        <time>2010-10-17T08:56:17Z</time>
      </trkpt>
      <trkpt lat="45.16724" lon="5.23149">
        <ele>372.2</ele>
        <time>2010-10-17T08:56:19Z</time>
      </trkpt>
      <trkpt lat="45.16727" lon="5.23147">
        <ele>372.1</ele>
        <time>2010-10-17T08:56:20Z</time>
      </trkpt>
      <trkpt lat="45.16731" lon="5.23145">
        <ele>372.1</ele>
        <time>2010-10-17T08:56:21Z</time>
      </trkpt>
      <trkpt lat="45.16733" lon="5.23142">
        <ele>371.9</ele>
        <time>2010-10-17T08:56:22Z</time>
      </trkpt>
      <trkpt lat="45.16736" lon="5.2314">
        <ele>371.5</ele>
        <time>2010-10-17T08:56:23Z</time>
      </trkpt>
      <trkpt lat="45.16738" lon="5.2314">
        <ele>371.8</ele>
        <time>2010-10-17T08:56:24Z</time>
      </trkpt>
      <trkpt lat="45.1674" lon="5.23139">
        <ele>371.8</ele>
        <time>2010-10-17T08:56:25Z</time>
      </trkpt>
      <trkpt lat="45.16743" lon="5.23137">
        <ele>372.7</ele>
        <time>2010-10-17T08:56:26Z</time>
      </trkpt>
      <trkpt lat="45.16746" lon="5.23135">
        <ele>372.7</ele>
        <time>2010-10-17T08:56:27Z</time>
      </trkpt>
      <trkpt lat="45.16749" lon="5.23133">
        <ele>372.7</ele>
        <time>2010-10-17T08:56:28Z</time>
      </trkpt>
      <trkpt lat="45.16753" lon="5.23131">
        <ele>372.9</ele>
        <time>2010-10-17T08:56:29Z</time>
      </trkpt>
      <trkpt lat="45.16756" lon="5.23129">
        <ele>372.8</ele>
        <time>2010-10-17T08:56:30Z</time>
      </trkpt>
      <trkpt lat="45.16759" lon="5.23128">
        <ele>372.7</ele>
        <time>2010-10-17T08:56:31Z</time>
      </trkpt>
      <trkpt lat="45.16762" lon="5.23126">
        <ele>373</ele>
        <time>2010-10-17T08:56:32Z</time>
      </trkpt>
      <trkpt lat="45.16765" lon="5.23124">
        <ele>373.1</ele>
        <time>2010-10-17T08:56:33Z</time>
      </trkpt>
      <trkpt lat="45.16768" lon="5.23122">
        <ele>373.3</ele>
        <time>2010-10-17T08:56:34Z</time>
      </trkpt>
      <trkpt lat="45.16771" lon="5.2312">
        <ele>373.1</ele>
        <time>2010-10-17T08:56:35Z</time>
      </trkpt>
      <trkpt lat="45.16774" lon="5.23119">
        <ele>372.9</ele>
        <time>2010-10-17T08:56:36Z</time>
      </trkpt>
      <trkpt lat="45.16776" lon="5.23117">
        <ele>372.9</ele>
        <time>2010-10-17T08:56:36Z</time>
      </trkpt>
      <trkpt lat="45.1678" lon="5.23116">
        <ele>373</ele>
        <time>2010-10-17T08:56:37Z</time>
      </trkpt>
      <trkpt lat="45.16783" lon="5.23116">
        <ele>373</ele>
        <time>2010-10-17T08:56:39Z</time>
      </trkpt>
      <trkpt lat="45.16787" lon="5.23114">
        <ele>372.6</ele>
        <time>2010-10-17T08:56:40Z</time>
      </trkpt>
      <trkpt lat="45.16791" lon="5.23112">
        <ele>372.8</ele>
        <time>2010-10-17T08:56:41Z</time>
      </trkpt>
      <trkpt lat="45.16794" lon="5.2311">
        <ele>372.4</ele>
        <time>2010-10-17T08:56:42Z</time>
      </trkpt>
      <trkpt lat="45.16798" lon="5.23109">
        <ele>372.5</ele>
        <time>2010-10-17T08:56:43Z</time>
      </trkpt>
      <trkpt lat="45.16801" lon="5.23108">
        <ele>372.6</ele>
        <time>2010-10-17T08:56:44Z</time>
      </trkpt>
      <trkpt lat="45.16804" lon="5.23106">
        <ele>372.7</ele>
        <time>2010-10-17T08:56:45Z</time>
      </trkpt>
      <trkpt lat="45.16807" lon="5.23103">
        <ele>372.5</ele>
        <time>2010-10-17T08:56:46Z</time>
      </trkpt>
      <trkpt lat="45.1681" lon="5.23102">
        <ele>372.6</ele>
        <time>2010-10-17T08:56:47Z</time>
      </trkpt>
      <trkpt lat="45.16814" lon="5.231">
        <ele>372.6</ele>
        <time>2010-10-17T08:56:48Z</time>
      </trkpt>
      <trkpt lat="45.16817" lon="5.23097">
        <ele>372.7</ele>
        <time>2010-10-17T08:56:49Z</time>
      </trkpt>
      <trkpt lat="45.16821" lon="5.23096">
        <ele>372.6</ele>
        <time>2010-10-17T08:56:50Z</time>
      </trkpt>
      <trkpt lat="45.16824" lon="5.23093">
        <ele>372.5</ele>
        <time>2010-10-17T08:56:51Z</time>
      </trkpt>
      <trkpt lat="45.16828" lon="5.23091">
        <ele>372.2</ele>
        <time>2010-10-17T08:56:52Z</time>
      </trkpt>
      <trkpt lat="45.16831" lon="5.23089">
        <ele>372</ele>
        <time>2010-10-17T08:56:53Z</time>
      </trkpt>
      <trkpt lat="45.16836" lon="5.23087">
        <ele>371.7</ele>
        <time>2010-10-17T08:56:54Z</time>
      </trkpt>
      <trkpt lat="45.1684" lon="5.23085">
        <ele>371.8</ele>
        <time>2010-10-17T08:56:55Z</time>
      </trkpt>
      <trkpt lat="45.16843" lon="5.23084">
        <ele>371.6</ele>
        <time>2010-10-17T08:56:56Z</time>
      </trkpt>
      <trkpt lat="45.16847" lon="5.23081">
        <ele>371.2</ele>
        <time>2010-10-17T08:56:56Z</time>
      </trkpt>
      <trkpt lat="45.1685" lon="5.23078">
        <ele>371.1</ele>
        <time>2010-10-17T08:56:57Z</time>
      </trkpt>
      <trkpt lat="45.16853" lon="5.23075">
        <ele>371</ele>
        <time>2010-10-17T08:56:59Z</time>
      </trkpt>
      <trkpt lat="45.16857" lon="5.23074">
        <ele>371.4</ele>
        <time>2010-10-17T08:57:00Z</time>
      </trkpt>
      <trkpt lat="45.16861" lon="5.23072">
        <ele>371.5</ele>
        <time>2010-10-17T08:57:01Z</time>
      </trkpt>
      <trkpt lat="45.16867" lon="5.23069">
        <ele>371.8</ele>
        <time>2010-10-17T08:57:02Z</time>
      </trkpt>
      <trkpt lat="45.16871" lon="5.23066">
        <ele>372.7</ele>
        <time>2010-10-17T08:57:03Z</time>
      </trkpt>
      <trkpt lat="45.16878" lon="5.23063">
        <ele>372.5</ele>
        <time>2010-10-17T08:57:04Z</time>
      </trkpt>
      <trkpt lat="45.16883" lon="5.2306">
        <ele>372.5</ele>
        <time>2010-10-17T08:57:05Z</time>
      </trkpt>
      <trkpt lat="45.16888" lon="5.23057">
        <ele>372.4</ele>
        <time>2010-10-17T08:57:06Z</time>
      </trkpt>
      <trkpt lat="45.16891" lon="5.23055">
        <ele>373.1</ele>
        <time>2010-10-17T08:57:07Z</time>
      </trkpt>
      <trkpt lat="45.16901" lon="5.23055">
        <ele>374.7</ele>
        <time>2010-10-17T08:57:08Z</time>
      </trkpt>
      <trkpt lat="45.16904" lon="5.23053">
        <ele>374.9</ele>
        <time>2010-10-17T08:57:09Z</time>
      </trkpt>
      <trkpt lat="45.16907" lon="5.23049">
        <ele>374.9</ele>
        <time>2010-10-17T08:57:10Z</time>
      </trkpt>
      <trkpt lat="45.16909" lon="5.23045">
        <ele>374.6</ele>
        <time>2010-10-17T08:57:11Z</time>
      </trkpt>
      <trkpt lat="45.1691" lon="5.23041">
        <ele>374.6</ele>
        <time>2010-10-17T08:57:12Z</time>
      </trkpt>
      <trkpt lat="45.16914" lon="5.23037">
        <ele>374.4</ele>
        <time>2010-10-17T08:57:13Z</time>
      </trkpt>
      <trkpt lat="45.16918" lon="5.23034">
        <ele>374.6</ele>
        <time>2010-10-17T08:57:14Z</time>
      </trkpt>
      <trkpt lat="45.16921" lon="5.23031">
        <ele>375.2</ele>
        <time>2010-10-17T08:57:15Z</time>
      </trkpt>
      <trkpt lat="45.16918" lon="5.23025">
        <ele>373.8</ele>
        <time>2010-10-17T08:57:16Z</time>
      </trkpt>
      <trkpt lat="45.16923" lon="5.23024">
        <ele>373.5</ele>
        <time>2010-10-17T08:57:16Z</time>
      </trkpt>
      <trkpt lat="45.16925" lon="5.2302">
        <ele>373.2</ele>
        <time>2010-10-17T08:57:18Z</time>
      </trkpt>
      <trkpt lat="45.16927" lon="5.23016">
        <ele>373</ele>
        <time>2010-10-17T08:57:19Z</time>
      </trkpt>
      <trkpt lat="45.1693" lon="5.23014">
        <ele>372.8</ele>
        <time>2010-10-17T08:57:20Z</time>
      </trkpt>
      <trkpt lat="45.16933" lon="5.2301">
        <ele>372.7</ele>
        <time>2010-10-17T08:57:21Z</time>
      </trkpt>
      <trkpt lat="45.16936" lon="5.23007">
        <ele>372.7</ele>
        <time>2010-10-17T08:57:22Z</time>
      </trkpt>
      <trkpt lat="45.1694" lon="5.23004">
        <ele>372.9</ele>
        <time>2010-10-17T08:57:23Z</time>
      </trkpt>
      <trkpt lat="45.16942" lon="5.23003">
        <ele>372.9</ele>
        <time>2010-10-17T08:57:24Z</time>
      </trkpt>
      <trkpt lat="45.16946" lon="5.23004">
        <ele>373</ele>
        <time>2010-10-17T08:57:25Z</time>
      </trkpt>
      <trkpt lat="45.1695" lon="5.23005">
        <ele>373.7</ele>
        <time>2010-10-17T08:57:26Z</time>
      </trkpt>
      <trkpt lat="45.16952" lon="5.23007">
        <ele>373.7</ele>
        <time>2010-10-17T08:57:27Z</time>
      </trkpt>
      <trkpt lat="45.16955" lon="5.23008">
        <ele>374</ele>
        <time>2010-10-17T08:57:28Z</time>
      </trkpt>
      <trkpt lat="45.16958" lon="5.23008">
        <ele>373.6</ele>
        <time>2010-10-17T08:57:29Z</time>
      </trkpt>
      <trkpt lat="45.16961" lon="5.23008">
        <ele>373.9</ele>
        <time>2010-10-17T08:57:30Z</time>
      </trkpt>
      <trkpt lat="45.16965" lon="5.23008">
        <ele>373.7</ele>
        <time>2010-10-17T08:57:31Z</time>
      </trkpt>
      <trkpt lat="45.16968" lon="5.23008">
        <ele>373</ele>
        <time>2010-10-17T08:57:32Z</time>
      </trkpt>
      <trkpt lat="45.16971" lon="5.23009">
        <ele>372.9</ele>
        <time>2010-10-17T08:57:33Z</time>
      </trkpt>
      <trkpt lat="45.16974" lon="5.23009">
        <ele>373.1</ele>
        <time>2010-10-17T08:57:34Z</time>
      </trkpt>
      <trkpt lat="45.16977" lon="5.23008">
        <ele>372.8</ele>
        <time>2010-10-17T08:57:35Z</time>
      </trkpt>
      <trkpt lat="45.16979" lon="5.23007">
        <ele>373</ele>
        <time>2010-10-17T08:57:36Z</time>
      </trkpt>
      <trkpt lat="45.16982" lon="5.23005">
        <ele>373.5</ele>
        <time>2010-10-17T08:57:36Z</time>
      </trkpt>
      <trkpt lat="45.16984" lon="5.23004">
        <ele>373.4</ele>
        <time>2010-10-17T08:57:38Z</time>
      </trkpt>
      <trkpt lat="45.16987" lon="5.23003">
        <ele>373.4</ele>
        <time>2010-10-17T08:57:39Z</time>
      </trkpt>
      <trkpt lat="45.16989" lon="5.23002">
        <ele>373.2</ele>
        <time>2010-10-17T08:57:40Z</time>
      </trkpt>
      <trkpt lat="45.16992" lon="5.23001">
        <ele>372.9</ele>
        <time>2010-10-17T08:57:41Z</time>
      </trkpt>
      <trkpt lat="45.16995" lon="5.23">
        <ele>373.1</ele>
        <time>2010-10-17T08:57:42Z</time>
      </trkpt>
      <trkpt lat="45.16998" lon="5.23">
        <ele>373.1</ele>
        <time>2010-10-17T08:57:43Z</time>
      </trkpt>
      <trkpt lat="45.17" lon="5.22999">
        <ele>372.9</ele>
        <time>2010-10-17T08:57:44Z</time>
      </trkpt>
      <trkpt lat="45.17004" lon="5.22997">
        <ele>372.8</ele>
        <time>2010-10-17T08:57:45Z</time>
      </trkpt>
      <trkpt lat="45.17006" lon="5.22996">
        <ele>372.7</ele>
        <time>2010-10-17T08:57:46Z</time>
      </trkpt>
      <trkpt lat="45.17009" lon="5.22995">
        <ele>373.2</ele>
        <time>2010-10-17T08:57:47Z</time>
      </trkpt>
      <trkpt lat="45.17011" lon="5.22995">
        <ele>372.9</ele>
        <time>2010-10-17T08:57:48Z</time>
      </trkpt>
      <trkpt lat="45.17015" lon="5.22993">
        <ele>373.3</ele>
        <time>2010-10-17T08:57:49Z</time>
      </trkpt>
      <trkpt lat="45.17017" lon="5.22993">
        <ele>373.4</ele>
        <time>2010-10-17T08:57:50Z</time>
      </trkpt>
      <trkpt lat="45.1702" lon="5.22992">
        <ele>373.7</ele>
        <time>2010-10-17T08:57:51Z</time>
      </trkpt>
      <trkpt lat="45.17023" lon="5.22991">
        <ele>373.5</ele>
        <time>2010-10-17T08:57:52Z</time>
      </trkpt>
      <trkpt lat="45.17026" lon="5.22991">
        <ele>373.6</ele>
        <time>2010-10-17T08:57:53Z</time>
      </trkpt>
      <trkpt lat="45.17028" lon="5.22989">
        <ele>373.7</ele>
        <time>2010-10-17T08:57:54Z</time>
      </trkpt>
      <trkpt lat="45.17032" lon="5.22989">
        <ele>374.1</ele>
        <time>2010-10-17T08:57:55Z</time>
      </trkpt>
      <trkpt lat="45.17034" lon="5.22988">
        <ele>374.2</ele>
        <time>2010-10-17T08:57:56Z</time>
      </trkpt>
      <trkpt lat="45.17037" lon="5.22989">
        <ele>374.1</ele>
        <time>2010-10-17T08:57:56Z</time>
      </trkpt>
      <trkpt lat="45.17039" lon="5.22987">
        <ele>374.1</ele>
        <time>2010-10-17T08:57:58Z</time>
      </trkpt>
      <trkpt lat="45.17041" lon="5.22987">
        <ele>373.8</ele>
        <time>2010-10-17T08:57:59Z</time>
      </trkpt>
      <trkpt lat="45.17043" lon="5.22986">
        <ele>374.1</ele>
        <time>2010-10-17T08:58:00Z</time>
      </trkpt>
      <trkpt lat="45.17044" lon="5.22985">
        <ele>374.6</ele>
        <time>2010-10-17T08:58:01Z</time>
      </trkpt>
      <trkpt lat="45.17048" lon="5.22984">
        <ele>374.6</ele>
        <time>2010-10-17T08:58:02Z</time>
      </trkpt>
      <trkpt lat="45.1705" lon="5.22983">
        <ele>374.7</ele>
        <time>2010-10-17T08:58:03Z</time>
      </trkpt>
      <trkpt lat="45.17052" lon="5.22981">
        <ele>374.7</ele>
        <time>2010-10-17T08:58:04Z</time>
      </trkpt>
      <trkpt lat="45.17054" lon="5.2298">
        <ele>374.7</ele>
        <time>2010-10-17T08:58:05Z</time>
      </trkpt>
      <trkpt lat="45.17059" lon="5.22979">
        <ele>375.7</ele>
        <time>2010-10-17T08:58:06Z</time>
      </trkpt>
      <trkpt lat="45.17061" lon="5.22978">
        <ele>376</ele>
        <time>2010-10-17T08:58:07Z</time>
      </trkpt>
      <trkpt lat="45.17063" lon="5.22977">
        <ele>375.9</ele>
        <time>2010-10-17T08:58:08Z</time>
      </trkpt>
      <trkpt lat="45.17066" lon="5.22976">
        <ele>376.3</ele>
        <time>2010-10-17T08:58:09Z</time>
      </trkpt>
      <trkpt lat="45.17068" lon="5.22975">
        <ele>376.1</ele>
        <time>2010-10-17T08:58:10Z</time>
      </trkpt>
      <trkpt lat="45.1707" lon="5.22974">
        <ele>376.4</ele>
        <time>2010-10-17T08:58:11Z</time>
      </trkpt>
      <trkpt lat="45.17072" lon="5.22975">
        <ele>376.7</ele>
        <time>2010-10-17T08:58:12Z</time>
      </trkpt>
      <trkpt lat="45.17074" lon="5.22974">
        <ele>376.5</ele>
        <time>2010-10-17T08:58:13Z</time>
      </trkpt>
      <trkpt lat="45.17076" lon="5.22974">
        <ele>376.4</ele>
        <time>2010-10-17T08:58:14Z</time>
      </trkpt>
      <trkpt lat="45.17079" lon="5.22974">
        <ele>376.6</ele>
        <time>2010-10-17T08:58:15Z</time>
      </trkpt>
      <trkpt lat="45.17082" lon="5.22974">
        <ele>376.5</ele>
        <time>2010-10-17T08:58:15Z</time>
      </trkpt>
      <trkpt lat="45.17084" lon="5.22974">
        <ele>376.7</ele>
        <time>2010-10-17T08:58:16Z</time>
      </trkpt>
      <trkpt lat="45.17086" lon="5.22974">
        <ele>376.8</ele>
        <time>2010-10-17T08:58:18Z</time>
      </trkpt>
      <trkpt lat="45.17088" lon="5.22974">
        <ele>376.9</ele>
        <time>2010-10-17T08:58:19Z</time>
      </trkpt>
      <trkpt lat="45.1709" lon="5.22974">
        <ele>377.1</ele>
        <time>2010-10-17T08:58:20Z</time>
      </trkpt>
      <trkpt lat="45.17092" lon="5.22972">
        <ele>377.5</ele>
        <time>2010-10-17T08:58:21Z</time>
      </trkpt>
      <trkpt lat="45.17094" lon="5.22971">
        <ele>377.9</ele>
        <time>2010-10-17T08:58:22Z</time>
      </trkpt>
      <trkpt lat="45.17096" lon="5.2297">
        <ele>378.3</ele>
        <time>2010-10-17T08:58:23Z</time>
      </trkpt>
      <trkpt lat="45.17098" lon="5.2297">
        <ele>378.2</ele>
        <time>2010-10-17T08:58:24Z</time>
      </trkpt>
      <trkpt lat="45.171" lon="5.2297">
        <ele>377.7</ele>
        <time>2010-10-17T08:58:25Z</time>
      </trkpt>
      <trkpt lat="45.17103" lon="5.2297">
        <ele>377.8</ele>
        <time>2010-10-17T08:58:26Z</time>
      </trkpt>
      <trkpt lat="45.17105" lon="5.22969">
        <ele>377.8</ele>
        <time>2010-10-17T08:58:27Z</time>
      </trkpt>
      <trkpt lat="45.17107" lon="5.22969">
        <ele>377.9</ele>
        <time>2010-10-17T08:58:28Z</time>
      </trkpt>
      <trkpt lat="45.17109" lon="5.22968">
        <ele>378.1</ele>
        <time>2010-10-17T08:58:29Z</time>
      </trkpt>
      <trkpt lat="45.17112" lon="5.22966">
        <ele>378.1</ele>
        <time>2010-10-17T08:58:30Z</time>
      </trkpt>
      <trkpt lat="45.17115" lon="5.22966">
        <ele>378.4</ele>
        <time>2010-10-17T08:58:31Z</time>
      </trkpt>
      <trkpt lat="45.17118" lon="5.22965">
        <ele>378.4</ele>
        <time>2010-10-17T08:58:32Z</time>
      </trkpt>
      <trkpt lat="45.17121" lon="5.22965">
        <ele>378.3</ele>
        <time>2010-10-17T08:58:33Z</time>
      </trkpt>
      <trkpt lat="45.17124" lon="5.22963">
        <ele>378</ele>
        <time>2010-10-17T08:58:34Z</time>
      </trkpt>
      <trkpt lat="45.17126" lon="5.22963">
        <ele>377.8</ele>
        <time>2010-10-17T08:58:35Z</time>
      </trkpt>
      <trkpt lat="45.17128" lon="5.22962">
        <ele>378.2</ele>
        <time>2010-10-17T08:58:35Z</time>
      </trkpt>
      <trkpt lat="45.17131" lon="5.22961">
        <ele>377.8</ele>
        <time>2010-10-17T08:58:36Z</time>
      </trkpt>
      <trkpt lat="45.17133" lon="5.2296">
        <ele>377.8</ele>
        <time>2010-10-17T08:58:38Z</time>
      </trkpt>
      <trkpt lat="45.17136" lon="5.22958">
        <ele>377.5</ele>
        <time>2010-10-17T08:58:39Z</time>
      </trkpt>
      <trkpt lat="45.17138" lon="5.22957">
        <ele>377.6</ele>
        <time>2010-10-17T08:58:40Z</time>
      </trkpt>
      <trkpt lat="45.1714" lon="5.22958">
        <ele>377.2</ele>
        <time>2010-10-17T08:58:41Z</time>
      </trkpt>
      <trkpt lat="45.17144" lon="5.22957">
        <ele>377.7</ele>
        <time>2010-10-17T08:58:42Z</time>
      </trkpt>
      <trkpt lat="45.17146" lon="5.22958">
        <ele>377.6</ele>
        <time>2010-10-17T08:58:43Z</time>
      </trkpt>
      <trkpt lat="45.17148" lon="5.22957">
        <ele>376.7</ele>
        <time>2010-10-17T08:58:44Z</time>
      </trkpt>
      <trkpt lat="45.17151" lon="5.22957">
        <ele>376.9</ele>
        <time>2010-10-17T08:58:45Z</time>
      </trkpt>
      <trkpt lat="45.17154" lon="5.22957">
        <ele>377.3</ele>
        <time>2010-10-17T08:58:46Z</time>
      </trkpt>
      <trkpt lat="45.17157" lon="5.22956">
        <ele>377.1</ele>
        <time>2010-10-17T08:58:47Z</time>
      </trkpt>
      <trkpt lat="45.17159" lon="5.22955">
        <ele>377.3</ele>
        <time>2010-10-17T08:58:48Z</time>
      </trkpt>
      <trkpt lat="45.17161" lon="5.22955">
        <ele>377.9</ele>
        <time>2010-10-17T08:58:49Z</time>
      </trkpt>
      <trkpt lat="45.17162" lon="5.22953">
        <ele>378.1</ele>
        <time>2010-10-17T08:58:50Z</time>
      </trkpt>
      <trkpt lat="45.17165" lon="5.22952">
        <ele>378.3</ele>
        <time>2010-10-17T08:58:51Z</time>
      </trkpt>
      <trkpt lat="45.17168" lon="5.22952">
        <ele>378.7</ele>
        <time>2010-10-17T08:58:52Z</time>
      </trkpt>
      <trkpt lat="45.17171" lon="5.22952">
        <ele>379.2</ele>
        <time>2010-10-17T08:58:53Z</time>
      </trkpt>
      <trkpt lat="45.17172" lon="5.22951">
        <ele>379</ele>
        <time>2010-10-17T08:58:54Z</time>
      </trkpt>
      <trkpt lat="45.17174" lon="5.22949">
        <ele>379.5</ele>
        <time>2010-10-17T08:58:55Z</time>
      </trkpt>
      <trkpt lat="45.17176" lon="5.22948">
        <ele>379.9</ele>
        <time>2010-10-17T08:58:55Z</time>
      </trkpt>
      <trkpt lat="45.17179" lon="5.22948">
        <ele>380.1</ele>
        <time>2010-10-17T08:58:56Z</time>
      </trkpt>
      <trkpt lat="45.17181" lon="5.22947">
        <ele>380.5</ele>
        <time>2010-10-17T08:58:58Z</time>
      </trkpt>
      <trkpt lat="45.17183" lon="5.22945">
        <ele>381.3</ele>
        <time>2010-10-17T08:58:59Z</time>
      </trkpt>
      <trkpt lat="45.17185" lon="5.22944">
        <ele>381.4</ele>
        <time>2010-10-17T08:59:00Z</time>
      </trkpt>
      <trkpt lat="45.17187" lon="5.22943">
        <ele>380.8</ele>
        <time>2010-10-17T08:59:01Z</time>
      </trkpt>
      <trkpt lat="45.17188" lon="5.22942">
        <ele>380.3</ele>
        <time>2010-10-17T08:59:02Z</time>
      </trkpt>
      <trkpt lat="45.1719" lon="5.22942">
        <ele>379.9</ele>
        <time>2010-10-17T08:59:03Z</time>
      </trkpt>
      <trkpt lat="45.17192" lon="5.22941">
        <ele>379.9</ele>
        <time>2010-10-17T08:59:04Z</time>
      </trkpt>
      <trkpt lat="45.17194" lon="5.2294">
        <ele>379.7</ele>
        <time>2010-10-17T08:59:05Z</time>
      </trkpt>
      <trkpt lat="45.17196" lon="5.22941">
        <ele>380.2</ele>
        <time>2010-10-17T08:59:06Z</time>
      </trkpt>
      <trkpt lat="45.17199" lon="5.2294">
        <ele>380.6</ele>
        <time>2010-10-17T08:59:07Z</time>
      </trkpt>
      <trkpt lat="45.17201" lon="5.22939">
        <ele>380.8</ele>
        <time>2010-10-17T08:59:08Z</time>
      </trkpt>
      <trkpt lat="45.17202" lon="5.22938">
        <ele>381</ele>
        <time>2010-10-17T08:59:09Z</time>
      </trkpt>
      <trkpt lat="45.17204" lon="5.22938">
        <ele>381.6</ele>
        <time>2010-10-17T08:59:10Z</time>
      </trkpt>
      <trkpt lat="45.17206" lon="5.22938">
        <ele>381.7</ele>
        <time>2010-10-17T08:59:11Z</time>
      </trkpt>
      <trkpt lat="45.17207" lon="5.22937">
        <ele>382</ele>
        <time>2010-10-17T08:59:12Z</time>
      </trkpt>
      <trkpt lat="45.17209" lon="5.22936">
        <ele>381.7</ele>
        <time>2010-10-17T08:59:13Z</time>
      </trkpt>
      <trkpt lat="45.17212" lon="5.22936">
        <ele>381.5</ele>
        <time>2010-10-17T08:59:14Z</time>
      </trkpt>
      <trkpt lat="45.17214" lon="5.22936">
        <ele>382.5</ele>
        <time>2010-10-17T08:59:15Z</time>
      </trkpt>
      <trkpt lat="45.17216" lon="5.22935">
        <ele>382.5</ele>
        <time>2010-10-17T08:59:15Z</time>
      </trkpt>
      <trkpt lat="45.17219" lon="5.22934">
        <ele>382.2</ele>
        <time>2010-10-17T08:59:17Z</time>
      </trkpt>
      <trkpt lat="45.17221" lon="5.22934">
        <ele>382.2</ele>
        <time>2010-10-17T08:59:18Z</time>
      </trkpt>
      <trkpt lat="45.17222" lon="5.22934">
        <ele>382.6</ele>
        <time>2010-10-17T08:59:19Z</time>
      </trkpt>
      <trkpt lat="45.17224" lon="5.22933">
        <ele>382.6</ele>
        <time>2010-10-17T08:59:20Z</time>
      </trkpt>
      <trkpt lat="45.17226" lon="5.22933">
        <ele>382.5</ele>
        <time>2010-10-17T08:59:21Z</time>
      </trkpt>
      <trkpt lat="45.17228" lon="5.22932">
        <ele>382.4</ele>
        <time>2010-10-17T08:59:23Z</time>
      </trkpt>
      <trkpt lat="45.17232" lon="5.22933">
        <ele>383.3</ele>
        <time>2010-10-17T08:59:24Z</time>
      </trkpt>
      <trkpt lat="45.17235" lon="5.22933">
        <ele>383.4</ele>
        <time>2010-10-17T08:59:25Z</time>
      </trkpt>
      <trkpt lat="45.17238" lon="5.22934">
        <ele>383.1</ele>
        <time>2010-10-17T08:59:26Z</time>
      </trkpt>
      <trkpt lat="45.1724" lon="5.22934">
        <ele>383.4</ele>
        <time>2010-10-17T08:59:27Z</time>
      </trkpt>
      <trkpt lat="45.17242" lon="5.22935">
        <ele>383.6</ele>
        <time>2010-10-17T08:59:28Z</time>
      </trkpt>
      <trkpt lat="45.17244" lon="5.22936">
        <ele>383.6</ele>
        <time>2010-10-17T08:59:29Z</time>
      </trkpt>
      <trkpt lat="45.17247" lon="5.22936">
        <ele>383.8</ele>
        <time>2010-10-17T08:59:30Z</time>
      </trkpt>
      <trkpt lat="45.17249" lon="5.22936">
        <ele>384</ele>
        <time>2010-10-17T08:59:31Z</time>
      </trkpt>
      <trkpt lat="45.17253" lon="5.22937">
        <ele>384.4</ele>
        <time>2010-10-17T08:59:32Z</time>
      </trkpt>
      <trkpt lat="45.17255" lon="5.22938">
        <ele>384.4</ele>
        <time>2010-10-17T08:59:33Z</time>
      </trkpt>
      <trkpt lat="45.17257" lon="5.22938">
        <ele>384.4</ele>
        <time>2010-10-17T08:59:34Z</time>
      </trkpt>
      <trkpt lat="45.17259" lon="5.22938">
        <ele>384.7</ele>
        <time>2010-10-17T08:59:35Z</time>
      </trkpt>
      <trkpt lat="45.17263" lon="5.22939">
        <ele>384.4</ele>
        <time>2010-10-17T08:59:35Z</time>
      </trkpt>
      <trkpt lat="45.17266" lon="5.2294">
        <ele>384.9</ele>
        <time>2010-10-17T08:59:37Z</time>
      </trkpt>
      <trkpt lat="45.17269" lon="5.2294">
        <ele>384.9</ele>
        <time>2010-10-17T08:59:38Z</time>
      </trkpt>
      <trkpt lat="45.17272" lon="5.22941">
        <ele>385.1</ele>
        <time>2010-10-17T08:59:39Z</time>
      </trkpt>
      <trkpt lat="45.17274" lon="5.22939">
        <ele>385.7</ele>
        <time>2010-10-17T08:59:40Z</time>
      </trkpt>
      <trkpt lat="45.17277" lon="5.22939">
        <ele>386.6</ele>
        <time>2010-10-17T08:59:41Z</time>
      </trkpt>
      <trkpt lat="45.17279" lon="5.22938">
        <ele>386</ele>
        <time>2010-10-17T08:59:42Z</time>
      </trkpt>
      <trkpt lat="45.17282" lon="5.22936">
        <ele>385.8</ele>
        <time>2010-10-17T08:59:43Z</time>
      </trkpt>
      <trkpt lat="45.17284" lon="5.22936">
        <ele>386.1</ele>
        <time>2010-10-17T08:59:44Z</time>
      </trkpt>
      <trkpt lat="45.17288" lon="5.22936">
        <ele>386.3</ele>
        <time>2010-10-17T08:59:45Z</time>
      </trkpt>
      <trkpt lat="45.17289" lon="5.22937">
        <ele>386.3</ele>
        <time>2010-10-17T08:59:46Z</time>
      </trkpt>
      <trkpt lat="45.17291" lon="5.22935">
        <ele>385.6</ele>
        <time>2010-10-17T08:59:47Z</time>
      </trkpt>
      <trkpt lat="45.17294" lon="5.22934">
        <ele>385.5</ele>
        <time>2010-10-17T08:59:48Z</time>
      </trkpt>
      <trkpt lat="45.17297" lon="5.22934">
        <ele>385.8</ele>
        <time>2010-10-17T08:59:49Z</time>
      </trkpt>
      <trkpt lat="45.173" lon="5.22933">
        <ele>385.6</ele>
        <time>2010-10-17T08:59:50Z</time>
      </trkpt>
      <trkpt lat="45.17303" lon="5.22932">
        <ele>385.6</ele>
        <time>2010-10-17T08:59:51Z</time>
      </trkpt>
      <trkpt lat="45.17306" lon="5.22932">
        <ele>385.8</ele>
        <time>2010-10-17T08:59:52Z</time>
      </trkpt>
      <trkpt lat="45.17309" lon="5.22932">
        <ele>385.9</ele>
        <time>2010-10-17T08:59:53Z</time>
      </trkpt>
      <trkpt lat="45.17312" lon="5.22932">
        <ele>386</ele>
        <time>2010-10-17T08:59:54Z</time>
      </trkpt>
      <trkpt lat="45.17315" lon="5.22933">
        <ele>386.5</ele>
        <time>2010-10-17T08:59:55Z</time>
      </trkpt>
      <trkpt lat="45.17318" lon="5.22933">
        <ele>386.5</ele>
        <time>2010-10-17T08:59:55Z</time>
      </trkpt>
      <trkpt lat="45.1732" lon="5.22934">
        <ele>386.8</ele>
        <time>2010-10-17T08:59:57Z</time>
      </trkpt>
      <trkpt lat="45.17324" lon="5.22934">
        <ele>387.5</ele>
        <time>2010-10-17T08:59:58Z</time>
      </trkpt>
      <trkpt lat="45.17326" lon="5.22937">
        <ele>387.1</ele>
        <time>2010-10-17T08:59:59Z</time>
      </trkpt>
      <trkpt lat="45.17328" lon="5.22939">
        <ele>387</ele>
        <time>2010-10-17T09:00:00Z</time>
      </trkpt>
      <trkpt lat="45.1733" lon="5.22941">
        <ele>387.1</ele>
        <time>2010-10-17T09:00:01Z</time>
      </trkpt>
      <trkpt lat="45.17333" lon="5.22944">
        <ele>387.1</ele>
        <time>2010-10-17T09:00:02Z</time>
      </trkpt>
      <trkpt lat="45.17334" lon="5.22947">
        <ele>386.7</ele>
        <time>2010-10-17T09:00:03Z</time>
      </trkpt>
      <trkpt lat="45.17336" lon="5.22951">
        <ele>386.8</ele>
        <time>2010-10-17T09:00:04Z</time>
      </trkpt>
      <trkpt lat="45.17337" lon="5.22955">
        <ele>387.5</ele>
        <time>2010-10-17T09:00:05Z</time>
      </trkpt>
      <trkpt lat="45.17337" lon="5.22958">
        <ele>387.3</ele>
        <time>2010-10-17T09:00:06Z</time>
      </trkpt>
      <trkpt lat="45.17338" lon="5.22961">
        <ele>387.2</ele>
        <time>2010-10-17T09:00:07Z</time>
      </trkpt>
      <trkpt lat="45.17339" lon="5.22964">
        <ele>387.4</ele>
        <time>2010-10-17T09:00:08Z</time>
      </trkpt>
      <trkpt lat="45.1734" lon="5.22967">
        <ele>386.7</ele>
        <time>2010-10-17T09:00:09Z</time>
      </trkpt>
      <trkpt lat="45.17341" lon="5.22968">
        <ele>386.4</ele>
        <time>2010-10-17T09:00:10Z</time>
      </trkpt>
      <trkpt lat="45.17341" lon="5.22971">
        <ele>385.5</ele>
        <time>2010-10-17T09:00:11Z</time>
      </trkpt>
      <trkpt lat="45.17341" lon="5.22973">
        <ele>385.7</ele>
        <time>2010-10-17T09:00:12Z</time>
      </trkpt>
      <trkpt lat="45.17341" lon="5.22976">
        <ele>385.7</ele>
        <time>2010-10-17T09:00:13Z</time>
      </trkpt>
      <trkpt lat="45.17342" lon="5.22978">
        <ele>385.4</ele>
        <time>2010-10-17T09:00:14Z</time>
      </trkpt>
      <trkpt lat="45.17341" lon="5.2298">
        <ele>385.8</ele>
        <time>2010-10-17T09:00:15Z</time>
      </trkpt>
      <trkpt lat="45.17339" lon="5.22982">
        <ele>385.4</ele>
        <time>2010-10-17T09:00:15Z</time>
      </trkpt>
      <trkpt lat="45.17338" lon="5.22986">
        <ele>385.5</ele>
        <time>2010-10-17T09:00:17Z</time>
      </trkpt>
      <trkpt lat="45.17337" lon="5.22988">
        <ele>385.3</ele>
        <time>2010-10-17T09:00:18Z</time>
      </trkpt>
      <trkpt lat="45.17335" lon="5.2299">
        <ele>385.4</ele>
        <time>2010-10-17T09:00:19Z</time>
      </trkpt>
      <trkpt lat="45.17333" lon="5.22993">
        <ele>385.6</ele>
        <time>2010-10-17T09:00:20Z</time>
      </trkpt>
      <trkpt lat="45.17331" lon="5.22995">
        <ele>386</ele>
        <time>2010-10-17T09:00:21Z</time>
      </trkpt>
      <trkpt lat="45.17328" lon="5.22998">
        <ele>386</ele>
        <time>2010-10-17T09:00:22Z</time>
      </trkpt>
      <trkpt lat="45.17326" lon="5.23001">
        <ele>386</ele>
        <time>2010-10-17T09:00:23Z</time>
      </trkpt>
      <trkpt lat="45.17323" lon="5.23004">
        <ele>386.4</ele>
        <time>2010-10-17T09:00:24Z</time>
      </trkpt>
      <trkpt lat="45.17321" lon="5.23007">
        <ele>386.7</ele>
        <time>2010-10-17T09:00:25Z</time>
      </trkpt>
      <trkpt lat="45.17318" lon="5.23009">
        <ele>386.8</ele>
        <time>2010-10-17T09:00:26Z</time>
      </trkpt>
      <trkpt lat="45.17316" lon="5.23013">
        <ele>387</ele>
        <time>2010-10-17T09:00:27Z</time>
      </trkpt>
      <trkpt lat="45.17313" lon="5.23016">
        <ele>387.2</ele>
        <time>2010-10-17T09:00:28Z</time>
      </trkpt>
      <trkpt lat="45.17312" lon="5.23018">
        <ele>387.4</ele>
        <time>2010-10-17T09:00:29Z</time>
      </trkpt>
      <trkpt lat="45.1731" lon="5.23021">
        <ele>387.6</ele>
        <time>2010-10-17T09:00:30Z</time>
      </trkpt>
      <trkpt lat="45.17307" lon="5.23023">
        <ele>387.7</ele>
        <time>2010-10-17T09:00:31Z</time>
      </trkpt>
      <trkpt lat="45.17305" lon="5.23026">
        <ele>388</ele>
        <time>2010-10-17T09:00:32Z</time>
      </trkpt>
      <trkpt lat="45.17304" lon="5.23028">
        <ele>387.9</ele>
        <time>2010-10-17T09:00:33Z</time>
      </trkpt>
      <trkpt lat="45.17302" lon="5.2303">
        <ele>388.5</ele>
        <time>2010-10-17T09:00:34Z</time>
      </trkpt>
      <trkpt lat="45.173" lon="5.23032">
        <ele>388.6</ele>
        <time>2010-10-17T09:00:34Z</time>
      </trkpt>
      <trkpt lat="45.17298" lon="5.23034">
        <ele>388.9</ele>
        <time>2010-10-17T09:00:35Z</time>
      </trkpt>
      <trkpt lat="45.17296" lon="5.23036">
        <ele>388.9</ele>
        <time>2010-10-17T09:00:37Z</time>
      </trkpt>
      <trkpt lat="45.17294" lon="5.23039">
        <ele>388.7</ele>
        <time>2010-10-17T09:00:38Z</time>
      </trkpt>
      <trkpt lat="45.17291" lon="5.23041">
        <ele>389.5</ele>
        <time>2010-10-17T09:00:39Z</time>
      </trkpt>
      <trkpt lat="45.17288" lon="5.23043">
        <ele>390.1</ele>
        <time>2010-10-17T09:00:40Z</time>
      </trkpt>
      <trkpt lat="45.17286" lon="5.23046">
        <ele>390.5</ele>
        <time>2010-10-17T09:00:41Z</time>
      </trkpt>
      <trkpt lat="45.17284" lon="5.23048">
        <ele>390.8</ele>
        <time>2010-10-17T09:00:42Z</time>
      </trkpt>
      <trkpt lat="45.17283" lon="5.23052">
        <ele>391.3</ele>
        <time>2010-10-17T09:00:43Z</time>
      </trkpt>
      <trkpt lat="45.1728" lon="5.23055">
        <ele>391.9</ele>
        <time>2010-10-17T09:00:44Z</time>
      </trkpt>
      <trkpt lat="45.17279" lon="5.23057">
        <ele>392.5</ele>
        <time>2010-10-17T09:00:45Z</time>
      </trkpt>
      <trkpt lat="45.17278" lon="5.2306">
        <ele>392.1</ele>
        <time>2010-10-17T09:00:46Z</time>
      </trkpt>
      <trkpt lat="45.17276" lon="5.23063">
        <ele>391.5</ele>
        <time>2010-10-17T09:00:47Z</time>
      </trkpt>
      <trkpt lat="45.17275" lon="5.23066">
        <ele>391.5</ele>
        <time>2010-10-17T09:00:48Z</time>
      </trkpt>
      <trkpt lat="45.17274" lon="5.23069">
        <ele>391.9</ele>
        <time>2010-10-17T09:00:49Z</time>
      </trkpt>
      <trkpt lat="45.17273" lon="5.23072">
        <ele>392</ele>
        <time>2010-10-17T09:00:50Z</time>
      </trkpt>
      <trkpt lat="45.17273" lon="5.23075">
        <ele>391.8</ele>
        <time>2010-10-17T09:00:51Z</time>
      </trkpt>
      <trkpt lat="45.17272" lon="5.23079">
        <ele>391.9</ele>
        <time>2010-10-17T09:00:52Z</time>
      </trkpt>
      <trkpt lat="45.17272" lon="5.2308">
        <ele>391.6</ele>
        <time>2010-10-17T09:00:53Z</time>
      </trkpt>
      <trkpt lat="45.17271" lon="5.23084">
        <ele>392.3</ele>
        <time>2010-10-17T09:00:54Z</time>
      </trkpt>
      <trkpt lat="45.1727" lon="5.23087">
        <ele>392.8</ele>
        <time>2010-10-17T09:00:54Z</time>
      </trkpt>
      <trkpt lat="45.17268" lon="5.23091">
        <ele>392.7</ele>
        <time>2010-10-17T09:00:55Z</time>
      </trkpt>
      <trkpt lat="45.17267" lon="5.23095">
        <ele>392.5</ele>
        <time>2010-10-17T09:00:57Z</time>
      </trkpt>
      <trkpt lat="45.17267" lon="5.23099">
        <ele>392.8</ele>
        <time>2010-10-17T09:00:58Z</time>
      </trkpt>
      <trkpt lat="45.17266" lon="5.23102">
        <ele>392.4</ele>
        <time>2010-10-17T09:00:59Z</time>
      </trkpt>
      <trkpt lat="45.17265" lon="5.23106">
        <ele>392.5</ele>
        <time>2010-10-17T09:01:00Z</time>
      </trkpt>
      <trkpt lat="45.17264" lon="5.23109">
        <ele>392.2</ele>
        <time>2010-10-17T09:01:01Z</time>
      </trkpt>
      <trkpt lat="45.17263" lon="5.23113">
        <ele>392.1</ele>
        <time>2010-10-17T09:01:02Z</time>
      </trkpt>
      <trkpt lat="45.17261" lon="5.23117">
        <ele>391.8</ele>
        <time>2010-10-17T09:01:03Z</time>
      </trkpt>
      <trkpt lat="45.1726" lon="5.23121">
        <ele>391.8</ele>
        <time>2010-10-17T09:01:04Z</time>
      </trkpt>
      <trkpt lat="45.17259" lon="5.23125">
        <ele>392.1</ele>
        <time>2010-10-17T09:01:05Z</time>
      </trkpt>
      <trkpt lat="45.17258" lon="5.23129">
        <ele>392.9</ele>
        <time>2010-10-17T09:01:06Z</time>
      </trkpt>
      <trkpt lat="45.17257" lon="5.23133">
        <ele>393.2</ele>
        <time>2010-10-17T09:01:07Z</time>
      </trkpt>
      <trkpt lat="45.17256" lon="5.23137">
        <ele>393.3</ele>
        <time>2010-10-17T09:01:08Z</time>
      </trkpt>
      <trkpt lat="45.17255" lon="5.2314">
        <ele>393.3</ele>
        <time>2010-10-17T09:01:09Z</time>
      </trkpt>
      <trkpt lat="45.17254" lon="5.23143">
        <ele>393.1</ele>
        <time>2010-10-17T09:01:10Z</time>
      </trkpt>
      <trkpt lat="45.17253" lon="5.23147">
        <ele>393.4</ele>
        <time>2010-10-17T09:01:11Z</time>
      </trkpt>
      <trkpt lat="45.17252" lon="5.23151">
        <ele>393.4</ele>
        <time>2010-10-17T09:01:12Z</time>
      </trkpt>
      <trkpt lat="45.1725" lon="5.23153">
        <ele>393.8</ele>
        <time>2010-10-17T09:01:13Z</time>
      </trkpt>
      <trkpt lat="45.17249" lon="5.23157">
        <ele>393.5</ele>
        <time>2010-10-17T09:01:14Z</time>
      </trkpt>
      <trkpt lat="45.17248" lon="5.2316">
        <ele>393.3</ele>
        <time>2010-10-17T09:01:14Z</time>
      </trkpt>
      <trkpt lat="45.17247" lon="5.23164">
        <ele>393.4</ele>
        <time>2010-10-17T09:01:15Z</time>
      </trkpt>
      <trkpt lat="45.17246" lon="5.23166">
        <ele>393.8</ele>
        <time>2010-10-17T09:01:17Z</time>
      </trkpt>
      <trkpt lat="45.17245" lon="5.2317">
        <ele>393.8</ele>
        <time>2010-10-17T09:01:18Z</time>
      </trkpt>
      <trkpt lat="45.17245" lon="5.23175">
        <ele>393.3</ele>
        <time>2010-10-17T09:01:19Z</time>
      </trkpt>
      <trkpt lat="45.17244" lon="5.23177">
        <ele>393.4</ele>
        <time>2010-10-17T09:01:20Z</time>
      </trkpt>
      <trkpt lat="45.17242" lon="5.2318">
        <ele>393.4</ele>
        <time>2010-10-17T09:01:21Z</time>
      </trkpt>
      <trkpt lat="45.17241" lon="5.23186">
        <ele>393.4</ele>
        <time>2010-10-17T09:01:22Z</time>
      </trkpt>
      <trkpt lat="45.1724" lon="5.23192">
        <ele>393.4</ele>
        <time>2010-10-17T09:01:23Z</time>
      </trkpt>
      <trkpt lat="45.17238" lon="5.23195">
        <ele>393.2</ele>
        <time>2010-10-17T09:01:24Z</time>
      </trkpt>
      <trkpt lat="45.17236" lon="5.23201">
        <ele>393.3</ele>
        <time>2010-10-17T09:01:25Z</time>
      </trkpt>
      <trkpt lat="45.17233" lon="5.23208">
        <ele>392.7</ele>
        <time>2010-10-17T09:01:26Z</time>
      </trkpt>
      <trkpt lat="45.17232" lon="5.23213">
        <ele>391.6</ele>
        <time>2010-10-17T09:01:27Z</time>
      </trkpt>
      <trkpt lat="45.17229" lon="5.23219">
        <ele>391.2</ele>
        <time>2010-10-17T09:01:28Z</time>
      </trkpt>
      <trkpt lat="45.17227" lon="5.23226">
        <ele>390.9</ele>
        <time>2010-10-17T09:01:29Z</time>
      </trkpt>
      <trkpt lat="45.17225" lon="5.23233">
        <ele>390.6</ele>
        <time>2010-10-17T09:01:30Z</time>
      </trkpt>
      <trkpt lat="45.17223" lon="5.2324">
        <ele>389.9</ele>
        <time>2010-10-17T09:01:31Z</time>
      </trkpt>
      <trkpt lat="45.1722" lon="5.23247">
        <ele>389.8</ele>
        <time>2010-10-17T09:01:32Z</time>
      </trkpt>
      <trkpt lat="45.17217" lon="5.23255">
        <ele>389.7</ele>
        <time>2010-10-17T09:01:33Z</time>
      </trkpt>
      <trkpt lat="45.17214" lon="5.23262">
        <ele>389.4</ele>
        <time>2010-10-17T09:01:34Z</time>
      </trkpt>
      <trkpt lat="45.1721" lon="5.2327">
        <ele>389.6</ele>
        <time>2010-10-17T09:01:34Z</time>
      </trkpt>
      <trkpt lat="45.17205" lon="5.23277">
        <ele>389.4</ele>
        <time>2010-10-17T09:01:36Z</time>
      </trkpt>
      <trkpt lat="45.17199" lon="5.23283">
        <ele>389.2</ele>
        <time>2010-10-17T09:01:37Z</time>
      </trkpt>
      <trkpt lat="45.17194" lon="5.23291">
        <ele>389.1</ele>
        <time>2010-10-17T09:01:38Z</time>
      </trkpt>
      <trkpt lat="45.17189" lon="5.23298">
        <ele>388.9</ele>
        <time>2010-10-17T09:01:39Z</time>
      </trkpt>
      <trkpt lat="45.17185" lon="5.23307">
        <ele>388.6</ele>
        <time>2010-10-17T09:01:40Z</time>
      </trkpt>
      <trkpt lat="45.1718" lon="5.23315">
        <ele>388.4</ele>
        <time>2010-10-17T09:01:41Z</time>
      </trkpt>
      <trkpt lat="45.17176" lon="5.23324">
        <ele>389</ele>
        <time>2010-10-17T09:01:42Z</time>
      </trkpt>
      <trkpt lat="45.1717" lon="5.23331">
        <ele>389.3</ele>
        <time>2010-10-17T09:01:43Z</time>
      </trkpt>
      <trkpt lat="45.17163" lon="5.23338">
        <ele>389.3</ele>
        <time>2010-10-17T09:01:44Z</time>
      </trkpt>
      <trkpt lat="45.17155" lon="5.23343">
        <ele>389</ele>
        <time>2010-10-17T09:01:45Z</time>
      </trkpt>
      <trkpt lat="45.17144" lon="5.23348">
        <ele>388.3</ele>
        <time>2010-10-17T09:01:46Z</time>
      </trkpt>
      <trkpt lat="45.17134" lon="5.23352">
        <ele>387.6</ele>
        <time>2010-10-17T09:01:47Z</time>
      </trkpt>
      <trkpt lat="45.17125" lon="5.23358">
        <ele>387.5</ele>
        <time>2010-10-17T09:01:48Z</time>
      </trkpt>
      <trkpt lat="45.17116" lon="5.23363">
        <ele>387.6</ele>
        <time>2010-10-17T09:01:49Z</time>
      </trkpt>
      <trkpt lat="45.17107" lon="5.23369">
        <ele>387.3</ele>
        <time>2010-10-17T09:01:50Z</time>
      </trkpt>
      <trkpt lat="45.17097" lon="5.23376">
        <ele>386.9</ele>
        <time>2010-10-17T09:01:51Z</time>
      </trkpt>
      <trkpt lat="45.17086" lon="5.23382">
        <ele>386.8</ele>
        <time>2010-10-17T09:01:52Z</time>
      </trkpt>
      <trkpt lat="45.17077" lon="5.23388">
        <ele>387.1</ele>
        <time>2010-10-17T09:01:53Z</time>
      </trkpt>
      <trkpt lat="45.17067" lon="5.23393">
        <ele>386.2</ele>
        <time>2010-10-17T09:01:54Z</time>
      </trkpt>
      <trkpt lat="45.17058" lon="5.23399">
        <ele>385.6</ele>
        <time>2010-10-17T09:01:54Z</time>
      </trkpt>
      <trkpt lat="45.17049" lon="5.23403">
        <ele>385.7</ele>
        <time>2010-10-17T09:01:56Z</time>
      </trkpt>
      <trkpt lat="45.17042" lon="5.23406">
        <ele>385.6</ele>
        <time>2010-10-17T09:01:57Z</time>
      </trkpt>
      <trkpt lat="45.17036" lon="5.23414">
        <ele>384.7</ele>
        <time>2010-10-17T09:01:58Z</time>
      </trkpt>
      <trkpt lat="45.17032" lon="5.23421">
        <ele>384.5</ele>
        <time>2010-10-17T09:01:59Z</time>
      </trkpt>
      <trkpt lat="45.17028" lon="5.2343">
        <ele>384.3</ele>
        <time>2010-10-17T09:02:00Z</time>
      </trkpt>
      <trkpt lat="45.17027" lon="5.23439">
        <ele>384</ele>
        <time>2010-10-17T09:02:01Z</time>
      </trkpt>
      <trkpt lat="45.17026" lon="5.23449">
        <ele>383.6</ele>
        <time>2010-10-17T09:02:02Z</time>
      </trkpt>
      <trkpt lat="45.17026" lon="5.2346">
        <ele>383</ele>
        <time>2010-10-17T09:02:03Z</time>
      </trkpt>
      <trkpt lat="45.17025" lon="5.23471">
        <ele>382.3</ele>
        <time>2010-10-17T09:02:04Z</time>
      </trkpt>
      <trkpt lat="45.17025" lon="5.23482">
        <ele>381.6</ele>
        <time>2010-10-17T09:02:05Z</time>
      </trkpt>
      <trkpt lat="45.17024" lon="5.23495">
        <ele>381.4</ele>
        <time>2010-10-17T09:02:06Z</time>
      </trkpt>
      <trkpt lat="45.17023" lon="5.23507">
        <ele>381.3</ele>
        <time>2010-10-17T09:02:07Z</time>
      </trkpt>
      <trkpt lat="45.17021" lon="5.23519">
        <ele>381.3</ele>
        <time>2010-10-17T09:02:08Z</time>
      </trkpt>
      <trkpt lat="45.17021" lon="5.23528">
        <ele>380.6</ele>
        <time>2010-10-17T09:02:09Z</time>
      </trkpt>
      <trkpt lat="45.17021" lon="5.23538">
        <ele>379.8</ele>
        <time>2010-10-17T09:02:10Z</time>
      </trkpt>
      <trkpt lat="45.17021" lon="5.23547">
        <ele>379.3</ele>
        <time>2010-10-17T09:02:11Z</time>
      </trkpt>
      <trkpt lat="45.1702" lon="5.23555">
        <ele>378.9</ele>
        <time>2010-10-17T09:02:12Z</time>
      </trkpt>
      <trkpt lat="45.17018" lon="5.23562">
        <ele>378.7</ele>
        <time>2010-10-17T09:02:13Z</time>
      </trkpt>
      <trkpt lat="45.17017" lon="5.23568">
        <ele>378.7</ele>
        <time>2010-10-17T09:02:14Z</time>
      </trkpt>
      <trkpt lat="45.17016" lon="5.23572">
        <ele>378.2</ele>
        <time>2010-10-17T09:02:14Z</time>
      </trkpt>
      <trkpt lat="45.17009" lon="5.23571">
        <ele>377.6</ele>
        <time>2010-10-17T09:02:16Z</time>
      </trkpt>
      <trkpt lat="45.17006" lon="5.23571">
        <ele>377</ele>
        <time>2010-10-17T09:02:17Z</time>
      </trkpt>
      <trkpt lat="45.17003" lon="5.23571">
        <ele>376.6</ele>
        <time>2010-10-17T09:02:18Z</time>
      </trkpt>
      <trkpt lat="45.16999" lon="5.23572">
        <ele>376.4</ele>
        <time>2010-10-17T09:02:19Z</time>
      </trkpt>
      <trkpt lat="45.16996" lon="5.23573">
        <ele>376.4</ele>
        <time>2010-10-17T09:02:20Z</time>
      </trkpt>
      <trkpt lat="45.16994" lon="5.23576">
        <ele>376.2</ele>
        <time>2010-10-17T09:02:21Z</time>
      </trkpt>
      <trkpt lat="45.16994" lon="5.2358">
        <ele>375.5</ele>
        <time>2010-10-17T09:02:22Z</time>
      </trkpt>
      <trkpt lat="45.16994" lon="5.23585">
        <ele>375</ele>
        <time>2010-10-17T09:02:23Z</time>
      </trkpt>
      <trkpt lat="45.16993" lon="5.2359">
        <ele>374.4</ele>
        <time>2010-10-17T09:02:24Z</time>
      </trkpt>
      <trkpt lat="45.16993" lon="5.23595">
        <ele>374.5</ele>
        <time>2010-10-17T09:02:25Z</time>
      </trkpt>
      <trkpt lat="45.16993" lon="5.23601">
        <ele>374.1</ele>
        <time>2010-10-17T09:02:26Z</time>
      </trkpt>
      <trkpt lat="45.16993" lon="5.23607">
        <ele>373.8</ele>
        <time>2010-10-17T09:02:27Z</time>
      </trkpt>
      <trkpt lat="45.16993" lon="5.23613">
        <ele>373.3</ele>
        <time>2010-10-17T09:02:28Z</time>
      </trkpt>
      <trkpt lat="45.16992" lon="5.23618">
        <ele>372.5</ele>
        <time>2010-10-17T09:02:29Z</time>
      </trkpt>
      <trkpt lat="45.1699" lon="5.23625">
        <ele>372.2</ele>
        <time>2010-10-17T09:02:30Z</time>
      </trkpt>
      <trkpt lat="45.16989" lon="5.23632">
        <ele>372.3</ele>
        <time>2010-10-17T09:02:31Z</time>
      </trkpt>
      <trkpt lat="45.16986" lon="5.23637">
        <ele>371.7</ele>
        <time>2010-10-17T09:02:32Z</time>
      </trkpt>
      <trkpt lat="45.16983" lon="5.23642">
        <ele>371.6</ele>
        <time>2010-10-17T09:02:33Z</time>
      </trkpt>
      <trkpt lat="45.16981" lon="5.23648">
        <ele>371.3</ele>
        <time>2010-10-17T09:02:34Z</time>
      </trkpt>
      <trkpt lat="45.16978" lon="5.23652">
        <ele>371.3</ele>
        <time>2010-10-17T09:02:34Z</time>
      </trkpt>
      <trkpt lat="45.16976" lon="5.23656">
        <ele>371.2</ele>
        <time>2010-10-17T09:02:36Z</time>
      </trkpt>
      <trkpt lat="45.16974" lon="5.2366">
        <ele>370.9</ele>
        <time>2010-10-17T09:02:37Z</time>
      </trkpt>
      <trkpt lat="45.16971" lon="5.23665">
        <ele>370.6</ele>
        <time>2010-10-17T09:02:38Z</time>
      </trkpt>
      <trkpt lat="45.16969" lon="5.23669">
        <ele>370</ele>
        <time>2010-10-17T09:02:39Z</time>
      </trkpt>
      <trkpt lat="45.16966" lon="5.23673">
        <ele>369.8</ele>
        <time>2010-10-17T09:02:40Z</time>
      </trkpt>
      <trkpt lat="45.16964" lon="5.23676">
        <ele>369.5</ele>
        <time>2010-10-17T09:02:41Z</time>
      </trkpt>
      <trkpt lat="45.16961" lon="5.23678">
        <ele>369.5</ele>
        <time>2010-10-17T09:02:42Z</time>
      </trkpt>
      <trkpt lat="45.16959" lon="5.2368">
        <ele>369.6</ele>
        <time>2010-10-17T09:02:43Z</time>
      </trkpt>
      <trkpt lat="45.16957" lon="5.23682">
        <ele>369.4</ele>
        <time>2010-10-17T09:02:44Z</time>
      </trkpt>
      <trkpt lat="45.16954" lon="5.23684">
        <ele>369.4</ele>
        <time>2010-10-17T09:02:45Z</time>
      </trkpt>
      <trkpt lat="45.1695" lon="5.23686">
        <ele>369</ele>
        <time>2010-10-17T09:02:46Z</time>
      </trkpt>
      <trkpt lat="45.16948" lon="5.23689">
        <ele>368.6</ele>
        <time>2010-10-17T09:02:47Z</time>
      </trkpt>
      <trkpt lat="45.16946" lon="5.23692">
        <ele>368.4</ele>
        <time>2010-10-17T09:02:48Z</time>
      </trkpt>
      <trkpt lat="45.16945" lon="5.23695">
        <ele>368.1</ele>
        <time>2010-10-17T09:02:49Z</time>
      </trkpt>
      <trkpt lat="45.16943" lon="5.23698">
        <ele>368.4</ele>
        <time>2010-10-17T09:02:50Z</time>
      </trkpt>
      <trkpt lat="45.16942" lon="5.23703">
        <ele>368.4</ele>
        <time>2010-10-17T09:02:51Z</time>
      </trkpt>
      <trkpt lat="45.16944" lon="5.23706">
        <ele>368.1</ele>
        <time>2010-10-17T09:02:52Z</time>
      </trkpt>
      <trkpt lat="45.16946" lon="5.23709">
        <ele>367.6</ele>
        <time>2010-10-17T09:02:53Z</time>
      </trkpt>
      <trkpt lat="45.16948" lon="5.2371">
        <ele>367</ele>
        <time>2010-10-17T09:02:53Z</time>
      </trkpt>
      <trkpt lat="45.1695" lon="5.23712">
        <ele>367.2</ele>
        <time>2010-10-17T09:02:54Z</time>
      </trkpt>
      <trkpt lat="45.16952" lon="5.23713">
        <ele>366.9</ele>
        <time>2010-10-17T09:02:56Z</time>
      </trkpt>
      <trkpt lat="45.16956" lon="5.23714">
        <ele>366.7</ele>
        <time>2010-10-17T09:02:57Z</time>
      </trkpt>
      <trkpt lat="45.1696" lon="5.23715">
        <ele>366.4</ele>
        <time>2010-10-17T09:02:58Z</time>
      </trkpt>
      <trkpt lat="45.16962" lon="5.23714">
        <ele>365.4</ele>
        <time>2010-10-17T09:02:59Z</time>
      </trkpt>
      <trkpt lat="45.16965" lon="5.23714">
        <ele>364.9</ele>
        <time>2010-10-17T09:03:00Z</time>
      </trkpt>
      <trkpt lat="45.16968" lon="5.23712">
        <ele>364.2</ele>
        <time>2010-10-17T09:03:01Z</time>
      </trkpt>
      <trkpt lat="45.16972" lon="5.23711">
        <ele>364.1</ele>
        <time>2010-10-17T09:03:02Z</time>
      </trkpt>
      <trkpt lat="45.16976" lon="5.23711">
        <ele>364.2</ele>
        <time>2010-10-17T09:03:03Z</time>
      </trkpt>
      <trkpt lat="45.16978" lon="5.23711">
        <ele>363.9</ele>
        <time>2010-10-17T09:03:04Z</time>
      </trkpt>
      <trkpt lat="45.16982" lon="5.2371">
        <ele>363.7</ele>
        <time>2010-10-17T09:03:05Z</time>
      </trkpt>
      <trkpt lat="45.16986" lon="5.23709">
        <ele>363.5</ele>
        <time>2010-10-17T09:03:06Z</time>
      </trkpt>
      <trkpt lat="45.16989" lon="5.23708">
        <ele>362.9</ele>
        <time>2010-10-17T09:03:07Z</time>
      </trkpt>
      <trkpt lat="45.16993" lon="5.23706">
        <ele>363.3</ele>
        <time>2010-10-17T09:03:08Z</time>
      </trkpt>
      <trkpt lat="45.16997" lon="5.23705">
        <ele>362.7</ele>
        <time>2010-10-17T09:03:09Z</time>
      </trkpt>
      <trkpt lat="45.17001" lon="5.23704">
        <ele>361.8</ele>
        <time>2010-10-17T09:03:10Z</time>
      </trkpt>
      <trkpt lat="45.17004" lon="5.23703">
        <ele>359.9</ele>
        <time>2010-10-17T09:03:11Z</time>
      </trkpt>
      <trkpt lat="45.17008" lon="5.23703">
        <ele>359.5</ele>
        <time>2010-10-17T09:03:12Z</time>
      </trkpt>
      <trkpt lat="45.17012" lon="5.23703">
        <ele>359.3</ele>
        <time>2010-10-17T09:03:13Z</time>
      </trkpt>
      <trkpt lat="45.17014" lon="5.23706">
        <ele>358.7</ele>
        <time>2010-10-17T09:03:13Z</time>
      </trkpt>
      <trkpt lat="45.17018" lon="5.23707">
        <ele>358.1</ele>
        <time>2010-10-17T09:03:14Z</time>
      </trkpt>
      <trkpt lat="45.17022" lon="5.23709">
        <ele>358.6</ele>
        <time>2010-10-17T09:03:16Z</time>
      </trkpt>
      <trkpt lat="45.17025" lon="5.23711">
        <ele>358.5</ele>
        <time>2010-10-17T09:03:17Z</time>
      </trkpt>
      <trkpt lat="45.17028" lon="5.23713">
        <ele>358.4</ele>
        <time>2010-10-17T09:03:18Z</time>
      </trkpt>
      <trkpt lat="45.17033" lon="5.23715">
        <ele>358.3</ele>
        <time>2010-10-17T09:03:19Z</time>
      </trkpt>
      <trkpt lat="45.17038" lon="5.23717">
        <ele>358.4</ele>
        <time>2010-10-17T09:03:20Z</time>
      </trkpt>
      <trkpt lat="45.17044" lon="5.23719">
        <ele>358.8</ele>
        <time>2010-10-17T09:03:21Z</time>
      </trkpt>
      <trkpt lat="45.17049" lon="5.23721">
        <ele>358.5</ele>
        <time>2010-10-17T09:03:22Z</time>
      </trkpt>
      <trkpt lat="45.17053" lon="5.2372">
        <ele>358.5</ele>
        <time>2010-10-17T09:03:23Z</time>
      </trkpt>
      <trkpt lat="45.17056" lon="5.23721">
        <ele>358.1</ele>
        <time>2010-10-17T09:03:24Z</time>
      </trkpt>
      <trkpt lat="45.17059" lon="5.23723">
        <ele>357.8</ele>
        <time>2010-10-17T09:03:25Z</time>
      </trkpt>
      <trkpt lat="45.17061" lon="5.23726">
        <ele>357.9</ele>
        <time>2010-10-17T09:03:26Z</time>
      </trkpt>
      <trkpt lat="45.17064" lon="5.23729">
        <ele>358.1</ele>
        <time>2010-10-17T09:03:27Z</time>
      </trkpt>
      <trkpt lat="45.17066" lon="5.23732">
        <ele>357.8</ele>
        <time>2010-10-17T09:03:28Z</time>
      </trkpt>
      <trkpt lat="45.17067" lon="5.23735">
        <ele>358.4</ele>
        <time>2010-10-17T09:03:29Z</time>
      </trkpt>
      <trkpt lat="45.17069" lon="5.23738">
        <ele>358.3</ele>
        <time>2010-10-17T09:03:30Z</time>
      </trkpt>
      <trkpt lat="45.17069" lon="5.23741">
        <ele>358.2</ele>
        <time>2010-10-17T09:03:31Z</time>
      </trkpt>
      <trkpt lat="45.17068" lon="5.23743">
        <ele>357.9</ele>
        <time>2010-10-17T09:03:32Z</time>
      </trkpt>
      <trkpt lat="45.17068" lon="5.23747">
        <ele>357.4</ele>
        <time>2010-10-17T09:03:33Z</time>
      </trkpt>
      <trkpt lat="45.17068" lon="5.23749">
        <ele>357.1</ele>
        <time>2010-10-17T09:03:33Z</time>
      </trkpt>
      <trkpt lat="45.17068" lon="5.23752">
        <ele>357.1</ele>
        <time>2010-10-17T09:03:34Z</time>
      </trkpt>
      <trkpt lat="45.17069" lon="5.23755">
        <ele>356.9</ele>
        <time>2010-10-17T09:03:36Z</time>
      </trkpt>
      <trkpt lat="45.1707" lon="5.23758">
        <ele>357</ele>
        <time>2010-10-17T09:03:37Z</time>
      </trkpt>
      <trkpt lat="45.1707" lon="5.23759">
        <ele>357</ele>
        <time>2010-10-17T09:03:40Z</time>
      </trkpt>
      <trkpt lat="45.1707" lon="5.23764">
        <ele>356.5</ele>
        <time>2010-10-17T09:03:41Z</time>
      </trkpt>
      <trkpt lat="45.1707" lon="5.23767">
        <ele>356.3</ele>
        <time>2010-10-17T09:03:42Z</time>
      </trkpt>
      <trkpt lat="45.17069" lon="5.23771">
        <ele>355.7</ele>
        <time>2010-10-17T09:03:43Z</time>
      </trkpt>
      <trkpt lat="45.17068" lon="5.23775">
        <ele>355.6</ele>
        <time>2010-10-17T09:03:44Z</time>
      </trkpt>
      <trkpt lat="45.17068" lon="5.23777">
        <ele>355.3</ele>
        <time>2010-10-17T09:03:45Z</time>
      </trkpt>
      <trkpt lat="45.17068" lon="5.23779">
        <ele>354.9</ele>
        <time>2010-10-17T09:03:46Z</time>
      </trkpt>
      <trkpt lat="45.17069" lon="5.23783">
        <ele>354.6</ele>
        <time>2010-10-17T09:03:47Z</time>
      </trkpt>
      <trkpt lat="45.17067" lon="5.23786">
        <ele>354.7</ele>
        <time>2010-10-17T09:03:48Z</time>
      </trkpt>
      <trkpt lat="45.17069" lon="5.23787">
        <ele>354.8</ele>
        <time>2010-10-17T09:03:49Z</time>
      </trkpt>
      <trkpt lat="45.17069" lon="5.2379">
        <ele>354.3</ele>
        <time>2010-10-17T09:03:50Z</time>
      </trkpt>
      <trkpt lat="45.17069" lon="5.23793">
        <ele>354.3</ele>
        <time>2010-10-17T09:03:51Z</time>
      </trkpt>
      <trkpt lat="45.17068" lon="5.23795">
        <ele>354.1</ele>
        <time>2010-10-17T09:03:52Z</time>
      </trkpt>
      <trkpt lat="45.17068" lon="5.23798">
        <ele>354.2</ele>
        <time>2010-10-17T09:03:53Z</time>
      </trkpt>
      <trkpt lat="45.17067" lon="5.23799">
        <ele>354.1</ele>
        <time>2010-10-17T09:03:53Z</time>
      </trkpt>
      <trkpt lat="45.17067" lon="5.23801">
        <ele>354.3</ele>
        <time>2010-10-17T09:03:55Z</time>
      </trkpt>
      <trkpt lat="45.17066" lon="5.23804">
        <ele>354.3</ele>
        <time>2010-10-17T09:03:56Z</time>
      </trkpt>
      <trkpt lat="45.17065" lon="5.23806">
        <ele>354.4</ele>
        <time>2010-10-17T09:03:57Z</time>
      </trkpt>
      <trkpt lat="45.17065" lon="5.23809">
        <ele>354.5</ele>
        <time>2010-10-17T09:03:58Z</time>
      </trkpt>
      <trkpt lat="45.17064" lon="5.23812">
        <ele>354.8</ele>
        <time>2010-10-17T09:03:59Z</time>
      </trkpt>
      <trkpt lat="45.17064" lon="5.23814">
        <ele>354.6</ele>
        <time>2010-10-17T09:04:00Z</time>
      </trkpt>
      <trkpt lat="45.17063" lon="5.23817">
        <ele>354.9</ele>
        <time>2010-10-17T09:04:01Z</time>
      </trkpt>
      <trkpt lat="45.17063" lon="5.23819">
        <ele>354.8</ele>
        <time>2010-10-17T09:04:02Z</time>
      </trkpt>
      <trkpt lat="45.17063" lon="5.23822">
        <ele>354.8</ele>
        <time>2010-10-17T09:04:03Z</time>
      </trkpt>
      <trkpt lat="45.17063" lon="5.23825">
        <ele>354.7</ele>
        <time>2010-10-17T09:04:04Z</time>
      </trkpt>
      <trkpt lat="45.17063" lon="5.23828">
        <ele>354.7</ele>
        <time>2010-10-17T09:04:05Z</time>
      </trkpt>
      <trkpt lat="45.17063" lon="5.2383">
        <ele>354.6</ele>
        <time>2010-10-17T09:04:06Z</time>
      </trkpt>
      <trkpt lat="45.17063" lon="5.23833">
        <ele>354.7</ele>
        <time>2010-10-17T09:04:07Z</time>
      </trkpt>
      <trkpt lat="45.17063" lon="5.23836">
        <ele>355</ele>
        <time>2010-10-17T09:04:08Z</time>
      </trkpt>
      <trkpt lat="45.17061" lon="5.23841">
        <ele>355</ele>
        <time>2010-10-17T09:04:09Z</time>
      </trkpt>
      <trkpt lat="45.17059" lon="5.23844">
        <ele>355.2</ele>
        <time>2010-10-17T09:04:10Z</time>
      </trkpt>
      <trkpt lat="45.17059" lon="5.23846">
        <ele>355.4</ele>
        <time>2010-10-17T09:04:11Z</time>
      </trkpt>
      <trkpt lat="45.17058" lon="5.23847">
        <ele>355.3</ele>
        <time>2010-10-17T09:04:12Z</time>
      </trkpt>
      <trkpt lat="45.17056" lon="5.23849">
        <ele>355.5</ele>
        <time>2010-10-17T09:04:13Z</time>
      </trkpt>
      <trkpt lat="45.17055" lon="5.23852">
        <ele>355.5</ele>
        <time>2010-10-17T09:04:13Z</time>
      </trkpt>
      <trkpt lat="45.17054" lon="5.23855">
        <ele>355.6</ele>
        <time>2010-10-17T09:04:15Z</time>
      </trkpt>
      <trkpt lat="45.17054" lon="5.23856">
        <ele>355.6</ele>
        <time>2010-10-17T09:04:16Z</time>
      </trkpt>
      <trkpt lat="45.17053" lon="5.23858">
        <ele>356.2</ele>
        <time>2010-10-17T09:04:17Z</time>
      </trkpt>
      <trkpt lat="45.17052" lon="5.2386">
        <ele>356.3</ele>
        <time>2010-10-17T09:04:18Z</time>
      </trkpt>
      <trkpt lat="45.1705" lon="5.23862">
        <ele>356.5</ele>
        <time>2010-10-17T09:04:19Z</time>
      </trkpt>
      <trkpt lat="45.17049" lon="5.23863">
        <ele>356.8</ele>
        <time>2010-10-17T09:04:20Z</time>
      </trkpt>
      <trkpt lat="45.17047" lon="5.23866">
        <ele>356.8</ele>
        <time>2010-10-17T09:04:22Z</time>
      </trkpt>
      <trkpt lat="45.17046" lon="5.23868">
        <ele>357</ele>
        <time>2010-10-17T09:04:23Z</time>
      </trkpt>
      <trkpt lat="45.17045" lon="5.23869">
        <ele>357.5</ele>
        <time>2010-10-17T09:04:24Z</time>
      </trkpt>
      <trkpt lat="45.17043" lon="5.2387">
        <ele>358.3</ele>
        <time>2010-10-17T09:04:25Z</time>
      </trkpt>
      <trkpt lat="45.17042" lon="5.23871">
        <ele>358.3</ele>
        <time>2010-10-17T09:04:26Z</time>
      </trkpt>
      <trkpt lat="45.1704" lon="5.23872">
        <ele>357.7</ele>
        <time>2010-10-17T09:04:28Z</time>
      </trkpt>
      <trkpt lat="45.17039" lon="5.23874">
        <ele>358.1</ele>
        <time>2010-10-17T09:04:29Z</time>
      </trkpt>
      <trkpt lat="45.17038" lon="5.23874">
        <ele>358.7</ele>
        <time>2010-10-17T09:04:30Z</time>
      </trkpt>
      <trkpt lat="45.17035" lon="5.23873">
        <ele>358.4</ele>
        <time>2010-10-17T09:04:31Z</time>
      </trkpt>
      <trkpt lat="45.17034" lon="5.23874">
        <ele>358.6</ele>
        <time>2010-10-17T09:04:33Z</time>
      </trkpt>
      <trkpt lat="45.17032" lon="5.23875">
        <ele>358.4</ele>
        <time>2010-10-17T09:04:33Z</time>
      </trkpt>
      <trkpt lat="45.17031" lon="5.23877">
        <ele>358.6</ele>
        <time>2010-10-17T09:04:35Z</time>
      </trkpt>
      <trkpt lat="45.17029" lon="5.23878">
        <ele>358.4</ele>
        <time>2010-10-17T09:04:36Z</time>
      </trkpt>
      <trkpt lat="45.17027" lon="5.23878">
        <ele>358.5</ele>
        <time>2010-10-17T09:04:37Z</time>
      </trkpt>
      <trkpt lat="45.17025" lon="5.2388">
        <ele>358.6</ele>
        <time>2010-10-17T09:04:39Z</time>
      </trkpt>
      <trkpt lat="45.17024" lon="5.23881">
        <ele>358.7</ele>
        <time>2010-10-17T09:04:40Z</time>
      </trkpt>
      <trkpt lat="45.17024" lon="5.23882">
        <ele>358.7</ele>
        <time>2010-10-17T09:04:41Z</time>
      </trkpt>
      <trkpt lat="45.17021" lon="5.23883">
        <ele>358.2</ele>
        <time>2010-10-17T09:04:43Z</time>
      </trkpt>
      <trkpt lat="45.17019" lon="5.23884">
        <ele>358</ele>
        <time>2010-10-17T09:04:44Z</time>
      </trkpt>
      <trkpt lat="45.17017" lon="5.23886">
        <ele>358.4</ele>
        <time>2010-10-17T09:04:46Z</time>
      </trkpt>
      <trkpt lat="45.17017" lon="5.23887">
        <ele>358.7</ele>
        <time>2010-10-17T09:04:47Z</time>
      </trkpt>
      <trkpt lat="45.17015" lon="5.23888">
        <ele>358.5</ele>
        <time>2010-10-17T09:04:48Z</time>
      </trkpt>
      <trkpt lat="45.17014" lon="5.2389">
        <ele>358.5</ele>
        <time>2010-10-17T09:04:50Z</time>
      </trkpt>
      <trkpt lat="45.1701" lon="5.23891">
        <ele>357.9</ele>
        <time>2010-10-17T09:04:51Z</time>
      </trkpt>
      <trkpt lat="45.17009" lon="5.23894">
        <ele>357.6</ele>
        <time>2010-10-17T09:04:52Z</time>
      </trkpt>
      <trkpt lat="45.17006" lon="5.23895">
        <ele>357.4</ele>
        <time>2010-10-17T09:04:53Z</time>
      </trkpt>
      <trkpt lat="45.17005" lon="5.23896">
        <ele>357.2</ele>
        <time>2010-10-17T09:04:53Z</time>
      </trkpt>
      <trkpt lat="45.17003" lon="5.23899">
        <ele>356.8</ele>
        <time>2010-10-17T09:04:55Z</time>
      </trkpt>
      <trkpt lat="45.16999" lon="5.23901">
        <ele>357</ele>
        <time>2010-10-17T09:04:56Z</time>
      </trkpt>
      <trkpt lat="45.16996" lon="5.23903">
        <ele>357.6</ele>
        <time>2010-10-17T09:04:57Z</time>
      </trkpt>
      <trkpt lat="45.16993" lon="5.23904">
        <ele>357.7</ele>
        <time>2010-10-17T09:04:58Z</time>
      </trkpt>
      <trkpt lat="45.16991" lon="5.23905">
        <ele>357.9</ele>
        <time>2010-10-17T09:04:59Z</time>
      </trkpt>
      <trkpt lat="45.16988" lon="5.23906">
        <ele>357.9</ele>
        <time>2010-10-17T09:05:00Z</time>
      </trkpt>
      <trkpt lat="45.16987" lon="5.23908">
        <ele>358.2</ele>
        <time>2010-10-17T09:05:01Z</time>
      </trkpt>
      <trkpt lat="45.16984" lon="5.23909">
        <ele>358.2</ele>
        <time>2010-10-17T09:05:02Z</time>
      </trkpt>
      <trkpt lat="45.16983" lon="5.2391">
        <ele>358.4</ele>
        <time>2010-10-17T09:05:03Z</time>
      </trkpt>
      <trkpt lat="45.16981" lon="5.23911">
        <ele>359.1</ele>
        <time>2010-10-17T09:05:04Z</time>
      </trkpt>
      <trkpt lat="45.16981" lon="5.23913">
        <ele>358.9</ele>
        <time>2010-10-17T09:05:05Z</time>
      </trkpt>
      <trkpt lat="45.16979" lon="5.23914">
        <ele>359.7</ele>
        <time>2010-10-17T09:05:06Z</time>
      </trkpt>
      <trkpt lat="45.16977" lon="5.23915">
        <ele>360.1</ele>
        <time>2010-10-17T09:05:07Z</time>
      </trkpt>
      <trkpt lat="45.16976" lon="5.23917">
        <ele>360.7</ele>
        <time>2010-10-17T09:05:08Z</time>
      </trkpt>
      <trkpt lat="45.16974" lon="5.23919">
        <ele>361.4</ele>
        <time>2010-10-17T09:05:09Z</time>
      </trkpt>
      <trkpt lat="45.16973" lon="5.23921">
        <ele>361.5</ele>
        <time>2010-10-17T09:05:10Z</time>
      </trkpt>
      <trkpt lat="45.16973" lon="5.23923">
        <ele>361.6</ele>
        <time>2010-10-17T09:05:11Z</time>
      </trkpt>
      <trkpt lat="45.16971" lon="5.23925">
        <ele>361</ele>
        <time>2010-10-17T09:05:12Z</time>
      </trkpt>
      <trkpt lat="45.16971" lon="5.23926">
        <ele>361.6</ele>
        <time>2010-10-17T09:05:12Z</time>
      </trkpt>
      <trkpt lat="45.1697" lon="5.23928">
        <ele>361.2</ele>
        <time>2010-10-17T09:05:13Z</time>
      </trkpt>
      <trkpt lat="45.16969" lon="5.2393">
        <ele>363</ele>
        <time>2010-10-17T09:05:15Z</time>
      </trkpt>
      <trkpt lat="45.16967" lon="5.23933">
        <ele>363.7</ele>
        <time>2010-10-17T09:05:16Z</time>
      </trkpt>
      <trkpt lat="45.16966" lon="5.23936">
        <ele>364.3</ele>
        <time>2010-10-17T09:05:17Z</time>
      </trkpt>
      <trkpt lat="45.16966" lon="5.23937">
        <ele>364.6</ele>
        <time>2010-10-17T09:05:18Z</time>
      </trkpt>
      <trkpt lat="45.16965" lon="5.23939">
        <ele>365</ele>
        <time>2010-10-17T09:05:19Z</time>
      </trkpt>
      <trkpt lat="45.16964" lon="5.23941">
        <ele>366.5</ele>
        <time>2010-10-17T09:05:20Z</time>
      </trkpt>
      <trkpt lat="45.16964" lon="5.23943">
        <ele>366.9</ele>
        <time>2010-10-17T09:05:21Z</time>
      </trkpt>
      <trkpt lat="45.16963" lon="5.23946">
        <ele>367.7</ele>
        <time>2010-10-17T09:05:22Z</time>
      </trkpt>
      <trkpt lat="45.16963" lon="5.23948">
        <ele>367.8</ele>
        <time>2010-10-17T09:05:23Z</time>
      </trkpt>
      <trkpt lat="45.16962" lon="5.23951">
        <ele>368.4</ele>
        <time>2010-10-17T09:05:24Z</time>
      </trkpt>
      <trkpt lat="45.16962" lon="5.23954">
        <ele>369.4</ele>
        <time>2010-10-17T09:05:25Z</time>
      </trkpt>
      <trkpt lat="45.16961" lon="5.23956">
        <ele>369.3</ele>
        <time>2010-10-17T09:05:26Z</time>
      </trkpt>
      <trkpt lat="45.16961" lon="5.23959">
        <ele>369.6</ele>
        <time>2010-10-17T09:05:27Z</time>
      </trkpt>
      <trkpt lat="45.16961" lon="5.23961">
        <ele>369.4</ele>
        <time>2010-10-17T09:05:28Z</time>
      </trkpt>
      <trkpt lat="45.16961" lon="5.23964">
        <ele>369.3</ele>
        <time>2010-10-17T09:05:29Z</time>
      </trkpt>
      <trkpt lat="45.16961" lon="5.23966">
        <ele>369.5</ele>
        <time>2010-10-17T09:05:30Z</time>
      </trkpt>
      <trkpt lat="45.16961" lon="5.23968">
        <ele>369.9</ele>
        <time>2010-10-17T09:05:31Z</time>
      </trkpt>
      <trkpt lat="45.16961" lon="5.2397">
        <ele>369.9</ele>
        <time>2010-10-17T09:05:32Z</time>
      </trkpt>
      <trkpt lat="45.1696" lon="5.23973">
        <ele>370.5</ele>
        <time>2010-10-17T09:05:32Z</time>
      </trkpt>
      <trkpt lat="45.1696" lon="5.23977">
        <ele>371.5</ele>
        <time>2010-10-17T09:05:33Z</time>
      </trkpt>
      <trkpt lat="45.1696" lon="5.23981">
        <ele>371.4</ele>
        <time>2010-10-17T09:05:35Z</time>
      </trkpt>
      <trkpt lat="45.1696" lon="5.23984">
        <ele>371.5</ele>
        <time>2010-10-17T09:05:36Z</time>
      </trkpt>
      <trkpt lat="45.1696" lon="5.23986">
        <ele>371.8</ele>
        <time>2010-10-17T09:05:37Z</time>
      </trkpt>
      <trkpt lat="45.16959" lon="5.23988">
        <ele>372</ele>
        <time>2010-10-17T09:05:38Z</time>
      </trkpt>
      <trkpt lat="45.1696" lon="5.23991">
        <ele>372.2</ele>
        <time>2010-10-17T09:05:39Z</time>
      </trkpt>
      <trkpt lat="45.16961" lon="5.23994">
        <ele>372.6</ele>
        <time>2010-10-17T09:05:40Z</time>
      </trkpt>
      <trkpt lat="45.16961" lon="5.23997">
        <ele>372.8</ele>
        <time>2010-10-17T09:05:41Z</time>
      </trkpt>
      <trkpt lat="45.1696" lon="5.23999">
        <ele>373.8</ele>
        <time>2010-10-17T09:05:42Z</time>
      </trkpt>
      <trkpt lat="45.1696" lon="5.23999">
        <ele>373.9</ele>
        <time>2010-10-17T09:05:45Z</time>
      </trkpt>
      <trkpt lat="45.1696" lon="5.24001">
        <ele>374</ele>
        <time>2010-10-17T09:05:46Z</time>
      </trkpt>
      <trkpt lat="45.1696" lon="5.24001">
        <ele>374.2</ele>
        <time>2010-10-17T09:05:49Z</time>
      </trkpt>
      <trkpt lat="45.1696" lon="5.24003">
        <ele>374.3</ele>
        <time>2010-10-17T09:05:51Z</time>
      </trkpt>
      <trkpt lat="45.16961" lon="5.24008">
        <ele>373.6</ele>
        <time>2010-10-17T09:05:52Z</time>
      </trkpt>
      <trkpt lat="45.16962" lon="5.24013">
        <ele>373.5</ele>
        <time>2010-10-17T09:05:52Z</time>
      </trkpt>
      <trkpt lat="45.16963" lon="5.24017">
        <ele>373.9</ele>
        <time>2010-10-17T09:05:53Z</time>
      </trkpt>
      <trkpt lat="45.16962" lon="5.2402">
        <ele>374.2</ele>
        <time>2010-10-17T09:05:55Z</time>
      </trkpt>
      <trkpt lat="45.16962" lon="5.24024">
        <ele>374.9</ele>
        <time>2010-10-17T09:05:56Z</time>
      </trkpt>
      <trkpt lat="45.16962" lon="5.24027">
        <ele>375.2</ele>
        <time>2010-10-17T09:05:57Z</time>
      </trkpt>
      <trkpt lat="45.16962" lon="5.2403">
        <ele>375.4</ele>
        <time>2010-10-17T09:05:58Z</time>
      </trkpt>
      <trkpt lat="45.16962" lon="5.24033">
        <ele>374.9</ele>
        <time>2010-10-17T09:05:59Z</time>
      </trkpt>
      <trkpt lat="45.16962" lon="5.24036">
        <ele>375.3</ele>
        <time>2010-10-17T09:06:00Z</time>
      </trkpt>
      <trkpt lat="45.16962" lon="5.24038">
        <ele>374.8</ele>
        <time>2010-10-17T09:06:01Z</time>
      </trkpt>
      <trkpt lat="45.16962" lon="5.24041">
        <ele>374.9</ele>
        <time>2010-10-17T09:06:02Z</time>
      </trkpt>
      <trkpt lat="45.16962" lon="5.24044">
        <ele>375.2</ele>
        <time>2010-10-17T09:06:03Z</time>
      </trkpt>
      <trkpt lat="45.16962" lon="5.24047">
        <ele>375.1</ele>
        <time>2010-10-17T09:06:04Z</time>
      </trkpt>
      <trkpt lat="45.16962" lon="5.24049">
        <ele>374.9</ele>
        <time>2010-10-17T09:06:05Z</time>
      </trkpt>
      <trkpt lat="45.16961" lon="5.24053">
        <ele>374.8</ele>
        <time>2010-10-17T09:06:06Z</time>
      </trkpt>
      <trkpt lat="45.16961" lon="5.24056">
        <ele>374.6</ele>
        <time>2010-10-17T09:06:07Z</time>
      </trkpt>
      <trkpt lat="45.16961" lon="5.24057">
        <ele>374.8</ele>
        <time>2010-10-17T09:06:08Z</time>
      </trkpt>
      <trkpt lat="45.1696" lon="5.2406">
        <ele>374.7</ele>
        <time>2010-10-17T09:06:09Z</time>
      </trkpt>
      <trkpt lat="45.1696" lon="5.24062">
        <ele>374.5</ele>
        <time>2010-10-17T09:06:10Z</time>
      </trkpt>
      <trkpt lat="45.16958" lon="5.24065">
        <ele>374.5</ele>
        <time>2010-10-17T09:06:11Z</time>
      </trkpt>
      <trkpt lat="45.16956" lon="5.24068">
        <ele>374.5</ele>
        <time>2010-10-17T09:06:12Z</time>
      </trkpt>
      <trkpt lat="45.16954" lon="5.24069">
        <ele>374.7</ele>
        <time>2010-10-17T09:06:12Z</time>
      </trkpt>
      <trkpt lat="45.16952" lon="5.24072">
        <ele>374.8</ele>
        <time>2010-10-17T09:06:14Z</time>
      </trkpt>
      <trkpt lat="45.16951" lon="5.24074">
        <ele>374.6</ele>
        <time>2010-10-17T09:06:15Z</time>
      </trkpt>
      <trkpt lat="45.1695" lon="5.24076">
        <ele>375</ele>
        <time>2010-10-17T09:06:16Z</time>
      </trkpt>
      <trkpt lat="45.16948" lon="5.24079">
        <ele>375.4</ele>
        <time>2010-10-17T09:06:17Z</time>
      </trkpt>
      <trkpt lat="45.16947" lon="5.24081">
        <ele>375.6</ele>
        <time>2010-10-17T09:06:18Z</time>
      </trkpt>
      <trkpt lat="45.16945" lon="5.24082">
        <ele>375.7</ele>
        <time>2010-10-17T09:06:19Z</time>
      </trkpt>
      <trkpt lat="45.16943" lon="5.24084">
        <ele>375.8</ele>
        <time>2010-10-17T09:06:20Z</time>
      </trkpt>
      <trkpt lat="45.16941" lon="5.24085">
        <ele>375.2</ele>
        <time>2010-10-17T09:06:21Z</time>
      </trkpt>
      <trkpt lat="45.16939" lon="5.24087">
        <ele>374.8</ele>
        <time>2010-10-17T09:06:22Z</time>
      </trkpt>
      <trkpt lat="45.16937" lon="5.2409">
        <ele>374.3</ele>
        <time>2010-10-17T09:06:24Z</time>
      </trkpt>
      <trkpt lat="45.16936" lon="5.24091">
        <ele>374.1</ele>
        <time>2010-10-17T09:06:25Z</time>
      </trkpt>
      <trkpt lat="45.16935" lon="5.24092">
        <ele>373.9</ele>
        <time>2010-10-17T09:06:26Z</time>
      </trkpt>
      <trkpt lat="45.16934" lon="5.24093">
        <ele>374.3</ele>
        <time>2010-10-17T09:06:27Z</time>
      </trkpt>
      <trkpt lat="45.16932" lon="5.24095">
        <ele>374.3</ele>
        <time>2010-10-17T09:06:28Z</time>
      </trkpt>
      <trkpt lat="45.1693" lon="5.24096">
        <ele>374.1</ele>
        <time>2010-10-17T09:06:29Z</time>
      </trkpt>
      <trkpt lat="45.16929" lon="5.24098">
        <ele>374.2</ele>
        <time>2010-10-17T09:06:30Z</time>
      </trkpt>
      <trkpt lat="45.16928" lon="5.24099">
        <ele>374.1</ele>
        <time>2010-10-17T09:06:31Z</time>
      </trkpt>
      <trkpt lat="45.16926" lon="5.241">
        <ele>374.6</ele>
        <time>2010-10-17T09:06:32Z</time>
      </trkpt>
      <trkpt lat="45.16926" lon="5.24102">
        <ele>375.1</ele>
        <time>2010-10-17T09:06:32Z</time>
      </trkpt>
      <trkpt lat="45.16924" lon="5.24103">
        <ele>375.4</ele>
        <time>2010-10-17T09:06:34Z</time>
      </trkpt>
      <trkpt lat="45.16924" lon="5.24104">
        <ele>375.5</ele>
        <time>2010-10-17T09:06:35Z</time>
      </trkpt>
      <trkpt lat="45.16923" lon="5.24106">
        <ele>375.8</ele>
        <time>2010-10-17T09:06:36Z</time>
      </trkpt>
      <trkpt lat="45.16922" lon="5.24108">
        <ele>375.6</ele>
        <time>2010-10-17T09:06:37Z</time>
      </trkpt>
      <trkpt lat="45.16921" lon="5.24111">
        <ele>375.9</ele>
        <time>2010-10-17T09:06:38Z</time>
      </trkpt>
      <trkpt lat="45.1692" lon="5.24112">
        <ele>376.2</ele>
        <time>2010-10-17T09:06:39Z</time>
      </trkpt>
      <trkpt lat="45.1692" lon="5.24114">
        <ele>376.1</ele>
        <time>2010-10-17T09:06:40Z</time>
      </trkpt>
      <trkpt lat="45.16919" lon="5.24116">
        <ele>376.4</ele>
        <time>2010-10-17T09:06:41Z</time>
      </trkpt>
      <trkpt lat="45.16919" lon="5.24118">
        <ele>376.3</ele>
        <time>2010-10-17T09:06:42Z</time>
      </trkpt>
      <trkpt lat="45.16919" lon="5.24122">
        <ele>376.4</ele>
        <time>2010-10-17T09:06:43Z</time>
      </trkpt>
      <trkpt lat="45.16919" lon="5.24124">
        <ele>376.4</ele>
        <time>2010-10-17T09:06:44Z</time>
      </trkpt>
      <trkpt lat="45.16919" lon="5.24126">
        <ele>376.5</ele>
        <time>2010-10-17T09:06:45Z</time>
      </trkpt>
      <trkpt lat="45.16918" lon="5.24129">
        <ele>376.6</ele>
        <time>2010-10-17T09:06:46Z</time>
      </trkpt>
      <trkpt lat="45.16917" lon="5.24132">
        <ele>376.9</ele>
        <time>2010-10-17T09:06:47Z</time>
      </trkpt>
      <trkpt lat="45.16917" lon="5.24135">
        <ele>376.5</ele>
        <time>2010-10-17T09:06:48Z</time>
      </trkpt>
      <trkpt lat="45.16917" lon="5.24138">
        <ele>376.2</ele>
        <time>2010-10-17T09:06:49Z</time>
      </trkpt>
      <trkpt lat="45.16917" lon="5.24141">
        <ele>376</ele>
        <time>2010-10-17T09:06:50Z</time>
      </trkpt>
      <trkpt lat="45.16915" lon="5.24144">
        <ele>375.7</ele>
        <time>2010-10-17T09:06:51Z</time>
      </trkpt>
      <trkpt lat="45.16915" lon="5.24146">
        <ele>375.6</ele>
        <time>2010-10-17T09:06:52Z</time>
      </trkpt>
      <trkpt lat="45.16913" lon="5.24149">
        <ele>375.8</ele>
        <time>2010-10-17T09:06:52Z</time>
      </trkpt>
      <trkpt lat="45.16912" lon="5.24152">
        <ele>375.9</ele>
        <time>2010-10-17T09:06:54Z</time>
      </trkpt>
      <trkpt lat="45.16911" lon="5.24156">
        <ele>375.9</ele>
        <time>2010-10-17T09:06:55Z</time>
      </trkpt>
      <trkpt lat="45.16911" lon="5.24161">
        <ele>375.5</ele>
        <time>2010-10-17T09:06:56Z</time>
      </trkpt>
      <trkpt lat="45.16909" lon="5.24165">
        <ele>375.3</ele>
        <time>2010-10-17T09:06:57Z</time>
      </trkpt>
      <trkpt lat="45.16908" lon="5.2417">
        <ele>375.5</ele>
        <time>2010-10-17T09:06:58Z</time>
      </trkpt>
      <trkpt lat="45.16907" lon="5.24175">
        <ele>375.9</ele>
        <time>2010-10-17T09:06:59Z</time>
      </trkpt>
      <trkpt lat="45.16905" lon="5.24182">
        <ele>376.3</ele>
        <time>2010-10-17T09:07:00Z</time>
      </trkpt>
      <trkpt lat="45.16905" lon="5.24189">
        <ele>376.2</ele>
        <time>2010-10-17T09:07:01Z</time>
      </trkpt>
      <trkpt lat="45.16904" lon="5.24202">
        <ele>376.6</ele>
        <time>2010-10-17T09:07:02Z</time>
      </trkpt>
      <trkpt lat="45.16904" lon="5.24214">
        <ele>377.4</ele>
        <time>2010-10-17T09:07:03Z</time>
      </trkpt>
      <trkpt lat="45.16904" lon="5.24226">
        <ele>378.3</ele>
        <time>2010-10-17T09:07:04Z</time>
      </trkpt>
      <trkpt lat="45.16904" lon="5.24236">
        <ele>378</ele>
        <time>2010-10-17T09:07:05Z</time>
      </trkpt>
      <trkpt lat="45.16904" lon="5.24248">
        <ele>378</ele>
        <time>2010-10-17T09:07:06Z</time>
      </trkpt>
      <trkpt lat="45.16904" lon="5.24258">
        <ele>378.1</ele>
        <time>2010-10-17T09:07:07Z</time>
      </trkpt>
      <trkpt lat="45.16905" lon="5.24268">
        <ele>378.4</ele>
        <time>2010-10-17T09:07:08Z</time>
      </trkpt>
      <trkpt lat="45.16906" lon="5.2428">
        <ele>378.1</ele>
        <time>2010-10-17T09:07:09Z</time>
      </trkpt>
      <trkpt lat="45.16906" lon="5.2429">
        <ele>377.7</ele>
        <time>2010-10-17T09:07:10Z</time>
      </trkpt>
      <trkpt lat="45.16905" lon="5.24298">
        <ele>377.9</ele>
        <time>2010-10-17T09:07:11Z</time>
      </trkpt>
      <trkpt lat="45.16903" lon="5.24305">
        <ele>378.4</ele>
        <time>2010-10-17T09:07:11Z</time>
      </trkpt>
      <trkpt lat="45.16903" lon="5.24312">
        <ele>377.7</ele>
        <time>2010-10-17T09:07:12Z</time>
      </trkpt>
      <trkpt lat="45.16903" lon="5.24318">
        <ele>378.1</ele>
        <time>2010-10-17T09:07:14Z</time>
      </trkpt>
      <trkpt lat="45.16903" lon="5.24323">
        <ele>377.2</ele>
        <time>2010-10-17T09:07:15Z</time>
      </trkpt>
      <trkpt lat="45.16904" lon="5.24329">
        <ele>376.7</ele>
        <time>2010-10-17T09:07:16Z</time>
      </trkpt>
      <trkpt lat="45.16904" lon="5.24334">
        <ele>376</ele>
        <time>2010-10-17T09:07:17Z</time>
      </trkpt>
      <trkpt lat="45.16904" lon="5.24338">
        <ele>375.5</ele>
        <time>2010-10-17T09:07:18Z</time>
      </trkpt>
      <trkpt lat="45.16904" lon="5.24346">
        <ele>375</ele>
        <time>2010-10-17T09:07:19Z</time>
      </trkpt>
      <trkpt lat="45.16905" lon="5.24351">
        <ele>374.7</ele>
        <time>2010-10-17T09:07:20Z</time>
      </trkpt>
      <trkpt lat="45.16906" lon="5.24359">
        <ele>374.5</ele>
        <time>2010-10-17T09:07:21Z</time>
      </trkpt>
      <trkpt lat="45.16908" lon="5.24367">
        <ele>374.2</ele>
        <time>2010-10-17T09:07:22Z</time>
      </trkpt>
      <trkpt lat="45.1691" lon="5.24375">
        <ele>374</ele>
        <time>2010-10-17T09:07:23Z</time>
      </trkpt>
      <trkpt lat="45.16913" lon="5.24382">
        <ele>373.4</ele>
        <time>2010-10-17T09:07:24Z</time>
      </trkpt>
      <trkpt lat="45.16916" lon="5.24389">
        <ele>373.6</ele>
        <time>2010-10-17T09:07:25Z</time>
      </trkpt>
      <trkpt lat="45.1692" lon="5.24395">
        <ele>372.8</ele>
        <time>2010-10-17T09:07:26Z</time>
      </trkpt>
      <trkpt lat="45.16924" lon="5.24402">
        <ele>371.9</ele>
        <time>2010-10-17T09:07:27Z</time>
      </trkpt>
      <trkpt lat="45.16926" lon="5.24407">
        <ele>371.5</ele>
        <time>2010-10-17T09:07:28Z</time>
      </trkpt>
      <trkpt lat="45.16928" lon="5.24414">
        <ele>371</ele>
        <time>2010-10-17T09:07:29Z</time>
      </trkpt>
      <trkpt lat="45.16929" lon="5.2442">
        <ele>369.9</ele>
        <time>2010-10-17T09:07:30Z</time>
      </trkpt>
      <trkpt lat="45.1693" lon="5.24425">
        <ele>369.4</ele>
        <time>2010-10-17T09:07:31Z</time>
      </trkpt>
      <trkpt lat="45.16929" lon="5.24429">
        <ele>368.9</ele>
        <time>2010-10-17T09:07:31Z</time>
      </trkpt>
      <trkpt lat="45.16929" lon="5.24434">
        <ele>368.7</ele>
        <time>2010-10-17T09:07:32Z</time>
      </trkpt>
      <trkpt lat="45.16927" lon="5.24437">
        <ele>368.6</ele>
        <time>2010-10-17T09:07:34Z</time>
      </trkpt>
      <trkpt lat="45.16925" lon="5.24437">
        <ele>368.7</ele>
        <time>2010-10-17T09:07:35Z</time>
      </trkpt>
      <trkpt lat="45.16921" lon="5.24439">
        <ele>368.4</ele>
        <time>2010-10-17T09:07:36Z</time>
      </trkpt>
      <trkpt lat="45.16915" lon="5.24443">
        <ele>368.5</ele>
        <time>2010-10-17T09:07:37Z</time>
      </trkpt>
      <trkpt lat="45.1691" lon="5.24444">
        <ele>368</ele>
        <time>2010-10-17T09:07:38Z</time>
      </trkpt>
      <trkpt lat="45.16905" lon="5.24445">
        <ele>367.7</ele>
        <time>2010-10-17T09:07:39Z</time>
      </trkpt>
      <trkpt lat="45.16899" lon="5.24446">
        <ele>367.7</ele>
        <time>2010-10-17T09:07:40Z</time>
      </trkpt>
      <trkpt lat="45.16894" lon="5.24447">
        <ele>367.2</ele>
        <time>2010-10-17T09:07:41Z</time>
      </trkpt>
      <trkpt lat="45.1689" lon="5.24446">
        <ele>367</ele>
        <time>2010-10-17T09:07:42Z</time>
      </trkpt>
      <trkpt lat="45.16888" lon="5.24447">
        <ele>366.9</ele>
        <time>2010-10-17T09:07:43Z</time>
      </trkpt>
      <trkpt lat="45.16885" lon="5.24448">
        <ele>366.6</ele>
        <time>2010-10-17T09:07:44Z</time>
      </trkpt>
      <trkpt lat="45.16882" lon="5.24447">
        <ele>366.4</ele>
        <time>2010-10-17T09:07:45Z</time>
      </trkpt>
      <trkpt lat="45.16879" lon="5.24446">
        <ele>366</ele>
        <time>2010-10-17T09:07:46Z</time>
      </trkpt>
      <trkpt lat="45.16877" lon="5.24443">
        <ele>365.7</ele>
        <time>2010-10-17T09:07:47Z</time>
      </trkpt>
      <trkpt lat="45.16875" lon="5.24444">
        <ele>365.7</ele>
        <time>2010-10-17T09:07:48Z</time>
      </trkpt>
      <trkpt lat="45.16873" lon="5.24445">
        <ele>365.7</ele>
        <time>2010-10-17T09:07:49Z</time>
      </trkpt>
      <trkpt lat="45.16871" lon="5.24447">
        <ele>365.6</ele>
        <time>2010-10-17T09:07:50Z</time>
      </trkpt>
      <trkpt lat="45.1687" lon="5.24447">
        <ele>365.6</ele>
        <time>2010-10-17T09:07:51Z</time>
      </trkpt>
      <trkpt lat="45.16869" lon="5.24447">
        <ele>365.8</ele>
        <time>2010-10-17T09:07:51Z</time>
      </trkpt>
      <trkpt lat="45.16868" lon="5.24447">
        <ele>365.7</ele>
        <time>2010-10-17T09:07:52Z</time>
      </trkpt>
      <trkpt lat="45.16866" lon="5.24447">
        <ele>365.5</ele>
        <time>2010-10-17T09:07:54Z</time>
      </trkpt>
      <trkpt lat="45.16863" lon="5.24447">
        <ele>365.4</ele>
        <time>2010-10-17T09:07:56Z</time>
      </trkpt>
      <trkpt lat="45.16864" lon="5.24448">
        <ele>365.2</ele>
        <time>2010-10-17T09:07:57Z</time>
      </trkpt>
      <trkpt lat="45.16863" lon="5.24449">
        <ele>365.1</ele>
        <time>2010-10-17T09:07:58Z</time>
      </trkpt>
      <trkpt lat="45.1686" lon="5.24451">
        <ele>365.1</ele>
        <time>2010-10-17T09:07:59Z</time>
      </trkpt>
      <trkpt lat="45.16859" lon="5.24452">
        <ele>365</ele>
        <time>2010-10-17T09:08:00Z</time>
      </trkpt>
      <trkpt lat="45.16857" lon="5.24455">
        <ele>364.6</ele>
        <time>2010-10-17T09:08:01Z</time>
      </trkpt>
      <trkpt lat="45.16857" lon="5.24458">
        <ele>364.7</ele>
        <time>2010-10-17T09:08:02Z</time>
      </trkpt>
      <trkpt lat="45.16854" lon="5.24463">
        <ele>364.3</ele>
        <time>2010-10-17T09:08:03Z</time>
      </trkpt>
      <trkpt lat="45.16853" lon="5.24465">
        <ele>364.4</ele>
        <time>2010-10-17T09:08:04Z</time>
      </trkpt>
      <trkpt lat="45.16852" lon="5.24467">
        <ele>364.3</ele>
        <time>2010-10-17T09:08:05Z</time>
      </trkpt>
      <trkpt lat="45.16853" lon="5.24469">
        <ele>364.6</ele>
        <time>2010-10-17T09:08:06Z</time>
      </trkpt>
      <trkpt lat="45.16853" lon="5.24471">
        <ele>364.7</ele>
        <time>2010-10-17T09:08:07Z</time>
      </trkpt>
      <trkpt lat="45.16851" lon="5.24474">
        <ele>365.5</ele>
        <time>2010-10-17T09:08:08Z</time>
      </trkpt>
      <trkpt lat="45.16852" lon="5.24476">
        <ele>365.4</ele>
        <time>2010-10-17T09:08:09Z</time>
      </trkpt>
      <trkpt lat="45.16851" lon="5.24479">
        <ele>365.3</ele>
        <time>2010-10-17T09:08:10Z</time>
      </trkpt>
      <trkpt lat="45.16851" lon="5.24481">
        <ele>365.8</ele>
        <time>2010-10-17T09:08:11Z</time>
      </trkpt>
      <trkpt lat="45.1685" lon="5.24483">
        <ele>366</ele>
        <time>2010-10-17T09:08:11Z</time>
      </trkpt>
      <trkpt lat="45.16849" lon="5.24485">
        <ele>366.3</ele>
        <time>2010-10-17T09:08:12Z</time>
      </trkpt>
      <trkpt lat="45.16847" lon="5.24488">
        <ele>366.3</ele>
        <time>2010-10-17T09:08:14Z</time>
      </trkpt>
      <trkpt lat="45.16847" lon="5.2449">
        <ele>366.4</ele>
        <time>2010-10-17T09:08:15Z</time>
      </trkpt>
      <trkpt lat="45.16845" lon="5.24494">
        <ele>366.5</ele>
        <time>2010-10-17T09:08:16Z</time>
      </trkpt>
      <trkpt lat="45.16843" lon="5.24497">
        <ele>366.5</ele>
        <time>2010-10-17T09:08:17Z</time>
      </trkpt>
      <trkpt lat="45.16842" lon="5.245">
        <ele>367.1</ele>
        <time>2010-10-17T09:08:18Z</time>
      </trkpt>
      <trkpt lat="45.16841" lon="5.24504">
        <ele>366.9</ele>
        <time>2010-10-17T09:08:19Z</time>
      </trkpt>
      <trkpt lat="45.16842" lon="5.24506">
        <ele>366.9</ele>
        <time>2010-10-17T09:08:20Z</time>
      </trkpt>
      <trkpt lat="45.1684" lon="5.24508">
        <ele>366.6</ele>
        <time>2010-10-17T09:08:21Z</time>
      </trkpt>
      <trkpt lat="45.1684" lon="5.2451">
        <ele>366.7</ele>
        <time>2010-10-17T09:08:22Z</time>
      </trkpt>
      <trkpt lat="45.16839" lon="5.24512">
        <ele>366.7</ele>
        <time>2010-10-17T09:08:23Z</time>
      </trkpt>
      <trkpt lat="45.16839" lon="5.24515">
        <ele>367.4</ele>
        <time>2010-10-17T09:08:24Z</time>
      </trkpt>
      <trkpt lat="45.16839" lon="5.24517">
        <ele>368</ele>
        <time>2010-10-17T09:08:25Z</time>
      </trkpt>
      <trkpt lat="45.16838" lon="5.2452">
        <ele>368</ele>
        <time>2010-10-17T09:08:26Z</time>
      </trkpt>
      <trkpt lat="45.16837" lon="5.24524">
        <ele>369.3</ele>
        <time>2010-10-17T09:08:27Z</time>
      </trkpt>
      <trkpt lat="45.16837" lon="5.24526">
        <ele>369.5</ele>
        <time>2010-10-17T09:08:28Z</time>
      </trkpt>
      <trkpt lat="45.16836" lon="5.24528">
        <ele>369.5</ele>
        <time>2010-10-17T09:08:29Z</time>
      </trkpt>
      <trkpt lat="45.16835" lon="5.24529">
        <ele>369.4</ele>
        <time>2010-10-17T09:08:31Z</time>
      </trkpt>
      <trkpt lat="45.16835" lon="5.24534">
        <ele>370</ele>
        <time>2010-10-17T09:08:33Z</time>
      </trkpt>
      <trkpt lat="45.16835" lon="5.24538">
        <ele>370.9</ele>
        <time>2010-10-17T09:08:34Z</time>
      </trkpt>
      <trkpt lat="45.16834" lon="5.2454">
        <ele>371.9</ele>
        <time>2010-10-17T09:08:35Z</time>
      </trkpt>
      <trkpt lat="45.16834" lon="5.24543">
        <ele>373.1</ele>
        <time>2010-10-17T09:08:36Z</time>
      </trkpt>
      <trkpt lat="45.16833" lon="5.24546">
        <ele>374</ele>
        <time>2010-10-17T09:08:37Z</time>
      </trkpt>
      <trkpt lat="45.16833" lon="5.24549">
        <ele>374.1</ele>
        <time>2010-10-17T09:08:38Z</time>
      </trkpt>
      <trkpt lat="45.16833" lon="5.24552">
        <ele>374.7</ele>
        <time>2010-10-17T09:08:39Z</time>
      </trkpt>
      <trkpt lat="45.16832" lon="5.24555">
        <ele>374.5</ele>
        <time>2010-10-17T09:08:40Z</time>
      </trkpt>
      <trkpt lat="45.1683" lon="5.24558">
        <ele>375</ele>
        <time>2010-10-17T09:08:41Z</time>
      </trkpt>
      <trkpt lat="45.16829" lon="5.24561">
        <ele>374.2</ele>
        <time>2010-10-17T09:08:42Z</time>
      </trkpt>
      <trkpt lat="45.16829" lon="5.24564">
        <ele>373.9</ele>
        <time>2010-10-17T09:08:43Z</time>
      </trkpt>
      <trkpt lat="45.16828" lon="5.24566">
        <ele>374</ele>
        <time>2010-10-17T09:08:44Z</time>
      </trkpt>
      <trkpt lat="45.16827" lon="5.2457">
        <ele>373.7</ele>
        <time>2010-10-17T09:08:45Z</time>
      </trkpt>
      <trkpt lat="45.16826" lon="5.24574">
        <ele>373.6</ele>
        <time>2010-10-17T09:08:46Z</time>
      </trkpt>
      <trkpt lat="45.16826" lon="5.24579">
        <ele>373.4</ele>
        <time>2010-10-17T09:08:47Z</time>
      </trkpt>
      <trkpt lat="45.16824" lon="5.24581">
        <ele>374.6</ele>
        <time>2010-10-17T09:08:48Z</time>
      </trkpt>
      <trkpt lat="45.16823" lon="5.24586">
        <ele>375.2</ele>
        <time>2010-10-17T09:08:49Z</time>
      </trkpt>
      <trkpt lat="45.16822" lon="5.24589">
        <ele>375.2</ele>
        <time>2010-10-17T09:08:50Z</time>
      </trkpt>
      <trkpt lat="45.16821" lon="5.24593">
        <ele>376.2</ele>
        <time>2010-10-17T09:08:51Z</time>
      </trkpt>
      <trkpt lat="45.16819" lon="5.24597">
        <ele>376.5</ele>
        <time>2010-10-17T09:08:51Z</time>
      </trkpt>
      <trkpt lat="45.16819" lon="5.246">
        <ele>377.1</ele>
        <time>2010-10-17T09:08:53Z</time>
      </trkpt>
      <trkpt lat="45.16818" lon="5.24604">
        <ele>377.7</ele>
        <time>2010-10-17T09:08:54Z</time>
      </trkpt>
      <trkpt lat="45.16818" lon="5.2461">
        <ele>377.5</ele>
        <time>2010-10-17T09:08:55Z</time>
      </trkpt>
      <trkpt lat="45.16817" lon="5.24614">
        <ele>377</ele>
        <time>2010-10-17T09:08:56Z</time>
      </trkpt>
      <trkpt lat="45.16816" lon="5.24617">
        <ele>377.1</ele>
        <time>2010-10-17T09:08:57Z</time>
      </trkpt>
      <trkpt lat="45.16815" lon="5.24622">
        <ele>376.7</ele>
        <time>2010-10-17T09:08:58Z</time>
      </trkpt>
      <trkpt lat="45.16815" lon="5.24626">
        <ele>377</ele>
        <time>2010-10-17T09:08:59Z</time>
      </trkpt>
      <trkpt lat="45.16814" lon="5.24629">
        <ele>376.8</ele>
        <time>2010-10-17T09:09:00Z</time>
      </trkpt>
      <trkpt lat="45.16814" lon="5.24632">
        <ele>377.4</ele>
        <time>2010-10-17T09:09:01Z</time>
      </trkpt>
      <trkpt lat="45.16813" lon="5.24635">
        <ele>376.4</ele>
        <time>2010-10-17T09:09:02Z</time>
      </trkpt>
      <trkpt lat="45.16812" lon="5.24639">
        <ele>376.5</ele>
        <time>2010-10-17T09:09:03Z</time>
      </trkpt>
      <trkpt lat="45.16812" lon="5.24643">
        <ele>376.6</ele>
        <time>2010-10-17T09:09:04Z</time>
      </trkpt>
      <trkpt lat="45.1681" lon="5.24647">
        <ele>378.4</ele>
        <time>2010-10-17T09:09:05Z</time>
      </trkpt>
      <trkpt lat="45.16809" lon="5.2465">
        <ele>378.6</ele>
        <time>2010-10-17T09:09:06Z</time>
      </trkpt>
      <trkpt lat="45.16809" lon="5.24653">
        <ele>378.1</ele>
        <time>2010-10-17T09:09:07Z</time>
      </trkpt>
      <trkpt lat="45.16808" lon="5.24656">
        <ele>377.9</ele>
        <time>2010-10-17T09:09:08Z</time>
      </trkpt>
      <trkpt lat="45.16807" lon="5.2466">
        <ele>377.7</ele>
        <time>2010-10-17T09:09:09Z</time>
      </trkpt>
      <trkpt lat="45.16806" lon="5.24664">
        <ele>378.2</ele>
        <time>2010-10-17T09:09:10Z</time>
      </trkpt>
      <trkpt lat="45.16806" lon="5.24668">
        <ele>377.9</ele>
        <time>2010-10-17T09:09:11Z</time>
      </trkpt>
      <trkpt lat="45.16806" lon="5.24671">
        <ele>377.6</ele>
        <time>2010-10-17T09:09:11Z</time>
      </trkpt>
      <trkpt lat="45.16805" lon="5.24673">
        <ele>377.5</ele>
        <time>2010-10-17T09:09:13Z</time>
      </trkpt>
      <trkpt lat="45.16804" lon="5.24677">
        <ele>377.2</ele>
        <time>2010-10-17T09:09:14Z</time>
      </trkpt>
      <trkpt lat="45.16803" lon="5.24681">
        <ele>377.6</ele>
        <time>2010-10-17T09:09:15Z</time>
      </trkpt>
      <trkpt lat="45.16803" lon="5.24686">
        <ele>377.6</ele>
        <time>2010-10-17T09:09:16Z</time>
      </trkpt>
      <trkpt lat="45.16802" lon="5.2469">
        <ele>378</ele>
        <time>2010-10-17T09:09:17Z</time>
      </trkpt>
      <trkpt lat="45.16801" lon="5.24694">
        <ele>378</ele>
        <time>2010-10-17T09:09:18Z</time>
      </trkpt>
      <trkpt lat="45.168" lon="5.24698">
        <ele>377.7</ele>
        <time>2010-10-17T09:09:19Z</time>
      </trkpt>
      <trkpt lat="45.16799" lon="5.24702">
        <ele>377.6</ele>
        <time>2010-10-17T09:09:20Z</time>
      </trkpt>
      <trkpt lat="45.16798" lon="5.24706">
        <ele>377.8</ele>
        <time>2010-10-17T09:09:21Z</time>
      </trkpt>
      <trkpt lat="45.16797" lon="5.2471">
        <ele>377.8</ele>
        <time>2010-10-17T09:09:22Z</time>
      </trkpt>
      <trkpt lat="45.16796" lon="5.24714">
        <ele>377.8</ele>
        <time>2010-10-17T09:09:23Z</time>
      </trkpt>
      <trkpt lat="45.16794" lon="5.24717">
        <ele>377.8</ele>
        <time>2010-10-17T09:09:24Z</time>
      </trkpt>
      <trkpt lat="45.16793" lon="5.2472">
        <ele>378</ele>
        <time>2010-10-17T09:09:25Z</time>
      </trkpt>
      <trkpt lat="45.16791" lon="5.24724">
        <ele>378.1</ele>
        <time>2010-10-17T09:09:26Z</time>
      </trkpt>
      <trkpt lat="45.16791" lon="5.24728">
        <ele>378</ele>
        <time>2010-10-17T09:09:27Z</time>
      </trkpt>
      <trkpt lat="45.16791" lon="5.24733">
        <ele>378.2</ele>
        <time>2010-10-17T09:09:28Z</time>
      </trkpt>
      <trkpt lat="45.1679" lon="5.24737">
        <ele>378.3</ele>
        <time>2010-10-17T09:09:29Z</time>
      </trkpt>
      <trkpt lat="45.1679" lon="5.2474">
        <ele>378.5</ele>
        <time>2010-10-17T09:09:30Z</time>
      </trkpt>
      <trkpt lat="45.16789" lon="5.24742">
        <ele>378.6</ele>
        <time>2010-10-17T09:09:30Z</time>
      </trkpt>
      <trkpt lat="45.16787" lon="5.24745">
        <ele>378.8</ele>
        <time>2010-10-17T09:09:31Z</time>
      </trkpt>
      <trkpt lat="45.16786" lon="5.24749">
        <ele>379</ele>
        <time>2010-10-17T09:09:33Z</time>
      </trkpt>
      <trkpt lat="45.16785" lon="5.24752">
        <ele>378.8</ele>
        <time>2010-10-17T09:09:34Z</time>
      </trkpt>
      <trkpt lat="45.16785" lon="5.24756">
        <ele>378.5</ele>
        <time>2010-10-17T09:09:35Z</time>
      </trkpt>
      <trkpt lat="45.16785" lon="5.2476">
        <ele>378.4</ele>
        <time>2010-10-17T09:09:36Z</time>
      </trkpt>
      <trkpt lat="45.16784" lon="5.24764">
        <ele>378.6</ele>
        <time>2010-10-17T09:09:37Z</time>
      </trkpt>
      <trkpt lat="45.16783" lon="5.24767">
        <ele>379</ele>
        <time>2010-10-17T09:09:38Z</time>
      </trkpt>
      <trkpt lat="45.16782" lon="5.24769">
        <ele>378.7</ele>
        <time>2010-10-17T09:09:39Z</time>
      </trkpt>
      <trkpt lat="45.1678" lon="5.24772">
        <ele>378.6</ele>
        <time>2010-10-17T09:09:40Z</time>
      </trkpt>
      <trkpt lat="45.16779" lon="5.24775">
        <ele>378.6</ele>
        <time>2010-10-17T09:09:41Z</time>
      </trkpt>
      <trkpt lat="45.16778" lon="5.24777">
        <ele>378.1</ele>
        <time>2010-10-17T09:09:42Z</time>
      </trkpt>
      <trkpt lat="45.16777" lon="5.24781">
        <ele>377.9</ele>
        <time>2010-10-17T09:09:43Z</time>
      </trkpt>
      <trkpt lat="45.16774" lon="5.24785">
        <ele>377.5</ele>
        <time>2010-10-17T09:09:44Z</time>
      </trkpt>
      <trkpt lat="45.16773" lon="5.24788">
        <ele>378</ele>
        <time>2010-10-17T09:09:45Z</time>
      </trkpt>
      <trkpt lat="45.1677" lon="5.24791">
        <ele>378</ele>
        <time>2010-10-17T09:09:46Z</time>
      </trkpt>
      <trkpt lat="45.16767" lon="5.24795">
        <ele>377.7</ele>
        <time>2010-10-17T09:09:47Z</time>
      </trkpt>
      <trkpt lat="45.16765" lon="5.24798">
        <ele>377.8</ele>
        <time>2010-10-17T09:09:48Z</time>
      </trkpt>
      <trkpt lat="45.16763" lon="5.24801">
        <ele>377.2</ele>
        <time>2010-10-17T09:09:49Z</time>
      </trkpt>
      <trkpt lat="45.16761" lon="5.24807">
        <ele>378.9</ele>
        <time>2010-10-17T09:09:50Z</time>
      </trkpt>
      <trkpt lat="45.16759" lon="5.24811">
        <ele>379.3</ele>
        <time>2010-10-17T09:09:50Z</time>
      </trkpt>
      <trkpt lat="45.16757" lon="5.24814">
        <ele>379</ele>
        <time>2010-10-17T09:09:51Z</time>
      </trkpt>
      <trkpt lat="45.16755" lon="5.24816">
        <ele>379.3</ele>
        <time>2010-10-17T09:09:53Z</time>
      </trkpt>
      <trkpt lat="45.16752" lon="5.24819">
        <ele>379.3</ele>
        <time>2010-10-17T09:09:54Z</time>
      </trkpt>
      <trkpt lat="45.1675" lon="5.24823">
        <ele>379.2</ele>
        <time>2010-10-17T09:09:55Z</time>
      </trkpt>
      <trkpt lat="45.16748" lon="5.24825">
        <ele>378.9</ele>
        <time>2010-10-17T09:09:56Z</time>
      </trkpt>
      <trkpt lat="45.16746" lon="5.24827">
        <ele>378.1</ele>
        <time>2010-10-17T09:09:57Z</time>
      </trkpt>
      <trkpt lat="45.16745" lon="5.2483">
        <ele>377.7</ele>
        <time>2010-10-17T09:09:58Z</time>
      </trkpt>
      <trkpt lat="45.16743" lon="5.24833">
        <ele>377.2</ele>
        <time>2010-10-17T09:09:59Z</time>
      </trkpt>
      <trkpt lat="45.1674" lon="5.24836">
        <ele>376.9</ele>
        <time>2010-10-17T09:10:00Z</time>
      </trkpt>
      <trkpt lat="45.16738" lon="5.24838">
        <ele>376.6</ele>
        <time>2010-10-17T09:10:01Z</time>
      </trkpt>
      <trkpt lat="45.16734" lon="5.24841">
        <ele>377.5</ele>
        <time>2010-10-17T09:10:02Z</time>
      </trkpt>
      <trkpt lat="45.16732" lon="5.24844">
        <ele>378.2</ele>
        <time>2010-10-17T09:10:03Z</time>
      </trkpt>
      <trkpt lat="45.16729" lon="5.24847">
        <ele>378.7</ele>
        <time>2010-10-17T09:10:04Z</time>
      </trkpt>
      <trkpt lat="45.16727" lon="5.2485">
        <ele>379.2</ele>
        <time>2010-10-17T09:10:05Z</time>
      </trkpt>
      <trkpt lat="45.16724" lon="5.24853">
        <ele>378.9</ele>
        <time>2010-10-17T09:10:06Z</time>
      </trkpt>
      <trkpt lat="45.16722" lon="5.24856">
        <ele>378.9</ele>
        <time>2010-10-17T09:10:07Z</time>
      </trkpt>
      <trkpt lat="45.16719" lon="5.2486">
        <ele>378.9</ele>
        <time>2010-10-17T09:10:08Z</time>
      </trkpt>
      <trkpt lat="45.16717" lon="5.24863">
        <ele>378.9</ele>
        <time>2010-10-17T09:10:09Z</time>
      </trkpt>
      <trkpt lat="45.16714" lon="5.24866">
        <ele>379.2</ele>
        <time>2010-10-17T09:10:10Z</time>
      </trkpt>
      <trkpt lat="45.16712" lon="5.24868">
        <ele>379.1</ele>
        <time>2010-10-17T09:10:10Z</time>
      </trkpt>
      <trkpt lat="45.16709" lon="5.2487">
        <ele>379</ele>
        <time>2010-10-17T09:10:11Z</time>
      </trkpt>
      <trkpt lat="45.16707" lon="5.24873">
        <ele>379</ele>
        <time>2010-10-17T09:10:13Z</time>
      </trkpt>
      <trkpt lat="45.16705" lon="5.24876">
        <ele>379.2</ele>
        <time>2010-10-17T09:10:14Z</time>
      </trkpt>
      <trkpt lat="45.16703" lon="5.24879">
        <ele>379.2</ele>
        <time>2010-10-17T09:10:15Z</time>
      </trkpt>
      <trkpt lat="45.16701" lon="5.24882">
        <ele>379.5</ele>
        <time>2010-10-17T09:10:16Z</time>
      </trkpt>
      <trkpt lat="45.16698" lon="5.24885">
        <ele>379.3</ele>
        <time>2010-10-17T09:10:17Z</time>
      </trkpt>
      <trkpt lat="45.16696" lon="5.24888">
        <ele>379.7</ele>
        <time>2010-10-17T09:10:18Z</time>
      </trkpt>
      <trkpt lat="45.16694" lon="5.2489">
        <ele>379.2</ele>
        <time>2010-10-17T09:10:19Z</time>
      </trkpt>
      <trkpt lat="45.16692" lon="5.24894">
        <ele>379.3</ele>
        <time>2010-10-17T09:10:20Z</time>
      </trkpt>
      <trkpt lat="45.16691" lon="5.24898">
        <ele>379.5</ele>
        <time>2010-10-17T09:10:21Z</time>
      </trkpt>
      <trkpt lat="45.1669" lon="5.24901">
        <ele>379.6</ele>
        <time>2010-10-17T09:10:22Z</time>
      </trkpt>
      <trkpt lat="45.16688" lon="5.24903">
        <ele>379.6</ele>
        <time>2010-10-17T09:10:23Z</time>
      </trkpt>
      <trkpt lat="45.16687" lon="5.24906">
        <ele>379.6</ele>
        <time>2010-10-17T09:10:24Z</time>
      </trkpt>
      <trkpt lat="45.16686" lon="5.24909">
        <ele>379.5</ele>
        <time>2010-10-17T09:10:25Z</time>
      </trkpt>
      <trkpt lat="45.16685" lon="5.24913">
        <ele>378.8</ele>
        <time>2010-10-17T09:10:26Z</time>
      </trkpt>
      <trkpt lat="45.16684" lon="5.24917">
        <ele>378.9</ele>
        <time>2010-10-17T09:10:27Z</time>
      </trkpt>
      <trkpt lat="45.16682" lon="5.2492">
        <ele>377.9</ele>
        <time>2010-10-17T09:10:28Z</time>
      </trkpt>
      <trkpt lat="45.16681" lon="5.24924">
        <ele>378</ele>
        <time>2010-10-17T09:10:29Z</time>
      </trkpt>
      <trkpt lat="45.16681" lon="5.24928">
        <ele>378</ele>
        <time>2010-10-17T09:10:30Z</time>
      </trkpt>
      <trkpt lat="45.16681" lon="5.24932">
        <ele>378</ele>
        <time>2010-10-17T09:10:30Z</time>
      </trkpt>
      <trkpt lat="45.16681" lon="5.24937">
        <ele>378</ele>
        <time>2010-10-17T09:10:32Z</time>
      </trkpt>
      <trkpt lat="45.1668" lon="5.24942">
        <ele>377.9</ele>
        <time>2010-10-17T09:10:33Z</time>
      </trkpt>
      <trkpt lat="45.1668" lon="5.24948">
        <ele>377.8</ele>
        <time>2010-10-17T09:10:34Z</time>
      </trkpt>
      <trkpt lat="45.16681" lon="5.24955">
        <ele>377.7</ele>
        <time>2010-10-17T09:10:35Z</time>
      </trkpt>
      <trkpt lat="45.16683" lon="5.24962">
        <ele>376.8</ele>
        <time>2010-10-17T09:10:36Z</time>
      </trkpt>
      <trkpt lat="45.16683" lon="5.2497">
        <ele>376.6</ele>
        <time>2010-10-17T09:10:37Z</time>
      </trkpt>
      <trkpt lat="45.16685" lon="5.24977">
        <ele>376.3</ele>
        <time>2010-10-17T09:10:38Z</time>
      </trkpt>
      <trkpt lat="45.16687" lon="5.24984">
        <ele>376.2</ele>
        <time>2010-10-17T09:10:39Z</time>
      </trkpt>
      <trkpt lat="45.1669" lon="5.24992">
        <ele>375.6</ele>
        <time>2010-10-17T09:10:40Z</time>
      </trkpt>
      <trkpt lat="45.16691" lon="5.24999">
        <ele>376</ele>
        <time>2010-10-17T09:10:41Z</time>
      </trkpt>
      <trkpt lat="45.16694" lon="5.25005">
        <ele>375.4</ele>
        <time>2010-10-17T09:10:42Z</time>
      </trkpt>
      <trkpt lat="45.16699" lon="5.2501">
        <ele>375.2</ele>
        <time>2010-10-17T09:10:43Z</time>
      </trkpt>
      <trkpt lat="45.16702" lon="5.25015">
        <ele>375.4</ele>
        <time>2010-10-17T09:10:44Z</time>
      </trkpt>
      <trkpt lat="45.16706" lon="5.2502">
        <ele>375.4</ele>
        <time>2010-10-17T09:10:45Z</time>
      </trkpt>
      <trkpt lat="45.16711" lon="5.25023">
        <ele>375.2</ele>
        <time>2010-10-17T09:10:46Z</time>
      </trkpt>
      <trkpt lat="45.16715" lon="5.25025">
        <ele>375.3</ele>
        <time>2010-10-17T09:10:47Z</time>
      </trkpt>
      <trkpt lat="45.16721" lon="5.25026">
        <ele>375.2</ele>
        <time>2010-10-17T09:10:48Z</time>
      </trkpt>
      <trkpt lat="45.16727" lon="5.25027">
        <ele>374.9</ele>
        <time>2010-10-17T09:10:49Z</time>
      </trkpt>
      <trkpt lat="45.16734" lon="5.25027">
        <ele>374</ele>
        <time>2010-10-17T09:10:50Z</time>
      </trkpt>
      <trkpt lat="45.16738" lon="5.25027">
        <ele>373.8</ele>
        <time>2010-10-17T09:10:50Z</time>
      </trkpt>
      <trkpt lat="45.16741" lon="5.25027">
        <ele>373.6</ele>
        <time>2010-10-17T09:10:52Z</time>
      </trkpt>
      <trkpt lat="45.16746" lon="5.25027">
        <ele>373.5</ele>
        <time>2010-10-17T09:10:53Z</time>
      </trkpt>
      <trkpt lat="45.1675" lon="5.25028">
        <ele>373.3</ele>
        <time>2010-10-17T09:10:54Z</time>
      </trkpt>
      <trkpt lat="45.16754" lon="5.25029">
        <ele>372.9</ele>
        <time>2010-10-17T09:10:55Z</time>
      </trkpt>
      <trkpt lat="45.16758" lon="5.25031">
        <ele>372.8</ele>
        <time>2010-10-17T09:10:56Z</time>
      </trkpt>
      <trkpt lat="45.16761" lon="5.25032">
        <ele>372.9</ele>
        <time>2010-10-17T09:10:57Z</time>
      </trkpt>
      <trkpt lat="45.16764" lon="5.25033">
        <ele>373.1</ele>
        <time>2010-10-17T09:10:58Z</time>
      </trkpt>
      <trkpt lat="45.16766" lon="5.25034">
        <ele>373.5</ele>
        <time>2010-10-17T09:10:59Z</time>
      </trkpt>
      <trkpt lat="45.16769" lon="5.25033">
        <ele>373.1</ele>
        <time>2010-10-17T09:11:00Z</time>
      </trkpt>
      <trkpt lat="45.16774" lon="5.25033">
        <ele>372.9</ele>
        <time>2010-10-17T09:11:01Z</time>
      </trkpt>
      <trkpt lat="45.16778" lon="5.25034">
        <ele>373</ele>
        <time>2010-10-17T09:11:02Z</time>
      </trkpt>
      <trkpt lat="45.16782" lon="5.25035">
        <ele>373</ele>
        <time>2010-10-17T09:11:03Z</time>
      </trkpt>
      <trkpt lat="45.16785" lon="5.25035">
        <ele>373</ele>
        <time>2010-10-17T09:11:04Z</time>
      </trkpt>
      <trkpt lat="45.16787" lon="5.25036">
        <ele>372.9</ele>
        <time>2010-10-17T09:11:05Z</time>
      </trkpt>
      <trkpt lat="45.16789" lon="5.25037">
        <ele>373</ele>
        <time>2010-10-17T09:11:06Z</time>
      </trkpt>
      <trkpt lat="45.16793" lon="5.25039">
        <ele>372.7</ele>
        <time>2010-10-17T09:11:07Z</time>
      </trkpt>
      <trkpt lat="45.16796" lon="5.2504">
        <ele>372.5</ele>
        <time>2010-10-17T09:11:08Z</time>
      </trkpt>
      <trkpt lat="45.16799" lon="5.25041">
        <ele>371.5</ele>
        <time>2010-10-17T09:11:09Z</time>
      </trkpt>
      <trkpt lat="45.16802" lon="5.25043">
        <ele>371.1</ele>
        <time>2010-10-17T09:11:10Z</time>
      </trkpt>
      <trkpt lat="45.16804" lon="5.25044">
        <ele>371.3</ele>
        <time>2010-10-17T09:11:10Z</time>
      </trkpt>
      <trkpt lat="45.16807" lon="5.25045">
        <ele>371.2</ele>
        <time>2010-10-17T09:11:12Z</time>
      </trkpt>
      <trkpt lat="45.16812" lon="5.25046">
        <ele>371.4</ele>
        <time>2010-10-17T09:11:13Z</time>
      </trkpt>
      <trkpt lat="45.16815" lon="5.25049">
        <ele>371.4</ele>
        <time>2010-10-17T09:11:14Z</time>
      </trkpt>
      <trkpt lat="45.16818" lon="5.25051">
        <ele>371.1</ele>
        <time>2010-10-17T09:11:15Z</time>
      </trkpt>
      <trkpt lat="45.1682" lon="5.25054">
        <ele>371.2</ele>
        <time>2010-10-17T09:11:16Z</time>
      </trkpt>
      <trkpt lat="45.1682" lon="5.25058">
        <ele>370.6</ele>
        <time>2010-10-17T09:11:17Z</time>
      </trkpt>
      <trkpt lat="45.16822" lon="5.2506">
        <ele>371.1</ele>
        <time>2010-10-17T09:11:18Z</time>
      </trkpt>
      <trkpt lat="45.16822" lon="5.25063">
        <ele>371.1</ele>
        <time>2010-10-17T09:11:19Z</time>
      </trkpt>
      <trkpt lat="45.16822" lon="5.25065">
        <ele>371.3</ele>
        <time>2010-10-17T09:11:20Z</time>
      </trkpt>
      <trkpt lat="45.16822" lon="5.25068">
        <ele>371.7</ele>
        <time>2010-10-17T09:11:21Z</time>
      </trkpt>
      <trkpt lat="45.16822" lon="5.25071">
        <ele>371.9</ele>
        <time>2010-10-17T09:11:22Z</time>
      </trkpt>
      <trkpt lat="45.16821" lon="5.25073">
        <ele>372.3</ele>
        <time>2010-10-17T09:11:23Z</time>
      </trkpt>
      <trkpt lat="45.1682" lon="5.25075">
        <ele>372.2</ele>
        <time>2010-10-17T09:11:24Z</time>
      </trkpt>
      <trkpt lat="45.16819" lon="5.25078">
        <ele>372.3</ele>
        <time>2010-10-17T09:11:25Z</time>
      </trkpt>
      <trkpt lat="45.16819" lon="5.2508">
        <ele>372.2</ele>
        <time>2010-10-17T09:11:26Z</time>
      </trkpt>
      <trkpt lat="45.16818" lon="5.25082">
        <ele>372.2</ele>
        <time>2010-10-17T09:11:27Z</time>
      </trkpt>
      <trkpt lat="45.1682" lon="5.25085">
        <ele>371.7</ele>
        <time>2010-10-17T09:11:28Z</time>
      </trkpt>
      <trkpt lat="45.16818" lon="5.25087">
        <ele>371.6</ele>
        <time>2010-10-17T09:11:29Z</time>
      </trkpt>
      <trkpt lat="45.16818" lon="5.25089">
        <ele>371.6</ele>
        <time>2010-10-17T09:11:30Z</time>
      </trkpt>
      <trkpt lat="45.16817" lon="5.25091">
        <ele>371.4</ele>
        <time>2010-10-17T09:11:30Z</time>
      </trkpt>
      <trkpt lat="45.16816" lon="5.25094">
        <ele>371</ele>
        <time>2010-10-17T09:11:32Z</time>
      </trkpt>
      <trkpt lat="45.16815" lon="5.25096">
        <ele>371</ele>
        <time>2010-10-17T09:11:33Z</time>
      </trkpt>
      <trkpt lat="45.16814" lon="5.25097">
        <ele>370.9</ele>
        <time>2010-10-17T09:11:34Z</time>
      </trkpt>
      <trkpt lat="45.16812" lon="5.25098">
        <ele>370.7</ele>
        <time>2010-10-17T09:11:35Z</time>
      </trkpt>
      <trkpt lat="45.16811" lon="5.25101">
        <ele>370.4</ele>
        <time>2010-10-17T09:11:36Z</time>
      </trkpt>
      <trkpt lat="45.16811" lon="5.25102">
        <ele>370.2</ele>
        <time>2010-10-17T09:11:37Z</time>
      </trkpt>
      <trkpt lat="45.1681" lon="5.25104">
        <ele>370.2</ele>
        <time>2010-10-17T09:11:38Z</time>
      </trkpt>
      <trkpt lat="45.16809" lon="5.25108">
        <ele>369.6</ele>
        <time>2010-10-17T09:11:39Z</time>
      </trkpt>
      <trkpt lat="45.16809" lon="5.2511">
        <ele>369.5</ele>
        <time>2010-10-17T09:11:40Z</time>
      </trkpt>
      <trkpt lat="45.16808" lon="5.25112">
        <ele>369.5</ele>
        <time>2010-10-17T09:11:41Z</time>
      </trkpt>
      <trkpt lat="45.16807" lon="5.25114">
        <ele>369.5</ele>
        <time>2010-10-17T09:11:42Z</time>
      </trkpt>
      <trkpt lat="45.16807" lon="5.25116">
        <ele>369.5</ele>
        <time>2010-10-17T09:11:43Z</time>
      </trkpt>
      <trkpt lat="45.16807" lon="5.25119">
        <ele>369.4</ele>
        <time>2010-10-17T09:11:44Z</time>
      </trkpt>
      <trkpt lat="45.16807" lon="5.25121">
        <ele>369.2</ele>
        <time>2010-10-17T09:11:45Z</time>
      </trkpt>
      <trkpt lat="45.16807" lon="5.25124">
        <ele>369.1</ele>
        <time>2010-10-17T09:11:46Z</time>
      </trkpt>
      <trkpt lat="45.16807" lon="5.25127">
        <ele>369</ele>
        <time>2010-10-17T09:11:47Z</time>
      </trkpt>
      <trkpt lat="45.16806" lon="5.25129">
        <ele>369</ele>
        <time>2010-10-17T09:11:48Z</time>
      </trkpt>
      <trkpt lat="45.16806" lon="5.25132">
        <ele>368.9</ele>
        <time>2010-10-17T09:11:49Z</time>
      </trkpt>
      <trkpt lat="45.16805" lon="5.25133">
        <ele>368.9</ele>
        <time>2010-10-17T09:11:49Z</time>
      </trkpt>
      <trkpt lat="45.16805" lon="5.25135">
        <ele>369</ele>
        <time>2010-10-17T09:11:50Z</time>
      </trkpt>
      <trkpt lat="45.16804" lon="5.25138">
        <ele>368.8</ele>
        <time>2010-10-17T09:11:52Z</time>
      </trkpt>
      <trkpt lat="45.16804" lon="5.25139">
        <ele>368.7</ele>
        <time>2010-10-17T09:11:53Z</time>
      </trkpt>
      <trkpt lat="45.16802" lon="5.25141">
        <ele>368.6</ele>
        <time>2010-10-17T09:11:55Z</time>
      </trkpt>
      <trkpt lat="45.16802" lon="5.25143">
        <ele>368.9</ele>
        <time>2010-10-17T09:11:56Z</time>
      </trkpt>
      <trkpt lat="45.16802" lon="5.25146">
        <ele>369</ele>
        <time>2010-10-17T09:11:57Z</time>
      </trkpt>
      <trkpt lat="45.16801" lon="5.25148">
        <ele>368.8</ele>
        <time>2010-10-17T09:11:58Z</time>
      </trkpt>
      <trkpt lat="45.16801" lon="5.25151">
        <ele>368.2</ele>
        <time>2010-10-17T09:11:59Z</time>
      </trkpt>
      <trkpt lat="45.168" lon="5.25154">
        <ele>368.2</ele>
        <time>2010-10-17T09:12:00Z</time>
      </trkpt>
      <trkpt lat="45.168" lon="5.25157">
        <ele>368.1</ele>
        <time>2010-10-17T09:12:01Z</time>
      </trkpt>
      <trkpt lat="45.16799" lon="5.25159">
        <ele>368.2</ele>
        <time>2010-10-17T09:12:02Z</time>
      </trkpt>
      <trkpt lat="45.16798" lon="5.25161">
        <ele>368.3</ele>
        <time>2010-10-17T09:12:03Z</time>
      </trkpt>
      <trkpt lat="45.16798" lon="5.25163">
        <ele>368.5</ele>
        <time>2010-10-17T09:12:04Z</time>
      </trkpt>
      <trkpt lat="45.16797" lon="5.25167">
        <ele>368.7</ele>
        <time>2010-10-17T09:12:05Z</time>
      </trkpt>
      <trkpt lat="45.16795" lon="5.25169">
        <ele>368.6</ele>
        <time>2010-10-17T09:12:06Z</time>
      </trkpt>
      <trkpt lat="45.16795" lon="5.25171">
        <ele>368.8</ele>
        <time>2010-10-17T09:12:07Z</time>
      </trkpt>
      <trkpt lat="45.16794" lon="5.25174">
        <ele>368.6</ele>
        <time>2010-10-17T09:12:08Z</time>
      </trkpt>
      <trkpt lat="45.16794" lon="5.25176">
        <ele>368.9</ele>
        <time>2010-10-17T09:12:09Z</time>
      </trkpt>
      <trkpt lat="45.16793" lon="5.25178">
        <ele>368.8</ele>
        <time>2010-10-17T09:12:09Z</time>
      </trkpt>
      <trkpt lat="45.16792" lon="5.25181">
        <ele>369.1</ele>
        <time>2010-10-17T09:12:10Z</time>
      </trkpt>
      <trkpt lat="45.16792" lon="5.25183">
        <ele>368.7</ele>
        <time>2010-10-17T09:12:12Z</time>
      </trkpt>
      <trkpt lat="45.16792" lon="5.25186">
        <ele>368.9</ele>
        <time>2010-10-17T09:12:13Z</time>
      </trkpt>
      <trkpt lat="45.16791" lon="5.25187">
        <ele>368.7</ele>
        <time>2010-10-17T09:12:14Z</time>
      </trkpt>
      <trkpt lat="45.1679" lon="5.25189">
        <ele>368.6</ele>
        <time>2010-10-17T09:12:15Z</time>
      </trkpt>
      <trkpt lat="45.1679" lon="5.25191">
        <ele>368.8</ele>
        <time>2010-10-17T09:12:16Z</time>
      </trkpt>
      <trkpt lat="45.16789" lon="5.25193">
        <ele>368.5</ele>
        <time>2010-10-17T09:12:17Z</time>
      </trkpt>
      <trkpt lat="45.16789" lon="5.25194">
        <ele>368.5</ele>
        <time>2010-10-17T09:12:18Z</time>
      </trkpt>
      <trkpt lat="45.16789" lon="5.25197">
        <ele>368.5</ele>
        <time>2010-10-17T09:12:19Z</time>
      </trkpt>
      <trkpt lat="45.16788" lon="5.25198">
        <ele>368.6</ele>
        <time>2010-10-17T09:12:20Z</time>
      </trkpt>
      <trkpt lat="45.16788" lon="5.25201">
        <ele>368.5</ele>
        <time>2010-10-17T09:12:21Z</time>
      </trkpt>
      <trkpt lat="45.16787" lon="5.25202">
        <ele>368.6</ele>
        <time>2010-10-17T09:12:22Z</time>
      </trkpt>
      <trkpt lat="45.16786" lon="5.25206">
        <ele>368.2</ele>
        <time>2010-10-17T09:12:23Z</time>
      </trkpt>
      <trkpt lat="45.16786" lon="5.25209">
        <ele>368</ele>
        <time>2010-10-17T09:12:24Z</time>
      </trkpt>
      <trkpt lat="45.16785" lon="5.25211">
        <ele>368.2</ele>
        <time>2010-10-17T09:12:25Z</time>
      </trkpt>
      <trkpt lat="45.16785" lon="5.25216">
        <ele>368.9</ele>
        <time>2010-10-17T09:12:26Z</time>
      </trkpt>
      <trkpt lat="45.16784" lon="5.25219">
        <ele>369.3</ele>
        <time>2010-10-17T09:12:27Z</time>
      </trkpt>
      <trkpt lat="45.16783" lon="5.25221">
        <ele>369.4</ele>
        <time>2010-10-17T09:12:28Z</time>
      </trkpt>
      <trkpt lat="45.16783" lon="5.25223">
        <ele>369.7</ele>
        <time>2010-10-17T09:12:29Z</time>
      </trkpt>
      <trkpt lat="45.16782" lon="5.25225">
        <ele>370.1</ele>
        <time>2010-10-17T09:12:29Z</time>
      </trkpt>
      <trkpt lat="45.16781" lon="5.25228">
        <ele>369.6</ele>
        <time>2010-10-17T09:12:30Z</time>
      </trkpt>
      <trkpt lat="45.16779" lon="5.25231">
        <ele>370.3</ele>
        <time>2010-10-17T09:12:32Z</time>
      </trkpt>
      <trkpt lat="45.16778" lon="5.25232">
        <ele>370</ele>
        <time>2010-10-17T09:12:33Z</time>
      </trkpt>
      <trkpt lat="45.16777" lon="5.25235">
        <ele>370.8</ele>
        <time>2010-10-17T09:12:35Z</time>
      </trkpt>
      <trkpt lat="45.16777" lon="5.25239">
        <ele>371.4</ele>
        <time>2010-10-17T09:12:36Z</time>
      </trkpt>
      <trkpt lat="45.16777" lon="5.25242">
        <ele>371.1</ele>
        <time>2010-10-17T09:12:37Z</time>
      </trkpt>
      <trkpt lat="45.16777" lon="5.25245">
        <ele>370.7</ele>
        <time>2010-10-17T09:12:38Z</time>
      </trkpt>
      <trkpt lat="45.16776" lon="5.25247">
        <ele>370.3</ele>
        <time>2010-10-17T09:12:39Z</time>
      </trkpt>
      <trkpt lat="45.16776" lon="5.25249">
        <ele>370.5</ele>
        <time>2010-10-17T09:12:40Z</time>
      </trkpt>
      <trkpt lat="45.16776" lon="5.2525">
        <ele>371.4</ele>
        <time>2010-10-17T09:12:41Z</time>
      </trkpt>
      <trkpt lat="45.16776" lon="5.25254">
        <ele>371.9</ele>
        <time>2010-10-17T09:12:42Z</time>
      </trkpt>
      <trkpt lat="45.16776" lon="5.25256">
        <ele>372.3</ele>
        <time>2010-10-17T09:12:43Z</time>
      </trkpt>
      <trkpt lat="45.16776" lon="5.25257">
        <ele>372.8</ele>
        <time>2010-10-17T09:12:44Z</time>
      </trkpt>
      <trkpt lat="45.16775" lon="5.25259">
        <ele>373.3</ele>
        <time>2010-10-17T09:12:45Z</time>
      </trkpt>
      <trkpt lat="45.16776" lon="5.25261">
        <ele>373.9</ele>
        <time>2010-10-17T09:12:46Z</time>
      </trkpt>
      <trkpt lat="45.16776" lon="5.25262">
        <ele>374</ele>
        <time>2010-10-17T09:12:47Z</time>
      </trkpt>
      <trkpt lat="45.16775" lon="5.25264">
        <ele>374.3</ele>
        <time>2010-10-17T09:12:48Z</time>
      </trkpt>
      <trkpt lat="45.16775" lon="5.25267">
        <ele>374.7</ele>
        <time>2010-10-17T09:12:49Z</time>
      </trkpt>
      <trkpt lat="45.16775" lon="5.25269">
        <ele>375.5</ele>
        <time>2010-10-17T09:12:49Z</time>
      </trkpt>
      <trkpt lat="45.16775" lon="5.25271">
        <ele>375.2</ele>
        <time>2010-10-17T09:12:51Z</time>
      </trkpt>
      <trkpt lat="45.16775" lon="5.25274">
        <ele>375.7</ele>
        <time>2010-10-17T09:12:52Z</time>
      </trkpt>
      <trkpt lat="45.16775" lon="5.25276">
        <ele>376</ele>
        <time>2010-10-17T09:12:53Z</time>
      </trkpt>
      <trkpt lat="45.16775" lon="5.25278">
        <ele>376.3</ele>
        <time>2010-10-17T09:12:54Z</time>
      </trkpt>
      <trkpt lat="45.16776" lon="5.25279">
        <ele>376.7</ele>
        <time>2010-10-17T09:12:55Z</time>
      </trkpt>
      <trkpt lat="45.16776" lon="5.25281">
        <ele>376.6</ele>
        <time>2010-10-17T09:12:56Z</time>
      </trkpt>
      <trkpt lat="45.16775" lon="5.25283">
        <ele>377</ele>
        <time>2010-10-17T09:12:57Z</time>
      </trkpt>
      <trkpt lat="45.16778" lon="5.25286">
        <ele>378</ele>
        <time>2010-10-17T09:12:58Z</time>
      </trkpt>
      <trkpt lat="45.16778" lon="5.25289">
        <ele>378.4</ele>
        <time>2010-10-17T09:12:59Z</time>
      </trkpt>
      <trkpt lat="45.16778" lon="5.25292">
        <ele>379.1</ele>
        <time>2010-10-17T09:13:00Z</time>
      </trkpt>
      <trkpt lat="45.16779" lon="5.25294">
        <ele>379.1</ele>
        <time>2010-10-17T09:13:01Z</time>
      </trkpt>
      <trkpt lat="45.1678" lon="5.25296">
        <ele>379.5</ele>
        <time>2010-10-17T09:13:02Z</time>
      </trkpt>
      <trkpt lat="45.16781" lon="5.25298">
        <ele>379.9</ele>
        <time>2010-10-17T09:13:03Z</time>
      </trkpt>
      <trkpt lat="45.16781" lon="5.25301">
        <ele>379.3</ele>
        <time>2010-10-17T09:13:05Z</time>
      </trkpt>
      <trkpt lat="45.16781" lon="5.25303">
        <ele>379.5</ele>
        <time>2010-10-17T09:13:06Z</time>
      </trkpt>
      <trkpt lat="45.16781" lon="5.25304">
        <ele>379.4</ele>
        <time>2010-10-17T09:13:07Z</time>
      </trkpt>
      <trkpt lat="45.1678" lon="5.25305">
        <ele>379.9</ele>
        <time>2010-10-17T09:13:08Z</time>
      </trkpt>
      <trkpt lat="45.16781" lon="5.25307">
        <ele>379.1</ele>
        <time>2010-10-17T09:13:09Z</time>
      </trkpt>
      <trkpt lat="45.16782" lon="5.2531">
        <ele>378.8</ele>
        <time>2010-10-17T09:13:09Z</time>
      </trkpt>
      <trkpt lat="45.16782" lon="5.25312">
        <ele>378.4</ele>
        <time>2010-10-17T09:13:12Z</time>
      </trkpt>
      <trkpt lat="45.16781" lon="5.25314">
        <ele>378.7</ele>
        <time>2010-10-17T09:13:13Z</time>
      </trkpt>
      <trkpt lat="45.16782" lon="5.25316">
        <ele>379.1</ele>
        <time>2010-10-17T09:13:14Z</time>
      </trkpt>
      <trkpt lat="45.16784" lon="5.25318">
        <ele>379.1</ele>
        <time>2010-10-17T09:13:15Z</time>
      </trkpt>
      <trkpt lat="45.16783" lon="5.2532">
        <ele>379.8</ele>
        <time>2010-10-17T09:13:16Z</time>
      </trkpt>
      <trkpt lat="45.16784" lon="5.25323">
        <ele>380.1</ele>
        <time>2010-10-17T09:13:17Z</time>
      </trkpt>
      <trkpt lat="45.16784" lon="5.25325">
        <ele>380.5</ele>
        <time>2010-10-17T09:13:18Z</time>
      </trkpt>
      <trkpt lat="45.16784" lon="5.25326">
        <ele>381.1</ele>
        <time>2010-10-17T09:13:19Z</time>
      </trkpt>
      <trkpt lat="45.16784" lon="5.25328">
        <ele>381.1</ele>
        <time>2010-10-17T09:13:20Z</time>
      </trkpt>
      <trkpt lat="45.16784" lon="5.2533">
        <ele>381.1</ele>
        <time>2010-10-17T09:13:21Z</time>
      </trkpt>
      <trkpt lat="45.16784" lon="5.25331">
        <ele>381</ele>
        <time>2010-10-17T09:13:22Z</time>
      </trkpt>
      <trkpt lat="45.16785" lon="5.25334">
        <ele>380.5</ele>
        <time>2010-10-17T09:13:23Z</time>
      </trkpt>
      <trkpt lat="45.16785" lon="5.25337">
        <ele>380.7</ele>
        <time>2010-10-17T09:13:24Z</time>
      </trkpt>
      <trkpt lat="45.16784" lon="5.25338">
        <ele>381.2</ele>
        <time>2010-10-17T09:13:25Z</time>
      </trkpt>
      <trkpt lat="45.16784" lon="5.25339">
        <ele>381.2</ele>
        <time>2010-10-17T09:13:26Z</time>
      </trkpt>
      <trkpt lat="45.16785" lon="5.25341">
        <ele>380.9</ele>
        <time>2010-10-17T09:13:27Z</time>
      </trkpt>
      <trkpt lat="45.16787" lon="5.25344">
        <ele>380.4</ele>
        <time>2010-10-17T09:13:28Z</time>
      </trkpt>
      <trkpt lat="45.16787" lon="5.25345">
        <ele>381.2</ele>
        <time>2010-10-17T09:13:29Z</time>
      </trkpt>
      <trkpt lat="45.16787" lon="5.25347">
        <ele>381.9</ele>
        <time>2010-10-17T09:13:29Z</time>
      </trkpt>
      <trkpt lat="45.16786" lon="5.25349">
        <ele>381.1</ele>
        <time>2010-10-17T09:13:31Z</time>
      </trkpt>
      <trkpt lat="45.16787" lon="5.2535">
        <ele>381.1</ele>
        <time>2010-10-17T09:13:32Z</time>
      </trkpt>
      <trkpt lat="45.16788" lon="5.25353">
        <ele>381.4</ele>
        <time>2010-10-17T09:13:33Z</time>
      </trkpt>
      <trkpt lat="45.16788" lon="5.25355">
        <ele>381.9</ele>
        <time>2010-10-17T09:13:34Z</time>
      </trkpt>
      <trkpt lat="45.16788" lon="5.25357">
        <ele>381.8</ele>
        <time>2010-10-17T09:13:35Z</time>
      </trkpt>
      <trkpt lat="45.16788" lon="5.25361">
        <ele>381.9</ele>
        <time>2010-10-17T09:13:37Z</time>
      </trkpt>
      <trkpt lat="45.16788" lon="5.25364">
        <ele>382.7</ele>
        <time>2010-10-17T09:13:38Z</time>
      </trkpt>
      <trkpt lat="45.16788" lon="5.25366">
        <ele>383</ele>
        <time>2010-10-17T09:13:39Z</time>
      </trkpt>
      <trkpt lat="45.16787" lon="5.25368">
        <ele>383.8</ele>
        <time>2010-10-17T09:13:40Z</time>
      </trkpt>
      <trkpt lat="45.16786" lon="5.25369">
        <ele>383.8</ele>
        <time>2010-10-17T09:13:41Z</time>
      </trkpt>
      <trkpt lat="45.16788" lon="5.2537">
        <ele>383.3</ele>
        <time>2010-10-17T09:13:42Z</time>
      </trkpt>
      <trkpt lat="45.16789" lon="5.25372">
        <ele>383</ele>
        <time>2010-10-17T09:13:43Z</time>
      </trkpt>
      <trkpt lat="45.16789" lon="5.25374">
        <ele>382.6</ele>
        <time>2010-10-17T09:13:44Z</time>
      </trkpt>
      <trkpt lat="45.1679" lon="5.25375">
        <ele>382.4</ele>
        <time>2010-10-17T09:13:45Z</time>
      </trkpt>
      <trkpt lat="45.1679" lon="5.25376">
        <ele>382.2</ele>
        <time>2010-10-17T09:13:46Z</time>
      </trkpt>
      <trkpt lat="45.16789" lon="5.25379">
        <ele>382.8</ele>
        <time>2010-10-17T09:13:47Z</time>
      </trkpt>
      <trkpt lat="45.1679" lon="5.25381">
        <ele>383</ele>
        <time>2010-10-17T09:13:48Z</time>
      </trkpt>
      <trkpt lat="45.1679" lon="5.25382">
        <ele>383.7</ele>
        <time>2010-10-17T09:13:49Z</time>
      </trkpt>
      <trkpt lat="45.1679" lon="5.25383">
        <ele>384</ele>
        <time>2010-10-17T09:13:49Z</time>
      </trkpt>
      <trkpt lat="45.1679" lon="5.25385">
        <ele>384.1</ele>
        <time>2010-10-17T09:13:52Z</time>
      </trkpt>
      <trkpt lat="45.1679" lon="5.25387">
        <ele>384.6</ele>
        <time>2010-10-17T09:13:54Z</time>
      </trkpt>
      <trkpt lat="45.16795" lon="5.25394">
        <ele>382.5</ele>
        <time>2010-10-17T09:13:55Z</time>
      </trkpt>
      <trkpt lat="45.16795" lon="5.25396">
        <ele>382.5</ele>
        <time>2010-10-17T09:13:56Z</time>
      </trkpt>
      <trkpt lat="45.16795" lon="5.25397">
        <ele>382.4</ele>
        <time>2010-10-17T09:13:58Z</time>
      </trkpt>
      <trkpt lat="45.16795" lon="5.25398">
        <ele>382.2</ele>
        <time>2010-10-17T09:13:59Z</time>
      </trkpt>
      <trkpt lat="45.16795" lon="5.25399">
        <ele>382.7</ele>
        <time>2010-10-17T09:14:00Z</time>
      </trkpt>
      <trkpt lat="45.16796" lon="5.25402">
        <ele>382.6</ele>
        <time>2010-10-17T09:14:01Z</time>
      </trkpt>
      <trkpt lat="45.16796" lon="5.25403">
        <ele>381.9</ele>
        <time>2010-10-17T09:14:02Z</time>
      </trkpt>
      <trkpt lat="45.16796" lon="5.25403">
        <ele>381.9</ele>
        <time>2010-10-17T09:14:04Z</time>
      </trkpt>
      <trkpt lat="45.16796" lon="5.25405">
        <ele>382.5</ele>
        <time>2010-10-17T09:14:05Z</time>
      </trkpt>
      <trkpt lat="45.16797" lon="5.25406">
        <ele>381.2</ele>
        <time>2010-10-17T09:14:06Z</time>
      </trkpt>
      <trkpt lat="45.16797" lon="5.25408">
        <ele>381.1</ele>
        <time>2010-10-17T09:14:07Z</time>
      </trkpt>
      <trkpt lat="45.16798" lon="5.25409">
        <ele>380.8</ele>
        <time>2010-10-17T09:14:09Z</time>
      </trkpt>
      <trkpt lat="45.16798" lon="5.2541">
        <ele>380.6</ele>
        <time>2010-10-17T09:14:11Z</time>
      </trkpt>
      <trkpt lat="45.16798" lon="5.25412">
        <ele>380.8</ele>
        <time>2010-10-17T09:14:12Z</time>
      </trkpt>
      <trkpt lat="45.16798" lon="5.25415">
        <ele>381</ele>
        <time>2010-10-17T09:14:13Z</time>
      </trkpt>
      <trkpt lat="45.16799" lon="5.25418">
        <ele>381.3</ele>
        <time>2010-10-17T09:14:14Z</time>
      </trkpt>
      <trkpt lat="45.16799" lon="5.2542">
        <ele>381.4</ele>
        <time>2010-10-17T09:14:15Z</time>
      </trkpt>
      <trkpt lat="45.16799" lon="5.25421">
        <ele>381.6</ele>
        <time>2010-10-17T09:14:16Z</time>
      </trkpt>
      <trkpt lat="45.16799" lon="5.25422">
        <ele>381.8</ele>
        <time>2010-10-17T09:14:17Z</time>
      </trkpt>
      <trkpt lat="45.16797" lon="5.25425">
        <ele>381.5</ele>
        <time>2010-10-17T09:14:18Z</time>
      </trkpt>
      <trkpt lat="45.16798" lon="5.25427">
        <ele>381.9</ele>
        <time>2010-10-17T09:14:20Z</time>
      </trkpt>
      <trkpt lat="45.16797" lon="5.2543">
        <ele>382.2</ele>
        <time>2010-10-17T09:14:21Z</time>
      </trkpt>
      <trkpt lat="45.16797" lon="5.25431">
        <ele>382.1</ele>
        <time>2010-10-17T09:14:22Z</time>
      </trkpt>
      <trkpt lat="45.16798" lon="5.25433">
        <ele>382.2</ele>
        <time>2010-10-17T09:14:23Z</time>
      </trkpt>
      <trkpt lat="45.16798" lon="5.25435">
        <ele>382.1</ele>
        <time>2010-10-17T09:14:24Z</time>
      </trkpt>
      <trkpt lat="45.16798" lon="5.25438">
        <ele>382.4</ele>
        <time>2010-10-17T09:14:25Z</time>
      </trkpt>
      <trkpt lat="45.16798" lon="5.25441">
        <ele>382.3</ele>
        <time>2010-10-17T09:14:26Z</time>
      </trkpt>
      <trkpt lat="45.16798" lon="5.25445">
        <ele>382.6</ele>
        <time>2010-10-17T09:14:28Z</time>
      </trkpt>
      <trkpt lat="45.16798" lon="5.25446">
        <ele>382.6</ele>
        <time>2010-10-17T09:14:28Z</time>
      </trkpt>
      <trkpt lat="45.16798" lon="5.25447">
        <ele>382.5</ele>
        <time>2010-10-17T09:14:29Z</time>
      </trkpt>
      <trkpt lat="45.16798" lon="5.25448">
        <ele>382.9</ele>
        <time>2010-10-17T09:14:31Z</time>
      </trkpt>
      <trkpt lat="45.16798" lon="5.25451">
        <ele>383</ele>
        <time>2010-10-17T09:14:33Z</time>
      </trkpt>
      <trkpt lat="45.16797" lon="5.25452">
        <ele>383.4</ele>
        <time>2010-10-17T09:14:34Z</time>
      </trkpt>
      <trkpt lat="45.16798" lon="5.25456">
        <ele>381.2</ele>
        <time>2010-10-17T09:14:35Z</time>
      </trkpt>
      <trkpt lat="45.16798" lon="5.25457">
        <ele>381</ele>
        <time>2010-10-17T09:14:36Z</time>
      </trkpt>
      <trkpt lat="45.16797" lon="5.25456">
        <ele>382.5</ele>
        <time>2010-10-17T09:14:37Z</time>
      </trkpt>
      <trkpt lat="45.16797" lon="5.25456">
        <ele>382.4</ele>
        <time>2010-10-17T09:14:39Z</time>
      </trkpt>
      <trkpt lat="45.16795" lon="5.25457">
        <ele>382.4</ele>
        <time>2010-10-17T09:14:40Z</time>
      </trkpt>
      <trkpt lat="45.16795" lon="5.25457">
        <ele>382.4</ele>
        <time>2010-10-17T09:14:44Z</time>
      </trkpt>
      <trkpt lat="45.16794" lon="5.25459">
        <ele>383.4</ele>
        <time>2010-10-17T09:14:45Z</time>
      </trkpt>
      <trkpt lat="45.16793" lon="5.25459">
        <ele>384</ele>
        <time>2010-10-17T09:14:53Z</time>
      </trkpt>
      <trkpt lat="45.16789" lon="5.25459">
        <ele>387.1</ele>
        <time>2010-10-17T09:14:54Z</time>
      </trkpt>
      <trkpt lat="45.16786" lon="5.25458">
        <ele>387.4</ele>
        <time>2010-10-17T09:14:55Z</time>
      </trkpt>
      <trkpt lat="45.16785" lon="5.25457">
        <ele>387.9</ele>
        <time>2010-10-17T09:14:56Z</time>
      </trkpt>
      <trkpt lat="45.16782" lon="5.25456">
        <ele>389.6</ele>
        <time>2010-10-17T09:14:57Z</time>
      </trkpt>
      <trkpt lat="45.16779" lon="5.25456">
        <ele>391.1</ele>
        <time>2010-10-17T09:14:58Z</time>
      </trkpt>
      <trkpt lat="45.16776" lon="5.25455">
        <ele>391.6</ele>
        <time>2010-10-17T09:15:00Z</time>
      </trkpt>
      <trkpt lat="45.16774" lon="5.25455">
        <ele>390.6</ele>
        <time>2010-10-17T09:15:01Z</time>
      </trkpt>
      <trkpt lat="45.16771" lon="5.25454">
        <ele>390.4</ele>
        <time>2010-10-17T09:15:02Z</time>
      </trkpt>
      <trkpt lat="45.16769" lon="5.25454">
        <ele>389.8</ele>
        <time>2010-10-17T09:15:03Z</time>
      </trkpt>
      <trkpt lat="45.16767" lon="5.25454">
        <ele>390</ele>
        <time>2010-10-17T09:15:04Z</time>
      </trkpt>
      <trkpt lat="45.16766" lon="5.25452">
        <ele>390</ele>
        <time>2010-10-17T09:15:05Z</time>
      </trkpt>
      <trkpt lat="45.16764" lon="5.25452">
        <ele>390.7</ele>
        <time>2010-10-17T09:15:06Z</time>
      </trkpt>
      <trkpt lat="45.16763" lon="5.25452">
        <ele>391.4</ele>
        <time>2010-10-17T09:15:07Z</time>
      </trkpt>
      <trkpt lat="45.16761" lon="5.25453">
        <ele>392.1</ele>
        <time>2010-10-17T09:15:08Z</time>
      </trkpt>
      <trkpt lat="45.16764" lon="5.25457">
        <ele>391.8</ele>
        <time>2010-10-17T09:15:10Z</time>
      </trkpt>
      <trkpt lat="45.16763" lon="5.25456">
        <ele>392.7</ele>
        <time>2010-10-17T09:15:11Z</time>
      </trkpt>
      <trkpt lat="45.16761" lon="5.25456">
        <ele>393.3</ele>
        <time>2010-10-17T09:15:12Z</time>
      </trkpt>
      <trkpt lat="45.16759" lon="5.25455">
        <ele>394.1</ele>
        <time>2010-10-17T09:15:13Z</time>
      </trkpt>
      <trkpt lat="45.16758" lon="5.25454">
        <ele>394</ele>
        <time>2010-10-17T09:15:14Z</time>
      </trkpt>
      <trkpt lat="45.16756" lon="5.25454">
        <ele>394.1</ele>
        <time>2010-10-17T09:15:15Z</time>
      </trkpt>
      <trkpt lat="45.16754" lon="5.25452">
        <ele>394.1</ele>
        <time>2010-10-17T09:15:16Z</time>
      </trkpt>
      <trkpt lat="45.16752" lon="5.25452">
        <ele>394.8</ele>
        <time>2010-10-17T09:15:17Z</time>
      </trkpt>
      <trkpt lat="45.16751" lon="5.25453">
        <ele>395.1</ele>
        <time>2010-10-17T09:15:18Z</time>
      </trkpt>
      <trkpt lat="45.16749" lon="5.25452">
        <ele>395.6</ele>
        <time>2010-10-17T09:15:19Z</time>
      </trkpt>
      <trkpt lat="45.16747" lon="5.25452">
        <ele>396.1</ele>
        <time>2010-10-17T09:15:20Z</time>
      </trkpt>
      <trkpt lat="45.16746" lon="5.25453">
        <ele>396.8</ele>
        <time>2010-10-17T09:15:21Z</time>
      </trkpt>
      <trkpt lat="45.16744" lon="5.25453">
        <ele>396.9</ele>
        <time>2010-10-17T09:15:22Z</time>
      </trkpt>
      <trkpt lat="45.16741" lon="5.25452">
        <ele>397.9</ele>
        <time>2010-10-17T09:15:23Z</time>
      </trkpt>
      <trkpt lat="45.1674" lon="5.25452">
        <ele>397.8</ele>
        <time>2010-10-17T09:15:24Z</time>
      </trkpt>
      <trkpt lat="45.16738" lon="5.25451">
        <ele>397.3</ele>
        <time>2010-10-17T09:15:25Z</time>
      </trkpt>
      <trkpt lat="45.16736" lon="5.2545">
        <ele>397.5</ele>
        <time>2010-10-17T09:15:26Z</time>
      </trkpt>
      <trkpt lat="45.16735" lon="5.2545">
        <ele>397.4</ele>
        <time>2010-10-17T09:15:27Z</time>
      </trkpt>
      <trkpt lat="45.16733" lon="5.25449">
        <ele>397.3</ele>
        <time>2010-10-17T09:15:28Z</time>
      </trkpt>
      <trkpt lat="45.16731" lon="5.25449">
        <ele>397.2</ele>
        <time>2010-10-17T09:15:28Z</time>
      </trkpt>
      <trkpt lat="45.16729" lon="5.25449">
        <ele>397</ele>
        <time>2010-10-17T09:15:30Z</time>
      </trkpt>
      <trkpt lat="45.16728" lon="5.25449">
        <ele>397.3</ele>
        <time>2010-10-17T09:15:31Z</time>
      </trkpt>
      <trkpt lat="45.16726" lon="5.25448">
        <ele>397.4</ele>
        <time>2010-10-17T09:15:32Z</time>
      </trkpt>
      <trkpt lat="45.16724" lon="5.25449">
        <ele>397.6</ele>
        <time>2010-10-17T09:15:33Z</time>
      </trkpt>
      <trkpt lat="45.16723" lon="5.2545">
        <ele>397.1</ele>
        <time>2010-10-17T09:15:34Z</time>
      </trkpt>
      <trkpt lat="45.16722" lon="5.2545">
        <ele>397.6</ele>
        <time>2010-10-17T09:15:35Z</time>
      </trkpt>
      <trkpt lat="45.16719" lon="5.2545">
        <ele>398.6</ele>
        <time>2010-10-17T09:15:37Z</time>
      </trkpt>
      <trkpt lat="45.16719" lon="5.2545">
        <ele>399.6</ele>
        <time>2010-10-17T09:15:38Z</time>
      </trkpt>
      <trkpt lat="45.16718" lon="5.25449">
        <ele>400</ele>
        <time>2010-10-17T09:15:39Z</time>
      </trkpt>
      <trkpt lat="45.16716" lon="5.25449">
        <ele>400.4</ele>
        <time>2010-10-17T09:15:40Z</time>
      </trkpt>
      <trkpt lat="45.16714" lon="5.25449">
        <ele>401.1</ele>
        <time>2010-10-17T09:15:41Z</time>
      </trkpt>
      <trkpt lat="45.16713" lon="5.25449">
        <ele>401.5</ele>
        <time>2010-10-17T09:15:42Z</time>
      </trkpt>
      <trkpt lat="45.16711" lon="5.25449">
        <ele>402</ele>
        <time>2010-10-17T09:15:44Z</time>
      </trkpt>
      <trkpt lat="45.16709" lon="5.2545">
        <ele>402</ele>
        <time>2010-10-17T09:15:46Z</time>
      </trkpt>
      <trkpt lat="45.16708" lon="5.2545">
        <ele>402.2</ele>
        <time>2010-10-17T09:15:47Z</time>
      </trkpt>
      <trkpt lat="45.16707" lon="5.25451">
        <ele>402.6</ele>
        <time>2010-10-17T09:15:48Z</time>
      </trkpt>
      <trkpt lat="45.16704" lon="5.2545">
        <ele>403.4</ele>
        <time>2010-10-17T09:15:48Z</time>
      </trkpt>
      <trkpt lat="45.16702" lon="5.2545">
        <ele>403</ele>
        <time>2010-10-17T09:15:51Z</time>
      </trkpt>
      <trkpt lat="45.16701" lon="5.25449">
        <ele>402.7</ele>
        <time>2010-10-17T09:15:52Z</time>
      </trkpt>
      <trkpt lat="45.167" lon="5.2545">
        <ele>402.8</ele>
        <time>2010-10-17T09:15:53Z</time>
      </trkpt>
      <trkpt lat="45.16698" lon="5.2545">
        <ele>402.9</ele>
        <time>2010-10-17T09:15:54Z</time>
      </trkpt>
      <trkpt lat="45.16696" lon="5.2545">
        <ele>402.9</ele>
        <time>2010-10-17T09:15:55Z</time>
      </trkpt>
      <trkpt lat="45.16695" lon="5.2545">
        <ele>404.6</ele>
        <time>2010-10-17T09:15:56Z</time>
      </trkpt>
      <trkpt lat="45.16695" lon="5.25449">
        <ele>402.8</ele>
        <time>2010-10-17T09:15:57Z</time>
      </trkpt>
      <trkpt lat="45.16694" lon="5.25449">
        <ele>402.5</ele>
        <time>2010-10-17T09:15:58Z</time>
      </trkpt>
      <trkpt lat="45.16693" lon="5.25449">
        <ele>402.2</ele>
        <time>2010-10-17T09:15:59Z</time>
      </trkpt>
      <trkpt lat="45.16691" lon="5.25449">
        <ele>402.4</ele>
        <time>2010-10-17T09:16:00Z</time>
      </trkpt>
      <trkpt lat="45.1669" lon="5.25449">
        <ele>402.2</ele>
        <time>2010-10-17T09:16:01Z</time>
      </trkpt>
      <trkpt lat="45.16688" lon="5.2545">
        <ele>402.5</ele>
        <time>2010-10-17T09:16:02Z</time>
      </trkpt>
      <trkpt lat="45.16687" lon="5.2545">
        <ele>402.4</ele>
        <time>2010-10-17T09:16:03Z</time>
      </trkpt>
      <trkpt lat="45.16685" lon="5.25449">
        <ele>402.9</ele>
        <time>2010-10-17T09:16:04Z</time>
      </trkpt>
      <trkpt lat="45.16683" lon="5.2545">
        <ele>403</ele>
        <time>2010-10-17T09:16:06Z</time>
      </trkpt>
      <trkpt lat="45.16681" lon="5.2545">
        <ele>403.1</ele>
        <time>2010-10-17T09:16:07Z</time>
      </trkpt>
      <trkpt lat="45.1668" lon="5.25448">
        <ele>402.7</ele>
        <time>2010-10-17T09:16:08Z</time>
      </trkpt>
      <trkpt lat="45.1668" lon="5.25448">
        <ele>402.6</ele>
        <time>2010-10-17T09:16:11Z</time>
      </trkpt>
      <trkpt lat="45.16681" lon="5.25447">
        <ele>402.3</ele>
        <time>2010-10-17T09:16:12Z</time>
      </trkpt>
      <trkpt lat="45.16682" lon="5.25446">
        <ele>403</ele>
        <time>2010-10-17T09:16:14Z</time>
      </trkpt>
      <trkpt lat="45.16684" lon="5.25447">
        <ele>404.2</ele>
        <time>2010-10-17T09:16:16Z</time>
      </trkpt>
      <trkpt lat="45.16685" lon="5.25448">
        <ele>404.7</ele>
        <time>2010-10-17T09:16:17Z</time>
      </trkpt>
      <trkpt lat="45.16686" lon="5.25448">
        <ele>404.6</ele>
        <time>2010-10-17T09:16:18Z</time>
      </trkpt>
      <trkpt lat="45.16687" lon="5.25447">
        <ele>404.5</ele>
        <time>2010-10-17T09:16:19Z</time>
      </trkpt>
      <trkpt lat="45.16688" lon="5.25445">
        <ele>404.3</ele>
        <time>2010-10-17T09:16:20Z</time>
      </trkpt>
      <trkpt lat="45.16689" lon="5.25444">
        <ele>404.7</ele>
        <time>2010-10-17T09:16:21Z</time>
      </trkpt>
      <trkpt lat="45.16689" lon="5.25441">
        <ele>404.7</ele>
        <time>2010-10-17T09:16:22Z</time>
      </trkpt>
      <trkpt lat="45.16689" lon="5.25439">
        <ele>405.4</ele>
        <time>2010-10-17T09:16:23Z</time>
      </trkpt>
      <trkpt lat="45.1669" lon="5.25438">
        <ele>406.2</ele>
        <time>2010-10-17T09:16:24Z</time>
      </trkpt>
      <trkpt lat="45.1669" lon="5.25437">
        <ele>406.7</ele>
        <time>2010-10-17T09:16:27Z</time>
      </trkpt>
      <trkpt lat="45.16688" lon="5.25437">
        <ele>407.4</ele>
        <time>2010-10-17T09:16:28Z</time>
      </trkpt>
      <trkpt lat="45.16688" lon="5.25437">
        <ele>407.6</ele>
        <time>2010-10-17T09:16:32Z</time>
      </trkpt>
      <trkpt lat="45.16687" lon="5.25437">
        <ele>408.2</ele>
        <time>2010-10-17T09:16:33Z</time>
      </trkpt>
      <trkpt lat="45.16687" lon="5.25437">
        <ele>409.5</ele>
        <time>2010-10-17T09:16:34Z</time>
      </trkpt>
      <trkpt lat="45.16687" lon="5.25436">
        <ele>409.6</ele>
        <time>2010-10-17T09:16:42Z</time>
      </trkpt>
      <trkpt lat="45.16684" lon="5.25435">
        <ele>410.8</ele>
        <time>2010-10-17T09:16:44Z</time>
      </trkpt>
      <trkpt lat="45.16682" lon="5.25433">
        <ele>411.1</ele>
        <time>2010-10-17T09:16:45Z</time>
      </trkpt>
      <trkpt lat="45.1668" lon="5.25432">
        <ele>411.3</ele>
        <time>2010-10-17T09:16:46Z</time>
      </trkpt>
      <trkpt lat="45.16678" lon="5.25429">
        <ele>411.6</ele>
        <time>2010-10-17T09:16:47Z</time>
      </trkpt>
      <trkpt lat="45.16676" lon="5.25428">
        <ele>412.3</ele>
        <time>2010-10-17T09:16:47Z</time>
      </trkpt>
      <trkpt lat="45.16674" lon="5.25426">
        <ele>413</ele>
        <time>2010-10-17T09:16:48Z</time>
      </trkpt>
      <trkpt lat="45.16673" lon="5.25425">
        <ele>413.1</ele>
        <time>2010-10-17T09:16:50Z</time>
      </trkpt>
      <trkpt lat="45.16671" lon="5.25424">
        <ele>412.9</ele>
        <time>2010-10-17T09:16:51Z</time>
      </trkpt>
      <trkpt lat="45.16669" lon="5.25423">
        <ele>413.4</ele>
        <time>2010-10-17T09:16:52Z</time>
      </trkpt>
      <trkpt lat="45.16668" lon="5.25423">
        <ele>413.8</ele>
        <time>2010-10-17T09:16:53Z</time>
      </trkpt>
      <trkpt lat="45.16665" lon="5.25422">
        <ele>413.5</ele>
        <time>2010-10-17T09:16:54Z</time>
      </trkpt>
      <trkpt lat="45.16663" lon="5.25421">
        <ele>413.7</ele>
        <time>2010-10-17T09:16:55Z</time>
      </trkpt>
      <trkpt lat="45.1666" lon="5.2542">
        <ele>414.5</ele>
        <time>2010-10-17T09:16:57Z</time>
      </trkpt>
      <trkpt lat="45.16657" lon="5.2542">
        <ele>415</ele>
        <time>2010-10-17T09:16:58Z</time>
      </trkpt>
      <trkpt lat="45.16655" lon="5.25419">
        <ele>415.3</ele>
        <time>2010-10-17T09:16:59Z</time>
      </trkpt>
      <trkpt lat="45.16652" lon="5.25418">
        <ele>416.2</ele>
        <time>2010-10-17T09:17:00Z</time>
      </trkpt>
      <trkpt lat="45.16651" lon="5.25418">
        <ele>416</ele>
        <time>2010-10-17T09:17:01Z</time>
      </trkpt>
      <trkpt lat="45.1665" lon="5.25417">
        <ele>416.3</ele>
        <time>2010-10-17T09:17:02Z</time>
      </trkpt>
      <trkpt lat="45.16648" lon="5.25417">
        <ele>416.5</ele>
        <time>2010-10-17T09:17:03Z</time>
      </trkpt>
      <trkpt lat="45.16647" lon="5.25417">
        <ele>417.2</ele>
        <time>2010-10-17T09:17:04Z</time>
      </trkpt>
      <trkpt lat="45.16645" lon="5.25416">
        <ele>417.5</ele>
        <time>2010-10-17T09:17:05Z</time>
      </trkpt>
      <trkpt lat="45.16644" lon="5.25416">
        <ele>417.7</ele>
        <time>2010-10-17T09:17:06Z</time>
      </trkpt>
      <trkpt lat="45.16642" lon="5.25417">
        <ele>417.3</ele>
        <time>2010-10-17T09:17:07Z</time>
      </trkpt>
      <trkpt lat="45.1664" lon="5.25416">
        <ele>417.3</ele>
        <time>2010-10-17T09:17:07Z</time>
      </trkpt>
      <trkpt lat="45.16638" lon="5.25416">
        <ele>417.4</ele>
        <time>2010-10-17T09:17:08Z</time>
      </trkpt>
      <trkpt lat="45.16636" lon="5.25414">
        <ele>417.6</ele>
        <time>2010-10-17T09:17:10Z</time>
      </trkpt>
      <trkpt lat="45.16634" lon="5.25414">
        <ele>418</ele>
        <time>2010-10-17T09:17:11Z</time>
      </trkpt>
      <trkpt lat="45.16632" lon="5.25415">
        <ele>418</ele>
        <time>2010-10-17T09:17:12Z</time>
      </trkpt>
      <trkpt lat="45.16631" lon="5.25416">
        <ele>418.1</ele>
        <time>2010-10-17T09:17:13Z</time>
      </trkpt>
      <trkpt lat="45.1663" lon="5.25416">
        <ele>418.4</ele>
        <time>2010-10-17T09:17:14Z</time>
      </trkpt>
      <trkpt lat="45.16629" lon="5.25416">
        <ele>418.7</ele>
        <time>2010-10-17T09:17:15Z</time>
      </trkpt>
      <trkpt lat="45.16627" lon="5.25415">
        <ele>418.8</ele>
        <time>2010-10-17T09:17:16Z</time>
      </trkpt>
      <trkpt lat="45.16626" lon="5.25416">
        <ele>419</ele>
        <time>2010-10-17T09:17:17Z</time>
      </trkpt>
      <trkpt lat="45.16624" lon="5.25415">
        <ele>419.6</ele>
        <time>2010-10-17T09:17:19Z</time>
      </trkpt>
      <trkpt lat="45.16622" lon="5.25415">
        <ele>420.3</ele>
        <time>2010-10-17T09:17:20Z</time>
      </trkpt>
      <trkpt lat="45.1662" lon="5.25416">
        <ele>421</ele>
        <time>2010-10-17T09:17:21Z</time>
      </trkpt>
      <trkpt lat="45.16619" lon="5.25417">
        <ele>421.5</ele>
        <time>2010-10-17T09:17:23Z</time>
      </trkpt>
      <trkpt lat="45.16618" lon="5.25417">
        <ele>421.8</ele>
        <time>2010-10-17T09:17:24Z</time>
      </trkpt>
      <trkpt lat="45.16618" lon="5.25416">
        <ele>421.7</ele>
        <time>2010-10-17T09:17:25Z</time>
      </trkpt>
      <trkpt lat="45.16618" lon="5.25415">
        <ele>422.2</ele>
        <time>2010-10-17T09:17:38Z</time>
      </trkpt>
      <trkpt lat="45.16618" lon="5.25416">
        <ele>423.9</ele>
        <time>2010-10-17T09:17:39Z</time>
      </trkpt>
      <trkpt lat="45.16617" lon="5.25417">
        <ele>424.2</ele>
        <time>2010-10-17T09:17:53Z</time>
      </trkpt>
      <trkpt lat="45.16618" lon="5.25415">
        <ele>424.7</ele>
        <time>2010-10-17T09:17:54Z</time>
      </trkpt>
      <trkpt lat="45.16618" lon="5.25416">
        <ele>424.7</ele>
        <time>2010-10-17T09:18:03Z</time>
      </trkpt>
      <trkpt lat="45.16618" lon="5.25414">
        <ele>423.9</ele>
        <time>2010-10-17T09:18:04Z</time>
      </trkpt>
      <trkpt lat="45.16618" lon="5.25414">
        <ele>423.9</ele>
        <time>2010-10-17T09:18:23Z</time>
      </trkpt>
      <trkpt lat="45.16617" lon="5.25416">
        <ele>424.4</ele>
        <time>2010-10-17T09:18:24Z</time>
      </trkpt>
      <trkpt lat="45.16616" lon="5.25414">
        <ele>425.1</ele>
        <time>2010-10-17T09:18:25Z</time>
      </trkpt>
      <trkpt lat="45.16616" lon="5.25414">
        <ele>424.9</ele>
        <time>2010-10-17T09:18:26Z</time>
      </trkpt>
      <trkpt lat="45.16617" lon="5.25413">
        <ele>425.5</ele>
        <time>2010-10-17T09:18:27Z</time>
      </trkpt>
      <trkpt lat="45.16618" lon="5.25413">
        <ele>426</ele>
        <time>2010-10-17T09:18:31Z</time>
      </trkpt>
      <trkpt lat="45.16618" lon="5.25411">
        <ele>425.5</ele>
        <time>2010-10-17T09:18:32Z</time>
      </trkpt>
      <trkpt lat="45.16617" lon="5.25411">
        <ele>425.2</ele>
        <time>2010-10-17T09:18:35Z</time>
      </trkpt>
      <trkpt lat="45.16617" lon="5.2541">
        <ele>424.4</ele>
        <time>2010-10-17T09:18:36Z</time>
      </trkpt>
      <trkpt lat="45.16617" lon="5.2541">
        <ele>424.4</ele>
        <time>2010-10-17T09:18:39Z</time>
      </trkpt>
      <trkpt lat="45.16617" lon="5.25411">
        <ele>425</ele>
        <time>2010-10-17T09:18:40Z</time>
      </trkpt>
      <trkpt lat="45.16617" lon="5.25411">
        <ele>425</ele>
        <time>2010-10-17T09:18:43Z</time>
      </trkpt>
      <trkpt lat="45.16618" lon="5.25412">
        <ele>425.7</ele>
        <time>2010-10-17T09:18:44Z</time>
      </trkpt>
      <trkpt lat="45.16618" lon="5.25412">
        <ele>425.7</ele>
        <time>2010-10-17T09:18:56Z</time>
      </trkpt>
      <trkpt lat="45.16617" lon="5.25412">
        <ele>425.4</ele>
        <time>2010-10-17T09:18:57Z</time>
      </trkpt>
      <trkpt lat="45.16617" lon="5.25412">
        <ele>425.3</ele>
        <time>2010-10-17T09:19:00Z</time>
      </trkpt>
      <trkpt lat="45.16618" lon="5.2541">
        <ele>424</ele>
        <time>2010-10-17T09:19:01Z</time>
      </trkpt>
      <trkpt lat="45.16619" lon="5.2541">
        <ele>423.8</ele>
        <time>2010-10-17T09:19:02Z</time>
      </trkpt>
      <trkpt lat="45.16619" lon="5.25409">
        <ele>423.7</ele>
        <time>2010-10-17T09:19:05Z</time>
      </trkpt>
      <trkpt lat="45.16618" lon="5.2541">
        <ele>424.2</ele>
        <time>2010-10-17T09:19:06Z</time>
      </trkpt>
      <trkpt lat="45.16618" lon="5.2541">
        <ele>424.1</ele>
        <time>2010-10-17T09:19:10Z</time>
      </trkpt>
      <trkpt lat="45.16618" lon="5.25409">
        <ele>423.7</ele>
        <time>2010-10-17T09:19:11Z</time>
      </trkpt>
      <trkpt lat="45.16619" lon="5.25409">
        <ele>423.4</ele>
        <time>2010-10-17T09:19:27Z</time>
      </trkpt>
      <trkpt lat="45.1662" lon="5.25408">
        <ele>422.9</ele>
        <time>2010-10-17T09:19:29Z</time>
      </trkpt>
      <trkpt lat="45.16619" lon="5.25408">
        <ele>423.4</ele>
        <time>2010-10-17T09:19:34Z</time>
      </trkpt>
      <trkpt lat="45.16618" lon="5.25408">
        <ele>424.2</ele>
        <time>2010-10-17T09:19:35Z</time>
      </trkpt>
      <trkpt lat="45.16618" lon="5.25408">
        <ele>424.3</ele>
        <time>2010-10-17T09:20:23Z</time>
      </trkpt>
      <trkpt lat="45.16617" lon="5.25405">
        <ele>423</ele>
        <time>2010-10-17T09:20:24Z</time>
      </trkpt>
      <trkpt lat="45.16618" lon="5.25406">
        <ele>423.2</ele>
        <time>2010-10-17T09:20:26Z</time>
      </trkpt>
      <trkpt lat="45.16618" lon="5.25404">
        <ele>424.1</ele>
        <time>2010-10-17T09:20:28Z</time>
      </trkpt>
      <trkpt lat="45.16618" lon="5.25404">
        <ele>424.3</ele>
        <time>2010-10-17T09:20:29Z</time>
      </trkpt>
      <trkpt lat="45.16618" lon="5.25405">
        <ele>423.9</ele>
        <time>2010-10-17T09:20:35Z</time>
      </trkpt>
      <trkpt lat="45.16617" lon="5.25404">
        <ele>423.5</ele>
        <time>2010-10-17T09:20:36Z</time>
      </trkpt>
      <trkpt lat="45.16617" lon="5.25404">
        <ele>423</ele>
        <time>2010-10-17T09:20:38Z</time>
      </trkpt>
      <trkpt lat="45.16618" lon="5.25402">
        <ele>421.9</ele>
        <time>2010-10-17T09:20:39Z</time>
      </trkpt>
      <trkpt lat="45.16618" lon="5.25403">
        <ele>422.7</ele>
        <time>2010-10-17T09:20:40Z</time>
      </trkpt>
      <trkpt lat="45.16618" lon="5.25403">
        <ele>422.7</ele>
        <time>2010-10-17T09:20:41Z</time>
      </trkpt>
      <trkpt lat="45.16618" lon="5.25403">
        <ele>423.8</ele>
        <time>2010-10-17T09:20:44Z</time>
      </trkpt>
      <trkpt lat="45.16619" lon="5.25404">
        <ele>423.8</ele>
        <time>2010-10-17T09:20:45Z</time>
      </trkpt>
      <trkpt lat="45.1662" lon="5.25405">
        <ele>423.3</ele>
        <time>2010-10-17T09:20:45Z</time>
      </trkpt>
      <trkpt lat="45.1662" lon="5.25405">
        <ele>423</ele>
        <time>2010-10-17T09:21:11Z</time>
      </trkpt>
      <trkpt lat="45.1662" lon="5.25406">
        <ele>424.1</ele>
        <time>2010-10-17T09:21:12Z</time>
      </trkpt>
      <trkpt lat="45.1662" lon="5.25406">
        <ele>424.1</ele>
        <time>2010-10-17T09:21:38Z</time>
      </trkpt>
      <trkpt lat="45.16617" lon="5.25403">
        <ele>424.3</ele>
        <time>2010-10-17T09:21:39Z</time>
      </trkpt>
      <trkpt lat="45.16617" lon="5.25402">
        <ele>424.2</ele>
        <time>2010-10-17T09:21:41Z</time>
      </trkpt>
      <trkpt lat="45.16617" lon="5.25404">
        <ele>424.3</ele>
        <time>2010-10-17T09:21:42Z</time>
      </trkpt>
      <trkpt lat="45.16617" lon="5.25404">
        <ele>424.2</ele>
        <time>2010-10-17T09:21:45Z</time>
      </trkpt>
      <trkpt lat="45.16616" lon="5.25403">
        <ele>424.2</ele>
        <time>2010-10-17T09:21:48Z</time>
      </trkpt>
      <trkpt lat="45.16616" lon="5.25404">
        <ele>423.6</ele>
        <time>2010-10-17T09:21:49Z</time>
      </trkpt>
      <trkpt lat="45.16618" lon="5.25407">
        <ele>424.1</ele>
        <time>2010-10-17T09:21:50Z</time>
      </trkpt>
      <trkpt lat="45.16618" lon="5.25407">
        <ele>424.2</ele>
        <time>2010-10-17T09:22:23Z</time>
      </trkpt>
      <trkpt lat="45.16617" lon="5.25406">
        <ele>424</ele>
        <time>2010-10-17T09:22:24Z</time>
      </trkpt>
      <trkpt lat="45.16617" lon="5.25406">
        <ele>424</ele>
        <time>2010-10-17T09:22:30Z</time>
      </trkpt>
      <trkpt lat="45.16615" lon="5.25405">
        <ele>422.8</ele>
        <time>2010-10-17T09:22:31Z</time>
      </trkpt>
      <trkpt lat="45.16615" lon="5.25404">
        <ele>423.3</ele>
        <time>2010-10-17T09:22:32Z</time>
      </trkpt>
      <trkpt lat="45.16615" lon="5.25404">
        <ele>423</ele>
        <time>2010-10-17T09:22:34Z</time>
      </trkpt>
      <trkpt lat="45.16614" lon="5.25405">
        <ele>423.8</ele>
        <time>2010-10-17T09:22:35Z</time>
      </trkpt>
      <trkpt lat="45.16614" lon="5.25405">
        <ele>424.1</ele>
        <time>2010-10-17T09:22:39Z</time>
      </trkpt>
      <trkpt lat="45.16615" lon="5.25404">
        <ele>423.9</ele>
        <time>2010-10-17T09:22:45Z</time>
      </trkpt>
      <trkpt lat="45.16616" lon="5.25404">
        <ele>423.7</ele>
        <time>2010-10-17T09:22:45Z</time>
      </trkpt>
      <trkpt lat="45.16615" lon="5.25404">
        <ele>423.6</ele>
        <time>2010-10-17T09:22:57Z</time>
      </trkpt>
      <trkpt lat="45.16618" lon="5.2541">
        <ele>422.7</ele>
        <time>2010-10-17T09:22:58Z</time>
      </trkpt>
      <trkpt lat="45.1662" lon="5.25411">
        <ele>423.9</ele>
        <time>2010-10-17T09:22:59Z</time>
      </trkpt>
      <trkpt lat="45.1662" lon="5.25411">
        <ele>424.4</ele>
        <time>2010-10-17T09:23:00Z</time>
      </trkpt>
      <trkpt lat="45.1662" lon="5.25413">
        <ele>424</ele>
        <time>2010-10-17T09:23:02Z</time>
      </trkpt>
      <trkpt lat="45.16619" lon="5.25414">
        <ele>424</ele>
        <time>2010-10-17T09:23:04Z</time>
      </trkpt>
      <trkpt lat="45.1662" lon="5.25414">
        <ele>424.1</ele>
        <time>2010-10-17T09:23:05Z</time>
      </trkpt>
      <trkpt lat="45.16619" lon="5.25413">
        <ele>424.1</ele>
        <time>2010-10-17T09:23:07Z</time>
      </trkpt>
      <trkpt lat="45.16619" lon="5.25414">
        <ele>424.2</ele>
        <time>2010-10-17T09:23:08Z</time>
      </trkpt>
      <trkpt lat="45.16618" lon="5.25414">
        <ele>425.3</ele>
        <time>2010-10-17T09:23:09Z</time>
      </trkpt>
      <trkpt lat="45.16618" lon="5.25412">
        <ele>424.7</ele>
        <time>2010-10-17T09:23:10Z</time>
      </trkpt>
      <trkpt lat="45.16618" lon="5.25412">
        <ele>424.8</ele>
        <time>2010-10-17T09:23:13Z</time>
      </trkpt>
      <trkpt lat="45.16619" lon="5.25413">
        <ele>424.7</ele>
        <time>2010-10-17T09:23:14Z</time>
      </trkpt>
      <trkpt lat="45.16619" lon="5.25413">
        <ele>424.7</ele>
        <time>2010-10-17T09:23:15Z</time>
      </trkpt>
      <trkpt lat="45.16618" lon="5.25412">
        <ele>424.4</ele>
        <time>2010-10-17T09:23:16Z</time>
      </trkpt>
      <trkpt lat="45.1662" lon="5.25413">
        <ele>424.8</ele>
        <time>2010-10-17T09:23:17Z</time>
      </trkpt>
      <trkpt lat="45.16619" lon="5.25413">
        <ele>425.5</ele>
        <time>2010-10-17T09:23:31Z</time>
      </trkpt>
      <trkpt lat="45.1662" lon="5.25414">
        <ele>425.7</ele>
        <time>2010-10-17T09:23:32Z</time>
      </trkpt>
      <trkpt lat="45.1662" lon="5.25414">
        <ele>425.7</ele>
        <time>2010-10-17T09:25:58Z</time>
      </trkpt>
      <trkpt lat="45.16619" lon="5.25413">
        <ele>425.6</ele>
        <time>2010-10-17T09:25:59Z</time>
      </trkpt>
      <trkpt lat="45.16619" lon="5.25413">
        <ele>425.6</ele>
        <time>2010-10-17T09:27:31Z</time>
      </trkpt>
      <trkpt lat="45.1661" lon="5.25412">
        <ele>422.5</ele>
        <time>2010-10-17T09:27:32Z</time>
      </trkpt>
      <trkpt lat="45.16612" lon="5.25415">
        <ele>420.6</ele>
        <time>2010-10-17T09:27:33Z</time>
      </trkpt>
      <trkpt lat="45.16612" lon="5.25415">
        <ele>420.2</ele>
        <time>2010-10-17T09:27:36Z</time>
      </trkpt>
      <trkpt lat="45.16612" lon="5.25414">
        <ele>420.8</ele>
        <time>2010-10-17T09:27:37Z</time>
      </trkpt>
      <trkpt lat="45.16613" lon="5.25412">
        <ele>421.3</ele>
        <time>2010-10-17T09:27:38Z</time>
      </trkpt>
      <trkpt lat="45.16613" lon="5.25412">
        <ele>421.9</ele>
        <time>2010-10-17T09:27:45Z</time>
      </trkpt>
      <trkpt lat="45.16613" lon="5.25411">
        <ele>422.2</ele>
        <time>2010-10-17T09:27:47Z</time>
      </trkpt>
      <trkpt lat="45.16616" lon="5.25407">
        <ele>423.9</ele>
        <time>2010-10-17T09:27:49Z</time>
      </trkpt>
      <trkpt lat="45.16616" lon="5.25407">
        <ele>423.8</ele>
        <time>2010-10-17T09:27:53Z</time>
      </trkpt>
      <trkpt lat="45.16617" lon="5.25408">
        <ele>423.6</ele>
        <time>2010-10-17T09:27:54Z</time>
      </trkpt>
      <trkpt lat="45.16617" lon="5.25408">
        <ele>423.7</ele>
        <time>2010-10-17T09:27:57Z</time>
      </trkpt>
      <trkpt lat="45.16618" lon="5.2541">
        <ele>422.1</ele>
        <time>2010-10-17T09:27:58Z</time>
      </trkpt>
      <trkpt lat="45.16617" lon="5.25411">
        <ele>422.5</ele>
        <time>2010-10-17T09:27:59Z</time>
      </trkpt>
      <trkpt lat="45.16617" lon="5.25411">
        <ele>422.8</ele>
        <time>2010-10-17T09:28:03Z</time>
      </trkpt>
      <trkpt lat="45.16618" lon="5.25412">
        <ele>423.1</ele>
        <time>2010-10-17T09:28:09Z</time>
      </trkpt>
      <trkpt lat="45.16618" lon="5.25414">
        <ele>424.1</ele>
        <time>2010-10-17T09:28:10Z</time>
      </trkpt>
      <trkpt lat="45.16618" lon="5.25414">
        <ele>423.9</ele>
        <time>2010-10-17T09:28:40Z</time>
      </trkpt>
      <trkpt lat="45.16617" lon="5.25415">
        <ele>424.2</ele>
        <time>2010-10-17T09:28:41Z</time>
      </trkpt>
      <trkpt lat="45.16617" lon="5.25416">
        <ele>424.3</ele>
        <time>2010-10-17T09:28:44Z</time>
      </trkpt>
      <trkpt lat="45.16618" lon="5.25417">
        <ele>424.3</ele>
        <time>2010-10-17T09:28:45Z</time>
      </trkpt>
      <trkpt lat="45.16618" lon="5.25417">
        <ele>424.7</ele>
        <time>2010-10-17T09:28:48Z</time>
      </trkpt>
      <trkpt lat="45.16617" lon="5.25416">
        <ele>425.1</ele>
        <time>2010-10-17T09:28:49Z</time>
      </trkpt>
      <trkpt lat="45.16617" lon="5.25417">
        <ele>424.7</ele>
        <time>2010-10-17T09:28:58Z</time>
      </trkpt>
      <trkpt lat="45.16614" lon="5.25419">
        <ele>424.9</ele>
        <time>2010-10-17T09:28:59Z</time>
      </trkpt>
      <trkpt lat="45.16611" lon="5.25422">
        <ele>425</ele>
        <time>2010-10-17T09:29:00Z</time>
      </trkpt>
      <trkpt lat="45.16609" lon="5.25426">
        <ele>424.4</ele>
        <time>2010-10-17T09:29:01Z</time>
      </trkpt>
      <trkpt lat="45.16609" lon="5.2543">
        <ele>423.9</ele>
        <time>2010-10-17T09:29:02Z</time>
      </trkpt>
      <trkpt lat="45.16606" lon="5.25435">
        <ele>423.4</ele>
        <time>2010-10-17T09:29:02Z</time>
      </trkpt>
      <trkpt lat="45.16602" lon="5.25439">
        <ele>423.1</ele>
        <time>2010-10-17T09:29:04Z</time>
      </trkpt>
      <trkpt lat="45.16599" lon="5.25443">
        <ele>423.1</ele>
        <time>2010-10-17T09:29:05Z</time>
      </trkpt>
      <trkpt lat="45.16595" lon="5.25446">
        <ele>422.7</ele>
        <time>2010-10-17T09:29:06Z</time>
      </trkpt>
      <trkpt lat="45.16591" lon="5.25449">
        <ele>422.4</ele>
        <time>2010-10-17T09:29:07Z</time>
      </trkpt>
      <trkpt lat="45.16586" lon="5.25451">
        <ele>421.8</ele>
        <time>2010-10-17T09:29:08Z</time>
      </trkpt>
      <trkpt lat="45.16582" lon="5.25454">
        <ele>421.4</ele>
        <time>2010-10-17T09:29:09Z</time>
      </trkpt>
      <trkpt lat="45.16578" lon="5.25456">
        <ele>420.8</ele>
        <time>2010-10-17T09:29:10Z</time>
      </trkpt>
      <trkpt lat="45.16574" lon="5.25457">
        <ele>420.3</ele>
        <time>2010-10-17T09:29:11Z</time>
      </trkpt>
      <trkpt lat="45.1657" lon="5.25458">
        <ele>419.9</ele>
        <time>2010-10-17T09:29:12Z</time>
      </trkpt>
      <trkpt lat="45.16565" lon="5.2546">
        <ele>420</ele>
        <time>2010-10-17T09:29:13Z</time>
      </trkpt>
      <trkpt lat="45.16561" lon="5.25462">
        <ele>419.7</ele>
        <time>2010-10-17T09:29:14Z</time>
      </trkpt>
      <trkpt lat="45.16556" lon="5.25464">
        <ele>418.9</ele>
        <time>2010-10-17T09:29:15Z</time>
      </trkpt>
      <trkpt lat="45.16552" lon="5.25467">
        <ele>418.5</ele>
        <time>2010-10-17T09:29:16Z</time>
      </trkpt>
      <trkpt lat="45.16547" lon="5.2547">
        <ele>418.2</ele>
        <time>2010-10-17T09:29:17Z</time>
      </trkpt>
      <trkpt lat="45.16542" lon="5.25472">
        <ele>416.4</ele>
        <time>2010-10-17T09:29:18Z</time>
      </trkpt>
      <trkpt lat="45.16537" lon="5.25471">
        <ele>415.8</ele>
        <time>2010-10-17T09:29:19Z</time>
      </trkpt>
      <trkpt lat="45.16533" lon="5.25469">
        <ele>414.7</ele>
        <time>2010-10-17T09:29:20Z</time>
      </trkpt>
      <trkpt lat="45.16528" lon="5.25466">
        <ele>414.4</ele>
        <time>2010-10-17T09:29:21Z</time>
      </trkpt>
      <trkpt lat="45.16523" lon="5.25461">
        <ele>413.8</ele>
        <time>2010-10-17T09:29:22Z</time>
      </trkpt>
      <trkpt lat="45.16518" lon="5.25457">
        <ele>413.7</ele>
        <time>2010-10-17T09:29:22Z</time>
      </trkpt>
      <trkpt lat="45.16512" lon="5.25453">
        <ele>413.2</ele>
        <time>2010-10-17T09:29:24Z</time>
      </trkpt>
      <trkpt lat="45.16507" lon="5.25451">
        <ele>412.9</ele>
        <time>2010-10-17T09:29:25Z</time>
      </trkpt>
      <trkpt lat="45.16502" lon="5.25449">
        <ele>412.2</ele>
        <time>2010-10-17T09:29:26Z</time>
      </trkpt>
      <trkpt lat="45.16495" lon="5.2545">
        <ele>412.3</ele>
        <time>2010-10-17T09:29:27Z</time>
      </trkpt>
      <trkpt lat="45.1649" lon="5.25447">
        <ele>411.9</ele>
        <time>2010-10-17T09:29:28Z</time>
      </trkpt>
      <trkpt lat="45.16482" lon="5.25447">
        <ele>412</ele>
        <time>2010-10-17T09:29:29Z</time>
      </trkpt>
      <trkpt lat="45.16475" lon="5.25446">
        <ele>411.9</ele>
        <time>2010-10-17T09:29:30Z</time>
      </trkpt>
      <trkpt lat="45.16466" lon="5.25441">
        <ele>411.6</ele>
        <time>2010-10-17T09:29:31Z</time>
      </trkpt>
      <trkpt lat="45.16459" lon="5.25438">
        <ele>411.4</ele>
        <time>2010-10-17T09:29:32Z</time>
      </trkpt>
      <trkpt lat="45.1645" lon="5.25434">
        <ele>411</ele>
        <time>2010-10-17T09:29:33Z</time>
      </trkpt>
      <trkpt lat="45.16441" lon="5.25429">
        <ele>410.7</ele>
        <time>2010-10-17T09:29:34Z</time>
      </trkpt>
      <trkpt lat="45.16432" lon="5.25425">
        <ele>410.1</ele>
        <time>2010-10-17T09:29:35Z</time>
      </trkpt>
      <trkpt lat="45.16424" lon="5.2542">
        <ele>409.9</ele>
        <time>2010-10-17T09:29:36Z</time>
      </trkpt>
      <trkpt lat="45.16415" lon="5.25418">
        <ele>410.1</ele>
        <time>2010-10-17T09:29:37Z</time>
      </trkpt>
      <trkpt lat="45.16407" lon="5.25414">
        <ele>410</ele>
        <time>2010-10-17T09:29:38Z</time>
      </trkpt>
      <trkpt lat="45.16399" lon="5.25412">
        <ele>410</ele>
        <time>2010-10-17T09:29:39Z</time>
      </trkpt>
      <trkpt lat="45.1639" lon="5.2541">
        <ele>410</ele>
        <time>2010-10-17T09:29:40Z</time>
      </trkpt>
      <trkpt lat="45.16381" lon="5.25409">
        <ele>409</ele>
        <time>2010-10-17T09:29:41Z</time>
      </trkpt>
      <trkpt lat="45.16372" lon="5.25406">
        <ele>408.5</ele>
        <time>2010-10-17T09:29:41Z</time>
      </trkpt>
      <trkpt lat="45.16362" lon="5.25404">
        <ele>407.2</ele>
        <time>2010-10-17T09:29:42Z</time>
      </trkpt>
      <trkpt lat="45.16353" lon="5.25402">
        <ele>406.6</ele>
        <time>2010-10-17T09:29:44Z</time>
      </trkpt>
      <trkpt lat="45.16343" lon="5.25399">
        <ele>405.9</ele>
        <time>2010-10-17T09:29:45Z</time>
      </trkpt>
      <trkpt lat="45.16334" lon="5.25398">
        <ele>405.1</ele>
        <time>2010-10-17T09:29:46Z</time>
      </trkpt>
      <trkpt lat="45.16323" lon="5.25396">
        <ele>405</ele>
        <time>2010-10-17T09:29:47Z</time>
      </trkpt>
      <trkpt lat="45.16314" lon="5.25396">
        <ele>404.8</ele>
        <time>2010-10-17T09:29:48Z</time>
      </trkpt>
      <trkpt lat="45.16304" lon="5.25397">
        <ele>404.4</ele>
        <time>2010-10-17T09:29:49Z</time>
      </trkpt>
      <trkpt lat="45.16295" lon="5.25398">
        <ele>404.4</ele>
        <time>2010-10-17T09:29:50Z</time>
      </trkpt>
      <trkpt lat="45.16287" lon="5.25399">
        <ele>404.1</ele>
        <time>2010-10-17T09:29:51Z</time>
      </trkpt>
      <trkpt lat="45.1628" lon="5.254">
        <ele>403.7</ele>
        <time>2010-10-17T09:29:52Z</time>
      </trkpt>
      <trkpt lat="45.16274" lon="5.25401">
        <ele>403.1</ele>
        <time>2010-10-17T09:29:53Z</time>
      </trkpt>
      <trkpt lat="45.16268" lon="5.25402">
        <ele>402.4</ele>
        <time>2010-10-17T09:29:54Z</time>
      </trkpt>
      <trkpt lat="45.1626" lon="5.25401">
        <ele>402.2</ele>
        <time>2010-10-17T09:29:55Z</time>
      </trkpt>
      <trkpt lat="45.16256" lon="5.25397">
        <ele>402</ele>
        <time>2010-10-17T09:29:56Z</time>
      </trkpt>
      <trkpt lat="45.16255" lon="5.25393">
        <ele>401.3</ele>
        <time>2010-10-17T09:29:57Z</time>
      </trkpt>
      <trkpt lat="45.16257" lon="5.25388">
        <ele>400.8</ele>
        <time>2010-10-17T09:29:58Z</time>
      </trkpt>
      <trkpt lat="45.16257" lon="5.25382">
        <ele>399.9</ele>
        <time>2010-10-17T09:29:59Z</time>
      </trkpt>
      <trkpt lat="45.16256" lon="5.25374">
        <ele>399.8</ele>
        <time>2010-10-17T09:30:00Z</time>
      </trkpt>
      <trkpt lat="45.16255" lon="5.25364">
        <ele>399.1</ele>
        <time>2010-10-17T09:30:01Z</time>
      </trkpt>
      <trkpt lat="45.16252" lon="5.25351">
        <ele>399.1</ele>
        <time>2010-10-17T09:30:01Z</time>
      </trkpt>
      <trkpt lat="45.16252" lon="5.25338">
        <ele>398.8</ele>
        <time>2010-10-17T09:30:02Z</time>
      </trkpt>
      <trkpt lat="45.16251" lon="5.25327">
        <ele>398.6</ele>
        <time>2010-10-17T09:30:04Z</time>
      </trkpt>
      <trkpt lat="45.1625" lon="5.25315">
        <ele>398</ele>
        <time>2010-10-17T09:30:05Z</time>
      </trkpt>
      <trkpt lat="45.1625" lon="5.25308">
        <ele>396.9</ele>
        <time>2010-10-17T09:30:06Z</time>
      </trkpt>
      <trkpt lat="45.16251" lon="5.25301">
        <ele>396.1</ele>
        <time>2010-10-17T09:30:07Z</time>
      </trkpt>
      <trkpt lat="45.1625" lon="5.25295">
        <ele>394.8</ele>
        <time>2010-10-17T09:30:08Z</time>
      </trkpt>
      <trkpt lat="45.16248" lon="5.25294">
        <ele>392.3</ele>
        <time>2010-10-17T09:30:09Z</time>
      </trkpt>
      <trkpt lat="45.16247" lon="5.25295">
        <ele>391.5</ele>
        <time>2010-10-17T09:30:10Z</time>
      </trkpt>
      <trkpt lat="45.16244" lon="5.25296">
        <ele>389.4</ele>
        <time>2010-10-17T09:30:11Z</time>
      </trkpt>
      <trkpt lat="45.16241" lon="5.25298">
        <ele>387.4</ele>
        <time>2010-10-17T09:30:12Z</time>
      </trkpt>
      <trkpt lat="45.16238" lon="5.25301">
        <ele>386</ele>
        <time>2010-10-17T09:30:13Z</time>
      </trkpt>
      <trkpt lat="45.16235" lon="5.25304">
        <ele>385.3</ele>
        <time>2010-10-17T09:30:14Z</time>
      </trkpt>
      <trkpt lat="45.16231" lon="5.25307">
        <ele>384.3</ele>
        <time>2010-10-17T09:30:15Z</time>
      </trkpt>
      <trkpt lat="45.16228" lon="5.2531">
        <ele>384</ele>
        <time>2010-10-17T09:30:16Z</time>
      </trkpt>
      <trkpt lat="45.16226" lon="5.25314">
        <ele>384</ele>
        <time>2010-10-17T09:30:17Z</time>
      </trkpt>
      <trkpt lat="45.16223" lon="5.25318">
        <ele>383.1</ele>
        <time>2010-10-17T09:30:18Z</time>
      </trkpt>
      <trkpt lat="45.16221" lon="5.25321">
        <ele>382.6</ele>
        <time>2010-10-17T09:30:19Z</time>
      </trkpt>
      <trkpt lat="45.16218" lon="5.25325">
        <ele>381.1</ele>
        <time>2010-10-17T09:30:20Z</time>
      </trkpt>
      <trkpt lat="45.16216" lon="5.25328">
        <ele>380.7</ele>
        <time>2010-10-17T09:30:21Z</time>
      </trkpt>
      <trkpt lat="45.16213" lon="5.25331">
        <ele>380.5</ele>
        <time>2010-10-17T09:30:21Z</time>
      </trkpt>
      <trkpt lat="45.1621" lon="5.25333">
        <ele>379.7</ele>
        <time>2010-10-17T09:30:22Z</time>
      </trkpt>
      <trkpt lat="45.16208" lon="5.25336">
        <ele>379.3</ele>
        <time>2010-10-17T09:30:24Z</time>
      </trkpt>
      <trkpt lat="45.16205" lon="5.25339">
        <ele>379.1</ele>
        <time>2010-10-17T09:30:25Z</time>
      </trkpt>
      <trkpt lat="45.16203" lon="5.25342">
        <ele>378.9</ele>
        <time>2010-10-17T09:30:26Z</time>
      </trkpt>
      <trkpt lat="45.16199" lon="5.25345">
        <ele>379.2</ele>
        <time>2010-10-17T09:30:27Z</time>
      </trkpt>
      <trkpt lat="45.16196" lon="5.25348">
        <ele>379.3</ele>
        <time>2010-10-17T09:30:28Z</time>
      </trkpt>
      <trkpt lat="45.16193" lon="5.25351">
        <ele>378.7</ele>
        <time>2010-10-17T09:30:29Z</time>
      </trkpt>
      <trkpt lat="45.1619" lon="5.25354">
        <ele>378.4</ele>
        <time>2010-10-17T09:30:30Z</time>
      </trkpt>
      <trkpt lat="45.16188" lon="5.25357">
        <ele>378.9</ele>
        <time>2010-10-17T09:30:31Z</time>
      </trkpt>
      <trkpt lat="45.16185" lon="5.25359">
        <ele>379</ele>
        <time>2010-10-17T09:30:32Z</time>
      </trkpt>
      <trkpt lat="45.16182" lon="5.25361">
        <ele>379</ele>
        <time>2010-10-17T09:30:33Z</time>
      </trkpt>
      <trkpt lat="45.16179" lon="5.25364">
        <ele>378.9</ele>
        <time>2010-10-17T09:30:34Z</time>
      </trkpt>
      <trkpt lat="45.16177" lon="5.25367">
        <ele>378.7</ele>
        <time>2010-10-17T09:30:35Z</time>
      </trkpt>
      <trkpt lat="45.16175" lon="5.25369">
        <ele>378.3</ele>
        <time>2010-10-17T09:30:36Z</time>
      </trkpt>
      <trkpt lat="45.16172" lon="5.25371">
        <ele>378.4</ele>
        <time>2010-10-17T09:30:37Z</time>
      </trkpt>
      <trkpt lat="45.16171" lon="5.25373">
        <ele>378.1</ele>
        <time>2010-10-17T09:30:38Z</time>
      </trkpt>
      <trkpt lat="45.16169" lon="5.25375">
        <ele>378.2</ele>
        <time>2010-10-17T09:30:39Z</time>
      </trkpt>
      <trkpt lat="45.16167" lon="5.25379">
        <ele>378.1</ele>
        <time>2010-10-17T09:30:40Z</time>
      </trkpt>
      <trkpt lat="45.16163" lon="5.25381">
        <ele>378.7</ele>
        <time>2010-10-17T09:30:41Z</time>
      </trkpt>
      <trkpt lat="45.1616" lon="5.25384">
        <ele>378.3</ele>
        <time>2010-10-17T09:30:41Z</time>
      </trkpt>
      <trkpt lat="45.16157" lon="5.25386">
        <ele>378</ele>
        <time>2010-10-17T09:30:42Z</time>
      </trkpt>
      <trkpt lat="45.16155" lon="5.25388">
        <ele>378</ele>
        <time>2010-10-17T09:30:44Z</time>
      </trkpt>
      <trkpt lat="45.16152" lon="5.25391">
        <ele>377.9</ele>
        <time>2010-10-17T09:30:45Z</time>
      </trkpt>
      <trkpt lat="45.1615" lon="5.25393">
        <ele>377.9</ele>
        <time>2010-10-17T09:30:46Z</time>
      </trkpt>
      <trkpt lat="45.16146" lon="5.25395">
        <ele>378</ele>
        <time>2010-10-17T09:30:47Z</time>
      </trkpt>
      <trkpt lat="45.16143" lon="5.25397">
        <ele>378.1</ele>
        <time>2010-10-17T09:30:48Z</time>
      </trkpt>
      <trkpt lat="45.1614" lon="5.25401">
        <ele>378.1</ele>
        <time>2010-10-17T09:30:49Z</time>
      </trkpt>
      <trkpt lat="45.16136" lon="5.25404">
        <ele>378</ele>
        <time>2010-10-17T09:30:50Z</time>
      </trkpt>
      <trkpt lat="45.16133" lon="5.25406">
        <ele>378</ele>
        <time>2010-10-17T09:30:51Z</time>
      </trkpt>
      <trkpt lat="45.16131" lon="5.25409">
        <ele>377.4</ele>
        <time>2010-10-17T09:30:52Z</time>
      </trkpt>
      <trkpt lat="45.16128" lon="5.2541">
        <ele>377.1</ele>
        <time>2010-10-17T09:30:53Z</time>
      </trkpt>
      <trkpt lat="45.16126" lon="5.25413">
        <ele>376.4</ele>
        <time>2010-10-17T09:30:54Z</time>
      </trkpt>
      <trkpt lat="45.16122" lon="5.25415">
        <ele>376</ele>
        <time>2010-10-17T09:30:55Z</time>
      </trkpt>
      <trkpt lat="45.16117" lon="5.25419">
        <ele>375</ele>
        <time>2010-10-17T09:30:56Z</time>
      </trkpt>
      <trkpt lat="45.16113" lon="5.25422">
        <ele>374.4</ele>
        <time>2010-10-17T09:30:57Z</time>
      </trkpt>
      <trkpt lat="45.16109" lon="5.25426">
        <ele>372.7</ele>
        <time>2010-10-17T09:30:58Z</time>
      </trkpt>
      <trkpt lat="45.16105" lon="5.25431">
        <ele>373</ele>
        <time>2010-10-17T09:30:59Z</time>
      </trkpt>
      <trkpt lat="45.16101" lon="5.25434">
        <ele>373.6</ele>
        <time>2010-10-17T09:31:00Z</time>
      </trkpt>
      <trkpt lat="45.16098" lon="5.25436">
        <ele>373.4</ele>
        <time>2010-10-17T09:31:01Z</time>
      </trkpt>
      <trkpt lat="45.16095" lon="5.25438">
        <ele>373.6</ele>
        <time>2010-10-17T09:31:01Z</time>
      </trkpt>
      <trkpt lat="45.16093" lon="5.25441">
        <ele>373.4</ele>
        <time>2010-10-17T09:31:03Z</time>
      </trkpt>
      <trkpt lat="45.1609" lon="5.25444">
        <ele>373.1</ele>
        <time>2010-10-17T09:31:04Z</time>
      </trkpt>
      <trkpt lat="45.16088" lon="5.25449">
        <ele>373</ele>
        <time>2010-10-17T09:31:05Z</time>
      </trkpt>
      <trkpt lat="45.16084" lon="5.25453">
        <ele>372.6</ele>
        <time>2010-10-17T09:31:06Z</time>
      </trkpt>
      <trkpt lat="45.16083" lon="5.25457">
        <ele>371.8</ele>
        <time>2010-10-17T09:31:07Z</time>
      </trkpt>
      <trkpt lat="45.1608" lon="5.25461">
        <ele>371.8</ele>
        <time>2010-10-17T09:31:08Z</time>
      </trkpt>
      <trkpt lat="45.16077" lon="5.25465">
        <ele>372.4</ele>
        <time>2010-10-17T09:31:09Z</time>
      </trkpt>
      <trkpt lat="45.16074" lon="5.25469">
        <ele>372.7</ele>
        <time>2010-10-17T09:31:10Z</time>
      </trkpt>
      <trkpt lat="45.16073" lon="5.25474">
        <ele>372.4</ele>
        <time>2010-10-17T09:31:11Z</time>
      </trkpt>
      <trkpt lat="45.16072" lon="5.25478">
        <ele>371.8</ele>
        <time>2010-10-17T09:31:12Z</time>
      </trkpt>
      <trkpt lat="45.16071" lon="5.25483">
        <ele>371.7</ele>
        <time>2010-10-17T09:31:13Z</time>
      </trkpt>
      <trkpt lat="45.16073" lon="5.25486">
        <ele>373.8</ele>
        <time>2010-10-17T09:31:14Z</time>
      </trkpt>
      <trkpt lat="45.16071" lon="5.2549">
        <ele>374.7</ele>
        <time>2010-10-17T09:31:15Z</time>
      </trkpt>
      <trkpt lat="45.1607" lon="5.25493">
        <ele>374.9</ele>
        <time>2010-10-17T09:31:16Z</time>
      </trkpt>
      <trkpt lat="45.16069" lon="5.25496">
        <ele>375.4</ele>
        <time>2010-10-17T09:31:17Z</time>
      </trkpt>
      <trkpt lat="45.16067" lon="5.255">
        <ele>375.7</ele>
        <time>2010-10-17T09:31:18Z</time>
      </trkpt>
      <trkpt lat="45.16066" lon="5.25504">
        <ele>374.8</ele>
        <time>2010-10-17T09:31:19Z</time>
      </trkpt>
      <trkpt lat="45.16066" lon="5.25508">
        <ele>375.2</ele>
        <time>2010-10-17T09:31:20Z</time>
      </trkpt>
      <trkpt lat="45.16066" lon="5.25514">
        <ele>374.8</ele>
        <time>2010-10-17T09:31:21Z</time>
      </trkpt>
      <trkpt lat="45.16068" lon="5.25519">
        <ele>374</ele>
        <time>2010-10-17T09:31:21Z</time>
      </trkpt>
      <trkpt lat="45.16068" lon="5.25525">
        <ele>374.3</ele>
        <time>2010-10-17T09:31:23Z</time>
      </trkpt>
      <trkpt lat="45.16067" lon="5.25531">
        <ele>373.9</ele>
        <time>2010-10-17T09:31:24Z</time>
      </trkpt>
      <trkpt lat="45.16066" lon="5.25537">
        <ele>373.9</ele>
        <time>2010-10-17T09:31:25Z</time>
      </trkpt>
      <trkpt lat="45.16067" lon="5.25543">
        <ele>373.9</ele>
        <time>2010-10-17T09:31:26Z</time>
      </trkpt>
      <trkpt lat="45.16066" lon="5.25549">
        <ele>373.4</ele>
        <time>2010-10-17T09:31:27Z</time>
      </trkpt>
      <trkpt lat="45.16067" lon="5.25554">
        <ele>373.3</ele>
        <time>2010-10-17T09:31:28Z</time>
      </trkpt>
      <trkpt lat="45.16068" lon="5.25559">
        <ele>373.1</ele>
        <time>2010-10-17T09:31:29Z</time>
      </trkpt>
      <trkpt lat="45.16069" lon="5.25563">
        <ele>372.5</ele>
        <time>2010-10-17T09:31:30Z</time>
      </trkpt>
      <trkpt lat="45.16069" lon="5.25569">
        <ele>371.5</ele>
        <time>2010-10-17T09:31:31Z</time>
      </trkpt>
      <trkpt lat="45.16068" lon="5.25573">
        <ele>371</ele>
        <time>2010-10-17T09:31:32Z</time>
      </trkpt>
      <trkpt lat="45.16069" lon="5.25579">
        <ele>371</ele>
        <time>2010-10-17T09:31:33Z</time>
      </trkpt>
      <trkpt lat="45.16068" lon="5.25585">
        <ele>371</ele>
        <time>2010-10-17T09:31:34Z</time>
      </trkpt>
      <trkpt lat="45.16069" lon="5.25589">
        <ele>370.9</ele>
        <time>2010-10-17T09:31:35Z</time>
      </trkpt>
      <trkpt lat="45.16069" lon="5.25594">
        <ele>370</ele>
        <time>2010-10-17T09:31:36Z</time>
      </trkpt>
      <trkpt lat="45.1607" lon="5.25597">
        <ele>369.5</ele>
        <time>2010-10-17T09:31:37Z</time>
      </trkpt>
      <trkpt lat="45.16073" lon="5.25601">
        <ele>368.6</ele>
        <time>2010-10-17T09:31:38Z</time>
      </trkpt>
      <trkpt lat="45.16076" lon="5.25605">
        <ele>369.6</ele>
        <time>2010-10-17T09:31:39Z</time>
      </trkpt>
      <trkpt lat="45.16077" lon="5.25609">
        <ele>370</ele>
        <time>2010-10-17T09:31:40Z</time>
      </trkpt>
      <trkpt lat="45.16079" lon="5.25614">
        <ele>370.2</ele>
        <time>2010-10-17T09:31:41Z</time>
      </trkpt>
      <trkpt lat="45.16081" lon="5.25617">
        <ele>369.8</ele>
        <time>2010-10-17T09:31:41Z</time>
      </trkpt>
      <trkpt lat="45.16083" lon="5.25621">
        <ele>369.9</ele>
        <time>2010-10-17T09:31:43Z</time>
      </trkpt>
      <trkpt lat="45.16084" lon="5.25626">
        <ele>369.7</ele>
        <time>2010-10-17T09:31:44Z</time>
      </trkpt>
      <trkpt lat="45.16086" lon="5.25629">
        <ele>369.7</ele>
        <time>2010-10-17T09:31:45Z</time>
      </trkpt>
      <trkpt lat="45.16087" lon="5.25633">
        <ele>369</ele>
        <time>2010-10-17T09:31:46Z</time>
      </trkpt>
      <trkpt lat="45.16088" lon="5.25637">
        <ele>368.9</ele>
        <time>2010-10-17T09:31:47Z</time>
      </trkpt>
      <trkpt lat="45.16087" lon="5.25641">
        <ele>368.9</ele>
        <time>2010-10-17T09:31:48Z</time>
      </trkpt>
      <trkpt lat="45.16088" lon="5.25646">
        <ele>369</ele>
        <time>2010-10-17T09:31:49Z</time>
      </trkpt>
      <trkpt lat="45.16091" lon="5.25649">
        <ele>369.2</ele>
        <time>2010-10-17T09:31:50Z</time>
      </trkpt>
      <trkpt lat="45.16093" lon="5.25653">
        <ele>369</ele>
        <time>2010-10-17T09:31:51Z</time>
      </trkpt>
      <trkpt lat="45.16094" lon="5.25656">
        <ele>368.6</ele>
        <time>2010-10-17T09:31:52Z</time>
      </trkpt>
      <trkpt lat="45.16094" lon="5.25661">
        <ele>368.6</ele>
        <time>2010-10-17T09:31:53Z</time>
      </trkpt>
      <trkpt lat="45.16096" lon="5.25665">
        <ele>369.3</ele>
        <time>2010-10-17T09:31:54Z</time>
      </trkpt>
      <trkpt lat="45.16096" lon="5.25669">
        <ele>369.3</ele>
        <time>2010-10-17T09:31:55Z</time>
      </trkpt>
      <trkpt lat="45.16097" lon="5.25673">
        <ele>368.8</ele>
        <time>2010-10-17T09:31:56Z</time>
      </trkpt>
      <trkpt lat="45.16098" lon="5.25677">
        <ele>369.1</ele>
        <time>2010-10-17T09:31:57Z</time>
      </trkpt>
      <trkpt lat="45.16099" lon="5.2568">
        <ele>368.9</ele>
        <time>2010-10-17T09:31:58Z</time>
      </trkpt>
      <trkpt lat="45.16101" lon="5.25686">
        <ele>368.2</ele>
        <time>2010-10-17T09:31:59Z</time>
      </trkpt>
      <trkpt lat="45.16103" lon="5.25691">
        <ele>368.6</ele>
        <time>2010-10-17T09:32:00Z</time>
      </trkpt>
      <trkpt lat="45.16104" lon="5.25695">
        <ele>368.2</ele>
        <time>2010-10-17T09:32:00Z</time>
      </trkpt>
      <trkpt lat="45.16105" lon="5.25699">
        <ele>368.3</ele>
        <time>2010-10-17T09:32:01Z</time>
      </trkpt>
      <trkpt lat="45.16106" lon="5.25703">
        <ele>367.9</ele>
        <time>2010-10-17T09:32:03Z</time>
      </trkpt>
      <trkpt lat="45.16108" lon="5.25707">
        <ele>368</ele>
        <time>2010-10-17T09:32:04Z</time>
      </trkpt>
      <trkpt lat="45.16108" lon="5.25711">
        <ele>367.9</ele>
        <time>2010-10-17T09:32:05Z</time>
      </trkpt>
      <trkpt lat="45.16108" lon="5.25715">
        <ele>367.6</ele>
        <time>2010-10-17T09:32:06Z</time>
      </trkpt>
      <trkpt lat="45.1611" lon="5.25718">
        <ele>367.5</ele>
        <time>2010-10-17T09:32:07Z</time>
      </trkpt>
      <trkpt lat="45.16113" lon="5.25722">
        <ele>367.2</ele>
        <time>2010-10-17T09:32:08Z</time>
      </trkpt>
      <trkpt lat="45.16114" lon="5.25725">
        <ele>367</ele>
        <time>2010-10-17T09:32:09Z</time>
      </trkpt>
      <trkpt lat="45.16114" lon="5.25729">
        <ele>367.2</ele>
        <time>2010-10-17T09:32:10Z</time>
      </trkpt>
      <trkpt lat="45.16115" lon="5.25731">
        <ele>367.1</ele>
        <time>2010-10-17T09:32:11Z</time>
      </trkpt>
      <trkpt lat="45.16117" lon="5.25733">
        <ele>366.7</ele>
        <time>2010-10-17T09:32:12Z</time>
      </trkpt>
      <trkpt lat="45.16117" lon="5.25738">
        <ele>366.5</ele>
        <time>2010-10-17T09:32:13Z</time>
      </trkpt>
      <trkpt lat="45.16118" lon="5.25742">
        <ele>366.8</ele>
        <time>2010-10-17T09:32:14Z</time>
      </trkpt>
      <trkpt lat="45.16118" lon="5.25745">
        <ele>366.7</ele>
        <time>2010-10-17T09:32:15Z</time>
      </trkpt>
      <trkpt lat="45.16121" lon="5.25748">
        <ele>366.6</ele>
        <time>2010-10-17T09:32:16Z</time>
      </trkpt>
      <trkpt lat="45.16124" lon="5.25754">
        <ele>365.3</ele>
        <time>2010-10-17T09:32:17Z</time>
      </trkpt>
      <trkpt lat="45.16132" lon="5.25763">
        <ele>364.5</ele>
        <time>2010-10-17T09:32:18Z</time>
      </trkpt>
      <trkpt lat="45.16135" lon="5.2577">
        <ele>363.9</ele>
        <time>2010-10-17T09:32:19Z</time>
      </trkpt>
      <trkpt lat="45.16143" lon="5.25778">
        <ele>363.8</ele>
        <time>2010-10-17T09:32:20Z</time>
      </trkpt>
      <trkpt lat="45.16149" lon="5.25783">
        <ele>363</ele>
        <time>2010-10-17T09:32:20Z</time>
      </trkpt>
      <trkpt lat="45.16154" lon="5.25788">
        <ele>363</ele>
        <time>2010-10-17T09:32:21Z</time>
      </trkpt>
      <trkpt lat="45.16163" lon="5.25794">
        <ele>363.8</ele>
        <time>2010-10-17T09:32:23Z</time>
      </trkpt>
      <trkpt lat="45.16173" lon="5.25801">
        <ele>364.4</ele>
        <time>2010-10-17T09:32:24Z</time>
      </trkpt>
      <trkpt lat="45.16181" lon="5.2581">
        <ele>364.3</ele>
        <time>2010-10-17T09:32:25Z</time>
      </trkpt>
      <trkpt lat="45.16187" lon="5.25819">
        <ele>365</ele>
        <time>2010-10-17T09:32:26Z</time>
      </trkpt>
      <trkpt lat="45.16197" lon="5.25827">
        <ele>364.6</ele>
        <time>2010-10-17T09:32:27Z</time>
      </trkpt>
      <trkpt lat="45.16204" lon="5.25835">
        <ele>365.2</ele>
        <time>2010-10-17T09:32:28Z</time>
      </trkpt>
      <trkpt lat="45.1621" lon="5.25842">
        <ele>365.5</ele>
        <time>2010-10-17T09:32:29Z</time>
      </trkpt>
      <trkpt lat="45.16216" lon="5.25846">
        <ele>365.3</ele>
        <time>2010-10-17T09:32:30Z</time>
      </trkpt>
      <trkpt lat="45.16219" lon="5.25851">
        <ele>364.6</ele>
        <time>2010-10-17T09:32:31Z</time>
      </trkpt>
      <trkpt lat="45.16222" lon="5.25856">
        <ele>365</ele>
        <time>2010-10-17T09:32:32Z</time>
      </trkpt>
      <trkpt lat="45.16227" lon="5.25859">
        <ele>365.4</ele>
        <time>2010-10-17T09:32:33Z</time>
      </trkpt>
      <trkpt lat="45.16228" lon="5.25863">
        <ele>365.1</ele>
        <time>2010-10-17T09:32:34Z</time>
      </trkpt>
      <trkpt lat="45.1623" lon="5.25868">
        <ele>365.2</ele>
        <time>2010-10-17T09:32:35Z</time>
      </trkpt>
      <trkpt lat="45.16234" lon="5.25872">
        <ele>364.9</ele>
        <time>2010-10-17T09:32:36Z</time>
      </trkpt>
      <trkpt lat="45.16238" lon="5.25875">
        <ele>364.7</ele>
        <time>2010-10-17T09:32:37Z</time>
      </trkpt>
      <trkpt lat="45.16243" lon="5.25878">
        <ele>364.3</ele>
        <time>2010-10-17T09:32:38Z</time>
      </trkpt>
      <trkpt lat="45.1625" lon="5.25881">
        <ele>364.1</ele>
        <time>2010-10-17T09:32:39Z</time>
      </trkpt>
      <trkpt lat="45.16256" lon="5.25883">
        <ele>363.8</ele>
        <time>2010-10-17T09:32:40Z</time>
      </trkpt>
      <trkpt lat="45.16259" lon="5.25884">
        <ele>363.8</ele>
        <time>2010-10-17T09:32:40Z</time>
      </trkpt>
      <trkpt lat="45.16263" lon="5.25885">
        <ele>363.4</ele>
        <time>2010-10-17T09:32:41Z</time>
      </trkpt>
      <trkpt lat="45.16266" lon="5.25887">
        <ele>363</ele>
        <time>2010-10-17T09:32:43Z</time>
      </trkpt>
      <trkpt lat="45.1627" lon="5.25891">
        <ele>362.7</ele>
        <time>2010-10-17T09:32:44Z</time>
      </trkpt>
      <trkpt lat="45.16276" lon="5.25891">
        <ele>362.7</ele>
        <time>2010-10-17T09:32:45Z</time>
      </trkpt>
      <trkpt lat="45.1628" lon="5.25895">
        <ele>362.4</ele>
        <time>2010-10-17T09:32:46Z</time>
      </trkpt>
      <trkpt lat="45.16289" lon="5.25895">
        <ele>362.4</ele>
        <time>2010-10-17T09:32:47Z</time>
      </trkpt>
      <trkpt lat="45.16294" lon="5.25897">
        <ele>362.5</ele>
        <time>2010-10-17T09:32:48Z</time>
      </trkpt>
      <trkpt lat="45.16303" lon="5.25898">
        <ele>362.9</ele>
        <time>2010-10-17T09:32:49Z</time>
      </trkpt>
      <trkpt lat="45.16311" lon="5.25897">
        <ele>362.8</ele>
        <time>2010-10-17T09:32:50Z</time>
      </trkpt>
      <trkpt lat="45.16322" lon="5.25893">
        <ele>361</ele>
        <time>2010-10-17T09:32:51Z</time>
      </trkpt>
      <trkpt lat="45.16328" lon="5.25892">
        <ele>360</ele>
        <time>2010-10-17T09:32:52Z</time>
      </trkpt>
      <trkpt lat="45.16336" lon="5.25892">
        <ele>360.7</ele>
        <time>2010-10-17T09:32:53Z</time>
      </trkpt>
      <trkpt lat="45.16343" lon="5.25891">
        <ele>361.2</ele>
        <time>2010-10-17T09:32:54Z</time>
      </trkpt>
      <trkpt lat="45.1635" lon="5.2589">
        <ele>361.4</ele>
        <time>2010-10-17T09:32:55Z</time>
      </trkpt>
      <trkpt lat="45.16355" lon="5.25887">
        <ele>361</ele>
        <time>2010-10-17T09:32:56Z</time>
      </trkpt>
      <trkpt lat="45.16359" lon="5.25884">
        <ele>360.7</ele>
        <time>2010-10-17T09:32:57Z</time>
      </trkpt>
      <trkpt lat="45.16365" lon="5.25883">
        <ele>360.6</ele>
        <time>2010-10-17T09:32:58Z</time>
      </trkpt>
      <trkpt lat="45.16368" lon="5.25881">
        <ele>360.7</ele>
        <time>2010-10-17T09:32:59Z</time>
      </trkpt>
      <trkpt lat="45.16372" lon="5.2588">
        <ele>360.8</ele>
        <time>2010-10-17T09:33:00Z</time>
      </trkpt>
      <trkpt lat="45.16378" lon="5.25878">
        <ele>360.9</ele>
        <time>2010-10-17T09:33:00Z</time>
      </trkpt>
      <trkpt lat="45.16384" lon="5.25874">
        <ele>361.1</ele>
        <time>2010-10-17T09:33:02Z</time>
      </trkpt>
      <trkpt lat="45.1639" lon="5.25874">
        <ele>361.5</ele>
        <time>2010-10-17T09:33:03Z</time>
      </trkpt>
      <trkpt lat="45.16397" lon="5.25873">
        <ele>361.2</ele>
        <time>2010-10-17T09:33:04Z</time>
      </trkpt>
      <trkpt lat="45.16403" lon="5.25872">
        <ele>361.6</ele>
        <time>2010-10-17T09:33:05Z</time>
      </trkpt>
      <trkpt lat="45.1641" lon="5.25873">
        <ele>361.5</ele>
        <time>2010-10-17T09:33:06Z</time>
      </trkpt>
      <trkpt lat="45.16416" lon="5.25875">
        <ele>361.7</ele>
        <time>2010-10-17T09:33:07Z</time>
      </trkpt>
      <trkpt lat="45.16418" lon="5.25878">
        <ele>361.3</ele>
        <time>2010-10-17T09:33:08Z</time>
      </trkpt>
      <trkpt lat="45.16424" lon="5.25882">
        <ele>360.7</ele>
        <time>2010-10-17T09:33:09Z</time>
      </trkpt>
      <trkpt lat="45.1643" lon="5.25886">
        <ele>360.4</ele>
        <time>2010-10-17T09:33:10Z</time>
      </trkpt>
      <trkpt lat="45.16438" lon="5.25895">
        <ele>359.8</ele>
        <time>2010-10-17T09:33:11Z</time>
      </trkpt>
      <trkpt lat="45.16443" lon="5.25901">
        <ele>359.7</ele>
        <time>2010-10-17T09:33:12Z</time>
      </trkpt>
      <trkpt lat="45.1645" lon="5.25906">
        <ele>358.5</ele>
        <time>2010-10-17T09:33:13Z</time>
      </trkpt>
      <trkpt lat="45.16454" lon="5.25913">
        <ele>358.3</ele>
        <time>2010-10-17T09:33:14Z</time>
      </trkpt>
      <trkpt lat="45.16457" lon="5.25922">
        <ele>358.7</ele>
        <time>2010-10-17T09:33:15Z</time>
      </trkpt>
      <trkpt lat="45.16457" lon="5.25933">
        <ele>358.4</ele>
        <time>2010-10-17T09:33:16Z</time>
      </trkpt>
      <trkpt lat="45.16458" lon="5.25944">
        <ele>358.2</ele>
        <time>2010-10-17T09:33:17Z</time>
      </trkpt>
      <trkpt lat="45.16456" lon="5.25953">
        <ele>357.4</ele>
        <time>2010-10-17T09:33:18Z</time>
      </trkpt>
      <trkpt lat="45.16456" lon="5.25961">
        <ele>357.5</ele>
        <time>2010-10-17T09:33:19Z</time>
      </trkpt>
      <trkpt lat="45.16456" lon="5.2597">
        <ele>357.4</ele>
        <time>2010-10-17T09:33:20Z</time>
      </trkpt>
      <trkpt lat="45.16453" lon="5.25976">
        <ele>356.9</ele>
        <time>2010-10-17T09:33:20Z</time>
      </trkpt>
      <trkpt lat="45.16452" lon="5.25983">
        <ele>357.1</ele>
        <time>2010-10-17T09:33:22Z</time>
      </trkpt>
      <trkpt lat="45.16448" lon="5.25991">
        <ele>356.6</ele>
        <time>2010-10-17T09:33:23Z</time>
      </trkpt>
      <trkpt lat="45.16444" lon="5.25998">
        <ele>356.4</ele>
        <time>2010-10-17T09:33:24Z</time>
      </trkpt>
      <trkpt lat="45.16439" lon="5.26003">
        <ele>356.7</ele>
        <time>2010-10-17T09:33:25Z</time>
      </trkpt>
      <trkpt lat="45.16433" lon="5.26009">
        <ele>357.1</ele>
        <time>2010-10-17T09:33:26Z</time>
      </trkpt>
      <trkpt lat="45.16428" lon="5.26015">
        <ele>357</ele>
        <time>2010-10-17T09:33:27Z</time>
      </trkpt>
      <trkpt lat="45.16422" lon="5.2602">
        <ele>357.1</ele>
        <time>2010-10-17T09:33:28Z</time>
      </trkpt>
      <trkpt lat="45.16417" lon="5.26023">
        <ele>357.1</ele>
        <time>2010-10-17T09:33:29Z</time>
      </trkpt>
      <trkpt lat="45.1641" lon="5.26026">
        <ele>357.1</ele>
        <time>2010-10-17T09:33:30Z</time>
      </trkpt>
      <trkpt lat="45.16404" lon="5.26029">
        <ele>357.1</ele>
        <time>2010-10-17T09:33:31Z</time>
      </trkpt>
      <trkpt lat="45.16396" lon="5.26028">
        <ele>357.6</ele>
        <time>2010-10-17T09:33:32Z</time>
      </trkpt>
      <trkpt lat="45.16389" lon="5.26031">
        <ele>357.8</ele>
        <time>2010-10-17T09:33:33Z</time>
      </trkpt>
      <trkpt lat="45.16385" lon="5.26033">
        <ele>357.7</ele>
        <time>2010-10-17T09:33:34Z</time>
      </trkpt>
      <trkpt lat="45.16377" lon="5.26038">
        <ele>357.7</ele>
        <time>2010-10-17T09:33:35Z</time>
      </trkpt>
      <trkpt lat="45.16373" lon="5.26041">
        <ele>357.4</ele>
        <time>2010-10-17T09:33:36Z</time>
      </trkpt>
      <trkpt lat="45.16369" lon="5.26042">
        <ele>357.1</ele>
        <time>2010-10-17T09:33:37Z</time>
      </trkpt>
      <trkpt lat="45.16361" lon="5.26046">
        <ele>357.2</ele>
        <time>2010-10-17T09:33:38Z</time>
      </trkpt>
      <trkpt lat="45.16352" lon="5.26051">
        <ele>357.3</ele>
        <time>2010-10-17T09:33:39Z</time>
      </trkpt>
      <trkpt lat="45.16345" lon="5.26054">
        <ele>357.5</ele>
        <time>2010-10-17T09:33:40Z</time>
      </trkpt>
      <trkpt lat="45.16339" lon="5.26057">
        <ele>357.5</ele>
        <time>2010-10-17T09:33:40Z</time>
      </trkpt>
      <trkpt lat="45.16331" lon="5.26062">
        <ele>357.6</ele>
        <time>2010-10-17T09:33:42Z</time>
      </trkpt>
      <trkpt lat="45.16328" lon="5.26063">
        <ele>357.5</ele>
        <time>2010-10-17T09:33:43Z</time>
      </trkpt>
      <trkpt lat="45.16318" lon="5.26069">
        <ele>357</ele>
        <time>2010-10-17T09:33:44Z</time>
      </trkpt>
      <trkpt lat="45.16313" lon="5.26073">
        <ele>356.7</ele>
        <time>2010-10-17T09:33:45Z</time>
      </trkpt>
      <trkpt lat="45.16304" lon="5.26078">
        <ele>355.9</ele>
        <time>2010-10-17T09:33:46Z</time>
      </trkpt>
      <trkpt lat="45.16297" lon="5.26082">
        <ele>355.6</ele>
        <time>2010-10-17T09:33:47Z</time>
      </trkpt>
      <trkpt lat="45.1629" lon="5.26085">
        <ele>355.2</ele>
        <time>2010-10-17T09:33:48Z</time>
      </trkpt>
      <trkpt lat="45.16284" lon="5.2609">
        <ele>354.9</ele>
        <time>2010-10-17T09:33:49Z</time>
      </trkpt>
      <trkpt lat="45.16277" lon="5.26095">
        <ele>354.8</ele>
        <time>2010-10-17T09:33:50Z</time>
      </trkpt>
      <trkpt lat="45.16271" lon="5.26097">
        <ele>354.7</ele>
        <time>2010-10-17T09:33:51Z</time>
      </trkpt>
      <trkpt lat="45.16265" lon="5.26099">
        <ele>354.6</ele>
        <time>2010-10-17T09:33:52Z</time>
      </trkpt>
      <trkpt lat="45.16255" lon="5.26102">
        <ele>354.1</ele>
        <time>2010-10-17T09:33:53Z</time>
      </trkpt>
      <trkpt lat="45.16247" lon="5.26103">
        <ele>353.7</ele>
        <time>2010-10-17T09:33:54Z</time>
      </trkpt>
      <trkpt lat="45.1624" lon="5.26104">
        <ele>353.7</ele>
        <time>2010-10-17T09:33:55Z</time>
      </trkpt>
      <trkpt lat="45.16232" lon="5.26105">
        <ele>353.3</ele>
        <time>2010-10-17T09:33:56Z</time>
      </trkpt>
      <trkpt lat="45.16227" lon="5.26099">
        <ele>352.5</ele>
        <time>2010-10-17T09:33:57Z</time>
      </trkpt>
      <trkpt lat="45.16222" lon="5.26099">
        <ele>352.3</ele>
        <time>2010-10-17T09:33:58Z</time>
      </trkpt>
      <trkpt lat="45.16216" lon="5.26098">
        <ele>352.1</ele>
        <time>2010-10-17T09:33:59Z</time>
      </trkpt>
      <trkpt lat="45.16209" lon="5.26098">
        <ele>352</ele>
        <time>2010-10-17T09:34:00Z</time>
      </trkpt>
      <trkpt lat="45.16198" lon="5.26098">
        <ele>351.7</ele>
        <time>2010-10-17T09:34:00Z</time>
      </trkpt>
      <trkpt lat="45.16193" lon="5.26092">
        <ele>351.9</ele>
        <time>2010-10-17T09:34:02Z</time>
      </trkpt>
      <trkpt lat="45.16187" lon="5.26085">
        <ele>352</ele>
        <time>2010-10-17T09:34:03Z</time>
      </trkpt>
      <trkpt lat="45.1618" lon="5.26082">
        <ele>351.6</ele>
        <time>2010-10-17T09:34:04Z</time>
      </trkpt>
      <trkpt lat="45.16172" lon="5.26079">
        <ele>351.7</ele>
        <time>2010-10-17T09:34:05Z</time>
      </trkpt>
      <trkpt lat="45.16166" lon="5.26073">
        <ele>351.1</ele>
        <time>2010-10-17T09:34:06Z</time>
      </trkpt>
      <trkpt lat="45.16158" lon="5.26069">
        <ele>350.6</ele>
        <time>2010-10-17T09:34:07Z</time>
      </trkpt>
      <trkpt lat="45.16152" lon="5.26066">
        <ele>350.4</ele>
        <time>2010-10-17T09:34:08Z</time>
      </trkpt>
      <trkpt lat="45.16148" lon="5.26062">
        <ele>350.3</ele>
        <time>2010-10-17T09:34:09Z</time>
      </trkpt>
      <trkpt lat="45.16145" lon="5.26059">
        <ele>350.1</ele>
        <time>2010-10-17T09:34:10Z</time>
      </trkpt>
      <trkpt lat="45.16138" lon="5.26058">
        <ele>350.3</ele>
        <time>2010-10-17T09:34:11Z</time>
      </trkpt>
      <trkpt lat="45.16131" lon="5.26057">
        <ele>349.8</ele>
        <time>2010-10-17T09:34:12Z</time>
      </trkpt>
      <trkpt lat="45.16127" lon="5.26055">
        <ele>349.6</ele>
        <time>2010-10-17T09:34:13Z</time>
      </trkpt>
      <trkpt lat="45.16123" lon="5.26056">
        <ele>349.8</ele>
        <time>2010-10-17T09:34:14Z</time>
      </trkpt>
      <trkpt lat="45.16116" lon="5.26058">
        <ele>349.8</ele>
        <time>2010-10-17T09:34:15Z</time>
      </trkpt>
      <trkpt lat="45.16111" lon="5.26059">
        <ele>349.7</ele>
        <time>2010-10-17T09:34:16Z</time>
      </trkpt>
      <trkpt lat="45.16105" lon="5.26061">
        <ele>349.6</ele>
        <time>2010-10-17T09:34:17Z</time>
      </trkpt>
      <trkpt lat="45.16095" lon="5.26062">
        <ele>348.9</ele>
        <time>2010-10-17T09:34:18Z</time>
      </trkpt>
      <trkpt lat="45.16084" lon="5.26066">
        <ele>347.9</ele>
        <time>2010-10-17T09:34:19Z</time>
      </trkpt>
      <trkpt lat="45.1607" lon="5.26079">
        <ele>346.5</ele>
        <time>2010-10-17T09:34:19Z</time>
      </trkpt>
      <trkpt lat="45.16058" lon="5.2609">
        <ele>344.9</ele>
        <time>2010-10-17T09:34:20Z</time>
      </trkpt>
      <trkpt lat="45.16048" lon="5.26095">
        <ele>344.5</ele>
        <time>2010-10-17T09:34:22Z</time>
      </trkpt>
      <trkpt lat="45.1604" lon="5.26099">
        <ele>344.1</ele>
        <time>2010-10-17T09:34:23Z</time>
      </trkpt>
      <trkpt lat="45.16031" lon="5.26102">
        <ele>343.9</ele>
        <time>2010-10-17T09:34:24Z</time>
      </trkpt>
      <trkpt lat="45.16024" lon="5.26106">
        <ele>343.8</ele>
        <time>2010-10-17T09:34:25Z</time>
      </trkpt>
      <trkpt lat="45.16018" lon="5.26111">
        <ele>343.6</ele>
        <time>2010-10-17T09:34:26Z</time>
      </trkpt>
      <trkpt lat="45.16012" lon="5.26115">
        <ele>344</ele>
        <time>2010-10-17T09:34:27Z</time>
      </trkpt>
      <trkpt lat="45.16003" lon="5.26119">
        <ele>343.7</ele>
        <time>2010-10-17T09:34:28Z</time>
      </trkpt>
      <trkpt lat="45.15997" lon="5.26122">
        <ele>343.8</ele>
        <time>2010-10-17T09:34:29Z</time>
      </trkpt>
      <trkpt lat="45.1599" lon="5.26129">
        <ele>343.1</ele>
        <time>2010-10-17T09:34:30Z</time>
      </trkpt>
      <trkpt lat="45.15985" lon="5.26137">
        <ele>342.9</ele>
        <time>2010-10-17T09:34:31Z</time>
      </trkpt>
      <trkpt lat="45.15981" lon="5.26144">
        <ele>342.3</ele>
        <time>2010-10-17T09:34:32Z</time>
      </trkpt>
      <trkpt lat="45.15978" lon="5.26155">
        <ele>342.4</ele>
        <time>2010-10-17T09:34:33Z</time>
      </trkpt>
      <trkpt lat="45.15975" lon="5.26164">
        <ele>342.1</ele>
        <time>2010-10-17T09:34:34Z</time>
      </trkpt>
      <trkpt lat="45.15972" lon="5.26173">
        <ele>342.3</ele>
        <time>2010-10-17T09:34:35Z</time>
      </trkpt>
      <trkpt lat="45.1597" lon="5.2618">
        <ele>342.4</ele>
        <time>2010-10-17T09:34:36Z</time>
      </trkpt>
      <trkpt lat="45.15968" lon="5.26188">
        <ele>342.2</ele>
        <time>2010-10-17T09:34:37Z</time>
      </trkpt>
      <trkpt lat="45.15964" lon="5.26196">
        <ele>342.3</ele>
        <time>2010-10-17T09:34:38Z</time>
      </trkpt>
      <trkpt lat="45.15962" lon="5.26204">
        <ele>341.8</ele>
        <time>2010-10-17T09:34:39Z</time>
      </trkpt>
      <trkpt lat="45.1596" lon="5.26211">
        <ele>342</ele>
        <time>2010-10-17T09:34:39Z</time>
      </trkpt>
      <trkpt lat="45.15957" lon="5.26219">
        <ele>342</ele>
        <time>2010-10-17T09:34:40Z</time>
      </trkpt>
      <trkpt lat="45.15956" lon="5.2623">
        <ele>340.2</ele>
        <time>2010-10-17T09:34:42Z</time>
      </trkpt>
      <trkpt lat="45.15955" lon="5.26239">
        <ele>339.4</ele>
        <time>2010-10-17T09:34:43Z</time>
      </trkpt>
      <trkpt lat="45.15952" lon="5.26248">
        <ele>340</ele>
        <time>2010-10-17T09:34:44Z</time>
      </trkpt>
      <trkpt lat="45.1595" lon="5.26256">
        <ele>340</ele>
        <time>2010-10-17T09:34:45Z</time>
      </trkpt>
      <trkpt lat="45.15949" lon="5.26263">
        <ele>338.8</ele>
        <time>2010-10-17T09:34:46Z</time>
      </trkpt>
      <trkpt lat="45.15947" lon="5.2627">
        <ele>338</ele>
        <time>2010-10-17T09:34:47Z</time>
      </trkpt>
      <trkpt lat="45.15946" lon="5.26278">
        <ele>338.1</ele>
        <time>2010-10-17T09:34:48Z</time>
      </trkpt>
      <trkpt lat="45.15944" lon="5.26285">
        <ele>337.7</ele>
        <time>2010-10-17T09:34:49Z</time>
      </trkpt>
      <trkpt lat="45.15941" lon="5.26294">
        <ele>338.2</ele>
        <time>2010-10-17T09:34:50Z</time>
      </trkpt>
      <trkpt lat="45.15939" lon="5.26301">
        <ele>337.6</ele>
        <time>2010-10-17T09:34:51Z</time>
      </trkpt>
      <trkpt lat="45.15938" lon="5.26308">
        <ele>337.8</ele>
        <time>2010-10-17T09:34:52Z</time>
      </trkpt>
      <trkpt lat="45.15935" lon="5.26316">
        <ele>337.6</ele>
        <time>2010-10-17T09:34:53Z</time>
      </trkpt>
      <trkpt lat="45.15933" lon="5.26323">
        <ele>336.7</ele>
        <time>2010-10-17T09:34:54Z</time>
      </trkpt>
      <trkpt lat="45.15932" lon="5.2633">
        <ele>336.7</ele>
        <time>2010-10-17T09:34:55Z</time>
      </trkpt>
      <trkpt lat="45.15931" lon="5.26338">
        <ele>336.2</ele>
        <time>2010-10-17T09:34:56Z</time>
      </trkpt>
      <trkpt lat="45.15928" lon="5.26346">
        <ele>336.3</ele>
        <time>2010-10-17T09:34:57Z</time>
      </trkpt>
      <trkpt lat="45.15926" lon="5.26352">
        <ele>335.9</ele>
        <time>2010-10-17T09:34:58Z</time>
      </trkpt>
      <trkpt lat="45.15924" lon="5.2636">
        <ele>336.2</ele>
        <time>2010-10-17T09:34:59Z</time>
      </trkpt>
      <trkpt lat="45.15921" lon="5.26366">
        <ele>336.1</ele>
        <time>2010-10-17T09:34:59Z</time>
      </trkpt>
      <trkpt lat="45.15918" lon="5.26373">
        <ele>335.9</ele>
        <time>2010-10-17T09:35:00Z</time>
      </trkpt>
      <trkpt lat="45.15916" lon="5.2638">
        <ele>335.4</ele>
        <time>2010-10-17T09:35:02Z</time>
      </trkpt>
      <trkpt lat="45.15913" lon="5.26389">
        <ele>335.3</ele>
        <time>2010-10-17T09:35:03Z</time>
      </trkpt>
      <trkpt lat="45.15911" lon="5.26396">
        <ele>335.3</ele>
        <time>2010-10-17T09:35:04Z</time>
      </trkpt>
      <trkpt lat="45.15909" lon="5.26404">
        <ele>335.1</ele>
        <time>2010-10-17T09:35:05Z</time>
      </trkpt>
      <trkpt lat="45.15906" lon="5.26411">
        <ele>335.1</ele>
        <time>2010-10-17T09:35:06Z</time>
      </trkpt>
      <trkpt lat="45.15903" lon="5.26417">
        <ele>334.8</ele>
        <time>2010-10-17T09:35:07Z</time>
      </trkpt>
      <trkpt lat="45.159" lon="5.26424">
        <ele>334.8</ele>
        <time>2010-10-17T09:35:08Z</time>
      </trkpt>
      <trkpt lat="45.15896" lon="5.26429">
        <ele>334.4</ele>
        <time>2010-10-17T09:35:09Z</time>
      </trkpt>
      <trkpt lat="45.15892" lon="5.26433">
        <ele>333.9</ele>
        <time>2010-10-17T09:35:10Z</time>
      </trkpt>
      <trkpt lat="45.15891" lon="5.26438">
        <ele>334.1</ele>
        <time>2010-10-17T09:35:11Z</time>
      </trkpt>
      <trkpt lat="45.1589" lon="5.26444">
        <ele>334.2</ele>
        <time>2010-10-17T09:35:12Z</time>
      </trkpt>
      <trkpt lat="45.15888" lon="5.26447">
        <ele>334.2</ele>
        <time>2010-10-17T09:35:13Z</time>
      </trkpt>
      <trkpt lat="45.15888" lon="5.2645">
        <ele>334.1</ele>
        <time>2010-10-17T09:35:14Z</time>
      </trkpt>
      <trkpt lat="45.15885" lon="5.26452">
        <ele>333.3</ele>
        <time>2010-10-17T09:35:15Z</time>
      </trkpt>
      <trkpt lat="45.15885" lon="5.26453">
        <ele>333.2</ele>
        <time>2010-10-17T09:35:17Z</time>
      </trkpt>
      <trkpt lat="45.15883" lon="5.26455">
        <ele>333</ele>
        <time>2010-10-17T09:35:18Z</time>
      </trkpt>
      <trkpt lat="45.15883" lon="5.26457">
        <ele>332.7</ele>
        <time>2010-10-17T09:35:19Z</time>
      </trkpt>
      <trkpt lat="45.15881" lon="5.26461">
        <ele>332.6</ele>
        <time>2010-10-17T09:35:19Z</time>
      </trkpt>
      <trkpt lat="45.15878" lon="5.26465">
        <ele>332</ele>
        <time>2010-10-17T09:35:21Z</time>
      </trkpt>
      <trkpt lat="45.15877" lon="5.2647">
        <ele>331.7</ele>
        <time>2010-10-17T09:35:22Z</time>
      </trkpt>
      <trkpt lat="45.15875" lon="5.26474">
        <ele>331.3</ele>
        <time>2010-10-17T09:35:23Z</time>
      </trkpt>
      <trkpt lat="45.15873" lon="5.26477">
        <ele>330.8</ele>
        <time>2010-10-17T09:35:24Z</time>
      </trkpt>
      <trkpt lat="45.15872" lon="5.26481">
        <ele>330.4</ele>
        <time>2010-10-17T09:35:25Z</time>
      </trkpt>
      <trkpt lat="45.15871" lon="5.26484">
        <ele>329.5</ele>
        <time>2010-10-17T09:35:26Z</time>
      </trkpt>
      <trkpt lat="45.15869" lon="5.26489">
        <ele>328.6</ele>
        <time>2010-10-17T09:35:27Z</time>
      </trkpt>
      <trkpt lat="45.15867" lon="5.26493">
        <ele>328.4</ele>
        <time>2010-10-17T09:35:28Z</time>
      </trkpt>
      <trkpt lat="45.15865" lon="5.26498">
        <ele>328.1</ele>
        <time>2010-10-17T09:35:29Z</time>
      </trkpt>
      <trkpt lat="45.15862" lon="5.26503">
        <ele>328</ele>
        <time>2010-10-17T09:35:30Z</time>
      </trkpt>
      <trkpt lat="45.1586" lon="5.26509">
        <ele>327.6</ele>
        <time>2010-10-17T09:35:31Z</time>
      </trkpt>
      <trkpt lat="45.15856" lon="5.26515">
        <ele>328.4</ele>
        <time>2010-10-17T09:35:32Z</time>
      </trkpt>
      <trkpt lat="45.15854" lon="5.26522">
        <ele>328.6</ele>
        <time>2010-10-17T09:35:33Z</time>
      </trkpt>
      <trkpt lat="45.15852" lon="5.26528">
        <ele>328.8</ele>
        <time>2010-10-17T09:35:34Z</time>
      </trkpt>
      <trkpt lat="45.15848" lon="5.26533">
        <ele>328.6</ele>
        <time>2010-10-17T09:35:35Z</time>
      </trkpt>
      <trkpt lat="45.15846" lon="5.2654">
        <ele>329</ele>
        <time>2010-10-17T09:35:36Z</time>
      </trkpt>
      <trkpt lat="45.15843" lon="5.26545">
        <ele>329.2</ele>
        <time>2010-10-17T09:35:37Z</time>
      </trkpt>
      <trkpt lat="45.1584" lon="5.26551">
        <ele>329.3</ele>
        <time>2010-10-17T09:35:38Z</time>
      </trkpt>
      <trkpt lat="45.15838" lon="5.26557">
        <ele>329.3</ele>
        <time>2010-10-17T09:35:39Z</time>
      </trkpt>
      <trkpt lat="45.15833" lon="5.26564">
        <ele>329.5</ele>
        <time>2010-10-17T09:35:39Z</time>
      </trkpt>
      <trkpt lat="45.15829" lon="5.26569">
        <ele>329.2</ele>
        <time>2010-10-17T09:35:41Z</time>
      </trkpt>
      <trkpt lat="45.15825" lon="5.26574">
        <ele>328.7</ele>
        <time>2010-10-17T09:35:42Z</time>
      </trkpt>
      <trkpt lat="45.15822" lon="5.26578">
        <ele>327.9</ele>
        <time>2010-10-17T09:35:43Z</time>
      </trkpt>
      <trkpt lat="45.15818" lon="5.26582">
        <ele>327.6</ele>
        <time>2010-10-17T09:35:44Z</time>
      </trkpt>
      <trkpt lat="45.15813" lon="5.26585">
        <ele>327.6</ele>
        <time>2010-10-17T09:35:45Z</time>
      </trkpt>
      <trkpt lat="45.15806" lon="5.26589">
        <ele>327.7</ele>
        <time>2010-10-17T09:35:46Z</time>
      </trkpt>
      <trkpt lat="45.15801" lon="5.26591">
        <ele>327.5</ele>
        <time>2010-10-17T09:35:47Z</time>
      </trkpt>
      <trkpt lat="45.15794" lon="5.26594">
        <ele>327.6</ele>
        <time>2010-10-17T09:35:48Z</time>
      </trkpt>
      <trkpt lat="45.15788" lon="5.26596">
        <ele>327.6</ele>
        <time>2010-10-17T09:35:49Z</time>
      </trkpt>
      <trkpt lat="45.15783" lon="5.266">
        <ele>328</ele>
        <time>2010-10-17T09:35:50Z</time>
      </trkpt>
      <trkpt lat="45.15776" lon="5.26603">
        <ele>327.8</ele>
        <time>2010-10-17T09:35:51Z</time>
      </trkpt>
      <trkpt lat="45.15771" lon="5.26604">
        <ele>327.7</ele>
        <time>2010-10-17T09:35:52Z</time>
      </trkpt>
      <trkpt lat="45.15766" lon="5.26605">
        <ele>327.3</ele>
        <time>2010-10-17T09:35:53Z</time>
      </trkpt>
      <trkpt lat="45.15761" lon="5.26607">
        <ele>327.1</ele>
        <time>2010-10-17T09:35:54Z</time>
      </trkpt>
      <trkpt lat="45.15755" lon="5.2661">
        <ele>327.5</ele>
        <time>2010-10-17T09:35:55Z</time>
      </trkpt>
      <trkpt lat="45.15749" lon="5.26612">
        <ele>326.7</ele>
        <time>2010-10-17T09:35:56Z</time>
      </trkpt>
      <trkpt lat="45.1574" lon="5.26615">
        <ele>325.4</ele>
        <time>2010-10-17T09:35:57Z</time>
      </trkpt>
      <trkpt lat="45.15735" lon="5.26617">
        <ele>325.2</ele>
        <time>2010-10-17T09:35:58Z</time>
      </trkpt>
      <trkpt lat="45.15729" lon="5.2662">
        <ele>325.3</ele>
        <time>2010-10-17T09:35:59Z</time>
      </trkpt>
      <trkpt lat="45.15723" lon="5.26622">
        <ele>325.5</ele>
        <time>2010-10-17T09:35:59Z</time>
      </trkpt>
      <trkpt lat="45.15719" lon="5.26627">
        <ele>325.5</ele>
        <time>2010-10-17T09:36:01Z</time>
      </trkpt>
      <trkpt lat="45.15713" lon="5.26632">
        <ele>325.6</ele>
        <time>2010-10-17T09:36:02Z</time>
      </trkpt>
      <trkpt lat="45.15709" lon="5.26637">
        <ele>325.5</ele>
        <time>2010-10-17T09:36:03Z</time>
      </trkpt>
      <trkpt lat="45.15704" lon="5.26641">
        <ele>325.6</ele>
        <time>2010-10-17T09:36:04Z</time>
      </trkpt>
      <trkpt lat="45.157" lon="5.26645">
        <ele>325.7</ele>
        <time>2010-10-17T09:36:05Z</time>
      </trkpt>
      <trkpt lat="45.15695" lon="5.26649">
        <ele>325.8</ele>
        <time>2010-10-17T09:36:06Z</time>
      </trkpt>
      <trkpt lat="45.1569" lon="5.26654">
        <ele>325.9</ele>
        <time>2010-10-17T09:36:07Z</time>
      </trkpt>
      <trkpt lat="45.15686" lon="5.26659">
        <ele>325.7</ele>
        <time>2010-10-17T09:36:08Z</time>
      </trkpt>
      <trkpt lat="45.15681" lon="5.26664">
        <ele>325</ele>
        <time>2010-10-17T09:36:09Z</time>
      </trkpt>
      <trkpt lat="45.15674" lon="5.26669">
        <ele>324.7</ele>
        <time>2010-10-17T09:36:10Z</time>
      </trkpt>
      <trkpt lat="45.15668" lon="5.26675">
        <ele>324.6</ele>
        <time>2010-10-17T09:36:11Z</time>
      </trkpt>
      <trkpt lat="45.15664" lon="5.26681">
        <ele>323.7</ele>
        <time>2010-10-17T09:36:12Z</time>
      </trkpt>
      <trkpt lat="45.15658" lon="5.26687">
        <ele>323.5</ele>
        <time>2010-10-17T09:36:13Z</time>
      </trkpt>
      <trkpt lat="45.15653" lon="5.26693">
        <ele>323.3</ele>
        <time>2010-10-17T09:36:14Z</time>
      </trkpt>
      <trkpt lat="45.15648" lon="5.26698">
        <ele>322.8</ele>
        <time>2010-10-17T09:36:15Z</time>
      </trkpt>
      <trkpt lat="45.15642" lon="5.26703">
        <ele>322.5</ele>
        <time>2010-10-17T09:36:16Z</time>
      </trkpt>
      <trkpt lat="45.15636" lon="5.26709">
        <ele>322.2</ele>
        <time>2010-10-17T09:36:17Z</time>
      </trkpt>
      <trkpt lat="45.1563" lon="5.26715">
        <ele>322.3</ele>
        <time>2010-10-17T09:36:18Z</time>
      </trkpt>
      <trkpt lat="45.15624" lon="5.2672">
        <ele>322.1</ele>
        <time>2010-10-17T09:36:19Z</time>
      </trkpt>
      <trkpt lat="45.15619" lon="5.26723">
        <ele>322</ele>
        <time>2010-10-17T09:36:19Z</time>
      </trkpt>
      <trkpt lat="45.15617" lon="5.26723">
        <ele>322.1</ele>
        <time>2010-10-17T09:36:21Z</time>
      </trkpt>
      <trkpt lat="45.15611" lon="5.26725">
        <ele>321.9</ele>
        <time>2010-10-17T09:36:22Z</time>
      </trkpt>
      <trkpt lat="45.15604" lon="5.26726">
        <ele>321.4</ele>
        <time>2010-10-17T09:36:23Z</time>
      </trkpt>
      <trkpt lat="45.15597" lon="5.26729">
        <ele>321.5</ele>
        <time>2010-10-17T09:36:24Z</time>
      </trkpt>
      <trkpt lat="45.1559" lon="5.26732">
        <ele>321.2</ele>
        <time>2010-10-17T09:36:25Z</time>
      </trkpt>
      <trkpt lat="45.15585" lon="5.26733">
        <ele>320.8</ele>
        <time>2010-10-17T09:36:26Z</time>
      </trkpt>
      <trkpt lat="45.15578" lon="5.26734">
        <ele>320.5</ele>
        <time>2010-10-17T09:36:27Z</time>
      </trkpt>
      <trkpt lat="45.15568" lon="5.26734">
        <ele>319.6</ele>
        <time>2010-10-17T09:36:28Z</time>
      </trkpt>
      <trkpt lat="45.15561" lon="5.26734">
        <ele>319.7</ele>
        <time>2010-10-17T09:36:29Z</time>
      </trkpt>
      <trkpt lat="45.15555" lon="5.26735">
        <ele>319.5</ele>
        <time>2010-10-17T09:36:30Z</time>
      </trkpt>
      <trkpt lat="45.15548" lon="5.26737">
        <ele>319.5</ele>
        <time>2010-10-17T09:36:31Z</time>
      </trkpt>
      <trkpt lat="45.15542" lon="5.26738">
        <ele>319.1</ele>
        <time>2010-10-17T09:36:32Z</time>
      </trkpt>
      <trkpt lat="45.15535" lon="5.26738">
        <ele>318.5</ele>
        <time>2010-10-17T09:36:33Z</time>
      </trkpt>
      <trkpt lat="45.15527" lon="5.26741">
        <ele>318.6</ele>
        <time>2010-10-17T09:36:34Z</time>
      </trkpt>
      <trkpt lat="45.1552" lon="5.26742">
        <ele>318.3</ele>
        <time>2010-10-17T09:36:35Z</time>
      </trkpt>
      <trkpt lat="45.15515" lon="5.26744">
        <ele>317.7</ele>
        <time>2010-10-17T09:36:36Z</time>
      </trkpt>
      <trkpt lat="45.15509" lon="5.26746">
        <ele>317.4</ele>
        <time>2010-10-17T09:36:37Z</time>
      </trkpt>
      <trkpt lat="45.15504" lon="5.26748">
        <ele>317.2</ele>
        <time>2010-10-17T09:36:38Z</time>
      </trkpt>
      <trkpt lat="45.15498" lon="5.26748">
        <ele>316.9</ele>
        <time>2010-10-17T09:36:38Z</time>
      </trkpt>
      <trkpt lat="45.15492" lon="5.26754">
        <ele>316.3</ele>
        <time>2010-10-17T09:36:39Z</time>
      </trkpt>
      <trkpt lat="45.15488" lon="5.26757">
        <ele>316.3</ele>
        <time>2010-10-17T09:36:41Z</time>
      </trkpt>
      <trkpt lat="45.15481" lon="5.26763">
        <ele>315.8</ele>
        <time>2010-10-17T09:36:42Z</time>
      </trkpt>
      <trkpt lat="45.15473" lon="5.26768">
        <ele>316</ele>
        <time>2010-10-17T09:36:43Z</time>
      </trkpt>
      <trkpt lat="45.15467" lon="5.26773">
        <ele>316</ele>
        <time>2010-10-17T09:36:44Z</time>
      </trkpt>
      <trkpt lat="45.15462" lon="5.26778">
        <ele>316.4</ele>
        <time>2010-10-17T09:36:45Z</time>
      </trkpt>
      <trkpt lat="45.15455" lon="5.26784">
        <ele>316</ele>
        <time>2010-10-17T09:36:46Z</time>
      </trkpt>
      <trkpt lat="45.15449" lon="5.26788">
        <ele>315.4</ele>
        <time>2010-10-17T09:36:47Z</time>
      </trkpt>
      <trkpt lat="45.15445" lon="5.26791">
        <ele>314.8</ele>
        <time>2010-10-17T09:36:48Z</time>
      </trkpt>
      <trkpt lat="45.15442" lon="5.26793">
        <ele>314.4</ele>
        <time>2010-10-17T09:36:49Z</time>
      </trkpt>
      <trkpt lat="45.15438" lon="5.26795">
        <ele>314.3</ele>
        <time>2010-10-17T09:36:50Z</time>
      </trkpt>
      <trkpt lat="45.15435" lon="5.26799">
        <ele>315</ele>
        <time>2010-10-17T09:36:51Z</time>
      </trkpt>
      <trkpt lat="45.15431" lon="5.268">
        <ele>314.1</ele>
        <time>2010-10-17T09:36:52Z</time>
      </trkpt>
      <trkpt lat="45.15431" lon="5.26799">
        <ele>313.6</ele>
        <time>2010-10-17T09:36:54Z</time>
      </trkpt>
      <trkpt lat="45.15431" lon="5.26797">
        <ele>311.3</ele>
        <time>2010-10-17T09:36:55Z</time>
      </trkpt>
      <trkpt lat="45.15431" lon="5.26796">
        <ele>310.3</ele>
        <time>2010-10-17T09:36:56Z</time>
      </trkpt>
      <trkpt lat="45.15431" lon="5.26794">
        <ele>310.4</ele>
        <time>2010-10-17T09:36:57Z</time>
      </trkpt>
      <trkpt lat="45.15431" lon="5.26793">
        <ele>309.8</ele>
        <time>2010-10-17T09:36:58Z</time>
      </trkpt>
      <trkpt lat="45.1543" lon="5.26792">
        <ele>309.7</ele>
        <time>2010-10-17T09:36:58Z</time>
      </trkpt>
      <trkpt lat="45.15429" lon="5.26791">
        <ele>309.5</ele>
        <time>2010-10-17T09:36:59Z</time>
      </trkpt>
      <trkpt lat="45.15429" lon="5.26791">
        <ele>309.6</ele>
        <time>2010-10-17T09:37:30Z</time>
      </trkpt>
      <trkpt lat="45.15425" lon="5.26789">
        <ele>310.7</ele>
        <time>2010-10-17T09:37:31Z</time>
      </trkpt>
      <trkpt lat="45.15425" lon="5.26789">
        <ele>311.1</ele>
        <time>2010-10-17T09:37:32Z</time>
      </trkpt>
      <trkpt lat="45.15423" lon="5.2679">
        <ele>311.7</ele>
        <time>2010-10-17T09:37:33Z</time>
      </trkpt>
      <trkpt lat="45.15424" lon="5.2679">
        <ele>311.5</ele>
        <time>2010-10-17T09:37:35Z</time>
      </trkpt>
      <trkpt lat="45.15424" lon="5.26789">
        <ele>311.3</ele>
        <time>2010-10-17T09:37:38Z</time>
      </trkpt>
      <trkpt lat="45.15423" lon="5.26789">
        <ele>312.3</ele>
        <time>2010-10-17T09:37:38Z</time>
      </trkpt>
      <trkpt lat="45.15422" lon="5.26789">
        <ele>312.2</ele>
        <time>2010-10-17T09:37:41Z</time>
      </trkpt>
      <trkpt lat="45.15423" lon="5.26787">
        <ele>313</ele>
        <time>2010-10-17T09:37:42Z</time>
      </trkpt>
      <trkpt lat="45.15423" lon="5.26787">
        <ele>313.2</ele>
        <time>2010-10-17T09:38:00Z</time>
      </trkpt>
      <trkpt lat="45.15422" lon="5.26786">
        <ele>313.2</ele>
        <time>2010-10-17T09:38:01Z</time>
      </trkpt>
      <trkpt lat="45.15422" lon="5.26786">
        <ele>313.3</ele>
        <time>2010-10-17T09:38:03Z</time>
      </trkpt>
      <trkpt lat="45.15422" lon="5.26784">
        <ele>312.9</ele>
        <time>2010-10-17T09:38:04Z</time>
      </trkpt>
      <trkpt lat="45.15421" lon="5.26783">
        <ele>314</ele>
        <time>2010-10-17T09:38:05Z</time>
      </trkpt>
      <trkpt lat="45.15421" lon="5.26783">
        <ele>314</ele>
        <time>2010-10-17T09:38:06Z</time>
      </trkpt>
      <trkpt lat="45.15418" lon="5.26784">
        <ele>314.2</ele>
        <time>2010-10-17T09:38:07Z</time>
      </trkpt>
      <trkpt lat="45.15417" lon="5.26784">
        <ele>314.5</ele>
        <time>2010-10-17T09:38:08Z</time>
      </trkpt>
      <trkpt lat="45.15417" lon="5.26783">
        <ele>314.8</ele>
        <time>2010-10-17T09:38:13Z</time>
      </trkpt>
      <trkpt lat="45.15415" lon="5.26782">
        <ele>316.3</ele>
        <time>2010-10-17T09:38:14Z</time>
      </trkpt>
      <trkpt lat="45.15417" lon="5.26781">
        <ele>316.5</ele>
        <time>2010-10-17T09:38:15Z</time>
      </trkpt>
      <trkpt lat="45.15417" lon="5.26781">
        <ele>316.7</ele>
        <time>2010-10-17T09:38:16Z</time>
      </trkpt>
      <trkpt lat="45.15417" lon="5.2678">
        <ele>316.7</ele>
        <time>2010-10-17T09:38:22Z</time>
      </trkpt>
      <trkpt lat="45.1542" lon="5.26777">
        <ele>316.8</ele>
        <time>2010-10-17T09:38:23Z</time>
      </trkpt>
      <trkpt lat="45.15423" lon="5.26774">
        <ele>316.3</ele>
        <time>2010-10-17T09:38:24Z</time>
      </trkpt>
      <trkpt lat="45.15425" lon="5.26771">
        <ele>316.2</ele>
        <time>2010-10-17T09:38:25Z</time>
      </trkpt>
      <trkpt lat="45.15428" lon="5.26767">
        <ele>316.1</ele>
        <time>2010-10-17T09:38:26Z</time>
      </trkpt>
      <trkpt lat="45.1543" lon="5.26763">
        <ele>316.1</ele>
        <time>2010-10-17T09:38:27Z</time>
      </trkpt>
      <trkpt lat="45.15433" lon="5.26759">
        <ele>316.6</ele>
        <time>2010-10-17T09:38:28Z</time>
      </trkpt>
      <trkpt lat="45.15437" lon="5.26755">
        <ele>316.2</ele>
        <time>2010-10-17T09:38:29Z</time>
      </trkpt>
      <trkpt lat="45.15439" lon="5.2675">
        <ele>316.6</ele>
        <time>2010-10-17T09:38:30Z</time>
      </trkpt>
      <trkpt lat="45.15441" lon="5.26745">
        <ele>317.1</ele>
        <time>2010-10-17T09:38:31Z</time>
      </trkpt>
      <trkpt lat="45.15445" lon="5.26741">
        <ele>316.5</ele>
        <time>2010-10-17T09:38:32Z</time>
      </trkpt>
      <trkpt lat="45.15448" lon="5.26736">
        <ele>316.5</ele>
        <time>2010-10-17T09:38:33Z</time>
      </trkpt>
      <trkpt lat="45.15449" lon="5.26733">
        <ele>316.6</ele>
        <time>2010-10-17T09:38:34Z</time>
      </trkpt>
      <trkpt lat="45.15451" lon="5.2673">
        <ele>316.3</ele>
        <time>2010-10-17T09:38:35Z</time>
      </trkpt>
      <trkpt lat="45.15454" lon="5.26725">
        <ele>316.2</ele>
        <time>2010-10-17T09:38:36Z</time>
      </trkpt>
      <trkpt lat="45.15456" lon="5.26723">
        <ele>316.1</ele>
        <time>2010-10-17T09:38:37Z</time>
      </trkpt>
      <trkpt lat="45.15458" lon="5.26721">
        <ele>315.7</ele>
        <time>2010-10-17T09:38:38Z</time>
      </trkpt>
      <trkpt lat="45.15459" lon="5.26718">
        <ele>315.9</ele>
        <time>2010-10-17T09:38:38Z</time>
      </trkpt>
      <trkpt lat="45.15462" lon="5.26714">
        <ele>316</ele>
        <time>2010-10-17T09:38:40Z</time>
      </trkpt>
      <trkpt lat="45.15466" lon="5.26711">
        <ele>315.9</ele>
        <time>2010-10-17T09:38:41Z</time>
      </trkpt>
      <trkpt lat="45.15469" lon="5.26707">
        <ele>316.1</ele>
        <time>2010-10-17T09:38:42Z</time>
      </trkpt>
      <trkpt lat="45.1547" lon="5.26705">
        <ele>316</ele>
        <time>2010-10-17T09:38:43Z</time>
      </trkpt>
      <trkpt lat="45.15473" lon="5.26699">
        <ele>315.8</ele>
        <time>2010-10-17T09:38:44Z</time>
      </trkpt>
      <trkpt lat="45.15477" lon="5.26695">
        <ele>315.7</ele>
        <time>2010-10-17T09:38:45Z</time>
      </trkpt>
      <trkpt lat="45.15481" lon="5.26691">
        <ele>315.9</ele>
        <time>2010-10-17T09:38:46Z</time>
      </trkpt>
      <trkpt lat="45.15483" lon="5.26687">
        <ele>315.7</ele>
        <time>2010-10-17T09:38:47Z</time>
      </trkpt>
      <trkpt lat="45.15485" lon="5.26683">
        <ele>315.2</ele>
        <time>2010-10-17T09:38:48Z</time>
      </trkpt>
      <trkpt lat="45.15486" lon="5.26678">
        <ele>315.2</ele>
        <time>2010-10-17T09:38:49Z</time>
      </trkpt>
      <trkpt lat="45.15488" lon="5.26675">
        <ele>315.5</ele>
        <time>2010-10-17T09:38:50Z</time>
      </trkpt>
      <trkpt lat="45.15489" lon="5.26671">
        <ele>314.8</ele>
        <time>2010-10-17T09:38:51Z</time>
      </trkpt>
      <trkpt lat="45.15494" lon="5.26667">
        <ele>315.1</ele>
        <time>2010-10-17T09:38:52Z</time>
      </trkpt>
      <trkpt lat="45.15497" lon="5.2666">
        <ele>315.1</ele>
        <time>2010-10-17T09:38:53Z</time>
      </trkpt>
      <trkpt lat="45.15498" lon="5.26657">
        <ele>314.7</ele>
        <time>2010-10-17T09:38:54Z</time>
      </trkpt>
      <trkpt lat="45.155" lon="5.26652">
        <ele>314.5</ele>
        <time>2010-10-17T09:38:55Z</time>
      </trkpt>
      <trkpt lat="45.15501" lon="5.26648">
        <ele>314</ele>
        <time>2010-10-17T09:38:56Z</time>
      </trkpt>
      <trkpt lat="45.15502" lon="5.26645">
        <ele>313.9</ele>
        <time>2010-10-17T09:38:57Z</time>
      </trkpt>
      <trkpt lat="45.15503" lon="5.2664">
        <ele>313.4</ele>
        <time>2010-10-17T09:38:57Z</time>
      </trkpt>
      <trkpt lat="45.15505" lon="5.26637">
        <ele>313.9</ele>
        <time>2010-10-17T09:38:58Z</time>
      </trkpt>
      <trkpt lat="45.15507" lon="5.26632">
        <ele>314.2</ele>
        <time>2010-10-17T09:39:00Z</time>
      </trkpt>
      <trkpt lat="45.15507" lon="5.26627">
        <ele>313.9</ele>
        <time>2010-10-17T09:39:01Z</time>
      </trkpt>
      <trkpt lat="45.15509" lon="5.26621">
        <ele>314</ele>
        <time>2010-10-17T09:39:02Z</time>
      </trkpt>
      <trkpt lat="45.15511" lon="5.26616">
        <ele>314.5</ele>
        <time>2010-10-17T09:39:03Z</time>
      </trkpt>
      <trkpt lat="45.15511" lon="5.26612">
        <ele>314.3</ele>
        <time>2010-10-17T09:39:04Z</time>
      </trkpt>
      <trkpt lat="45.15512" lon="5.26607">
        <ele>314.4</ele>
        <time>2010-10-17T09:39:05Z</time>
      </trkpt>
      <trkpt lat="45.15512" lon="5.26602">
        <ele>314.5</ele>
        <time>2010-10-17T09:39:06Z</time>
      </trkpt>
      <trkpt lat="45.15512" lon="5.26598">
        <ele>314.8</ele>
        <time>2010-10-17T09:39:07Z</time>
      </trkpt>
      <trkpt lat="45.15512" lon="5.26592">
        <ele>314.7</ele>
        <time>2010-10-17T09:39:08Z</time>
      </trkpt>
      <trkpt lat="45.15511" lon="5.26588">
        <ele>314.9</ele>
        <time>2010-10-17T09:39:09Z</time>
      </trkpt>
      <trkpt lat="45.15512" lon="5.26585">
        <ele>314.8</ele>
        <time>2010-10-17T09:39:10Z</time>
      </trkpt>
      <trkpt lat="45.15512" lon="5.26581">
        <ele>315.3</ele>
        <time>2010-10-17T09:39:11Z</time>
      </trkpt>
      <trkpt lat="45.15513" lon="5.26577">
        <ele>314.7</ele>
        <time>2010-10-17T09:39:12Z</time>
      </trkpt>
      <trkpt lat="45.15513" lon="5.26575">
        <ele>315</ele>
        <time>2010-10-17T09:39:13Z</time>
      </trkpt>
      <trkpt lat="45.15512" lon="5.26571">
        <ele>315.1</ele>
        <time>2010-10-17T09:39:14Z</time>
      </trkpt>
      <trkpt lat="45.15514" lon="5.26567">
        <ele>315</ele>
        <time>2010-10-17T09:39:15Z</time>
      </trkpt>
      <trkpt lat="45.15515" lon="5.26565">
        <ele>315.5</ele>
        <time>2010-10-17T09:39:16Z</time>
      </trkpt>
      <trkpt lat="45.15516" lon="5.26562">
        <ele>315.2</ele>
        <time>2010-10-17T09:39:17Z</time>
      </trkpt>
      <trkpt lat="45.15516" lon="5.26558">
        <ele>315.6</ele>
        <time>2010-10-17T09:39:17Z</time>
      </trkpt>
      <trkpt lat="45.15516" lon="5.26555">
        <ele>315.6</ele>
        <time>2010-10-17T09:39:18Z</time>
      </trkpt>
      <trkpt lat="45.15517" lon="5.26552">
        <ele>315.3</ele>
        <time>2010-10-17T09:39:20Z</time>
      </trkpt>
      <trkpt lat="45.15518" lon="5.26548">
        <ele>315.2</ele>
        <time>2010-10-17T09:39:21Z</time>
      </trkpt>
      <trkpt lat="45.15518" lon="5.26546">
        <ele>314.9</ele>
        <time>2010-10-17T09:39:22Z</time>
      </trkpt>
      <trkpt lat="45.1552" lon="5.26543">
        <ele>315.1</ele>
        <time>2010-10-17T09:39:23Z</time>
      </trkpt>
      <trkpt lat="45.15521" lon="5.26539">
        <ele>315.4</ele>
        <time>2010-10-17T09:39:24Z</time>
      </trkpt>
      <trkpt lat="45.15521" lon="5.26536">
        <ele>315.3</ele>
        <time>2010-10-17T09:39:25Z</time>
      </trkpt>
      <trkpt lat="45.15523" lon="5.26532">
        <ele>315.4</ele>
        <time>2010-10-17T09:39:26Z</time>
      </trkpt>
      <trkpt lat="45.15523" lon="5.26527">
        <ele>315.3</ele>
        <time>2010-10-17T09:39:27Z</time>
      </trkpt>
      <trkpt lat="45.15524" lon="5.26523">
        <ele>315.2</ele>
        <time>2010-10-17T09:39:28Z</time>
      </trkpt>
      <trkpt lat="45.15524" lon="5.26518">
        <ele>315.1</ele>
        <time>2010-10-17T09:39:29Z</time>
      </trkpt>
      <trkpt lat="45.15525" lon="5.26514">
        <ele>314.4</ele>
        <time>2010-10-17T09:39:30Z</time>
      </trkpt>
      <trkpt lat="45.15528" lon="5.26509">
        <ele>314.2</ele>
        <time>2010-10-17T09:39:31Z</time>
      </trkpt>
      <trkpt lat="45.15531" lon="5.26504">
        <ele>313.6</ele>
        <time>2010-10-17T09:39:32Z</time>
      </trkpt>
      <trkpt lat="45.15532" lon="5.26501">
        <ele>313.8</ele>
        <time>2010-10-17T09:39:33Z</time>
      </trkpt>
      <trkpt lat="45.15532" lon="5.26497">
        <ele>314.7</ele>
        <time>2010-10-17T09:39:34Z</time>
      </trkpt>
      <trkpt lat="45.15533" lon="5.26492">
        <ele>315.7</ele>
        <time>2010-10-17T09:39:35Z</time>
      </trkpt>
      <trkpt lat="45.15534" lon="5.26487">
        <ele>316.4</ele>
        <time>2010-10-17T09:39:36Z</time>
      </trkpt>
      <trkpt lat="45.15534" lon="5.26484">
        <ele>315.7</ele>
        <time>2010-10-17T09:39:37Z</time>
      </trkpt>
      <trkpt lat="45.15535" lon="5.26481">
        <ele>315.2</ele>
        <time>2010-10-17T09:39:37Z</time>
      </trkpt>
      <trkpt lat="45.15535" lon="5.26479">
        <ele>314.9</ele>
        <time>2010-10-17T09:39:38Z</time>
      </trkpt>
      <trkpt lat="45.15535" lon="5.26477">
        <ele>314.5</ele>
        <time>2010-10-17T09:39:40Z</time>
      </trkpt>
      <trkpt lat="45.15536" lon="5.26473">
        <ele>315.6</ele>
        <time>2010-10-17T09:39:41Z</time>
      </trkpt>
      <trkpt lat="45.15537" lon="5.2647">
        <ele>315.8</ele>
        <time>2010-10-17T09:39:42Z</time>
      </trkpt>
      <trkpt lat="45.15537" lon="5.26466">
        <ele>316.3</ele>
        <time>2010-10-17T09:39:43Z</time>
      </trkpt>
      <trkpt lat="45.15538" lon="5.26462">
        <ele>316.8</ele>
        <time>2010-10-17T09:39:44Z</time>
      </trkpt>
      <trkpt lat="45.1554" lon="5.26458">
        <ele>317.5</ele>
        <time>2010-10-17T09:39:45Z</time>
      </trkpt>
      <trkpt lat="45.15543" lon="5.26454">
        <ele>317.2</ele>
        <time>2010-10-17T09:39:46Z</time>
      </trkpt>
      <trkpt lat="45.15546" lon="5.2645">
        <ele>316.5</ele>
        <time>2010-10-17T09:39:47Z</time>
      </trkpt>
      <trkpt lat="45.15548" lon="5.26445">
        <ele>317.6</ele>
        <time>2010-10-17T09:39:48Z</time>
      </trkpt>
      <trkpt lat="45.15549" lon="5.26441">
        <ele>318.2</ele>
        <time>2010-10-17T09:39:49Z</time>
      </trkpt>
      <trkpt lat="45.15551" lon="5.26438">
        <ele>318.8</ele>
        <time>2010-10-17T09:39:50Z</time>
      </trkpt>
      <trkpt lat="45.15553" lon="5.26435">
        <ele>318.8</ele>
        <time>2010-10-17T09:39:51Z</time>
      </trkpt>
      <trkpt lat="45.15553" lon="5.26432">
        <ele>319.2</ele>
        <time>2010-10-17T09:39:52Z</time>
      </trkpt>
      <trkpt lat="45.15555" lon="5.26428">
        <ele>320.4</ele>
        <time>2010-10-17T09:39:53Z</time>
      </trkpt>
      <trkpt lat="45.15557" lon="5.26424">
        <ele>319.9</ele>
        <time>2010-10-17T09:39:54Z</time>
      </trkpt>
      <trkpt lat="45.15561" lon="5.26421">
        <ele>319.7</ele>
        <time>2010-10-17T09:39:55Z</time>
      </trkpt>
      <trkpt lat="45.15561" lon="5.26419">
        <ele>320.2</ele>
        <time>2010-10-17T09:39:56Z</time>
      </trkpt>
      <trkpt lat="45.15562" lon="5.26414">
        <ele>320.7</ele>
        <time>2010-10-17T09:39:57Z</time>
      </trkpt>
      <trkpt lat="45.15562" lon="5.26411">
        <ele>321.7</ele>
        <time>2010-10-17T09:39:57Z</time>
      </trkpt>
      <trkpt lat="45.15564" lon="5.26405">
        <ele>322.2</ele>
        <time>2010-10-17T09:39:59Z</time>
      </trkpt>
      <trkpt lat="45.15564" lon="5.26402">
        <ele>322.9</ele>
        <time>2010-10-17T09:40:00Z</time>
      </trkpt>
      <trkpt lat="45.15565" lon="5.26399">
        <ele>323.5</ele>
        <time>2010-10-17T09:40:01Z</time>
      </trkpt>
      <trkpt lat="45.15567" lon="5.26397">
        <ele>323.3</ele>
        <time>2010-10-17T09:40:02Z</time>
      </trkpt>
      <trkpt lat="45.15567" lon="5.26394">
        <ele>323.2</ele>
        <time>2010-10-17T09:40:03Z</time>
      </trkpt>
      <trkpt lat="45.15568" lon="5.26391">
        <ele>323.4</ele>
        <time>2010-10-17T09:40:04Z</time>
      </trkpt>
      <trkpt lat="45.1557" lon="5.26388">
        <ele>323.8</ele>
        <time>2010-10-17T09:40:05Z</time>
      </trkpt>
      <trkpt lat="45.15571" lon="5.26386">
        <ele>323.8</ele>
        <time>2010-10-17T09:40:06Z</time>
      </trkpt>
      <trkpt lat="45.1557" lon="5.26384">
        <ele>323.7</ele>
        <time>2010-10-17T09:40:07Z</time>
      </trkpt>
      <trkpt lat="45.1557" lon="5.26382">
        <ele>323.7</ele>
        <time>2010-10-17T09:40:08Z</time>
      </trkpt>
      <trkpt lat="45.15571" lon="5.26379">
        <ele>324.1</ele>
        <time>2010-10-17T09:40:09Z</time>
      </trkpt>
      <trkpt lat="45.15573" lon="5.26378">
        <ele>324.5</ele>
        <time>2010-10-17T09:40:10Z</time>
      </trkpt>
      <trkpt lat="45.15575" lon="5.26374">
        <ele>325.3</ele>
        <time>2010-10-17T09:40:11Z</time>
      </trkpt>
      <trkpt lat="45.15575" lon="5.26371">
        <ele>324.9</ele>
        <time>2010-10-17T09:40:12Z</time>
      </trkpt>
      <trkpt lat="45.15576" lon="5.26369">
        <ele>325.3</ele>
        <time>2010-10-17T09:40:13Z</time>
      </trkpt>
      <trkpt lat="45.15577" lon="5.26367">
        <ele>325.3</ele>
        <time>2010-10-17T09:40:14Z</time>
      </trkpt>
      <trkpt lat="45.15578" lon="5.26365">
        <ele>325.6</ele>
        <time>2010-10-17T09:40:15Z</time>
      </trkpt>
      <trkpt lat="45.15578" lon="5.26362">
        <ele>326.3</ele>
        <time>2010-10-17T09:40:16Z</time>
      </trkpt>
      <trkpt lat="45.15579" lon="5.2636">
        <ele>326.8</ele>
        <time>2010-10-17T09:40:17Z</time>
      </trkpt>
      <trkpt lat="45.1558" lon="5.26358">
        <ele>326.7</ele>
        <time>2010-10-17T09:40:17Z</time>
      </trkpt>
      <trkpt lat="45.15581" lon="5.26358">
        <ele>326.9</ele>
        <time>2010-10-17T09:40:19Z</time>
      </trkpt>
      <trkpt lat="45.15583" lon="5.26356">
        <ele>326.4</ele>
        <time>2010-10-17T09:40:20Z</time>
      </trkpt>
      <trkpt lat="45.15583" lon="5.26354">
        <ele>326.1</ele>
        <time>2010-10-17T09:40:21Z</time>
      </trkpt>
      <trkpt lat="45.15584" lon="5.26353">
        <ele>326.2</ele>
        <time>2010-10-17T09:40:22Z</time>
      </trkpt>
      <trkpt lat="45.15585" lon="5.26352">
        <ele>326.1</ele>
        <time>2010-10-17T09:40:23Z</time>
      </trkpt>
      <trkpt lat="45.15587" lon="5.26349">
        <ele>326.1</ele>
        <time>2010-10-17T09:40:24Z</time>
      </trkpt>
      <trkpt lat="45.15589" lon="5.26346">
        <ele>326</ele>
        <time>2010-10-17T09:40:25Z</time>
      </trkpt>
      <trkpt lat="45.1559" lon="5.26343">
        <ele>325.7</ele>
        <time>2010-10-17T09:40:26Z</time>
      </trkpt>
      <trkpt lat="45.1559" lon="5.2634">
        <ele>326.1</ele>
        <time>2010-10-17T09:40:27Z</time>
      </trkpt>
      <trkpt lat="45.1559" lon="5.26337">
        <ele>325.9</ele>
        <time>2010-10-17T09:40:28Z</time>
      </trkpt>
      <trkpt lat="45.15592" lon="5.26336">
        <ele>325.8</ele>
        <time>2010-10-17T09:40:29Z</time>
      </trkpt>
      <trkpt lat="45.15593" lon="5.26336">
        <ele>325.2</ele>
        <time>2010-10-17T09:40:30Z</time>
      </trkpt>
      <trkpt lat="45.15594" lon="5.26333">
        <ele>326.2</ele>
        <time>2010-10-17T09:40:31Z</time>
      </trkpt>
      <trkpt lat="45.15595" lon="5.26329">
        <ele>327.4</ele>
        <time>2010-10-17T09:40:32Z</time>
      </trkpt>
      <trkpt lat="45.15598" lon="5.26327">
        <ele>328</ele>
        <time>2010-10-17T09:40:33Z</time>
      </trkpt>
      <trkpt lat="45.15601" lon="5.26326">
        <ele>328.7</ele>
        <time>2010-10-17T09:40:34Z</time>
      </trkpt>
      <trkpt lat="45.15601" lon="5.26323">
        <ele>328.3</ele>
        <time>2010-10-17T09:40:35Z</time>
      </trkpt>
      <trkpt lat="45.156" lon="5.26323">
        <ele>327.3</ele>
        <time>2010-10-17T09:40:36Z</time>
      </trkpt>
      <trkpt lat="45.15601" lon="5.2632">
        <ele>327.3</ele>
        <time>2010-10-17T09:40:37Z</time>
      </trkpt>
      <trkpt lat="45.15603" lon="5.26317">
        <ele>327.6</ele>
        <time>2010-10-17T09:40:37Z</time>
      </trkpt>
      <trkpt lat="45.15604" lon="5.26313">
        <ele>328.3</ele>
        <time>2010-10-17T09:40:39Z</time>
      </trkpt>
      <trkpt lat="45.15604" lon="5.26309">
        <ele>328.3</ele>
        <time>2010-10-17T09:40:40Z</time>
      </trkpt>
      <trkpt lat="45.15605" lon="5.26307">
        <ele>328.3</ele>
        <time>2010-10-17T09:40:41Z</time>
      </trkpt>
      <trkpt lat="45.15606" lon="5.26304">
        <ele>328.3</ele>
        <time>2010-10-17T09:40:42Z</time>
      </trkpt>
      <trkpt lat="45.15607" lon="5.26305">
        <ele>328</ele>
        <time>2010-10-17T09:40:43Z</time>
      </trkpt>
      <trkpt lat="45.15609" lon="5.26304">
        <ele>328.2</ele>
        <time>2010-10-17T09:40:44Z</time>
      </trkpt>
      <trkpt lat="45.15609" lon="5.26302">
        <ele>329.2</ele>
        <time>2010-10-17T09:40:45Z</time>
      </trkpt>
      <trkpt lat="45.15611" lon="5.26299">
        <ele>329</ele>
        <time>2010-10-17T09:40:46Z</time>
      </trkpt>
      <trkpt lat="45.15612" lon="5.26298">
        <ele>328.5</ele>
        <time>2010-10-17T09:40:47Z</time>
      </trkpt>
      <trkpt lat="45.15613" lon="5.26295">
        <ele>329</ele>
        <time>2010-10-17T09:40:48Z</time>
      </trkpt>
      <trkpt lat="45.15612" lon="5.26292">
        <ele>329.3</ele>
        <time>2010-10-17T09:40:49Z</time>
      </trkpt>
      <trkpt lat="45.15613" lon="5.26291">
        <ele>329.6</ele>
        <time>2010-10-17T09:40:50Z</time>
      </trkpt>
      <trkpt lat="45.15612" lon="5.26288">
        <ele>330.1</ele>
        <time>2010-10-17T09:40:51Z</time>
      </trkpt>
      <trkpt lat="45.15611" lon="5.26285">
        <ele>331</ele>
        <time>2010-10-17T09:40:52Z</time>
      </trkpt>
      <trkpt lat="45.15612" lon="5.26282">
        <ele>331.1</ele>
        <time>2010-10-17T09:40:53Z</time>
      </trkpt>
      <trkpt lat="45.15613" lon="5.26281">
        <ele>331</ele>
        <time>2010-10-17T09:40:54Z</time>
      </trkpt>
      <trkpt lat="45.15613" lon="5.2628">
        <ele>330.8</ele>
        <time>2010-10-17T09:40:55Z</time>
      </trkpt>
      <trkpt lat="45.15613" lon="5.26277">
        <ele>331.3</ele>
        <time>2010-10-17T09:40:56Z</time>
      </trkpt>
      <trkpt lat="45.15614" lon="5.26276">
        <ele>331.1</ele>
        <time>2010-10-17T09:40:56Z</time>
      </trkpt>
      <trkpt lat="45.15615" lon="5.26273">
        <ele>330.9</ele>
        <time>2010-10-17T09:40:59Z</time>
      </trkpt>
      <trkpt lat="45.15615" lon="5.26272">
        <ele>331</ele>
        <time>2010-10-17T09:41:00Z</time>
      </trkpt>
      <trkpt lat="45.15615" lon="5.26271">
        <ele>331.2</ele>
        <time>2010-10-17T09:41:01Z</time>
      </trkpt>
      <trkpt lat="45.15616" lon="5.26268">
        <ele>330.6</ele>
        <time>2010-10-17T09:41:02Z</time>
      </trkpt>
      <trkpt lat="45.15616" lon="5.26267">
        <ele>330.4</ele>
        <time>2010-10-17T09:41:03Z</time>
      </trkpt>
      <trkpt lat="45.15613" lon="5.26265">
        <ele>329.7</ele>
        <time>2010-10-17T09:41:04Z</time>
      </trkpt>
      <trkpt lat="45.15613" lon="5.26262">
        <ele>329.4</ele>
        <time>2010-10-17T09:41:05Z</time>
      </trkpt>
      <trkpt lat="45.15615" lon="5.26259">
        <ele>328.7</ele>
        <time>2010-10-17T09:41:06Z</time>
      </trkpt>
      <trkpt lat="45.15615" lon="5.26257">
        <ele>328</ele>
        <time>2010-10-17T09:41:07Z</time>
      </trkpt>
      <trkpt lat="45.15614" lon="5.26255">
        <ele>327.8</ele>
        <time>2010-10-17T09:41:08Z</time>
      </trkpt>
      <trkpt lat="45.15614" lon="5.26253">
        <ele>327.6</ele>
        <time>2010-10-17T09:41:09Z</time>
      </trkpt>
      <trkpt lat="45.15614" lon="5.2625">
        <ele>327.9</ele>
        <time>2010-10-17T09:41:10Z</time>
      </trkpt>
      <trkpt lat="45.15615" lon="5.26249">
        <ele>328.3</ele>
        <time>2010-10-17T09:41:11Z</time>
      </trkpt>
      <trkpt lat="45.15616" lon="5.26246">
        <ele>328.8</ele>
        <time>2010-10-17T09:41:12Z</time>
      </trkpt>
      <trkpt lat="45.15614" lon="5.26244">
        <ele>328.5</ele>
        <time>2010-10-17T09:41:13Z</time>
      </trkpt>
      <trkpt lat="45.15613" lon="5.2624">
        <ele>328.4</ele>
        <time>2010-10-17T09:41:14Z</time>
      </trkpt>
      <trkpt lat="45.15613" lon="5.26239">
        <ele>328.8</ele>
        <time>2010-10-17T09:41:15Z</time>
      </trkpt>
      <trkpt lat="45.15612" lon="5.26237">
        <ele>328.9</ele>
        <time>2010-10-17T09:41:16Z</time>
      </trkpt>
      <trkpt lat="45.15612" lon="5.26235">
        <ele>328.8</ele>
        <time>2010-10-17T09:41:16Z</time>
      </trkpt>
      <trkpt lat="45.15611" lon="5.26233">
        <ele>328.8</ele>
        <time>2010-10-17T09:41:17Z</time>
      </trkpt>
      <trkpt lat="45.1561" lon="5.26232">
        <ele>328.6</ele>
        <time>2010-10-17T09:41:19Z</time>
      </trkpt>
      <trkpt lat="45.15611" lon="5.2623">
        <ele>328.6</ele>
        <time>2010-10-17T09:41:20Z</time>
      </trkpt>
      <trkpt lat="45.15613" lon="5.26227">
        <ele>329</ele>
        <time>2010-10-17T09:41:21Z</time>
      </trkpt>
      <trkpt lat="45.15613" lon="5.26225">
        <ele>329</ele>
        <time>2010-10-17T09:41:22Z</time>
      </trkpt>
      <trkpt lat="45.15612" lon="5.26223">
        <ele>329</ele>
        <time>2010-10-17T09:41:23Z</time>
      </trkpt>
      <trkpt lat="45.15612" lon="5.26221">
        <ele>328.7</ele>
        <time>2010-10-17T09:41:24Z</time>
      </trkpt>
      <trkpt lat="45.15612" lon="5.26219">
        <ele>329</ele>
        <time>2010-10-17T09:41:25Z</time>
      </trkpt>
      <trkpt lat="45.15613" lon="5.26216">
        <ele>329.1</ele>
        <time>2010-10-17T09:41:26Z</time>
      </trkpt>
      <trkpt lat="45.15612" lon="5.26215">
        <ele>329.1</ele>
        <time>2010-10-17T09:41:27Z</time>
      </trkpt>
      <trkpt lat="45.15612" lon="5.26212">
        <ele>328.7</ele>
        <time>2010-10-17T09:41:28Z</time>
      </trkpt>
      <trkpt lat="45.1561" lon="5.26211">
        <ele>328.7</ele>
        <time>2010-10-17T09:41:29Z</time>
      </trkpt>
      <trkpt lat="45.1561" lon="5.26208">
        <ele>328.5</ele>
        <time>2010-10-17T09:41:30Z</time>
      </trkpt>
      <trkpt lat="45.15609" lon="5.26207">
        <ele>328.3</ele>
        <time>2010-10-17T09:41:31Z</time>
      </trkpt>
      <trkpt lat="45.15609" lon="5.26201">
        <ele>329</ele>
        <time>2010-10-17T09:41:32Z</time>
      </trkpt>
      <trkpt lat="45.1561" lon="5.26197">
        <ele>329.6</ele>
        <time>2010-10-17T09:41:33Z</time>
      </trkpt>
      <trkpt lat="45.1561" lon="5.26194">
        <ele>329.6</ele>
        <time>2010-10-17T09:41:34Z</time>
      </trkpt>
      <trkpt lat="45.15609" lon="5.26191">
        <ele>329.7</ele>
        <time>2010-10-17T09:41:35Z</time>
      </trkpt>
      <trkpt lat="45.1561" lon="5.26189">
        <ele>329.7</ele>
        <time>2010-10-17T09:41:36Z</time>
      </trkpt>
      <trkpt lat="45.15609" lon="5.26188">
        <ele>330</ele>
        <time>2010-10-17T09:41:36Z</time>
      </trkpt>
      <trkpt lat="45.15609" lon="5.26185">
        <ele>329.8</ele>
        <time>2010-10-17T09:41:37Z</time>
      </trkpt>
      <trkpt lat="45.15609" lon="5.26184">
        <ele>329.7</ele>
        <time>2010-10-17T09:41:39Z</time>
      </trkpt>
      <trkpt lat="45.15608" lon="5.26181">
        <ele>329.4</ele>
        <time>2010-10-17T09:41:40Z</time>
      </trkpt>
      <trkpt lat="45.15609" lon="5.26176">
        <ele>329.5</ele>
        <time>2010-10-17T09:41:41Z</time>
      </trkpt>
      <trkpt lat="45.1561" lon="5.26172">
        <ele>329</ele>
        <time>2010-10-17T09:41:42Z</time>
      </trkpt>
      <trkpt lat="45.15612" lon="5.26168">
        <ele>329</ele>
        <time>2010-10-17T09:41:44Z</time>
      </trkpt>
      <trkpt lat="45.15609" lon="5.26166">
        <ele>328.9</ele>
        <time>2010-10-17T09:41:45Z</time>
      </trkpt>
      <trkpt lat="45.1561" lon="5.26164">
        <ele>328.8</ele>
        <time>2010-10-17T09:41:46Z</time>
      </trkpt>
      <trkpt lat="45.1561" lon="5.26161">
        <ele>328.6</ele>
        <time>2010-10-17T09:41:47Z</time>
      </trkpt>
      <trkpt lat="45.1561" lon="5.26159">
        <ele>328.6</ele>
        <time>2010-10-17T09:41:48Z</time>
      </trkpt>
      <trkpt lat="45.1561" lon="5.26156">
        <ele>328.9</ele>
        <time>2010-10-17T09:41:49Z</time>
      </trkpt>
      <trkpt lat="45.15611" lon="5.26154">
        <ele>328.7</ele>
        <time>2010-10-17T09:41:50Z</time>
      </trkpt>
      <trkpt lat="45.15611" lon="5.26151">
        <ele>328.5</ele>
        <time>2010-10-17T09:41:51Z</time>
      </trkpt>
      <trkpt lat="45.15612" lon="5.26149">
        <ele>328.7</ele>
        <time>2010-10-17T09:41:52Z</time>
      </trkpt>
      <trkpt lat="45.15615" lon="5.26144">
        <ele>328.3</ele>
        <time>2010-10-17T09:41:53Z</time>
      </trkpt>
      <trkpt lat="45.1562" lon="5.26137">
        <ele>328.4</ele>
        <time>2010-10-17T09:41:54Z</time>
      </trkpt>
      <trkpt lat="45.15621" lon="5.26135">
        <ele>328.3</ele>
        <time>2010-10-17T09:41:55Z</time>
      </trkpt>
      <trkpt lat="45.1562" lon="5.26136">
        <ele>328.3</ele>
        <time>2010-10-17T09:41:56Z</time>
      </trkpt>
      <trkpt lat="45.15622" lon="5.26135">
        <ele>328</ele>
        <time>2010-10-17T09:41:56Z</time>
      </trkpt>
      <trkpt lat="45.15621" lon="5.26134">
        <ele>328</ele>
        <time>2010-10-17T09:42:00Z</time>
      </trkpt>
      <trkpt lat="45.15622" lon="5.26133">
        <ele>327.8</ele>
        <time>2010-10-17T09:42:01Z</time>
      </trkpt>
      <trkpt lat="45.15622" lon="5.26133">
        <ele>328</ele>
        <time>2010-10-17T09:42:14Z</time>
      </trkpt>
      <trkpt lat="45.15624" lon="5.26131">
        <ele>328</ele>
        <time>2010-10-17T09:42:15Z</time>
      </trkpt>
      <trkpt lat="45.15623" lon="5.26124">
        <ele>327.2</ele>
        <time>2010-10-17T09:42:16Z</time>
      </trkpt>
      <trkpt lat="45.15624" lon="5.26118">
        <ele>327.2</ele>
        <time>2010-10-17T09:42:16Z</time>
      </trkpt>
      <trkpt lat="45.15625" lon="5.26112">
        <ele>327.5</ele>
        <time>2010-10-17T09:42:18Z</time>
      </trkpt>
      <trkpt lat="45.15625" lon="5.26107">
        <ele>327.2</ele>
        <time>2010-10-17T09:42:19Z</time>
      </trkpt>
      <trkpt lat="45.15625" lon="5.26102">
        <ele>327.8</ele>
        <time>2010-10-17T09:42:20Z</time>
      </trkpt>
      <trkpt lat="45.15627" lon="5.26098">
        <ele>328.2</ele>
        <time>2010-10-17T09:42:21Z</time>
      </trkpt>
      <trkpt lat="45.15627" lon="5.26094">
        <ele>328.6</ele>
        <time>2010-10-17T09:42:22Z</time>
      </trkpt>
      <trkpt lat="45.15627" lon="5.2609">
        <ele>329.3</ele>
        <time>2010-10-17T09:42:23Z</time>
      </trkpt>
      <trkpt lat="45.15628" lon="5.26085">
        <ele>330</ele>
        <time>2010-10-17T09:42:24Z</time>
      </trkpt>
      <trkpt lat="45.1563" lon="5.26079">
        <ele>332</ele>
        <time>2010-10-17T09:42:25Z</time>
      </trkpt>
      <trkpt lat="45.15632" lon="5.26076">
        <ele>332.6</ele>
        <time>2010-10-17T09:42:26Z</time>
      </trkpt>
      <trkpt lat="45.15633" lon="5.2607">
        <ele>333</ele>
        <time>2010-10-17T09:42:27Z</time>
      </trkpt>
      <trkpt lat="45.15635" lon="5.26068">
        <ele>333.4</ele>
        <time>2010-10-17T09:42:28Z</time>
      </trkpt>
      <trkpt lat="45.15635" lon="5.26061">
        <ele>336.1</ele>
        <time>2010-10-17T09:42:29Z</time>
      </trkpt>
      <trkpt lat="45.15636" lon="5.26058">
        <ele>336.3</ele>
        <time>2010-10-17T09:42:30Z</time>
      </trkpt>
      <trkpt lat="45.15638" lon="5.26053">
        <ele>337.8</ele>
        <time>2010-10-17T09:42:31Z</time>
      </trkpt>
      <trkpt lat="45.15639" lon="5.26046">
        <ele>339.7</ele>
        <time>2010-10-17T09:42:32Z</time>
      </trkpt>
      <trkpt lat="45.1564" lon="5.26043">
        <ele>340.2</ele>
        <time>2010-10-17T09:42:33Z</time>
      </trkpt>
      <trkpt lat="45.1564" lon="5.26041">
        <ele>340.2</ele>
        <time>2010-10-17T09:42:34Z</time>
      </trkpt>
      <trkpt lat="45.1564" lon="5.26039">
        <ele>340.1</ele>
        <time>2010-10-17T09:42:35Z</time>
      </trkpt>
      <trkpt lat="45.15642" lon="5.26036">
        <ele>340.8</ele>
        <time>2010-10-17T09:42:36Z</time>
      </trkpt>
      <trkpt lat="45.15643" lon="5.26034">
        <ele>341.3</ele>
        <time>2010-10-17T09:42:36Z</time>
      </trkpt>
      <trkpt lat="45.15644" lon="5.26029">
        <ele>342.6</ele>
        <time>2010-10-17T09:42:38Z</time>
      </trkpt>
      <trkpt lat="45.15646" lon="5.26026">
        <ele>342.5</ele>
        <time>2010-10-17T09:42:39Z</time>
      </trkpt>
      <trkpt lat="45.15648" lon="5.26023">
        <ele>342.3</ele>
        <time>2010-10-17T09:42:40Z</time>
      </trkpt>
      <trkpt lat="45.1565" lon="5.26021">
        <ele>342.1</ele>
        <time>2010-10-17T09:42:41Z</time>
      </trkpt>
      <trkpt lat="45.15651" lon="5.26019">
        <ele>342.5</ele>
        <time>2010-10-17T09:42:42Z</time>
      </trkpt>
      <trkpt lat="45.15651" lon="5.26018">
        <ele>342.8</ele>
        <time>2010-10-17T09:42:43Z</time>
      </trkpt>
      <trkpt lat="45.15652" lon="5.26016">
        <ele>343.6</ele>
        <time>2010-10-17T09:42:44Z</time>
      </trkpt>
      <trkpt lat="45.15653" lon="5.26014">
        <ele>344.8</ele>
        <time>2010-10-17T09:42:45Z</time>
      </trkpt>
      <trkpt lat="45.15653" lon="5.2601">
        <ele>345.6</ele>
        <time>2010-10-17T09:42:46Z</time>
      </trkpt>
      <trkpt lat="45.15655" lon="5.26007">
        <ele>345.7</ele>
        <time>2010-10-17T09:42:47Z</time>
      </trkpt>
      <trkpt lat="45.15656" lon="5.26005">
        <ele>345.7</ele>
        <time>2010-10-17T09:42:48Z</time>
      </trkpt>
      <trkpt lat="45.15657" lon="5.26003">
        <ele>346.2</ele>
        <time>2010-10-17T09:42:49Z</time>
      </trkpt>
      <trkpt lat="45.15658" lon="5.25999">
        <ele>347.6</ele>
        <time>2010-10-17T09:42:50Z</time>
      </trkpt>
      <trkpt lat="45.1566" lon="5.25997">
        <ele>348</ele>
        <time>2010-10-17T09:42:51Z</time>
      </trkpt>
      <trkpt lat="45.15661" lon="5.25996">
        <ele>347.2</ele>
        <time>2010-10-17T09:42:52Z</time>
      </trkpt>
      <trkpt lat="45.15662" lon="5.25993">
        <ele>347.4</ele>
        <time>2010-10-17T09:42:53Z</time>
      </trkpt>
      <trkpt lat="45.15662" lon="5.2599">
        <ele>347.6</ele>
        <time>2010-10-17T09:42:54Z</time>
      </trkpt>
      <trkpt lat="45.15663" lon="5.25989">
        <ele>348.2</ele>
        <time>2010-10-17T09:42:55Z</time>
      </trkpt>
      <trkpt lat="45.15662" lon="5.25986">
        <ele>347.2</ele>
        <time>2010-10-17T09:42:56Z</time>
      </trkpt>
      <trkpt lat="45.15661" lon="5.25984">
        <ele>347.4</ele>
        <time>2010-10-17T09:42:56Z</time>
      </trkpt>
      <trkpt lat="45.15661" lon="5.25982">
        <ele>346.8</ele>
        <time>2010-10-17T09:42:58Z</time>
      </trkpt>
      <trkpt lat="45.15661" lon="5.2598">
        <ele>347.8</ele>
        <time>2010-10-17T09:42:59Z</time>
      </trkpt>
      <trkpt lat="45.15662" lon="5.25977">
        <ele>347.9</ele>
        <time>2010-10-17T09:43:00Z</time>
      </trkpt>
      <trkpt lat="45.15662" lon="5.25975">
        <ele>348.5</ele>
        <time>2010-10-17T09:43:01Z</time>
      </trkpt>
      <trkpt lat="45.15663" lon="5.25972">
        <ele>348.6</ele>
        <time>2010-10-17T09:43:02Z</time>
      </trkpt>
      <trkpt lat="45.15663" lon="5.2597">
        <ele>348.5</ele>
        <time>2010-10-17T09:43:03Z</time>
      </trkpt>
      <trkpt lat="45.15665" lon="5.25966">
        <ele>349.2</ele>
        <time>2010-10-17T09:43:04Z</time>
      </trkpt>
      <trkpt lat="45.15666" lon="5.25962">
        <ele>349.9</ele>
        <time>2010-10-17T09:43:05Z</time>
      </trkpt>
      <trkpt lat="45.15666" lon="5.2596">
        <ele>349.7</ele>
        <time>2010-10-17T09:43:06Z</time>
      </trkpt>
      <trkpt lat="45.15667" lon="5.25958">
        <ele>349.3</ele>
        <time>2010-10-17T09:43:07Z</time>
      </trkpt>
      <trkpt lat="45.15666" lon="5.25954">
        <ele>349.6</ele>
        <time>2010-10-17T09:43:08Z</time>
      </trkpt>
      <trkpt lat="45.15666" lon="5.25952">
        <ele>349.3</ele>
        <time>2010-10-17T09:43:09Z</time>
      </trkpt>
      <trkpt lat="45.15665" lon="5.2595">
        <ele>349.2</ele>
        <time>2010-10-17T09:43:10Z</time>
      </trkpt>
      <trkpt lat="45.15664" lon="5.25947">
        <ele>349.1</ele>
        <time>2010-10-17T09:43:11Z</time>
      </trkpt>
      <trkpt lat="45.15662" lon="5.25946">
        <ele>349.3</ele>
        <time>2010-10-17T09:43:12Z</time>
      </trkpt>
      <trkpt lat="45.15662" lon="5.25943">
        <ele>348.8</ele>
        <time>2010-10-17T09:43:13Z</time>
      </trkpt>
      <trkpt lat="45.15661" lon="5.25942">
        <ele>349.1</ele>
        <time>2010-10-17T09:43:14Z</time>
      </trkpt>
      <trkpt lat="45.15661" lon="5.2594">
        <ele>349.1</ele>
        <time>2010-10-17T09:43:15Z</time>
      </trkpt>
      <trkpt lat="45.15659" lon="5.25939">
        <ele>348.9</ele>
        <time>2010-10-17T09:43:15Z</time>
      </trkpt>
      <trkpt lat="45.15659" lon="5.25937">
        <ele>349.4</ele>
        <time>2010-10-17T09:43:16Z</time>
      </trkpt>
      <trkpt lat="45.15659" lon="5.25934">
        <ele>349.8</ele>
        <time>2010-10-17T09:43:18Z</time>
      </trkpt>
      <trkpt lat="45.15658" lon="5.25932">
        <ele>349.4</ele>
        <time>2010-10-17T09:43:19Z</time>
      </trkpt>
      <trkpt lat="45.15657" lon="5.25929">
        <ele>349.2</ele>
        <time>2010-10-17T09:43:20Z</time>
      </trkpt>
      <trkpt lat="45.15655" lon="5.25928">
        <ele>349.1</ele>
        <time>2010-10-17T09:43:21Z</time>
      </trkpt>
      <trkpt lat="45.15655" lon="5.25925">
        <ele>349.3</ele>
        <time>2010-10-17T09:43:22Z</time>
      </trkpt>
      <trkpt lat="45.15654" lon="5.25923">
        <ele>349.3</ele>
        <time>2010-10-17T09:43:23Z</time>
      </trkpt>
      <trkpt lat="45.15653" lon="5.2592">
        <ele>349.2</ele>
        <time>2010-10-17T09:43:24Z</time>
      </trkpt>
      <trkpt lat="45.15652" lon="5.25918">
        <ele>349.5</ele>
        <time>2010-10-17T09:43:25Z</time>
      </trkpt>
      <trkpt lat="45.15652" lon="5.25915">
        <ele>349.3</ele>
        <time>2010-10-17T09:43:26Z</time>
      </trkpt>
      <trkpt lat="45.15652" lon="5.25914">
        <ele>349.4</ele>
        <time>2010-10-17T09:43:27Z</time>
      </trkpt>
      <trkpt lat="45.1565" lon="5.25912">
        <ele>350.1</ele>
        <time>2010-10-17T09:43:28Z</time>
      </trkpt>
      <trkpt lat="45.15649" lon="5.25909">
        <ele>350.1</ele>
        <time>2010-10-17T09:43:29Z</time>
      </trkpt>
      <trkpt lat="45.15648" lon="5.25907">
        <ele>349.8</ele>
        <time>2010-10-17T09:43:30Z</time>
      </trkpt>
      <trkpt lat="45.15648" lon="5.25903">
        <ele>350</ele>
        <time>2010-10-17T09:43:31Z</time>
      </trkpt>
      <trkpt lat="45.15645" lon="5.259">
        <ele>350.4</ele>
        <time>2010-10-17T09:43:32Z</time>
      </trkpt>
      <trkpt lat="45.15643" lon="5.25898">
        <ele>350.9</ele>
        <time>2010-10-17T09:43:33Z</time>
      </trkpt>
      <trkpt lat="45.15644" lon="5.25894">
        <ele>350.8</ele>
        <time>2010-10-17T09:43:34Z</time>
      </trkpt>
      <trkpt lat="45.15642" lon="5.25891">
        <ele>351.1</ele>
        <time>2010-10-17T09:43:35Z</time>
      </trkpt>
      <trkpt lat="45.1564" lon="5.25889">
        <ele>352.3</ele>
        <time>2010-10-17T09:43:35Z</time>
      </trkpt>
      <trkpt lat="45.1564" lon="5.25886">
        <ele>352.3</ele>
        <time>2010-10-17T09:43:36Z</time>
      </trkpt>
      <trkpt lat="45.15641" lon="5.25882">
        <ele>352.3</ele>
        <time>2010-10-17T09:43:38Z</time>
      </trkpt>
      <trkpt lat="45.1564" lon="5.25879">
        <ele>351.9</ele>
        <time>2010-10-17T09:43:39Z</time>
      </trkpt>
      <trkpt lat="45.15637" lon="5.25875">
        <ele>351.8</ele>
        <time>2010-10-17T09:43:40Z</time>
      </trkpt>
      <trkpt lat="45.15635" lon="5.25873">
        <ele>351.9</ele>
        <time>2010-10-17T09:43:41Z</time>
      </trkpt>
      <trkpt lat="45.15634" lon="5.25869">
        <ele>351.8</ele>
        <time>2010-10-17T09:43:42Z</time>
      </trkpt>
      <trkpt lat="45.15633" lon="5.25867">
        <ele>351.6</ele>
        <time>2010-10-17T09:43:43Z</time>
      </trkpt>
      <trkpt lat="45.15631" lon="5.25864">
        <ele>351.4</ele>
        <time>2010-10-17T09:43:44Z</time>
      </trkpt>
      <trkpt lat="45.15629" lon="5.25862">
        <ele>350.9</ele>
        <time>2010-10-17T09:43:45Z</time>
      </trkpt>
      <trkpt lat="45.15626" lon="5.25859">
        <ele>351.4</ele>
        <time>2010-10-17T09:43:46Z</time>
      </trkpt>
      <trkpt lat="45.15624" lon="5.25858">
        <ele>351.2</ele>
        <time>2010-10-17T09:43:47Z</time>
      </trkpt>
      <trkpt lat="45.15622" lon="5.25856">
        <ele>351.2</ele>
        <time>2010-10-17T09:43:48Z</time>
      </trkpt>
      <trkpt lat="45.15621" lon="5.25854">
        <ele>351.1</ele>
        <time>2010-10-17T09:43:49Z</time>
      </trkpt>
      <trkpt lat="45.1562" lon="5.25852">
        <ele>351.2</ele>
        <time>2010-10-17T09:43:50Z</time>
      </trkpt>
      <trkpt lat="45.1562" lon="5.2585">
        <ele>350.9</ele>
        <time>2010-10-17T09:43:51Z</time>
      </trkpt>
      <trkpt lat="45.15619" lon="5.25848">
        <ele>351.1</ele>
        <time>2010-10-17T09:43:52Z</time>
      </trkpt>
      <trkpt lat="45.15619" lon="5.25844">
        <ele>350.9</ele>
        <time>2010-10-17T09:43:53Z</time>
      </trkpt>
      <trkpt lat="45.15618" lon="5.25842">
        <ele>351</ele>
        <time>2010-10-17T09:43:54Z</time>
      </trkpt>
      <trkpt lat="45.15618" lon="5.2584">
        <ele>351</ele>
        <time>2010-10-17T09:43:55Z</time>
      </trkpt>
      <trkpt lat="45.15614" lon="5.2584">
        <ele>351.4</ele>
        <time>2010-10-17T09:43:55Z</time>
      </trkpt>
      <trkpt lat="45.15613" lon="5.25836">
        <ele>351.4</ele>
        <time>2010-10-17T09:43:56Z</time>
      </trkpt>
      <trkpt lat="45.15611" lon="5.25835">
        <ele>351.9</ele>
        <time>2010-10-17T09:43:58Z</time>
      </trkpt>
      <trkpt lat="45.15609" lon="5.25833">
        <ele>352.7</ele>
        <time>2010-10-17T09:43:59Z</time>
      </trkpt>
      <trkpt lat="45.15608" lon="5.2583">
        <ele>353.4</ele>
        <time>2010-10-17T09:44:00Z</time>
      </trkpt>
      <trkpt lat="45.15607" lon="5.25828">
        <ele>353.5</ele>
        <time>2010-10-17T09:44:01Z</time>
      </trkpt>
      <trkpt lat="45.15606" lon="5.25826">
        <ele>353.4</ele>
        <time>2010-10-17T09:44:02Z</time>
      </trkpt>
      <trkpt lat="45.15604" lon="5.25824">
        <ele>353.5</ele>
        <time>2010-10-17T09:44:03Z</time>
      </trkpt>
      <trkpt lat="45.15603" lon="5.25821">
        <ele>353.9</ele>
        <time>2010-10-17T09:44:04Z</time>
      </trkpt>
      <trkpt lat="45.15601" lon="5.2582">
        <ele>354.1</ele>
        <time>2010-10-17T09:44:05Z</time>
      </trkpt>
      <trkpt lat="45.15599" lon="5.25817">
        <ele>354.1</ele>
        <time>2010-10-17T09:44:06Z</time>
      </trkpt>
      <trkpt lat="45.15598" lon="5.25815">
        <ele>354.1</ele>
        <time>2010-10-17T09:44:07Z</time>
      </trkpt>
      <trkpt lat="45.15599" lon="5.25811">
        <ele>353.5</ele>
        <time>2010-10-17T09:44:08Z</time>
      </trkpt>
      <trkpt lat="45.15598" lon="5.25809">
        <ele>353.3</ele>
        <time>2010-10-17T09:44:09Z</time>
      </trkpt>
      <trkpt lat="45.15597" lon="5.25808">
        <ele>352.8</ele>
        <time>2010-10-17T09:44:10Z</time>
      </trkpt>
      <trkpt lat="45.15595" lon="5.25806">
        <ele>352.6</ele>
        <time>2010-10-17T09:44:11Z</time>
      </trkpt>
      <trkpt lat="45.15595" lon="5.25804">
        <ele>352.8</ele>
        <time>2010-10-17T09:44:12Z</time>
      </trkpt>
      <trkpt lat="45.15593" lon="5.25803">
        <ele>352.2</ele>
        <time>2010-10-17T09:44:13Z</time>
      </trkpt>
      <trkpt lat="45.15592" lon="5.25801">
        <ele>351.7</ele>
        <time>2010-10-17T09:44:14Z</time>
      </trkpt>
      <trkpt lat="45.1559" lon="5.258">
        <ele>351.3</ele>
        <time>2010-10-17T09:44:15Z</time>
      </trkpt>
      <trkpt lat="45.15589" lon="5.258">
        <ele>351</ele>
        <time>2010-10-17T09:44:15Z</time>
      </trkpt>
      <trkpt lat="45.15586" lon="5.25799">
        <ele>351.4</ele>
        <time>2010-10-17T09:44:17Z</time>
      </trkpt>
      <trkpt lat="45.15584" lon="5.25797">
        <ele>351.5</ele>
        <time>2010-10-17T09:44:18Z</time>
      </trkpt>
      <trkpt lat="45.15582" lon="5.25795">
        <ele>351.9</ele>
        <time>2010-10-17T09:44:19Z</time>
      </trkpt>
      <trkpt lat="45.15581" lon="5.25793">
        <ele>352.1</ele>
        <time>2010-10-17T09:44:20Z</time>
      </trkpt>
      <trkpt lat="45.15579" lon="5.25791">
        <ele>352.2</ele>
        <time>2010-10-17T09:44:21Z</time>
      </trkpt>
      <trkpt lat="45.15577" lon="5.25788">
        <ele>352.1</ele>
        <time>2010-10-17T09:44:22Z</time>
      </trkpt>
      <trkpt lat="45.15572" lon="5.25784">
        <ele>350.3</ele>
        <time>2010-10-17T09:44:23Z</time>
      </trkpt>
      <trkpt lat="45.15569" lon="5.25783">
        <ele>350</ele>
        <time>2010-10-17T09:44:24Z</time>
      </trkpt>
      <trkpt lat="45.15567" lon="5.25782">
        <ele>350.4</ele>
        <time>2010-10-17T09:44:25Z</time>
      </trkpt>
      <trkpt lat="45.15564" lon="5.25779">
        <ele>350.6</ele>
        <time>2010-10-17T09:44:26Z</time>
      </trkpt>
      <trkpt lat="45.15561" lon="5.25777">
        <ele>351.2</ele>
        <time>2010-10-17T09:44:27Z</time>
      </trkpt>
      <trkpt lat="45.15558" lon="5.25775">
        <ele>350.9</ele>
        <time>2010-10-17T09:44:28Z</time>
      </trkpt>
      <trkpt lat="45.15556" lon="5.25772">
        <ele>350</ele>
        <time>2010-10-17T09:44:29Z</time>
      </trkpt>
      <trkpt lat="45.15557" lon="5.25769">
        <ele>349.9</ele>
        <time>2010-10-17T09:44:30Z</time>
      </trkpt>
      <trkpt lat="45.15554" lon="5.25766">
        <ele>350</ele>
        <time>2010-10-17T09:44:31Z</time>
      </trkpt>
      <trkpt lat="45.15552" lon="5.25763">
        <ele>349.3</ele>
        <time>2010-10-17T09:44:32Z</time>
      </trkpt>
      <trkpt lat="45.1555" lon="5.25762">
        <ele>350.6</ele>
        <time>2010-10-17T09:44:33Z</time>
      </trkpt>
      <trkpt lat="45.15548" lon="5.2576">
        <ele>350.7</ele>
        <time>2010-10-17T09:44:34Z</time>
      </trkpt>
      <trkpt lat="45.15546" lon="5.25758">
        <ele>351.1</ele>
        <time>2010-10-17T09:44:35Z</time>
      </trkpt>
      <trkpt lat="45.15545" lon="5.25755">
        <ele>352.2</ele>
        <time>2010-10-17T09:44:35Z</time>
      </trkpt>
      <trkpt lat="45.15543" lon="5.25752">
        <ele>352.4</ele>
        <time>2010-10-17T09:44:37Z</time>
      </trkpt>
      <trkpt lat="45.15543" lon="5.25749">
        <ele>353</ele>
        <time>2010-10-17T09:44:38Z</time>
      </trkpt>
      <trkpt lat="45.15541" lon="5.25747">
        <ele>352.2</ele>
        <time>2010-10-17T09:44:39Z</time>
      </trkpt>
      <trkpt lat="45.15539" lon="5.25745">
        <ele>352.4</ele>
        <time>2010-10-17T09:44:40Z</time>
      </trkpt>
      <trkpt lat="45.15539" lon="5.25742">
        <ele>351.8</ele>
        <time>2010-10-17T09:44:41Z</time>
      </trkpt>
      <trkpt lat="45.15538" lon="5.25738">
        <ele>352.8</ele>
        <time>2010-10-17T09:44:42Z</time>
      </trkpt>
      <trkpt lat="45.15537" lon="5.25735">
        <ele>352.5</ele>
        <time>2010-10-17T09:44:43Z</time>
      </trkpt>
      <trkpt lat="45.15534" lon="5.25733">
        <ele>352.2</ele>
        <time>2010-10-17T09:44:44Z</time>
      </trkpt>
      <trkpt lat="45.15533" lon="5.2573">
        <ele>353</ele>
        <time>2010-10-17T09:44:45Z</time>
      </trkpt>
      <trkpt lat="45.1553" lon="5.25728">
        <ele>353.1</ele>
        <time>2010-10-17T09:44:46Z</time>
      </trkpt>
      <trkpt lat="45.15529" lon="5.25725">
        <ele>353.2</ele>
        <time>2010-10-17T09:44:47Z</time>
      </trkpt>
      <trkpt lat="45.15528" lon="5.25723">
        <ele>353.1</ele>
        <time>2010-10-17T09:44:48Z</time>
      </trkpt>
      <trkpt lat="45.15528" lon="5.2572">
        <ele>353.6</ele>
        <time>2010-10-17T09:44:49Z</time>
      </trkpt>
      <trkpt lat="45.15526" lon="5.25718">
        <ele>353.6</ele>
        <time>2010-10-17T09:44:50Z</time>
      </trkpt>
      <trkpt lat="45.15525" lon="5.25715">
        <ele>353.6</ele>
        <time>2010-10-17T09:44:51Z</time>
      </trkpt>
      <trkpt lat="45.15522" lon="5.25712">
        <ele>354.5</ele>
        <time>2010-10-17T09:44:52Z</time>
      </trkpt>
      <trkpt lat="45.15521" lon="5.2571">
        <ele>354.7</ele>
        <time>2010-10-17T09:44:53Z</time>
      </trkpt>
      <trkpt lat="45.15519" lon="5.25707">
        <ele>353.5</ele>
        <time>2010-10-17T09:44:54Z</time>
      </trkpt>
      <trkpt lat="45.15518" lon="5.25704">
        <ele>354</ele>
        <time>2010-10-17T09:44:55Z</time>
      </trkpt>
      <trkpt lat="45.15517" lon="5.25702">
        <ele>354.2</ele>
        <time>2010-10-17T09:44:55Z</time>
      </trkpt>
      <trkpt lat="45.15515" lon="5.25698">
        <ele>354.6</ele>
        <time>2010-10-17T09:44:57Z</time>
      </trkpt>
      <trkpt lat="45.15513" lon="5.25694">
        <ele>354.9</ele>
        <time>2010-10-17T09:44:58Z</time>
      </trkpt>
      <trkpt lat="45.15512" lon="5.25691">
        <ele>354.9</ele>
        <time>2010-10-17T09:44:59Z</time>
      </trkpt>
      <trkpt lat="45.15509" lon="5.25688">
        <ele>355</ele>
        <time>2010-10-17T09:45:00Z</time>
      </trkpt>
      <trkpt lat="45.15507" lon="5.25684">
        <ele>355.5</ele>
        <time>2010-10-17T09:45:01Z</time>
      </trkpt>
      <trkpt lat="45.15505" lon="5.25681">
        <ele>357.3</ele>
        <time>2010-10-17T09:45:02Z</time>
      </trkpt>
      <trkpt lat="45.15503" lon="5.25679">
        <ele>358.1</ele>
        <time>2010-10-17T09:45:03Z</time>
      </trkpt>
      <trkpt lat="45.15501" lon="5.25676">
        <ele>358.4</ele>
        <time>2010-10-17T09:45:04Z</time>
      </trkpt>
      <trkpt lat="45.15499" lon="5.25672">
        <ele>358.7</ele>
        <time>2010-10-17T09:45:05Z</time>
      </trkpt>
      <trkpt lat="45.15497" lon="5.25669">
        <ele>358.5</ele>
        <time>2010-10-17T09:45:06Z</time>
      </trkpt>
      <trkpt lat="45.15495" lon="5.25667">
        <ele>358.4</ele>
        <time>2010-10-17T09:45:07Z</time>
      </trkpt>
      <trkpt lat="45.15493" lon="5.25663">
        <ele>358.6</ele>
        <time>2010-10-17T09:45:08Z</time>
      </trkpt>
      <trkpt lat="45.15492" lon="5.2566">
        <ele>358.7</ele>
        <time>2010-10-17T09:45:09Z</time>
      </trkpt>
      <trkpt lat="45.1549" lon="5.25656">
        <ele>358.9</ele>
        <time>2010-10-17T09:45:10Z</time>
      </trkpt>
      <trkpt lat="45.15487" lon="5.25653">
        <ele>359</ele>
        <time>2010-10-17T09:45:11Z</time>
      </trkpt>
      <trkpt lat="45.15484" lon="5.25649">
        <ele>359</ele>
        <time>2010-10-17T09:45:12Z</time>
      </trkpt>
      <trkpt lat="45.15483" lon="5.25644">
        <ele>358.4</ele>
        <time>2010-10-17T09:45:13Z</time>
      </trkpt>
      <trkpt lat="45.15479" lon="5.2564">
        <ele>359.3</ele>
        <time>2010-10-17T09:45:14Z</time>
      </trkpt>
      <trkpt lat="45.15475" lon="5.25637">
        <ele>359.9</ele>
        <time>2010-10-17T09:45:15Z</time>
      </trkpt>
      <trkpt lat="45.15472" lon="5.25632">
        <ele>359.6</ele>
        <time>2010-10-17T09:45:15Z</time>
      </trkpt>
      <trkpt lat="45.15469" lon="5.25627">
        <ele>360.3</ele>
        <time>2010-10-17T09:45:17Z</time>
      </trkpt>
      <trkpt lat="45.15465" lon="5.25622">
        <ele>360</ele>
        <time>2010-10-17T09:45:18Z</time>
      </trkpt>
      <trkpt lat="45.15464" lon="5.25616">
        <ele>359.4</ele>
        <time>2010-10-17T09:45:19Z</time>
      </trkpt>
      <trkpt lat="45.15462" lon="5.25609">
        <ele>359.3</ele>
        <time>2010-10-17T09:45:20Z</time>
      </trkpt>
      <trkpt lat="45.15459" lon="5.25603">
        <ele>359.7</ele>
        <time>2010-10-17T09:45:21Z</time>
      </trkpt>
      <trkpt lat="45.15457" lon="5.25596">
        <ele>360</ele>
        <time>2010-10-17T09:45:22Z</time>
      </trkpt>
      <trkpt lat="45.15453" lon="5.25589">
        <ele>360.3</ele>
        <time>2010-10-17T09:45:23Z</time>
      </trkpt>
      <trkpt lat="45.15453" lon="5.2558">
        <ele>361.7</ele>
        <time>2010-10-17T09:45:24Z</time>
      </trkpt>
      <trkpt lat="45.15452" lon="5.25573">
        <ele>361.7</ele>
        <time>2010-10-17T09:45:25Z</time>
      </trkpt>
      <trkpt lat="45.15449" lon="5.25567">
        <ele>361.3</ele>
        <time>2010-10-17T09:45:26Z</time>
      </trkpt>
      <trkpt lat="45.15447" lon="5.25558">
        <ele>361.4</ele>
        <time>2010-10-17T09:45:27Z</time>
      </trkpt>
      <trkpt lat="45.15446" lon="5.2555">
        <ele>361.2</ele>
        <time>2010-10-17T09:45:28Z</time>
      </trkpt>
      <trkpt lat="45.15445" lon="5.25542">
        <ele>361.3</ele>
        <time>2010-10-17T09:45:29Z</time>
      </trkpt>
      <trkpt lat="45.15442" lon="5.25536">
        <ele>361.3</ele>
        <time>2010-10-17T09:45:30Z</time>
      </trkpt>
      <trkpt lat="45.15439" lon="5.25532">
        <ele>361.6</ele>
        <time>2010-10-17T09:45:31Z</time>
      </trkpt>
      <trkpt lat="45.15437" lon="5.25531">
        <ele>362.8</ele>
        <time>2010-10-17T09:45:32Z</time>
      </trkpt>
      <trkpt lat="45.15434" lon="5.2553">
        <ele>362.4</ele>
        <time>2010-10-17T09:45:33Z</time>
      </trkpt>
      <trkpt lat="45.15432" lon="5.2553">
        <ele>362.5</ele>
        <time>2010-10-17T09:45:34Z</time>
      </trkpt>
      <trkpt lat="45.1543" lon="5.2553">
        <ele>363</ele>
        <time>2010-10-17T09:45:34Z</time>
      </trkpt>
      <trkpt lat="45.15427" lon="5.25532">
        <ele>363.3</ele>
        <time>2010-10-17T09:45:35Z</time>
      </trkpt>
      <trkpt lat="45.15424" lon="5.25535">
        <ele>363.4</ele>
        <time>2010-10-17T09:45:37Z</time>
      </trkpt>
      <trkpt lat="45.15421" lon="5.2554">
        <ele>363.6</ele>
        <time>2010-10-17T09:45:38Z</time>
      </trkpt>
      <trkpt lat="45.15419" lon="5.25546">
        <ele>363.4</ele>
        <time>2010-10-17T09:45:39Z</time>
      </trkpt>
      <trkpt lat="45.15416" lon="5.25551">
        <ele>363.3</ele>
        <time>2010-10-17T09:45:40Z</time>
      </trkpt>
      <trkpt lat="45.15412" lon="5.25557">
        <ele>363.5</ele>
        <time>2010-10-17T09:45:41Z</time>
      </trkpt>
      <trkpt lat="45.15408" lon="5.25564">
        <ele>363.6</ele>
        <time>2010-10-17T09:45:42Z</time>
      </trkpt>
      <trkpt lat="45.15405" lon="5.25571">
        <ele>363.5</ele>
        <time>2010-10-17T09:45:43Z</time>
      </trkpt>
      <trkpt lat="45.15401" lon="5.25576">
        <ele>363.1</ele>
        <time>2010-10-17T09:45:44Z</time>
      </trkpt>
      <trkpt lat="45.15395" lon="5.25585">
        <ele>361.7</ele>
        <time>2010-10-17T09:45:45Z</time>
      </trkpt>
      <trkpt lat="45.15391" lon="5.25592">
        <ele>359.3</ele>
        <time>2010-10-17T09:45:46Z</time>
      </trkpt>
      <trkpt lat="45.15387" lon="5.25599">
        <ele>358.9</ele>
        <time>2010-10-17T09:45:47Z</time>
      </trkpt>
      <trkpt lat="45.15382" lon="5.25607">
        <ele>358.3</ele>
        <time>2010-10-17T09:45:48Z</time>
      </trkpt>
      <trkpt lat="45.15378" lon="5.25614">
        <ele>358.1</ele>
        <time>2010-10-17T09:45:49Z</time>
      </trkpt>
      <trkpt lat="45.15372" lon="5.25621">
        <ele>357.7</ele>
        <time>2010-10-17T09:45:50Z</time>
      </trkpt>
      <trkpt lat="45.15368" lon="5.25627">
        <ele>357.4</ele>
        <time>2010-10-17T09:45:51Z</time>
      </trkpt>
      <trkpt lat="45.15363" lon="5.25633">
        <ele>357.1</ele>
        <time>2010-10-17T09:45:52Z</time>
      </trkpt>
      <trkpt lat="45.15358" lon="5.25638">
        <ele>357</ele>
        <time>2010-10-17T09:45:53Z</time>
      </trkpt>
      <trkpt lat="45.15352" lon="5.25641">
        <ele>356.9</ele>
        <time>2010-10-17T09:45:54Z</time>
      </trkpt>
      <trkpt lat="45.15347" lon="5.25644">
        <ele>356.9</ele>
        <time>2010-10-17T09:45:54Z</time>
      </trkpt>
      <trkpt lat="45.15341" lon="5.25646">
        <ele>356.7</ele>
        <time>2010-10-17T09:45:55Z</time>
      </trkpt>
      <trkpt lat="45.15337" lon="5.25648">
        <ele>357</ele>
        <time>2010-10-17T09:45:57Z</time>
      </trkpt>
      <trkpt lat="45.15329" lon="5.2565">
        <ele>356.1</ele>
        <time>2010-10-17T09:45:58Z</time>
      </trkpt>
      <trkpt lat="45.15323" lon="5.25651">
        <ele>355.6</ele>
        <time>2010-10-17T09:45:59Z</time>
      </trkpt>
      <trkpt lat="45.15318" lon="5.25651">
        <ele>355.8</ele>
        <time>2010-10-17T09:46:00Z</time>
      </trkpt>
      <trkpt lat="45.15312" lon="5.25651">
        <ele>355.8</ele>
        <time>2010-10-17T09:46:01Z</time>
      </trkpt>
      <trkpt lat="45.15305" lon="5.25652">
        <ele>355.2</ele>
        <time>2010-10-17T09:46:02Z</time>
      </trkpt>
      <trkpt lat="45.15298" lon="5.25652">
        <ele>355.3</ele>
        <time>2010-10-17T09:46:03Z</time>
      </trkpt>
      <trkpt lat="45.15294" lon="5.25652">
        <ele>355.1</ele>
        <time>2010-10-17T09:46:04Z</time>
      </trkpt>
      <trkpt lat="45.1529" lon="5.25652">
        <ele>355.2</ele>
        <time>2010-10-17T09:46:05Z</time>
      </trkpt>
      <trkpt lat="45.15285" lon="5.25652">
        <ele>355.4</ele>
        <time>2010-10-17T09:46:06Z</time>
      </trkpt>
      <trkpt lat="45.1528" lon="5.25653">
        <ele>355.5</ele>
        <time>2010-10-17T09:46:07Z</time>
      </trkpt>
      <trkpt lat="45.15274" lon="5.25655">
        <ele>355.5</ele>
        <time>2010-10-17T09:46:08Z</time>
      </trkpt>
      <trkpt lat="45.1527" lon="5.25657">
        <ele>355.5</ele>
        <time>2010-10-17T09:46:09Z</time>
      </trkpt>
      <trkpt lat="45.15266" lon="5.2566">
        <ele>355.4</ele>
        <time>2010-10-17T09:46:10Z</time>
      </trkpt>
      <trkpt lat="45.15261" lon="5.25663">
        <ele>355.6</ele>
        <time>2010-10-17T09:46:11Z</time>
      </trkpt>
      <trkpt lat="45.15256" lon="5.25665">
        <ele>355.6</ele>
        <time>2010-10-17T09:46:12Z</time>
      </trkpt>
      <trkpt lat="45.15252" lon="5.25667">
        <ele>355.5</ele>
        <time>2010-10-17T09:46:13Z</time>
      </trkpt>
      <trkpt lat="45.15245" lon="5.2567">
        <ele>355</ele>
        <time>2010-10-17T09:46:14Z</time>
      </trkpt>
      <trkpt lat="45.1524" lon="5.25672">
        <ele>354.6</ele>
        <time>2010-10-17T09:46:14Z</time>
      </trkpt>
      <trkpt lat="45.15235" lon="5.25674">
        <ele>354.4</ele>
        <time>2010-10-17T09:46:15Z</time>
      </trkpt>
      <trkpt lat="45.1523" lon="5.25676">
        <ele>354.3</ele>
        <time>2010-10-17T09:46:17Z</time>
      </trkpt>
      <trkpt lat="45.15226" lon="5.25678">
        <ele>354</ele>
        <time>2010-10-17T09:46:18Z</time>
      </trkpt>
      <trkpt lat="45.15222" lon="5.25681">
        <ele>353.5</ele>
        <time>2010-10-17T09:46:19Z</time>
      </trkpt>
      <trkpt lat="45.15219" lon="5.25683">
        <ele>353.3</ele>
        <time>2010-10-17T09:46:20Z</time>
      </trkpt>
      <trkpt lat="45.15215" lon="5.25685">
        <ele>353.2</ele>
        <time>2010-10-17T09:46:21Z</time>
      </trkpt>
      <trkpt lat="45.15212" lon="5.25686">
        <ele>352.9</ele>
        <time>2010-10-17T09:46:22Z</time>
      </trkpt>
      <trkpt lat="45.1521" lon="5.25687">
        <ele>352.6</ele>
        <time>2010-10-17T09:46:23Z</time>
      </trkpt>
      <trkpt lat="45.15206" lon="5.25686">
        <ele>352.1</ele>
        <time>2010-10-17T09:46:24Z</time>
      </trkpt>
      <trkpt lat="45.15202" lon="5.25688">
        <ele>351.2</ele>
        <time>2010-10-17T09:46:25Z</time>
      </trkpt>
      <trkpt lat="45.15197" lon="5.25689">
        <ele>350.5</ele>
        <time>2010-10-17T09:46:26Z</time>
      </trkpt>
      <trkpt lat="45.15195" lon="5.25689">
        <ele>350.1</ele>
        <time>2010-10-17T09:46:27Z</time>
      </trkpt>
      <trkpt lat="45.15191" lon="5.2569">
        <ele>350</ele>
        <time>2010-10-17T09:46:28Z</time>
      </trkpt>
      <trkpt lat="45.15188" lon="5.2569">
        <ele>349.4</ele>
        <time>2010-10-17T09:46:29Z</time>
      </trkpt>
      <trkpt lat="45.15184" lon="5.25692">
        <ele>349.4</ele>
        <time>2010-10-17T09:46:30Z</time>
      </trkpt>
      <trkpt lat="45.15181" lon="5.25692">
        <ele>349.2</ele>
        <time>2010-10-17T09:46:31Z</time>
      </trkpt>
      <trkpt lat="45.15179" lon="5.25694">
        <ele>349.1</ele>
        <time>2010-10-17T09:46:32Z</time>
      </trkpt>
      <trkpt lat="45.15176" lon="5.25695">
        <ele>348.9</ele>
        <time>2010-10-17T09:46:33Z</time>
      </trkpt>
      <trkpt lat="45.15174" lon="5.25696">
        <ele>348.8</ele>
        <time>2010-10-17T09:46:34Z</time>
      </trkpt>
      <trkpt lat="45.15169" lon="5.25699">
        <ele>348.4</ele>
        <time>2010-10-17T09:46:34Z</time>
      </trkpt>
      <trkpt lat="45.15166" lon="5.25702">
        <ele>348.6</ele>
        <time>2010-10-17T09:46:36Z</time>
      </trkpt>
      <trkpt lat="45.15162" lon="5.25704">
        <ele>348.8</ele>
        <time>2010-10-17T09:46:37Z</time>
      </trkpt>
      <trkpt lat="45.15158" lon="5.25707">
        <ele>348.5</ele>
        <time>2010-10-17T09:46:38Z</time>
      </trkpt>
      <trkpt lat="45.15155" lon="5.25708">
        <ele>348.7</ele>
        <time>2010-10-17T09:46:39Z</time>
      </trkpt>
      <trkpt lat="45.15151" lon="5.2571">
        <ele>349</ele>
        <time>2010-10-17T09:46:40Z</time>
      </trkpt>
      <trkpt lat="45.15149" lon="5.25713">
        <ele>349.2</ele>
        <time>2010-10-17T09:46:41Z</time>
      </trkpt>
      <trkpt lat="45.15147" lon="5.25714">
        <ele>349.2</ele>
        <time>2010-10-17T09:46:42Z</time>
      </trkpt>
      <trkpt lat="45.15145" lon="5.25715">
        <ele>349.1</ele>
        <time>2010-10-17T09:46:43Z</time>
      </trkpt>
      <trkpt lat="45.15142" lon="5.25719">
        <ele>349.2</ele>
        <time>2010-10-17T09:46:44Z</time>
      </trkpt>
      <trkpt lat="45.15139" lon="5.25722">
        <ele>349.2</ele>
        <time>2010-10-17T09:46:45Z</time>
      </trkpt>
      <trkpt lat="45.15138" lon="5.25725">
        <ele>349.1</ele>
        <time>2010-10-17T09:46:46Z</time>
      </trkpt>
      <trkpt lat="45.15135" lon="5.25728">
        <ele>349.5</ele>
        <time>2010-10-17T09:46:47Z</time>
      </trkpt>
      <trkpt lat="45.15131" lon="5.2573">
        <ele>349.3</ele>
        <time>2010-10-17T09:46:48Z</time>
      </trkpt>
      <trkpt lat="45.15129" lon="5.25733">
        <ele>349.3</ele>
        <time>2010-10-17T09:46:49Z</time>
      </trkpt>
      <trkpt lat="45.15128" lon="5.25735">
        <ele>349.5</ele>
        <time>2010-10-17T09:46:50Z</time>
      </trkpt>
      <trkpt lat="45.15124" lon="5.2574">
        <ele>348.7</ele>
        <time>2010-10-17T09:46:51Z</time>
      </trkpt>
      <trkpt lat="45.15121" lon="5.25744">
        <ele>348.5</ele>
        <time>2010-10-17T09:46:52Z</time>
      </trkpt>
      <trkpt lat="45.15118" lon="5.25747">
        <ele>348.3</ele>
        <time>2010-10-17T09:46:53Z</time>
      </trkpt>
      <trkpt lat="45.1511" lon="5.25751">
        <ele>348.6</ele>
        <time>2010-10-17T09:46:54Z</time>
      </trkpt>
      <trkpt lat="45.15108" lon="5.25755">
        <ele>348.9</ele>
        <time>2010-10-17T09:46:54Z</time>
      </trkpt>
      <trkpt lat="45.15105" lon="5.25758">
        <ele>349.6</ele>
        <time>2010-10-17T09:46:56Z</time>
      </trkpt>
      <trkpt lat="45.15102" lon="5.25761">
        <ele>349.8</ele>
        <time>2010-10-17T09:46:57Z</time>
      </trkpt>
      <trkpt lat="45.15098" lon="5.25765">
        <ele>350.1</ele>
        <time>2010-10-17T09:46:58Z</time>
      </trkpt>
      <trkpt lat="45.15095" lon="5.25771">
        <ele>350.2</ele>
        <time>2010-10-17T09:46:59Z</time>
      </trkpt>
      <trkpt lat="45.15092" lon="5.25774">
        <ele>350.4</ele>
        <time>2010-10-17T09:47:00Z</time>
      </trkpt>
      <trkpt lat="45.15089" lon="5.25778">
        <ele>350.9</ele>
        <time>2010-10-17T09:47:01Z</time>
      </trkpt>
      <trkpt lat="45.15088" lon="5.2578">
        <ele>350.9</ele>
        <time>2010-10-17T09:47:02Z</time>
      </trkpt>
      <trkpt lat="45.15085" lon="5.25785">
        <ele>351.2</ele>
        <time>2010-10-17T09:47:03Z</time>
      </trkpt>
      <trkpt lat="45.15083" lon="5.25786">
        <ele>351</ele>
        <time>2010-10-17T09:47:04Z</time>
      </trkpt>
      <trkpt lat="45.1508" lon="5.25789">
        <ele>351.2</ele>
        <time>2010-10-17T09:47:05Z</time>
      </trkpt>
      <trkpt lat="45.15077" lon="5.25791">
        <ele>351.1</ele>
        <time>2010-10-17T09:47:06Z</time>
      </trkpt>
      <trkpt lat="45.15074" lon="5.25792">
        <ele>350.9</ele>
        <time>2010-10-17T09:47:07Z</time>
      </trkpt>
      <trkpt lat="45.15072" lon="5.25793">
        <ele>350</ele>
        <time>2010-10-17T09:47:08Z</time>
      </trkpt>
      <trkpt lat="45.15067" lon="5.25796">
        <ele>350.4</ele>
        <time>2010-10-17T09:47:09Z</time>
      </trkpt>
      <trkpt lat="45.15062" lon="5.258">
        <ele>350.4</ele>
        <time>2010-10-17T09:47:10Z</time>
      </trkpt>
      <trkpt lat="45.1506" lon="5.25802">
        <ele>350.4</ele>
        <time>2010-10-17T09:47:11Z</time>
      </trkpt>
      <trkpt lat="45.15056" lon="5.25806">
        <ele>351</ele>
        <time>2010-10-17T09:47:12Z</time>
      </trkpt>
      <trkpt lat="45.15054" lon="5.25808">
        <ele>350.9</ele>
        <time>2010-10-17T09:47:13Z</time>
      </trkpt>
      <trkpt lat="45.15051" lon="5.2581">
        <ele>350.7</ele>
        <time>2010-10-17T09:47:14Z</time>
      </trkpt>
      <trkpt lat="45.15048" lon="5.25812">
        <ele>350.8</ele>
        <time>2010-10-17T09:47:14Z</time>
      </trkpt>
      <trkpt lat="45.15041" lon="5.25817">
        <ele>351</ele>
        <time>2010-10-17T09:47:16Z</time>
      </trkpt>
      <trkpt lat="45.15037" lon="5.25819">
        <ele>351.4</ele>
        <time>2010-10-17T09:47:17Z</time>
      </trkpt>
      <trkpt lat="45.15032" lon="5.25822">
        <ele>351</ele>
        <time>2010-10-17T09:47:18Z</time>
      </trkpt>
      <trkpt lat="45.15023" lon="5.25825">
        <ele>351.1</ele>
        <time>2010-10-17T09:47:19Z</time>
      </trkpt>
      <trkpt lat="45.15017" lon="5.25824">
        <ele>350.9</ele>
        <time>2010-10-17T09:47:20Z</time>
      </trkpt>
      <trkpt lat="45.1501" lon="5.25821">
        <ele>351.3</ele>
        <time>2010-10-17T09:47:21Z</time>
      </trkpt>
      <trkpt lat="45.15003" lon="5.25819">
        <ele>351.9</ele>
        <time>2010-10-17T09:47:22Z</time>
      </trkpt>
      <trkpt lat="45.14997" lon="5.25816">
        <ele>351.9</ele>
        <time>2010-10-17T09:47:23Z</time>
      </trkpt>
      <trkpt lat="45.14992" lon="5.25812">
        <ele>351.7</ele>
        <time>2010-10-17T09:47:24Z</time>
      </trkpt>
      <trkpt lat="45.14986" lon="5.25808">
        <ele>352.4</ele>
        <time>2010-10-17T09:47:25Z</time>
      </trkpt>
      <trkpt lat="45.14977" lon="5.25806">
        <ele>351.8</ele>
        <time>2010-10-17T09:47:26Z</time>
      </trkpt>
      <trkpt lat="45.14969" lon="5.25804">
        <ele>351.4</ele>
        <time>2010-10-17T09:47:27Z</time>
      </trkpt>
      <trkpt lat="45.14963" lon="5.258">
        <ele>351.8</ele>
        <time>2010-10-17T09:47:28Z</time>
      </trkpt>
      <trkpt lat="45.14956" lon="5.25797">
        <ele>351.5</ele>
        <time>2010-10-17T09:47:29Z</time>
      </trkpt>
      <trkpt lat="45.14949" lon="5.25796">
        <ele>351.5</ele>
        <time>2010-10-17T09:47:30Z</time>
      </trkpt>
      <trkpt lat="45.14944" lon="5.25792">
        <ele>351.1</ele>
        <time>2010-10-17T09:47:31Z</time>
      </trkpt>
      <trkpt lat="45.14941" lon="5.25788">
        <ele>351.2</ele>
        <time>2010-10-17T09:47:32Z</time>
      </trkpt>
      <trkpt lat="45.14938" lon="5.25784">
        <ele>351.5</ele>
        <time>2010-10-17T09:47:33Z</time>
      </trkpt>
      <trkpt lat="45.14933" lon="5.25782">
        <ele>351.7</ele>
        <time>2010-10-17T09:47:34Z</time>
      </trkpt>
      <trkpt lat="45.14928" lon="5.2578">
        <ele>352.1</ele>
        <time>2010-10-17T09:47:34Z</time>
      </trkpt>
      <trkpt lat="45.14921" lon="5.2578">
        <ele>353</ele>
        <time>2010-10-17T09:47:36Z</time>
      </trkpt>
      <trkpt lat="45.14913" lon="5.2578">
        <ele>352.4</ele>
        <time>2010-10-17T09:47:37Z</time>
      </trkpt>
      <trkpt lat="45.14907" lon="5.25777">
        <ele>351.4</ele>
        <time>2010-10-17T09:47:38Z</time>
      </trkpt>
      <trkpt lat="45.149" lon="5.25779">
        <ele>351</ele>
        <time>2010-10-17T09:47:39Z</time>
      </trkpt>
      <trkpt lat="45.14894" lon="5.25779">
        <ele>350.8</ele>
        <time>2010-10-17T09:47:40Z</time>
      </trkpt>
      <trkpt lat="45.14888" lon="5.25781">
        <ele>350.9</ele>
        <time>2010-10-17T09:47:41Z</time>
      </trkpt>
      <trkpt lat="45.14881" lon="5.25784">
        <ele>350.8</ele>
        <time>2010-10-17T09:47:42Z</time>
      </trkpt>
      <trkpt lat="45.14873" lon="5.25789">
        <ele>350.6</ele>
        <time>2010-10-17T09:47:43Z</time>
      </trkpt>
      <trkpt lat="45.14869" lon="5.25794">
        <ele>350.4</ele>
        <time>2010-10-17T09:47:44Z</time>
      </trkpt>
      <trkpt lat="45.14862" lon="5.25799">
        <ele>350.3</ele>
        <time>2010-10-17T09:47:45Z</time>
      </trkpt>
      <trkpt lat="45.14857" lon="5.25804">
        <ele>349.9</ele>
        <time>2010-10-17T09:47:46Z</time>
      </trkpt>
      <trkpt lat="45.14851" lon="5.2581">
        <ele>349.1</ele>
        <time>2010-10-17T09:47:47Z</time>
      </trkpt>
      <trkpt lat="45.14846" lon="5.25818">
        <ele>347.7</ele>
        <time>2010-10-17T09:47:48Z</time>
      </trkpt>
      <trkpt lat="45.14842" lon="5.25826">
        <ele>347.1</ele>
        <time>2010-10-17T09:47:49Z</time>
      </trkpt>
      <trkpt lat="45.14839" lon="5.25833">
        <ele>346.7</ele>
        <time>2010-10-17T09:47:50Z</time>
      </trkpt>
      <trkpt lat="45.14836" lon="5.25841">
        <ele>346.3</ele>
        <time>2010-10-17T09:47:51Z</time>
      </trkpt>
      <trkpt lat="45.14833" lon="5.25846">
        <ele>346</ele>
        <time>2010-10-17T09:47:52Z</time>
      </trkpt>
      <trkpt lat="45.14829" lon="5.25852">
        <ele>345.6</ele>
        <time>2010-10-17T09:47:53Z</time>
      </trkpt>
      <trkpt lat="45.14826" lon="5.25857">
        <ele>345.4</ele>
        <time>2010-10-17T09:47:53Z</time>
      </trkpt>
      <trkpt lat="45.1482" lon="5.25864">
        <ele>345.1</ele>
        <time>2010-10-17T09:47:54Z</time>
      </trkpt>
      <trkpt lat="45.14815" lon="5.2587">
        <ele>344.6</ele>
        <time>2010-10-17T09:47:56Z</time>
      </trkpt>
      <trkpt lat="45.1481" lon="5.25875">
        <ele>344.6</ele>
        <time>2010-10-17T09:47:57Z</time>
      </trkpt>
      <trkpt lat="45.14806" lon="5.25879">
        <ele>344.6</ele>
        <time>2010-10-17T09:47:58Z</time>
      </trkpt>
      <trkpt lat="45.14773" lon="5.25889">
        <ele>344.2</ele>
        <time>2010-10-17T09:48:03Z</time>
      </trkpt>
      <trkpt lat="45.14766" lon="5.25891">
        <ele>343.6</ele>
        <time>2010-10-17T09:48:04Z</time>
      </trkpt>
      <trkpt lat="45.14759" lon="5.25895">
        <ele>343.4</ele>
        <time>2010-10-17T09:48:05Z</time>
      </trkpt>
      <trkpt lat="45.14751" lon="5.25895">
        <ele>342.9</ele>
        <time>2010-10-17T09:48:06Z</time>
      </trkpt>
      <trkpt lat="45.14743" lon="5.25895">
        <ele>342.9</ele>
        <time>2010-10-17T09:48:07Z</time>
      </trkpt>
      <trkpt lat="45.14737" lon="5.25893">
        <ele>342.6</ele>
        <time>2010-10-17T09:48:08Z</time>
      </trkpt>
      <trkpt lat="45.14728" lon="5.25894">
        <ele>342</ele>
        <time>2010-10-17T09:48:09Z</time>
      </trkpt>
      <trkpt lat="45.14719" lon="5.25895">
        <ele>341.4</ele>
        <time>2010-10-17T09:48:10Z</time>
      </trkpt>
      <trkpt lat="45.14714" lon="5.25894">
        <ele>341.1</ele>
        <time>2010-10-17T09:48:11Z</time>
      </trkpt>
      <trkpt lat="45.14708" lon="5.25893">
        <ele>340.4</ele>
        <time>2010-10-17T09:48:12Z</time>
      </trkpt>
      <trkpt lat="45.147" lon="5.25892">
        <ele>340.2</ele>
        <time>2010-10-17T09:48:13Z</time>
      </trkpt>
      <trkpt lat="45.14689" lon="5.25893">
        <ele>339.8</ele>
        <time>2010-10-17T09:48:13Z</time>
      </trkpt>
      <trkpt lat="45.14675" lon="5.25894">
        <ele>339.1</ele>
        <time>2010-10-17T09:48:14Z</time>
      </trkpt>
      <trkpt lat="45.14666" lon="5.25894">
        <ele>339.2</ele>
        <time>2010-10-17T09:48:16Z</time>
      </trkpt>
      <trkpt lat="45.14653" lon="5.25896">
        <ele>339.3</ele>
        <time>2010-10-17T09:48:17Z</time>
      </trkpt>
      <trkpt lat="45.14643" lon="5.259">
        <ele>338.7</ele>
        <time>2010-10-17T09:48:18Z</time>
      </trkpt>
      <trkpt lat="45.14632" lon="5.25906">
        <ele>338.2</ele>
        <time>2010-10-17T09:48:19Z</time>
      </trkpt>
      <trkpt lat="45.14627" lon="5.25912">
        <ele>337.6</ele>
        <time>2010-10-17T09:48:20Z</time>
      </trkpt>
      <trkpt lat="45.14622" lon="5.2592">
        <ele>337.4</ele>
        <time>2010-10-17T09:48:21Z</time>
      </trkpt>
      <trkpt lat="45.14616" lon="5.25929">
        <ele>336.5</ele>
        <time>2010-10-17T09:48:22Z</time>
      </trkpt>
      <trkpt lat="45.14609" lon="5.2594">
        <ele>335.7</ele>
        <time>2010-10-17T09:48:23Z</time>
      </trkpt>
      <trkpt lat="45.14604" lon="5.2595">
        <ele>335.8</ele>
        <time>2010-10-17T09:48:24Z</time>
      </trkpt>
      <trkpt lat="45.146" lon="5.25958">
        <ele>335.4</ele>
        <time>2010-10-17T09:48:25Z</time>
      </trkpt>
      <trkpt lat="45.14598" lon="5.25967">
        <ele>335.3</ele>
        <time>2010-10-17T09:48:26Z</time>
      </trkpt>
      <trkpt lat="45.14594" lon="5.25977">
        <ele>334.8</ele>
        <time>2010-10-17T09:48:27Z</time>
      </trkpt>
      <trkpt lat="45.14589" lon="5.25985">
        <ele>334.8</ele>
        <time>2010-10-17T09:48:28Z</time>
      </trkpt>
      <trkpt lat="45.14585" lon="5.25991">
        <ele>334.8</ele>
        <time>2010-10-17T09:48:29Z</time>
      </trkpt>
      <trkpt lat="45.14583" lon="5.25996">
        <ele>334.3</ele>
        <time>2010-10-17T09:48:30Z</time>
      </trkpt>
      <trkpt lat="45.14578" lon="5.26">
        <ele>333.7</ele>
        <time>2010-10-17T09:48:31Z</time>
      </trkpt>
      <trkpt lat="45.14574" lon="5.26003">
        <ele>333.6</ele>
        <time>2010-10-17T09:48:32Z</time>
      </trkpt>
      <trkpt lat="45.14567" lon="5.26009">
        <ele>333.3</ele>
        <time>2010-10-17T09:48:33Z</time>
      </trkpt>
      <trkpt lat="45.14562" lon="5.26014">
        <ele>332</ele>
        <time>2010-10-17T09:48:33Z</time>
      </trkpt>
      <trkpt lat="45.14554" lon="5.26021">
        <ele>331.3</ele>
        <time>2010-10-17T09:48:34Z</time>
      </trkpt>
      <trkpt lat="45.14551" lon="5.26027">
        <ele>330.3</ele>
        <time>2010-10-17T09:48:36Z</time>
      </trkpt>
      <trkpt lat="45.14543" lon="5.26037">
        <ele>330.1</ele>
        <time>2010-10-17T09:48:37Z</time>
      </trkpt>
      <trkpt lat="45.14536" lon="5.26045">
        <ele>329</ele>
        <time>2010-10-17T09:48:38Z</time>
      </trkpt>
      <trkpt lat="45.14533" lon="5.26052">
        <ele>327.8</ele>
        <time>2010-10-17T09:48:39Z</time>
      </trkpt>
      <trkpt lat="45.1453" lon="5.26044">
        <ele>327.3</ele>
        <time>2010-10-17T09:48:40Z</time>
      </trkpt>
      <trkpt lat="45.14527" lon="5.26033">
        <ele>326.5</ele>
        <time>2010-10-17T09:48:41Z</time>
      </trkpt>
      <trkpt lat="45.14522" lon="5.26033">
        <ele>326.3</ele>
        <time>2010-10-17T09:48:42Z</time>
      </trkpt>
      <trkpt lat="45.14516" lon="5.26032">
        <ele>325.8</ele>
        <time>2010-10-17T09:48:43Z</time>
      </trkpt>
      <trkpt lat="45.14509" lon="5.26033">
        <ele>325.7</ele>
        <time>2010-10-17T09:48:44Z</time>
      </trkpt>
      <trkpt lat="45.14505" lon="5.26029">
        <ele>325.9</ele>
        <time>2010-10-17T09:48:45Z</time>
      </trkpt>
      <trkpt lat="45.14499" lon="5.2603">
        <ele>325.5</ele>
        <time>2010-10-17T09:48:46Z</time>
      </trkpt>
      <trkpt lat="45.14495" lon="5.26024">
        <ele>325.5</ele>
        <time>2010-10-17T09:48:47Z</time>
      </trkpt>
      <trkpt lat="45.14491" lon="5.2602">
        <ele>325.8</ele>
        <time>2010-10-17T09:48:48Z</time>
      </trkpt>
      <trkpt lat="45.14486" lon="5.26018">
        <ele>325.6</ele>
        <time>2010-10-17T09:48:49Z</time>
      </trkpt>
      <trkpt lat="45.14485" lon="5.26014">
        <ele>325</ele>
        <time>2010-10-17T09:48:50Z</time>
      </trkpt>
      <trkpt lat="45.14483" lon="5.26013">
        <ele>325</ele>
        <time>2010-10-17T09:48:51Z</time>
      </trkpt>
      <trkpt lat="45.14477" lon="5.26007">
        <ele>326.8</ele>
        <time>2010-10-17T09:48:52Z</time>
      </trkpt>
      <trkpt lat="45.14475" lon="5.26005">
        <ele>326.8</ele>
        <time>2010-10-17T09:48:53Z</time>
      </trkpt>
      <trkpt lat="45.14471" lon="5.26005">
        <ele>327.1</ele>
        <time>2010-10-17T09:48:53Z</time>
      </trkpt>
      <trkpt lat="45.14467" lon="5.26006">
        <ele>327.4</ele>
        <time>2010-10-17T09:48:55Z</time>
      </trkpt>
      <trkpt lat="45.14464" lon="5.26005">
        <ele>327.8</ele>
        <time>2010-10-17T09:48:56Z</time>
      </trkpt>
      <trkpt lat="45.14462" lon="5.26004">
        <ele>328</ele>
        <time>2010-10-17T09:48:57Z</time>
      </trkpt>
      <trkpt lat="45.14458" lon="5.26004">
        <ele>328.3</ele>
        <time>2010-10-17T09:48:58Z</time>
      </trkpt>
      <trkpt lat="45.14455" lon="5.26007">
        <ele>328.3</ele>
        <time>2010-10-17T09:48:59Z</time>
      </trkpt>
      <trkpt lat="45.14454" lon="5.26006">
        <ele>328.4</ele>
        <time>2010-10-17T09:49:00Z</time>
      </trkpt>
      <trkpt lat="45.14452" lon="5.26008">
        <ele>328.3</ele>
        <time>2010-10-17T09:49:01Z</time>
      </trkpt>
      <trkpt lat="45.14447" lon="5.26011">
        <ele>328.5</ele>
        <time>2010-10-17T09:49:02Z</time>
      </trkpt>
      <trkpt lat="45.14444" lon="5.26012">
        <ele>329.3</ele>
        <time>2010-10-17T09:49:03Z</time>
      </trkpt>
      <trkpt lat="45.14441" lon="5.26012">
        <ele>329.8</ele>
        <time>2010-10-17T09:49:04Z</time>
      </trkpt>
      <trkpt lat="45.14437" lon="5.26017">
        <ele>329.7</ele>
        <time>2010-10-17T09:49:05Z</time>
      </trkpt>
      <trkpt lat="45.14434" lon="5.26017">
        <ele>329.7</ele>
        <time>2010-10-17T09:49:06Z</time>
      </trkpt>
      <trkpt lat="45.14431" lon="5.26021">
        <ele>329.7</ele>
        <time>2010-10-17T09:49:07Z</time>
      </trkpt>
      <trkpt lat="45.14428" lon="5.26024">
        <ele>328.6</ele>
        <time>2010-10-17T09:49:08Z</time>
      </trkpt>
      <trkpt lat="45.14423" lon="5.26028">
        <ele>328.7</ele>
        <time>2010-10-17T09:49:09Z</time>
      </trkpt>
      <trkpt lat="45.14417" lon="5.26032">
        <ele>328.1</ele>
        <time>2010-10-17T09:49:10Z</time>
      </trkpt>
      <trkpt lat="45.14415" lon="5.26034">
        <ele>327.7</ele>
        <time>2010-10-17T09:49:11Z</time>
      </trkpt>
      <trkpt lat="45.14412" lon="5.26037">
        <ele>327.9</ele>
        <time>2010-10-17T09:49:12Z</time>
      </trkpt>
      <trkpt lat="45.1441" lon="5.26039">
        <ele>327.5</ele>
        <time>2010-10-17T09:49:13Z</time>
      </trkpt>
      <trkpt lat="45.14411" lon="5.26039">
        <ele>327.6</ele>
        <time>2010-10-17T09:49:13Z</time>
      </trkpt>
      <trkpt lat="45.1441" lon="5.26041">
        <ele>327.4</ele>
        <time>2010-10-17T09:49:15Z</time>
      </trkpt>
      <trkpt lat="45.14411" lon="5.26043">
        <ele>327.8</ele>
        <time>2010-10-17T09:49:16Z</time>
      </trkpt>
      <trkpt lat="45.14409" lon="5.26044">
        <ele>327.9</ele>
        <time>2010-10-17T09:49:17Z</time>
      </trkpt>
      <trkpt lat="45.14403" lon="5.26048">
        <ele>328.3</ele>
        <time>2010-10-17T09:49:18Z</time>
      </trkpt>
      <trkpt lat="45.14403" lon="5.2605">
        <ele>328.2</ele>
        <time>2010-10-17T09:49:19Z</time>
      </trkpt>
      <trkpt lat="45.14401" lon="5.26055">
        <ele>328.4</ele>
        <time>2010-10-17T09:49:20Z</time>
      </trkpt>
      <trkpt lat="45.14401" lon="5.26058">
        <ele>328</ele>
        <time>2010-10-17T09:49:21Z</time>
      </trkpt>
      <trkpt lat="45.14399" lon="5.26061">
        <ele>328.1</ele>
        <time>2010-10-17T09:49:22Z</time>
      </trkpt>
      <trkpt lat="45.14392" lon="5.26068">
        <ele>327.9</ele>
        <time>2010-10-17T09:49:23Z</time>
      </trkpt>
      <trkpt lat="45.14385" lon="5.26074">
        <ele>327.2</ele>
        <time>2010-10-17T09:49:24Z</time>
      </trkpt>
      <trkpt lat="45.14379" lon="5.26079">
        <ele>326.6</ele>
        <time>2010-10-17T09:49:25Z</time>
      </trkpt>
      <trkpt lat="45.14373" lon="5.26085">
        <ele>325.5</ele>
        <time>2010-10-17T09:49:26Z</time>
      </trkpt>
      <trkpt lat="45.1437" lon="5.2609">
        <ele>324.4</ele>
        <time>2010-10-17T09:49:27Z</time>
      </trkpt>
      <trkpt lat="45.14367" lon="5.26094">
        <ele>325.1</ele>
        <time>2010-10-17T09:49:28Z</time>
      </trkpt>
      <trkpt lat="45.14365" lon="5.26099">
        <ele>324.7</ele>
        <time>2010-10-17T09:49:29Z</time>
      </trkpt>
      <trkpt lat="45.14361" lon="5.26104">
        <ele>324.6</ele>
        <time>2010-10-17T09:49:30Z</time>
      </trkpt>
      <trkpt lat="45.14358" lon="5.26108">
        <ele>325</ele>
        <time>2010-10-17T09:49:31Z</time>
      </trkpt>
      <trkpt lat="45.14355" lon="5.26112">
        <ele>324.9</ele>
        <time>2010-10-17T09:49:32Z</time>
      </trkpt>
      <trkpt lat="45.14349" lon="5.2612">
        <ele>324.8</ele>
        <time>2010-10-17T09:49:33Z</time>
      </trkpt>
      <trkpt lat="45.14342" lon="5.26126">
        <ele>325.1</ele>
        <time>2010-10-17T09:49:33Z</time>
      </trkpt>
      <trkpt lat="45.1434" lon="5.26134">
        <ele>325.7</ele>
        <time>2010-10-17T09:49:35Z</time>
      </trkpt>
      <trkpt lat="45.14338" lon="5.2614">
        <ele>325.3</ele>
        <time>2010-10-17T09:49:36Z</time>
      </trkpt>
      <trkpt lat="45.14334" lon="5.26148">
        <ele>324.7</ele>
        <time>2010-10-17T09:49:37Z</time>
      </trkpt>
      <trkpt lat="45.14332" lon="5.26154">
        <ele>325.1</ele>
        <time>2010-10-17T09:49:38Z</time>
      </trkpt>
      <trkpt lat="45.14329" lon="5.26163">
        <ele>325.5</ele>
        <time>2010-10-17T09:49:39Z</time>
      </trkpt>
      <trkpt lat="45.14326" lon="5.26172">
        <ele>324.8</ele>
        <time>2010-10-17T09:49:40Z</time>
      </trkpt>
      <trkpt lat="45.14321" lon="5.26181">
        <ele>324.6</ele>
        <time>2010-10-17T09:49:41Z</time>
      </trkpt>
      <trkpt lat="45.1432" lon="5.26187">
        <ele>324.4</ele>
        <time>2010-10-17T09:49:42Z</time>
      </trkpt>
      <trkpt lat="45.14315" lon="5.26198">
        <ele>324.6</ele>
        <time>2010-10-17T09:49:43Z</time>
      </trkpt>
      <trkpt lat="45.1431" lon="5.26207">
        <ele>324.2</ele>
        <time>2010-10-17T09:49:44Z</time>
      </trkpt>
      <trkpt lat="45.14306" lon="5.26214">
        <ele>323.8</ele>
        <time>2010-10-17T09:49:45Z</time>
      </trkpt>
      <trkpt lat="45.14301" lon="5.26224">
        <ele>323.3</ele>
        <time>2010-10-17T09:49:46Z</time>
      </trkpt>
      <trkpt lat="45.14297" lon="5.26231">
        <ele>323.6</ele>
        <time>2010-10-17T09:49:47Z</time>
      </trkpt>
      <trkpt lat="45.14288" lon="5.26235">
        <ele>324.1</ele>
        <time>2010-10-17T09:49:48Z</time>
      </trkpt>
      <trkpt lat="45.14286" lon="5.2624">
        <ele>324.2</ele>
        <time>2010-10-17T09:49:49Z</time>
      </trkpt>
      <trkpt lat="45.14281" lon="5.26243">
        <ele>324.2</ele>
        <time>2010-10-17T09:49:50Z</time>
      </trkpt>
      <trkpt lat="45.14274" lon="5.2625">
        <ele>325.1</ele>
        <time>2010-10-17T09:49:51Z</time>
      </trkpt>
      <trkpt lat="45.14268" lon="5.26253">
        <ele>325.1</ele>
        <time>2010-10-17T09:49:52Z</time>
      </trkpt>
      <trkpt lat="45.14265" lon="5.26255">
        <ele>325.4</ele>
        <time>2010-10-17T09:49:53Z</time>
      </trkpt>
      <trkpt lat="45.14261" lon="5.26257">
        <ele>325.7</ele>
        <time>2010-10-17T09:49:53Z</time>
      </trkpt>
      <trkpt lat="45.14256" lon="5.26262">
        <ele>326.3</ele>
        <time>2010-10-17T09:49:55Z</time>
      </trkpt>
      <trkpt lat="45.14248" lon="5.26264">
        <ele>326</ele>
        <time>2010-10-17T09:49:56Z</time>
      </trkpt>
      <trkpt lat="45.14243" lon="5.26265">
        <ele>326.2</ele>
        <time>2010-10-17T09:49:57Z</time>
      </trkpt>
      <trkpt lat="45.14238" lon="5.26267">
        <ele>325.2</ele>
        <time>2010-10-17T09:49:58Z</time>
      </trkpt>
      <trkpt lat="45.14228" lon="5.26268">
        <ele>325.3</ele>
        <time>2010-10-17T09:49:59Z</time>
      </trkpt>
      <trkpt lat="45.14224" lon="5.26266">
        <ele>325.1</ele>
        <time>2010-10-17T09:50:00Z</time>
      </trkpt>
      <trkpt lat="45.14217" lon="5.26265">
        <ele>325.1</ele>
        <time>2010-10-17T09:50:01Z</time>
      </trkpt>
      <trkpt lat="45.14209" lon="5.26266">
        <ele>324.6</ele>
        <time>2010-10-17T09:50:02Z</time>
      </trkpt>
      <trkpt lat="45.14202" lon="5.26264">
        <ele>324.5</ele>
        <time>2010-10-17T09:50:03Z</time>
      </trkpt>
      <trkpt lat="45.14198" lon="5.26263">
        <ele>322.9</ele>
        <time>2010-10-17T09:50:04Z</time>
      </trkpt>
      <trkpt lat="45.14194" lon="5.26264">
        <ele>323</ele>
        <time>2010-10-17T09:50:05Z</time>
      </trkpt>
      <trkpt lat="45.14192" lon="5.26264">
        <ele>323.3</ele>
        <time>2010-10-17T09:50:06Z</time>
      </trkpt>
      <trkpt lat="45.14188" lon="5.26265">
        <ele>323.6</ele>
        <time>2010-10-17T09:50:07Z</time>
      </trkpt>
      <trkpt lat="45.14183" lon="5.26266">
        <ele>324.5</ele>
        <time>2010-10-17T09:50:08Z</time>
      </trkpt>
      <trkpt lat="45.1418" lon="5.26266">
        <ele>325.2</ele>
        <time>2010-10-17T09:50:09Z</time>
      </trkpt>
      <trkpt lat="45.14174" lon="5.26269">
        <ele>325.4</ele>
        <time>2010-10-17T09:50:10Z</time>
      </trkpt>
      <trkpt lat="45.14168" lon="5.26274">
        <ele>325.6</ele>
        <time>2010-10-17T09:50:11Z</time>
      </trkpt>
      <trkpt lat="45.14161" lon="5.26278">
        <ele>326.1</ele>
        <time>2010-10-17T09:50:12Z</time>
      </trkpt>
      <trkpt lat="45.14156" lon="5.26284">
        <ele>326</ele>
        <time>2010-10-17T09:50:12Z</time>
      </trkpt>
      <trkpt lat="45.14151" lon="5.26288">
        <ele>326.7</ele>
        <time>2010-10-17T09:50:13Z</time>
      </trkpt>
      <trkpt lat="45.14142" lon="5.26295">
        <ele>327.2</ele>
        <time>2010-10-17T09:50:15Z</time>
      </trkpt>
      <trkpt lat="45.14137" lon="5.263">
        <ele>327.1</ele>
        <time>2010-10-17T09:50:16Z</time>
      </trkpt>
      <trkpt lat="45.1413" lon="5.26309">
        <ele>327.1</ele>
        <time>2010-10-17T09:50:17Z</time>
      </trkpt>
      <trkpt lat="45.14124" lon="5.26316">
        <ele>326.9</ele>
        <time>2010-10-17T09:50:18Z</time>
      </trkpt>
      <trkpt lat="45.14117" lon="5.26323">
        <ele>326.7</ele>
        <time>2010-10-17T09:50:19Z</time>
      </trkpt>
      <trkpt lat="45.14112" lon="5.26331">
        <ele>325.9</ele>
        <time>2010-10-17T09:50:20Z</time>
      </trkpt>
      <trkpt lat="45.14106" lon="5.26337">
        <ele>325.4</ele>
        <time>2010-10-17T09:50:21Z</time>
      </trkpt>
      <trkpt lat="45.141" lon="5.26342">
        <ele>324.2</ele>
        <time>2010-10-17T09:50:22Z</time>
      </trkpt>
      <trkpt lat="45.14094" lon="5.26348">
        <ele>324.3</ele>
        <time>2010-10-17T09:50:23Z</time>
      </trkpt>
      <trkpt lat="45.14086" lon="5.26354">
        <ele>324.1</ele>
        <time>2010-10-17T09:50:24Z</time>
      </trkpt>
      <trkpt lat="45.1408" lon="5.26359">
        <ele>324.3</ele>
        <time>2010-10-17T09:50:25Z</time>
      </trkpt>
      <trkpt lat="45.14072" lon="5.26366">
        <ele>323.8</ele>
        <time>2010-10-17T09:50:26Z</time>
      </trkpt>
      <trkpt lat="45.14064" lon="5.26373">
        <ele>324</ele>
        <time>2010-10-17T09:50:27Z</time>
      </trkpt>
      <trkpt lat="45.14058" lon="5.26379">
        <ele>323.8</ele>
        <time>2010-10-17T09:50:28Z</time>
      </trkpt>
      <trkpt lat="45.1405" lon="5.26386">
        <ele>323.9</ele>
        <time>2010-10-17T09:50:29Z</time>
      </trkpt>
      <trkpt lat="45.14044" lon="5.26393">
        <ele>324.1</ele>
        <time>2010-10-17T09:50:30Z</time>
      </trkpt>
      <trkpt lat="45.14037" lon="5.26401">
        <ele>324.1</ele>
        <time>2010-10-17T09:50:31Z</time>
      </trkpt>
      <trkpt lat="45.14031" lon="5.26407">
        <ele>324</ele>
        <time>2010-10-17T09:50:32Z</time>
      </trkpt>
      <trkpt lat="45.14025" lon="5.26415">
        <ele>324</ele>
        <time>2010-10-17T09:50:32Z</time>
      </trkpt>
      <trkpt lat="45.1402" lon="5.26421">
        <ele>323.4</ele>
        <time>2010-10-17T09:50:33Z</time>
      </trkpt>
      <trkpt lat="45.14016" lon="5.26426">
        <ele>322.4</ele>
        <time>2010-10-17T09:50:35Z</time>
      </trkpt>
      <trkpt lat="45.14011" lon="5.26434">
        <ele>322.2</ele>
        <time>2010-10-17T09:50:36Z</time>
      </trkpt>
      <trkpt lat="45.14006" lon="5.26442">
        <ele>321.3</ele>
        <time>2010-10-17T09:50:37Z</time>
      </trkpt>
      <trkpt lat="45.14002" lon="5.2645">
        <ele>320.6</ele>
        <time>2010-10-17T09:50:38Z</time>
      </trkpt>
      <trkpt lat="45.13999" lon="5.26457">
        <ele>319.8</ele>
        <time>2010-10-17T09:50:39Z</time>
      </trkpt>
      <trkpt lat="45.13996" lon="5.26465">
        <ele>319.6</ele>
        <time>2010-10-17T09:50:40Z</time>
      </trkpt>
      <trkpt lat="45.13992" lon="5.26473">
        <ele>319.1</ele>
        <time>2010-10-17T09:50:41Z</time>
      </trkpt>
      <trkpt lat="45.13988" lon="5.2648">
        <ele>318.7</ele>
        <time>2010-10-17T09:50:42Z</time>
      </trkpt>
      <trkpt lat="45.13986" lon="5.26486">
        <ele>317.5</ele>
        <time>2010-10-17T09:50:43Z</time>
      </trkpt>
      <trkpt lat="45.13982" lon="5.26491">
        <ele>317.4</ele>
        <time>2010-10-17T09:50:44Z</time>
      </trkpt>
      <trkpt lat="45.13977" lon="5.26498">
        <ele>317.1</ele>
        <time>2010-10-17T09:50:45Z</time>
      </trkpt>
      <trkpt lat="45.13974" lon="5.26504">
        <ele>317.4</ele>
        <time>2010-10-17T09:50:46Z</time>
      </trkpt>
      <trkpt lat="45.13971" lon="5.26511">
        <ele>317.4</ele>
        <time>2010-10-17T09:50:47Z</time>
      </trkpt>
      <trkpt lat="45.13967" lon="5.26516">
        <ele>317.3</ele>
        <time>2010-10-17T09:50:48Z</time>
      </trkpt>
      <trkpt lat="45.13964" lon="5.26521">
        <ele>317.3</ele>
        <time>2010-10-17T09:50:49Z</time>
      </trkpt>
      <trkpt lat="45.1396" lon="5.26523">
        <ele>317.3</ele>
        <time>2010-10-17T09:50:50Z</time>
      </trkpt>
      <trkpt lat="45.13957" lon="5.26526">
        <ele>317.1</ele>
        <time>2010-10-17T09:50:51Z</time>
      </trkpt>
      <trkpt lat="45.13954" lon="5.26528">
        <ele>317.1</ele>
        <time>2010-10-17T09:50:52Z</time>
      </trkpt>
      <trkpt lat="45.13951" lon="5.26535">
        <ele>317.1</ele>
        <time>2010-10-17T09:50:52Z</time>
      </trkpt>
      <trkpt lat="45.13948" lon="5.26544">
        <ele>316.7</ele>
        <time>2010-10-17T09:50:53Z</time>
      </trkpt>
      <trkpt lat="45.13943" lon="5.26554">
        <ele>316.6</ele>
        <time>2010-10-17T09:50:55Z</time>
      </trkpt>
      <trkpt lat="45.1394" lon="5.26567">
        <ele>316.2</ele>
        <time>2010-10-17T09:50:56Z</time>
      </trkpt>
      <trkpt lat="45.13936" lon="5.26579">
        <ele>315.9</ele>
        <time>2010-10-17T09:50:57Z</time>
      </trkpt>
      <trkpt lat="45.13934" lon="5.26587">
        <ele>315.7</ele>
        <time>2010-10-17T09:50:58Z</time>
      </trkpt>
      <trkpt lat="45.1393" lon="5.26598">
        <ele>315.3</ele>
        <time>2010-10-17T09:50:59Z</time>
      </trkpt>
      <trkpt lat="45.13926" lon="5.2661">
        <ele>314.9</ele>
        <time>2010-10-17T09:51:00Z</time>
      </trkpt>
      <trkpt lat="45.13923" lon="5.26621">
        <ele>314.7</ele>
        <time>2010-10-17T09:51:01Z</time>
      </trkpt>
      <trkpt lat="45.13919" lon="5.26631">
        <ele>314.5</ele>
        <time>2010-10-17T09:51:02Z</time>
      </trkpt>
      <trkpt lat="45.13915" lon="5.26637">
        <ele>314.4</ele>
        <time>2010-10-17T09:51:03Z</time>
      </trkpt>
      <trkpt lat="45.1391" lon="5.26644">
        <ele>314.4</ele>
        <time>2010-10-17T09:51:04Z</time>
      </trkpt>
      <trkpt lat="45.13907" lon="5.26657">
        <ele>315.1</ele>
        <time>2010-10-17T09:51:05Z</time>
      </trkpt>
      <trkpt lat="45.13904" lon="5.26668">
        <ele>315.5</ele>
        <time>2010-10-17T09:51:06Z</time>
      </trkpt>
      <trkpt lat="45.13898" lon="5.26677">
        <ele>315.4</ele>
        <time>2010-10-17T09:51:07Z</time>
      </trkpt>
      <trkpt lat="45.13894" lon="5.26687">
        <ele>315.3</ele>
        <time>2010-10-17T09:51:08Z</time>
      </trkpt>
      <trkpt lat="45.13889" lon="5.26696">
        <ele>315.2</ele>
        <time>2010-10-17T09:51:09Z</time>
      </trkpt>
      <trkpt lat="45.13884" lon="5.26705">
        <ele>315</ele>
        <time>2010-10-17T09:51:10Z</time>
      </trkpt>
      <trkpt lat="45.13878" lon="5.26715">
        <ele>314.9</ele>
        <time>2010-10-17T09:51:11Z</time>
      </trkpt>
      <trkpt lat="45.13874" lon="5.26723">
        <ele>314.6</ele>
        <time>2010-10-17T09:51:12Z</time>
      </trkpt>
      <trkpt lat="45.13869" lon="5.26731">
        <ele>314.4</ele>
        <time>2010-10-17T09:51:12Z</time>
      </trkpt>
      <trkpt lat="45.13865" lon="5.26736">
        <ele>314.5</ele>
        <time>2010-10-17T09:51:14Z</time>
      </trkpt>
      <trkpt lat="45.13861" lon="5.26742">
        <ele>314.7</ele>
        <time>2010-10-17T09:51:15Z</time>
      </trkpt>
      <trkpt lat="45.13856" lon="5.26746">
        <ele>314.4</ele>
        <time>2010-10-17T09:51:16Z</time>
      </trkpt>
      <trkpt lat="45.13849" lon="5.26753">
        <ele>315.4</ele>
        <time>2010-10-17T09:51:17Z</time>
      </trkpt>
      <trkpt lat="45.13841" lon="5.26757">
        <ele>315.6</ele>
        <time>2010-10-17T09:51:18Z</time>
      </trkpt>
      <trkpt lat="45.13836" lon="5.26761">
        <ele>316.2</ele>
        <time>2010-10-17T09:51:19Z</time>
      </trkpt>
      <trkpt lat="45.13832" lon="5.26766">
        <ele>316.4</ele>
        <time>2010-10-17T09:51:20Z</time>
      </trkpt>
      <trkpt lat="45.13825" lon="5.26771">
        <ele>316.4</ele>
        <time>2010-10-17T09:51:21Z</time>
      </trkpt>
      <trkpt lat="45.13819" lon="5.26776">
        <ele>315.7</ele>
        <time>2010-10-17T09:51:22Z</time>
      </trkpt>
      <trkpt lat="45.13814" lon="5.26779">
        <ele>314.8</ele>
        <time>2010-10-17T09:51:23Z</time>
      </trkpt>
      <trkpt lat="45.13808" lon="5.26785">
        <ele>314.4</ele>
        <time>2010-10-17T09:51:24Z</time>
      </trkpt>
      <trkpt lat="45.13803" lon="5.26791">
        <ele>314.3</ele>
        <time>2010-10-17T09:51:25Z</time>
      </trkpt>
      <trkpt lat="45.13797" lon="5.26797">
        <ele>314.2</ele>
        <time>2010-10-17T09:51:26Z</time>
      </trkpt>
      <trkpt lat="45.13793" lon="5.26802">
        <ele>314.1</ele>
        <time>2010-10-17T09:51:27Z</time>
      </trkpt>
      <trkpt lat="45.13789" lon="5.26808">
        <ele>313.8</ele>
        <time>2010-10-17T09:51:28Z</time>
      </trkpt>
      <trkpt lat="45.13781" lon="5.26815">
        <ele>313.3</ele>
        <time>2010-10-17T09:51:29Z</time>
      </trkpt>
      <trkpt lat="45.13777" lon="5.2682">
        <ele>312.7</ele>
        <time>2010-10-17T09:51:30Z</time>
      </trkpt>
      <trkpt lat="45.1377" lon="5.26825">
        <ele>312.6</ele>
        <time>2010-10-17T09:51:31Z</time>
      </trkpt>
      <trkpt lat="45.13763" lon="5.26831">
        <ele>312.4</ele>
        <time>2010-10-17T09:51:32Z</time>
      </trkpt>
      <trkpt lat="45.13755" lon="5.26838">
        <ele>311.1</ele>
        <time>2010-10-17T09:51:32Z</time>
      </trkpt>
      <trkpt lat="45.1375" lon="5.26844">
        <ele>311.5</ele>
        <time>2010-10-17T09:51:34Z</time>
      </trkpt>
      <trkpt lat="45.13745" lon="5.26849">
        <ele>311.5</ele>
        <time>2010-10-17T09:51:35Z</time>
      </trkpt>
      <trkpt lat="45.1374" lon="5.26855">
        <ele>311.5</ele>
        <time>2010-10-17T09:51:36Z</time>
      </trkpt>
      <trkpt lat="45.13735" lon="5.26859">
        <ele>311.3</ele>
        <time>2010-10-17T09:51:37Z</time>
      </trkpt>
      <trkpt lat="45.1373" lon="5.26863">
        <ele>310.9</ele>
        <time>2010-10-17T09:51:38Z</time>
      </trkpt>
      <trkpt lat="45.13724" lon="5.26869">
        <ele>310.9</ele>
        <time>2010-10-17T09:51:39Z</time>
      </trkpt>
      <trkpt lat="45.13721" lon="5.26872">
        <ele>310.8</ele>
        <time>2010-10-17T09:51:40Z</time>
      </trkpt>
      <trkpt lat="45.13717" lon="5.26877">
        <ele>310.2</ele>
        <time>2010-10-17T09:51:41Z</time>
      </trkpt>
      <trkpt lat="45.13712" lon="5.26882">
        <ele>309.7</ele>
        <time>2010-10-17T09:51:42Z</time>
      </trkpt>
      <trkpt lat="45.13706" lon="5.26888">
        <ele>309.9</ele>
        <time>2010-10-17T09:51:43Z</time>
      </trkpt>
      <trkpt lat="45.13702" lon="5.26894">
        <ele>309.3</ele>
        <time>2010-10-17T09:51:44Z</time>
      </trkpt>
      <trkpt lat="45.13699" lon="5.26897">
        <ele>309.3</ele>
        <time>2010-10-17T09:51:45Z</time>
      </trkpt>
      <trkpt lat="45.13696" lon="5.269">
        <ele>309</ele>
        <time>2010-10-17T09:51:46Z</time>
      </trkpt>
      <trkpt lat="45.13695" lon="5.26901">
        <ele>308.9</ele>
        <time>2010-10-17T09:51:47Z</time>
      </trkpt>
      <trkpt lat="45.13694" lon="5.26899">
        <ele>308.9</ele>
        <time>2010-10-17T09:51:48Z</time>
      </trkpt>
      <trkpt lat="45.13691" lon="5.269">
        <ele>307.6</ele>
        <time>2010-10-17T09:51:49Z</time>
      </trkpt>
      <trkpt lat="45.13689" lon="5.269">
        <ele>307.5</ele>
        <time>2010-10-17T09:51:50Z</time>
      </trkpt>
      <trkpt lat="45.13688" lon="5.26899">
        <ele>308.1</ele>
        <time>2010-10-17T09:51:51Z</time>
      </trkpt>
      <trkpt lat="45.13687" lon="5.26898">
        <ele>307.7</ele>
        <time>2010-10-17T09:51:52Z</time>
      </trkpt>
      <trkpt lat="45.13688" lon="5.26895">
        <ele>307.9</ele>
        <time>2010-10-17T09:51:52Z</time>
      </trkpt>
      <trkpt lat="45.13687" lon="5.26893">
        <ele>307.6</ele>
        <time>2010-10-17T09:51:54Z</time>
      </trkpt>
      <trkpt lat="45.13686" lon="5.26891">
        <ele>307.7</ele>
        <time>2010-10-17T09:51:55Z</time>
      </trkpt>
      <trkpt lat="45.13684" lon="5.26888">
        <ele>308</ele>
        <time>2010-10-17T09:51:56Z</time>
      </trkpt>
      <trkpt lat="45.13682" lon="5.26886">
        <ele>307.5</ele>
        <time>2010-10-17T09:51:57Z</time>
      </trkpt>
      <trkpt lat="45.13681" lon="5.26883">
        <ele>307.6</ele>
        <time>2010-10-17T09:51:58Z</time>
      </trkpt>
      <trkpt lat="45.1368" lon="5.2688">
        <ele>307.8</ele>
        <time>2010-10-17T09:51:59Z</time>
      </trkpt>
      <trkpt lat="45.13679" lon="5.26879">
        <ele>307.3</ele>
        <time>2010-10-17T09:52:00Z</time>
      </trkpt>
      <trkpt lat="45.1368" lon="5.26875">
        <ele>307.2</ele>
        <time>2010-10-17T09:52:01Z</time>
      </trkpt>
      <trkpt lat="45.13679" lon="5.26871">
        <ele>306.8</ele>
        <time>2010-10-17T09:52:02Z</time>
      </trkpt>
      <trkpt lat="45.13679" lon="5.26868">
        <ele>306.8</ele>
        <time>2010-10-17T09:52:03Z</time>
      </trkpt>
      <trkpt lat="45.13678" lon="5.26866">
        <ele>306.6</ele>
        <time>2010-10-17T09:52:04Z</time>
      </trkpt>
      <trkpt lat="45.13677" lon="5.26864">
        <ele>306.5</ele>
        <time>2010-10-17T09:52:05Z</time>
      </trkpt>
      <trkpt lat="45.13678" lon="5.2686">
        <ele>306.2</ele>
        <time>2010-10-17T09:52:06Z</time>
      </trkpt>
      <trkpt lat="45.13677" lon="5.26858">
        <ele>306.8</ele>
        <time>2010-10-17T09:52:07Z</time>
      </trkpt>
      <trkpt lat="45.13676" lon="5.26855">
        <ele>306.8</ele>
        <time>2010-10-17T09:52:08Z</time>
      </trkpt>
      <trkpt lat="45.13675" lon="5.26854">
        <ele>306.8</ele>
        <time>2010-10-17T09:52:09Z</time>
      </trkpt>
      <trkpt lat="45.13674" lon="5.26852">
        <ele>306.9</ele>
        <time>2010-10-17T09:52:10Z</time>
      </trkpt>
      <trkpt lat="45.13673" lon="5.26849">
        <ele>306.7</ele>
        <time>2010-10-17T09:52:11Z</time>
      </trkpt>
      <trkpt lat="45.13672" lon="5.26848">
        <ele>306.7</ele>
        <time>2010-10-17T09:52:11Z</time>
      </trkpt>
      <trkpt lat="45.13672" lon="5.26846">
        <ele>307.3</ele>
        <time>2010-10-17T09:52:14Z</time>
      </trkpt>
      <trkpt lat="45.13671" lon="5.26848">
        <ele>307.4</ele>
        <time>2010-10-17T09:52:15Z</time>
      </trkpt>
      <trkpt lat="45.13669" lon="5.26849">
        <ele>306.4</ele>
        <time>2010-10-17T09:52:17Z</time>
      </trkpt>
      <trkpt lat="45.13667" lon="5.26849">
        <ele>306.2</ele>
        <time>2010-10-17T09:52:18Z</time>
      </trkpt>
      <trkpt lat="45.13666" lon="5.26849">
        <ele>306.4</ele>
        <time>2010-10-17T09:52:19Z</time>
      </trkpt>
      <trkpt lat="45.13664" lon="5.26848">
        <ele>305.5</ele>
        <time>2010-10-17T09:52:20Z</time>
      </trkpt>
      <trkpt lat="45.1366" lon="5.26847">
        <ele>304.6</ele>
        <time>2010-10-17T09:52:21Z</time>
      </trkpt>
      <trkpt lat="45.13658" lon="5.26846">
        <ele>304.4</ele>
        <time>2010-10-17T09:52:22Z</time>
      </trkpt>
      <trkpt lat="45.13655" lon="5.26845">
        <ele>304</ele>
        <time>2010-10-17T09:52:23Z</time>
      </trkpt>
      <trkpt lat="45.13652" lon="5.26844">
        <ele>304.2</ele>
        <time>2010-10-17T09:52:24Z</time>
      </trkpt>
      <trkpt lat="45.13649" lon="5.26842">
        <ele>304.2</ele>
        <time>2010-10-17T09:52:25Z</time>
      </trkpt>
      <trkpt lat="45.13646" lon="5.2684">
        <ele>304.2</ele>
        <time>2010-10-17T09:52:26Z</time>
      </trkpt>
      <trkpt lat="45.13645" lon="5.26838">
        <ele>304.5</ele>
        <time>2010-10-17T09:52:27Z</time>
      </trkpt>
      <trkpt lat="45.13641" lon="5.26838">
        <ele>304.1</ele>
        <time>2010-10-17T09:52:28Z</time>
      </trkpt>
      <trkpt lat="45.13637" lon="5.26836">
        <ele>304.4</ele>
        <time>2010-10-17T09:52:29Z</time>
      </trkpt>
      <trkpt lat="45.13635" lon="5.26835">
        <ele>304.8</ele>
        <time>2010-10-17T09:52:30Z</time>
      </trkpt>
      <trkpt lat="45.13632" lon="5.26834">
        <ele>304.8</ele>
        <time>2010-10-17T09:52:31Z</time>
      </trkpt>
      <trkpt lat="45.1363" lon="5.26833">
        <ele>304.6</ele>
        <time>2010-10-17T09:52:31Z</time>
      </trkpt>
      <trkpt lat="45.13628" lon="5.26831">
        <ele>304.7</ele>
        <time>2010-10-17T09:52:32Z</time>
      </trkpt>
      <trkpt lat="45.13626" lon="5.26829">
        <ele>304.8</ele>
        <time>2010-10-17T09:52:34Z</time>
      </trkpt>
      <trkpt lat="45.13622" lon="5.26828">
        <ele>304.7</ele>
        <time>2010-10-17T09:52:35Z</time>
      </trkpt>
      <trkpt lat="45.13617" lon="5.26828">
        <ele>304.5</ele>
        <time>2010-10-17T09:52:36Z</time>
      </trkpt>
      <trkpt lat="45.13614" lon="5.26827">
        <ele>305.6</ele>
        <time>2010-10-17T09:52:37Z</time>
      </trkpt>
      <trkpt lat="45.13612" lon="5.26825">
        <ele>305.9</ele>
        <time>2010-10-17T09:52:38Z</time>
      </trkpt>
      <trkpt lat="45.13608" lon="5.26824">
        <ele>306</ele>
        <time>2010-10-17T09:52:39Z</time>
      </trkpt>
      <trkpt lat="45.13605" lon="5.26825">
        <ele>306.3</ele>
        <time>2010-10-17T09:52:40Z</time>
      </trkpt>
      <trkpt lat="45.13603" lon="5.26823">
        <ele>306.1</ele>
        <time>2010-10-17T09:52:41Z</time>
      </trkpt>
      <trkpt lat="45.13599" lon="5.26822">
        <ele>306.5</ele>
        <time>2010-10-17T09:52:42Z</time>
      </trkpt>
      <trkpt lat="45.13595" lon="5.2682">
        <ele>306.4</ele>
        <time>2010-10-17T09:52:43Z</time>
      </trkpt>
      <trkpt lat="45.13593" lon="5.26819">
        <ele>306.2</ele>
        <time>2010-10-17T09:52:44Z</time>
      </trkpt>
      <trkpt lat="45.1359" lon="5.26815">
        <ele>305.6</ele>
        <time>2010-10-17T09:52:45Z</time>
      </trkpt>
      <trkpt lat="45.13587" lon="5.26813">
        <ele>305.1</ele>
        <time>2010-10-17T09:52:46Z</time>
      </trkpt>
      <trkpt lat="45.13584" lon="5.2681">
        <ele>305.1</ele>
        <time>2010-10-17T09:52:47Z</time>
      </trkpt>
      <trkpt lat="45.13579" lon="5.26807">
        <ele>304.8</ele>
        <time>2010-10-17T09:52:48Z</time>
      </trkpt>
      <trkpt lat="45.13575" lon="5.26805">
        <ele>304.2</ele>
        <time>2010-10-17T09:52:49Z</time>
      </trkpt>
      <trkpt lat="45.13571" lon="5.26803">
        <ele>304.1</ele>
        <time>2010-10-17T09:52:50Z</time>
      </trkpt>
      <trkpt lat="45.13566" lon="5.26801">
        <ele>304.1</ele>
        <time>2010-10-17T09:52:51Z</time>
      </trkpt>
      <trkpt lat="45.13562" lon="5.26798">
        <ele>304</ele>
        <time>2010-10-17T09:52:51Z</time>
      </trkpt>
      <trkpt lat="45.13557" lon="5.26795">
        <ele>304.4</ele>
        <time>2010-10-17T09:52:52Z</time>
      </trkpt>
      <trkpt lat="45.13552" lon="5.26792">
        <ele>304.5</ele>
        <time>2010-10-17T09:52:54Z</time>
      </trkpt>
      <trkpt lat="45.1355" lon="5.26789">
        <ele>304.5</ele>
        <time>2010-10-17T09:52:55Z</time>
      </trkpt>
      <trkpt lat="45.13545" lon="5.26787">
        <ele>304.1</ele>
        <time>2010-10-17T09:52:56Z</time>
      </trkpt>
      <trkpt lat="45.13542" lon="5.26783">
        <ele>304.2</ele>
        <time>2010-10-17T09:52:57Z</time>
      </trkpt>
      <trkpt lat="45.13538" lon="5.2678">
        <ele>303.7</ele>
        <time>2010-10-17T09:52:58Z</time>
      </trkpt>
      <trkpt lat="45.13532" lon="5.26778">
        <ele>303.7</ele>
        <time>2010-10-17T09:52:59Z</time>
      </trkpt>
      <trkpt lat="45.13527" lon="5.26774">
        <ele>303.7</ele>
        <time>2010-10-17T09:53:00Z</time>
      </trkpt>
      <trkpt lat="45.13522" lon="5.26772">
        <ele>304.1</ele>
        <time>2010-10-17T09:53:01Z</time>
      </trkpt>
      <trkpt lat="45.13516" lon="5.26769">
        <ele>304.4</ele>
        <time>2010-10-17T09:53:02Z</time>
      </trkpt>
      <trkpt lat="45.13511" lon="5.26767">
        <ele>304.1</ele>
        <time>2010-10-17T09:53:03Z</time>
      </trkpt>
      <trkpt lat="45.13504" lon="5.26768">
        <ele>303.4</ele>
        <time>2010-10-17T09:53:04Z</time>
      </trkpt>
      <trkpt lat="45.13501" lon="5.26766">
        <ele>303</ele>
        <time>2010-10-17T09:53:05Z</time>
      </trkpt>
      <trkpt lat="45.13497" lon="5.26762">
        <ele>303.2</ele>
        <time>2010-10-17T09:53:06Z</time>
      </trkpt>
      <trkpt lat="45.13493" lon="5.26759">
        <ele>303.2</ele>
        <time>2010-10-17T09:53:07Z</time>
      </trkpt>
      <trkpt lat="45.13488" lon="5.26756">
        <ele>303</ele>
        <time>2010-10-17T09:53:08Z</time>
      </trkpt>
      <trkpt lat="45.13483" lon="5.26754">
        <ele>303.5</ele>
        <time>2010-10-17T09:53:09Z</time>
      </trkpt>
      <trkpt lat="45.13478" lon="5.26752">
        <ele>303.4</ele>
        <time>2010-10-17T09:53:10Z</time>
      </trkpt>
      <trkpt lat="45.13472" lon="5.26751">
        <ele>303.4</ele>
        <time>2010-10-17T09:53:11Z</time>
      </trkpt>
      <trkpt lat="45.13468" lon="5.26748">
        <ele>303.4</ele>
        <time>2010-10-17T09:53:11Z</time>
      </trkpt>
      <trkpt lat="45.13463" lon="5.26745">
        <ele>303.1</ele>
        <time>2010-10-17T09:53:12Z</time>
      </trkpt>
      <trkpt lat="45.13458" lon="5.26741">
        <ele>303.1</ele>
        <time>2010-10-17T09:53:14Z</time>
      </trkpt>
      <trkpt lat="45.13452" lon="5.26738">
        <ele>303.1</ele>
        <time>2010-10-17T09:53:15Z</time>
      </trkpt>
      <trkpt lat="45.13447" lon="5.26734">
        <ele>303.2</ele>
        <time>2010-10-17T09:53:16Z</time>
      </trkpt>
      <trkpt lat="45.13442" lon="5.2673">
        <ele>303.2</ele>
        <time>2010-10-17T09:53:17Z</time>
      </trkpt>
      <trkpt lat="45.13436" lon="5.26726">
        <ele>303.2</ele>
        <time>2010-10-17T09:53:18Z</time>
      </trkpt>
      <trkpt lat="45.1343" lon="5.26723">
        <ele>302.8</ele>
        <time>2010-10-17T09:53:19Z</time>
      </trkpt>
      <trkpt lat="45.13423" lon="5.26719">
        <ele>302.4</ele>
        <time>2010-10-17T09:53:20Z</time>
      </trkpt>
      <trkpt lat="45.13418" lon="5.26716">
        <ele>302.5</ele>
        <time>2010-10-17T09:53:21Z</time>
      </trkpt>
      <trkpt lat="45.13411" lon="5.26711">
        <ele>302.5</ele>
        <time>2010-10-17T09:53:22Z</time>
      </trkpt>
      <trkpt lat="45.13404" lon="5.26709">
        <ele>302.5</ele>
        <time>2010-10-17T09:53:23Z</time>
      </trkpt>
      <trkpt lat="45.13398" lon="5.26704">
        <ele>302.2</ele>
        <time>2010-10-17T09:53:24Z</time>
      </trkpt>
      <trkpt lat="45.13393" lon="5.26701">
        <ele>301.9</ele>
        <time>2010-10-17T09:53:25Z</time>
      </trkpt>
      <trkpt lat="45.13388" lon="5.26697">
        <ele>301.9</ele>
        <time>2010-10-17T09:53:26Z</time>
      </trkpt>
      <trkpt lat="45.13382" lon="5.26694">
        <ele>301.6</ele>
        <time>2010-10-17T09:53:27Z</time>
      </trkpt>
      <trkpt lat="45.13376" lon="5.2669">
        <ele>301.5</ele>
        <time>2010-10-17T09:53:28Z</time>
      </trkpt>
      <trkpt lat="45.1337" lon="5.26687">
        <ele>300.9</ele>
        <time>2010-10-17T09:53:29Z</time>
      </trkpt>
      <trkpt lat="45.1336" lon="5.26681">
        <ele>300.2</ele>
        <time>2010-10-17T09:53:30Z</time>
      </trkpt>
      <trkpt lat="45.13355" lon="5.26674">
        <ele>300.1</ele>
        <time>2010-10-17T09:53:31Z</time>
      </trkpt>
      <trkpt lat="45.13346" lon="5.26667">
        <ele>301.3</ele>
        <time>2010-10-17T09:53:31Z</time>
      </trkpt>
      <trkpt lat="45.13338" lon="5.26662">
        <ele>302</ele>
        <time>2010-10-17T09:53:33Z</time>
      </trkpt>
      <trkpt lat="45.13333" lon="5.26659">
        <ele>301.6</ele>
        <time>2010-10-17T09:53:34Z</time>
      </trkpt>
      <trkpt lat="45.13327" lon="5.26655">
        <ele>300.8</ele>
        <time>2010-10-17T09:53:35Z</time>
      </trkpt>
      <trkpt lat="45.13321" lon="5.26651">
        <ele>300.7</ele>
        <time>2010-10-17T09:53:36Z</time>
      </trkpt>
      <trkpt lat="45.13314" lon="5.26648">
        <ele>300.7</ele>
        <time>2010-10-17T09:53:37Z</time>
      </trkpt>
      <trkpt lat="45.13309" lon="5.26646">
        <ele>300.7</ele>
        <time>2010-10-17T09:53:38Z</time>
      </trkpt>
      <trkpt lat="45.13304" lon="5.26643">
        <ele>300.3</ele>
        <time>2010-10-17T09:53:39Z</time>
      </trkpt>
      <trkpt lat="45.13301" lon="5.26639">
        <ele>300.2</ele>
        <time>2010-10-17T09:53:40Z</time>
      </trkpt>
      <trkpt lat="45.13297" lon="5.26636">
        <ele>299.6</ele>
        <time>2010-10-17T09:53:41Z</time>
      </trkpt>
      <trkpt lat="45.1329" lon="5.26632">
        <ele>299.5</ele>
        <time>2010-10-17T09:53:42Z</time>
      </trkpt>
      <trkpt lat="45.13286" lon="5.26628">
        <ele>299</ele>
        <time>2010-10-17T09:53:43Z</time>
      </trkpt>
      <trkpt lat="45.13281" lon="5.26624">
        <ele>298.8</ele>
        <time>2010-10-17T09:53:44Z</time>
      </trkpt>
      <trkpt lat="45.13276" lon="5.26622">
        <ele>297.9</ele>
        <time>2010-10-17T09:53:45Z</time>
      </trkpt>
      <trkpt lat="45.13272" lon="5.2662">
        <ele>297.7</ele>
        <time>2010-10-17T09:53:46Z</time>
      </trkpt>
      <trkpt lat="45.13269" lon="5.26619">
        <ele>297.7</ele>
        <time>2010-10-17T09:53:47Z</time>
      </trkpt>
      <trkpt lat="45.13264" lon="5.26614">
        <ele>296.9</ele>
        <time>2010-10-17T09:53:48Z</time>
      </trkpt>
      <trkpt lat="45.13261" lon="5.2661">
        <ele>296.3</ele>
        <time>2010-10-17T09:53:49Z</time>
      </trkpt>
      <trkpt lat="45.13257" lon="5.26605">
        <ele>295.5</ele>
        <time>2010-10-17T09:53:50Z</time>
      </trkpt>
      <trkpt lat="45.13254" lon="5.26601">
        <ele>295.5</ele>
        <time>2010-10-17T09:53:51Z</time>
      </trkpt>
      <trkpt lat="45.1325" lon="5.26596">
        <ele>295.1</ele>
        <time>2010-10-17T09:53:51Z</time>
      </trkpt>
      <trkpt lat="45.13246" lon="5.26593">
        <ele>295.1</ele>
        <time>2010-10-17T09:53:53Z</time>
      </trkpt>
      <trkpt lat="45.13241" lon="5.26588">
        <ele>295.2</ele>
        <time>2010-10-17T09:53:54Z</time>
      </trkpt>
      <trkpt lat="45.13235" lon="5.26583">
        <ele>296.4</ele>
        <time>2010-10-17T09:53:55Z</time>
      </trkpt>
      <trkpt lat="45.13231" lon="5.26578">
        <ele>296.4</ele>
        <time>2010-10-17T09:53:56Z</time>
      </trkpt>
      <trkpt lat="45.13225" lon="5.26574">
        <ele>297</ele>
        <time>2010-10-17T09:53:57Z</time>
      </trkpt>
      <trkpt lat="45.1322" lon="5.26569">
        <ele>297</ele>
        <time>2010-10-17T09:53:58Z</time>
      </trkpt>
      <trkpt lat="45.13216" lon="5.26563">
        <ele>296.6</ele>
        <time>2010-10-17T09:53:59Z</time>
      </trkpt>
      <trkpt lat="45.13211" lon="5.26558">
        <ele>296.6</ele>
        <time>2010-10-17T09:54:00Z</time>
      </trkpt>
      <trkpt lat="45.13206" lon="5.26553">
        <ele>296.8</ele>
        <time>2010-10-17T09:54:01Z</time>
      </trkpt>
      <trkpt lat="45.13198" lon="5.26547">
        <ele>295.6</ele>
        <time>2010-10-17T09:54:02Z</time>
      </trkpt>
      <trkpt lat="45.13192" lon="5.26538">
        <ele>295.5</ele>
        <time>2010-10-17T09:54:03Z</time>
      </trkpt>
      <trkpt lat="45.13186" lon="5.26534">
        <ele>294.7</ele>
        <time>2010-10-17T09:54:04Z</time>
      </trkpt>
      <trkpt lat="45.1318" lon="5.26527">
        <ele>294.8</ele>
        <time>2010-10-17T09:54:05Z</time>
      </trkpt>
      <trkpt lat="45.13175" lon="5.26521">
        <ele>294.8</ele>
        <time>2010-10-17T09:54:06Z</time>
      </trkpt>
      <trkpt lat="45.13171" lon="5.26513">
        <ele>294.1</ele>
        <time>2010-10-17T09:54:07Z</time>
      </trkpt>
      <trkpt lat="45.13165" lon="5.26508">
        <ele>294.1</ele>
        <time>2010-10-17T09:54:08Z</time>
      </trkpt>
      <trkpt lat="45.13159" lon="5.26504">
        <ele>293.6</ele>
        <time>2010-10-17T09:54:09Z</time>
      </trkpt>
      <trkpt lat="45.13156" lon="5.26498">
        <ele>292.7</ele>
        <time>2010-10-17T09:54:10Z</time>
      </trkpt>
      <trkpt lat="45.13151" lon="5.26492">
        <ele>292.3</ele>
        <time>2010-10-17T09:54:11Z</time>
      </trkpt>
      <trkpt lat="45.13145" lon="5.26485">
        <ele>292.2</ele>
        <time>2010-10-17T09:54:11Z</time>
      </trkpt>
      <trkpt lat="45.1314" lon="5.26476">
        <ele>292.8</ele>
        <time>2010-10-17T09:54:13Z</time>
      </trkpt>
      <trkpt lat="45.13136" lon="5.26468">
        <ele>293</ele>
        <time>2010-10-17T09:54:14Z</time>
      </trkpt>
      <trkpt lat="45.13131" lon="5.2646">
        <ele>294.3</ele>
        <time>2010-10-17T09:54:15Z</time>
      </trkpt>
      <trkpt lat="45.13126" lon="5.26453">
        <ele>294.6</ele>
        <time>2010-10-17T09:54:16Z</time>
      </trkpt>
      <trkpt lat="45.1312" lon="5.26446">
        <ele>295.2</ele>
        <time>2010-10-17T09:54:17Z</time>
      </trkpt>
      <trkpt lat="45.13115" lon="5.26445">
        <ele>295.5</ele>
        <time>2010-10-17T09:54:18Z</time>
      </trkpt>
      <trkpt lat="45.13108" lon="5.26444">
        <ele>295.2</ele>
        <time>2010-10-17T09:54:19Z</time>
      </trkpt>
      <trkpt lat="45.13103" lon="5.26441">
        <ele>293.9</ele>
        <time>2010-10-17T09:54:20Z</time>
      </trkpt>
      <trkpt lat="45.13095" lon="5.26441">
        <ele>293.7</ele>
        <time>2010-10-17T09:54:21Z</time>
      </trkpt>
      <trkpt lat="45.13088" lon="5.2644">
        <ele>293.6</ele>
        <time>2010-10-17T09:54:22Z</time>
      </trkpt>
      <trkpt lat="45.13084" lon="5.26438">
        <ele>293.2</ele>
        <time>2010-10-17T09:54:23Z</time>
      </trkpt>
      <trkpt lat="45.13078" lon="5.26438">
        <ele>293.2</ele>
        <time>2010-10-17T09:54:24Z</time>
      </trkpt>
      <trkpt lat="45.13074" lon="5.26438">
        <ele>293</ele>
        <time>2010-10-17T09:54:25Z</time>
      </trkpt>
      <trkpt lat="45.1307" lon="5.26437">
        <ele>292.6</ele>
        <time>2010-10-17T09:54:26Z</time>
      </trkpt>
      <trkpt lat="45.13068" lon="5.26434">
        <ele>292.4</ele>
        <time>2010-10-17T09:54:27Z</time>
      </trkpt>
      <trkpt lat="45.13066" lon="5.26432">
        <ele>292.3</ele>
        <time>2010-10-17T09:54:28Z</time>
      </trkpt>
      <trkpt lat="45.13063" lon="5.26431">
        <ele>292.1</ele>
        <time>2010-10-17T09:54:29Z</time>
      </trkpt>
      <trkpt lat="45.1306" lon="5.26429">
        <ele>292</ele>
        <time>2010-10-17T09:54:30Z</time>
      </trkpt>
      <trkpt lat="45.13056" lon="5.26427">
        <ele>291.5</ele>
        <time>2010-10-17T09:54:30Z</time>
      </trkpt>
      <trkpt lat="45.13052" lon="5.26426">
        <ele>291.5</ele>
        <time>2010-10-17T09:54:31Z</time>
      </trkpt>
      <trkpt lat="45.13047" lon="5.26422">
        <ele>290.7</ele>
        <time>2010-10-17T09:54:33Z</time>
      </trkpt>
      <trkpt lat="45.13044" lon="5.2642">
        <ele>290.5</ele>
        <time>2010-10-17T09:54:34Z</time>
      </trkpt>
      <trkpt lat="45.13038" lon="5.26419">
        <ele>290.8</ele>
        <time>2010-10-17T09:54:35Z</time>
      </trkpt>
      <trkpt lat="45.13036" lon="5.26414">
        <ele>291.9</ele>
        <time>2010-10-17T09:54:36Z</time>
      </trkpt>
      <trkpt lat="45.13032" lon="5.26412">
        <ele>292.3</ele>
        <time>2010-10-17T09:54:37Z</time>
      </trkpt>
      <trkpt lat="45.13027" lon="5.2641">
        <ele>292.9</ele>
        <time>2010-10-17T09:54:38Z</time>
      </trkpt>
      <trkpt lat="45.13025" lon="5.26408">
        <ele>292.9</ele>
        <time>2010-10-17T09:54:39Z</time>
      </trkpt>
      <trkpt lat="45.13021" lon="5.26405">
        <ele>293.3</ele>
        <time>2010-10-17T09:54:40Z</time>
      </trkpt>
      <trkpt lat="45.13018" lon="5.26402">
        <ele>293.7</ele>
        <time>2010-10-17T09:54:41Z</time>
      </trkpt>
      <trkpt lat="45.13014" lon="5.264">
        <ele>293.3</ele>
        <time>2010-10-17T09:54:42Z</time>
      </trkpt>
      <trkpt lat="45.13009" lon="5.26398">
        <ele>293.2</ele>
        <time>2010-10-17T09:54:43Z</time>
      </trkpt>
      <trkpt lat="45.13006" lon="5.26396">
        <ele>293.4</ele>
        <time>2010-10-17T09:54:44Z</time>
      </trkpt>
      <trkpt lat="45.13004" lon="5.26392">
        <ele>292.9</ele>
        <time>2010-10-17T09:54:45Z</time>
      </trkpt>
      <trkpt lat="45.13" lon="5.26388">
        <ele>292.8</ele>
        <time>2010-10-17T09:54:46Z</time>
      </trkpt>
      <trkpt lat="45.12995" lon="5.26384">
        <ele>292.3</ele>
        <time>2010-10-17T09:54:47Z</time>
      </trkpt>
      <trkpt lat="45.1299" lon="5.26381">
        <ele>292.3</ele>
        <time>2010-10-17T09:54:48Z</time>
      </trkpt>
      <trkpt lat="45.12985" lon="5.2638">
        <ele>292.2</ele>
        <time>2010-10-17T09:54:49Z</time>
      </trkpt>
      <trkpt lat="45.12981" lon="5.26377">
        <ele>292.5</ele>
        <time>2010-10-17T09:54:50Z</time>
      </trkpt>
      <trkpt lat="45.12976" lon="5.26376">
        <ele>291.5</ele>
        <time>2010-10-17T09:54:50Z</time>
      </trkpt>
      <trkpt lat="45.12968" lon="5.26373">
        <ele>290.7</ele>
        <time>2010-10-17T09:54:51Z</time>
      </trkpt>
      <trkpt lat="45.12964" lon="5.26371">
        <ele>291.3</ele>
        <time>2010-10-17T09:54:53Z</time>
      </trkpt>
      <trkpt lat="45.12958" lon="5.26368">
        <ele>291.5</ele>
        <time>2010-10-17T09:54:54Z</time>
      </trkpt>
      <trkpt lat="45.12953" lon="5.26364">
        <ele>292</ele>
        <time>2010-10-17T09:54:55Z</time>
      </trkpt>
      <trkpt lat="45.12945" lon="5.26361">
        <ele>291.9</ele>
        <time>2010-10-17T09:54:56Z</time>
      </trkpt>
      <trkpt lat="45.12939" lon="5.26358">
        <ele>292.3</ele>
        <time>2010-10-17T09:54:57Z</time>
      </trkpt>
      <trkpt lat="45.12934" lon="5.26354">
        <ele>292.8</ele>
        <time>2010-10-17T09:54:58Z</time>
      </trkpt>
      <trkpt lat="45.12928" lon="5.2635">
        <ele>292.4</ele>
        <time>2010-10-17T09:54:59Z</time>
      </trkpt>
      <trkpt lat="45.12922" lon="5.26349">
        <ele>291.7</ele>
        <time>2010-10-17T09:55:00Z</time>
      </trkpt>
      <trkpt lat="45.12915" lon="5.26347">
        <ele>291.3</ele>
        <time>2010-10-17T09:55:01Z</time>
      </trkpt>
      <trkpt lat="45.1291" lon="5.26343">
        <ele>291.2</ele>
        <time>2010-10-17T09:55:02Z</time>
      </trkpt>
      <trkpt lat="45.12906" lon="5.2634">
        <ele>291.4</ele>
        <time>2010-10-17T09:55:03Z</time>
      </trkpt>
      <trkpt lat="45.129" lon="5.26339">
        <ele>291.5</ele>
        <time>2010-10-17T09:55:04Z</time>
      </trkpt>
      <trkpt lat="45.12895" lon="5.26336">
        <ele>290.9</ele>
        <time>2010-10-17T09:55:05Z</time>
      </trkpt>
      <trkpt lat="45.12889" lon="5.26335">
        <ele>291</ele>
        <time>2010-10-17T09:55:06Z</time>
      </trkpt>
      <trkpt lat="45.12881" lon="5.26334">
        <ele>290.9</ele>
        <time>2010-10-17T09:55:07Z</time>
      </trkpt>
      <trkpt lat="45.12875" lon="5.26332">
        <ele>290.9</ele>
        <time>2010-10-17T09:55:08Z</time>
      </trkpt>
      <trkpt lat="45.12868" lon="5.26327">
        <ele>291.2</ele>
        <time>2010-10-17T09:55:09Z</time>
      </trkpt>
      <trkpt lat="45.12862" lon="5.26325">
        <ele>291.3</ele>
        <time>2010-10-17T09:55:10Z</time>
      </trkpt>
      <trkpt lat="45.12856" lon="5.26323">
        <ele>291</ele>
        <time>2010-10-17T09:55:10Z</time>
      </trkpt>
      <trkpt lat="45.1285" lon="5.2632">
        <ele>290.8</ele>
        <time>2010-10-17T09:55:11Z</time>
      </trkpt>
      <trkpt lat="45.12844" lon="5.26316">
        <ele>290.9</ele>
        <time>2010-10-17T09:55:13Z</time>
      </trkpt>
      <trkpt lat="45.12838" lon="5.2631">
        <ele>291.5</ele>
        <time>2010-10-17T09:55:14Z</time>
      </trkpt>
      <trkpt lat="45.12832" lon="5.26303">
        <ele>291.8</ele>
        <time>2010-10-17T09:55:15Z</time>
      </trkpt>
      <trkpt lat="45.12828" lon="5.26299">
        <ele>291.4</ele>
        <time>2010-10-17T09:55:16Z</time>
      </trkpt>
      <trkpt lat="45.12821" lon="5.26293">
        <ele>291.8</ele>
        <time>2010-10-17T09:55:17Z</time>
      </trkpt>
      <trkpt lat="45.12817" lon="5.26289">
        <ele>291.6</ele>
        <time>2010-10-17T09:55:18Z</time>
      </trkpt>
      <trkpt lat="45.1281" lon="5.26287">
        <ele>291.6</ele>
        <time>2010-10-17T09:55:19Z</time>
      </trkpt>
      <trkpt lat="45.12804" lon="5.26284">
        <ele>291.9</ele>
        <time>2010-10-17T09:55:20Z</time>
      </trkpt>
      <trkpt lat="45.12798" lon="5.26282">
        <ele>291.8</ele>
        <time>2010-10-17T09:55:21Z</time>
      </trkpt>
      <trkpt lat="45.12791" lon="5.2628">
        <ele>291.7</ele>
        <time>2010-10-17T09:55:22Z</time>
      </trkpt>
      <trkpt lat="45.12786" lon="5.26277">
        <ele>291.6</ele>
        <time>2010-10-17T09:55:23Z</time>
      </trkpt>
      <trkpt lat="45.12781" lon="5.26274">
        <ele>291.6</ele>
        <time>2010-10-17T09:55:24Z</time>
      </trkpt>
      <trkpt lat="45.12776" lon="5.26272">
        <ele>291.7</ele>
        <time>2010-10-17T09:55:25Z</time>
      </trkpt>
      <trkpt lat="45.12769" lon="5.2627">
        <ele>291.4</ele>
        <time>2010-10-17T09:55:26Z</time>
      </trkpt>
      <trkpt lat="45.12762" lon="5.26268">
        <ele>291.2</ele>
        <time>2010-10-17T09:55:27Z</time>
      </trkpt>
      <trkpt lat="45.12756" lon="5.26266">
        <ele>291</ele>
        <time>2010-10-17T09:55:28Z</time>
      </trkpt>
      <trkpt lat="45.12749" lon="5.26265">
        <ele>290.7</ele>
        <time>2010-10-17T09:55:29Z</time>
      </trkpt>
      <trkpt lat="45.12742" lon="5.26265">
        <ele>290.5</ele>
        <time>2010-10-17T09:55:30Z</time>
      </trkpt>
      <trkpt lat="45.12738" lon="5.26262">
        <ele>290.4</ele>
        <time>2010-10-17T09:55:30Z</time>
      </trkpt>
      <trkpt lat="45.12732" lon="5.2626">
        <ele>290.7</ele>
        <time>2010-10-17T09:55:32Z</time>
      </trkpt>
      <trkpt lat="45.12725" lon="5.26259">
        <ele>290.8</ele>
        <time>2010-10-17T09:55:33Z</time>
      </trkpt>
      <trkpt lat="45.12719" lon="5.26259">
        <ele>290.6</ele>
        <time>2010-10-17T09:55:34Z</time>
      </trkpt>
      <trkpt lat="45.12712" lon="5.26258">
        <ele>290.4</ele>
        <time>2010-10-17T09:55:35Z</time>
      </trkpt>
      <trkpt lat="45.12706" lon="5.26256">
        <ele>290.7</ele>
        <time>2010-10-17T09:55:36Z</time>
      </trkpt>
      <trkpt lat="45.127" lon="5.26254">
        <ele>290.4</ele>
        <time>2010-10-17T09:55:37Z</time>
      </trkpt>
      <trkpt lat="45.12694" lon="5.26252">
        <ele>290.3</ele>
        <time>2010-10-17T09:55:38Z</time>
      </trkpt>
      <trkpt lat="45.12688" lon="5.2625">
        <ele>290</ele>
        <time>2010-10-17T09:55:39Z</time>
      </trkpt>
      <trkpt lat="45.12681" lon="5.26248">
        <ele>289.7</ele>
        <time>2010-10-17T09:55:40Z</time>
      </trkpt>
      <trkpt lat="45.12675" lon="5.26246">
        <ele>289.5</ele>
        <time>2010-10-17T09:55:41Z</time>
      </trkpt>
      <trkpt lat="45.1267" lon="5.26244">
        <ele>289.8</ele>
        <time>2010-10-17T09:55:42Z</time>
      </trkpt>
      <trkpt lat="45.12662" lon="5.26243">
        <ele>289.6</ele>
        <time>2010-10-17T09:55:43Z</time>
      </trkpt>
      <trkpt lat="45.12658" lon="5.26242">
        <ele>289.8</ele>
        <time>2010-10-17T09:55:44Z</time>
      </trkpt>
      <trkpt lat="45.12653" lon="5.2624">
        <ele>289.7</ele>
        <time>2010-10-17T09:55:45Z</time>
      </trkpt>
      <trkpt lat="45.12648" lon="5.26238">
        <ele>289.1</ele>
        <time>2010-10-17T09:55:46Z</time>
      </trkpt>
      <trkpt lat="45.12643" lon="5.26238">
        <ele>289.2</ele>
        <time>2010-10-17T09:55:47Z</time>
      </trkpt>
      <trkpt lat="45.12638" lon="5.26236">
        <ele>289.3</ele>
        <time>2010-10-17T09:55:48Z</time>
      </trkpt>
      <trkpt lat="45.12633" lon="5.26236">
        <ele>289.2</ele>
        <time>2010-10-17T09:55:49Z</time>
      </trkpt>
      <trkpt lat="45.12629" lon="5.26235">
        <ele>289.1</ele>
        <time>2010-10-17T09:55:50Z</time>
      </trkpt>
      <trkpt lat="45.12623" lon="5.26237">
        <ele>288.9</ele>
        <time>2010-10-17T09:55:50Z</time>
      </trkpt>
      <trkpt lat="45.12615" lon="5.26239">
        <ele>289</ele>
        <time>2010-10-17T09:55:52Z</time>
      </trkpt>
      <trkpt lat="45.12609" lon="5.26239">
        <ele>289.1</ele>
        <time>2010-10-17T09:55:53Z</time>
      </trkpt>
      <trkpt lat="45.12599" lon="5.26242">
        <ele>289.7</ele>
        <time>2010-10-17T09:55:54Z</time>
      </trkpt>
      <trkpt lat="45.12592" lon="5.26244">
        <ele>289.5</ele>
        <time>2010-10-17T09:55:55Z</time>
      </trkpt>
      <trkpt lat="45.12586" lon="5.26244">
        <ele>289.5</ele>
        <time>2010-10-17T09:55:56Z</time>
      </trkpt>
      <trkpt lat="45.12581" lon="5.26245">
        <ele>289.5</ele>
        <time>2010-10-17T09:55:57Z</time>
      </trkpt>
      <trkpt lat="45.12576" lon="5.26247">
        <ele>289.4</ele>
        <time>2010-10-17T09:55:58Z</time>
      </trkpt>
      <trkpt lat="45.12571" lon="5.26247">
        <ele>289.6</ele>
        <time>2010-10-17T09:55:59Z</time>
      </trkpt>
      <trkpt lat="45.12564" lon="5.26251">
        <ele>289.4</ele>
        <time>2010-10-17T09:56:00Z</time>
      </trkpt>
      <trkpt lat="45.12559" lon="5.26252">
        <ele>289.2</ele>
        <time>2010-10-17T09:56:01Z</time>
      </trkpt>
      <trkpt lat="45.12552" lon="5.26254">
        <ele>288.9</ele>
        <time>2010-10-17T09:56:02Z</time>
      </trkpt>
      <trkpt lat="45.12545" lon="5.26257">
        <ele>288.3</ele>
        <time>2010-10-17T09:56:03Z</time>
      </trkpt>
      <trkpt lat="45.12538" lon="5.2626">
        <ele>288</ele>
        <time>2010-10-17T09:56:04Z</time>
      </trkpt>
      <trkpt lat="45.12531" lon="5.26262">
        <ele>287.5</ele>
        <time>2010-10-17T09:56:05Z</time>
      </trkpt>
      <trkpt lat="45.12525" lon="5.26265">
        <ele>287.6</ele>
        <time>2010-10-17T09:56:06Z</time>
      </trkpt>
      <trkpt lat="45.12521" lon="5.26265">
        <ele>287.8</ele>
        <time>2010-10-17T09:56:07Z</time>
      </trkpt>
      <trkpt lat="45.12515" lon="5.26267">
        <ele>287.9</ele>
        <time>2010-10-17T09:56:08Z</time>
      </trkpt>
      <trkpt lat="45.12508" lon="5.2627">
        <ele>287.9</ele>
        <time>2010-10-17T09:56:09Z</time>
      </trkpt>
      <trkpt lat="45.12502" lon="5.26271">
        <ele>288.4</ele>
        <time>2010-10-17T09:56:10Z</time>
      </trkpt>
      <trkpt lat="45.12494" lon="5.2627">
        <ele>287.6</ele>
        <time>2010-10-17T09:56:10Z</time>
      </trkpt>
      <trkpt lat="45.12486" lon="5.26271">
        <ele>287.4</ele>
        <time>2010-10-17T09:56:12Z</time>
      </trkpt>
      <trkpt lat="45.1248" lon="5.26271">
        <ele>287.3</ele>
        <time>2010-10-17T09:56:13Z</time>
      </trkpt>
      <trkpt lat="45.12476" lon="5.2627">
        <ele>287.2</ele>
        <time>2010-10-17T09:56:14Z</time>
      </trkpt>
      <trkpt lat="45.12471" lon="5.26268">
        <ele>287.2</ele>
        <time>2010-10-17T09:56:15Z</time>
      </trkpt>
      <trkpt lat="45.12463" lon="5.26269">
        <ele>286.5</ele>
        <time>2010-10-17T09:56:16Z</time>
      </trkpt>
      <trkpt lat="45.12456" lon="5.26269">
        <ele>286.3</ele>
        <time>2010-10-17T09:56:17Z</time>
      </trkpt>
      <trkpt lat="45.12451" lon="5.26269">
        <ele>286.4</ele>
        <time>2010-10-17T09:56:18Z</time>
      </trkpt>
      <trkpt lat="45.12445" lon="5.26269">
        <ele>286.2</ele>
        <time>2010-10-17T09:56:19Z</time>
      </trkpt>
      <trkpt lat="45.12441" lon="5.26267">
        <ele>286.2</ele>
        <time>2010-10-17T09:56:20Z</time>
      </trkpt>
      <trkpt lat="45.12433" lon="5.26268">
        <ele>286.1</ele>
        <time>2010-10-17T09:56:21Z</time>
      </trkpt>
      <trkpt lat="45.12427" lon="5.2627">
        <ele>285.9</ele>
        <time>2010-10-17T09:56:22Z</time>
      </trkpt>
      <trkpt lat="45.12423" lon="5.2627">
        <ele>285.7</ele>
        <time>2010-10-17T09:56:23Z</time>
      </trkpt>
      <trkpt lat="45.12417" lon="5.26272">
        <ele>286.1</ele>
        <time>2010-10-17T09:56:24Z</time>
      </trkpt>
      <trkpt lat="45.12412" lon="5.26274">
        <ele>286.3</ele>
        <time>2010-10-17T09:56:25Z</time>
      </trkpt>
      <trkpt lat="45.12406" lon="5.26276">
        <ele>286.3</ele>
        <time>2010-10-17T09:56:26Z</time>
      </trkpt>
      <trkpt lat="45.124" lon="5.26281">
        <ele>286.2</ele>
        <time>2010-10-17T09:56:27Z</time>
      </trkpt>
      <trkpt lat="45.12393" lon="5.26283">
        <ele>286.2</ele>
        <time>2010-10-17T09:56:28Z</time>
      </trkpt>
      <trkpt lat="45.12388" lon="5.26285">
        <ele>286.5</ele>
        <time>2010-10-17T09:56:29Z</time>
      </trkpt>
      <trkpt lat="45.12384" lon="5.26288">
        <ele>286.8</ele>
        <time>2010-10-17T09:56:30Z</time>
      </trkpt>
      <trkpt lat="45.1238" lon="5.2629">
        <ele>287.2</ele>
        <time>2010-10-17T09:56:30Z</time>
      </trkpt>
      <trkpt lat="45.12374" lon="5.26294">
        <ele>287.1</ele>
        <time>2010-10-17T09:56:32Z</time>
      </trkpt>
      <trkpt lat="45.12369" lon="5.26297">
        <ele>287</ele>
        <time>2010-10-17T09:56:33Z</time>
      </trkpt>
      <trkpt lat="45.12364" lon="5.26299">
        <ele>286.5</ele>
        <time>2010-10-17T09:56:34Z</time>
      </trkpt>
      <trkpt lat="45.12358" lon="5.26302">
        <ele>285.9</ele>
        <time>2010-10-17T09:56:35Z</time>
      </trkpt>
      <trkpt lat="45.12351" lon="5.26305">
        <ele>285.8</ele>
        <time>2010-10-17T09:56:36Z</time>
      </trkpt>
      <trkpt lat="45.12346" lon="5.26309">
        <ele>286</ele>
        <time>2010-10-17T09:56:37Z</time>
      </trkpt>
      <trkpt lat="45.12343" lon="5.26311">
        <ele>286</ele>
        <time>2010-10-17T09:56:38Z</time>
      </trkpt>
      <trkpt lat="45.12335" lon="5.26314">
        <ele>286.5</ele>
        <time>2010-10-17T09:56:39Z</time>
      </trkpt>
      <trkpt lat="45.12331" lon="5.26314">
        <ele>286.7</ele>
        <time>2010-10-17T09:56:40Z</time>
      </trkpt>
      <trkpt lat="45.12327" lon="5.26314">
        <ele>286.6</ele>
        <time>2010-10-17T09:56:41Z</time>
      </trkpt>
      <trkpt lat="45.12323" lon="5.26312">
        <ele>286.9</ele>
        <time>2010-10-17T09:56:42Z</time>
      </trkpt>
      <trkpt lat="45.12318" lon="5.2631">
        <ele>286.8</ele>
        <time>2010-10-17T09:56:43Z</time>
      </trkpt>
      <trkpt lat="45.12316" lon="5.26305">
        <ele>286.4</ele>
        <time>2010-10-17T09:56:44Z</time>
      </trkpt>
      <trkpt lat="45.12309" lon="5.263">
        <ele>285.6</ele>
        <time>2010-10-17T09:56:45Z</time>
      </trkpt>
      <trkpt lat="45.12306" lon="5.26296">
        <ele>286.1</ele>
        <time>2010-10-17T09:56:46Z</time>
      </trkpt>
      <trkpt lat="45.12301" lon="5.26291">
        <ele>285.3</ele>
        <time>2010-10-17T09:56:47Z</time>
      </trkpt>
      <trkpt lat="45.12296" lon="5.26288">
        <ele>285.4</ele>
        <time>2010-10-17T09:56:48Z</time>
      </trkpt>
      <trkpt lat="45.12292" lon="5.26284">
        <ele>285.4</ele>
        <time>2010-10-17T09:56:49Z</time>
      </trkpt>
      <trkpt lat="45.12289" lon="5.26282">
        <ele>285.7</ele>
        <time>2010-10-17T09:56:49Z</time>
      </trkpt>
      <trkpt lat="45.12285" lon="5.26281">
        <ele>285.1</ele>
        <time>2010-10-17T09:56:50Z</time>
      </trkpt>
      <trkpt lat="45.12279" lon="5.26272">
        <ele>284.8</ele>
        <time>2010-10-17T09:56:52Z</time>
      </trkpt>
      <trkpt lat="45.12279" lon="5.26265">
        <ele>284.1</ele>
        <time>2010-10-17T09:56:53Z</time>
      </trkpt>
      <trkpt lat="45.12276" lon="5.26261">
        <ele>284</ele>
        <time>2010-10-17T09:56:54Z</time>
      </trkpt>
      <trkpt lat="45.12274" lon="5.26256">
        <ele>283.5</ele>
        <time>2010-10-17T09:56:55Z</time>
      </trkpt>
      <trkpt lat="45.12272" lon="5.26249">
        <ele>283.8</ele>
        <time>2010-10-17T09:56:56Z</time>
      </trkpt>
      <trkpt lat="45.1227" lon="5.26241">
        <ele>284.1</ele>
        <time>2010-10-17T09:56:57Z</time>
      </trkpt>
      <trkpt lat="45.12268" lon="5.26236">
        <ele>284.4</ele>
        <time>2010-10-17T09:56:58Z</time>
      </trkpt>
      <trkpt lat="45.12264" lon="5.26231">
        <ele>283.9</ele>
        <time>2010-10-17T09:56:59Z</time>
      </trkpt>
      <trkpt lat="45.1226" lon="5.26227">
        <ele>284.2</ele>
        <time>2010-10-17T09:57:00Z</time>
      </trkpt>
      <trkpt lat="45.12257" lon="5.26222">
        <ele>284.3</ele>
        <time>2010-10-17T09:57:01Z</time>
      </trkpt>
      <trkpt lat="45.12252" lon="5.26219">
        <ele>284.2</ele>
        <time>2010-10-17T09:57:02Z</time>
      </trkpt>
      <trkpt lat="45.12248" lon="5.26216">
        <ele>283.9</ele>
        <time>2010-10-17T09:57:03Z</time>
      </trkpt>
      <trkpt lat="45.12244" lon="5.26212">
        <ele>283.4</ele>
        <time>2010-10-17T09:57:04Z</time>
      </trkpt>
      <trkpt lat="45.1224" lon="5.26209">
        <ele>283.7</ele>
        <time>2010-10-17T09:57:05Z</time>
      </trkpt>
      <trkpt lat="45.12234" lon="5.26206">
        <ele>284</ele>
        <time>2010-10-17T09:57:06Z</time>
      </trkpt>
      <trkpt lat="45.12229" lon="5.26205">
        <ele>284.1</ele>
        <time>2010-10-17T09:57:07Z</time>
      </trkpt>
      <trkpt lat="45.12224" lon="5.26202">
        <ele>284.2</ele>
        <time>2010-10-17T09:57:08Z</time>
      </trkpt>
      <trkpt lat="45.1222" lon="5.26201">
        <ele>284.3</ele>
        <time>2010-10-17T09:57:09Z</time>
      </trkpt>
      <trkpt lat="45.12214" lon="5.26198">
        <ele>284.1</ele>
        <time>2010-10-17T09:57:09Z</time>
      </trkpt>
      <trkpt lat="45.12208" lon="5.26194">
        <ele>284.6</ele>
        <time>2010-10-17T09:57:10Z</time>
      </trkpt>
      <trkpt lat="45.12203" lon="5.26193">
        <ele>284.6</ele>
        <time>2010-10-17T09:57:12Z</time>
      </trkpt>
      <trkpt lat="45.12195" lon="5.26191">
        <ele>284.5</ele>
        <time>2010-10-17T09:57:13Z</time>
      </trkpt>
      <trkpt lat="45.12189" lon="5.26189">
        <ele>284.2</ele>
        <time>2010-10-17T09:57:14Z</time>
      </trkpt>
      <trkpt lat="45.12185" lon="5.26185">
        <ele>284.1</ele>
        <time>2010-10-17T09:57:15Z</time>
      </trkpt>
      <trkpt lat="45.12178" lon="5.26181">
        <ele>284.4</ele>
        <time>2010-10-17T09:57:16Z</time>
      </trkpt>
      <trkpt lat="45.12171" lon="5.26178">
        <ele>283.2</ele>
        <time>2010-10-17T09:57:17Z</time>
      </trkpt>
      <trkpt lat="45.12164" lon="5.26175">
        <ele>283.5</ele>
        <time>2010-10-17T09:57:18Z</time>
      </trkpt>
      <trkpt lat="45.12159" lon="5.26171">
        <ele>283.3</ele>
        <time>2010-10-17T09:57:19Z</time>
      </trkpt>
      <trkpt lat="45.12155" lon="5.26168">
        <ele>283.2</ele>
        <time>2010-10-17T09:57:20Z</time>
      </trkpt>
      <trkpt lat="45.1215" lon="5.26167">
        <ele>282.2</ele>
        <time>2010-10-17T09:57:21Z</time>
      </trkpt>
      <trkpt lat="45.12145" lon="5.26164">
        <ele>282.2</ele>
        <time>2010-10-17T09:57:22Z</time>
      </trkpt>
      <trkpt lat="45.12139" lon="5.2616">
        <ele>282.6</ele>
        <time>2010-10-17T09:57:23Z</time>
      </trkpt>
      <trkpt lat="45.12132" lon="5.26157">
        <ele>282.3</ele>
        <time>2010-10-17T09:57:24Z</time>
      </trkpt>
      <trkpt lat="45.12125" lon="5.26152">
        <ele>281.8</ele>
        <time>2010-10-17T09:57:25Z</time>
      </trkpt>
      <trkpt lat="45.1212" lon="5.26148">
        <ele>282.1</ele>
        <time>2010-10-17T09:57:26Z</time>
      </trkpt>
      <trkpt lat="45.12115" lon="5.26144">
        <ele>281.8</ele>
        <time>2010-10-17T09:57:27Z</time>
      </trkpt>
      <trkpt lat="45.12111" lon="5.2614">
        <ele>281.8</ele>
        <time>2010-10-17T09:57:28Z</time>
      </trkpt>
      <trkpt lat="45.12104" lon="5.26137">
        <ele>281.9</ele>
        <time>2010-10-17T09:57:29Z</time>
      </trkpt>
      <trkpt lat="45.12098" lon="5.26133">
        <ele>281.5</ele>
        <time>2010-10-17T09:57:29Z</time>
      </trkpt>
      <trkpt lat="45.12093" lon="5.2613">
        <ele>281.1</ele>
        <time>2010-10-17T09:57:30Z</time>
      </trkpt>
      <trkpt lat="45.12087" lon="5.26126">
        <ele>281</ele>
        <time>2010-10-17T09:57:32Z</time>
      </trkpt>
      <trkpt lat="45.12081" lon="5.26124">
        <ele>280.8</ele>
        <time>2010-10-17T09:57:33Z</time>
      </trkpt>
      <trkpt lat="45.12075" lon="5.2612">
        <ele>280.8</ele>
        <time>2010-10-17T09:57:34Z</time>
      </trkpt>
      <trkpt lat="45.12071" lon="5.26115">
        <ele>280.4</ele>
        <time>2010-10-17T09:57:35Z</time>
      </trkpt>
      <trkpt lat="45.12067" lon="5.2611">
        <ele>279.8</ele>
        <time>2010-10-17T09:57:36Z</time>
      </trkpt>
      <trkpt lat="45.12062" lon="5.26105">
        <ele>279.5</ele>
        <time>2010-10-17T09:57:37Z</time>
      </trkpt>
      <trkpt lat="45.12057" lon="5.26098">
        <ele>279.5</ele>
        <time>2010-10-17T09:57:38Z</time>
      </trkpt>
      <trkpt lat="45.12053" lon="5.26092">
        <ele>279.8</ele>
        <time>2010-10-17T09:57:39Z</time>
      </trkpt>
      <trkpt lat="45.1205" lon="5.26087">
        <ele>279.7</ele>
        <time>2010-10-17T09:57:40Z</time>
      </trkpt>
      <trkpt lat="45.12046" lon="5.26082">
        <ele>279.4</ele>
        <time>2010-10-17T09:57:41Z</time>
      </trkpt>
      <trkpt lat="45.12044" lon="5.26078">
        <ele>279.4</ele>
        <time>2010-10-17T09:57:42Z</time>
      </trkpt>
      <trkpt lat="45.1204" lon="5.26073">
        <ele>279.4</ele>
        <time>2010-10-17T09:57:43Z</time>
      </trkpt>
      <trkpt lat="45.12036" lon="5.26069">
        <ele>279.3</ele>
        <time>2010-10-17T09:57:44Z</time>
      </trkpt>
      <trkpt lat="45.12033" lon="5.26066">
        <ele>279.4</ele>
        <time>2010-10-17T09:57:45Z</time>
      </trkpt>
      <trkpt lat="45.12029" lon="5.26064">
        <ele>279.3</ele>
        <time>2010-10-17T09:57:46Z</time>
      </trkpt>
      <trkpt lat="45.12024" lon="5.2606">
        <ele>278.9</ele>
        <time>2010-10-17T09:57:47Z</time>
      </trkpt>
      <trkpt lat="45.1202" lon="5.26055">
        <ele>279.2</ele>
        <time>2010-10-17T09:57:48Z</time>
      </trkpt>
      <trkpt lat="45.12014" lon="5.26052">
        <ele>279.2</ele>
        <time>2010-10-17T09:57:49Z</time>
      </trkpt>
      <trkpt lat="45.12013" lon="5.26049">
        <ele>279</ele>
        <time>2010-10-17T09:57:49Z</time>
      </trkpt>
      <trkpt lat="45.12007" lon="5.26046">
        <ele>279.3</ele>
        <time>2010-10-17T09:57:51Z</time>
      </trkpt>
      <trkpt lat="45.12005" lon="5.26041">
        <ele>279.1</ele>
        <time>2010-10-17T09:57:52Z</time>
      </trkpt>
      <trkpt lat="45.12" lon="5.26039">
        <ele>278.6</ele>
        <time>2010-10-17T09:57:53Z</time>
      </trkpt>
      <trkpt lat="45.11993" lon="5.26036">
        <ele>277.9</ele>
        <time>2010-10-17T09:57:54Z</time>
      </trkpt>
      <trkpt lat="45.1199" lon="5.26032">
        <ele>277.3</ele>
        <time>2010-10-17T09:57:55Z</time>
      </trkpt>
      <trkpt lat="45.11985" lon="5.26029">
        <ele>277.2</ele>
        <time>2010-10-17T09:57:56Z</time>
      </trkpt>
      <trkpt lat="45.11982" lon="5.26026">
        <ele>276.2</ele>
        <time>2010-10-17T09:57:57Z</time>
      </trkpt>
      <trkpt lat="45.11976" lon="5.26024">
        <ele>275.9</ele>
        <time>2010-10-17T09:57:58Z</time>
      </trkpt>
      <trkpt lat="45.11971" lon="5.2602">
        <ele>275.2</ele>
        <time>2010-10-17T09:57:59Z</time>
      </trkpt>
      <trkpt lat="45.11966" lon="5.26015">
        <ele>274.5</ele>
        <time>2010-10-17T09:58:00Z</time>
      </trkpt>
      <trkpt lat="45.11962" lon="5.26011">
        <ele>274.5</ele>
        <time>2010-10-17T09:58:01Z</time>
      </trkpt>
      <trkpt lat="45.11958" lon="5.26008">
        <ele>274.3</ele>
        <time>2010-10-17T09:58:02Z</time>
      </trkpt>
      <trkpt lat="45.11952" lon="5.26004">
        <ele>274.2</ele>
        <time>2010-10-17T09:58:03Z</time>
      </trkpt>
      <trkpt lat="45.11946" lon="5.26">
        <ele>273.7</ele>
        <time>2010-10-17T09:58:04Z</time>
      </trkpt>
      <trkpt lat="45.11942" lon="5.25996">
        <ele>273.5</ele>
        <time>2010-10-17T09:58:05Z</time>
      </trkpt>
      <trkpt lat="45.11936" lon="5.25992">
        <ele>273.3</ele>
        <time>2010-10-17T09:58:06Z</time>
      </trkpt>
      <trkpt lat="45.1193" lon="5.25988">
        <ele>273.1</ele>
        <time>2010-10-17T09:58:07Z</time>
      </trkpt>
      <trkpt lat="45.11924" lon="5.25985">
        <ele>273.1</ele>
        <time>2010-10-17T09:58:08Z</time>
      </trkpt>
      <trkpt lat="45.1192" lon="5.25982">
        <ele>272.4</ele>
        <time>2010-10-17T09:58:09Z</time>
      </trkpt>
      <trkpt lat="45.11912" lon="5.25979">
        <ele>271.4</ele>
        <time>2010-10-17T09:58:09Z</time>
      </trkpt>
      <trkpt lat="45.11907" lon="5.25974">
        <ele>271.4</ele>
        <time>2010-10-17T09:58:11Z</time>
      </trkpt>
      <trkpt lat="45.11904" lon="5.2597">
        <ele>270.6</ele>
        <time>2010-10-17T09:58:12Z</time>
      </trkpt>
      <trkpt lat="45.11897" lon="5.25969">
        <ele>270.6</ele>
        <time>2010-10-17T09:58:13Z</time>
      </trkpt>
      <trkpt lat="45.11893" lon="5.25965">
        <ele>270.3</ele>
        <time>2010-10-17T09:58:14Z</time>
      </trkpt>
      <trkpt lat="45.1189" lon="5.25962">
        <ele>269.8</ele>
        <time>2010-10-17T09:58:15Z</time>
      </trkpt>
      <trkpt lat="45.11884" lon="5.25957">
        <ele>269.9</ele>
        <time>2010-10-17T09:58:16Z</time>
      </trkpt>
      <trkpt lat="45.11877" lon="5.25953">
        <ele>268.8</ele>
        <time>2010-10-17T09:58:17Z</time>
      </trkpt>
      <trkpt lat="45.11868" lon="5.25949">
        <ele>268.5</ele>
        <time>2010-10-17T09:58:18Z</time>
      </trkpt>
      <trkpt lat="45.1186" lon="5.25946">
        <ele>267.8</ele>
        <time>2010-10-17T09:58:19Z</time>
      </trkpt>
      <trkpt lat="45.11854" lon="5.25943">
        <ele>267.5</ele>
        <time>2010-10-17T09:58:20Z</time>
      </trkpt>
      <trkpt lat="45.11848" lon="5.2594">
        <ele>267.1</ele>
        <time>2010-10-17T09:58:21Z</time>
      </trkpt>
      <trkpt lat="45.11843" lon="5.25937">
        <ele>266.7</ele>
        <time>2010-10-17T09:58:22Z</time>
      </trkpt>
      <trkpt lat="45.11837" lon="5.2593">
        <ele>266.6</ele>
        <time>2010-10-17T09:58:23Z</time>
      </trkpt>
      <trkpt lat="45.11831" lon="5.25924">
        <ele>266.8</ele>
        <time>2010-10-17T09:58:24Z</time>
      </trkpt>
      <trkpt lat="45.11827" lon="5.25918">
        <ele>266.7</ele>
        <time>2010-10-17T09:58:25Z</time>
      </trkpt>
      <trkpt lat="45.11821" lon="5.25915">
        <ele>266.6</ele>
        <time>2010-10-17T09:58:26Z</time>
      </trkpt>
      <trkpt lat="45.11814" lon="5.25912">
        <ele>267</ele>
        <time>2010-10-17T09:58:27Z</time>
      </trkpt>
      <trkpt lat="45.11808" lon="5.25907">
        <ele>267.2</ele>
        <time>2010-10-17T09:58:28Z</time>
      </trkpt>
      <trkpt lat="45.11803" lon="5.25904">
        <ele>267.2</ele>
        <time>2010-10-17T09:58:29Z</time>
      </trkpt>
      <trkpt lat="45.11797" lon="5.259">
        <ele>266.3</ele>
        <time>2010-10-17T09:58:29Z</time>
      </trkpt>
      <trkpt lat="45.1179" lon="5.25897">
        <ele>266.4</ele>
        <time>2010-10-17T09:58:31Z</time>
      </trkpt>
      <trkpt lat="45.11784" lon="5.25892">
        <ele>266.8</ele>
        <time>2010-10-17T09:58:32Z</time>
      </trkpt>
      <trkpt lat="45.11779" lon="5.25889">
        <ele>267.7</ele>
        <time>2010-10-17T09:58:33Z</time>
      </trkpt>
      <trkpt lat="45.11774" lon="5.25884">
        <ele>269</ele>
        <time>2010-10-17T09:58:34Z</time>
      </trkpt>
      <trkpt lat="45.11768" lon="5.25879">
        <ele>269.6</ele>
        <time>2010-10-17T09:58:35Z</time>
      </trkpt>
      <trkpt lat="45.11762" lon="5.25875">
        <ele>269.8</ele>
        <time>2010-10-17T09:58:36Z</time>
      </trkpt>
      <trkpt lat="45.11755" lon="5.25871">
        <ele>270.1</ele>
        <time>2010-10-17T09:58:37Z</time>
      </trkpt>
      <trkpt lat="45.11751" lon="5.25868">
        <ele>270.7</ele>
        <time>2010-10-17T09:58:38Z</time>
      </trkpt>
      <trkpt lat="45.11747" lon="5.25865">
        <ele>269.9</ele>
        <time>2010-10-17T09:58:39Z</time>
      </trkpt>
      <trkpt lat="45.11746" lon="5.25863">
        <ele>270.4</ele>
        <time>2010-10-17T09:58:40Z</time>
      </trkpt>
      <trkpt lat="45.11744" lon="5.25858">
        <ele>271.7</ele>
        <time>2010-10-17T09:58:41Z</time>
      </trkpt>
      <trkpt lat="45.11743" lon="5.25853">
        <ele>273.1</ele>
        <time>2010-10-17T09:58:42Z</time>
      </trkpt>
      <trkpt lat="45.11741" lon="5.25849">
        <ele>273.4</ele>
        <time>2010-10-17T09:58:43Z</time>
      </trkpt>
      <trkpt lat="45.1174" lon="5.25846">
        <ele>273.5</ele>
        <time>2010-10-17T09:58:44Z</time>
      </trkpt>
      <trkpt lat="45.1174" lon="5.25843">
        <ele>273.7</ele>
        <time>2010-10-17T09:58:45Z</time>
      </trkpt>
      <trkpt lat="45.1174" lon="5.2584">
        <ele>274.2</ele>
        <time>2010-10-17T09:58:46Z</time>
      </trkpt>
      <trkpt lat="45.11739" lon="5.2584">
        <ele>274.2</ele>
        <time>2010-10-17T09:58:49Z</time>
      </trkpt>
      <trkpt lat="45.11736" lon="5.25813">
        <ele>276.7</ele>
        <time>2010-10-17T09:59:04Z</time>
      </trkpt>
      <trkpt lat="45.11734" lon="5.25807">
        <ele>277.3</ele>
        <time>2010-10-17T09:59:05Z</time>
      </trkpt>
      <trkpt lat="45.11733" lon="5.25802">
        <ele>277.6</ele>
        <time>2010-10-17T09:59:06Z</time>
      </trkpt>
      <trkpt lat="45.11734" lon="5.25796">
        <ele>277.6</ele>
        <time>2010-10-17T09:59:07Z</time>
      </trkpt>
      <trkpt lat="45.11732" lon="5.2579">
        <ele>277.6</ele>
        <time>2010-10-17T09:59:08Z</time>
      </trkpt>
      <trkpt lat="45.11734" lon="5.25786">
        <ele>277.3</ele>
        <time>2010-10-17T09:59:08Z</time>
      </trkpt>
      <trkpt lat="45.11735" lon="5.25782">
        <ele>277.7</ele>
        <time>2010-10-17T09:59:09Z</time>
      </trkpt>
      <trkpt lat="45.11741" lon="5.25778">
        <ele>277.5</ele>
        <time>2010-10-17T09:59:11Z</time>
      </trkpt>
      <trkpt lat="45.1174" lon="5.25776">
        <ele>277.7</ele>
        <time>2010-10-17T09:59:12Z</time>
      </trkpt>
      <trkpt lat="45.11739" lon="5.25772">
        <ele>277.3</ele>
        <time>2010-10-17T09:59:13Z</time>
      </trkpt>
      <trkpt lat="45.1174" lon="5.25769">
        <ele>277</ele>
        <time>2010-10-17T09:59:14Z</time>
      </trkpt>
      <trkpt lat="45.11741" lon="5.25765">
        <ele>276.1</ele>
        <time>2010-10-17T09:59:15Z</time>
      </trkpt>
      <trkpt lat="45.11741" lon="5.25759">
        <ele>276</ele>
        <time>2010-10-17T09:59:16Z</time>
      </trkpt>
      <trkpt lat="45.11742" lon="5.25757">
        <ele>275.2</ele>
        <time>2010-10-17T09:59:17Z</time>
      </trkpt>
      <trkpt lat="45.11743" lon="5.25756">
        <ele>273.9</ele>
        <time>2010-10-17T09:59:18Z</time>
      </trkpt>
      <trkpt lat="45.11744" lon="5.25751">
        <ele>272.5</ele>
        <time>2010-10-17T09:59:19Z</time>
      </trkpt>
      <trkpt lat="45.11746" lon="5.25748">
        <ele>272.2</ele>
        <time>2010-10-17T09:59:20Z</time>
      </trkpt>
      <trkpt lat="45.11748" lon="5.25744">
        <ele>271.8</ele>
        <time>2010-10-17T09:59:21Z</time>
      </trkpt>
      <trkpt lat="45.1175" lon="5.25741">
        <ele>271.3</ele>
        <time>2010-10-17T09:59:22Z</time>
      </trkpt>
      <trkpt lat="45.1175" lon="5.25738">
        <ele>271.2</ele>
        <time>2010-10-17T09:59:23Z</time>
      </trkpt>
      <trkpt lat="45.11752" lon="5.25736">
        <ele>270.3</ele>
        <time>2010-10-17T09:59:24Z</time>
      </trkpt>
      <trkpt lat="45.11752" lon="5.25733">
        <ele>270.4</ele>
        <time>2010-10-17T09:59:25Z</time>
      </trkpt>
      <trkpt lat="45.11753" lon="5.25731">
        <ele>270.7</ele>
        <time>2010-10-17T09:59:26Z</time>
      </trkpt>
      <trkpt lat="45.11753" lon="5.25729">
        <ele>270.6</ele>
        <time>2010-10-17T09:59:27Z</time>
      </trkpt>
      <trkpt lat="45.11754" lon="5.25728">
        <ele>270.7</ele>
        <time>2010-10-17T09:59:28Z</time>
      </trkpt>
      <trkpt lat="45.11754" lon="5.25727">
        <ele>270.7</ele>
        <time>2010-10-17T09:59:28Z</time>
      </trkpt>
      <trkpt lat="45.11754" lon="5.25726">
        <ele>270.5</ele>
        <time>2010-10-17T09:59:31Z</time>
      </trkpt>
      <trkpt lat="45.11753" lon="5.25724">
        <ele>269.8</ele>
        <time>2010-10-17T09:59:32Z</time>
      </trkpt>
      <trkpt lat="45.11752" lon="5.25724">
        <ele>269.8</ele>
        <time>2010-10-17T09:59:34Z</time>
      </trkpt>
      <trkpt lat="45.11751" lon="5.25721">
        <ele>269.3</ele>
        <time>2010-10-17T09:59:35Z</time>
      </trkpt>
      <trkpt lat="45.11751" lon="5.25721">
        <ele>269.2</ele>
        <time>2010-10-17T09:59:37Z</time>
      </trkpt>
      <trkpt lat="45.11751" lon="5.25719">
        <ele>269.2</ele>
        <time>2010-10-17T09:59:38Z</time>
      </trkpt>
      <trkpt lat="45.11753" lon="5.25718">
        <ele>269</ele>
        <time>2010-10-17T09:59:39Z</time>
      </trkpt>
      <trkpt lat="45.11751" lon="5.25715">
        <ele>268.9</ele>
        <time>2010-10-17T09:59:40Z</time>
      </trkpt>
      <trkpt lat="45.11749" lon="5.25712">
        <ele>269</ele>
        <time>2010-10-17T09:59:41Z</time>
      </trkpt>
      <trkpt lat="45.11747" lon="5.2571">
        <ele>268.8</ele>
        <time>2010-10-17T09:59:42Z</time>
      </trkpt>
      <trkpt lat="45.11746" lon="5.2571">
        <ele>268.9</ele>
        <time>2010-10-17T09:59:43Z</time>
      </trkpt>
      <trkpt lat="45.11746" lon="5.25711">
        <ele>268.8</ele>
        <time>2010-10-17T09:59:44Z</time>
      </trkpt>
      <trkpt lat="45.11747" lon="5.25708">
        <ele>269</ele>
        <time>2010-10-17T09:59:45Z</time>
      </trkpt>
      <trkpt lat="45.11747" lon="5.25706">
        <ele>268.5</ele>
        <time>2010-10-17T09:59:46Z</time>
      </trkpt>
      <trkpt lat="45.11747" lon="5.25705">
        <ele>268.3</ele>
        <time>2010-10-17T09:59:47Z</time>
      </trkpt>
      <trkpt lat="45.11748" lon="5.25704">
        <ele>268.1</ele>
        <time>2010-10-17T09:59:48Z</time>
      </trkpt>
      <trkpt lat="45.11748" lon="5.25702">
        <ele>267.9</ele>
        <time>2010-10-17T09:59:48Z</time>
      </trkpt>
      <trkpt lat="45.11748" lon="5.25701">
        <ele>268</ele>
        <time>2010-10-17T09:59:49Z</time>
      </trkpt>
      <trkpt lat="45.11747" lon="5.257">
        <ele>268.1</ele>
        <time>2010-10-17T09:59:52Z</time>
      </trkpt>
      <trkpt lat="45.11747" lon="5.25699">
        <ele>267.9</ele>
        <time>2010-10-17T09:59:56Z</time>
      </trkpt>
      <trkpt lat="45.11748" lon="5.25698">
        <ele>268</ele>
        <time>2010-10-17T09:59:57Z</time>
      </trkpt>
      <trkpt lat="45.11748" lon="5.25698">
        <ele>268</ele>
        <time>2010-10-17T10:00:06Z</time>
      </trkpt>
      <trkpt lat="45.11748" lon="5.25697">
        <ele>268</ele>
        <time>2010-10-17T10:00:07Z</time>
      </trkpt>
      <trkpt lat="45.11748" lon="5.25696">
        <ele>268</ele>
        <time>2010-10-17T10:00:10Z</time>
      </trkpt>
      <trkpt lat="45.11751" lon="5.25689">
        <ele>267.3</ele>
        <time>2010-10-17T10:00:11Z</time>
      </trkpt>
      <trkpt lat="45.11754" lon="5.25682">
        <ele>267.7</ele>
        <time>2010-10-17T10:00:12Z</time>
      </trkpt>
      <trkpt lat="45.11763" lon="5.25667">
        <ele>266.4</ele>
        <time>2010-10-17T10:00:13Z</time>
      </trkpt>
      <trkpt lat="45.11776" lon="5.25649">
        <ele>265.6</ele>
        <time>2010-10-17T10:00:14Z</time>
      </trkpt>
      <trkpt lat="45.11783" lon="5.25638">
        <ele>264.2</ele>
        <time>2010-10-17T10:00:15Z</time>
      </trkpt>
      <trkpt lat="45.11791" lon="5.25628">
        <ele>264</ele>
        <time>2010-10-17T10:00:16Z</time>
      </trkpt>
      <trkpt lat="45.11796" lon="5.2562">
        <ele>263.8</ele>
        <time>2010-10-17T10:00:17Z</time>
      </trkpt>
      <trkpt lat="45.11798" lon="5.25613">
        <ele>263</ele>
        <time>2010-10-17T10:00:18Z</time>
      </trkpt>
      <trkpt lat="45.11804" lon="5.25605">
        <ele>262.2</ele>
        <time>2010-10-17T10:00:19Z</time>
      </trkpt>
      <trkpt lat="45.11805" lon="5.25595">
        <ele>261.2</ele>
        <time>2010-10-17T10:00:20Z</time>
      </trkpt>
      <trkpt lat="45.11806" lon="5.25587">
        <ele>259</ele>
        <time>2010-10-17T10:00:21Z</time>
      </trkpt>
      <trkpt lat="45.11803" lon="5.25578">
        <ele>258.1</ele>
        <time>2010-10-17T10:00:22Z</time>
      </trkpt>
      <trkpt lat="45.11805" lon="5.25573">
        <ele>257.5</ele>
        <time>2010-10-17T10:00:23Z</time>
      </trkpt>
      <trkpt lat="45.11806" lon="5.25569">
        <ele>257.1</ele>
        <time>2010-10-17T10:00:24Z</time>
      </trkpt>
      <trkpt lat="45.11807" lon="5.25565">
        <ele>256.6</ele>
        <time>2010-10-17T10:00:25Z</time>
      </trkpt>
      <trkpt lat="45.11808" lon="5.25562">
        <ele>256</ele>
        <time>2010-10-17T10:00:26Z</time>
      </trkpt>
      <trkpt lat="45.11808" lon="5.25558">
        <ele>254.7</ele>
        <time>2010-10-17T10:00:27Z</time>
      </trkpt>
      <trkpt lat="45.1181" lon="5.25554">
        <ele>254.1</ele>
        <time>2010-10-17T10:00:28Z</time>
      </trkpt>
      <trkpt lat="45.11811" lon="5.25552">
        <ele>253.7</ele>
        <time>2010-10-17T10:00:28Z</time>
      </trkpt>
      <trkpt lat="45.11813" lon="5.25551">
        <ele>253.9</ele>
        <time>2010-10-17T10:00:30Z</time>
      </trkpt>
      <trkpt lat="45.11812" lon="5.25549">
        <ele>252.8</ele>
        <time>2010-10-17T10:00:31Z</time>
      </trkpt>
      <trkpt lat="45.11814" lon="5.25546">
        <ele>252.7</ele>
        <time>2010-10-17T10:00:32Z</time>
      </trkpt>
      <trkpt lat="45.11815" lon="5.25544">
        <ele>252.2</ele>
        <time>2010-10-17T10:00:33Z</time>
      </trkpt>
      <trkpt lat="45.11817" lon="5.2554">
        <ele>252</ele>
        <time>2010-10-17T10:00:34Z</time>
      </trkpt>
      <trkpt lat="45.1182" lon="5.25538">
        <ele>252.1</ele>
        <time>2010-10-17T10:00:35Z</time>
      </trkpt>
      <trkpt lat="45.11822" lon="5.25539">
        <ele>252</ele>
        <time>2010-10-17T10:00:36Z</time>
      </trkpt>
      <trkpt lat="45.11823" lon="5.25537">
        <ele>252.4</ele>
        <time>2010-10-17T10:00:37Z</time>
      </trkpt>
      <trkpt lat="45.11826" lon="5.25535">
        <ele>252.7</ele>
        <time>2010-10-17T10:00:38Z</time>
      </trkpt>
      <trkpt lat="45.11828" lon="5.25534">
        <ele>253.7</ele>
        <time>2010-10-17T10:00:39Z</time>
      </trkpt>
      <trkpt lat="45.11831" lon="5.25537">
        <ele>251.9</ele>
        <time>2010-10-17T10:00:40Z</time>
      </trkpt>
      <trkpt lat="45.11832" lon="5.25535">
        <ele>252</ele>
        <time>2010-10-17T10:00:41Z</time>
      </trkpt>
      <trkpt lat="45.11834" lon="5.25532">
        <ele>251.6</ele>
        <time>2010-10-17T10:00:42Z</time>
      </trkpt>
      <trkpt lat="45.11837" lon="5.25531">
        <ele>251.6</ele>
        <time>2010-10-17T10:00:43Z</time>
      </trkpt>
      <trkpt lat="45.11838" lon="5.25532">
        <ele>250.9</ele>
        <time>2010-10-17T10:00:44Z</time>
      </trkpt>
      <trkpt lat="45.11841" lon="5.25531">
        <ele>250</ele>
        <time>2010-10-17T10:00:45Z</time>
      </trkpt>
      <trkpt lat="45.11844" lon="5.25531">
        <ele>249.1</ele>
        <time>2010-10-17T10:00:46Z</time>
      </trkpt>
      <trkpt lat="45.11847" lon="5.2553">
        <ele>249.2</ele>
        <time>2010-10-17T10:00:47Z</time>
      </trkpt>
      <trkpt lat="45.11849" lon="5.2553">
        <ele>248.1</ele>
        <time>2010-10-17T10:00:48Z</time>
      </trkpt>
      <trkpt lat="45.1185" lon="5.25531">
        <ele>247.2</ele>
        <time>2010-10-17T10:00:48Z</time>
      </trkpt>
      <trkpt lat="45.11852" lon="5.2553">
        <ele>247.1</ele>
        <time>2010-10-17T10:00:50Z</time>
      </trkpt>
      <trkpt lat="45.11855" lon="5.2553">
        <ele>247.2</ele>
        <time>2010-10-17T10:00:51Z</time>
      </trkpt>
      <trkpt lat="45.11857" lon="5.25529">
        <ele>246.5</ele>
        <time>2010-10-17T10:00:52Z</time>
      </trkpt>
      <trkpt lat="45.1186" lon="5.25528">
        <ele>246.2</ele>
        <time>2010-10-17T10:00:53Z</time>
      </trkpt>
      <trkpt lat="45.11861" lon="5.25527">
        <ele>245.9</ele>
        <time>2010-10-17T10:00:54Z</time>
      </trkpt>
      <trkpt lat="45.11862" lon="5.25526">
        <ele>246.2</ele>
        <time>2010-10-17T10:00:55Z</time>
      </trkpt>
      <trkpt lat="45.11863" lon="5.25526">
        <ele>245.7</ele>
        <time>2010-10-17T10:00:56Z</time>
      </trkpt>
      <trkpt lat="45.11862" lon="5.25526">
        <ele>245.4</ele>
        <time>2010-10-17T10:00:59Z</time>
      </trkpt>
      <trkpt lat="45.11864" lon="5.25524">
        <ele>245</ele>
        <time>2010-10-17T10:01:00Z</time>
      </trkpt>
      <trkpt lat="45.11866" lon="5.25524">
        <ele>244.9</ele>
        <time>2010-10-17T10:01:01Z</time>
      </trkpt>
      <trkpt lat="45.11868" lon="5.25523">
        <ele>245.1</ele>
        <time>2010-10-17T10:01:03Z</time>
      </trkpt>
      <trkpt lat="45.1187" lon="5.25522">
        <ele>244.4</ele>
        <time>2010-10-17T10:01:04Z</time>
      </trkpt>
      <trkpt lat="45.1187" lon="5.25521">
        <ele>244.5</ele>
        <time>2010-10-17T10:01:08Z</time>
      </trkpt>
      <trkpt lat="45.11872" lon="5.25518">
        <ele>245.1</ele>
        <time>2010-10-17T10:01:08Z</time>
      </trkpt>
      <trkpt lat="45.11874" lon="5.25516">
        <ele>245</ele>
        <time>2010-10-17T10:01:10Z</time>
      </trkpt>
      <trkpt lat="45.11876" lon="5.25515">
        <ele>244.8</ele>
        <time>2010-10-17T10:01:11Z</time>
      </trkpt>
      <trkpt lat="45.11877" lon="5.25514">
        <ele>244.7</ele>
        <time>2010-10-17T10:01:12Z</time>
      </trkpt>
      <trkpt lat="45.11879" lon="5.25511">
        <ele>244.3</ele>
        <time>2010-10-17T10:01:13Z</time>
      </trkpt>
      <trkpt lat="45.11882" lon="5.25509">
        <ele>244.4</ele>
        <time>2010-10-17T10:01:14Z</time>
      </trkpt>
      <trkpt lat="45.11883" lon="5.25507">
        <ele>244.4</ele>
        <time>2010-10-17T10:01:15Z</time>
      </trkpt>
      <trkpt lat="45.11885" lon="5.25506">
        <ele>244.3</ele>
        <time>2010-10-17T10:01:16Z</time>
      </trkpt>
      <trkpt lat="45.11887" lon="5.25504">
        <ele>243.9</ele>
        <time>2010-10-17T10:01:17Z</time>
      </trkpt>
      <trkpt lat="45.11891" lon="5.25499">
        <ele>243.3</ele>
        <time>2010-10-17T10:01:18Z</time>
      </trkpt>
      <trkpt lat="45.11893" lon="5.25495">
        <ele>243.3</ele>
        <time>2010-10-17T10:01:19Z</time>
      </trkpt>
      <trkpt lat="45.11893" lon="5.25493">
        <ele>243.4</ele>
        <time>2010-10-17T10:01:20Z</time>
      </trkpt>
      <trkpt lat="45.11893" lon="5.2549">
        <ele>243.2</ele>
        <time>2010-10-17T10:01:21Z</time>
      </trkpt>
      <trkpt lat="45.11893" lon="5.25488">
        <ele>243.4</ele>
        <time>2010-10-17T10:01:22Z</time>
      </trkpt>
      <trkpt lat="45.11894" lon="5.25486">
        <ele>244.1</ele>
        <time>2010-10-17T10:01:23Z</time>
      </trkpt>
      <trkpt lat="45.11893" lon="5.25484">
        <ele>243.7</ele>
        <time>2010-10-17T10:01:24Z</time>
      </trkpt>
      <trkpt lat="45.11893" lon="5.25482">
        <ele>243.7</ele>
        <time>2010-10-17T10:01:25Z</time>
      </trkpt>
      <trkpt lat="45.11894" lon="5.25481">
        <ele>244</ele>
        <time>2010-10-17T10:01:26Z</time>
      </trkpt>
      <trkpt lat="45.11894" lon="5.25478">
        <ele>244.1</ele>
        <time>2010-10-17T10:01:27Z</time>
      </trkpt>
      <trkpt lat="45.11894" lon="5.25477">
        <ele>244.2</ele>
        <time>2010-10-17T10:01:27Z</time>
      </trkpt>
      <trkpt lat="45.11896" lon="5.25474">
        <ele>243.7</ele>
        <time>2010-10-17T10:01:28Z</time>
      </trkpt>
      <trkpt lat="45.11897" lon="5.25472">
        <ele>243.9</ele>
        <time>2010-10-17T10:01:30Z</time>
      </trkpt>
      <trkpt lat="45.11897" lon="5.25469">
        <ele>244</ele>
        <time>2010-10-17T10:01:31Z</time>
      </trkpt>
      <trkpt lat="45.11897" lon="5.25467">
        <ele>243.8</ele>
        <time>2010-10-17T10:01:32Z</time>
      </trkpt>
      <trkpt lat="45.11897" lon="5.25466">
        <ele>243.9</ele>
        <time>2010-10-17T10:01:33Z</time>
      </trkpt>
      <trkpt lat="45.11898" lon="5.25464">
        <ele>244</ele>
        <time>2010-10-17T10:01:34Z</time>
      </trkpt>
      <trkpt lat="45.11898" lon="5.25462">
        <ele>244.3</ele>
        <time>2010-10-17T10:01:36Z</time>
      </trkpt>
      <trkpt lat="45.119" lon="5.25461">
        <ele>244.6</ele>
        <time>2010-10-17T10:01:37Z</time>
      </trkpt>
      <trkpt lat="45.11902" lon="5.25458">
        <ele>244.7</ele>
        <time>2010-10-17T10:01:38Z</time>
      </trkpt>
      <trkpt lat="45.11903" lon="5.25456">
        <ele>244.4</ele>
        <time>2010-10-17T10:01:39Z</time>
      </trkpt>
      <trkpt lat="45.11905" lon="5.25455">
        <ele>244.8</ele>
        <time>2010-10-17T10:01:40Z</time>
      </trkpt>
      <trkpt lat="45.11905" lon="5.25453">
        <ele>245.1</ele>
        <time>2010-10-17T10:01:41Z</time>
      </trkpt>
      <trkpt lat="45.11905" lon="5.2545">
        <ele>245.4</ele>
        <time>2010-10-17T10:01:42Z</time>
      </trkpt>
      <trkpt lat="45.11905" lon="5.25447">
        <ele>245.6</ele>
        <time>2010-10-17T10:01:43Z</time>
      </trkpt>
      <trkpt lat="45.11906" lon="5.25445">
        <ele>245.1</ele>
        <time>2010-10-17T10:01:44Z</time>
      </trkpt>
      <trkpt lat="45.11905" lon="5.25443">
        <ele>245</ele>
        <time>2010-10-17T10:01:45Z</time>
      </trkpt>
      <trkpt lat="45.11905" lon="5.25441">
        <ele>245</ele>
        <time>2010-10-17T10:01:46Z</time>
      </trkpt>
      <trkpt lat="45.11907" lon="5.2544">
        <ele>245.3</ele>
        <time>2010-10-17T10:01:47Z</time>
      </trkpt>
      <trkpt lat="45.11907" lon="5.25438">
        <ele>245.1</ele>
        <time>2010-10-17T10:01:47Z</time>
      </trkpt>
      <trkpt lat="45.11908" lon="5.25437">
        <ele>245.7</ele>
        <time>2010-10-17T10:01:48Z</time>
      </trkpt>
      <trkpt lat="45.11909" lon="5.25434">
        <ele>246</ele>
        <time>2010-10-17T10:01:50Z</time>
      </trkpt>
      <trkpt lat="45.11911" lon="5.25434">
        <ele>245.4</ele>
        <time>2010-10-17T10:01:51Z</time>
      </trkpt>
      <trkpt lat="45.1191" lon="5.25433">
        <ele>245.7</ele>
        <time>2010-10-17T10:01:52Z</time>
      </trkpt>
      <trkpt lat="45.11909" lon="5.2543">
        <ele>246.4</ele>
        <time>2010-10-17T10:01:53Z</time>
      </trkpt>
      <trkpt lat="45.11909" lon="5.25429">
        <ele>246.1</ele>
        <time>2010-10-17T10:01:54Z</time>
      </trkpt>
      <trkpt lat="45.1191" lon="5.25428">
        <ele>245.7</ele>
        <time>2010-10-17T10:01:55Z</time>
      </trkpt>
      <trkpt lat="45.1191" lon="5.25425">
        <ele>245.7</ele>
        <time>2010-10-17T10:01:56Z</time>
      </trkpt>
      <trkpt lat="45.11911" lon="5.25423">
        <ele>245.3</ele>
        <time>2010-10-17T10:01:57Z</time>
      </trkpt>
      <trkpt lat="45.11914" lon="5.25421">
        <ele>245.7</ele>
        <time>2010-10-17T10:01:58Z</time>
      </trkpt>
      <trkpt lat="45.11914" lon="5.25419">
        <ele>246</ele>
        <time>2010-10-17T10:01:59Z</time>
      </trkpt>
      <trkpt lat="45.11916" lon="5.25418">
        <ele>246.8</ele>
        <time>2010-10-17T10:02:00Z</time>
      </trkpt>
      <trkpt lat="45.11918" lon="5.25415">
        <ele>247.3</ele>
        <time>2010-10-17T10:02:01Z</time>
      </trkpt>
      <trkpt lat="45.11916" lon="5.25415">
        <ele>246.5</ele>
        <time>2010-10-17T10:02:02Z</time>
      </trkpt>
      <trkpt lat="45.11918" lon="5.25414">
        <ele>247.4</ele>
        <time>2010-10-17T10:02:03Z</time>
      </trkpt>
      <trkpt lat="45.1192" lon="5.25414">
        <ele>247.7</ele>
        <time>2010-10-17T10:02:04Z</time>
      </trkpt>
      <trkpt lat="45.11922" lon="5.25414">
        <ele>247.2</ele>
        <time>2010-10-17T10:02:06Z</time>
      </trkpt>
      <trkpt lat="45.11925" lon="5.25413">
        <ele>247.1</ele>
        <time>2010-10-17T10:02:08Z</time>
      </trkpt>
      <trkpt lat="45.11926" lon="5.25412">
        <ele>247.2</ele>
        <time>2010-10-17T10:02:10Z</time>
      </trkpt>
      <trkpt lat="45.11928" lon="5.25413">
        <ele>248.4</ele>
        <time>2010-10-17T10:02:11Z</time>
      </trkpt>
      <trkpt lat="45.11931" lon="5.25413">
        <ele>249.3</ele>
        <time>2010-10-17T10:02:12Z</time>
      </trkpt>
      <trkpt lat="45.11931" lon="5.25412">
        <ele>249.5</ele>
        <time>2010-10-17T10:02:13Z</time>
      </trkpt>
      <trkpt lat="45.11934" lon="5.25412">
        <ele>251.3</ele>
        <time>2010-10-17T10:02:14Z</time>
      </trkpt>
      <trkpt lat="45.11936" lon="5.25412">
        <ele>251.4</ele>
        <time>2010-10-17T10:02:15Z</time>
      </trkpt>
      <trkpt lat="45.11938" lon="5.25412">
        <ele>252.7</ele>
        <time>2010-10-17T10:02:17Z</time>
      </trkpt>
      <trkpt lat="45.1194" lon="5.25413">
        <ele>253.4</ele>
        <time>2010-10-17T10:02:18Z</time>
      </trkpt>
      <trkpt lat="45.11942" lon="5.25412">
        <ele>253.5</ele>
        <time>2010-10-17T10:02:19Z</time>
      </trkpt>
      <trkpt lat="45.11944" lon="5.25412">
        <ele>253.9</ele>
        <time>2010-10-17T10:02:20Z</time>
      </trkpt>
      <trkpt lat="45.11946" lon="5.25412">
        <ele>254.7</ele>
        <time>2010-10-17T10:02:21Z</time>
      </trkpt>
      <trkpt lat="45.11948" lon="5.25412">
        <ele>254.4</ele>
        <time>2010-10-17T10:02:22Z</time>
      </trkpt>
      <trkpt lat="45.1195" lon="5.25412">
        <ele>254.7</ele>
        <time>2010-10-17T10:02:24Z</time>
      </trkpt>
      <trkpt lat="45.11952" lon="5.25411">
        <ele>254.7</ele>
        <time>2010-10-17T10:02:25Z</time>
      </trkpt>
      <trkpt lat="45.11953" lon="5.2541">
        <ele>254.4</ele>
        <time>2010-10-17T10:02:26Z</time>
      </trkpt>
      <trkpt lat="45.11954" lon="5.25408">
        <ele>253.9</ele>
        <time>2010-10-17T10:02:27Z</time>
      </trkpt>
      <trkpt lat="45.11956" lon="5.25406">
        <ele>253.6</ele>
        <time>2010-10-17T10:02:27Z</time>
      </trkpt>
      <trkpt lat="45.11957" lon="5.25407">
        <ele>253.5</ele>
        <time>2010-10-17T10:02:29Z</time>
      </trkpt>
      <trkpt lat="45.11958" lon="5.25406">
        <ele>253.5</ele>
        <time>2010-10-17T10:02:31Z</time>
      </trkpt>
      <trkpt lat="45.11959" lon="5.25405">
        <ele>254.1</ele>
        <time>2010-10-17T10:02:32Z</time>
      </trkpt>
      <trkpt lat="45.1196" lon="5.25406">
        <ele>254.7</ele>
        <time>2010-10-17T10:02:33Z</time>
      </trkpt>
      <trkpt lat="45.1196" lon="5.25404">
        <ele>254.6</ele>
        <time>2010-10-17T10:02:34Z</time>
      </trkpt>
      <trkpt lat="45.11962" lon="5.25402">
        <ele>254.9</ele>
        <time>2010-10-17T10:02:35Z</time>
      </trkpt>
      <trkpt lat="45.11964" lon="5.25402">
        <ele>257</ele>
        <time>2010-10-17T10:02:37Z</time>
      </trkpt>
      <trkpt lat="45.11965" lon="5.25401">
        <ele>257.3</ele>
        <time>2010-10-17T10:02:38Z</time>
      </trkpt>
      <trkpt lat="45.11966" lon="5.25402">
        <ele>257.5</ele>
        <time>2010-10-17T10:02:39Z</time>
      </trkpt>
      <trkpt lat="45.11968" lon="5.25401">
        <ele>258.5</ele>
        <time>2010-10-17T10:02:41Z</time>
      </trkpt>
      <trkpt lat="45.11971" lon="5.25401">
        <ele>258.9</ele>
        <time>2010-10-17T10:02:42Z</time>
      </trkpt>
      <trkpt lat="45.11972" lon="5.25401">
        <ele>259</ele>
        <time>2010-10-17T10:02:43Z</time>
      </trkpt>
      <trkpt lat="45.11973" lon="5.254">
        <ele>259.5</ele>
        <time>2010-10-17T10:02:44Z</time>
      </trkpt>
      <trkpt lat="45.11973" lon="5.25399">
        <ele>260.5</ele>
        <time>2010-10-17T10:02:45Z</time>
      </trkpt>
      <trkpt lat="45.11976" lon="5.25397">
        <ele>261</ele>
        <time>2010-10-17T10:02:46Z</time>
      </trkpt>
      <trkpt lat="45.11977" lon="5.25397">
        <ele>261</ele>
        <time>2010-10-17T10:02:47Z</time>
      </trkpt>
      <trkpt lat="45.11978" lon="5.25396">
        <ele>261.5</ele>
        <time>2010-10-17T10:02:49Z</time>
      </trkpt>
      <trkpt lat="45.1198" lon="5.25397">
        <ele>261.7</ele>
        <time>2010-10-17T10:02:50Z</time>
      </trkpt>
      <trkpt lat="45.11978" lon="5.25398">
        <ele>262</ele>
        <time>2010-10-17T10:02:51Z</time>
      </trkpt>
      <trkpt lat="45.1198" lon="5.25398">
        <ele>262</ele>
        <time>2010-10-17T10:02:52Z</time>
      </trkpt>
      <trkpt lat="45.11982" lon="5.25397">
        <ele>262.2</ele>
        <time>2010-10-17T10:02:53Z</time>
      </trkpt>
      <trkpt lat="45.11982" lon="5.25397">
        <ele>262.2</ele>
        <time>2010-10-17T10:02:54Z</time>
      </trkpt>
      <trkpt lat="45.11979" lon="5.25399">
        <ele>261.8</ele>
        <time>2010-10-17T10:02:55Z</time>
      </trkpt>
      <trkpt lat="45.11978" lon="5.25399">
        <ele>262.6</ele>
        <time>2010-10-17T10:02:56Z</time>
      </trkpt>
      <trkpt lat="45.11977" lon="5.25399">
        <ele>263.2</ele>
        <time>2010-10-17T10:03:07Z</time>
      </trkpt>
      <trkpt lat="45.11977" lon="5.25398">
        <ele>265</ele>
        <time>2010-10-17T10:03:09Z</time>
      </trkpt>
      <trkpt lat="45.11978" lon="5.25398">
        <ele>265.2</ele>
        <time>2010-10-17T10:03:14Z</time>
      </trkpt>
      <trkpt lat="45.11979" lon="5.25397">
        <ele>265</ele>
        <time>2010-10-17T10:03:15Z</time>
      </trkpt>
      <trkpt lat="45.1198" lon="5.25397">
        <ele>265.1</ele>
        <time>2010-10-17T10:03:16Z</time>
      </trkpt>
      <trkpt lat="45.11982" lon="5.25396">
        <ele>265.2</ele>
        <time>2010-10-17T10:03:18Z</time>
      </trkpt>
      <trkpt lat="45.11983" lon="5.25397">
        <ele>265.2</ele>
        <time>2010-10-17T10:03:19Z</time>
      </trkpt>
      <trkpt lat="45.11985" lon="5.25397">
        <ele>265</ele>
        <time>2010-10-17T10:03:20Z</time>
      </trkpt>
      <trkpt lat="45.11987" lon="5.25396">
        <ele>264.9</ele>
        <time>2010-10-17T10:03:21Z</time>
      </trkpt>
      <trkpt lat="45.11989" lon="5.25395">
        <ele>265</ele>
        <time>2010-10-17T10:03:22Z</time>
      </trkpt>
      <trkpt lat="45.11992" lon="5.25394">
        <ele>265.1</ele>
        <time>2010-10-17T10:03:23Z</time>
      </trkpt>
      <trkpt lat="45.11994" lon="5.25393">
        <ele>265.1</ele>
        <time>2010-10-17T10:03:24Z</time>
      </trkpt>
      <trkpt lat="45.11995" lon="5.25393">
        <ele>265</ele>
        <time>2010-10-17T10:03:25Z</time>
      </trkpt>
      <trkpt lat="45.11996" lon="5.25393">
        <ele>265</ele>
        <time>2010-10-17T10:03:26Z</time>
      </trkpt>
      <trkpt lat="45.11998" lon="5.25393">
        <ele>264.6</ele>
        <time>2010-10-17T10:03:27Z</time>
      </trkpt>
      <trkpt lat="45.11999" lon="5.25393">
        <ele>264.8</ele>
        <time>2010-10-17T10:03:29Z</time>
      </trkpt>
      <trkpt lat="45.12002" lon="5.25393">
        <ele>264.7</ele>
        <time>2010-10-17T10:03:30Z</time>
      </trkpt>
      <trkpt lat="45.12003" lon="5.25393">
        <ele>264.9</ele>
        <time>2010-10-17T10:03:31Z</time>
      </trkpt>
      <trkpt lat="45.12004" lon="5.25393">
        <ele>265.2</ele>
        <time>2010-10-17T10:03:32Z</time>
      </trkpt>
      <trkpt lat="45.12005" lon="5.25392">
        <ele>264.8</ele>
        <time>2010-10-17T10:03:33Z</time>
      </trkpt>
      <trkpt lat="45.12007" lon="5.25392">
        <ele>264.6</ele>
        <time>2010-10-17T10:03:34Z</time>
      </trkpt>
      <trkpt lat="45.12008" lon="5.25392">
        <ele>264</ele>
        <time>2010-10-17T10:03:35Z</time>
      </trkpt>
      <trkpt lat="45.1201" lon="5.25391">
        <ele>263.9</ele>
        <time>2010-10-17T10:03:37Z</time>
      </trkpt>
      <trkpt lat="45.12012" lon="5.25391">
        <ele>264.2</ele>
        <time>2010-10-17T10:03:38Z</time>
      </trkpt>
      <trkpt lat="45.12013" lon="5.25391">
        <ele>264.3</ele>
        <time>2010-10-17T10:03:39Z</time>
      </trkpt>
      <trkpt lat="45.12015" lon="5.2539">
        <ele>264.5</ele>
        <time>2010-10-17T10:03:40Z</time>
      </trkpt>
      <trkpt lat="45.12017" lon="5.25389">
        <ele>263.7</ele>
        <time>2010-10-17T10:03:41Z</time>
      </trkpt>
      <trkpt lat="45.12018" lon="5.25389">
        <ele>263.6</ele>
        <time>2010-10-17T10:03:42Z</time>
      </trkpt>
      <trkpt lat="45.1202" lon="5.25388">
        <ele>263.9</ele>
        <time>2010-10-17T10:03:43Z</time>
      </trkpt>
      <trkpt lat="45.12021" lon="5.25388">
        <ele>263.6</ele>
        <time>2010-10-17T10:03:44Z</time>
      </trkpt>
      <trkpt lat="45.12022" lon="5.25388">
        <ele>263.6</ele>
        <time>2010-10-17T10:03:45Z</time>
      </trkpt>
      <trkpt lat="45.12023" lon="5.25388">
        <ele>263.5</ele>
        <time>2010-10-17T10:03:46Z</time>
      </trkpt>
      <trkpt lat="45.12025" lon="5.25388">
        <ele>263.8</ele>
        <time>2010-10-17T10:03:46Z</time>
      </trkpt>
      <trkpt lat="45.12027" lon="5.25387">
        <ele>264.1</ele>
        <time>2010-10-17T10:03:49Z</time>
      </trkpt>
      <trkpt lat="45.12028" lon="5.25387">
        <ele>264.5</ele>
        <time>2010-10-17T10:03:50Z</time>
      </trkpt>
      <trkpt lat="45.12029" lon="5.25386">
        <ele>264.8</ele>
        <time>2010-10-17T10:03:51Z</time>
      </trkpt>
      <trkpt lat="45.12031" lon="5.25385">
        <ele>265.2</ele>
        <time>2010-10-17T10:03:52Z</time>
      </trkpt>
      <trkpt lat="45.12032" lon="5.25385">
        <ele>265</ele>
        <time>2010-10-17T10:03:53Z</time>
      </trkpt>
      <trkpt lat="45.12034" lon="5.25386">
        <ele>265.2</ele>
        <time>2010-10-17T10:03:54Z</time>
      </trkpt>
      <trkpt lat="45.12035" lon="5.25385">
        <ele>265.1</ele>
        <time>2010-10-17T10:03:55Z</time>
      </trkpt>
      <trkpt lat="45.12036" lon="5.25385">
        <ele>265.2</ele>
        <time>2010-10-17T10:03:56Z</time>
      </trkpt>
      <trkpt lat="45.12037" lon="5.25385">
        <ele>265.6</ele>
        <time>2010-10-17T10:03:57Z</time>
      </trkpt>
      <trkpt lat="45.12038" lon="5.25386">
        <ele>265.7</ele>
        <time>2010-10-17T10:03:58Z</time>
      </trkpt>
      <trkpt lat="45.1204" lon="5.25386">
        <ele>266.3</ele>
        <time>2010-10-17T10:04:00Z</time>
      </trkpt>
      <trkpt lat="45.12043" lon="5.25386">
        <ele>266</ele>
        <time>2010-10-17T10:04:02Z</time>
      </trkpt>
      <trkpt lat="45.12045" lon="5.25387">
        <ele>268.1</ele>
        <time>2010-10-17T10:04:04Z</time>
      </trkpt>
      <trkpt lat="45.12046" lon="5.25389">
        <ele>268.5</ele>
        <time>2010-10-17T10:04:05Z</time>
      </trkpt>
      <trkpt lat="45.12047" lon="5.25389">
        <ele>268.6</ele>
        <time>2010-10-17T10:04:06Z</time>
      </trkpt>
      <trkpt lat="45.1205" lon="5.2539">
        <ele>268.3</ele>
        <time>2010-10-17T10:04:06Z</time>
      </trkpt>
      <trkpt lat="45.12051" lon="5.25391">
        <ele>268</ele>
        <time>2010-10-17T10:04:07Z</time>
      </trkpt>
      <trkpt lat="45.12053" lon="5.25391">
        <ele>267.5</ele>
        <time>2010-10-17T10:04:09Z</time>
      </trkpt>
      <trkpt lat="45.12054" lon="5.25393">
        <ele>267.2</ele>
        <time>2010-10-17T10:04:10Z</time>
      </trkpt>
      <trkpt lat="45.12056" lon="5.25394">
        <ele>267.1</ele>
        <time>2010-10-17T10:04:11Z</time>
      </trkpt>
      <trkpt lat="45.12057" lon="5.25395">
        <ele>267.3</ele>
        <time>2010-10-17T10:04:12Z</time>
      </trkpt>
      <trkpt lat="45.12058" lon="5.25395">
        <ele>267.5</ele>
        <time>2010-10-17T10:04:13Z</time>
      </trkpt>
      <trkpt lat="45.1206" lon="5.25396">
        <ele>267.2</ele>
        <time>2010-10-17T10:04:14Z</time>
      </trkpt>
      <trkpt lat="45.12061" lon="5.25396">
        <ele>267.3</ele>
        <time>2010-10-17T10:04:15Z</time>
      </trkpt>
      <trkpt lat="45.12062" lon="5.25396">
        <ele>267.2</ele>
        <time>2010-10-17T10:04:16Z</time>
      </trkpt>
      <trkpt lat="45.12065" lon="5.25395">
        <ele>267.1</ele>
        <time>2010-10-17T10:04:17Z</time>
      </trkpt>
      <trkpt lat="45.12066" lon="5.25395">
        <ele>267.1</ele>
        <time>2010-10-17T10:04:18Z</time>
      </trkpt>
      <trkpt lat="45.12068" lon="5.25395">
        <ele>266.8</ele>
        <time>2010-10-17T10:04:19Z</time>
      </trkpt>
      <trkpt lat="45.12069" lon="5.25396">
        <ele>266.9</ele>
        <time>2010-10-17T10:04:20Z</time>
      </trkpt>
      <trkpt lat="45.12071" lon="5.25398">
        <ele>267.1</ele>
        <time>2010-10-17T10:04:21Z</time>
      </trkpt>
      <trkpt lat="45.12072" lon="5.25399">
        <ele>266.9</ele>
        <time>2010-10-17T10:04:22Z</time>
      </trkpt>
      <trkpt lat="45.12073" lon="5.254">
        <ele>266.7</ele>
        <time>2010-10-17T10:04:23Z</time>
      </trkpt>
      <trkpt lat="45.12075" lon="5.25401">
        <ele>266.6</ele>
        <time>2010-10-17T10:04:24Z</time>
      </trkpt>
      <trkpt lat="45.12075" lon="5.25403">
        <ele>266.9</ele>
        <time>2010-10-17T10:04:26Z</time>
      </trkpt>
      <trkpt lat="45.12076" lon="5.25403">
        <ele>267</ele>
        <time>2010-10-17T10:04:26Z</time>
      </trkpt>
      <trkpt lat="45.12077" lon="5.25405">
        <ele>266.8</ele>
        <time>2010-10-17T10:04:27Z</time>
      </trkpt>
      <trkpt lat="45.12078" lon="5.25406">
        <ele>267.4</ele>
        <time>2010-10-17T10:04:30Z</time>
      </trkpt>
      <trkpt lat="45.12078" lon="5.25408">
        <ele>267.5</ele>
        <time>2010-10-17T10:04:31Z</time>
      </trkpt>
      <trkpt lat="45.12081" lon="5.25407">
        <ele>267.5</ele>
        <time>2010-10-17T10:04:32Z</time>
      </trkpt>
      <trkpt lat="45.12084" lon="5.25405">
        <ele>266.7</ele>
        <time>2010-10-17T10:04:33Z</time>
      </trkpt>
      <trkpt lat="45.12086" lon="5.25405">
        <ele>266.5</ele>
        <time>2010-10-17T10:04:34Z</time>
      </trkpt>
      <trkpt lat="45.12087" lon="5.25405">
        <ele>267.1</ele>
        <time>2010-10-17T10:04:35Z</time>
      </trkpt>
      <trkpt lat="45.12089" lon="5.25405">
        <ele>268.1</ele>
        <time>2010-10-17T10:04:37Z</time>
      </trkpt>
      <trkpt lat="45.1209" lon="5.25405">
        <ele>268.3</ele>
        <time>2010-10-17T10:04:38Z</time>
      </trkpt>
      <trkpt lat="45.12091" lon="5.25405">
        <ele>268.9</ele>
        <time>2010-10-17T10:04:39Z</time>
      </trkpt>
      <trkpt lat="45.12093" lon="5.25405">
        <ele>268.7</ele>
        <time>2010-10-17T10:04:41Z</time>
      </trkpt>
      <trkpt lat="45.12095" lon="5.25406">
        <ele>268.5</ele>
        <time>2010-10-17T10:04:42Z</time>
      </trkpt>
      <trkpt lat="45.12096" lon="5.25408">
        <ele>268.8</ele>
        <time>2010-10-17T10:04:43Z</time>
      </trkpt>
      <trkpt lat="45.12097" lon="5.25408">
        <ele>269.1</ele>
        <time>2010-10-17T10:04:44Z</time>
      </trkpt>
      <trkpt lat="45.121" lon="5.25408">
        <ele>268.6</ele>
        <time>2010-10-17T10:04:45Z</time>
      </trkpt>
      <trkpt lat="45.12102" lon="5.25409">
        <ele>268.1</ele>
        <time>2010-10-17T10:04:46Z</time>
      </trkpt>
      <trkpt lat="45.12103" lon="5.25407">
        <ele>267.5</ele>
        <time>2010-10-17T10:04:48Z</time>
      </trkpt>
      <trkpt lat="45.12103" lon="5.25408">
        <ele>267.8</ele>
        <time>2010-10-17T10:04:49Z</time>
      </trkpt>
      <trkpt lat="45.12103" lon="5.2541">
        <ele>268.3</ele>
        <time>2010-10-17T10:04:50Z</time>
      </trkpt>
      <trkpt lat="45.12105" lon="5.25411">
        <ele>268.2</ele>
        <time>2010-10-17T10:04:52Z</time>
      </trkpt>
      <trkpt lat="45.12107" lon="5.25412">
        <ele>268.9</ele>
        <time>2010-10-17T10:04:54Z</time>
      </trkpt>
      <trkpt lat="45.12107" lon="5.25414">
        <ele>269.3</ele>
        <time>2010-10-17T10:04:55Z</time>
      </trkpt>
      <trkpt lat="45.12109" lon="5.25416">
        <ele>269.6</ele>
        <time>2010-10-17T10:04:56Z</time>
      </trkpt>
      <trkpt lat="45.12109" lon="5.25418">
        <ele>270.2</ele>
        <time>2010-10-17T10:04:57Z</time>
      </trkpt>
      <trkpt lat="45.12111" lon="5.25421">
        <ele>270.2</ele>
        <time>2010-10-17T10:04:59Z</time>
      </trkpt>
      <trkpt lat="45.12112" lon="5.25421">
        <ele>269.8</ele>
        <time>2010-10-17T10:05:00Z</time>
      </trkpt>
      <trkpt lat="45.12114" lon="5.25422">
        <ele>269.9</ele>
        <time>2010-10-17T10:05:01Z</time>
      </trkpt>
      <trkpt lat="45.12115" lon="5.25422">
        <ele>269</ele>
        <time>2010-10-17T10:05:03Z</time>
      </trkpt>
      <trkpt lat="45.12118" lon="5.25422">
        <ele>269</ele>
        <time>2010-10-17T10:05:05Z</time>
      </trkpt>
      <trkpt lat="45.12119" lon="5.25421">
        <ele>269.1</ele>
        <time>2010-10-17T10:05:06Z</time>
      </trkpt>
      <trkpt lat="45.12121" lon="5.2542">
        <ele>269.5</ele>
        <time>2010-10-17T10:05:06Z</time>
      </trkpt>
      <trkpt lat="45.12123" lon="5.25418">
        <ele>269.9</ele>
        <time>2010-10-17T10:05:08Z</time>
      </trkpt>
      <trkpt lat="45.12123" lon="5.25421">
        <ele>270.4</ele>
        <time>2010-10-17T10:05:09Z</time>
      </trkpt>
      <trkpt lat="45.12125" lon="5.25424">
        <ele>270.3</ele>
        <time>2010-10-17T10:05:10Z</time>
      </trkpt>
      <trkpt lat="45.12126" lon="5.25425">
        <ele>270.3</ele>
        <time>2010-10-17T10:05:11Z</time>
      </trkpt>
      <trkpt lat="45.12128" lon="5.25426">
        <ele>270.9</ele>
        <time>2010-10-17T10:05:12Z</time>
      </trkpt>
      <trkpt lat="45.12128" lon="5.25427">
        <ele>270.8</ele>
        <time>2010-10-17T10:05:13Z</time>
      </trkpt>
      <trkpt lat="45.12129" lon="5.25426">
        <ele>271.2</ele>
        <time>2010-10-17T10:05:14Z</time>
      </trkpt>
      <trkpt lat="45.1213" lon="5.25426">
        <ele>271.2</ele>
        <time>2010-10-17T10:05:15Z</time>
      </trkpt>
      <trkpt lat="45.12129" lon="5.25428">
        <ele>271.8</ele>
        <time>2010-10-17T10:05:16Z</time>
      </trkpt>
      <trkpt lat="45.1213" lon="5.25427">
        <ele>271.6</ele>
        <time>2010-10-17T10:05:17Z</time>
      </trkpt>
      <trkpt lat="45.12131" lon="5.25427">
        <ele>272.2</ele>
        <time>2010-10-17T10:05:18Z</time>
      </trkpt>
      <trkpt lat="45.12133" lon="5.25429">
        <ele>273</ele>
        <time>2010-10-17T10:05:19Z</time>
      </trkpt>
      <trkpt lat="45.12134" lon="5.2543">
        <ele>273.8</ele>
        <time>2010-10-17T10:05:20Z</time>
      </trkpt>
      <trkpt lat="45.12136" lon="5.25427">
        <ele>273.3</ele>
        <time>2010-10-17T10:05:21Z</time>
      </trkpt>
      <trkpt lat="45.12137" lon="5.25428">
        <ele>273.3</ele>
        <time>2010-10-17T10:05:22Z</time>
      </trkpt>
      <trkpt lat="45.12139" lon="5.25425">
        <ele>272.5</ele>
        <time>2010-10-17T10:05:23Z</time>
      </trkpt>
      <trkpt lat="45.12141" lon="5.25426">
        <ele>272.6</ele>
        <time>2010-10-17T10:05:24Z</time>
      </trkpt>
      <trkpt lat="45.12143" lon="5.25425">
        <ele>272.8</ele>
        <time>2010-10-17T10:05:25Z</time>
      </trkpt>
      <trkpt lat="45.12145" lon="5.25428">
        <ele>273.4</ele>
        <time>2010-10-17T10:05:26Z</time>
      </trkpt>
      <trkpt lat="45.12146" lon="5.25427">
        <ele>273.8</ele>
        <time>2010-10-17T10:05:28Z</time>
      </trkpt>
      <trkpt lat="45.12148" lon="5.25425">
        <ele>273.6</ele>
        <time>2010-10-17T10:05:29Z</time>
      </trkpt>
      <trkpt lat="45.1215" lon="5.25426">
        <ele>274.4</ele>
        <time>2010-10-17T10:05:31Z</time>
      </trkpt>
      <trkpt lat="45.12153" lon="5.25426">
        <ele>274.6</ele>
        <time>2010-10-17T10:05:32Z</time>
      </trkpt>
      <trkpt lat="45.12155" lon="5.25424">
        <ele>274.4</ele>
        <time>2010-10-17T10:05:34Z</time>
      </trkpt>
      <trkpt lat="45.12155" lon="5.25422">
        <ele>274.8</ele>
        <time>2010-10-17T10:05:35Z</time>
      </trkpt>
      <trkpt lat="45.12153" lon="5.2542">
        <ele>275.3</ele>
        <time>2010-10-17T10:05:36Z</time>
      </trkpt>
      <trkpt lat="45.12154" lon="5.25419">
        <ele>275.5</ele>
        <time>2010-10-17T10:05:37Z</time>
      </trkpt>
      <trkpt lat="45.12158" lon="5.25419">
        <ele>276.3</ele>
        <time>2010-10-17T10:05:38Z</time>
      </trkpt>
      <trkpt lat="45.12157" lon="5.25419">
        <ele>277.5</ele>
        <time>2010-10-17T10:05:39Z</time>
      </trkpt>
      <trkpt lat="45.12157" lon="5.25421">
        <ele>277.4</ele>
        <time>2010-10-17T10:05:40Z</time>
      </trkpt>
      <trkpt lat="45.12157" lon="5.2542">
        <ele>276.8</ele>
        <time>2010-10-17T10:05:45Z</time>
      </trkpt>
      <trkpt lat="45.12158" lon="5.25421">
        <ele>278.8</ele>
        <time>2010-10-17T10:05:46Z</time>
      </trkpt>
      <trkpt lat="45.12158" lon="5.25422">
        <ele>278.9</ele>
        <time>2010-10-17T10:06:01Z</time>
      </trkpt>
      <trkpt lat="45.12157" lon="5.25423">
        <ele>279.8</ele>
        <time>2010-10-17T10:06:02Z</time>
      </trkpt>
      <trkpt lat="45.12157" lon="5.25422">
        <ele>279.6</ele>
        <time>2010-10-17T10:06:03Z</time>
      </trkpt>
      <trkpt lat="45.12157" lon="5.25421">
        <ele>279.6</ele>
        <time>2010-10-17T10:06:04Z</time>
      </trkpt>
      <trkpt lat="45.12157" lon="5.2542">
        <ele>279.7</ele>
        <time>2010-10-17T10:06:05Z</time>
      </trkpt>
      <trkpt lat="45.12158" lon="5.25419">
        <ele>279.5</ele>
        <time>2010-10-17T10:06:06Z</time>
      </trkpt>
      <trkpt lat="45.12159" lon="5.25419">
        <ele>279.3</ele>
        <time>2010-10-17T10:06:10Z</time>
      </trkpt>
      <trkpt lat="45.12161" lon="5.25413">
        <ele>278.7</ele>
        <time>2010-10-17T10:06:11Z</time>
      </trkpt>
      <trkpt lat="45.12164" lon="5.25409">
        <ele>278.8</ele>
        <time>2010-10-17T10:06:12Z</time>
      </trkpt>
      <trkpt lat="45.12167" lon="5.25407">
        <ele>279.1</ele>
        <time>2010-10-17T10:06:13Z</time>
      </trkpt>
      <trkpt lat="45.12169" lon="5.25403">
        <ele>278.7</ele>
        <time>2010-10-17T10:06:14Z</time>
      </trkpt>
      <trkpt lat="45.12171" lon="5.254">
        <ele>278.9</ele>
        <time>2010-10-17T10:06:15Z</time>
      </trkpt>
      <trkpt lat="45.12176" lon="5.25395">
        <ele>278.8</ele>
        <time>2010-10-17T10:06:16Z</time>
      </trkpt>
      <trkpt lat="45.1218" lon="5.25391">
        <ele>279.4</ele>
        <time>2010-10-17T10:06:17Z</time>
      </trkpt>
      <trkpt lat="45.12184" lon="5.25387">
        <ele>279.4</ele>
        <time>2010-10-17T10:06:18Z</time>
      </trkpt>
      <trkpt lat="45.12192" lon="5.25378">
        <ele>279.2</ele>
        <time>2010-10-17T10:06:19Z</time>
      </trkpt>
      <trkpt lat="45.12197" lon="5.25373">
        <ele>279.5</ele>
        <time>2010-10-17T10:06:20Z</time>
      </trkpt>
      <trkpt lat="45.12206" lon="5.25361">
        <ele>279.6</ele>
        <time>2010-10-17T10:06:21Z</time>
      </trkpt>
      <trkpt lat="45.12213" lon="5.25356">
        <ele>280.1</ele>
        <time>2010-10-17T10:06:22Z</time>
      </trkpt>
      <trkpt lat="45.1222" lon="5.25348">
        <ele>280.5</ele>
        <time>2010-10-17T10:06:23Z</time>
      </trkpt>
      <trkpt lat="45.12228" lon="5.25338">
        <ele>280.6</ele>
        <time>2010-10-17T10:06:24Z</time>
      </trkpt>
      <trkpt lat="45.12232" lon="5.25333">
        <ele>280.9</ele>
        <time>2010-10-17T10:06:25Z</time>
      </trkpt>
      <trkpt lat="45.12235" lon="5.25329">
        <ele>280.9</ele>
        <time>2010-10-17T10:06:25Z</time>
      </trkpt>
      <trkpt lat="45.12239" lon="5.25325">
        <ele>280.8</ele>
        <time>2010-10-17T10:06:26Z</time>
      </trkpt>
      <trkpt lat="45.12244" lon="5.25321">
        <ele>280</ele>
        <time>2010-10-17T10:06:28Z</time>
      </trkpt>
      <trkpt lat="45.12248" lon="5.25317">
        <ele>279.6</ele>
        <time>2010-10-17T10:06:29Z</time>
      </trkpt>
      <trkpt lat="45.12253" lon="5.25312">
        <ele>279.5</ele>
        <time>2010-10-17T10:06:30Z</time>
      </trkpt>
      <trkpt lat="45.12256" lon="5.25305">
        <ele>279.5</ele>
        <time>2010-10-17T10:06:31Z</time>
      </trkpt>
      <trkpt lat="45.12257" lon="5.253">
        <ele>279.5</ele>
        <time>2010-10-17T10:06:32Z</time>
      </trkpt>
      <trkpt lat="45.12256" lon="5.25291">
        <ele>278.8</ele>
        <time>2010-10-17T10:06:33Z</time>
      </trkpt>
      <trkpt lat="45.12258" lon="5.25281">
        <ele>279.2</ele>
        <time>2010-10-17T10:06:34Z</time>
      </trkpt>
      <trkpt lat="45.12261" lon="5.2527">
        <ele>279.1</ele>
        <time>2010-10-17T10:06:35Z</time>
      </trkpt>
      <trkpt lat="45.12262" lon="5.25262">
        <ele>279.1</ele>
        <time>2010-10-17T10:06:36Z</time>
      </trkpt>
      <trkpt lat="45.12265" lon="5.25252">
        <ele>278.3</ele>
        <time>2010-10-17T10:06:37Z</time>
      </trkpt>
      <trkpt lat="45.12268" lon="5.25244">
        <ele>278.3</ele>
        <time>2010-10-17T10:06:38Z</time>
      </trkpt>
      <trkpt lat="45.12272" lon="5.25241">
        <ele>278.3</ele>
        <time>2010-10-17T10:06:39Z</time>
      </trkpt>
      <trkpt lat="45.12278" lon="5.25234">
        <ele>278.2</ele>
        <time>2010-10-17T10:06:40Z</time>
      </trkpt>
      <trkpt lat="45.12284" lon="5.25231">
        <ele>277.5</ele>
        <time>2010-10-17T10:06:41Z</time>
      </trkpt>
      <trkpt lat="45.12291" lon="5.25233">
        <ele>277.6</ele>
        <time>2010-10-17T10:06:42Z</time>
      </trkpt>
      <trkpt lat="45.123" lon="5.25233">
        <ele>277.2</ele>
        <time>2010-10-17T10:06:43Z</time>
      </trkpt>
      <trkpt lat="45.12307" lon="5.25236">
        <ele>276.9</ele>
        <time>2010-10-17T10:06:44Z</time>
      </trkpt>
      <trkpt lat="45.12315" lon="5.25239">
        <ele>276.6</ele>
        <time>2010-10-17T10:06:45Z</time>
      </trkpt>
      <trkpt lat="45.12324" lon="5.25241">
        <ele>276.2</ele>
        <time>2010-10-17T10:06:45Z</time>
      </trkpt>
      <trkpt lat="45.12332" lon="5.25244">
        <ele>276.3</ele>
        <time>2010-10-17T10:06:47Z</time>
      </trkpt>
      <trkpt lat="45.1234" lon="5.25246">
        <ele>275</ele>
        <time>2010-10-17T10:06:48Z</time>
      </trkpt>
      <trkpt lat="45.12348" lon="5.25249">
        <ele>274.5</ele>
        <time>2010-10-17T10:06:49Z</time>
      </trkpt>
      <trkpt lat="45.12357" lon="5.2525">
        <ele>273.8</ele>
        <time>2010-10-17T10:06:50Z</time>
      </trkpt>
      <trkpt lat="45.12365" lon="5.25251">
        <ele>273.2</ele>
        <time>2010-10-17T10:06:51Z</time>
      </trkpt>
      <trkpt lat="45.12371" lon="5.25254">
        <ele>272.8</ele>
        <time>2010-10-17T10:06:52Z</time>
      </trkpt>
      <trkpt lat="45.12375" lon="5.25256">
        <ele>272.8</ele>
        <time>2010-10-17T10:06:53Z</time>
      </trkpt>
      <trkpt lat="45.12381" lon="5.25249">
        <ele>272.1</ele>
        <time>2010-10-17T10:06:54Z</time>
      </trkpt>
      <trkpt lat="45.12386" lon="5.25249">
        <ele>271.6</ele>
        <time>2010-10-17T10:06:55Z</time>
      </trkpt>
      <trkpt lat="45.1239" lon="5.25242">
        <ele>270.8</ele>
        <time>2010-10-17T10:06:56Z</time>
      </trkpt>
      <trkpt lat="45.12395" lon="5.25235">
        <ele>269.9</ele>
        <time>2010-10-17T10:06:57Z</time>
      </trkpt>
      <trkpt lat="45.12396" lon="5.25226">
        <ele>269.6</ele>
        <time>2010-10-17T10:06:58Z</time>
      </trkpt>
      <trkpt lat="45.12399" lon="5.25213">
        <ele>269</ele>
        <time>2010-10-17T10:06:59Z</time>
      </trkpt>
      <trkpt lat="45.12401" lon="5.25205">
        <ele>269.4</ele>
        <time>2010-10-17T10:07:00Z</time>
      </trkpt>
      <trkpt lat="45.12404" lon="5.25194">
        <ele>269.2</ele>
        <time>2010-10-17T10:07:01Z</time>
      </trkpt>
      <trkpt lat="45.12406" lon="5.25187">
        <ele>268.5</ele>
        <time>2010-10-17T10:07:02Z</time>
      </trkpt>
      <trkpt lat="45.1241" lon="5.25179">
        <ele>268</ele>
        <time>2010-10-17T10:07:03Z</time>
      </trkpt>
      <trkpt lat="45.12415" lon="5.25176">
        <ele>267.7</ele>
        <time>2010-10-17T10:07:04Z</time>
      </trkpt>
      <trkpt lat="45.1242" lon="5.25173">
        <ele>266.5</ele>
        <time>2010-10-17T10:07:05Z</time>
      </trkpt>
      <trkpt lat="45.12425" lon="5.25172">
        <ele>264.9</ele>
        <time>2010-10-17T10:07:05Z</time>
      </trkpt>
      <trkpt lat="45.1243" lon="5.25173">
        <ele>264.1</ele>
        <time>2010-10-17T10:07:07Z</time>
      </trkpt>
      <trkpt lat="45.12435" lon="5.25174">
        <ele>263.3</ele>
        <time>2010-10-17T10:07:08Z</time>
      </trkpt>
      <trkpt lat="45.1244" lon="5.25176">
        <ele>262.9</ele>
        <time>2010-10-17T10:07:09Z</time>
      </trkpt>
      <trkpt lat="45.12446" lon="5.25177">
        <ele>262.7</ele>
        <time>2010-10-17T10:07:10Z</time>
      </trkpt>
      <trkpt lat="45.1245" lon="5.25179">
        <ele>262.4</ele>
        <time>2010-10-17T10:07:11Z</time>
      </trkpt>
      <trkpt lat="45.12453" lon="5.25183">
        <ele>262.2</ele>
        <time>2010-10-17T10:07:12Z</time>
      </trkpt>
      <trkpt lat="45.12457" lon="5.25186">
        <ele>261.7</ele>
        <time>2010-10-17T10:07:13Z</time>
      </trkpt>
      <trkpt lat="45.12461" lon="5.25188">
        <ele>261.3</ele>
        <time>2010-10-17T10:07:14Z</time>
      </trkpt>
      <trkpt lat="45.12466" lon="5.25187">
        <ele>261.2</ele>
        <time>2010-10-17T10:07:15Z</time>
      </trkpt>
      <trkpt lat="45.12471" lon="5.25184">
        <ele>260.4</ele>
        <time>2010-10-17T10:07:16Z</time>
      </trkpt>
      <trkpt lat="45.12472" lon="5.25181">
        <ele>259.7</ele>
        <time>2010-10-17T10:07:17Z</time>
      </trkpt>
      <trkpt lat="45.12474" lon="5.2518">
        <ele>258.8</ele>
        <time>2010-10-17T10:07:18Z</time>
      </trkpt>
      <trkpt lat="45.12476" lon="5.2518">
        <ele>258.6</ele>
        <time>2010-10-17T10:07:19Z</time>
      </trkpt>
      <trkpt lat="45.12481" lon="5.25176">
        <ele>258.8</ele>
        <time>2010-10-17T10:07:20Z</time>
      </trkpt>
      <trkpt lat="45.12485" lon="5.25173">
        <ele>258.3</ele>
        <time>2010-10-17T10:07:21Z</time>
      </trkpt>
      <trkpt lat="45.1249" lon="5.25169">
        <ele>258.1</ele>
        <time>2010-10-17T10:07:22Z</time>
      </trkpt>
      <trkpt lat="45.12495" lon="5.25166">
        <ele>258.3</ele>
        <time>2010-10-17T10:07:23Z</time>
      </trkpt>
      <trkpt lat="45.12498" lon="5.25161">
        <ele>257.7</ele>
        <time>2010-10-17T10:07:24Z</time>
      </trkpt>
      <trkpt lat="45.125" lon="5.25157">
        <ele>257.5</ele>
        <time>2010-10-17T10:07:25Z</time>
      </trkpt>
      <trkpt lat="45.12501" lon="5.2515">
        <ele>256.8</ele>
        <time>2010-10-17T10:07:25Z</time>
      </trkpt>
      <trkpt lat="45.12504" lon="5.25143">
        <ele>255.6</ele>
        <time>2010-10-17T10:07:27Z</time>
      </trkpt>
      <trkpt lat="45.12506" lon="5.25139">
        <ele>255.9</ele>
        <time>2010-10-17T10:07:28Z</time>
      </trkpt>
      <trkpt lat="45.12508" lon="5.25131">
        <ele>255.8</ele>
        <time>2010-10-17T10:07:29Z</time>
      </trkpt>
      <trkpt lat="45.12509" lon="5.25124">
        <ele>255</ele>
        <time>2010-10-17T10:07:30Z</time>
      </trkpt>
      <trkpt lat="45.12509" lon="5.25117">
        <ele>255.7</ele>
        <time>2010-10-17T10:07:31Z</time>
      </trkpt>
      <trkpt lat="45.12509" lon="5.25114">
        <ele>255.8</ele>
        <time>2010-10-17T10:07:32Z</time>
      </trkpt>
      <trkpt lat="45.12511" lon="5.25111">
        <ele>255.4</ele>
        <time>2010-10-17T10:07:33Z</time>
      </trkpt>
      <trkpt lat="45.12513" lon="5.2511">
        <ele>254.2</ele>
        <time>2010-10-17T10:07:34Z</time>
      </trkpt>
      <trkpt lat="45.12512" lon="5.25112">
        <ele>253</ele>
        <time>2010-10-17T10:07:35Z</time>
      </trkpt>
      <trkpt lat="45.12513" lon="5.25111">
        <ele>253.1</ele>
        <time>2010-10-17T10:07:36Z</time>
      </trkpt>
      <trkpt lat="45.12514" lon="5.25112">
        <ele>251.6</ele>
        <time>2010-10-17T10:07:37Z</time>
      </trkpt>
      <trkpt lat="45.12513" lon="5.25112">
        <ele>251.1</ele>
        <time>2010-10-17T10:07:38Z</time>
      </trkpt>
      <trkpt lat="45.12514" lon="5.25112">
        <ele>251.6</ele>
        <time>2010-10-17T10:07:39Z</time>
      </trkpt>
      <trkpt lat="45.12514" lon="5.25112">
        <ele>251.3</ele>
        <time>2010-10-17T10:08:21Z</time>
      </trkpt>
      <trkpt lat="45.12515" lon="5.2511">
        <ele>251.4</ele>
        <time>2010-10-17T10:08:22Z</time>
      </trkpt>
      <trkpt lat="45.12518" lon="5.25109">
        <ele>251</ele>
        <time>2010-10-17T10:08:24Z</time>
      </trkpt>
      <trkpt lat="45.1252" lon="5.25104">
        <ele>249.7</ele>
        <time>2010-10-17T10:08:24Z</time>
      </trkpt>
      <trkpt lat="45.12523" lon="5.25103">
        <ele>249.4</ele>
        <time>2010-10-17T10:08:25Z</time>
      </trkpt>
      <trkpt lat="45.12525" lon="5.25102">
        <ele>249.2</ele>
        <time>2010-10-17T10:08:27Z</time>
      </trkpt>
      <trkpt lat="45.12527" lon="5.251">
        <ele>248.9</ele>
        <time>2010-10-17T10:08:28Z</time>
      </trkpt>
      <trkpt lat="45.12529" lon="5.25099">
        <ele>248.9</ele>
        <time>2010-10-17T10:08:29Z</time>
      </trkpt>
      <trkpt lat="45.12531" lon="5.25098">
        <ele>249.1</ele>
        <time>2010-10-17T10:08:30Z</time>
      </trkpt>
      <trkpt lat="45.12533" lon="5.25095">
        <ele>248.9</ele>
        <time>2010-10-17T10:08:31Z</time>
      </trkpt>
      <trkpt lat="45.12535" lon="5.25091">
        <ele>249</ele>
        <time>2010-10-17T10:08:32Z</time>
      </trkpt>
      <trkpt lat="45.12537" lon="5.25085">
        <ele>249</ele>
        <time>2010-10-17T10:08:33Z</time>
      </trkpt>
      <trkpt lat="45.12539" lon="5.2508">
        <ele>248.9</ele>
        <time>2010-10-17T10:08:34Z</time>
      </trkpt>
      <trkpt lat="45.12542" lon="5.25074">
        <ele>248.5</ele>
        <time>2010-10-17T10:08:35Z</time>
      </trkpt>
      <trkpt lat="45.12546" lon="5.25069">
        <ele>248.3</ele>
        <time>2010-10-17T10:08:36Z</time>
      </trkpt>
      <trkpt lat="45.12548" lon="5.25062">
        <ele>249.2</ele>
        <time>2010-10-17T10:08:37Z</time>
      </trkpt>
      <trkpt lat="45.12552" lon="5.25056">
        <ele>249.4</ele>
        <time>2010-10-17T10:08:38Z</time>
      </trkpt>
      <trkpt lat="45.12554" lon="5.25049">
        <ele>249.3</ele>
        <time>2010-10-17T10:08:39Z</time>
      </trkpt>
      <trkpt lat="45.12556" lon="5.2504">
        <ele>248.8</ele>
        <time>2010-10-17T10:08:40Z</time>
      </trkpt>
      <trkpt lat="45.12557" lon="5.2503">
        <ele>248.6</ele>
        <time>2010-10-17T10:08:41Z</time>
      </trkpt>
      <trkpt lat="45.12558" lon="5.25019">
        <ele>247.3</ele>
        <time>2010-10-17T10:08:42Z</time>
      </trkpt>
      <trkpt lat="45.1256" lon="5.25011">
        <ele>247.3</ele>
        <time>2010-10-17T10:08:43Z</time>
      </trkpt>
      <trkpt lat="45.12559" lon="5.25003">
        <ele>247.5</ele>
        <time>2010-10-17T10:08:44Z</time>
      </trkpt>
      <trkpt lat="45.12559" lon="5.24997">
        <ele>247</ele>
        <time>2010-10-17T10:08:44Z</time>
      </trkpt>
      <trkpt lat="45.12558" lon="5.24991">
        <ele>247.1</ele>
        <time>2010-10-17T10:08:45Z</time>
      </trkpt>
      <trkpt lat="45.12555" lon="5.24985">
        <ele>247</ele>
        <time>2010-10-17T10:08:47Z</time>
      </trkpt>
      <trkpt lat="45.12552" lon="5.24978">
        <ele>246.7</ele>
        <time>2010-10-17T10:08:48Z</time>
      </trkpt>
      <trkpt lat="45.12548" lon="5.24973">
        <ele>246.6</ele>
        <time>2010-10-17T10:08:49Z</time>
      </trkpt>
      <trkpt lat="45.12543" lon="5.24966">
        <ele>246.4</ele>
        <time>2010-10-17T10:08:50Z</time>
      </trkpt>
      <trkpt lat="45.12539" lon="5.24954">
        <ele>246.3</ele>
        <time>2010-10-17T10:08:51Z</time>
      </trkpt>
      <trkpt lat="45.12533" lon="5.24949">
        <ele>245.5</ele>
        <time>2010-10-17T10:08:52Z</time>
      </trkpt>
      <trkpt lat="45.12527" lon="5.24945">
        <ele>244.9</ele>
        <time>2010-10-17T10:08:53Z</time>
      </trkpt>
      <trkpt lat="45.12522" lon="5.24942">
        <ele>244.6</ele>
        <time>2010-10-17T10:08:54Z</time>
      </trkpt>
      <trkpt lat="45.12516" lon="5.24938">
        <ele>244.4</ele>
        <time>2010-10-17T10:08:55Z</time>
      </trkpt>
      <trkpt lat="45.12512" lon="5.24937">
        <ele>243.6</ele>
        <time>2010-10-17T10:08:56Z</time>
      </trkpt>
      <trkpt lat="45.12508" lon="5.24934">
        <ele>243.3</ele>
        <time>2010-10-17T10:08:57Z</time>
      </trkpt>
      <trkpt lat="45.12504" lon="5.24931">
        <ele>243.2</ele>
        <time>2010-10-17T10:08:58Z</time>
      </trkpt>
      <trkpt lat="45.12499" lon="5.24927">
        <ele>242.7</ele>
        <time>2010-10-17T10:08:59Z</time>
      </trkpt>
      <trkpt lat="45.12494" lon="5.24923">
        <ele>242.5</ele>
        <time>2010-10-17T10:09:00Z</time>
      </trkpt>
      <trkpt lat="45.12491" lon="5.2492">
        <ele>242.5</ele>
        <time>2010-10-17T10:09:01Z</time>
      </trkpt>
      <trkpt lat="45.12487" lon="5.24918">
        <ele>242.1</ele>
        <time>2010-10-17T10:09:02Z</time>
      </trkpt>
      <trkpt lat="45.12484" lon="5.24917">
        <ele>242.4</ele>
        <time>2010-10-17T10:09:03Z</time>
      </trkpt>
      <trkpt lat="45.12481" lon="5.24916">
        <ele>242.3</ele>
        <time>2010-10-17T10:09:04Z</time>
      </trkpt>
      <trkpt lat="45.12477" lon="5.24916">
        <ele>242.6</ele>
        <time>2010-10-17T10:09:04Z</time>
      </trkpt>
      <trkpt lat="45.12474" lon="5.24915">
        <ele>241.7</ele>
        <time>2010-10-17T10:09:06Z</time>
      </trkpt>
      <trkpt lat="45.1247" lon="5.24914">
        <ele>241.7</ele>
        <time>2010-10-17T10:09:07Z</time>
      </trkpt>
      <trkpt lat="45.12466" lon="5.24912">
        <ele>241.8</ele>
        <time>2010-10-17T10:09:08Z</time>
      </trkpt>
      <trkpt lat="45.12463" lon="5.2491">
        <ele>241.9</ele>
        <time>2010-10-17T10:09:09Z</time>
      </trkpt>
      <trkpt lat="45.1246" lon="5.24909">
        <ele>241.8</ele>
        <time>2010-10-17T10:09:10Z</time>
      </trkpt>
      <trkpt lat="45.12457" lon="5.24907">
        <ele>241.9</ele>
        <time>2010-10-17T10:09:11Z</time>
      </trkpt>
      <trkpt lat="45.12455" lon="5.24905">
        <ele>241.4</ele>
        <time>2010-10-17T10:09:12Z</time>
      </trkpt>
      <trkpt lat="45.12452" lon="5.24903">
        <ele>240.8</ele>
        <time>2010-10-17T10:09:13Z</time>
      </trkpt>
      <trkpt lat="45.12447" lon="5.24902">
        <ele>240.5</ele>
        <time>2010-10-17T10:09:14Z</time>
      </trkpt>
      <trkpt lat="45.12443" lon="5.249">
        <ele>239.3</ele>
        <time>2010-10-17T10:09:15Z</time>
      </trkpt>
      <trkpt lat="45.1244" lon="5.24898">
        <ele>239.1</ele>
        <time>2010-10-17T10:09:16Z</time>
      </trkpt>
      <trkpt lat="45.12437" lon="5.24896">
        <ele>238.9</ele>
        <time>2010-10-17T10:09:17Z</time>
      </trkpt>
      <trkpt lat="45.12434" lon="5.24894">
        <ele>239.2</ele>
        <time>2010-10-17T10:09:18Z</time>
      </trkpt>
      <trkpt lat="45.12431" lon="5.24893">
        <ele>239.1</ele>
        <time>2010-10-17T10:09:19Z</time>
      </trkpt>
      <trkpt lat="45.12429" lon="5.24891">
        <ele>239.4</ele>
        <time>2010-10-17T10:09:20Z</time>
      </trkpt>
      <trkpt lat="45.12427" lon="5.24887">
        <ele>239.2</ele>
        <time>2010-10-17T10:09:21Z</time>
      </trkpt>
      <trkpt lat="45.12424" lon="5.24886">
        <ele>239.1</ele>
        <time>2010-10-17T10:09:22Z</time>
      </trkpt>
      <trkpt lat="45.12423" lon="5.24881">
        <ele>239.1</ele>
        <time>2010-10-17T10:09:23Z</time>
      </trkpt>
      <trkpt lat="45.12421" lon="5.24879">
        <ele>239.1</ele>
        <time>2010-10-17T10:09:24Z</time>
      </trkpt>
      <trkpt lat="45.12418" lon="5.24879">
        <ele>239.2</ele>
        <time>2010-10-17T10:09:24Z</time>
      </trkpt>
      <trkpt lat="45.12415" lon="5.24879">
        <ele>239.4</ele>
        <time>2010-10-17T10:09:26Z</time>
      </trkpt>
      <trkpt lat="45.12413" lon="5.24878">
        <ele>240</ele>
        <time>2010-10-17T10:09:27Z</time>
      </trkpt>
      <trkpt lat="45.1241" lon="5.24877">
        <ele>240.2</ele>
        <time>2010-10-17T10:09:28Z</time>
      </trkpt>
      <trkpt lat="45.12406" lon="5.24877">
        <ele>241.4</ele>
        <time>2010-10-17T10:09:29Z</time>
      </trkpt>
      <trkpt lat="45.12402" lon="5.24877">
        <ele>242.6</ele>
        <time>2010-10-17T10:09:30Z</time>
      </trkpt>
      <trkpt lat="45.12399" lon="5.24876">
        <ele>242.7</ele>
        <time>2010-10-17T10:09:31Z</time>
      </trkpt>
      <trkpt lat="45.12397" lon="5.24875">
        <ele>242.3</ele>
        <time>2010-10-17T10:09:32Z</time>
      </trkpt>
      <trkpt lat="45.12395" lon="5.24874">
        <ele>242.5</ele>
        <time>2010-10-17T10:09:33Z</time>
      </trkpt>
      <trkpt lat="45.12392" lon="5.24873">
        <ele>242.7</ele>
        <time>2010-10-17T10:09:34Z</time>
      </trkpt>
      <trkpt lat="45.1239" lon="5.24872">
        <ele>242.9</ele>
        <time>2010-10-17T10:09:35Z</time>
      </trkpt>
      <trkpt lat="45.12388" lon="5.2487">
        <ele>243.1</ele>
        <time>2010-10-17T10:09:36Z</time>
      </trkpt>
      <trkpt lat="45.12386" lon="5.2487">
        <ele>243.3</ele>
        <time>2010-10-17T10:09:37Z</time>
      </trkpt>
      <trkpt lat="45.12384" lon="5.24868">
        <ele>243.3</ele>
        <time>2010-10-17T10:09:38Z</time>
      </trkpt>
      <trkpt lat="45.12382" lon="5.24868">
        <ele>243.1</ele>
        <time>2010-10-17T10:09:39Z</time>
      </trkpt>
      <trkpt lat="45.1238" lon="5.24868">
        <ele>243.4</ele>
        <time>2010-10-17T10:09:40Z</time>
      </trkpt>
      <trkpt lat="45.12379" lon="5.24866">
        <ele>243.2</ele>
        <time>2010-10-17T10:09:41Z</time>
      </trkpt>
      <trkpt lat="45.12377" lon="5.24864">
        <ele>243.3</ele>
        <time>2010-10-17T10:09:42Z</time>
      </trkpt>
      <trkpt lat="45.12375" lon="5.24865">
        <ele>243.6</ele>
        <time>2010-10-17T10:09:43Z</time>
      </trkpt>
      <trkpt lat="45.12371" lon="5.24864">
        <ele>244.6</ele>
        <time>2010-10-17T10:09:44Z</time>
      </trkpt>
      <trkpt lat="45.1237" lon="5.24862">
        <ele>244.3</ele>
        <time>2010-10-17T10:09:44Z</time>
      </trkpt>
      <trkpt lat="45.12367" lon="5.24861">
        <ele>244.3</ele>
        <time>2010-10-17T10:09:46Z</time>
      </trkpt>
      <trkpt lat="45.12365" lon="5.24863">
        <ele>244.5</ele>
        <time>2010-10-17T10:09:47Z</time>
      </trkpt>
      <trkpt lat="45.12362" lon="5.24862">
        <ele>244.2</ele>
        <time>2010-10-17T10:09:48Z</time>
      </trkpt>
      <trkpt lat="45.1236" lon="5.24861">
        <ele>244.8</ele>
        <time>2010-10-17T10:09:49Z</time>
      </trkpt>
      <trkpt lat="45.12358" lon="5.24861">
        <ele>244.4</ele>
        <time>2010-10-17T10:09:50Z</time>
      </trkpt>
      <trkpt lat="45.12357" lon="5.2486">
        <ele>244.8</ele>
        <time>2010-10-17T10:09:51Z</time>
      </trkpt>
      <trkpt lat="45.12353" lon="5.2486">
        <ele>245.3</ele>
        <time>2010-10-17T10:09:52Z</time>
      </trkpt>
      <trkpt lat="45.12351" lon="5.24859">
        <ele>245.6</ele>
        <time>2010-10-17T10:09:53Z</time>
      </trkpt>
      <trkpt lat="45.12348" lon="5.24858">
        <ele>245.5</ele>
        <time>2010-10-17T10:09:54Z</time>
      </trkpt>
      <trkpt lat="45.12345" lon="5.24857">
        <ele>246.6</ele>
        <time>2010-10-17T10:09:55Z</time>
      </trkpt>
      <trkpt lat="45.12342" lon="5.24857">
        <ele>247.1</ele>
        <time>2010-10-17T10:09:56Z</time>
      </trkpt>
      <trkpt lat="45.1234" lon="5.24856">
        <ele>246.8</ele>
        <time>2010-10-17T10:09:57Z</time>
      </trkpt>
      <trkpt lat="45.12338" lon="5.24855">
        <ele>246.8</ele>
        <time>2010-10-17T10:09:58Z</time>
      </trkpt>
      <trkpt lat="45.12337" lon="5.24853">
        <ele>247.2</ele>
        <time>2010-10-17T10:09:59Z</time>
      </trkpt>
      <trkpt lat="45.12335" lon="5.24851">
        <ele>246.8</ele>
        <time>2010-10-17T10:10:00Z</time>
      </trkpt>
      <trkpt lat="45.12333" lon="5.2485">
        <ele>246</ele>
        <time>2010-10-17T10:10:02Z</time>
      </trkpt>
      <trkpt lat="45.12332" lon="5.2485">
        <ele>245.8</ele>
        <time>2010-10-17T10:10:03Z</time>
      </trkpt>
      <trkpt lat="45.1233" lon="5.24848">
        <ele>245.5</ele>
        <time>2010-10-17T10:10:04Z</time>
      </trkpt>
      <trkpt lat="45.12328" lon="5.24849">
        <ele>245.7</ele>
        <time>2010-10-17T10:10:04Z</time>
      </trkpt>
      <trkpt lat="45.12327" lon="5.24847">
        <ele>245.8</ele>
        <time>2010-10-17T10:10:07Z</time>
      </trkpt>
      <trkpt lat="45.12326" lon="5.24847">
        <ele>246.2</ele>
        <time>2010-10-17T10:10:08Z</time>
      </trkpt>
      <trkpt lat="45.12323" lon="5.24846">
        <ele>246.7</ele>
        <time>2010-10-17T10:10:09Z</time>
      </trkpt>
      <trkpt lat="45.12321" lon="5.24845">
        <ele>246.4</ele>
        <time>2010-10-17T10:10:10Z</time>
      </trkpt>
      <trkpt lat="45.12319" lon="5.24844">
        <ele>245.9</ele>
        <time>2010-10-17T10:10:11Z</time>
      </trkpt>
      <trkpt lat="45.12316" lon="5.24844">
        <ele>247.4</ele>
        <time>2010-10-17T10:10:12Z</time>
      </trkpt>
      <trkpt lat="45.12314" lon="5.24844">
        <ele>247.2</ele>
        <time>2010-10-17T10:10:13Z</time>
      </trkpt>
      <trkpt lat="45.1231" lon="5.24843">
        <ele>248</ele>
        <time>2010-10-17T10:10:14Z</time>
      </trkpt>
      <trkpt lat="45.12308" lon="5.24843">
        <ele>248.8</ele>
        <time>2010-10-17T10:10:15Z</time>
      </trkpt>
      <trkpt lat="45.12306" lon="5.24843">
        <ele>249.2</ele>
        <time>2010-10-17T10:10:16Z</time>
      </trkpt>
      <trkpt lat="45.12304" lon="5.24842">
        <ele>249.5</ele>
        <time>2010-10-17T10:10:17Z</time>
      </trkpt>
      <trkpt lat="45.12302" lon="5.24842">
        <ele>249.5</ele>
        <time>2010-10-17T10:10:18Z</time>
      </trkpt>
      <trkpt lat="45.12301" lon="5.2484">
        <ele>248.9</ele>
        <time>2010-10-17T10:10:19Z</time>
      </trkpt>
      <trkpt lat="45.123" lon="5.24839">
        <ele>250</ele>
        <time>2010-10-17T10:10:20Z</time>
      </trkpt>
      <trkpt lat="45.12298" lon="5.24839">
        <ele>250.5</ele>
        <time>2010-10-17T10:10:21Z</time>
      </trkpt>
      <trkpt lat="45.12296" lon="5.24838">
        <ele>250.4</ele>
        <time>2010-10-17T10:10:22Z</time>
      </trkpt>
      <trkpt lat="45.12294" lon="5.24838">
        <ele>250.4</ele>
        <time>2010-10-17T10:10:23Z</time>
      </trkpt>
      <trkpt lat="45.12293" lon="5.24837">
        <ele>251.3</ele>
        <time>2010-10-17T10:10:23Z</time>
      </trkpt>
      <trkpt lat="45.12291" lon="5.24836">
        <ele>251.6</ele>
        <time>2010-10-17T10:10:24Z</time>
      </trkpt>
      <trkpt lat="45.12289" lon="5.24835">
        <ele>251.2</ele>
        <time>2010-10-17T10:10:26Z</time>
      </trkpt>
      <trkpt lat="45.12288" lon="5.24834">
        <ele>250.9</ele>
        <time>2010-10-17T10:10:27Z</time>
      </trkpt>
      <trkpt lat="45.12285" lon="5.24832">
        <ele>250.7</ele>
        <time>2010-10-17T10:10:29Z</time>
      </trkpt>
      <trkpt lat="45.12283" lon="5.24832">
        <ele>250.8</ele>
        <time>2010-10-17T10:10:30Z</time>
      </trkpt>
      <trkpt lat="45.12282" lon="5.2483">
        <ele>250.5</ele>
        <time>2010-10-17T10:10:31Z</time>
      </trkpt>
      <trkpt lat="45.1228" lon="5.24829">
        <ele>249.7</ele>
        <time>2010-10-17T10:10:32Z</time>
      </trkpt>
      <trkpt lat="45.12278" lon="5.24827">
        <ele>249.7</ele>
        <time>2010-10-17T10:10:33Z</time>
      </trkpt>
      <trkpt lat="45.12277" lon="5.24826">
        <ele>249.9</ele>
        <time>2010-10-17T10:10:34Z</time>
      </trkpt>
      <trkpt lat="45.12278" lon="5.24827">
        <ele>250.9</ele>
        <time>2010-10-17T10:10:35Z</time>
      </trkpt>
      <trkpt lat="45.12276" lon="5.24826">
        <ele>250.8</ele>
        <time>2010-10-17T10:10:37Z</time>
      </trkpt>
      <trkpt lat="45.12275" lon="5.24827">
        <ele>251.5</ele>
        <time>2010-10-17T10:10:38Z</time>
      </trkpt>
      <trkpt lat="45.12272" lon="5.24825">
        <ele>251.2</ele>
        <time>2010-10-17T10:10:39Z</time>
      </trkpt>
      <trkpt lat="45.12271" lon="5.24822">
        <ele>251</ele>
        <time>2010-10-17T10:10:40Z</time>
      </trkpt>
      <trkpt lat="45.12268" lon="5.24821">
        <ele>251.4</ele>
        <time>2010-10-17T10:10:41Z</time>
      </trkpt>
      <trkpt lat="45.12268" lon="5.24819">
        <ele>250.6</ele>
        <time>2010-10-17T10:10:42Z</time>
      </trkpt>
      <trkpt lat="45.12267" lon="5.24817">
        <ele>250.5</ele>
        <time>2010-10-17T10:10:43Z</time>
      </trkpt>
      <trkpt lat="45.12265" lon="5.24815">
        <ele>250.7</ele>
        <time>2010-10-17T10:10:43Z</time>
      </trkpt>
      <trkpt lat="45.12265" lon="5.24813">
        <ele>251.4</ele>
        <time>2010-10-17T10:10:44Z</time>
      </trkpt>
      <trkpt lat="45.12264" lon="5.2481">
        <ele>250.3</ele>
        <time>2010-10-17T10:10:46Z</time>
      </trkpt>
      <trkpt lat="45.12262" lon="5.24807">
        <ele>250.2</ele>
        <time>2010-10-17T10:10:47Z</time>
      </trkpt>
      <trkpt lat="45.1226" lon="5.24805">
        <ele>250.9</ele>
        <time>2010-10-17T10:10:48Z</time>
      </trkpt>
      <trkpt lat="45.12258" lon="5.24803">
        <ele>251.5</ele>
        <time>2010-10-17T10:10:49Z</time>
      </trkpt>
      <trkpt lat="45.12257" lon="5.24801">
        <ele>250.6</ele>
        <time>2010-10-17T10:10:50Z</time>
      </trkpt>
      <trkpt lat="45.12256" lon="5.24799">
        <ele>250.8</ele>
        <time>2010-10-17T10:10:52Z</time>
      </trkpt>
      <trkpt lat="45.12254" lon="5.24796">
        <ele>250.5</ele>
        <time>2010-10-17T10:10:53Z</time>
      </trkpt>
      <trkpt lat="45.12253" lon="5.24795">
        <ele>250.3</ele>
        <time>2010-10-17T10:10:54Z</time>
      </trkpt>
      <trkpt lat="45.12253" lon="5.24795">
        <ele>251.2</ele>
        <time>2010-10-17T10:10:56Z</time>
      </trkpt>
      <trkpt lat="45.12251" lon="5.24791">
        <ele>251.4</ele>
        <time>2010-10-17T10:10:57Z</time>
      </trkpt>
      <trkpt lat="45.12251" lon="5.24789">
        <ele>251.6</ele>
        <time>2010-10-17T10:10:58Z</time>
      </trkpt>
      <trkpt lat="45.1225" lon="5.24784">
        <ele>251</ele>
        <time>2010-10-17T10:10:59Z</time>
      </trkpt>
      <trkpt lat="45.12249" lon="5.24781">
        <ele>250.8</ele>
        <time>2010-10-17T10:11:00Z</time>
      </trkpt>
      <trkpt lat="45.12248" lon="5.24779">
        <ele>250.6</ele>
        <time>2010-10-17T10:11:01Z</time>
      </trkpt>
      <trkpt lat="45.12247" lon="5.24776">
        <ele>252.1</ele>
        <time>2010-10-17T10:11:02Z</time>
      </trkpt>
      <trkpt lat="45.12248" lon="5.24775">
        <ele>252.4</ele>
        <time>2010-10-17T10:11:03Z</time>
      </trkpt>
      <trkpt lat="45.12248" lon="5.24772">
        <ele>252.4</ele>
        <time>2010-10-17T10:11:03Z</time>
      </trkpt>
      <trkpt lat="45.12248" lon="5.24769">
        <ele>253.1</ele>
        <time>2010-10-17T10:11:04Z</time>
      </trkpt>
      <trkpt lat="45.12248" lon="5.24767">
        <ele>253.7</ele>
        <time>2010-10-17T10:11:06Z</time>
      </trkpt>
      <trkpt lat="45.12248" lon="5.24763">
        <ele>254</ele>
        <time>2010-10-17T10:11:07Z</time>
      </trkpt>
      <trkpt lat="45.12248" lon="5.24761">
        <ele>253.9</ele>
        <time>2010-10-17T10:11:08Z</time>
      </trkpt>
      <trkpt lat="45.12248" lon="5.24758">
        <ele>254</ele>
        <time>2010-10-17T10:11:09Z</time>
      </trkpt>
      <trkpt lat="45.12248" lon="5.24755">
        <ele>253.6</ele>
        <time>2010-10-17T10:11:10Z</time>
      </trkpt>
      <trkpt lat="45.12247" lon="5.24752">
        <ele>253.1</ele>
        <time>2010-10-17T10:11:11Z</time>
      </trkpt>
      <trkpt lat="45.12245" lon="5.24747">
        <ele>253.7</ele>
        <time>2010-10-17T10:11:12Z</time>
      </trkpt>
      <trkpt lat="45.12244" lon="5.24743">
        <ele>253.6</ele>
        <time>2010-10-17T10:11:13Z</time>
      </trkpt>
      <trkpt lat="45.12243" lon="5.2474">
        <ele>253.8</ele>
        <time>2010-10-17T10:11:14Z</time>
      </trkpt>
      <trkpt lat="45.12242" lon="5.24737">
        <ele>255.4</ele>
        <time>2010-10-17T10:11:15Z</time>
      </trkpt>
      <trkpt lat="45.12241" lon="5.24731">
        <ele>254.7</ele>
        <time>2010-10-17T10:11:16Z</time>
      </trkpt>
      <trkpt lat="45.12239" lon="5.24725">
        <ele>256.3</ele>
        <time>2010-10-17T10:11:17Z</time>
      </trkpt>
      <trkpt lat="45.12239" lon="5.24721">
        <ele>256.6</ele>
        <time>2010-10-17T10:11:18Z</time>
      </trkpt>
      <trkpt lat="45.12239" lon="5.24716">
        <ele>256.7</ele>
        <time>2010-10-17T10:11:19Z</time>
      </trkpt>
      <trkpt lat="45.12239" lon="5.24712">
        <ele>255.5</ele>
        <time>2010-10-17T10:11:20Z</time>
      </trkpt>
      <trkpt lat="45.12238" lon="5.24709">
        <ele>255.7</ele>
        <time>2010-10-17T10:11:21Z</time>
      </trkpt>
      <trkpt lat="45.12237" lon="5.24705">
        <ele>255.4</ele>
        <time>2010-10-17T10:11:22Z</time>
      </trkpt>
      <trkpt lat="45.12236" lon="5.24699">
        <ele>255.9</ele>
        <time>2010-10-17T10:11:23Z</time>
      </trkpt>
      <trkpt lat="45.12234" lon="5.24694">
        <ele>257.5</ele>
        <time>2010-10-17T10:11:23Z</time>
      </trkpt>
      <trkpt lat="45.12234" lon="5.2469">
        <ele>257.1</ele>
        <time>2010-10-17T10:11:25Z</time>
      </trkpt>
      <trkpt lat="45.12235" lon="5.24687">
        <ele>256.9</ele>
        <time>2010-10-17T10:11:26Z</time>
      </trkpt>
      <trkpt lat="45.12235" lon="5.24682">
        <ele>256.6</ele>
        <time>2010-10-17T10:11:27Z</time>
      </trkpt>
      <trkpt lat="45.12235" lon="5.24679">
        <ele>256.8</ele>
        <time>2010-10-17T10:11:28Z</time>
      </trkpt>
      <trkpt lat="45.12236" lon="5.24676">
        <ele>256.4</ele>
        <time>2010-10-17T10:11:29Z</time>
      </trkpt>
      <trkpt lat="45.12236" lon="5.24674">
        <ele>256.2</ele>
        <time>2010-10-17T10:11:30Z</time>
      </trkpt>
      <trkpt lat="45.12237" lon="5.24669">
        <ele>257.4</ele>
        <time>2010-10-17T10:11:31Z</time>
      </trkpt>
      <trkpt lat="45.12237" lon="5.24667">
        <ele>256.6</ele>
        <time>2010-10-17T10:11:32Z</time>
      </trkpt>
      <trkpt lat="45.12237" lon="5.24661">
        <ele>256.6</ele>
        <time>2010-10-17T10:11:33Z</time>
      </trkpt>
      <trkpt lat="45.12237" lon="5.24658">
        <ele>256.5</ele>
        <time>2010-10-17T10:11:34Z</time>
      </trkpt>
      <trkpt lat="45.12237" lon="5.24653">
        <ele>256.6</ele>
        <time>2010-10-17T10:11:35Z</time>
      </trkpt>
      <trkpt lat="45.12236" lon="5.24649">
        <ele>256.6</ele>
        <time>2010-10-17T10:11:36Z</time>
      </trkpt>
      <trkpt lat="45.12236" lon="5.24645">
        <ele>256.3</ele>
        <time>2010-10-17T10:11:37Z</time>
      </trkpt>
      <trkpt lat="45.12235" lon="5.24638">
        <ele>255.8</ele>
        <time>2010-10-17T10:11:38Z</time>
      </trkpt>
      <trkpt lat="45.12234" lon="5.24633">
        <ele>255.2</ele>
        <time>2010-10-17T10:11:39Z</time>
      </trkpt>
      <trkpt lat="45.12232" lon="5.24628">
        <ele>254.4</ele>
        <time>2010-10-17T10:11:40Z</time>
      </trkpt>
      <trkpt lat="45.12231" lon="5.24625">
        <ele>254.6</ele>
        <time>2010-10-17T10:11:41Z</time>
      </trkpt>
      <trkpt lat="45.12229" lon="5.24623">
        <ele>254.6</ele>
        <time>2010-10-17T10:11:42Z</time>
      </trkpt>
      <trkpt lat="45.12228" lon="5.24617">
        <ele>255.4</ele>
        <time>2010-10-17T10:11:43Z</time>
      </trkpt>
      <trkpt lat="45.12227" lon="5.24614">
        <ele>255.3</ele>
        <time>2010-10-17T10:11:43Z</time>
      </trkpt>
      <trkpt lat="45.12227" lon="5.2461">
        <ele>254.6</ele>
        <time>2010-10-17T10:11:45Z</time>
      </trkpt>
      <trkpt lat="45.12226" lon="5.24606">
        <ele>254.6</ele>
        <time>2010-10-17T10:11:46Z</time>
      </trkpt>
      <trkpt lat="45.12224" lon="5.24603">
        <ele>254.5</ele>
        <time>2010-10-17T10:11:47Z</time>
      </trkpt>
      <trkpt lat="45.12223" lon="5.246">
        <ele>254.7</ele>
        <time>2010-10-17T10:11:48Z</time>
      </trkpt>
      <trkpt lat="45.12223" lon="5.24597">
        <ele>254.7</ele>
        <time>2010-10-17T10:11:49Z</time>
      </trkpt>
      <trkpt lat="45.12222" lon="5.24594">
        <ele>254.5</ele>
        <time>2010-10-17T10:11:50Z</time>
      </trkpt>
      <trkpt lat="45.12222" lon="5.24591">
        <ele>254.2</ele>
        <time>2010-10-17T10:11:51Z</time>
      </trkpt>
      <trkpt lat="45.12222" lon="5.24588">
        <ele>253.9</ele>
        <time>2010-10-17T10:11:52Z</time>
      </trkpt>
      <trkpt lat="45.12222" lon="5.24585">
        <ele>254.8</ele>
        <time>2010-10-17T10:11:53Z</time>
      </trkpt>
      <trkpt lat="45.12222" lon="5.24583">
        <ele>255.5</ele>
        <time>2010-10-17T10:11:54Z</time>
      </trkpt>
      <trkpt lat="45.12223" lon="5.24582">
        <ele>254.9</ele>
        <time>2010-10-17T10:11:55Z</time>
      </trkpt>
      <trkpt lat="45.12225" lon="5.24581">
        <ele>254.8</ele>
        <time>2010-10-17T10:11:56Z</time>
      </trkpt>
      <trkpt lat="45.12228" lon="5.2458">
        <ele>254.3</ele>
        <time>2010-10-17T10:11:57Z</time>
      </trkpt>
      <trkpt lat="45.12232" lon="5.24579">
        <ele>253.6</ele>
        <time>2010-10-17T10:11:58Z</time>
      </trkpt>
      <trkpt lat="45.12234" lon="5.24578">
        <ele>253.2</ele>
        <time>2010-10-17T10:11:59Z</time>
      </trkpt>
      <trkpt lat="45.12237" lon="5.24577">
        <ele>252.8</ele>
        <time>2010-10-17T10:12:00Z</time>
      </trkpt>
      <trkpt lat="45.1224" lon="5.24575">
        <ele>252.8</ele>
        <time>2010-10-17T10:12:01Z</time>
      </trkpt>
      <trkpt lat="45.12241" lon="5.24575">
        <ele>252.6</ele>
        <time>2010-10-17T10:12:02Z</time>
      </trkpt>
      <trkpt lat="45.12244" lon="5.24575">
        <ele>252.4</ele>
        <time>2010-10-17T10:12:03Z</time>
      </trkpt>
      <trkpt lat="45.12246" lon="5.24575">
        <ele>252.1</ele>
        <time>2010-10-17T10:12:03Z</time>
      </trkpt>
      <trkpt lat="45.12249" lon="5.24574">
        <ele>251.6</ele>
        <time>2010-10-17T10:12:05Z</time>
      </trkpt>
      <trkpt lat="45.12251" lon="5.24573">
        <ele>251.5</ele>
        <time>2010-10-17T10:12:06Z</time>
      </trkpt>
      <trkpt lat="45.12253" lon="5.24572">
        <ele>251.9</ele>
        <time>2010-10-17T10:12:07Z</time>
      </trkpt>
      <trkpt lat="45.12254" lon="5.24571">
        <ele>252.4</ele>
        <time>2010-10-17T10:12:08Z</time>
      </trkpt>
      <trkpt lat="45.12256" lon="5.24571">
        <ele>252.5</ele>
        <time>2010-10-17T10:12:09Z</time>
      </trkpt>
      <trkpt lat="45.12259" lon="5.24571">
        <ele>252.6</ele>
        <time>2010-10-17T10:12:10Z</time>
      </trkpt>
      <trkpt lat="45.12264" lon="5.24571">
        <ele>253.2</ele>
        <time>2010-10-17T10:12:11Z</time>
      </trkpt>
      <trkpt lat="45.12266" lon="5.24571">
        <ele>253.1</ele>
        <time>2010-10-17T10:12:12Z</time>
      </trkpt>
      <trkpt lat="45.12269" lon="5.24571">
        <ele>253.4</ele>
        <time>2010-10-17T10:12:13Z</time>
      </trkpt>
      <trkpt lat="45.1227" lon="5.24571">
        <ele>253.2</ele>
        <time>2010-10-17T10:12:14Z</time>
      </trkpt>
      <trkpt lat="45.12272" lon="5.24571">
        <ele>253.3</ele>
        <time>2010-10-17T10:12:15Z</time>
      </trkpt>
      <trkpt lat="45.12273" lon="5.24571">
        <ele>253.4</ele>
        <time>2010-10-17T10:12:17Z</time>
      </trkpt>
      <trkpt lat="45.12276" lon="5.24572">
        <ele>253.8</ele>
        <time>2010-10-17T10:12:18Z</time>
      </trkpt>
      <trkpt lat="45.12278" lon="5.24572">
        <ele>254</ele>
        <time>2010-10-17T10:12:19Z</time>
      </trkpt>
      <trkpt lat="45.12281" lon="5.24572">
        <ele>254.6</ele>
        <time>2010-10-17T10:12:20Z</time>
      </trkpt>
      <trkpt lat="45.12284" lon="5.24573">
        <ele>255.7</ele>
        <time>2010-10-17T10:12:21Z</time>
      </trkpt>
      <trkpt lat="45.12286" lon="5.24573">
        <ele>255.6</ele>
        <time>2010-10-17T10:12:22Z</time>
      </trkpt>
      <trkpt lat="45.12289" lon="5.24574">
        <ele>255</ele>
        <time>2010-10-17T10:12:23Z</time>
      </trkpt>
      <trkpt lat="45.12291" lon="5.24574">
        <ele>255.1</ele>
        <time>2010-10-17T10:12:23Z</time>
      </trkpt>
      <trkpt lat="45.12294" lon="5.24574">
        <ele>255.5</ele>
        <time>2010-10-17T10:12:25Z</time>
      </trkpt>
      <trkpt lat="45.12296" lon="5.24572">
        <ele>255.7</ele>
        <time>2010-10-17T10:12:26Z</time>
      </trkpt>
      <trkpt lat="45.123" lon="5.24573">
        <ele>256.5</ele>
        <time>2010-10-17T10:12:27Z</time>
      </trkpt>
      <trkpt lat="45.12301" lon="5.24572">
        <ele>257.3</ele>
        <time>2010-10-17T10:12:28Z</time>
      </trkpt>
      <trkpt lat="45.12303" lon="5.24571">
        <ele>258.3</ele>
        <time>2010-10-17T10:12:29Z</time>
      </trkpt>
      <trkpt lat="45.12305" lon="5.24568">
        <ele>258.4</ele>
        <time>2010-10-17T10:12:30Z</time>
      </trkpt>
      <trkpt lat="45.12305" lon="5.24567">
        <ele>258.6</ele>
        <time>2010-10-17T10:12:31Z</time>
      </trkpt>
      <trkpt lat="45.12306" lon="5.24566">
        <ele>259.3</ele>
        <time>2010-10-17T10:12:32Z</time>
      </trkpt>
      <trkpt lat="45.12306" lon="5.24564">
        <ele>259.8</ele>
        <time>2010-10-17T10:12:33Z</time>
      </trkpt>
      <trkpt lat="45.12305" lon="5.24562">
        <ele>260.2</ele>
        <time>2010-10-17T10:12:34Z</time>
      </trkpt>
      <trkpt lat="45.12304" lon="5.24559">
        <ele>260.8</ele>
        <time>2010-10-17T10:12:36Z</time>
      </trkpt>
      <trkpt lat="45.12302" lon="5.24559">
        <ele>260.8</ele>
        <time>2010-10-17T10:12:37Z</time>
      </trkpt>
      <trkpt lat="45.12301" lon="5.24559">
        <ele>261.1</ele>
        <time>2010-10-17T10:12:38Z</time>
      </trkpt>
      <trkpt lat="45.12299" lon="5.24559">
        <ele>261.1</ele>
        <time>2010-10-17T10:12:40Z</time>
      </trkpt>
      <trkpt lat="45.12298" lon="5.24558">
        <ele>260.8</ele>
        <time>2010-10-17T10:12:41Z</time>
      </trkpt>
      <trkpt lat="45.12297" lon="5.24559">
        <ele>260.6</ele>
        <time>2010-10-17T10:12:42Z</time>
      </trkpt>
      <trkpt lat="45.12296" lon="5.24559">
        <ele>260.5</ele>
        <time>2010-10-17T10:12:42Z</time>
      </trkpt>
      <trkpt lat="45.12295" lon="5.24559">
        <ele>259.9</ele>
        <time>2010-10-17T10:12:43Z</time>
      </trkpt>
      <trkpt lat="45.12294" lon="5.24558">
        <ele>259.6</ele>
        <time>2010-10-17T10:12:45Z</time>
      </trkpt>
      <trkpt lat="45.12293" lon="5.24556">
        <ele>259.2</ele>
        <time>2010-10-17T10:12:46Z</time>
      </trkpt>
      <trkpt lat="45.12292" lon="5.24555">
        <ele>259.5</ele>
        <time>2010-10-17T10:12:47Z</time>
      </trkpt>
      <trkpt lat="45.12291" lon="5.24556">
        <ele>259.1</ele>
        <time>2010-10-17T10:12:48Z</time>
      </trkpt>
      <trkpt lat="45.1229" lon="5.24556">
        <ele>258.9</ele>
        <time>2010-10-17T10:12:49Z</time>
      </trkpt>
      <trkpt lat="45.12288" lon="5.24555">
        <ele>258.9</ele>
        <time>2010-10-17T10:12:50Z</time>
      </trkpt>
      <trkpt lat="45.12288" lon="5.24553">
        <ele>258.7</ele>
        <time>2010-10-17T10:12:51Z</time>
      </trkpt>
      <trkpt lat="45.12287" lon="5.24552">
        <ele>259</ele>
        <time>2010-10-17T10:12:52Z</time>
      </trkpt>
      <trkpt lat="45.12287" lon="5.2455">
        <ele>259.3</ele>
        <time>2010-10-17T10:12:53Z</time>
      </trkpt>
      <trkpt lat="45.12287" lon="5.24551">
        <ele>259.4</ele>
        <time>2010-10-17T10:13:00Z</time>
      </trkpt>
      <trkpt lat="45.12287" lon="5.24549">
        <ele>259.9</ele>
        <time>2010-10-17T10:13:01Z</time>
      </trkpt>
      <trkpt lat="45.12287" lon="5.24549">
        <ele>259.6</ele>
        <time>2010-10-17T10:13:13Z</time>
      </trkpt>
      <trkpt lat="45.12288" lon="5.24541">
        <ele>259.2</ele>
        <time>2010-10-17T10:13:14Z</time>
      </trkpt>
      <trkpt lat="45.12288" lon="5.24532">
        <ele>258.8</ele>
        <time>2010-10-17T10:13:15Z</time>
      </trkpt>
      <trkpt lat="45.1229" lon="5.24528">
        <ele>259</ele>
        <time>2010-10-17T10:13:16Z</time>
      </trkpt>
      <trkpt lat="45.12288" lon="5.24523">
        <ele>259.4</ele>
        <time>2010-10-17T10:13:17Z</time>
      </trkpt>
      <trkpt lat="45.12285" lon="5.24517">
        <ele>260.2</ele>
        <time>2010-10-17T10:13:18Z</time>
      </trkpt>
      <trkpt lat="45.12281" lon="5.24509">
        <ele>260.9</ele>
        <time>2010-10-17T10:13:19Z</time>
      </trkpt>
      <trkpt lat="45.12278" lon="5.24499">
        <ele>261.6</ele>
        <time>2010-10-17T10:13:20Z</time>
      </trkpt>
      <trkpt lat="45.12275" lon="5.24492">
        <ele>262.2</ele>
        <time>2010-10-17T10:13:21Z</time>
      </trkpt>
      <trkpt lat="45.12275" lon="5.24488">
        <ele>262.2</ele>
        <time>2010-10-17T10:13:22Z</time>
      </trkpt>
      <trkpt lat="45.12274" lon="5.24484">
        <ele>262.7</ele>
        <time>2010-10-17T10:13:22Z</time>
      </trkpt>
      <trkpt lat="45.12274" lon="5.24481">
        <ele>262.8</ele>
        <time>2010-10-17T10:13:23Z</time>
      </trkpt>
      <trkpt lat="45.12274" lon="5.24476">
        <ele>263.2</ele>
        <time>2010-10-17T10:13:25Z</time>
      </trkpt>
      <trkpt lat="45.12275" lon="5.24473">
        <ele>263.1</ele>
        <time>2010-10-17T10:13:26Z</time>
      </trkpt>
      <trkpt lat="45.12276" lon="5.24469">
        <ele>263.8</ele>
        <time>2010-10-17T10:13:27Z</time>
      </trkpt>
      <trkpt lat="45.12277" lon="5.24467">
        <ele>263.7</ele>
        <time>2010-10-17T10:13:28Z</time>
      </trkpt>
      <trkpt lat="45.12278" lon="5.24464">
        <ele>263.7</ele>
        <time>2010-10-17T10:13:29Z</time>
      </trkpt>
      <trkpt lat="45.12278" lon="5.24459">
        <ele>263</ele>
        <time>2010-10-17T10:13:30Z</time>
      </trkpt>
      <trkpt lat="45.12277" lon="5.24454">
        <ele>263.3</ele>
        <time>2010-10-17T10:13:31Z</time>
      </trkpt>
      <trkpt lat="45.12276" lon="5.24448">
        <ele>263.4</ele>
        <time>2010-10-17T10:13:32Z</time>
      </trkpt>
      <trkpt lat="45.12275" lon="5.24442">
        <ele>263.4</ele>
        <time>2010-10-17T10:13:33Z</time>
      </trkpt>
      <trkpt lat="45.12272" lon="5.24437">
        <ele>263.8</ele>
        <time>2010-10-17T10:13:34Z</time>
      </trkpt>
      <trkpt lat="45.12272" lon="5.24432">
        <ele>263.9</ele>
        <time>2010-10-17T10:13:35Z</time>
      </trkpt>
      <trkpt lat="45.12271" lon="5.24426">
        <ele>264.4</ele>
        <time>2010-10-17T10:13:36Z</time>
      </trkpt>
      <trkpt lat="45.12271" lon="5.24421">
        <ele>264.6</ele>
        <time>2010-10-17T10:13:37Z</time>
      </trkpt>
      <trkpt lat="45.12271" lon="5.24418">
        <ele>264.5</ele>
        <time>2010-10-17T10:13:38Z</time>
      </trkpt>
      <trkpt lat="45.1227" lon="5.24413">
        <ele>264.4</ele>
        <time>2010-10-17T10:13:39Z</time>
      </trkpt>
      <trkpt lat="45.12269" lon="5.24408">
        <ele>264.9</ele>
        <time>2010-10-17T10:13:40Z</time>
      </trkpt>
      <trkpt lat="45.12267" lon="5.24404">
        <ele>264.9</ele>
        <time>2010-10-17T10:13:41Z</time>
      </trkpt>
      <trkpt lat="45.12265" lon="5.24399">
        <ele>265</ele>
        <time>2010-10-17T10:13:42Z</time>
      </trkpt>
      <trkpt lat="45.12265" lon="5.24395">
        <ele>264.6</ele>
        <time>2010-10-17T10:13:42Z</time>
      </trkpt>
      <trkpt lat="45.12266" lon="5.24391">
        <ele>264.5</ele>
        <time>2010-10-17T10:13:44Z</time>
      </trkpt>
      <trkpt lat="45.12266" lon="5.24386">
        <ele>264.6</ele>
        <time>2010-10-17T10:13:45Z</time>
      </trkpt>
      <trkpt lat="45.12266" lon="5.24383">
        <ele>265</ele>
        <time>2010-10-17T10:13:46Z</time>
      </trkpt>
      <trkpt lat="45.12266" lon="5.24378">
        <ele>265.7</ele>
        <time>2010-10-17T10:13:47Z</time>
      </trkpt>
      <trkpt lat="45.12265" lon="5.24371">
        <ele>265.5</ele>
        <time>2010-10-17T10:13:48Z</time>
      </trkpt>
      <trkpt lat="45.12265" lon="5.24366">
        <ele>266.2</ele>
        <time>2010-10-17T10:13:49Z</time>
      </trkpt>
      <trkpt lat="45.12264" lon="5.2436">
        <ele>266.3</ele>
        <time>2010-10-17T10:13:50Z</time>
      </trkpt>
      <trkpt lat="45.12264" lon="5.24357">
        <ele>266.5</ele>
        <time>2010-10-17T10:13:51Z</time>
      </trkpt>
      <trkpt lat="45.12263" lon="5.2435">
        <ele>266.7</ele>
        <time>2010-10-17T10:13:52Z</time>
      </trkpt>
      <trkpt lat="45.12263" lon="5.24346">
        <ele>267.1</ele>
        <time>2010-10-17T10:13:53Z</time>
      </trkpt>
      <trkpt lat="45.12261" lon="5.2434">
        <ele>267.8</ele>
        <time>2010-10-17T10:13:54Z</time>
      </trkpt>
      <trkpt lat="45.12261" lon="5.24336">
        <ele>268.8</ele>
        <time>2010-10-17T10:13:55Z</time>
      </trkpt>
      <trkpt lat="45.12262" lon="5.24332">
        <ele>268.5</ele>
        <time>2010-10-17T10:13:56Z</time>
      </trkpt>
      <trkpt lat="45.12262" lon="5.24328">
        <ele>268.6</ele>
        <time>2010-10-17T10:13:57Z</time>
      </trkpt>
      <trkpt lat="45.12262" lon="5.24325">
        <ele>268.7</ele>
        <time>2010-10-17T10:13:58Z</time>
      </trkpt>
      <trkpt lat="45.12261" lon="5.2432">
        <ele>268.6</ele>
        <time>2010-10-17T10:13:59Z</time>
      </trkpt>
      <trkpt lat="45.12261" lon="5.24316">
        <ele>268.7</ele>
        <time>2010-10-17T10:14:00Z</time>
      </trkpt>
      <trkpt lat="45.12261" lon="5.24314">
        <ele>269.4</ele>
        <time>2010-10-17T10:14:01Z</time>
      </trkpt>
      <trkpt lat="45.12261" lon="5.2431">
        <ele>268.9</ele>
        <time>2010-10-17T10:14:02Z</time>
      </trkpt>
      <trkpt lat="45.12261" lon="5.24306">
        <ele>269.4</ele>
        <time>2010-10-17T10:14:02Z</time>
      </trkpt>
      <trkpt lat="45.1226" lon="5.24303">
        <ele>269.3</ele>
        <time>2010-10-17T10:14:04Z</time>
      </trkpt>
      <trkpt lat="45.1226" lon="5.243">
        <ele>270.1</ele>
        <time>2010-10-17T10:14:05Z</time>
      </trkpt>
      <trkpt lat="45.12259" lon="5.24296">
        <ele>270.1</ele>
        <time>2010-10-17T10:14:06Z</time>
      </trkpt>
      <trkpt lat="45.12258" lon="5.24292">
        <ele>269.7</ele>
        <time>2010-10-17T10:14:07Z</time>
      </trkpt>
      <trkpt lat="45.12257" lon="5.2429">
        <ele>269.6</ele>
        <time>2010-10-17T10:14:08Z</time>
      </trkpt>
      <trkpt lat="45.12257" lon="5.24288">
        <ele>269.6</ele>
        <time>2010-10-17T10:14:09Z</time>
      </trkpt>
      <trkpt lat="45.12256" lon="5.24286">
        <ele>269.7</ele>
        <time>2010-10-17T10:14:10Z</time>
      </trkpt>
      <trkpt lat="45.12255" lon="5.24284">
        <ele>269.4</ele>
        <time>2010-10-17T10:14:11Z</time>
      </trkpt>
      <trkpt lat="45.12254" lon="5.24282">
        <ele>269</ele>
        <time>2010-10-17T10:14:12Z</time>
      </trkpt>
      <trkpt lat="45.12254" lon="5.24279">
        <ele>268.9</ele>
        <time>2010-10-17T10:14:13Z</time>
      </trkpt>
      <trkpt lat="45.12252" lon="5.24276">
        <ele>269</ele>
        <time>2010-10-17T10:14:14Z</time>
      </trkpt>
      <trkpt lat="45.12253" lon="5.2427">
        <ele>269.3</ele>
        <time>2010-10-17T10:14:15Z</time>
      </trkpt>
      <trkpt lat="45.12252" lon="5.24268">
        <ele>270.4</ele>
        <time>2010-10-17T10:14:16Z</time>
      </trkpt>
      <trkpt lat="45.12252" lon="5.24264">
        <ele>270.3</ele>
        <time>2010-10-17T10:14:17Z</time>
      </trkpt>
      <trkpt lat="45.1225" lon="5.24262">
        <ele>270.7</ele>
        <time>2010-10-17T10:14:18Z</time>
      </trkpt>
      <trkpt lat="45.1225" lon="5.24259">
        <ele>270.3</ele>
        <time>2010-10-17T10:14:19Z</time>
      </trkpt>
      <trkpt lat="45.12249" lon="5.24257">
        <ele>269.9</ele>
        <time>2010-10-17T10:14:20Z</time>
      </trkpt>
      <trkpt lat="45.12248" lon="5.24255">
        <ele>269.8</ele>
        <time>2010-10-17T10:14:21Z</time>
      </trkpt>
      <trkpt lat="45.12247" lon="5.24252">
        <ele>270</ele>
        <time>2010-10-17T10:14:22Z</time>
      </trkpt>
      <trkpt lat="45.12246" lon="5.2425">
        <ele>270.9</ele>
        <time>2010-10-17T10:14:22Z</time>
      </trkpt>
      <trkpt lat="45.12245" lon="5.24248">
        <ele>271.2</ele>
        <time>2010-10-17T10:14:24Z</time>
      </trkpt>
      <trkpt lat="45.12244" lon="5.24245">
        <ele>271.7</ele>
        <time>2010-10-17T10:14:25Z</time>
      </trkpt>
      <trkpt lat="45.12244" lon="5.2424">
        <ele>272.3</ele>
        <time>2010-10-17T10:14:26Z</time>
      </trkpt>
      <trkpt lat="45.12245" lon="5.24236">
        <ele>271.5</ele>
        <time>2010-10-17T10:14:27Z</time>
      </trkpt>
      <trkpt lat="45.12245" lon="5.24232">
        <ele>271.7</ele>
        <time>2010-10-17T10:14:28Z</time>
      </trkpt>
      <trkpt lat="45.12243" lon="5.24228">
        <ele>272.3</ele>
        <time>2010-10-17T10:14:29Z</time>
      </trkpt>
      <trkpt lat="45.12242" lon="5.24224">
        <ele>272</ele>
        <time>2010-10-17T10:14:30Z</time>
      </trkpt>
      <trkpt lat="45.12241" lon="5.24221">
        <ele>272.1</ele>
        <time>2010-10-17T10:14:31Z</time>
      </trkpt>
      <trkpt lat="45.1224" lon="5.24217">
        <ele>271.9</ele>
        <time>2010-10-17T10:14:32Z</time>
      </trkpt>
      <trkpt lat="45.12237" lon="5.24209">
        <ele>271</ele>
        <time>2010-10-17T10:14:33Z</time>
      </trkpt>
      <trkpt lat="45.12238" lon="5.24207">
        <ele>271.5</ele>
        <time>2010-10-17T10:14:34Z</time>
      </trkpt>
      <trkpt lat="45.12234" lon="5.24199">
        <ele>269.6</ele>
        <time>2010-10-17T10:14:35Z</time>
      </trkpt>
      <trkpt lat="45.12233" lon="5.24192">
        <ele>269.3</ele>
        <time>2010-10-17T10:14:36Z</time>
      </trkpt>
      <trkpt lat="45.12232" lon="5.24189">
        <ele>270.3</ele>
        <time>2010-10-17T10:14:37Z</time>
      </trkpt>
      <trkpt lat="45.12231" lon="5.24184">
        <ele>271.1</ele>
        <time>2010-10-17T10:14:38Z</time>
      </trkpt>
      <trkpt lat="45.12229" lon="5.24181">
        <ele>271.9</ele>
        <time>2010-10-17T10:14:39Z</time>
      </trkpt>
      <trkpt lat="45.12229" lon="5.24177">
        <ele>273</ele>
        <time>2010-10-17T10:14:40Z</time>
      </trkpt>
      <trkpt lat="45.12228" lon="5.24173">
        <ele>275.3</ele>
        <time>2010-10-17T10:14:41Z</time>
      </trkpt>
      <trkpt lat="45.12226" lon="5.24167">
        <ele>275.6</ele>
        <time>2010-10-17T10:14:41Z</time>
      </trkpt>
      <trkpt lat="45.12225" lon="5.24162">
        <ele>275.5</ele>
        <time>2010-10-17T10:14:42Z</time>
      </trkpt>
      <trkpt lat="45.12224" lon="5.24157">
        <ele>274.6</ele>
        <time>2010-10-17T10:14:44Z</time>
      </trkpt>
      <trkpt lat="45.12223" lon="5.24155">
        <ele>274.9</ele>
        <time>2010-10-17T10:14:45Z</time>
      </trkpt>
      <trkpt lat="45.12222" lon="5.2415">
        <ele>275.3</ele>
        <time>2010-10-17T10:14:46Z</time>
      </trkpt>
      <trkpt lat="45.12222" lon="5.24147">
        <ele>275.7</ele>
        <time>2010-10-17T10:14:47Z</time>
      </trkpt>
      <trkpt lat="45.12222" lon="5.24142">
        <ele>275.8</ele>
        <time>2010-10-17T10:14:48Z</time>
      </trkpt>
      <trkpt lat="45.12221" lon="5.24137">
        <ele>275.2</ele>
        <time>2010-10-17T10:14:49Z</time>
      </trkpt>
      <trkpt lat="45.12221" lon="5.24132">
        <ele>274.4</ele>
        <time>2010-10-17T10:14:50Z</time>
      </trkpt>
      <trkpt lat="45.1222" lon="5.24129">
        <ele>274.2</ele>
        <time>2010-10-17T10:14:51Z</time>
      </trkpt>
      <trkpt lat="45.1222" lon="5.24125">
        <ele>274.3</ele>
        <time>2010-10-17T10:14:52Z</time>
      </trkpt>
      <trkpt lat="45.12218" lon="5.2412">
        <ele>273.9</ele>
        <time>2010-10-17T10:14:53Z</time>
      </trkpt>
      <trkpt lat="45.12218" lon="5.24118">
        <ele>274</ele>
        <time>2010-10-17T10:14:54Z</time>
      </trkpt>
      <trkpt lat="45.12216" lon="5.24116">
        <ele>273.7</ele>
        <time>2010-10-17T10:14:55Z</time>
      </trkpt>
      <trkpt lat="45.12215" lon="5.24116">
        <ele>274.2</ele>
        <time>2010-10-17T10:14:56Z</time>
      </trkpt>
      <trkpt lat="45.12213" lon="5.24116">
        <ele>274.1</ele>
        <time>2010-10-17T10:14:57Z</time>
      </trkpt>
      <trkpt lat="45.12213" lon="5.24115">
        <ele>273.7</ele>
        <time>2010-10-17T10:14:58Z</time>
      </trkpt>
      <trkpt lat="45.12214" lon="5.24114">
        <ele>273.2</ele>
        <time>2010-10-17T10:14:59Z</time>
      </trkpt>
      <trkpt lat="45.12214" lon="5.24113">
        <ele>272.8</ele>
        <time>2010-10-17T10:15:01Z</time>
      </trkpt>
      <trkpt lat="45.12214" lon="5.24112">
        <ele>273.4</ele>
        <time>2010-10-17T10:15:04Z</time>
      </trkpt>
      <trkpt lat="45.12215" lon="5.24112">
        <ele>272.4</ele>
        <time>2010-10-17T10:15:05Z</time>
      </trkpt>
      <trkpt lat="45.12215" lon="5.24112">
        <ele>272.5</ele>
        <time>2010-10-17T10:15:40Z</time>
      </trkpt>
      <trkpt lat="45.12215" lon="5.24111">
        <ele>273</ele>
        <time>2010-10-17T10:16:03Z</time>
      </trkpt>
      <trkpt lat="45.12214" lon="5.24109">
        <ele>273.3</ele>
        <time>2010-10-17T10:16:04Z</time>
      </trkpt>
      <trkpt lat="45.12213" lon="5.24108">
        <ele>273.4</ele>
        <time>2010-10-17T10:16:05Z</time>
      </trkpt>
      <trkpt lat="45.12211" lon="5.24108">
        <ele>273.5</ele>
        <time>2010-10-17T10:16:06Z</time>
      </trkpt>
      <trkpt lat="45.12208" lon="5.24107">
        <ele>273.3</ele>
        <time>2010-10-17T10:16:07Z</time>
      </trkpt>
      <trkpt lat="45.12205" lon="5.24107">
        <ele>273.4</ele>
        <time>2010-10-17T10:16:08Z</time>
      </trkpt>
      <trkpt lat="45.12202" lon="5.24108">
        <ele>273.4</ele>
        <time>2010-10-17T10:16:09Z</time>
      </trkpt>
      <trkpt lat="45.12197" lon="5.24108">
        <ele>273.4</ele>
        <time>2010-10-17T10:16:10Z</time>
      </trkpt>
      <trkpt lat="45.12193" lon="5.2411">
        <ele>273</ele>
        <time>2010-10-17T10:16:11Z</time>
      </trkpt>
      <trkpt lat="45.12189" lon="5.2411">
        <ele>272.8</ele>
        <time>2010-10-17T10:16:12Z</time>
      </trkpt>
      <trkpt lat="45.12184" lon="5.2411">
        <ele>272.4</ele>
        <time>2010-10-17T10:16:13Z</time>
      </trkpt>
      <trkpt lat="45.1218" lon="5.24112">
        <ele>272.6</ele>
        <time>2010-10-17T10:16:14Z</time>
      </trkpt>
      <trkpt lat="45.12175" lon="5.24112">
        <ele>272.6</ele>
        <time>2010-10-17T10:16:15Z</time>
      </trkpt>
      <trkpt lat="45.1217" lon="5.24113">
        <ele>272.4</ele>
        <time>2010-10-17T10:16:16Z</time>
      </trkpt>
      <trkpt lat="45.12165" lon="5.24114">
        <ele>272.2</ele>
        <time>2010-10-17T10:16:17Z</time>
      </trkpt>
      <trkpt lat="45.12158" lon="5.24113">
        <ele>271.9</ele>
        <time>2010-10-17T10:16:18Z</time>
      </trkpt>
      <trkpt lat="45.12152" lon="5.24112">
        <ele>271.7</ele>
        <time>2010-10-17T10:16:19Z</time>
      </trkpt>
      <trkpt lat="45.12145" lon="5.24112">
        <ele>271.9</ele>
        <time>2010-10-17T10:16:20Z</time>
      </trkpt>
      <trkpt lat="45.12138" lon="5.24112">
        <ele>271.7</ele>
        <time>2010-10-17T10:16:21Z</time>
      </trkpt>
      <trkpt lat="45.12131" lon="5.24113">
        <ele>271.7</ele>
        <time>2010-10-17T10:16:21Z</time>
      </trkpt>
      <trkpt lat="45.12123" lon="5.24113">
        <ele>272.2</ele>
        <time>2010-10-17T10:16:23Z</time>
      </trkpt>
      <trkpt lat="45.12114" lon="5.24114">
        <ele>272.4</ele>
        <time>2010-10-17T10:16:24Z</time>
      </trkpt>
      <trkpt lat="45.12106" lon="5.24113">
        <ele>272.5</ele>
        <time>2010-10-17T10:16:25Z</time>
      </trkpt>
      <trkpt lat="45.12098" lon="5.24113">
        <ele>272.7</ele>
        <time>2010-10-17T10:16:26Z</time>
      </trkpt>
      <trkpt lat="45.12088" lon="5.24113">
        <ele>272.4</ele>
        <time>2010-10-17T10:16:27Z</time>
      </trkpt>
      <trkpt lat="45.1208" lon="5.24113">
        <ele>272.2</ele>
        <time>2010-10-17T10:16:28Z</time>
      </trkpt>
      <trkpt lat="45.1207" lon="5.24113">
        <ele>272.5</ele>
        <time>2010-10-17T10:16:29Z</time>
      </trkpt>
      <trkpt lat="45.12061" lon="5.24113">
        <ele>272.4</ele>
        <time>2010-10-17T10:16:30Z</time>
      </trkpt>
      <trkpt lat="45.12052" lon="5.24113">
        <ele>272.3</ele>
        <time>2010-10-17T10:16:31Z</time>
      </trkpt>
      <trkpt lat="45.12044" lon="5.24111">
        <ele>271.8</ele>
        <time>2010-10-17T10:16:32Z</time>
      </trkpt>
      <trkpt lat="45.12035" lon="5.24111">
        <ele>271.6</ele>
        <time>2010-10-17T10:16:33Z</time>
      </trkpt>
      <trkpt lat="45.12027" lon="5.24111">
        <ele>271.2</ele>
        <time>2010-10-17T10:16:34Z</time>
      </trkpt>
      <trkpt lat="45.12018" lon="5.24109">
        <ele>271</ele>
        <time>2010-10-17T10:16:35Z</time>
      </trkpt>
      <trkpt lat="45.12009" lon="5.24108">
        <ele>271.1</ele>
        <time>2010-10-17T10:16:36Z</time>
      </trkpt>
      <trkpt lat="45.12" lon="5.24107">
        <ele>271.2</ele>
        <time>2010-10-17T10:16:37Z</time>
      </trkpt>
      <trkpt lat="45.11991" lon="5.24105">
        <ele>271.3</ele>
        <time>2010-10-17T10:16:38Z</time>
      </trkpt>
      <trkpt lat="45.11982" lon="5.24104">
        <ele>271.8</ele>
        <time>2010-10-17T10:16:39Z</time>
      </trkpt>
      <trkpt lat="45.11974" lon="5.24101">
        <ele>271.8</ele>
        <time>2010-10-17T10:16:40Z</time>
      </trkpt>
      <trkpt lat="45.11966" lon="5.24098">
        <ele>271.6</ele>
        <time>2010-10-17T10:16:41Z</time>
      </trkpt>
      <trkpt lat="45.11958" lon="5.24094">
        <ele>272.1</ele>
        <time>2010-10-17T10:16:41Z</time>
      </trkpt>
      <trkpt lat="45.11951" lon="5.24091">
        <ele>272.2</ele>
        <time>2010-10-17T10:16:43Z</time>
      </trkpt>
      <trkpt lat="45.11943" lon="5.24088">
        <ele>271.7</ele>
        <time>2010-10-17T10:16:44Z</time>
      </trkpt>
      <trkpt lat="45.11935" lon="5.24085">
        <ele>271</ele>
        <time>2010-10-17T10:16:45Z</time>
      </trkpt>
      <trkpt lat="45.11926" lon="5.24085">
        <ele>271.4</ele>
        <time>2010-10-17T10:16:46Z</time>
      </trkpt>
      <trkpt lat="45.11918" lon="5.24083">
        <ele>271.4</ele>
        <time>2010-10-17T10:16:47Z</time>
      </trkpt>
      <trkpt lat="45.1191" lon="5.24082">
        <ele>271.3</ele>
        <time>2010-10-17T10:16:48Z</time>
      </trkpt>
      <trkpt lat="45.11902" lon="5.24079">
        <ele>271.7</ele>
        <time>2010-10-17T10:16:49Z</time>
      </trkpt>
      <trkpt lat="45.11895" lon="5.24078">
        <ele>271.8</ele>
        <time>2010-10-17T10:16:50Z</time>
      </trkpt>
      <trkpt lat="45.11886" lon="5.24077">
        <ele>272.3</ele>
        <time>2010-10-17T10:16:51Z</time>
      </trkpt>
      <trkpt lat="45.11879" lon="5.24074">
        <ele>272.3</ele>
        <time>2010-10-17T10:16:52Z</time>
      </trkpt>
      <trkpt lat="45.11871" lon="5.24072">
        <ele>272.2</ele>
        <time>2010-10-17T10:16:53Z</time>
      </trkpt>
      <trkpt lat="45.11864" lon="5.2407">
        <ele>271.9</ele>
        <time>2010-10-17T10:16:54Z</time>
      </trkpt>
      <trkpt lat="45.11856" lon="5.24068">
        <ele>272</ele>
        <time>2010-10-17T10:16:55Z</time>
      </trkpt>
      <trkpt lat="45.11849" lon="5.24064">
        <ele>271.3</ele>
        <time>2010-10-17T10:16:56Z</time>
      </trkpt>
      <trkpt lat="45.1184" lon="5.24062">
        <ele>271.6</ele>
        <time>2010-10-17T10:16:57Z</time>
      </trkpt>
      <trkpt lat="45.11832" lon="5.2406">
        <ele>271.8</ele>
        <time>2010-10-17T10:16:58Z</time>
      </trkpt>
      <trkpt lat="45.11824" lon="5.24056">
        <ele>272.1</ele>
        <time>2010-10-17T10:16:59Z</time>
      </trkpt>
      <trkpt lat="45.11816" lon="5.24055">
        <ele>271.9</ele>
        <time>2010-10-17T10:17:00Z</time>
      </trkpt>
      <trkpt lat="45.11808" lon="5.24052">
        <ele>272</ele>
        <time>2010-10-17T10:17:00Z</time>
      </trkpt>
      <trkpt lat="45.118" lon="5.24049">
        <ele>272</ele>
        <time>2010-10-17T10:17:01Z</time>
      </trkpt>
      <trkpt lat="45.11792" lon="5.24046">
        <ele>272.3</ele>
        <time>2010-10-17T10:17:03Z</time>
      </trkpt>
      <trkpt lat="45.11784" lon="5.24045">
        <ele>272.9</ele>
        <time>2010-10-17T10:17:04Z</time>
      </trkpt>
      <trkpt lat="45.11777" lon="5.24043">
        <ele>273.2</ele>
        <time>2010-10-17T10:17:05Z</time>
      </trkpt>
      <trkpt lat="45.11768" lon="5.24043">
        <ele>273.5</ele>
        <time>2010-10-17T10:17:06Z</time>
      </trkpt>
      <trkpt lat="45.11759" lon="5.24039">
        <ele>272.8</ele>
        <time>2010-10-17T10:17:07Z</time>
      </trkpt>
      <trkpt lat="45.11751" lon="5.24036">
        <ele>271.8</ele>
        <time>2010-10-17T10:17:08Z</time>
      </trkpt>
      <trkpt lat="45.11744" lon="5.24034">
        <ele>271.7</ele>
        <time>2010-10-17T10:17:09Z</time>
      </trkpt>
      <trkpt lat="45.11735" lon="5.24032">
        <ele>271.5</ele>
        <time>2010-10-17T10:17:10Z</time>
      </trkpt>
      <trkpt lat="45.11728" lon="5.24028">
        <ele>270.6</ele>
        <time>2010-10-17T10:17:11Z</time>
      </trkpt>
      <trkpt lat="45.1172" lon="5.24026">
        <ele>270.2</ele>
        <time>2010-10-17T10:17:12Z</time>
      </trkpt>
      <trkpt lat="45.11712" lon="5.24024">
        <ele>270.1</ele>
        <time>2010-10-17T10:17:13Z</time>
      </trkpt>
      <trkpt lat="45.11704" lon="5.2402">
        <ele>269.8</ele>
        <time>2010-10-17T10:17:14Z</time>
      </trkpt>
      <trkpt lat="45.11698" lon="5.24017">
        <ele>269.9</ele>
        <time>2010-10-17T10:17:15Z</time>
      </trkpt>
      <trkpt lat="45.11692" lon="5.24012">
        <ele>269.6</ele>
        <time>2010-10-17T10:17:16Z</time>
      </trkpt>
      <trkpt lat="45.11684" lon="5.24008">
        <ele>269.5</ele>
        <time>2010-10-17T10:17:17Z</time>
      </trkpt>
      <trkpt lat="45.11676" lon="5.24006">
        <ele>269.2</ele>
        <time>2010-10-17T10:17:18Z</time>
      </trkpt>
      <trkpt lat="45.11669" lon="5.24003">
        <ele>268.5</ele>
        <time>2010-10-17T10:17:19Z</time>
      </trkpt>
      <trkpt lat="45.1166" lon="5.24">
        <ele>268.5</ele>
        <time>2010-10-17T10:17:20Z</time>
      </trkpt>
      <trkpt lat="45.11651" lon="5.23994">
        <ele>268.9</ele>
        <time>2010-10-17T10:17:20Z</time>
      </trkpt>
      <trkpt lat="45.11643" lon="5.23989">
        <ele>269</ele>
        <time>2010-10-17T10:17:21Z</time>
      </trkpt>
      <trkpt lat="45.11636" lon="5.23985">
        <ele>268.9</ele>
        <time>2010-10-17T10:17:23Z</time>
      </trkpt>
      <trkpt lat="45.11627" lon="5.23982">
        <ele>268.7</ele>
        <time>2010-10-17T10:17:24Z</time>
      </trkpt>
      <trkpt lat="45.1162" lon="5.23978">
        <ele>268.7</ele>
        <time>2010-10-17T10:17:25Z</time>
      </trkpt>
      <trkpt lat="45.11613" lon="5.23973">
        <ele>268.5</ele>
        <time>2010-10-17T10:17:26Z</time>
      </trkpt>
      <trkpt lat="45.11606" lon="5.2397">
        <ele>268.5</ele>
        <time>2010-10-17T10:17:27Z</time>
      </trkpt>
      <trkpt lat="45.11597" lon="5.23966">
        <ele>268.4</ele>
        <time>2010-10-17T10:17:28Z</time>
      </trkpt>
      <trkpt lat="45.11587" lon="5.23962">
        <ele>269.4</ele>
        <time>2010-10-17T10:17:29Z</time>
      </trkpt>
      <trkpt lat="45.11578" lon="5.23959">
        <ele>269.3</ele>
        <time>2010-10-17T10:17:30Z</time>
      </trkpt>
      <trkpt lat="45.11569" lon="5.23954">
        <ele>269</ele>
        <time>2010-10-17T10:17:31Z</time>
      </trkpt>
      <trkpt lat="45.11562" lon="5.2395">
        <ele>269</ele>
        <time>2010-10-17T10:17:32Z</time>
      </trkpt>
      <trkpt lat="45.11554" lon="5.23945">
        <ele>269</ele>
        <time>2010-10-17T10:17:33Z</time>
      </trkpt>
      <trkpt lat="45.11546" lon="5.2394">
        <ele>268.9</ele>
        <time>2010-10-17T10:17:34Z</time>
      </trkpt>
      <trkpt lat="45.1154" lon="5.23935">
        <ele>269.5</ele>
        <time>2010-10-17T10:17:35Z</time>
      </trkpt>
      <trkpt lat="45.11533" lon="5.23931">
        <ele>269.6</ele>
        <time>2010-10-17T10:17:36Z</time>
      </trkpt>
      <trkpt lat="45.11526" lon="5.23928">
        <ele>269.7</ele>
        <time>2010-10-17T10:17:37Z</time>
      </trkpt>
      <trkpt lat="45.11521" lon="5.23928">
        <ele>269.6</ele>
        <time>2010-10-17T10:17:38Z</time>
      </trkpt>
      <trkpt lat="45.11513" lon="5.23925">
        <ele>269.5</ele>
        <time>2010-10-17T10:17:39Z</time>
      </trkpt>
      <trkpt lat="45.11507" lon="5.23922">
        <ele>269.5</ele>
        <time>2010-10-17T10:17:40Z</time>
      </trkpt>
      <trkpt lat="45.11501" lon="5.23918">
        <ele>269.4</ele>
        <time>2010-10-17T10:17:40Z</time>
      </trkpt>
      <trkpt lat="45.11496" lon="5.23914">
        <ele>269</ele>
        <time>2010-10-17T10:17:41Z</time>
      </trkpt>
      <trkpt lat="45.11489" lon="5.23909">
        <ele>269.2</ele>
        <time>2010-10-17T10:17:43Z</time>
      </trkpt>
      <trkpt lat="45.11482" lon="5.23906">
        <ele>268.6</ele>
        <time>2010-10-17T10:17:44Z</time>
      </trkpt>
      <trkpt lat="45.11476" lon="5.23903">
        <ele>268.2</ele>
        <time>2010-10-17T10:17:45Z</time>
      </trkpt>
      <trkpt lat="45.1147" lon="5.239">
        <ele>268.3</ele>
        <time>2010-10-17T10:17:46Z</time>
      </trkpt>
      <trkpt lat="45.11463" lon="5.23897">
        <ele>268.4</ele>
        <time>2010-10-17T10:17:47Z</time>
      </trkpt>
      <trkpt lat="45.11457" lon="5.23893">
        <ele>268.2</ele>
        <time>2010-10-17T10:17:48Z</time>
      </trkpt>
      <trkpt lat="45.11451" lon="5.23888">
        <ele>267.9</ele>
        <time>2010-10-17T10:17:49Z</time>
      </trkpt>
      <trkpt lat="45.11445" lon="5.23884">
        <ele>267.3</ele>
        <time>2010-10-17T10:17:50Z</time>
      </trkpt>
      <trkpt lat="45.11438" lon="5.23881">
        <ele>267.3</ele>
        <time>2010-10-17T10:17:51Z</time>
      </trkpt>
      <trkpt lat="45.11433" lon="5.23878">
        <ele>266.9</ele>
        <time>2010-10-17T10:17:52Z</time>
      </trkpt>
      <trkpt lat="45.11427" lon="5.23874">
        <ele>266.9</ele>
        <time>2010-10-17T10:17:53Z</time>
      </trkpt>
      <trkpt lat="45.11422" lon="5.23871">
        <ele>267.1</ele>
        <time>2010-10-17T10:17:54Z</time>
      </trkpt>
      <trkpt lat="45.11417" lon="5.23867">
        <ele>267</ele>
        <time>2010-10-17T10:17:55Z</time>
      </trkpt>
      <trkpt lat="45.11412" lon="5.23863">
        <ele>267.1</ele>
        <time>2010-10-17T10:17:56Z</time>
      </trkpt>
      <trkpt lat="45.11406" lon="5.23859">
        <ele>266.6</ele>
        <time>2010-10-17T10:17:57Z</time>
      </trkpt>
      <trkpt lat="45.11402" lon="5.23856">
        <ele>266.7</ele>
        <time>2010-10-17T10:17:58Z</time>
      </trkpt>
      <trkpt lat="45.11396" lon="5.23854">
        <ele>266.9</ele>
        <time>2010-10-17T10:17:59Z</time>
      </trkpt>
      <trkpt lat="45.11393" lon="5.23851">
        <ele>267.2</ele>
        <time>2010-10-17T10:18:00Z</time>
      </trkpt>
      <trkpt lat="45.1139" lon="5.23846">
        <ele>267.2</ele>
        <time>2010-10-17T10:18:00Z</time>
      </trkpt>
      <trkpt lat="45.1139" lon="5.23842">
        <ele>268.1</ele>
        <time>2010-10-17T10:18:02Z</time>
      </trkpt>
      <trkpt lat="45.1139" lon="5.23837">
        <ele>268</ele>
        <time>2010-10-17T10:18:03Z</time>
      </trkpt>
      <trkpt lat="45.1139" lon="5.23835">
        <ele>267.2</ele>
        <time>2010-10-17T10:18:04Z</time>
      </trkpt>
      <trkpt lat="45.11392" lon="5.23832">
        <ele>267.1</ele>
        <time>2010-10-17T10:18:05Z</time>
      </trkpt>
      <trkpt lat="45.11393" lon="5.23829">
        <ele>267.2</ele>
        <time>2010-10-17T10:18:06Z</time>
      </trkpt>
      <trkpt lat="45.11394" lon="5.23827">
        <ele>267.2</ele>
        <time>2010-10-17T10:18:07Z</time>
      </trkpt>
      <trkpt lat="45.11394" lon="5.23825">
        <ele>267</ele>
        <time>2010-10-17T10:18:08Z</time>
      </trkpt>
      <trkpt lat="45.11395" lon="5.23824">
        <ele>266.4</ele>
        <time>2010-10-17T10:18:10Z</time>
      </trkpt>
      <trkpt lat="45.11396" lon="5.23823">
        <ele>266.3</ele>
        <time>2010-10-17T10:18:11Z</time>
      </trkpt>
      <trkpt lat="45.11397" lon="5.23823">
        <ele>266.3</ele>
        <time>2010-10-17T10:18:12Z</time>
      </trkpt>
      <trkpt lat="45.11397" lon="5.23821">
        <ele>266.3</ele>
        <time>2010-10-17T10:18:14Z</time>
      </trkpt>
      <trkpt lat="45.11398" lon="5.23821">
        <ele>266.4</ele>
        <time>2010-10-17T10:18:15Z</time>
      </trkpt>
      <trkpt lat="45.11399" lon="5.23822">
        <ele>266.4</ele>
        <time>2010-10-17T10:18:16Z</time>
      </trkpt>
      <trkpt lat="45.114" lon="5.23823">
        <ele>266.7</ele>
        <time>2010-10-17T10:18:17Z</time>
      </trkpt>
      <trkpt lat="45.11399" lon="5.23823">
        <ele>266.5</ele>
        <time>2010-10-17T10:18:18Z</time>
      </trkpt>
      <trkpt lat="45.114" lon="5.23822">
        <ele>266.6</ele>
        <time>2010-10-17T10:18:19Z</time>
      </trkpt>
      <trkpt lat="45.114" lon="5.23824">
        <ele>266.6</ele>
        <time>2010-10-17T10:18:24Z</time>
      </trkpt>
      <trkpt lat="45.11401" lon="5.23822">
        <ele>266.5</ele>
        <time>2010-10-17T10:18:25Z</time>
      </trkpt>
      <trkpt lat="45.11402" lon="5.23822">
        <ele>265.9</ele>
        <time>2010-10-17T10:18:29Z</time>
      </trkpt>
      <trkpt lat="45.11401" lon="5.23823">
        <ele>266.4</ele>
        <time>2010-10-17T10:18:30Z</time>
      </trkpt>
      <trkpt lat="45.11401" lon="5.23824">
        <ele>266.5</ele>
        <time>2010-10-17T10:18:31Z</time>
      </trkpt>
      <trkpt lat="45.11402" lon="5.23822">
        <ele>266.6</ele>
        <time>2010-10-17T10:18:32Z</time>
      </trkpt>
      <trkpt lat="45.11405" lon="5.23822">
        <ele>266.6</ele>
        <time>2010-10-17T10:18:33Z</time>
      </trkpt>
      <trkpt lat="45.11404" lon="5.2382">
        <ele>266.4</ele>
        <time>2010-10-17T10:18:34Z</time>
      </trkpt>
      <trkpt lat="45.11405" lon="5.23821">
        <ele>266.3</ele>
        <time>2010-10-17T10:18:35Z</time>
      </trkpt>
      <trkpt lat="45.11406" lon="5.2382">
        <ele>266.2</ele>
        <time>2010-10-17T10:18:36Z</time>
      </trkpt>
      <trkpt lat="45.11407" lon="5.23819">
        <ele>266.1</ele>
        <time>2010-10-17T10:18:37Z</time>
      </trkpt>
      <trkpt lat="45.11407" lon="5.2382">
        <ele>266.2</ele>
        <time>2010-10-17T10:18:43Z</time>
      </trkpt>
      <trkpt lat="45.11407" lon="5.23821">
        <ele>266.2</ele>
        <time>2010-10-17T10:22:23Z</time>
      </trkpt>
    </trkseg>
  </trk>
</gpx>